<?xml version="1.0" encoding="UTF-8"?>
<TrainingCenterDatabase xmlns="http://www.garmin.com/xmlschemas/TrainingCenterDatabase/v2" xmlns:xsi="http://www.w3.org/2001/XMLSchema-instance" xsi:schemaLocation="http://www.garmin.com/xmlschemas/TrainingCenterDatabase/v2 http://www.garmin.com/xmlschemas/TrainingCenterDatabasev2.xsd">
  <Activities>
    <Activity Sport="Other">
      <Id>2022-04-23T10:04:58.000Z</Id>
      <Lap StartTime="2022-04-23T10:04:58.000Z">
        <TotalTimeSeconds>18694</TotalTimeSeconds>
        <DistanceMeters>117430</DistanceMeters>
        <Track>
          <Trackpoint>
            <Time>2022-04-23T10:04:58.000Z</Time>
            <Position>
              <LatitudeDegrees>41.790992729365825653076171875</LatitudeDegrees>
              <LongitudeDegrees>-0.1501700095832347869873046875</LongitudeDegrees>
            </Position>
            <AltitudeMeters>263.79998779296875</AltitudeMeters>
            <DistanceMeters>0</DistanceMeters>
          </Trackpoint>
          <Trackpoint>
            <Time>2022-04-23T10:05:00.000Z</Time>
            <Position>
              <LatitudeDegrees>41.7911873571574687957763671875</LatitudeDegrees>
              <LongitudeDegrees>-0.150227509438991546630859375</LongitudeDegrees>
            </Position>
            <AltitudeMeters>263.600006103515625</AltitudeMeters>
            <DistanceMeters>22.181767406559</DistanceMeters>
          </Trackpoint>
          <Trackpoint>
            <Time>2022-04-23T10:05:07.000Z</Time>
            <Position>
              <LatitudeDegrees>41.79148516617715358734130859375</LatitudeDegrees>
              <LongitudeDegrees>-0.15018249861896038055419921875</LongitudeDegrees>
            </Position>
            <AltitudeMeters>264.20001220703125</AltitudeMeters>
            <DistanceMeters>55.53817457401</DistanceMeters>
          </Trackpoint>
          <Trackpoint>
            <Time>2022-04-23T10:05:10.000Z</Time>
            <Position>
              <LatitudeDegrees>41.7916114814579486846923828125</LatitudeDegrees>
              <LongitudeDegrees>-0.15016808174550533294677734375</LongitudeDegrees>
            </Position>
            <AltitudeMeters>264.399993896484375</AltitudeMeters>
            <DistanceMeters>69.647641795826</DistanceMeters>
          </Trackpoint>
          <Trackpoint>
            <Time>2022-04-23T10:05:13.000Z</Time>
            <Position>
              <LatitudeDegrees>41.79178775288164615631103515625</LatitudeDegrees>
              <LongitudeDegrees>-0.15022457577288150787353515625</LongitudeDegrees>
            </Position>
            <AltitudeMeters>264</AltitudeMeters>
            <DistanceMeters>89.819286363509</DistanceMeters>
          </Trackpoint>
          <Trackpoint>
            <Time>2022-04-23T10:05:14.000Z</Time>
            <Position>
              <LatitudeDegrees>41.79181776009500026702880859375</LatitudeDegrees>
              <LongitudeDegrees>-0.15025324188172817230224609375</LongitudeDegrees>
            </Position>
            <AltitudeMeters>264.20001220703125</AltitudeMeters>
            <DistanceMeters>93.9186731789</DistanceMeters>
          </Trackpoint>
          <Trackpoint>
            <Time>2022-04-23T10:05:15.000Z</Time>
            <Position>
              <LatitudeDegrees>41.79185581393539905548095703125</LatitudeDegrees>
              <LongitudeDegrees>-0.15031107701361179351806640625</LongitudeDegrees>
            </Position>
            <AltitudeMeters>264.20001220703125</AltitudeMeters>
            <DistanceMeters>100.32011730524</DistanceMeters>
          </Trackpoint>
          <Trackpoint>
            <Time>2022-04-23T10:05:17.000Z</Time>
            <Position>
              <LatitudeDegrees>41.79189152084290981292724609375</LatitudeDegrees>
              <LongitudeDegrees>-0.15043915249407291412353515625</LongitudeDegrees>
            </Position>
            <AltitudeMeters>264.600006103515625</AltitudeMeters>
            <DistanceMeters>111.66695959453</DistanceMeters>
          </Trackpoint>
          <Trackpoint>
            <Time>2022-04-23T10:05:18.000Z</Time>
            <Position>
              <LatitudeDegrees>41.79190208204090595245361328125</LatitudeDegrees>
              <LongitudeDegrees>-0.1504942215979099273681640625</LongitudeDegrees>
            </Position>
            <AltitudeMeters>264.79998779296875</AltitudeMeters>
            <DistanceMeters>116.38587562586</DistanceMeters>
          </Trackpoint>
          <Trackpoint>
            <Time>2022-04-23T10:05:22.000Z</Time>
            <Position>
              <LatitudeDegrees>41.79194835014641284942626953125</LatitudeDegrees>
              <LongitudeDegrees>-0.15078549273312091827392578125</LongitudeDegrees>
            </Position>
            <AltitudeMeters>265.79998779296875</AltitudeMeters>
            <DistanceMeters>141.09903386618</DistanceMeters>
          </Trackpoint>
          <Trackpoint>
            <Time>2022-04-23T10:05:25.000Z</Time>
            <Position>
              <LatitudeDegrees>41.7919866554439067840576171875</LatitudeDegrees>
              <LongitudeDegrees>-0.15102085657417774200439453125</LongitudeDegrees>
            </Position>
            <AltitudeMeters>266.399993896484375</AltitudeMeters>
            <DistanceMeters>161.09036006674</DistanceMeters>
          </Trackpoint>
          <Trackpoint>
            <Time>2022-04-23T10:05:29.000Z</Time>
            <Position>
              <LatitudeDegrees>41.79204122163355350494384765625</LatitudeDegrees>
              <LongitudeDegrees>-0.15134305693209171295166015625</LongitudeDegrees>
            </Position>
            <AltitudeMeters>267</AltitudeMeters>
            <DistanceMeters>188.5086549451</DistanceMeters>
          </Trackpoint>
          <Trackpoint>
            <Time>2022-04-23T10:05:32.000Z</Time>
            <Position>
              <LatitudeDegrees>41.79207256995141506195068359375</LatitudeDegrees>
              <LongitudeDegrees>-0.1515788398683071136474609375</LongitudeDegrees>
            </Position>
            <AltitudeMeters>267.20001220703125</AltitudeMeters>
            <DistanceMeters>208.38310094522</DistanceMeters>
          </Trackpoint>
          <Trackpoint>
            <Time>2022-04-23T10:05:42.000Z</Time>
            <Position>
              <LatitudeDegrees>41.7921871505677700042724609375</LatitudeDegrees>
              <LongitudeDegrees>-0.15237671323120594024658203125</LongitudeDegrees>
            </Position>
            <AltitudeMeters>267.79998779296875</AltitudeMeters>
            <DistanceMeters>275.81016307598</DistanceMeters>
          </Trackpoint>
          <Trackpoint>
            <Time>2022-04-23T10:05:47.000Z</Time>
            <Position>
              <LatitudeDegrees>41.792246997356414794921875</LatitudeDegrees>
              <LongitudeDegrees>-0.1527620293200016021728515625</LongitudeDegrees>
            </Position>
            <AltitudeMeters>268.20001220703125</AltitudeMeters>
            <DistanceMeters>308.47116413963</DistanceMeters>
          </Trackpoint>
          <Trackpoint>
            <Time>2022-04-23T10:05:50.000Z</Time>
            <Position>
              <LatitudeDegrees>41.7922770045697689056396484375</LatitudeDegrees>
              <LongitudeDegrees>-0.15298758633434772491455078125</LongitudeDegrees>
            </Position>
            <AltitudeMeters>268.399993896484375</AltitudeMeters>
            <DistanceMeters>327.48410763096</DistanceMeters>
          </Trackpoint>
          <Trackpoint>
            <Time>2022-04-23T10:05:51.000Z</Time>
            <Position>
              <LatitudeDegrees>41.7922900803387165069580078125</LatitudeDegrees>
              <LongitudeDegrees>-0.15307509340345859527587890625</LongitudeDegrees>
            </Position>
            <AltitudeMeters>268.600006103515625</AltitudeMeters>
            <DistanceMeters>334.89009739065</DistanceMeters>
          </Trackpoint>
          <Trackpoint>
            <Time>2022-04-23T10:05:59.000Z</Time>
            <Position>
              <LatitudeDegrees>41.79238705895841121673583984375</LatitudeDegrees>
              <LongitudeDegrees>-0.15366434119641780853271484375</LongitudeDegrees>
            </Position>
            <AltitudeMeters>269.20001220703125</AltitudeMeters>
            <DistanceMeters>384.96484808445</DistanceMeters>
          </Trackpoint>
          <Trackpoint>
            <Time>2022-04-23T10:06:07.000Z</Time>
            <Position>
              <LatitudeDegrees>41.7924929223954677581787109375</LatitudeDegrees>
              <LongitudeDegrees>-0.15428259037435054779052734375</LongitudeDegrees>
            </Position>
            <AltitudeMeters>269.399993896484375</AltitudeMeters>
            <DistanceMeters>437.60467328795</DistanceMeters>
          </Trackpoint>
          <Trackpoint>
            <Time>2022-04-23T10:06:12.000Z</Time>
            <Position>
              <LatitudeDegrees>41.7925541102886199951171875</LatitudeDegrees>
              <LongitudeDegrees>-0.15466245822608470916748046875</LongitudeDegrees>
            </Position>
            <AltitudeMeters>269.79998779296875</AltitudeMeters>
            <DistanceMeters>469.85444979122</DistanceMeters>
          </Trackpoint>
          <Trackpoint>
            <Time>2022-04-23T10:06:13.000Z</Time>
            <Position>
              <LatitudeDegrees>41.79256659932434558868408203125</LatitudeDegrees>
              <LongitudeDegrees>-0.1547414995729923248291015625</LongitudeDegrees>
            </Position>
            <AltitudeMeters>270</AltitudeMeters>
            <DistanceMeters>476.55905421938</DistanceMeters>
          </Trackpoint>
          <Trackpoint>
            <Time>2022-04-23T10:06:16.000Z</Time>
            <Position>
              <LatitudeDegrees>41.79261244833469390869140625</LatitudeDegrees>
              <LongitudeDegrees>-0.154986418783664703369140625</LongitudeDegrees>
            </Position>
            <AltitudeMeters>270.20001220703125</AltitudeMeters>
            <DistanceMeters>497.51411464203</DistanceMeters>
          </Trackpoint>
          <Trackpoint>
            <Time>2022-04-23T10:06:17.000Z</Time>
            <Position>
              <LatitudeDegrees>41.7926263622939586639404296875</LatitudeDegrees>
              <LongitudeDegrees>-0.15506344847381114959716796875</LongitudeDegrees>
            </Position>
            <AltitudeMeters>270.399993896484375</AltitudeMeters>
            <DistanceMeters>504.09089699866</DistanceMeters>
          </Trackpoint>
          <Trackpoint>
            <Time>2022-04-23T10:06:19.000Z</Time>
            <Position>
              <LatitudeDegrees>41.792652346193790435791015625</LatitudeDegrees>
              <LongitudeDegrees>-0.15521214343607425689697265625</LongitudeDegrees>
            </Position>
            <AltitudeMeters>271.399993896484375</AltitudeMeters>
            <DistanceMeters>516.76405523299</DistanceMeters>
          </Trackpoint>
          <Trackpoint>
            <Time>2022-04-23T10:06:23.000Z</Time>
            <Position>
              <LatitudeDegrees>41.7926927469670772552490234375</LatitudeDegrees>
              <LongitudeDegrees>-0.15548388473689556121826171875</LongitudeDegrees>
            </Position>
            <AltitudeMeters>272.399993896484375</AltitudeMeters>
            <DistanceMeters>539.75777123963</DistanceMeters>
          </Trackpoint>
          <Trackpoint>
            <Time>2022-04-23T10:06:24.000Z</Time>
            <Position>
              <LatitudeDegrees>41.7927069962024688720703125</LatitudeDegrees>
              <LongitudeDegrees>-0.155552364885807037353515625</LongitudeDegrees>
            </Position>
            <AltitudeMeters>272.600006103515625</AltitudeMeters>
            <DistanceMeters>545.65708599772</DistanceMeters>
          </Trackpoint>
          <Trackpoint>
            <Time>2022-04-23T10:06:25.000Z</Time>
            <Position>
              <LatitudeDegrees>41.79272166453301906585693359375</LatitudeDegrees>
              <LongitudeDegrees>-0.1556169055402278900146484375</LongitudeDegrees>
            </Position>
            <AltitudeMeters>272.79998779296875</AltitudeMeters>
            <DistanceMeters>551.2564096545</DistanceMeters>
          </Trackpoint>
          <Trackpoint>
            <Time>2022-04-23T10:06:27.000Z</Time>
            <Position>
              <LatitudeDegrees>41.7927418649196624755859375</LatitudeDegrees>
              <LongitudeDegrees>-0.15574489720165729522705078125</LongitudeDegrees>
            </Position>
            <AltitudeMeters>273.20001220703125</AltitudeMeters>
            <DistanceMeters>562.11276989846</DistanceMeters>
          </Trackpoint>
          <Trackpoint>
            <Time>2022-04-23T10:06:28.000Z</Time>
            <Position>
              <LatitudeDegrees>41.7927547730505466461181640625</LatitudeDegrees>
              <LongitudeDegrees>-0.15580977313220500946044921875</LongitudeDegrees>
            </Position>
            <AltitudeMeters>273.79998779296875</AltitudeMeters>
            <DistanceMeters>567.68461006256</DistanceMeters>
          </Trackpoint>
          <Trackpoint>
            <Time>2022-04-23T10:06:29.000Z</Time>
            <Position>
              <LatitudeDegrees>41.79276290349662303924560546875</LatitudeDegrees>
              <LongitudeDegrees>-0.15587448142468929290771484375</LongitudeDegrees>
            </Position>
            <AltitudeMeters>274.20001220703125</AltitudeMeters>
            <DistanceMeters>573.13022949858</DistanceMeters>
          </Trackpoint>
          <Trackpoint>
            <Time>2022-04-23T10:06:30.000Z</Time>
            <Position>
              <LatitudeDegrees>41.79277178831398487091064453125</LatitudeDegrees>
              <LongitudeDegrees>-0.15593701042234897613525390625</LongitudeDegrees>
            </Position>
            <AltitudeMeters>274.20001220703125</AltitudeMeters>
            <DistanceMeters>578.41255249247</DistanceMeters>
          </Trackpoint>
          <Trackpoint>
            <Time>2022-04-23T10:06:32.000Z</Time>
            <Position>
              <LatitudeDegrees>41.79279073141515254974365234375</LatitudeDegrees>
              <LongitudeDegrees>-0.15605100430548191070556640625</LongitudeDegrees>
            </Position>
            <AltitudeMeters>275.20001220703125</AltitudeMeters>
            <DistanceMeters>588.10434567898</DistanceMeters>
          </Trackpoint>
          <Trackpoint>
            <Time>2022-04-23T10:06:34.000Z</Time>
            <Position>
              <LatitudeDegrees>41.792803891003131866455078125</LatitudeDegrees>
              <LongitudeDegrees>-0.1561654172837734222412109375</LongitudeDegrees>
            </Position>
            <AltitudeMeters>276</AltitudeMeters>
            <DistanceMeters>597.71050782527</DistanceMeters>
          </Trackpoint>
          <Trackpoint>
            <Time>2022-04-23T10:06:35.000Z</Time>
            <Position>
              <LatitudeDegrees>41.79281671531498432159423828125</LatitudeDegrees>
              <LongitudeDegrees>-0.15622702427208423614501953125</LongitudeDegrees>
            </Position>
            <AltitudeMeters>276.20001220703125</AltitudeMeters>
            <DistanceMeters>603.0184112254</DistanceMeters>
          </Trackpoint>
          <Trackpoint>
            <Time>2022-04-23T10:06:42.000Z</Time>
            <Position>
              <LatitudeDegrees>41.79289852268993854522705078125</LatitudeDegrees>
              <LongitudeDegrees>-0.1566482149064540863037109375</LongitudeDegrees>
            </Position>
            <AltitudeMeters>277.600006103515625</AltitudeMeters>
            <DistanceMeters>639.13631403343</DistanceMeters>
          </Trackpoint>
          <Trackpoint>
            <Time>2022-04-23T10:06:44.000Z</Time>
            <Position>
              <LatitudeDegrees>41.79293431341648101806640625</LatitudeDegrees>
              <LongitudeDegrees>-0.1567628793418407440185546875</LongitudeDegrees>
            </Position>
            <AltitudeMeters>278.600006103515625</AltitudeMeters>
            <DistanceMeters>649.45185671501</DistanceMeters>
          </Trackpoint>
          <Trackpoint>
            <Time>2022-04-23T10:06:45.000Z</Time>
            <Position>
              <LatitudeDegrees>41.792962141335010528564453125</LatitudeDegrees>
              <LongitudeDegrees>-0.156813673675060272216796875</LongitudeDegrees>
            </Position>
            <AltitudeMeters>278.79998779296875</AltitudeMeters>
            <DistanceMeters>654.68350671302</DistanceMeters>
          </Trackpoint>
          <Trackpoint>
            <Time>2022-04-23T10:06:48.000Z</Time>
            <Position>
              <LatitudeDegrees>41.793041266500949859619140625</LatitudeDegrees>
              <LongitudeDegrees>-0.1569764502346515655517578125</LongitudeDegrees>
            </Position>
            <AltitudeMeters>279.79998779296875</AltitudeMeters>
            <DistanceMeters>670.80839496464</DistanceMeters>
          </Trackpoint>
          <Trackpoint>
            <Time>2022-04-23T10:06:49.000Z</Time>
            <Position>
              <LatitudeDegrees>41.79306012578308582305908203125</LatitudeDegrees>
              <LongitudeDegrees>-0.15703990124166011810302734375</LongitudeDegrees>
            </Position>
            <AltitudeMeters>280.399993896484375</AltitudeMeters>
            <DistanceMeters>676.47664090034</DistanceMeters>
          </Trackpoint>
          <Trackpoint>
            <Time>2022-04-23T10:06:51.000Z</Time>
            <Position>
              <LatitudeDegrees>41.79308007471263408660888671875</LatitudeDegrees>
              <LongitudeDegrees>-0.15717283822596073150634765625</LongitudeDegrees>
            </Position>
            <AltitudeMeters>281</AltitudeMeters>
            <DistanceMeters>687.72918425272</DistanceMeters>
          </Trackpoint>
          <Trackpoint>
            <Time>2022-04-23T10:06:55.000Z</Time>
            <Position>
              <LatitudeDegrees>41.79312030784785747528076171875</LatitudeDegrees>
              <LongitudeDegrees>-0.1574260555207729339599609375</LongitudeDegrees>
            </Position>
            <AltitudeMeters>281.79998779296875</AltitudeMeters>
            <DistanceMeters>709.21362949828</DistanceMeters>
          </Trackpoint>
          <Trackpoint>
            <Time>2022-04-23T10:06:57.000Z</Time>
            <Position>
              <LatitudeDegrees>41.79314595647156238555908203125</LatitudeDegrees>
              <LongitudeDegrees>-0.157543234527111053466796875</LongitudeDegrees>
            </Position>
            <AltitudeMeters>282.20001220703125</AltitudeMeters>
            <DistanceMeters>719.34812945998</DistanceMeters>
          </Trackpoint>
          <Trackpoint>
            <Time>2022-04-23T10:06:59.000Z</Time>
            <Position>
              <LatitudeDegrees>41.79316188208758831024169921875</LatitudeDegrees>
              <LongitudeDegrees>-0.15764825977385044097900390625</LongitudeDegrees>
            </Position>
            <AltitudeMeters>282.600006103515625</AltitudeMeters>
            <DistanceMeters>728.24112723891</DistanceMeters>
          </Trackpoint>
          <Trackpoint>
            <Time>2022-04-23T10:07:01.000Z</Time>
            <Position>
              <LatitudeDegrees>41.79316841997206211090087890625</LatitudeDegrees>
              <LongitudeDegrees>-0.15773492865264415740966796875</LongitudeDegrees>
            </Position>
            <AltitudeMeters>282.79998779296875</AltitudeMeters>
            <DistanceMeters>735.46940658497</DistanceMeters>
          </Trackpoint>
          <Trackpoint>
            <Time>2022-04-23T10:07:03.000Z</Time>
            <Position>
              <LatitudeDegrees>41.79318778216838836669921875</LatitudeDegrees>
              <LongitudeDegrees>-0.1578359305858612060546875</LongitudeDegrees>
            </Position>
            <AltitudeMeters>283.399993896484375</AltitudeMeters>
            <DistanceMeters>744.1231008221</DistanceMeters>
          </Trackpoint>
          <Trackpoint>
            <Time>2022-04-23T10:07:06.000Z</Time>
            <Position>
              <LatitudeDegrees>41.79319457150995731353759765625</LatitudeDegrees>
              <LongitudeDegrees>-0.15799476765096187591552734375</LongitudeDegrees>
            </Position>
            <AltitudeMeters>283.79998779296875</AltitudeMeters>
            <DistanceMeters>757.32531789051</DistanceMeters>
          </Trackpoint>
          <Trackpoint>
            <Time>2022-04-23T10:07:08.000Z</Time>
            <Position>
              <LatitudeDegrees>41.79317076690495014190673828125</LatitudeDegrees>
              <LongitudeDegrees>-0.15808462165296077728271484375</LongitudeDegrees>
            </Position>
            <AltitudeMeters>284.20001220703125</AltitudeMeters>
            <DistanceMeters>765.23825350647</DistanceMeters>
          </Trackpoint>
          <Trackpoint>
            <Time>2022-04-23T10:07:09.000Z</Time>
            <Position>
              <LatitudeDegrees>41.79316925816237926483154296875</LatitudeDegrees>
              <LongitudeDegrees>-0.15812871046364307403564453125</LongitudeDegrees>
            </Position>
            <AltitudeMeters>284.600006103515625</AltitudeMeters>
            <DistanceMeters>768.89894107069</DistanceMeters>
          </Trackpoint>
          <Trackpoint>
            <Time>2022-04-23T10:07:10.000Z</Time>
            <Position>
              <LatitudeDegrees>41.79316489957273006439208984375</LatitudeDegrees>
              <LongitudeDegrees>-0.15817564912140369415283203125</LongitudeDegrees>
            </Position>
            <AltitudeMeters>284.79998779296875</AltitudeMeters>
            <DistanceMeters>772.82390099576</DistanceMeters>
          </Trackpoint>
          <Trackpoint>
            <Time>2022-04-23T10:07:12.000Z</Time>
            <Position>
              <LatitudeDegrees>41.79311511106789112091064453125</LatitudeDegrees>
              <LongitudeDegrees>-0.1582753099501132965087890625</LongitudeDegrees>
            </Position>
            <AltitudeMeters>285.600006103515625</AltitudeMeters>
            <DistanceMeters>782.77950841313</DistanceMeters>
          </Trackpoint>
          <Trackpoint>
            <Time>2022-04-23T10:07:14.000Z</Time>
            <Position>
              <LatitudeDegrees>41.79307303391396999359130859375</LatitudeDegrees>
              <LongitudeDegrees>-0.15838301740586757659912109375</LongitudeDegrees>
            </Position>
            <AltitudeMeters>286.399993896484375</AltitudeMeters>
            <DistanceMeters>792.86980632279</DistanceMeters>
          </Trackpoint>
          <Trackpoint>
            <Time>2022-04-23T10:07:16.000Z</Time>
            <Position>
              <LatitudeDegrees>41.79301754571497440338134765625</LatitudeDegrees>
              <LongitudeDegrees>-0.15846289694309234619140625</LongitudeDegrees>
            </Position>
            <AltitudeMeters>287</AltitudeMeters>
            <DistanceMeters>801.92979500245</DistanceMeters>
          </Trackpoint>
          <Trackpoint>
            <Time>2022-04-23T10:07:18.000Z</Time>
            <Position>
              <LatitudeDegrees>41.79294797591865062713623046875</LatitudeDegrees>
              <LongitudeDegrees>-0.1585292816162109375</LongitudeDegrees>
            </Position>
            <AltitudeMeters>287.600006103515625</AltitudeMeters>
            <DistanceMeters>811.43294156114</DistanceMeters>
          </Trackpoint>
          <Trackpoint>
            <Time>2022-04-23T10:07:21.000Z</Time>
            <Position>
              <LatitudeDegrees>41.7928411066532135009765625</LatitudeDegrees>
              <LongitudeDegrees>-0.158614106476306915283203125</LongitudeDegrees>
            </Position>
            <AltitudeMeters>288.600006103515625</AltitudeMeters>
            <DistanceMeters>825.25467434862</DistanceMeters>
          </Trackpoint>
          <Trackpoint>
            <Time>2022-04-23T10:07:24.000Z</Time>
            <Position>
              <LatitudeDegrees>41.7927282862365245819091796875</LatitudeDegrees>
              <LongitudeDegrees>-0.158679820597171783447265625</LongitudeDegrees>
            </Position>
            <AltitudeMeters>289.20001220703125</AltitudeMeters>
            <DistanceMeters>838.94511870484</DistanceMeters>
          </Trackpoint>
          <Trackpoint>
            <Time>2022-04-23T10:07:26.000Z</Time>
            <Position>
              <LatitudeDegrees>41.7926421202719211578369140625</LatitudeDegrees>
              <LongitudeDegrees>-0.15870689414441585540771484375</LongitudeDegrees>
            </Position>
            <AltitudeMeters>289.600006103515625</AltitudeMeters>
            <DistanceMeters>848.79586494392</DistanceMeters>
          </Trackpoint>
          <Trackpoint>
            <Time>2022-04-23T10:07:30.000Z</Time>
            <Position>
              <LatitudeDegrees>41.79252468980848789215087890625</LatitudeDegrees>
              <LongitudeDegrees>-0.15873639844357967376708984375</LongitudeDegrees>
            </Position>
            <AltitudeMeters>290.399993896484375</AltitudeMeters>
            <DistanceMeters>862.09349469232</DistanceMeters>
          </Trackpoint>
          <Trackpoint>
            <Time>2022-04-23T10:07:36.000Z</Time>
            <Position>
              <LatitudeDegrees>41.792323775589466094970703125</LatitudeDegrees>
              <LongitudeDegrees>-0.1587973348796367645263671875</LongitudeDegrees>
            </Position>
            <AltitudeMeters>290.79998779296875</AltitudeMeters>
            <DistanceMeters>885.0199573425</DistanceMeters>
          </Trackpoint>
          <Trackpoint>
            <Time>2022-04-23T10:07:39.000Z</Time>
            <Position>
              <LatitudeDegrees>41.79219176061451435089111328125</LatitudeDegrees>
              <LongitudeDegrees>-0.15882759355008602142333984375</LongitudeDegrees>
            </Position>
            <AltitudeMeters>290.79998779296875</AltitudeMeters>
            <DistanceMeters>899.9261326058</DistanceMeters>
          </Trackpoint>
          <Trackpoint>
            <Time>2022-04-23T10:07:41.000Z</Time>
            <Position>
              <LatitudeDegrees>41.79210810922086238861083984375</LatitudeDegrees>
              <LongitudeDegrees>-0.158868916332721710205078125</LongitudeDegrees>
            </Position>
            <AltitudeMeters>291.20001220703125</AltitudeMeters>
            <DistanceMeters>909.84812300047</DistanceMeters>
          </Trackpoint>
          <Trackpoint>
            <Time>2022-04-23T10:07:43.000Z</Time>
            <Position>
              <LatitudeDegrees>41.79201029241085052490234375</LatitudeDegrees>
              <LongitudeDegrees>-0.158907137811183929443359375</LongitudeDegrees>
            </Position>
            <AltitudeMeters>291.399993896484375</AltitudeMeters>
            <DistanceMeters>921.18780062208</DistanceMeters>
          </Trackpoint>
          <Trackpoint>
            <Time>2022-04-23T10:07:45.000Z</Time>
            <Position>
              <LatitudeDegrees>41.79191599600017070770263671875</LatitudeDegrees>
              <LongitudeDegrees>-0.158956088125705718994140625</LongitudeDegrees>
            </Position>
            <AltitudeMeters>291.79998779296875</AltitudeMeters>
            <DistanceMeters>932.44194884409</DistanceMeters>
          </Trackpoint>
          <Trackpoint>
            <Time>2022-04-23T10:07:46.000Z</Time>
            <Position>
              <LatitudeDegrees>41.791870482265949249267578125</LatitudeDegrees>
              <LongitudeDegrees>-0.1589807309210300445556640625</LongitudeDegrees>
            </Position>
            <AltitudeMeters>292</AltitudeMeters>
            <DistanceMeters>937.90577833664</DistanceMeters>
          </Trackpoint>
          <Trackpoint>
            <Time>2022-04-23T10:07:48.000Z</Time>
            <Position>
              <LatitudeDegrees>41.79178255610167980194091796875</LatitudeDegrees>
              <LongitudeDegrees>-0.15904149971902370452880859375</LongitudeDegrees>
            </Position>
            <AltitudeMeters>292.399993896484375</AltitudeMeters>
            <DistanceMeters>948.9149420665</DistanceMeters>
          </Trackpoint>
          <Trackpoint>
            <Time>2022-04-23T10:07:51.000Z</Time>
            <Position>
              <LatitudeDegrees>41.79164509288966655731201171875</LatitudeDegrees>
              <LongitudeDegrees>-0.1591155119240283966064453125</LongitudeDegrees>
            </Position>
            <AltitudeMeters>292.79998779296875</AltitudeMeters>
            <DistanceMeters>965.40146083072</DistanceMeters>
          </Trackpoint>
          <Trackpoint>
            <Time>2022-04-23T10:07:53.000Z</Time>
            <Position>
              <LatitudeDegrees>41.79155758582055568695068359375</LatitudeDegrees>
              <LongitudeDegrees>-0.159148536622524261474609375</LongitudeDegrees>
            </Position>
            <AltitudeMeters>293.600006103515625</AltitudeMeters>
            <DistanceMeters>975.51901718434</DistanceMeters>
          </Trackpoint>
          <Trackpoint>
            <Time>2022-04-23T10:07:54.000Z</Time>
            <Position>
              <LatitudeDegrees>41.79152037017047405242919921875</LatitudeDegrees>
              <LongitudeDegrees>-0.15916161239147186279296875</LongitudeDegrees>
            </Position>
            <AltitudeMeters>293.79998779296875</AltitudeMeters>
            <DistanceMeters>979.80154975955</DistanceMeters>
          </Trackpoint>
          <Trackpoint>
            <Time>2022-04-23T10:07:57.000Z</Time>
            <Position>
              <LatitudeDegrees>41.79137888364493846893310546875</LatitudeDegrees>
              <LongitudeDegrees>-0.1592238061130046844482421875</LongitudeDegrees>
            </Position>
            <AltitudeMeters>294.600006103515625</AltitudeMeters>
            <DistanceMeters>996.37356577722</DistanceMeters>
          </Trackpoint>
          <Trackpoint>
            <Time>2022-04-23T10:07:59.000Z</Time>
            <Position>
              <LatitudeDegrees>41.7912705056369304656982421875</LatitudeDegrees>
              <LongitudeDegrees>-0.1592791266739368438720703125</LongitudeDegrees>
            </Position>
            <AltitudeMeters>295.20001220703125</AltitudeMeters>
            <DistanceMeters>1009.2804186174</DistanceMeters>
          </Trackpoint>
          <Trackpoint>
            <Time>2022-04-23T10:08:02.000Z</Time>
            <Position>
              <LatitudeDegrees>41.79112114012241363525390625</LatitudeDegrees>
              <LongitudeDegrees>-0.15937459655106067657470703125</LongitudeDegrees>
            </Position>
            <AltitudeMeters>296</AltitudeMeters>
            <DistanceMeters>1027.6964879885</DistanceMeters>
          </Trackpoint>
          <Trackpoint>
            <Time>2022-04-23T10:08:04.000Z</Time>
            <Position>
              <LatitudeDegrees>41.79101946763694286346435546875</LatitudeDegrees>
              <LongitudeDegrees>-0.15943226404488086700439453125</LongitudeDegrees>
            </Position>
            <AltitudeMeters>296.20001220703125</AltitudeMeters>
            <DistanceMeters>1039.9832620969</DistanceMeters>
          </Trackpoint>
          <Trackpoint>
            <Time>2022-04-23T10:08:06.000Z</Time>
            <Position>
              <LatitudeDegrees>41.79091838188469409942626953125</LatitudeDegrees>
              <LongitudeDegrees>-0.159477777779102325439453125</LongitudeDegrees>
            </Position>
            <AltitudeMeters>296.600006103515625</AltitudeMeters>
            <DistanceMeters>1051.8513340706</DistanceMeters>
          </Trackpoint>
          <Trackpoint>
            <Time>2022-04-23T10:08:07.000Z</Time>
            <Position>
              <LatitudeDegrees>41.79086356423795223236083984375</LatitudeDegrees>
              <LongitudeDegrees>-0.15950166620314121246337890625</LongitudeDegrees>
            </Position>
            <AltitudeMeters>296.600006103515625</AltitudeMeters>
            <DistanceMeters>1058.2668690001</DistanceMeters>
          </Trackpoint>
          <Trackpoint>
            <Time>2022-04-23T10:08:09.000Z</Time>
            <Position>
              <LatitudeDegrees>41.79075392894446849822998046875</LatitudeDegrees>
              <LongitudeDegrees>-0.1595309190452098846435546875</LongitudeDegrees>
            </Position>
            <AltitudeMeters>296.79998779296875</AltitudeMeters>
            <DistanceMeters>1070.7092011993</DistanceMeters>
          </Trackpoint>
          <Trackpoint>
            <Time>2022-04-23T10:08:10.000Z</Time>
            <Position>
              <LatitudeDegrees>41.7907075770199298858642578125</LatitudeDegrees>
              <LongitudeDegrees>-0.15953016467392444610595703125</LongitudeDegrees>
            </Position>
            <AltitudeMeters>297</AltitudeMeters>
            <DistanceMeters>1075.868723014</DistanceMeters>
          </Trackpoint>
          <Trackpoint>
            <Time>2022-04-23T10:08:13.000Z</Time>
            <Position>
              <LatitudeDegrees>41.79056885652244091033935546875</LatitudeDegrees>
              <LongitudeDegrees>-0.1595042645931243896484375</LongitudeDegrees>
            </Position>
            <AltitudeMeters>297</AltitudeMeters>
            <DistanceMeters>1091.4571596613</DistanceMeters>
          </Trackpoint>
          <Trackpoint>
            <Time>2022-04-23T10:08:14.000Z</Time>
            <Position>
              <LatitudeDegrees>41.79052107967436313629150390625</LatitudeDegrees>
              <LongitudeDegrees>-0.15952639281749725341796875</LongitudeDegrees>
            </Position>
            <AltitudeMeters>297</AltitudeMeters>
            <DistanceMeters>1097.0830300772</DistanceMeters>
          </Trackpoint>
          <Trackpoint>
            <Time>2022-04-23T10:08:15.000Z</Time>
            <Position>
              <LatitudeDegrees>41.79048017598688602447509765625</LatitudeDegrees>
              <LongitudeDegrees>-0.15956235118210315704345703125</LongitudeDegrees>
            </Position>
            <AltitudeMeters>297</AltitudeMeters>
            <DistanceMeters>1102.5269910331</DistanceMeters>
          </Trackpoint>
          <Trackpoint>
            <Time>2022-04-23T10:08:17.000Z</Time>
            <Position>
              <LatitudeDegrees>41.79042703472077846527099609375</LatitudeDegrees>
              <LongitudeDegrees>-0.15964952297508716583251953125</LongitudeDegrees>
            </Position>
            <AltitudeMeters>296.79998779296875</AltitudeMeters>
            <DistanceMeters>1111.8710698607</DistanceMeters>
          </Trackpoint>
          <Trackpoint>
            <Time>2022-04-23T10:08:22.000Z</Time>
            <Position>
              <LatitudeDegrees>41.79034237749874591827392578125</LatitudeDegrees>
              <LongitudeDegrees>-0.1598397083580493927001953125</LongitudeDegrees>
            </Position>
            <AltitudeMeters>296.399993896484375</AltitudeMeters>
            <DistanceMeters>1130.2522923507</DistanceMeters>
          </Trackpoint>
          <Trackpoint>
            <Time>2022-04-23T10:08:28.000Z</Time>
            <Position>
              <LatitudeDegrees>41.79025017656385898590087890625</LatitudeDegrees>
              <LongitudeDegrees>-0.16014254651963710784912109375</LongitudeDegrees>
            </Position>
            <AltitudeMeters>296.600006103515625</AltitudeMeters>
            <DistanceMeters>1157.3980168415</DistanceMeters>
          </Trackpoint>
          <Trackpoint>
            <Time>2022-04-23T10:08:31.000Z</Time>
            <Position>
              <LatitudeDegrees>41.79024414159357547760009765625</LatitudeDegrees>
              <LongitudeDegrees>-0.160330049693584442138671875</LongitudeDegrees>
            </Position>
            <AltitudeMeters>297.20001220703125</AltitudeMeters>
            <DistanceMeters>1172.9725445531</DistanceMeters>
          </Trackpoint>
          <Trackpoint>
            <Time>2022-04-23T10:08:33.000Z</Time>
            <Position>
              <LatitudeDegrees>41.790252439677715301513671875</LatitudeDegrees>
              <LongitudeDegrees>-0.1604643277823925018310546875</LongitudeDegrees>
            </Position>
            <AltitudeMeters>297.600006103515625</AltitudeMeters>
            <DistanceMeters>1184.1538418109</DistanceMeters>
          </Trackpoint>
          <Trackpoint>
            <Time>2022-04-23T10:08:40.000Z</Time>
            <Position>
              <LatitudeDegrees>41.79028688929975032806396484375</LatitudeDegrees>
              <LongitudeDegrees>-0.16093321144580841064453125</LongitudeDegrees>
            </Position>
            <AltitudeMeters>298.600006103515625</AltitudeMeters>
            <DistanceMeters>1223.2529180341</DistanceMeters>
          </Trackpoint>
          <Trackpoint>
            <Time>2022-04-23T10:08:41.000Z</Time>
            <Position>
              <LatitudeDegrees>41.790292672812938690185546875</LatitudeDegrees>
              <LongitudeDegrees>-0.1609990932047367095947265625</LongitudeDegrees>
            </Position>
            <AltitudeMeters>298.600006103515625</AltitudeMeters>
            <DistanceMeters>1228.7579100001</DistanceMeters>
          </Trackpoint>
          <Trackpoint>
            <Time>2022-04-23T10:08:43.000Z</Time>
            <Position>
              <LatitudeDegrees>41.79029242135584354400634765625</LatitudeDegrees>
              <LongitudeDegrees>-0.16112524084746837615966796875</LongitudeDegrees>
            </Position>
            <AltitudeMeters>298.79998779296875</AltitudeMeters>
            <DistanceMeters>1239.2263868579</DistanceMeters>
          </Trackpoint>
          <Trackpoint>
            <Time>2022-04-23T10:08:44.000Z</Time>
            <Position>
              <LatitudeDegrees>41.790285296738147735595703125</LatitudeDegrees>
              <LongitudeDegrees>-0.16118424944579601287841796875</LongitudeDegrees>
            </Position>
            <AltitudeMeters>298.79998779296875</AltitudeMeters>
            <DistanceMeters>1244.1869269807</DistanceMeters>
          </Trackpoint>
          <Trackpoint>
            <Time>2022-04-23T10:08:45.000Z</Time>
            <Position>
              <LatitudeDegrees>41.79026526398956775665283203125</LatitudeDegrees>
              <LongitudeDegrees>-0.16124007292091846466064453125</LongitudeDegrees>
            </Position>
            <AltitudeMeters>299</AltitudeMeters>
            <DistanceMeters>1249.3271607959</DistanceMeters>
          </Trackpoint>
          <Trackpoint>
            <Time>2022-04-23T10:08:46.000Z</Time>
            <Position>
              <LatitudeDegrees>41.790236346423625946044921875</LatitudeDegrees>
              <LongitudeDegrees>-0.16127795912325382232666015625</LongitudeDegrees>
            </Position>
            <AltitudeMeters>299</AltitudeMeters>
            <DistanceMeters>1253.8276564868</DistanceMeters>
          </Trackpoint>
          <Trackpoint>
            <Time>2022-04-23T10:08:48.000Z</Time>
            <Position>
              <LatitudeDegrees>41.79013006389141082763671875</LatitudeDegrees>
              <LongitudeDegrees>-0.16134434379637241363525390625</LongitudeDegrees>
            </Position>
            <AltitudeMeters>299</AltitudeMeters>
            <DistanceMeters>1266.8771461926</DistanceMeters>
          </Trackpoint>
          <Trackpoint>
            <Time>2022-04-23T10:08:54.000Z</Time>
            <Position>
              <LatitudeDegrees>41.78978866897523403167724609375</LatitudeDegrees>
              <LongitudeDegrees>-0.16155070625245571136474609375</LongitudeDegrees>
            </Position>
            <AltitudeMeters>299.399993896484375</AltitudeMeters>
            <DistanceMeters>1308.5557591188</DistanceMeters>
          </Trackpoint>
          <Trackpoint>
            <Time>2022-04-23T10:09:00.000Z</Time>
            <Position>
              <LatitudeDegrees>41.78942623548209667205810546875</LatitudeDegrees>
              <LongitudeDegrees>-0.16173058189451694488525390625</LongitudeDegrees>
            </Position>
            <AltitudeMeters>299.600006103515625</AltitudeMeters>
            <DistanceMeters>1351.5685493328</DistanceMeters>
          </Trackpoint>
          <Trackpoint>
            <Time>2022-04-23T10:09:02.000Z</Time>
            <Position>
              <LatitudeDegrees>41.7892980761826038360595703125</LatitudeDegrees>
              <LongitudeDegrees>-0.16178472898900508880615234375</LongitudeDegrees>
            </Position>
            <AltitudeMeters>299.600006103515625</AltitudeMeters>
            <DistanceMeters>1366.5243172341</DistanceMeters>
          </Trackpoint>
          <Trackpoint>
            <Time>2022-04-23T10:09:03.000Z</Time>
            <Position>
              <LatitudeDegrees>41.78922884166240692138671875</LatitudeDegrees>
              <LongitudeDegrees>-0.1618131436407566070556640625</LongitudeDegrees>
            </Position>
            <AltitudeMeters>299.79998779296875</AltitudeMeters>
            <DistanceMeters>1374.5831204818</DistanceMeters>
          </Trackpoint>
          <Trackpoint>
            <Time>2022-04-23T10:09:06.000Z</Time>
            <Position>
              <LatitudeDegrees>41.7890127561986446380615234375</LatitudeDegrees>
              <LongitudeDegrees>-0.16188916750252246856689453125</LongitudeDegrees>
            </Position>
            <AltitudeMeters>300</AltitudeMeters>
            <DistanceMeters>1399.4478186262</DistanceMeters>
          </Trackpoint>
          <Trackpoint>
            <Time>2022-04-23T10:09:10.000Z</Time>
            <Position>
              <LatitudeDegrees>41.7887244187295436859130859375</LatitudeDegrees>
              <LongitudeDegrees>-0.1619750820100307464599609375</LongitudeDegrees>
            </Position>
            <AltitudeMeters>300.399993896484375</AltitudeMeters>
            <DistanceMeters>1432.3228045456</DistanceMeters>
          </Trackpoint>
          <Trackpoint>
            <Time>2022-04-23T10:09:13.000Z</Time>
            <Position>
              <LatitudeDegrees>41.78853280842304229736328125</LatitudeDegrees>
              <LongitudeDegrees>-0.1620122976601123809814453125</LongitudeDegrees>
            </Position>
            <AltitudeMeters>300.399993896484375</AltitudeMeters>
            <DistanceMeters>1453.8718799562</DistanceMeters>
          </Trackpoint>
          <Trackpoint>
            <Time>2022-04-23T10:09:15.000Z</Time>
            <Position>
              <LatitudeDegrees>41.7884102649986743927001953125</LatitudeDegrees>
              <LongitudeDegrees>-0.16196829266846179962158203125</LongitudeDegrees>
            </Position>
            <AltitudeMeters>300.600006103515625</AltitudeMeters>
            <DistanceMeters>1467.9915834846</DistanceMeters>
          </Trackpoint>
          <Trackpoint>
            <Time>2022-04-23T10:09:16.000Z</Time>
            <Position>
              <LatitudeDegrees>41.78834094665944576263427734375</LatitudeDegrees>
              <LongitudeDegrees>-0.1619304902851581573486328125</LongitudeDegrees>
            </Position>
            <AltitudeMeters>300.79998779296875</AltitudeMeters>
            <DistanceMeters>1476.3203917572</DistanceMeters>
          </Trackpoint>
          <Trackpoint>
            <Time>2022-04-23T10:09:17.000Z</Time>
            <Position>
              <LatitudeDegrees>41.78826550953090190887451171875</LatitudeDegrees>
              <LongitudeDegrees>-0.1619009859859943389892578125</LongitudeDegrees>
            </Position>
            <AltitudeMeters>300.79998779296875</AltitudeMeters>
            <DistanceMeters>1485.0669800998</DistanceMeters>
          </Trackpoint>
          <Trackpoint>
            <Time>2022-04-23T10:09:20.000Z</Time>
            <Position>
              <LatitudeDegrees>41.78804020397365093231201171875</LatitudeDegrees>
              <LongitudeDegrees>-0.16183954663574695587158203125</LongitudeDegrees>
            </Position>
            <AltitudeMeters>301.20001220703125</AltitudeMeters>
            <DistanceMeters>1510.656882084</DistanceMeters>
          </Trackpoint>
          <Trackpoint>
            <Time>2022-04-23T10:09:21.000Z</Time>
            <Position>
              <LatitudeDegrees>41.78796711377799510955810546875</LatitudeDegrees>
              <LongitudeDegrees>-0.1618299074470996856689453125</LongitudeDegrees>
            </Position>
            <AltitudeMeters>301.20001220703125</AltitudeMeters>
            <DistanceMeters>1518.8313891447</DistanceMeters>
          </Trackpoint>
          <Trackpoint>
            <Time>2022-04-23T10:09:24.000Z</Time>
            <Position>
              <LatitudeDegrees>41.78775496780872344970703125</LatitudeDegrees>
              <LongitudeDegrees>-0.16180216334760189056396484375</LongitudeDegrees>
            </Position>
            <AltitudeMeters>301</AltitudeMeters>
            <DistanceMeters>1542.555546341</DistanceMeters>
          </Trackpoint>
          <Trackpoint>
            <Time>2022-04-23T10:09:29.000Z</Time>
            <Position>
              <LatitudeDegrees>41.7874218709766864776611328125</LatitudeDegrees>
              <LongitudeDegrees>-0.16173779033124446868896484375</LongitudeDegrees>
            </Position>
            <AltitudeMeters>300.79998779296875</AltitudeMeters>
            <DistanceMeters>1580.0128303787</DistanceMeters>
          </Trackpoint>
          <Trackpoint>
            <Time>2022-04-23T10:09:34.000Z</Time>
            <Position>
              <LatitudeDegrees>41.78709673695266246795654296875</LatitudeDegrees>
              <LongitudeDegrees>-0.16164910979568958282470703125</LongitudeDegrees>
            </Position>
            <AltitudeMeters>300.399993896484375</AltitudeMeters>
            <DistanceMeters>1616.9416836607</DistanceMeters>
          </Trackpoint>
          <Trackpoint>
            <Time>2022-04-23T10:09:36.000Z</Time>
            <Position>
              <LatitudeDegrees>41.78696279413998126983642578125</LatitudeDegrees>
              <LongitudeDegrees>-0.1616475172340869903564453125</LongitudeDegrees>
            </Position>
            <AltitudeMeters>300.20001220703125</AltitudeMeters>
            <DistanceMeters>1631.8502819044</DistanceMeters>
          </Trackpoint>
          <Trackpoint>
            <Time>2022-04-23T10:09:37.000Z</Time>
            <Position>
              <LatitudeDegrees>41.78690043278038501739501953125</LatitudeDegrees>
              <LongitudeDegrees>-0.16165916807949542999267578125</LongitudeDegrees>
            </Position>
            <AltitudeMeters>300</AltitudeMeters>
            <DistanceMeters>1638.8578175413</DistanceMeters>
          </Trackpoint>
          <Trackpoint>
            <Time>2022-04-23T10:09:39.000Z</Time>
            <Position>
              <LatitudeDegrees>41.78676850162446498870849609375</LatitudeDegrees>
              <LongitudeDegrees>-0.16168431378901004791259765625</LongitudeDegrees>
            </Position>
            <AltitudeMeters>300</AltitudeMeters>
            <DistanceMeters>1653.689292929</DistanceMeters>
          </Trackpoint>
          <Trackpoint>
            <Time>2022-04-23T10:09:41.000Z</Time>
            <Position>
              <LatitudeDegrees>41.78662399761378765106201171875</LatitudeDegrees>
              <LongitudeDegrees>-0.16170476563274860382080078125</LongitudeDegrees>
            </Position>
            <AltitudeMeters>299.79998779296875</AltitudeMeters>
            <DistanceMeters>1669.8622702144</DistanceMeters>
          </Trackpoint>
          <Trackpoint>
            <Time>2022-04-23T10:09:45.000Z</Time>
            <Position>
              <LatitudeDegrees>41.7863426171243190765380859375</LatitudeDegrees>
              <LongitudeDegrees>-0.16175203956663608551025390625</LongitudeDegrees>
            </Position>
            <AltitudeMeters>299.600006103515625</AltitudeMeters>
            <DistanceMeters>1701.425304345</DistanceMeters>
          </Trackpoint>
          <Trackpoint>
            <Time>2022-04-23T10:09:48.000Z</Time>
            <Position>
              <LatitudeDegrees>41.7861397750675678253173828125</LatitudeDegrees>
              <LongitudeDegrees>-0.16178707592189311981201171875</LongitudeDegrees>
            </Position>
            <AltitudeMeters>299.399993896484375</AltitudeMeters>
            <DistanceMeters>1724.188516915</DistanceMeters>
          </Trackpoint>
          <Trackpoint>
            <Time>2022-04-23T10:09:53.000Z</Time>
            <Position>
              <LatitudeDegrees>41.78586241789162158966064453125</LatitudeDegrees>
              <LongitudeDegrees>-0.16183820553123950958251953125</LongitudeDegrees>
            </Position>
            <AltitudeMeters>299.399993896484375</AltitudeMeters>
            <DistanceMeters>1755.3493110311</DistanceMeters>
          </Trackpoint>
          <Trackpoint>
            <Time>2022-04-23T10:09:56.000Z</Time>
            <Position>
              <LatitudeDegrees>41.78573031909763813018798828125</LatitudeDegrees>
              <LongitudeDegrees>-0.161849521100521087646484375</LongitudeDegrees>
            </Position>
            <AltitudeMeters>299.600006103515625</AltitudeMeters>
            <DistanceMeters>1770.0824362108</DistanceMeters>
          </Trackpoint>
          <Trackpoint>
            <Time>2022-04-23T10:09:58.000Z</Time>
            <Position>
              <LatitudeDegrees>41.7856690473854541778564453125</LatitudeDegrees>
              <LongitudeDegrees>-0.16187441535294055938720703125</LongitudeDegrees>
            </Position>
            <AltitudeMeters>299.600006103515625</AltitudeMeters>
            <DistanceMeters>1777.2088062489</DistanceMeters>
          </Trackpoint>
          <Trackpoint>
            <Time>2022-04-23T10:10:04.000Z</Time>
            <Position>
              <LatitudeDegrees>41.78548037074506282806396484375</LatitudeDegrees>
              <LongitudeDegrees>-0.16192571260035037994384765625</LongitudeDegrees>
            </Position>
            <AltitudeMeters>299.399993896484375</AltitudeMeters>
            <DistanceMeters>1798.6360134098</DistanceMeters>
          </Trackpoint>
          <Trackpoint>
            <Time>2022-04-23T10:10:05.000Z</Time>
            <Position>
              <LatitudeDegrees>41.7854323424398899078369140625</LatitudeDegrees>
              <LongitudeDegrees>-0.1619316637516021728515625</LongitudeDegrees>
            </Position>
            <AltitudeMeters>299.399993896484375</AltitudeMeters>
            <DistanceMeters>1804.0039714883</DistanceMeters>
          </Trackpoint>
          <Trackpoint>
            <Time>2022-04-23T10:10:08.000Z</Time>
            <Position>
              <LatitudeDegrees>41.785264201462268829345703125</LatitudeDegrees>
              <LongitudeDegrees>-0.16194063238799571990966796875</LongitudeDegrees>
            </Position>
            <AltitudeMeters>299.20001220703125</AltitudeMeters>
            <DistanceMeters>1822.7329148506</DistanceMeters>
          </Trackpoint>
          <Trackpoint>
            <Time>2022-04-23T10:10:13.000Z</Time>
            <Position>
              <LatitudeDegrees>41.78492398001253604888916015625</LatitudeDegrees>
              <LongitudeDegrees>-0.162023864686489105224609375</LongitudeDegrees>
            </Position>
            <AltitudeMeters>299</AltitudeMeters>
            <DistanceMeters>1861.2249514656</DistanceMeters>
          </Trackpoint>
          <Trackpoint>
            <Time>2022-04-23T10:10:17.000Z</Time>
            <Position>
              <LatitudeDegrees>41.78462759591639041900634765625</LatitudeDegrees>
              <LongitudeDegrees>-0.1621301472187042236328125</LongitudeDegrees>
            </Position>
            <AltitudeMeters>299</AltitudeMeters>
            <DistanceMeters>1895.3719520792</DistanceMeters>
          </Trackpoint>
          <Trackpoint>
            <Time>2022-04-23T10:10:18.000Z</Time>
            <Position>
              <LatitudeDegrees>41.78454930894076824188232421875</LatitudeDegrees>
              <LongitudeDegrees>-0.16215152107179164886474609375</LongitudeDegrees>
            </Position>
            <AltitudeMeters>298.79998779296875</AltitudeMeters>
            <DistanceMeters>1904.2649498582</DistanceMeters>
          </Trackpoint>
          <Trackpoint>
            <Time>2022-04-23T10:10:20.000Z</Time>
            <Position>
              <LatitudeDegrees>41.78439994342625141143798828125</LatitudeDegrees>
              <LongitudeDegrees>-0.16219678334891796112060546875</LongitudeDegrees>
            </Position>
            <AltitudeMeters>298.600006103515625</AltitudeMeters>
            <DistanceMeters>1921.3089388045</DistanceMeters>
          </Trackpoint>
          <Trackpoint>
            <Time>2022-04-23T10:10:22.000Z</Time>
            <Position>
              <LatitudeDegrees>41.78426231257617473602294921875</LatitudeDegrees>
              <LongitudeDegrees>-0.16224405728280544281005859375</LongitudeDegrees>
            </Position>
            <AltitudeMeters>298</AltitudeMeters>
            <DistanceMeters>1937.1219665604</DistanceMeters>
          </Trackpoint>
          <Trackpoint>
            <Time>2022-04-23T10:10:23.000Z</Time>
            <Position>
              <LatitudeDegrees>41.78419073112308979034423828125</LatitudeDegrees>
              <LongitudeDegrees>-0.16226098872721195220947265625</LongitudeDegrees>
            </Position>
            <AltitudeMeters>297.600006103515625</AltitudeMeters>
            <DistanceMeters>1945.2120836217</DistanceMeters>
          </Trackpoint>
          <Trackpoint>
            <Time>2022-04-23T10:10:26.000Z</Time>
            <Position>
              <LatitudeDegrees>41.78398135118186473846435546875</LatitudeDegrees>
              <LongitudeDegrees>-0.16229568980634212493896484375</LongitudeDegrees>
            </Position>
            <AltitudeMeters>297.399993896484375</AltitudeMeters>
            <DistanceMeters>1968.6940673092</DistanceMeters>
          </Trackpoint>
          <Trackpoint>
            <Time>2022-04-23T10:10:29.000Z</Time>
            <Position>
              <LatitudeDegrees>41.7837671935558319091796875</LatitudeDegrees>
              <LongitudeDegrees>-0.16231396235525608062744140625</LongitudeDegrees>
            </Position>
            <AltitudeMeters>297.20001220703125</AltitudeMeters>
            <DistanceMeters>1992.5784984155</DistanceMeters>
          </Trackpoint>
          <Trackpoint>
            <Time>2022-04-23T10:10:34.000Z</Time>
            <Position>
              <LatitudeDegrees>41.7834716476500034332275390625</LatitudeDegrees>
              <LongitudeDegrees>-0.16235402785241603851318359375</LongitudeDegrees>
            </Position>
            <AltitudeMeters>297.399993896484375</AltitudeMeters>
            <DistanceMeters>2025.6409676797</DistanceMeters>
          </Trackpoint>
          <Trackpoint>
            <Time>2022-04-23T10:10:41.000Z</Time>
            <Position>
              <LatitudeDegrees>41.7830765247344970703125</LatitudeDegrees>
              <LongitudeDegrees>-0.16237146221101284027099609375</LongitudeDegrees>
            </Position>
            <AltitudeMeters>297</AltitudeMeters>
            <DistanceMeters>2069.6427488994</DistanceMeters>
          </Trackpoint>
          <Trackpoint>
            <Time>2022-04-23T10:10:48.000Z</Time>
            <Position>
              <LatitudeDegrees>41.78265449590981006622314453125</LatitudeDegrees>
              <LongitudeDegrees>-0.1623385213315486907958984375</LongitudeDegrees>
            </Position>
            <AltitudeMeters>296.79998779296875</AltitudeMeters>
            <DistanceMeters>2116.6948885083</DistanceMeters>
          </Trackpoint>
          <Trackpoint>
            <Time>2022-04-23T10:10:50.000Z</Time>
            <Position>
              <LatitudeDegrees>41.78253999911248683929443359375</LatitudeDegrees>
              <LongitudeDegrees>-0.16232703812420368194580078125</LongitudeDegrees>
            </Position>
            <AltitudeMeters>296.600006103515625</AltitudeMeters>
            <DistanceMeters>2129.4744801515</DistanceMeters>
          </Trackpoint>
          <Trackpoint>
            <Time>2022-04-23T10:10:55.000Z</Time>
            <Position>
              <LatitudeDegrees>41.7822247557342052459716796875</LatitudeDegrees>
              <LongitudeDegrees>-0.16229082830250263214111328125</LongitudeDegrees>
            </Position>
            <AltitudeMeters>296.600006103515625</AltitudeMeters>
            <DistanceMeters>2164.6900522519</DistanceMeters>
          </Trackpoint>
          <Trackpoint>
            <Time>2022-04-23T10:11:03.000Z</Time>
            <Position>
              <LatitudeDegrees>41.781681440770626068115234375</LatitudeDegrees>
              <LongitudeDegrees>-0.162229724228382110595703125</LongitudeDegrees>
            </Position>
            <AltitudeMeters>296.20001220703125</AltitudeMeters>
            <DistanceMeters>2225.3743382316</DistanceMeters>
          </Trackpoint>
          <Trackpoint>
            <Time>2022-04-23T10:11:04.000Z</Time>
            <Position>
              <LatitudeDegrees>41.7816148884594440460205078125</LatitudeDegrees>
              <LongitudeDegrees>-0.16222293488681316375732421875</LongitudeDegrees>
            </Position>
            <AltitudeMeters>296</AltitudeMeters>
            <DistanceMeters>2232.8034584504</DistanceMeters>
          </Trackpoint>
          <Trackpoint>
            <Time>2022-04-23T10:11:12.000Z</Time>
            <Position>
              <LatitudeDegrees>41.78105883300304412841796875</LatitudeDegrees>
              <LongitudeDegrees>-0.162143893539905548095703125</LongitudeDegrees>
            </Position>
            <AltitudeMeters>296</AltitudeMeters>
            <DistanceMeters>2295.0402980266</DistanceMeters>
          </Trackpoint>
          <Trackpoint>
            <Time>2022-04-23T10:11:18.000Z</Time>
            <Position>
              <LatitudeDegrees>41.78069229237735271453857421875</LatitudeDegrees>
              <LongitudeDegrees>-0.16211497597396373748779296875</LongitudeDegrees>
            </Position>
            <AltitudeMeters>296</AltitudeMeters>
            <DistanceMeters>2335.9075306032</DistanceMeters>
          </Trackpoint>
          <Trackpoint>
            <Time>2022-04-23T10:11:22.000Z</Time>
            <Position>
              <LatitudeDegrees>41.78051166236400604248046875</LatitudeDegrees>
              <LongitudeDegrees>-0.16210307367146015167236328125</LongitudeDegrees>
            </Position>
            <AltitudeMeters>295.79998779296875</AltitudeMeters>
            <DistanceMeters>2356.0361537525</DistanceMeters>
          </Trackpoint>
          <Trackpoint>
            <Time>2022-04-23T10:11:24.000Z</Time>
            <Position>
              <LatitudeDegrees>41.78038551472127437591552734375</LatitudeDegrees>
              <LongitudeDegrees>-0.1620860584080219268798828125</LongitudeDegrees>
            </Position>
            <AltitudeMeters>295.600006103515625</AltitudeMeters>
            <DistanceMeters>2370.1472208867</DistanceMeters>
          </Trackpoint>
          <Trackpoint>
            <Time>2022-04-23T10:11:31.000Z</Time>
            <Position>
              <LatitudeDegrees>41.77996273152530193328857421875</LatitudeDegrees>
              <LongitudeDegrees>-0.16205714084208011627197265625</LongitudeDegrees>
            </Position>
            <AltitudeMeters>295.399993896484375</AltitudeMeters>
            <DistanceMeters>2417.2650460077</DistanceMeters>
          </Trackpoint>
          <Trackpoint>
            <Time>2022-04-23T10:11:38.000Z</Time>
            <Position>
              <LatitudeDegrees>41.77951245568692684173583984375</LatitudeDegrees>
              <LongitudeDegrees>-0.16200433485209941864013671875</LongitudeDegrees>
            </Position>
            <AltitudeMeters>295.399993896484375</AltitudeMeters>
            <DistanceMeters>2467.5729640246</DistanceMeters>
          </Trackpoint>
          <Trackpoint>
            <Time>2022-04-23T10:11:45.000Z</Time>
            <Position>
              <LatitudeDegrees>41.77902446128427982330322265625</LatitudeDegrees>
              <LongitudeDegrees>-0.16194884665310382843017578125</LongitudeDegrees>
            </Position>
            <AltitudeMeters>295.399993896484375</AltitudeMeters>
            <DistanceMeters>2522.0826928222</DistanceMeters>
          </Trackpoint>
          <Trackpoint>
            <Time>2022-04-23T10:11:52.000Z</Time>
            <Position>
              <LatitudeDegrees>41.7785283364355564117431640625</LatitudeDegrees>
              <LongitudeDegrees>-0.1618952862918376922607421875</LongitudeDegrees>
            </Position>
            <AltitudeMeters>295.600006103515625</AltitudeMeters>
            <DistanceMeters>2577.4810668093</DistanceMeters>
          </Trackpoint>
          <Trackpoint>
            <Time>2022-04-23T10:11:54.000Z</Time>
            <Position>
              <LatitudeDegrees>41.77837134338915348052978515625</LatitudeDegrees>
              <LongitudeDegrees>-0.1618808694183826446533203125</LongitudeDegrees>
            </Position>
            <AltitudeMeters>296.20001220703125</AltitudeMeters>
            <DistanceMeters>2594.9953951379</DistanceMeters>
          </Trackpoint>
          <Trackpoint>
            <Time>2022-04-23T10:12:00.000Z</Time>
            <Position>
              <LatitudeDegrees>41.77795149385929107666015625</LatitudeDegrees>
              <LongitudeDegrees>-0.161842145025730133056640625</LongitudeDegrees>
            </Position>
            <AltitudeMeters>295.600006103515625</AltitudeMeters>
            <DistanceMeters>2641.8359510014</DistanceMeters>
          </Trackpoint>
          <Trackpoint>
            <Time>2022-04-23T10:12:02.000Z</Time>
            <Position>
              <LatitudeDegrees>41.77787614054977893829345703125</LatitudeDegrees>
              <LongitudeDegrees>-0.16183787025511264801025390625</LongitudeDegrees>
            </Position>
            <AltitudeMeters>294.79998779296875</AltitudeMeters>
            <DistanceMeters>2650.2306348292</DistanceMeters>
          </Trackpoint>
          <Trackpoint>
            <Time>2022-04-23T10:12:03.000Z</Time>
            <Position>
              <LatitudeDegrees>41.77784822881221771240234375</LatitudeDegrees>
              <LongitudeDegrees>-0.1618382893502712249755859375</LongitudeDegrees>
            </Position>
            <AltitudeMeters>294.600006103515625</AltitudeMeters>
            <DistanceMeters>2653.3361334433</DistanceMeters>
          </Trackpoint>
          <Trackpoint>
            <Time>2022-04-23T10:12:09.000Z</Time>
            <Position>
              <LatitudeDegrees>41.77768888883292675018310546875</LatitudeDegrees>
              <LongitudeDegrees>-0.16184994019567966461181640625</LongitudeDegrees>
            </Position>
            <AltitudeMeters>293.79998779296875</AltitudeMeters>
            <DistanceMeters>2671.0972339298</DistanceMeters>
          </Trackpoint>
          <Trackpoint>
            <Time>2022-04-23T10:12:14.000Z</Time>
            <Position>
              <LatitudeDegrees>41.77747313864529132843017578125</LatitudeDegrees>
              <LongitudeDegrees>-0.16183200292289257049560546875</LongitudeDegrees>
            </Position>
            <AltitudeMeters>293.600006103515625</AltitudeMeters>
            <DistanceMeters>2695.1566393732</DistanceMeters>
          </Trackpoint>
          <Trackpoint>
            <Time>2022-04-23T10:12:21.000Z</Time>
            <Position>
              <LatitudeDegrees>41.777066029608249664306640625</LatitudeDegrees>
              <LongitudeDegrees>-0.1617625169456005096435546875</LongitudeDegrees>
            </Position>
            <AltitudeMeters>293.20001220703125</AltitudeMeters>
            <DistanceMeters>2740.834351037</DistanceMeters>
          </Trackpoint>
          <Trackpoint>
            <Time>2022-04-23T10:12:26.000Z</Time>
            <Position>
              <LatitudeDegrees>41.77672262303531169891357421875</LatitudeDegrees>
              <LongitudeDegrees>-0.161716751754283905029296875</LongitudeDegrees>
            </Position>
            <AltitudeMeters>293.600006103515625</AltitudeMeters>
            <DistanceMeters>2779.2444264003</DistanceMeters>
          </Trackpoint>
          <Trackpoint>
            <Time>2022-04-23T10:12:27.000Z</Time>
            <Position>
              <LatitudeDegrees>41.77665531635284423828125</LatitudeDegrees>
              <LongitudeDegrees>-0.1617102138698101043701171875</LongitudeDegrees>
            </Position>
            <AltitudeMeters>293.79998779296875</AltitudeMeters>
            <DistanceMeters>2786.7557457</DistanceMeters>
          </Trackpoint>
          <Trackpoint>
            <Time>2022-04-23T10:12:34.000Z</Time>
            <Position>
              <LatitudeDegrees>41.77619196474552154541015625</LatitudeDegrees>
              <LongitudeDegrees>-0.16165204346179962158203125</LongitudeDegrees>
            </Position>
            <AltitudeMeters>294.79998779296875</AltitudeMeters>
            <DistanceMeters>2838.5533250142</DistanceMeters>
          </Trackpoint>
          <Trackpoint>
            <Time>2022-04-23T10:12:35.000Z</Time>
            <Position>
              <LatitudeDegrees>41.77611527033150196075439453125</LatitudeDegrees>
              <LongitudeDegrees>-0.16164056025445461273193359375</LongitudeDegrees>
            </Position>
            <AltitudeMeters>294.79998779296875</AltitudeMeters>
            <DistanceMeters>2847.143130287</DistanceMeters>
          </Trackpoint>
          <Trackpoint>
            <Time>2022-04-23T10:12:39.000Z</Time>
            <Position>
              <LatitudeDegrees>41.775868423283100128173828125</LatitudeDegrees>
              <LongitudeDegrees>-0.16162128187716007232666015625</LongitudeDegrees>
            </Position>
            <AltitudeMeters>295</AltitudeMeters>
            <DistanceMeters>2874.6644811253</DistanceMeters>
          </Trackpoint>
          <Trackpoint>
            <Time>2022-04-23T10:12:40.000Z</Time>
            <Position>
              <LatitudeDegrees>41.77581033669412136077880859375</LatitudeDegrees>
              <LongitudeDegrees>-0.1616186834871768951416015625</LongitudeDegrees>
            </Position>
            <AltitudeMeters>295</AltitudeMeters>
            <DistanceMeters>2881.1332811873</DistanceMeters>
          </Trackpoint>
          <Trackpoint>
            <Time>2022-04-23T10:12:46.000Z</Time>
            <Position>
              <LatitudeDegrees>41.775440610945224761962890625</LatitudeDegrees>
              <LongitudeDegrees>-0.16164072789251804351806640625</LongitudeDegrees>
            </Position>
            <AltitudeMeters>294.600006103515625</AltitudeMeters>
            <DistanceMeters>2922.3251423248</DistanceMeters>
          </Trackpoint>
          <Trackpoint>
            <Time>2022-04-23T10:12:54.000Z</Time>
            <Position>
              <LatitudeDegrees>41.774909533560276031494140625</LatitudeDegrees>
              <LongitudeDegrees>-0.16171105206012725830078125</LongitudeDegrees>
            </Position>
            <AltitudeMeters>294</AltitudeMeters>
            <DistanceMeters>2981.7226921635</DistanceMeters>
          </Trackpoint>
          <Trackpoint>
            <Time>2022-04-23T10:12:56.000Z</Time>
            <Position>
              <LatitudeDegrees>41.77478925324976444244384765625</LatitudeDegrees>
              <LongitudeDegrees>-0.16172991134226322174072265625</LongitudeDegrees>
            </Position>
            <AltitudeMeters>294</AltitudeMeters>
            <DistanceMeters>2995.2010851648</DistanceMeters>
          </Trackpoint>
          <Trackpoint>
            <Time>2022-04-23T10:13:02.000Z</Time>
            <Position>
              <LatitudeDegrees>41.77441273815929889678955078125</LatitudeDegrees>
              <LongitudeDegrees>-0.1617923565208911895751953125</LongitudeDegrees>
            </Position>
            <AltitudeMeters>293.600006103515625</AltitudeMeters>
            <DistanceMeters>3037.4271763209</DistanceMeters>
          </Trackpoint>
          <Trackpoint>
            <Time>2022-04-23T10:13:03.000Z</Time>
            <Position>
              <LatitudeDegrees>41.77433260716497898101806640625</LatitudeDegrees>
              <LongitudeDegrees>-0.16180333681404590606689453125</LongitudeDegrees>
            </Position>
            <AltitudeMeters>293.399993896484375</AltitudeMeters>
            <DistanceMeters>3046.391978625</DistanceMeters>
          </Trackpoint>
          <Trackpoint>
            <Time>2022-04-23T10:13:07.000Z</Time>
            <Position>
              <LatitudeDegrees>41.7741020210087299346923828125</LatitudeDegrees>
              <LongitudeDegrees>-0.16184591688215732574462890625</LongitudeDegrees>
            </Position>
            <AltitudeMeters>293</AltitudeMeters>
            <DistanceMeters>3072.2989171121</DistanceMeters>
          </Trackpoint>
          <Trackpoint>
            <Time>2022-04-23T10:13:08.000Z</Time>
            <Position>
              <LatitudeDegrees>41.77406220696866512298583984375</LatitudeDegrees>
              <LongitudeDegrees>-0.1618523709475994110107421875</LongitudeDegrees>
            </Position>
            <AltitudeMeters>292.79998779296875</AltitudeMeters>
            <DistanceMeters>3076.7631503847</DistanceMeters>
          </Trackpoint>
          <Trackpoint>
            <Time>2022-04-23T10:13:11.000Z</Time>
            <Position>
              <LatitudeDegrees>41.77393681369721889495849609375</LatitudeDegrees>
              <LongitudeDegrees>-0.16186033375561237335205078125</LongitudeDegrees>
            </Position>
            <AltitudeMeters>292.600006103515625</AltitudeMeters>
            <DistanceMeters>3090.7349860753</DistanceMeters>
          </Trackpoint>
          <Trackpoint>
            <Time>2022-04-23T10:13:15.000Z</Time>
            <Position>
              <LatitudeDegrees>41.77378107793629169464111328125</LatitudeDegrees>
              <LongitudeDegrees>-0.16187827102839946746826171875</LongitudeDegrees>
            </Position>
            <AltitudeMeters>292.20001220703125</AltitudeMeters>
            <DistanceMeters>3108.1321430894</DistanceMeters>
          </Trackpoint>
          <Trackpoint>
            <Time>2022-04-23T10:13:19.000Z</Time>
            <Position>
              <LatitudeDegrees>41.77369080483913421630859375</LatitudeDegrees>
              <LongitudeDegrees>-0.16188598237931728363037109375</LongitudeDegrees>
            </Position>
            <AltitudeMeters>292</AltitudeMeters>
            <DistanceMeters>3118.2000429738</DistanceMeters>
          </Trackpoint>
          <Trackpoint>
            <Time>2022-04-23T10:13:20.000Z</Time>
            <Position>
              <LatitudeDegrees>41.773664988577365875244140625</LatitudeDegrees>
              <LongitudeDegrees>-0.1618869043886661529541015625</LongitudeDegrees>
            </Position>
            <AltitudeMeters>292</AltitudeMeters>
            <DistanceMeters>3121.0745029137</DistanceMeters>
          </Trackpoint>
          <Trackpoint>
            <Time>2022-04-23T10:13:24.000Z</Time>
            <Position>
              <LatitudeDegrees>41.7735531739890575408935546875</LatitudeDegrees>
              <LongitudeDegrees>-0.1618909277021884918212890625</LongitudeDegrees>
            </Position>
            <AltitudeMeters>291.79998779296875</AltitudeMeters>
            <DistanceMeters>3133.5240905408</DistanceMeters>
          </Trackpoint>
          <Trackpoint>
            <Time>2022-04-23T10:13:26.000Z</Time>
            <Position>
              <LatitudeDegrees>41.7734914831817150115966796875</LatitudeDegrees>
              <LongitudeDegrees>-0.16189000569283962249755859375</LongitudeDegrees>
            </Position>
            <AltitudeMeters>291.79998779296875</AltitudeMeters>
            <DistanceMeters>3140.3917021538</DistanceMeters>
          </Trackpoint>
          <Trackpoint>
            <Time>2022-04-23T10:13:31.000Z</Time>
            <Position>
              <LatitudeDegrees>41.77331537939608097076416015625</LatitudeDegrees>
              <LongitudeDegrees>-0.1618993096053600311279296875</LongitudeDegrees>
            </Position>
            <AltitudeMeters>292</AltitudeMeters>
            <DistanceMeters>3160.0077572473</DistanceMeters>
          </Trackpoint>
          <Trackpoint>
            <Time>2022-04-23T10:13:32.000Z</Time>
            <Position>
              <LatitudeDegrees>41.7732705362141132354736328125</LatitudeDegrees>
              <LongitudeDegrees>-0.161905176937580108642578125</LongitudeDegrees>
            </Position>
            <AltitudeMeters>292</AltitudeMeters>
            <DistanceMeters>3165.0226114721</DistanceMeters>
          </Trackpoint>
          <Trackpoint>
            <Time>2022-04-23T10:13:36.000Z</Time>
            <Position>
              <LatitudeDegrees>41.77307934500277042388916015625</LatitudeDegrees>
              <LongitudeDegrees>-0.16189838759601116180419921875</LongitudeDegrees>
            </Position>
            <AltitudeMeters>292.20001220703125</AltitudeMeters>
            <DistanceMeters>3186.3098681322</DistanceMeters>
          </Trackpoint>
          <Trackpoint>
            <Time>2022-04-23T10:13:38.000Z</Time>
            <Position>
              <LatitudeDegrees>41.7729674465954303741455078125</LatitudeDegrees>
              <LongitudeDegrees>-0.16188271343708038330078125</LongitudeDegrees>
            </Position>
            <AltitudeMeters>292.20001220703125</AltitudeMeters>
            <DistanceMeters>3198.8321393898</DistanceMeters>
          </Trackpoint>
          <Trackpoint>
            <Time>2022-04-23T10:13:41.000Z</Time>
            <Position>
              <LatitudeDegrees>41.7727659456431865692138671875</LatitudeDegrees>
              <LongitudeDegrees>-0.16185999847948551177978515625</LongitudeDegrees>
            </Position>
            <AltitudeMeters>292.399993896484375</AltitudeMeters>
            <DistanceMeters>3221.3388310214</DistanceMeters>
          </Trackpoint>
          <Trackpoint>
            <Time>2022-04-23T10:13:42.000Z</Time>
            <Position>
              <LatitudeDegrees>41.77269637584686279296875</LatitudeDegrees>
              <LongitudeDegrees>-0.161858908832073211669921875</LongitudeDegrees>
            </Position>
            <AltitudeMeters>292.399993896484375</AltitudeMeters>
            <DistanceMeters>3229.0827794758</DistanceMeters>
          </Trackpoint>
          <Trackpoint>
            <Time>2022-04-23T10:13:45.000Z</Time>
            <Position>
              <LatitudeDegrees>41.7724762670695781707763671875</LatitudeDegrees>
              <LongitudeDegrees>-0.161836445331573486328125</LongitudeDegrees>
            </Position>
            <AltitudeMeters>292.600006103515625</AltitudeMeters>
            <DistanceMeters>3253.6522851745</DistanceMeters>
          </Trackpoint>
          <Trackpoint>
            <Time>2022-04-23T10:13:48.000Z</Time>
            <Position>
              <LatitudeDegrees>41.77224509418010711669921875</LatitudeDegrees>
              <LongitudeDegrees>-0.16179847531020641326904296875</LongitudeDegrees>
            </Position>
            <AltitudeMeters>292.600006103515625</AltitudeMeters>
            <DistanceMeters>3279.574729862</DistanceMeters>
          </Trackpoint>
          <Trackpoint>
            <Time>2022-04-23T10:13:54.000Z</Time>
            <Position>
              <LatitudeDegrees>41.77177327685058116912841796875</LatitudeDegrees>
              <LongitudeDegrees>-0.16168867237865924835205078125</LongitudeDegrees>
            </Position>
            <AltitudeMeters>292.600006103515625</AltitudeMeters>
            <DistanceMeters>3332.8741288172</DistanceMeters>
          </Trackpoint>
          <Trackpoint>
            <Time>2022-04-23T10:13:56.000Z</Time>
            <Position>
              <LatitudeDegrees>41.7716182954609394073486328125</LatitudeDegrees>
              <LongitudeDegrees>-0.161658413708209991455078125</LongitudeDegrees>
            </Position>
            <AltitudeMeters>292.600006103515625</AltitudeMeters>
            <DistanceMeters>3350.3057687956</DistanceMeters>
          </Trackpoint>
          <Trackpoint>
            <Time>2022-04-23T10:14:02.000Z</Time>
            <Position>
              <LatitudeDegrees>41.771194003522396087646484375</LatitudeDegrees>
              <LongitudeDegrees>-0.1615925319492816925048828125</LongitudeDegrees>
            </Position>
            <AltitudeMeters>292.79998779296875</AltitudeMeters>
            <DistanceMeters>3397.8459159615</DistanceMeters>
          </Trackpoint>
          <Trackpoint>
            <Time>2022-04-23T10:14:03.000Z</Time>
            <Position>
              <LatitudeDegrees>41.771138347685337066650390625</LatitudeDegrees>
              <LongitudeDegrees>-0.16157367266714572906494140625</LongitudeDegrees>
            </Position>
            <AltitudeMeters>292.79998779296875</AltitudeMeters>
            <DistanceMeters>3404.2346517932</DistanceMeters>
          </Trackpoint>
          <Trackpoint>
            <Time>2022-04-23T10:14:05.000Z</Time>
            <Position>
              <LatitudeDegrees>41.77104438655078411102294921875</LatitudeDegrees>
              <LongitudeDegrees>-0.1614953018724918365478515625</LongitudeDegrees>
            </Position>
            <AltitudeMeters>292.399993896484375</AltitudeMeters>
            <DistanceMeters>3416.5507885294</DistanceMeters>
          </Trackpoint>
          <Trackpoint>
            <Time>2022-04-23T10:14:07.000Z</Time>
            <Position>
              <LatitudeDegrees>41.77099174819886684417724609375</LatitudeDegrees>
              <LongitudeDegrees>-0.1613393984735012054443359375</LongitudeDegrees>
            </Position>
            <AltitudeMeters>292</AltitudeMeters>
            <DistanceMeters>3430.7572028737</DistanceMeters>
          </Trackpoint>
          <Trackpoint>
            <Time>2022-04-23T10:14:08.000Z</Time>
            <Position>
              <LatitudeDegrees>41.7709846235811710357666015625</LatitudeDegrees>
              <LongitudeDegrees>-0.16124443151056766510009765625</LongitudeDegrees>
            </Position>
            <AltitudeMeters>291.79998779296875</AltitudeMeters>
            <DistanceMeters>3438.6804024445</DistanceMeters>
          </Trackpoint>
          <Trackpoint>
            <Time>2022-04-23T10:14:15.000Z</Time>
            <Position>
              <LatitudeDegrees>41.77098822779953479766845703125</LatitudeDegrees>
              <LongitudeDegrees>-0.16056465916335582733154296875</LongitudeDegrees>
            </Position>
            <AltitudeMeters>291</AltitudeMeters>
            <DistanceMeters>3495.1101107262</DistanceMeters>
          </Trackpoint>
          <Trackpoint>
            <Time>2022-04-23T10:14:16.000Z</Time>
            <Position>
              <LatitudeDegrees>41.77099091000854969024658203125</LatitudeDegrees>
              <LongitudeDegrees>-0.16046441160142421722412109375</LongitudeDegrees>
            </Position>
            <AltitudeMeters>290.79998779296875</AltitudeMeters>
            <DistanceMeters>3503.4378347304</DistanceMeters>
          </Trackpoint>
          <Trackpoint>
            <Time>2022-04-23T10:14:19.000Z</Time>
            <Position>
              <LatitudeDegrees>41.77100683562457561492919921875</LatitudeDegrees>
              <LongitudeDegrees>-0.16013215295970439910888671875</LongitudeDegrees>
            </Position>
            <AltitudeMeters>290.600006103515625</AltitudeMeters>
            <DistanceMeters>3531.0757464893</DistanceMeters>
          </Trackpoint>
          <Trackpoint>
            <Time>2022-04-23T10:14:24.000Z</Time>
            <Position>
              <LatitudeDegrees>41.77108101546764373779296875</LatitudeDegrees>
              <LongitudeDegrees>-0.159585066139698028564453125</LongitudeDegrees>
            </Position>
            <AltitudeMeters>289.79998779296875</AltitudeMeters>
            <DistanceMeters>3577.2340865429</DistanceMeters>
          </Trackpoint>
          <Trackpoint>
            <Time>2022-04-23T10:14:29.000Z</Time>
            <Position>
              <LatitudeDegrees>41.77115234546363353729248046875</LatitudeDegrees>
              <LongitudeDegrees>-0.15908961184322834014892578125</LongitudeDegrees>
            </Position>
            <AltitudeMeters>288.600006103515625</AltitudeMeters>
            <DistanceMeters>3619.1211465127</DistanceMeters>
          </Trackpoint>
          <Trackpoint>
            <Time>2022-04-23T10:14:33.000Z</Time>
            <Position>
              <LatitudeDegrees>41.77121554501354694366455078125</LatitudeDegrees>
              <LongitudeDegrees>-0.15868979506194591522216796875</LongitudeDegrees>
            </Position>
            <AltitudeMeters>288.399993896484375</AltitudeMeters>
            <DistanceMeters>3653.0472805929</DistanceMeters>
          </Trackpoint>
          <Trackpoint>
            <Time>2022-04-23T10:14:37.000Z</Time>
            <Position>
              <LatitudeDegrees>41.771273128688335418701171875</LatitudeDegrees>
              <LongitudeDegrees>-0.15828511677682399749755859375</LongitudeDegrees>
            </Position>
            <AltitudeMeters>288.399993896484375</AltitudeMeters>
            <DistanceMeters>3687.2455454694</DistanceMeters>
          </Trackpoint>
          <Trackpoint>
            <Time>2022-04-23T10:14:43.000Z</Time>
            <Position>
              <LatitudeDegrees>41.77138368599116802215576171875</LatitudeDegrees>
              <LongitudeDegrees>-0.15762604773044586181640625</LongitudeDegrees>
            </Position>
            <AltitudeMeters>288.399993896484375</AltitudeMeters>
            <DistanceMeters>3743.3217750154</DistanceMeters>
          </Trackpoint>
          <Trackpoint>
            <Time>2022-04-23T10:14:50.000Z</Time>
            <Position>
              <LatitudeDegrees>41.771496422588825225830078125</LatitudeDegrees>
              <LongitudeDegrees>-0.1568537391722202301025390625</LongitudeDegrees>
            </Position>
            <AltitudeMeters>287.79998779296875</AltitudeMeters>
            <DistanceMeters>3808.647509501</DistanceMeters>
          </Trackpoint>
          <Trackpoint>
            <Time>2022-04-23T10:14:51.000Z</Time>
            <Position>
              <LatitudeDegrees>41.77151595242321491241455078125</LatitudeDegrees>
              <LongitudeDegrees>-0.1567441038787364959716796875</LongitudeDegrees>
            </Position>
            <AltitudeMeters>287.79998779296875</AltitudeMeters>
            <DistanceMeters>3818.0041430368</DistanceMeters>
          </Trackpoint>
          <Trackpoint>
            <Time>2022-04-23T10:14:55.000Z</Time>
            <Position>
              <LatitudeDegrees>41.77158384583890438079833984375</LatitudeDegrees>
              <LongitudeDegrees>-0.1562991924583911895751953125</LongitudeDegrees>
            </Position>
            <AltitudeMeters>287.600006103515625</AltitudeMeters>
            <DistanceMeters>3855.7012538023</DistanceMeters>
          </Trackpoint>
          <Trackpoint>
            <Time>2022-04-23T10:14:58.000Z</Time>
            <Position>
              <LatitudeDegrees>41.771626174449920654296875</LatitudeDegrees>
              <LongitudeDegrees>-0.1559637486934661865234375</LongitudeDegrees>
            </Position>
            <AltitudeMeters>287.600006103515625</AltitudeMeters>
            <DistanceMeters>3883.9419399047</DistanceMeters>
          </Trackpoint>
          <Trackpoint>
            <Time>2022-04-23T10:14:59.000Z</Time>
            <Position>
              <LatitudeDegrees>41.7716283537447452545166015625</LatitudeDegrees>
              <LongitudeDegrees>-0.155849754810333251953125</LongitudeDegrees>
            </Position>
            <AltitudeMeters>287.600006103515625</AltitudeMeters>
            <DistanceMeters>3893.407478372</DistanceMeters>
          </Trackpoint>
          <Trackpoint>
            <Time>2022-04-23T10:15:00.000Z</Time>
            <Position>
              <LatitudeDegrees>41.77161485888063907623291015625</LatitudeDegrees>
              <LongitudeDegrees>-0.15573852695524692535400390625</LongitudeDegrees>
            </Position>
            <AltitudeMeters>287.79998779296875</AltitudeMeters>
            <DistanceMeters>3902.7616988495</DistanceMeters>
          </Trackpoint>
          <Trackpoint>
            <Time>2022-04-23T10:15:02.000Z</Time>
            <Position>
              <LatitudeDegrees>41.77153355441987514495849609375</LatitudeDegrees>
              <LongitudeDegrees>-0.1555444858968257904052734375</LongitudeDegrees>
            </Position>
            <AltitudeMeters>288</AltitudeMeters>
            <DistanceMeters>3921.2370037071</DistanceMeters>
          </Trackpoint>
          <Trackpoint>
            <Time>2022-04-23T10:15:04.000Z</Time>
            <Position>
              <LatitudeDegrees>41.771386452019214630126953125</LatitudeDegrees>
              <LongitudeDegrees>-0.15540928579866886138916015625</LongitudeDegrees>
            </Position>
            <AltitudeMeters>288.20001220703125</AltitudeMeters>
            <DistanceMeters>3941.0868993128</DistanceMeters>
          </Trackpoint>
          <Trackpoint>
            <Time>2022-04-23T10:15:05.000Z</Time>
            <Position>
              <LatitudeDegrees>41.77130858413875102996826171875</LatitudeDegrees>
              <LongitudeDegrees>-0.15537567436695098876953125</LongitudeDegrees>
            </Position>
            <AltitudeMeters>288.600006103515625</AltitudeMeters>
            <DistanceMeters>3950.1911330356</DistanceMeters>
          </Trackpoint>
          <Trackpoint>
            <Time>2022-04-23T10:15:08.000Z</Time>
            <Position>
              <LatitudeDegrees>41.7710714600980281829833984375</LatitudeDegrees>
              <LongitudeDegrees>-0.15531222335994243621826171875</LongitudeDegrees>
            </Position>
            <AltitudeMeters>290</AltitudeMeters>
            <DistanceMeters>3977.1040004334</DistanceMeters>
          </Trackpoint>
          <Trackpoint>
            <Time>2022-04-23T10:15:10.000Z</Time>
            <Position>
              <LatitudeDegrees>41.7709172330796718597412109375</LatitudeDegrees>
              <LongitudeDegrees>-0.15528070740401744842529296875</LongitudeDegrees>
            </Position>
            <AltitudeMeters>291.20001220703125</AltitudeMeters>
            <DistanceMeters>3994.4681661911</DistanceMeters>
          </Trackpoint>
          <Trackpoint>
            <Time>2022-04-23T10:15:12.000Z</Time>
            <Position>
              <LatitudeDegrees>41.77075856365263462066650390625</LatitudeDegrees>
              <LongitudeDegrees>-0.15525455586612224578857421875</LongitudeDegrees>
            </Position>
            <AltitudeMeters>291.600006103515625</AltitudeMeters>
            <DistanceMeters>4012.2612682289</DistanceMeters>
          </Trackpoint>
          <Trackpoint>
            <Time>2022-04-23T10:15:14.000Z</Time>
            <Position>
              <LatitudeDegrees>41.7705943621695041656494140625</LatitudeDegrees>
              <LongitudeDegrees>-0.1552454195916652679443359375</LongitudeDegrees>
            </Position>
            <AltitudeMeters>291.600006103515625</AltitudeMeters>
            <DistanceMeters>4030.553108554</DistanceMeters>
          </Trackpoint>
          <Trackpoint>
            <Time>2022-04-23T10:15:16.000Z</Time>
            <Position>
              <LatitudeDegrees>41.77043803967535495758056640625</LatitudeDegrees>
              <LongitudeDegrees>-0.15528238378465175628662109375</LongitudeDegrees>
            </Position>
            <AltitudeMeters>291.600006103515625</AltitudeMeters>
            <DistanceMeters>4048.22041232</DistanceMeters>
          </Trackpoint>
          <Trackpoint>
            <Time>2022-04-23T10:15:22.000Z</Time>
            <Position>
              <LatitudeDegrees>41.7700012587010860443115234375</LatitudeDegrees>
              <LongitudeDegrees>-0.15551640652120113372802734375</LongitudeDegrees>
            </Position>
            <AltitudeMeters>290.600006103515625</AltitudeMeters>
            <DistanceMeters>4100.5728017782</DistanceMeters>
          </Trackpoint>
          <Trackpoint>
            <Time>2022-04-23T10:15:27.000Z</Time>
            <Position>
              <LatitudeDegrees>41.76965449936687946319580078125</LatitudeDegrees>
              <LongitudeDegrees>-0.15574187971651554107666015625</LongitudeDegrees>
            </Position>
            <AltitudeMeters>290.20001220703125</AltitudeMeters>
            <DistanceMeters>4143.4669175249</DistanceMeters>
          </Trackpoint>
          <Trackpoint>
            <Time>2022-04-23T10:15:29.000Z</Time>
            <Position>
              <LatitudeDegrees>41.76952441222965717315673828125</LatitudeDegrees>
              <LongitudeDegrees>-0.15583030879497528076171875</LongitudeDegrees>
            </Position>
            <AltitudeMeters>290.20001220703125</AltitudeMeters>
            <DistanceMeters>4159.7006401707</DistanceMeters>
          </Trackpoint>
          <Trackpoint>
            <Time>2022-04-23T10:15:36.000Z</Time>
            <Position>
              <LatitudeDegrees>41.7691157944500446319580078125</LatitudeDegrees>
              <LongitudeDegrees>-0.15608771704137325286865234375</LongitudeDegrees>
            </Position>
            <AltitudeMeters>289.600006103515625</AltitudeMeters>
            <DistanceMeters>4209.9502779363</DistanceMeters>
          </Trackpoint>
          <Trackpoint>
            <Time>2022-04-23T10:15:38.000Z</Time>
            <Position>
              <LatitudeDegrees>41.76898956298828125</LatitudeDegrees>
              <LongitudeDegrees>-0.15617622993886470794677734375</LongitudeDegrees>
            </Position>
            <AltitudeMeters>289.20001220703125</AltitudeMeters>
            <DistanceMeters>4225.8052225293</DistanceMeters>
          </Trackpoint>
          <Trackpoint>
            <Time>2022-04-23T10:15:42.000Z</Time>
            <Position>
              <LatitudeDegrees>41.76873265765607357025146484375</LatitudeDegrees>
              <LongitudeDegrees>-0.15635736286640167236328125</LongitudeDegrees>
            </Position>
            <AltitudeMeters>289</AltitudeMeters>
            <DistanceMeters>4258.1117899042</DistanceMeters>
          </Trackpoint>
          <Trackpoint>
            <Time>2022-04-23T10:15:49.000Z</Time>
            <Position>
              <LatitudeDegrees>41.768285147845745086669921875</LatitudeDegrees>
              <LongitudeDegrees>-0.15665785409510135650634765625</LongitudeDegrees>
            </Position>
            <AltitudeMeters>289.79998779296875</AltitudeMeters>
            <DistanceMeters>4313.8177110408</DistanceMeters>
          </Trackpoint>
          <Trackpoint>
            <Time>2022-04-23T10:15:53.000Z</Time>
            <Position>
              <LatitudeDegrees>41.76803327165544033050537109375</LatitudeDegrees>
              <LongitudeDegrees>-0.1568168587982654571533203125</LongitudeDegrees>
            </Position>
            <AltitudeMeters>289.79998779296875</AltitudeMeters>
            <DistanceMeters>4344.8039978163</DistanceMeters>
          </Trackpoint>
          <Trackpoint>
            <Time>2022-04-23T10:15:55.000Z</Time>
            <Position>
              <LatitudeDegrees>41.7679031006991863250732421875</LatitudeDegrees>
              <LongitudeDegrees>-0.1568617857992649078369140625</LongitudeDegrees>
            </Position>
            <AltitudeMeters>289.79998779296875</AltitudeMeters>
            <DistanceMeters>4359.7645952222</DistanceMeters>
          </Trackpoint>
          <Trackpoint>
            <Time>2022-04-23T10:16:00.000Z</Time>
            <Position>
              <LatitudeDegrees>41.76754678599536418914794921875</LatitudeDegrees>
              <LongitudeDegrees>-0.156840495765209197998046875</LongitudeDegrees>
            </Position>
            <AltitudeMeters>289.20001220703125</AltitudeMeters>
            <DistanceMeters>4399.4625667195</DistanceMeters>
          </Trackpoint>
          <Trackpoint>
            <Time>2022-04-23T10:16:07.000Z</Time>
            <Position>
              <LatitudeDegrees>41.76703984849154949188232421875</LatitudeDegrees>
              <LongitudeDegrees>-0.15668769367039203643798828125</LongitudeDegrees>
            </Position>
            <AltitudeMeters>288.399993896484375</AltitudeMeters>
            <DistanceMeters>4457.2941106443</DistanceMeters>
          </Trackpoint>
          <Trackpoint>
            <Time>2022-04-23T10:16:14.000Z</Time>
            <Position>
              <LatitudeDegrees>41.76650919020175933837890625</LatitudeDegrees>
              <LongitudeDegrees>-0.1565211452543735504150390625</LongitudeDegrees>
            </Position>
            <AltitudeMeters>288.399993896484375</AltitudeMeters>
            <DistanceMeters>4517.9542111224</DistanceMeters>
          </Trackpoint>
          <Trackpoint>
            <Time>2022-04-23T10:16:15.000Z</Time>
            <Position>
              <LatitudeDegrees>41.766435764729976654052734375</LatitudeDegrees>
              <LongitudeDegrees>-0.15649859793484210968017578125</LongitudeDegrees>
            </Position>
            <AltitudeMeters>288.600006103515625</AltitudeMeters>
            <DistanceMeters>4526.3381311507</DistanceMeters>
          </Trackpoint>
          <Trackpoint>
            <Time>2022-04-23T10:16:22.000Z</Time>
            <Position>
              <LatitudeDegrees>41.7659390531480312347412109375</LatitudeDegrees>
              <LongitudeDegrees>-0.1562654972076416015625</LongitudeDegrees>
            </Position>
            <AltitudeMeters>288.600006103515625</AltitudeMeters>
            <DistanceMeters>4584.9119072296</DistanceMeters>
          </Trackpoint>
          <Trackpoint>
            <Time>2022-04-23T10:16:26.000Z</Time>
            <Position>
              <LatitudeDegrees>41.76567099988460540771484375</LatitudeDegrees>
              <LongitudeDegrees>-0.15609207563102245330810546875</LongitudeDegrees>
            </Position>
            <AltitudeMeters>288</AltitudeMeters>
            <DistanceMeters>4618.0387704969</DistanceMeters>
          </Trackpoint>
          <Trackpoint>
            <Time>2022-04-23T10:16:30.000Z</Time>
            <Position>
              <LatitudeDegrees>41.76540386863052845001220703125</LatitudeDegrees>
              <LongitudeDegrees>-0.15591504983603954315185546875</LongitudeDegrees>
            </Position>
            <AltitudeMeters>287.600006103515625</AltitudeMeters>
            <DistanceMeters>4651.2047274689</DistanceMeters>
          </Trackpoint>
          <Trackpoint>
            <Time>2022-04-23T10:16:38.000Z</Time>
            <Position>
              <LatitudeDegrees>41.76484663970768451690673828125</LatitudeDegrees>
              <LongitudeDegrees>-0.15556116588413715362548828125</LongitudeDegrees>
            </Position>
            <AltitudeMeters>287.399993896484375</AltitudeMeters>
            <DistanceMeters>4719.8317810971</DistanceMeters>
          </Trackpoint>
          <Trackpoint>
            <Time>2022-04-23T10:16:40.000Z</Time>
            <Position>
              <LatitudeDegrees>41.76470951177179813385009765625</LatitudeDegrees>
              <LongitudeDegrees>-0.1554787717759609222412109375</LongitudeDegrees>
            </Position>
            <AltitudeMeters>287.399993896484375</AltitudeMeters>
            <DistanceMeters>4736.5570227421</DistanceMeters>
          </Trackpoint>
          <Trackpoint>
            <Time>2022-04-23T10:16:46.000Z</Time>
            <Position>
              <LatitudeDegrees>41.7642916738986968994140625</LatitudeDegrees>
              <LongitudeDegrees>-0.1552152447402477264404296875</LongitudeDegrees>
            </Position>
            <AltitudeMeters>287.20001220703125</AltitudeMeters>
            <DistanceMeters>4787.9523334367</DistanceMeters>
          </Trackpoint>
          <Trackpoint>
            <Time>2022-04-23T10:16:47.000Z</Time>
            <Position>
              <LatitudeDegrees>41.764216907322406768798828125</LatitudeDegrees>
              <LongitudeDegrees>-0.1551724970340728759765625</LongitudeDegrees>
            </Position>
            <AltitudeMeters>287.20001220703125</AltitudeMeters>
            <DistanceMeters>4796.9988566811</DistanceMeters>
          </Trackpoint>
          <Trackpoint>
            <Time>2022-04-23T10:16:53.000Z</Time>
            <Position>
              <LatitudeDegrees>41.76374492235481739044189453125</LatitudeDegrees>
              <LongitudeDegrees>-0.15489497222006320953369140625</LongitudeDegrees>
            </Position>
            <AltitudeMeters>287.20001220703125</AltitudeMeters>
            <DistanceMeters>4854.3621009761</DistanceMeters>
          </Trackpoint>
          <Trackpoint>
            <Time>2022-04-23T10:17:00.000Z</Time>
            <Position>
              <LatitudeDegrees>41.76318995654582977294921875</LatitudeDegrees>
              <LongitudeDegrees>-0.1545366458594799041748046875</LongitudeDegrees>
            </Position>
            <AltitudeMeters>287.399993896484375</AltitudeMeters>
            <DistanceMeters>4922.9212247366</DistanceMeters>
          </Trackpoint>
          <Trackpoint>
            <Time>2022-04-23T10:17:01.000Z</Time>
            <Position>
              <LatitudeDegrees>41.7631141841411590576171875</LatitudeDegrees>
              <LongitudeDegrees>-0.1544840075075626373291015625</LongitudeDegrees>
            </Position>
            <AltitudeMeters>287.399993896484375</AltitudeMeters>
            <DistanceMeters>4932.4200943445</DistanceMeters>
          </Trackpoint>
          <Trackpoint>
            <Time>2022-04-23T10:17:08.000Z</Time>
            <Position>
              <LatitudeDegrees>41.762594170868396759033203125</LatitudeDegrees>
              <LongitudeDegrees>-0.1541671715676784515380859375</LongitudeDegrees>
            </Position>
            <AltitudeMeters>286.79998779296875</AltitudeMeters>
            <DistanceMeters>4995.9954519608</DistanceMeters>
          </Trackpoint>
          <Trackpoint>
            <Time>2022-04-23T10:17:10.000Z</Time>
            <Position>
              <LatitudeDegrees>41.76243030466139316558837890625</LatitudeDegrees>
              <LongitudeDegrees>-0.1540652476251125335693359375</LongitudeDegrees>
            </Position>
            <AltitudeMeters>286.79998779296875</AltitudeMeters>
            <DistanceMeters>5016.1014071027</DistanceMeters>
          </Trackpoint>
          <Trackpoint>
            <Time>2022-04-23T10:17:17.000Z</Time>
            <Position>
              <LatitudeDegrees>41.76193334162235260009765625</LatitudeDegrees>
              <LongitudeDegrees>-0.15375721268355846405029296875</LongitudeDegrees>
            </Position>
            <AltitudeMeters>286.20001220703125</AltitudeMeters>
            <DistanceMeters>5077.040135649</DistanceMeters>
          </Trackpoint>
          <Trackpoint>
            <Time>2022-04-23T10:17:19.000Z</Time>
            <Position>
              <LatitudeDegrees>41.76176595501601696014404296875</LatitudeDegrees>
              <LongitudeDegrees>-0.15365906059741973876953125</LongitudeDegrees>
            </Position>
            <AltitudeMeters>286</AltitudeMeters>
            <DistanceMeters>5097.3745203303</DistanceMeters>
          </Trackpoint>
          <Trackpoint>
            <Time>2022-04-23T10:17:25.000Z</Time>
            <Position>
              <LatitudeDegrees>41.7613005079329013824462890625</LatitudeDegrees>
              <LongitudeDegrees>-0.15341036953032016754150390625</LongitudeDegrees>
            </Position>
            <AltitudeMeters>286</AltitudeMeters>
            <DistanceMeters>5153.142654138</DistanceMeters>
          </Trackpoint>
          <Trackpoint>
            <Time>2022-04-23T10:17:26.000Z</Time>
            <Position>
              <LatitudeDegrees>41.76122733391821384429931640625</LatitudeDegrees>
              <LongitudeDegrees>-0.15338547527790069580078125</LongitudeDegrees>
            </Position>
            <AltitudeMeters>286</AltitudeMeters>
            <DistanceMeters>5161.5454017669</DistanceMeters>
          </Trackpoint>
          <Trackpoint>
            <Time>2022-04-23T10:17:28.000Z</Time>
            <Position>
              <LatitudeDegrees>41.76108383573591709136962890625</LatitudeDegrees>
              <LongitudeDegrees>-0.1533564738929271697998046875</LongitudeDegrees>
            </Position>
            <AltitudeMeters>286</AltitudeMeters>
            <DistanceMeters>5177.6977071324</DistanceMeters>
          </Trackpoint>
          <Trackpoint>
            <Time>2022-04-23T10:17:29.000Z</Time>
            <Position>
              <LatitudeDegrees>41.76100890152156352996826171875</LatitudeDegrees>
              <LongitudeDegrees>-0.15335756354033946990966796875</LongitudeDegrees>
            </Position>
            <AltitudeMeters>286</AltitudeMeters>
            <DistanceMeters>5186.0384330554</DistanceMeters>
          </Trackpoint>
          <Trackpoint>
            <Time>2022-04-23T10:17:30.000Z</Time>
            <Position>
              <LatitudeDegrees>41.7609357275068759918212890625</LatitudeDegrees>
              <LongitudeDegrees>-0.153371393680572509765625</LongitudeDegrees>
            </Position>
            <AltitudeMeters>286</AltitudeMeters>
            <DistanceMeters>5194.2635976567</DistanceMeters>
          </Trackpoint>
          <Trackpoint>
            <Time>2022-04-23T10:17:34.000Z</Time>
            <Position>
              <LatitudeDegrees>41.76063657738268375396728515625</LatitudeDegrees>
              <LongitudeDegrees>-0.153470300137996673583984375</LongitudeDegrees>
            </Position>
            <AltitudeMeters>285.79998779296875</AltitudeMeters>
            <DistanceMeters>5228.5573156807</DistanceMeters>
          </Trackpoint>
          <Trackpoint>
            <Time>2022-04-23T10:17:39.000Z</Time>
            <Position>
              <LatitudeDegrees>41.76031504757702350616455078125</LatitudeDegrees>
              <LongitudeDegrees>-0.15359041281044483184814453125</LongitudeDegrees>
            </Position>
            <AltitudeMeters>285</AltitudeMeters>
            <DistanceMeters>5265.7076569123</DistanceMeters>
          </Trackpoint>
          <Trackpoint>
            <Time>2022-04-23T10:17:40.000Z</Time>
            <Position>
              <LatitudeDegrees>41.76026643253862857818603515625</LatitudeDegrees>
              <LongitudeDegrees>-0.153609104454517364501953125</LongitudeDegrees>
            </Position>
            <AltitudeMeters>284.79998779296875</AltitudeMeters>
            <DistanceMeters>5271.335934461</DistanceMeters>
          </Trackpoint>
          <Trackpoint>
            <Time>2022-04-23T10:17:46.000Z</Time>
            <Position>
              <LatitudeDegrees>41.75986426882445812225341796875</LatitudeDegrees>
              <LongitudeDegrees>-0.1537584699690341949462890625</LongitudeDegrees>
            </Position>
            <AltitudeMeters>285</AltitudeMeters>
            <DistanceMeters>5317.7837832106</DistanceMeters>
          </Trackpoint>
          <Trackpoint>
            <Time>2022-04-23T10:17:52.000Z</Time>
            <Position>
              <LatitudeDegrees>41.75947769545018672943115234375</LatitudeDegrees>
              <LongitudeDegrees>-0.15388277359306812286376953125</LongitudeDegrees>
            </Position>
            <AltitudeMeters>286</AltitudeMeters>
            <DistanceMeters>5362.0306337606</DistanceMeters>
          </Trackpoint>
          <Trackpoint>
            <Time>2022-04-23T10:17:56.000Z</Time>
            <Position>
              <LatitudeDegrees>41.759222634136676788330078125</LatitudeDegrees>
              <LongitudeDegrees>-0.15396441332995891571044921875</LongitudeDegrees>
            </Position>
            <AltitudeMeters>286.20001220703125</AltitudeMeters>
            <DistanceMeters>5391.2174513585</DistanceMeters>
          </Trackpoint>
          <Trackpoint>
            <Time>2022-04-23T10:17:59.000Z</Time>
            <Position>
              <LatitudeDegrees>41.7590347118675708770751953125</LatitudeDegrees>
              <LongitudeDegrees>-0.15400749631226062774658203125</LongitudeDegrees>
            </Position>
            <AltitudeMeters>285.20001220703125</AltitudeMeters>
            <DistanceMeters>5412.4371528597</DistanceMeters>
          </Trackpoint>
          <Trackpoint>
            <Time>2022-04-23T10:18:00.000Z</Time>
            <Position>
              <LatitudeDegrees>41.7589860968291759490966796875</LatitudeDegrees>
              <LongitudeDegrees>-0.15404940582811832427978515625</LongitudeDegrees>
            </Position>
            <AltitudeMeters>285</AltitudeMeters>
            <DistanceMeters>5418.8695560084</DistanceMeters>
          </Trackpoint>
          <Trackpoint>
            <Time>2022-04-23T10:18:01.000Z</Time>
            <Position>
              <LatitudeDegrees>41.75894779153168201446533203125</LatitudeDegrees>
              <LongitudeDegrees>-0.15410204418003559112548828125</LongitudeDegrees>
            </Position>
            <AltitudeMeters>284.79998779296875</AltitudeMeters>
            <DistanceMeters>5424.9749761872</DistanceMeters>
          </Trackpoint>
          <Trackpoint>
            <Time>2022-04-23T10:18:03.000Z</Time>
            <Position>
              <LatitudeDegrees>41.758899427950382232666015625</LatitudeDegrees>
              <LongitudeDegrees>-0.1542395912110805511474609375</LongitudeDegrees>
            </Position>
            <AltitudeMeters>284.600006103515625</AltitudeMeters>
            <DistanceMeters>5437.599946655</DistanceMeters>
          </Trackpoint>
          <Trackpoint>
            <Time>2022-04-23T10:18:05.000Z</Time>
            <Position>
              <LatitudeDegrees>41.75887436605989933013916015625</LatitudeDegrees>
              <LongitudeDegrees>-0.15439725480973720550537109375</LongitudeDegrees>
            </Position>
            <AltitudeMeters>284.600006103515625</AltitudeMeters>
            <DistanceMeters>5450.9842156487</DistanceMeters>
          </Trackpoint>
          <Trackpoint>
            <Time>2022-04-23T10:18:09.000Z</Time>
            <Position>
              <LatitudeDegrees>41.75880496390163898468017578125</LatitudeDegrees>
              <LongitudeDegrees>-0.15467955730855464935302734375</LongitudeDegrees>
            </Position>
            <AltitudeMeters>284.79998779296875</AltitudeMeters>
            <DistanceMeters>5475.6630028118</DistanceMeters>
          </Trackpoint>
          <Trackpoint>
            <Time>2022-04-23T10:18:10.000Z</Time>
            <Position>
              <LatitudeDegrees>41.75878937356173992156982421875</LatitudeDegrees>
              <LongitudeDegrees>-0.154753737151622772216796875</LongitudeDegrees>
            </Position>
            <AltitudeMeters>285</AltitudeMeters>
            <DistanceMeters>5482.0616250538</DistanceMeters>
          </Trackpoint>
          <Trackpoint>
            <Time>2022-04-23T10:18:14.000Z</Time>
            <Position>
              <LatitudeDegrees>41.75871871411800384521484375</LatitudeDegrees>
              <LongitudeDegrees>-0.15506319701671600341796875</LongitudeDegrees>
            </Position>
            <AltitudeMeters>285</AltitudeMeters>
            <DistanceMeters>5508.9315102788</DistanceMeters>
          </Trackpoint>
          <Trackpoint>
            <Time>2022-04-23T10:18:18.000Z</Time>
            <Position>
              <LatitudeDegrees>41.75866129808127880096435546875</LatitudeDegrees>
              <LongitudeDegrees>-0.1553682982921600341796875</LongitudeDegrees>
            </Position>
            <AltitudeMeters>284.79998779296875</AltitudeMeters>
            <DistanceMeters>5535.0564263129</DistanceMeters>
          </Trackpoint>
          <Trackpoint>
            <Time>2022-04-23T10:18:21.000Z</Time>
            <Position>
              <LatitudeDegrees>41.758606396615505218505859375</LatitudeDegrees>
              <LongitudeDegrees>-0.15557725913822650909423828125</LongitudeDegrees>
            </Position>
            <AltitudeMeters>285.20001220703125</AltitudeMeters>
            <DistanceMeters>5553.4504172937</DistanceMeters>
          </Trackpoint>
          <Trackpoint>
            <Time>2022-04-23T10:18:27.000Z</Time>
            <Position>
              <LatitudeDegrees>41.7584865354001522064208984375</LatitudeDegrees>
              <LongitudeDegrees>-0.1560549437999725341796875</LongitudeDegrees>
            </Position>
            <AltitudeMeters>286.20001220703125</AltitudeMeters>
            <DistanceMeters>5595.2945545472</DistanceMeters>
          </Trackpoint>
          <Trackpoint>
            <Time>2022-04-23T10:18:30.000Z</Time>
            <Position>
              <LatitudeDegrees>41.75842769443988800048828125</LatitudeDegrees>
              <LongitudeDegrees>-0.15626222826540470123291015625</LongitudeDegrees>
            </Position>
            <AltitudeMeters>286.600006103515625</AltitudeMeters>
            <DistanceMeters>5613.7086624667</DistanceMeters>
          </Trackpoint>
          <Trackpoint>
            <Time>2022-04-23T10:18:34.000Z</Time>
            <Position>
              <LatitudeDegrees>41.75835250876843929290771484375</LatitudeDegrees>
              <LongitudeDegrees>-0.15656615607440471649169921875</LongitudeDegrees>
            </Position>
            <AltitudeMeters>286.600006103515625</AltitudeMeters>
            <DistanceMeters>5640.2944132257</DistanceMeters>
          </Trackpoint>
          <Trackpoint>
            <Time>2022-04-23T10:18:36.000Z</Time>
            <Position>
              <LatitudeDegrees>41.7583148740231990814208984375</LatitudeDegrees>
              <LongitudeDegrees>-0.15673329122364521026611328125</LongitudeDegrees>
            </Position>
            <AltitudeMeters>286.600006103515625</AltitudeMeters>
            <DistanceMeters>5654.7896475701</DistanceMeters>
          </Trackpoint>
          <Trackpoint>
            <Time>2022-04-23T10:18:41.000Z</Time>
            <Position>
              <LatitudeDegrees>41.75821957178413867950439453125</LatitudeDegrees>
              <LongitudeDegrees>-0.15712757594883441925048828125</LongitudeDegrees>
            </Position>
            <AltitudeMeters>286.600006103515625</AltitudeMeters>
            <DistanceMeters>5689.2013912713</DistanceMeters>
          </Trackpoint>
          <Trackpoint>
            <Time>2022-04-23T10:18:44.000Z</Time>
            <Position>
              <LatitudeDegrees>41.758161149919033050537109375</LatitudeDegrees>
              <LongitudeDegrees>-0.15735606662929058074951171875</LongitudeDegrees>
            </Position>
            <AltitudeMeters>286.600006103515625</AltitudeMeters>
            <DistanceMeters>5709.2558557284</DistanceMeters>
          </Trackpoint>
          <Trackpoint>
            <Time>2022-04-23T10:18:46.000Z</Time>
            <Position>
              <LatitudeDegrees>41.75813038833439350128173828125</LatitudeDegrees>
              <LongitudeDegrees>-0.15746838413178920745849609375</LongitudeDegrees>
            </Position>
            <AltitudeMeters>286.600006103515625</AltitudeMeters>
            <DistanceMeters>5719.1905794554</DistanceMeters>
          </Trackpoint>
          <Trackpoint>
            <Time>2022-04-23T10:18:47.000Z</Time>
            <Position>
              <LatitudeDegrees>41.75811043940484523773193359375</LatitudeDegrees>
              <LongitudeDegrees>-0.15750266611576080322265625</LongitudeDegrees>
            </Position>
            <AltitudeMeters>286.600006103515625</AltitudeMeters>
            <DistanceMeters>5722.8015946015</DistanceMeters>
          </Trackpoint>
          <Trackpoint>
            <Time>2022-04-23T10:18:48.000Z</Time>
            <Position>
              <LatitudeDegrees>41.75807364284992218017578125</LatitudeDegrees>
              <LongitudeDegrees>-0.157531164586544036865234375</LongitudeDegrees>
            </Position>
            <AltitudeMeters>286.399993896484375</AltitudeMeters>
            <DistanceMeters>5727.5310236739</DistanceMeters>
          </Trackpoint>
          <Trackpoint>
            <Time>2022-04-23T10:18:50.000Z</Time>
            <Position>
              <LatitudeDegrees>41.7579812742769718170166015625</LatitudeDegrees>
              <LongitudeDegrees>-0.15751666389405727386474609375</LongitudeDegrees>
            </Position>
            <AltitudeMeters>286.20001220703125</AltitudeMeters>
            <DistanceMeters>5737.8823949398</DistanceMeters>
          </Trackpoint>
          <Trackpoint>
            <Time>2022-04-23T10:18:54.000Z</Time>
            <Position>
              <LatitudeDegrees>41.75776183605194091796875</LatitudeDegrees>
              <LongitudeDegrees>-0.157375596463680267333984375</LongitudeDegrees>
            </Position>
            <AltitudeMeters>285.600006103515625</AltitudeMeters>
            <DistanceMeters>5764.9695094267</DistanceMeters>
          </Trackpoint>
          <Trackpoint>
            <Time>2022-04-23T10:18:57.000Z</Time>
            <Position>
              <LatitudeDegrees>41.75759126432240009307861328125</LatitudeDegrees>
              <LongitudeDegrees>-0.15727006830275058746337890625</LongitudeDegrees>
            </Position>
            <AltitudeMeters>285.20001220703125</AltitudeMeters>
            <DistanceMeters>5785.8788418195</DistanceMeters>
          </Trackpoint>
          <Trackpoint>
            <Time>2022-04-23T10:19:01.000Z</Time>
            <Position>
              <LatitudeDegrees>41.75735137425363063812255859375</LatitudeDegrees>
              <LongitudeDegrees>-0.15713176690042018890380859375</LongitudeDegrees>
            </Position>
            <AltitudeMeters>285.20001220703125</AltitudeMeters>
            <DistanceMeters>5814.943659922</DistanceMeters>
          </Trackpoint>
          <Trackpoint>
            <Time>2022-04-23T10:19:09.000Z</Time>
            <Position>
              <LatitudeDegrees>41.7568577639758586883544921875</LatitudeDegrees>
              <LongitudeDegrees>-0.15685114078223705291748046875</LongitudeDegrees>
            </Position>
            <AltitudeMeters>285.600006103515625</AltitudeMeters>
            <DistanceMeters>5874.6199825956</DistanceMeters>
          </Trackpoint>
          <Trackpoint>
            <Time>2022-04-23T10:19:17.000Z</Time>
            <Position>
              <LatitudeDegrees>41.7563578672707080841064453125</LatitudeDegrees>
              <LongitudeDegrees>-0.1565538346767425537109375</LongitudeDegrees>
            </Position>
            <AltitudeMeters>285</AltitudeMeters>
            <DistanceMeters>5935.4895445746</DistanceMeters>
          </Trackpoint>
          <Trackpoint>
            <Time>2022-04-23T10:19:21.000Z</Time>
            <Position>
              <LatitudeDegrees>41.75611034967005252838134765625</LatitudeDegrees>
              <LongitudeDegrees>-0.15641092322766780853271484375</LongitudeDegrees>
            </Position>
            <AltitudeMeters>284.79998779296875</AltitudeMeters>
            <DistanceMeters>5965.4854912487</DistanceMeters>
          </Trackpoint>
          <Trackpoint>
            <Time>2022-04-23T10:19:23.000Z</Time>
            <Position>
              <LatitudeDegrees>41.7559961043298244476318359375</LatitudeDegrees>
              <LongitudeDegrees>-0.156361721456050872802734375</LongitudeDegrees>
            </Position>
            <AltitudeMeters>284.600006103515625</AltitudeMeters>
            <DistanceMeters>5978.841393692</DistanceMeters>
          </Trackpoint>
          <Trackpoint>
            <Time>2022-04-23T10:19:31.000Z</Time>
            <Position>
              <LatitudeDegrees>41.75545522011816501617431640625</LatitudeDegrees>
              <LongitudeDegrees>-0.1561627350747585296630859375</LongitudeDegrees>
            </Position>
            <AltitudeMeters>284.399993896484375</AltitudeMeters>
            <DistanceMeters>6041.2688101975</DistanceMeters>
          </Trackpoint>
          <Trackpoint>
            <Time>2022-04-23T10:19:33.000Z</Time>
            <Position>
              <LatitudeDegrees>41.7553278990089893341064453125</LatitudeDegrees>
              <LongitudeDegrees>-0.1561273634433746337890625</LongitudeDegrees>
            </Position>
            <AltitudeMeters>284.20001220703125</AltitudeMeters>
            <DistanceMeters>6055.7409763464</DistanceMeters>
          </Trackpoint>
          <Trackpoint>
            <Time>2022-04-23T10:19:35.000Z</Time>
            <Position>
              <LatitudeDegrees>41.75517224706709384918212890625</LatitudeDegrees>
              <LongitudeDegrees>-0.1560705341398715972900390625</LongitudeDegrees>
            </Position>
            <AltitudeMeters>283.79998779296875</AltitudeMeters>
            <DistanceMeters>6073.6967511656</DistanceMeters>
          </Trackpoint>
          <Trackpoint>
            <Time>2022-04-23T10:19:39.000Z</Time>
            <Position>
              <LatitudeDegrees>41.75489790737628936767578125</LatitudeDegrees>
              <LongitudeDegrees>-0.15597841702401638031005859375</LongitudeDegrees>
            </Position>
            <AltitudeMeters>283.399993896484375</AltitudeMeters>
            <DistanceMeters>6105.1746999253</DistanceMeters>
          </Trackpoint>
          <Trackpoint>
            <Time>2022-04-23T10:19:44.000Z</Time>
            <Position>
              <LatitudeDegrees>41.75458417274057865142822265625</LatitudeDegrees>
              <LongitudeDegrees>-0.155889987945556640625</LongitudeDegrees>
            </Position>
            <AltitudeMeters>283.79998779296875</AltitudeMeters>
            <DistanceMeters>6140.8575791369</DistanceMeters>
          </Trackpoint>
          <Trackpoint>
            <Time>2022-04-23T10:19:50.000Z</Time>
            <Position>
              <LatitudeDegrees>41.75418636761605739593505859375</LatitudeDegrees>
              <LongitudeDegrees>-0.15573098324239253997802734375</LongitudeDegrees>
            </Position>
            <AltitudeMeters>283.79998779296875</AltitudeMeters>
            <DistanceMeters>6187.0605018947</DistanceMeters>
          </Trackpoint>
          <Trackpoint>
            <Time>2022-04-23T10:19:57.000Z</Time>
            <Position>
              <LatitudeDegrees>41.7536810226738452911376953125</LatitudeDegrees>
              <LongitudeDegrees>-0.1555506885051727294921875</LongitudeDegrees>
            </Position>
            <AltitudeMeters>283.20001220703125</AltitudeMeters>
            <DistanceMeters>6245.2645001988</DistanceMeters>
          </Trackpoint>
          <Trackpoint>
            <Time>2022-04-23T10:19:58.000Z</Time>
            <Position>
              <LatitudeDegrees>41.75361455418169498443603515625</LatitudeDegrees>
              <LongitudeDegrees>-0.15552361495792865753173828125</LongitudeDegrees>
            </Position>
            <AltitudeMeters>283</AltitudeMeters>
            <DistanceMeters>6252.9967790437</DistanceMeters>
          </Trackpoint>
          <Trackpoint>
            <Time>2022-04-23T10:20:03.000Z</Time>
            <Position>
              <LatitudeDegrees>41.7532860673964023590087890625</LatitudeDegrees>
              <LongitudeDegrees>-0.155429653823375701904296875</LongitudeDegrees>
            </Position>
            <AltitudeMeters>283</AltitudeMeters>
            <DistanceMeters>6290.3813078141</DistanceMeters>
          </Trackpoint>
          <Trackpoint>
            <Time>2022-04-23T10:20:09.000Z</Time>
            <Position>
              <LatitudeDegrees>41.752828247845172882080078125</LatitudeDegrees>
              <LongitudeDegrees>-0.15526830218732357025146484375</LongitudeDegrees>
            </Position>
            <AltitudeMeters>282.79998779296875</AltitudeMeters>
            <DistanceMeters>6343.0694863798</DistanceMeters>
          </Trackpoint>
          <Trackpoint>
            <Time>2022-04-23T10:20:15.000Z</Time>
            <Position>
              <LatitudeDegrees>41.7523560114204883575439453125</LatitudeDegrees>
              <LongitudeDegrees>-0.1551800407469272613525390625</LongitudeDegrees>
            </Position>
            <AltitudeMeters>282.399993896484375</AltitudeMeters>
            <DistanceMeters>6396.1388223641</DistanceMeters>
          </Trackpoint>
          <Trackpoint>
            <Time>2022-04-23T10:20:16.000Z</Time>
            <Position>
              <LatitudeDegrees>41.7522929795086383819580078125</LatitudeDegrees>
              <LongitudeDegrees>-0.15516838990151882171630859375</LongitudeDegrees>
            </Position>
            <AltitudeMeters>282.399993896484375</AltitudeMeters>
            <DistanceMeters>6403.2207037928</DistanceMeters>
          </Trackpoint>
          <Trackpoint>
            <Time>2022-04-23T10:20:23.000Z</Time>
            <Position>
              <LatitudeDegrees>41.7517538554966449737548828125</LatitudeDegrees>
              <LongitudeDegrees>-0.1550652086734771728515625</LongitudeDegrees>
            </Position>
            <AltitudeMeters>282.399993896484375</AltitudeMeters>
            <DistanceMeters>6463.8347879876</DistanceMeters>
          </Trackpoint>
          <Trackpoint>
            <Time>2022-04-23T10:20:26.000Z</Time>
            <Position>
              <LatitudeDegrees>41.75150583498179912567138671875</LatitudeDegrees>
              <LongitudeDegrees>-0.15505406074225902557373046875</LongitudeDegrees>
            </Position>
            <AltitudeMeters>282.600006103515625</AltitudeMeters>
            <DistanceMeters>6491.4553777404</DistanceMeters>
          </Trackpoint>
          <Trackpoint>
            <Time>2022-04-23T10:20:31.000Z</Time>
            <Position>
              <LatitudeDegrees>41.751147843897342681884765625</LatitudeDegrees>
              <LongitudeDegrees>-0.15498314984142780303955078125</LongitudeDegrees>
            </Position>
            <AltitudeMeters>282.399993896484375</AltitudeMeters>
            <DistanceMeters>6531.7332552121</DistanceMeters>
          </Trackpoint>
          <Trackpoint>
            <Time>2022-04-23T10:20:38.000Z</Time>
            <Position>
              <LatitudeDegrees>41.750608384609222412109375</LatitudeDegrees>
              <LongitudeDegrees>-0.154887847602367401123046875</LongitudeDegrees>
            </Position>
            <AltitudeMeters>282.20001220703125</AltitudeMeters>
            <DistanceMeters>6592.295324277</DistanceMeters>
          </Trackpoint>
          <Trackpoint>
            <Time>2022-04-23T10:20:40.000Z</Time>
            <Position>
              <LatitudeDegrees>41.75047301687300205230712890625</LatitudeDegrees>
              <LongitudeDegrees>-0.15485725365579128265380859375</LongitudeDegrees>
            </Position>
            <AltitudeMeters>282</AltitudeMeters>
            <DistanceMeters>6607.5748398577</DistanceMeters>
          </Trackpoint>
          <Trackpoint>
            <Time>2022-04-23T10:20:41.000Z</Time>
            <Position>
              <LatitudeDegrees>41.750394143164157867431640625</LatitudeDegrees>
              <LongitudeDegrees>-0.15484032221138477325439453125</LongitudeDegrees>
            </Position>
            <AltitudeMeters>281.79998779296875</AltitudeMeters>
            <DistanceMeters>6616.4658065763</DistanceMeters>
          </Trackpoint>
          <Trackpoint>
            <Time>2022-04-23T10:20:44.000Z</Time>
            <Position>
              <LatitudeDegrees>41.7501529119908809661865234375</LatitudeDegrees>
              <LongitudeDegrees>-0.15480838716030120849609375</LongitudeDegrees>
            </Position>
            <AltitudeMeters>282</AltitudeMeters>
            <DistanceMeters>6643.4460312288</DistanceMeters>
          </Trackpoint>
          <Trackpoint>
            <Time>2022-04-23T10:20:51.000Z</Time>
            <Position>
              <LatitudeDegrees>41.74963197670876979827880859375</LatitudeDegrees>
              <LongitudeDegrees>-0.15471844933927059173583984375</LongitudeDegrees>
            </Position>
            <AltitudeMeters>282</AltitudeMeters>
            <DistanceMeters>6701.9062311225</DistanceMeters>
          </Trackpoint>
          <Trackpoint>
            <Time>2022-04-23T10:20:52.000Z</Time>
            <Position>
              <LatitudeDegrees>41.74956274218857288360595703125</LatitudeDegrees>
              <LongitudeDegrees>-0.15472431667149066925048828125</LongitudeDegrees>
            </Position>
            <AltitudeMeters>282</AltitudeMeters>
            <DistanceMeters>6709.6268227194</DistanceMeters>
          </Trackpoint>
          <Trackpoint>
            <Time>2022-04-23T10:20:55.000Z</Time>
            <Position>
              <LatitudeDegrees>41.74940298311412334442138671875</LatitudeDegrees>
              <LongitudeDegrees>-0.15472968108952045440673828125</LongitudeDegrees>
            </Position>
            <AltitudeMeters>281.79998779296875</AltitudeMeters>
            <DistanceMeters>6727.4138336626</DistanceMeters>
          </Trackpoint>
          <Trackpoint>
            <Time>2022-04-23T10:20:56.000Z</Time>
            <Position>
              <LatitudeDegrees>41.7493759095668792724609375</LatitudeDegrees>
              <LongitudeDegrees>-0.154716186225414276123046875</LongitudeDegrees>
            </Position>
            <AltitudeMeters>281.79998779296875</AltitudeMeters>
            <DistanceMeters>6730.6279287843</DistanceMeters>
          </Trackpoint>
          <Trackpoint>
            <Time>2022-04-23T10:21:00.000Z</Time>
            <Position>
              <LatitudeDegrees>41.74926635809242725372314453125</LatitudeDegrees>
              <LongitudeDegrees>-0.1546855084598064422607421875</LongitudeDegrees>
            </Position>
            <AltitudeMeters>281.399993896484375</AltitudeMeters>
            <DistanceMeters>6743.0847676134</DistanceMeters>
          </Trackpoint>
          <Trackpoint>
            <Time>2022-04-23T10:21:04.000Z</Time>
            <Position>
              <LatitudeDegrees>41.7491045035421848297119140625</LatitudeDegrees>
              <LongitudeDegrees>-0.15463949181139469146728515625</LongitudeDegrees>
            </Position>
            <AltitudeMeters>281</AltitudeMeters>
            <DistanceMeters>6761.5003466412</DistanceMeters>
          </Trackpoint>
          <Trackpoint>
            <Time>2022-04-23T10:21:05.000Z</Time>
            <Position>
              <LatitudeDegrees>41.74906033091247081756591796875</LatitudeDegrees>
              <LongitudeDegrees>-0.15461903996765613555908203125</LongitudeDegrees>
            </Position>
            <AltitudeMeters>281</AltitudeMeters>
            <DistanceMeters>6766.7017031014</DistanceMeters>
          </Trackpoint>
          <Trackpoint>
            <Time>2022-04-23T10:21:06.000Z</Time>
            <Position>
              <LatitudeDegrees>41.74901355989277362823486328125</LatitudeDegrees>
              <LongitudeDegrees>-0.1545953191816806793212890625</LongitudeDegrees>
            </Position>
            <AltitudeMeters>281</AltitudeMeters>
            <DistanceMeters>6772.267056837</DistanceMeters>
          </Trackpoint>
          <Trackpoint>
            <Time>2022-04-23T10:21:10.000Z</Time>
            <Position>
              <LatitudeDegrees>41.7487886734306812286376953125</LatitudeDegrees>
              <LongitudeDegrees>-0.154475457966327667236328125</LongitudeDegrees>
            </Position>
            <AltitudeMeters>281</AltitudeMeters>
            <DistanceMeters>6799.2034011004</DistanceMeters>
          </Trackpoint>
          <Trackpoint>
            <Time>2022-04-23T10:21:15.000Z</Time>
            <Position>
              <LatitudeDegrees>41.7484222166240215301513671875</LatitudeDegrees>
              <LongitudeDegrees>-0.15428812243044376373291015625</LongitudeDegrees>
            </Position>
            <AltitudeMeters>280.79998779296875</AltitudeMeters>
            <DistanceMeters>6842.8567747612</DistanceMeters>
          </Trackpoint>
          <Trackpoint>
            <Time>2022-04-23T10:21:22.000Z</Time>
            <Position>
              <LatitudeDegrees>41.74789021722972393035888671875</LatitudeDegrees>
              <LongitudeDegrees>-0.15390708111226558685302734375</LongitudeDegrees>
            </Position>
            <AltitudeMeters>280.399993896484375</AltitudeMeters>
            <DistanceMeters>6909.9935351604</DistanceMeters>
          </Trackpoint>
          <Trackpoint>
            <Time>2022-04-23T10:21:29.000Z</Time>
            <Position>
              <LatitudeDegrees>41.74735830165445804595947265625</LatitudeDegrees>
              <LongitudeDegrees>-0.15359410084784030914306640625</LongitudeDegrees>
            </Position>
            <AltitudeMeters>279.79998779296875</AltitudeMeters>
            <DistanceMeters>6974.6503987563</DistanceMeters>
          </Trackpoint>
          <Trackpoint>
            <Time>2022-04-23T10:21:32.000Z</Time>
            <Position>
              <LatitudeDegrees>41.74712595529854297637939453125</LatitudeDegrees>
              <LongitudeDegrees>-0.15353609807789325714111328125</LongitudeDegrees>
            </Position>
            <AltitudeMeters>279.20001220703125</AltitudeMeters>
            <DistanceMeters>7000.9556402079</DistanceMeters>
          </Trackpoint>
          <Trackpoint>
            <Time>2022-04-23T10:21:33.000Z</Time>
            <Position>
              <LatitudeDegrees>41.74706946127116680145263671875</LatitudeDegrees>
              <LongitudeDegrees>-0.15353760682046413421630859375</LongitudeDegrees>
            </Position>
            <AltitudeMeters>278.79998779296875</AltitudeMeters>
            <DistanceMeters>7007.2446572078</DistanceMeters>
          </Trackpoint>
          <Trackpoint>
            <Time>2022-04-23T10:21:38.000Z</Time>
            <Position>
              <LatitudeDegrees>41.74674659036099910736083984375</LatitudeDegrees>
              <LongitudeDegrees>-0.15351262874901294708251953125</LongitudeDegrees>
            </Position>
            <AltitudeMeters>278</AltitudeMeters>
            <DistanceMeters>7043.2405959897</DistanceMeters>
          </Trackpoint>
          <Trackpoint>
            <Time>2022-04-23T10:21:43.000Z</Time>
            <Position>
              <LatitudeDegrees>41.746418774127960205078125</LatitudeDegrees>
              <LongitudeDegrees>-0.15348161570727825164794921875</LongitudeDegrees>
            </Position>
            <AltitudeMeters>278.399993896484375</AltitudeMeters>
            <DistanceMeters>7079.817858407</DistanceMeters>
          </Trackpoint>
          <Trackpoint>
            <Time>2022-04-23T10:21:44.000Z</Time>
            <Position>
              <LatitudeDegrees>41.7463334463536739349365234375</LatitudeDegrees>
              <LongitudeDegrees>-0.15347574837505817413330078125</LongitudeDegrees>
            </Position>
            <AltitudeMeters>278.399993896484375</AltitudeMeters>
            <DistanceMeters>7089.3271793874</DistanceMeters>
          </Trackpoint>
          <Trackpoint>
            <Time>2022-04-23T10:21:47.000Z</Time>
            <Position>
              <LatitudeDegrees>41.74613504670560359954833984375</LatitudeDegrees>
              <LongitudeDegrees>-0.15346518717706203460693359375</LongitudeDegrees>
            </Position>
            <AltitudeMeters>278.399993896484375</AltitudeMeters>
            <DistanceMeters>7111.4267650051</DistanceMeters>
          </Trackpoint>
          <Trackpoint>
            <Time>2022-04-23T10:21:49.000Z</Time>
            <Position>
              <LatitudeDegrees>41.7459869384765625</LatitudeDegrees>
              <LongitudeDegrees>-0.1535056717693805694580078125</LongitudeDegrees>
            </Position>
            <AltitudeMeters>278.399993896484375</AltitudeMeters>
            <DistanceMeters>7128.2510562595</DistanceMeters>
          </Trackpoint>
          <Trackpoint>
            <Time>2022-04-23T10:21:52.000Z</Time>
            <Position>
              <LatitudeDegrees>41.74584402702748775482177734375</LatitudeDegrees>
              <LongitudeDegrees>-0.15363869257271289825439453125</LongitudeDegrees>
            </Position>
            <AltitudeMeters>278.79998779296875</AltitudeMeters>
            <DistanceMeters>7147.616931785</DistanceMeters>
          </Trackpoint>
          <Trackpoint>
            <Time>2022-04-23T10:21:53.000Z</Time>
            <Position>
              <LatitudeDegrees>41.7457990162074565887451171875</LatitudeDegrees>
              <LongitudeDegrees>-0.153720080852508544921875</LongitudeDegrees>
            </Position>
            <AltitudeMeters>279</AltitudeMeters>
            <DistanceMeters>7156.0298824664</DistanceMeters>
          </Trackpoint>
          <Trackpoint>
            <Time>2022-04-23T10:22:00.000Z</Time>
            <Position>
              <LatitudeDegrees>41.74555309116840362548828125</LatitudeDegrees>
              <LongitudeDegrees>-0.15417865477502346038818359375</LongitudeDegrees>
            </Position>
            <AltitudeMeters>279.600006103515625</AltitudeMeters>
            <DistanceMeters>7202.9278525628</DistanceMeters>
          </Trackpoint>
          <Trackpoint>
            <Time>2022-04-23T10:22:04.000Z</Time>
            <Position>
              <LatitudeDegrees>41.745468936860561370849609375</LatitudeDegrees>
              <LongitudeDegrees>-0.154456682503223419189453125</LongitudeDegrees>
            </Position>
            <AltitudeMeters>279.20001220703125</AltitudeMeters>
            <DistanceMeters>7227.8437048534</DistanceMeters>
          </Trackpoint>
          <Trackpoint>
            <Time>2022-04-23T10:22:05.000Z</Time>
            <Position>
              <LatitudeDegrees>41.74543750472366809844970703125</LatitudeDegrees>
              <LongitudeDegrees>-0.154533125460147857666015625</LongitudeDegrees>
            </Position>
            <AltitudeMeters>279.20001220703125</AltitudeMeters>
            <DistanceMeters>7235.0925678558</DistanceMeters>
          </Trackpoint>
          <Trackpoint>
            <Time>2022-04-23T10:22:11.000Z</Time>
            <Position>
              <LatitudeDegrees>41.74525477923452854156494140625</LatitudeDegrees>
              <LongitudeDegrees>-0.15500611625611782073974609375</LongitudeDegrees>
            </Position>
            <AltitudeMeters>279.20001220703125</AltitudeMeters>
            <DistanceMeters>7279.3244156847</DistanceMeters>
          </Trackpoint>
          <Trackpoint>
            <Time>2022-04-23T10:22:13.000Z</Time>
            <Position>
              <LatitudeDegrees>41.745208762586116790771484375</LatitudeDegrees>
              <LongitudeDegrees>-0.155165456235408782958984375</LongitudeDegrees>
            </Position>
            <AltitudeMeters>279</AltitudeMeters>
            <DistanceMeters>7293.5133393337</DistanceMeters>
          </Trackpoint>
          <Trackpoint>
            <Time>2022-04-23T10:22:15.000Z</Time>
            <Position>
              <LatitudeDegrees>41.7452144622802734375</LatitudeDegrees>
              <LongitudeDegrees>-0.155340470373630523681640625</LongitudeDegrees>
            </Position>
            <AltitudeMeters>279.20001220703125</AltitudeMeters>
            <DistanceMeters>7308.060808926</DistanceMeters>
          </Trackpoint>
          <Trackpoint>
            <Time>2022-04-23T10:22:17.000Z</Time>
            <Position>
              <LatitudeDegrees>41.74527020193636417388916015625</LatitudeDegrees>
              <LongitudeDegrees>-0.15549578703939914703369140625</LongitudeDegrees>
            </Position>
            <AltitudeMeters>279.20001220703125</AltitudeMeters>
            <DistanceMeters>7322.3732959263</DistanceMeters>
          </Trackpoint>
          <Trackpoint>
            <Time>2022-04-23T10:22:18.000Z</Time>
            <Position>
              <LatitudeDegrees>41.74530205316841602325439453125</LatitudeDegrees>
              <LongitudeDegrees>-0.155538953840732574462890625</LongitudeDegrees>
            </Position>
            <AltitudeMeters>279.399993896484375</AltitudeMeters>
            <DistanceMeters>7327.4141921872</DistanceMeters>
          </Trackpoint>
          <Trackpoint>
            <Time>2022-04-23T10:22:19.000Z</Time>
            <Position>
              <LatitudeDegrees>41.74534320831298828125</LatitudeDegrees>
              <LongitudeDegrees>-0.15558354556560516357421875</LongitudeDegrees>
            </Position>
            <AltitudeMeters>279.399993896484375</AltitudeMeters>
            <DistanceMeters>7333.3043155898</DistanceMeters>
          </Trackpoint>
          <Trackpoint>
            <Time>2022-04-23T10:22:21.000Z</Time>
            <Position>
              <LatitudeDegrees>41.74542979337275028228759765625</LatitudeDegrees>
              <LongitudeDegrees>-0.1556584797799587249755859375</LongitudeDegrees>
            </Position>
            <AltitudeMeters>279.600006103515625</AltitudeMeters>
            <DistanceMeters>7344.7754216367</DistanceMeters>
          </Trackpoint>
          <Trackpoint>
            <Time>2022-04-23T10:22:22.000Z</Time>
            <Position>
              <LatitudeDegrees>41.7454520054161548614501953125</LatitudeDegrees>
              <LongitudeDegrees>-0.15569678507745265960693359375</LongitudeDegrees>
            </Position>
            <AltitudeMeters>279.600006103515625</AltitudeMeters>
            <DistanceMeters>7348.8048232606</DistanceMeters>
          </Trackpoint>
          <Trackpoint>
            <Time>2022-04-23T10:22:23.000Z</Time>
            <Position>
              <LatitudeDegrees>41.74545376561582088470458984375</LatitudeDegrees>
              <LongitudeDegrees>-0.15573240816593170166015625</LongitudeDegrees>
            </Position>
            <AltitudeMeters>279.79998779296875</AltitudeMeters>
            <DistanceMeters>7351.768986613</DistanceMeters>
          </Trackpoint>
          <Trackpoint>
            <Time>2022-04-23T10:22:25.000Z</Time>
            <Position>
              <LatitudeDegrees>41.7454154603183269500732421875</LatitudeDegrees>
              <LongitudeDegrees>-0.15581362880766391754150390625</LongitudeDegrees>
            </Position>
            <AltitudeMeters>279.600006103515625</AltitudeMeters>
            <DistanceMeters>7359.7484019429</DistanceMeters>
          </Trackpoint>
          <Trackpoint>
            <Time>2022-04-23T10:22:28.000Z</Time>
            <Position>
              <LatitudeDegrees>41.74530523829162120819091796875</LatitudeDegrees>
              <LongitudeDegrees>-0.15596098266541957855224609375</LongitudeDegrees>
            </Position>
            <AltitudeMeters>279.79998779296875</AltitudeMeters>
            <DistanceMeters>7377.0756054567</DistanceMeters>
          </Trackpoint>
          <Trackpoint>
            <Time>2022-04-23T10:22:29.000Z</Time>
            <Position>
              <LatitudeDegrees>41.7452562041580677032470703125</LatitudeDegrees>
              <LongitudeDegrees>-0.15600909478962421417236328125</LongitudeDegrees>
            </Position>
            <AltitudeMeters>279.79998779296875</AltitudeMeters>
            <DistanceMeters>7383.8398790571</DistanceMeters>
          </Trackpoint>
          <Trackpoint>
            <Time>2022-04-23T10:22:34.000Z</Time>
            <Position>
              <LatitudeDegrees>41.74499779008328914642333984375</LatitudeDegrees>
              <LongitudeDegrees>-0.156321823596954345703125</LongitudeDegrees>
            </Position>
            <AltitudeMeters>279.20001220703125</AltitudeMeters>
            <DistanceMeters>7422.5916753075</DistanceMeters>
          </Trackpoint>
          <Trackpoint>
            <Time>2022-04-23T10:22:40.000Z</Time>
            <Position>
              <LatitudeDegrees>41.7447187565267086029052734375</LatitudeDegrees>
              <LongitudeDegrees>-0.15674066729843616485595703125</LongitudeDegrees>
            </Position>
            <AltitudeMeters>279.399993896484375</AltitudeMeters>
            <DistanceMeters>7469.2218175666</DistanceMeters>
          </Trackpoint>
          <Trackpoint>
            <Time>2022-04-23T10:22:42.000Z</Time>
            <Position>
              <LatitudeDegrees>41.7446386255323886871337890625</LatitudeDegrees>
              <LongitudeDegrees>-0.15685583464801311492919921875</LongitudeDegrees>
            </Position>
            <AltitudeMeters>279.20001220703125</AltitudeMeters>
            <DistanceMeters>7482.2989574564</DistanceMeters>
          </Trackpoint>
          <Trackpoint>
            <Time>2022-04-23T10:22:43.000Z</Time>
            <Position>
              <LatitudeDegrees>41.744582466781139373779296875</LatitudeDegrees>
              <LongitudeDegrees>-0.15693001449108123779296875</LongitudeDegrees>
            </Position>
            <AltitudeMeters>279.20001220703125</AltitudeMeters>
            <DistanceMeters>7491.0744057021</DistanceMeters>
          </Trackpoint>
          <Trackpoint>
            <Time>2022-04-23T10:22:47.000Z</Time>
            <Position>
              <LatitudeDegrees>41.744381301105022430419921875</LatitudeDegrees>
              <LongitudeDegrees>-0.1571655459702014923095703125</LongitudeDegrees>
            </Position>
            <AltitudeMeters>279</AltitudeMeters>
            <DistanceMeters>7520.8048615116</DistanceMeters>
          </Trackpoint>
          <Trackpoint>
            <Time>2022-04-23T10:22:51.000Z</Time>
            <Position>
              <LatitudeDegrees>41.744217686355113983154296875</LatitudeDegrees>
              <LongitudeDegrees>-0.15739998780190944671630859375</LongitudeDegrees>
            </Position>
            <AltitudeMeters>279</AltitudeMeters>
            <DistanceMeters>7547.4635388287</DistanceMeters>
          </Trackpoint>
          <Trackpoint>
            <Time>2022-04-23T10:22:53.000Z</Time>
            <Position>
              <LatitudeDegrees>41.7441098950803279876708984375</LatitudeDegrees>
              <LongitudeDegrees>-0.157529823482036590576171875</LongitudeDegrees>
            </Position>
            <AltitudeMeters>279.20001220703125</AltitudeMeters>
            <DistanceMeters>7563.5940261944</DistanceMeters>
          </Trackpoint>
          <Trackpoint>
            <Time>2022-04-23T10:23:00.000Z</Time>
            <Position>
              <LatitudeDegrees>41.74382281489670276641845703125</LatitudeDegrees>
              <LongitudeDegrees>-0.1580080948770046234130859375</LongitudeDegrees>
            </Position>
            <AltitudeMeters>280.20001220703125</AltitudeMeters>
            <DistanceMeters>7614.5694594689</DistanceMeters>
          </Trackpoint>
          <Trackpoint>
            <Time>2022-04-23T10:23:01.000Z</Time>
            <Position>
              <LatitudeDegrees>41.743779815733432769775390625</LatitudeDegrees>
              <LongitudeDegrees>-0.15807523392140865325927734375</LongitudeDegrees>
            </Position>
            <AltitudeMeters>280.20001220703125</AltitudeMeters>
            <DistanceMeters>7621.9173045312</DistanceMeters>
          </Trackpoint>
          <Trackpoint>
            <Time>2022-04-23T10:23:05.000Z</Time>
            <Position>
              <LatitudeDegrees>41.74360957928001880645751953125</LatitudeDegrees>
              <LongitudeDegrees>-0.158345885574817657470703125</LongitudeDegrees>
            </Position>
            <AltitudeMeters>280.20001220703125</AltitudeMeters>
            <DistanceMeters>7651.3148288486</DistanceMeters>
          </Trackpoint>
          <Trackpoint>
            <Time>2022-04-23T10:23:12.000Z</Time>
            <Position>
              <LatitudeDegrees>41.74333683215081691741943359375</LatitudeDegrees>
              <LongitudeDegrees>-0.1587990112602710723876953125</LongitudeDegrees>
            </Position>
            <AltitudeMeters>280.20001220703125</AltitudeMeters>
            <DistanceMeters>7699.6636329598</DistanceMeters>
          </Trackpoint>
          <Trackpoint>
            <Time>2022-04-23T10:23:16.000Z</Time>
            <Position>
              <LatitudeDegrees>41.7431613989174365997314453125</LatitudeDegrees>
              <LongitudeDegrees>-0.15903714112937450408935546875</LongitudeDegrees>
            </Position>
            <AltitudeMeters>280.79998779296875</AltitudeMeters>
            <DistanceMeters>7727.4546825667</DistanceMeters>
          </Trackpoint>
          <Trackpoint>
            <Time>2022-04-23T10:23:17.000Z</Time>
            <Position>
              <LatitudeDegrees>41.74312032759189605712890625</LatitudeDegrees>
              <LongitudeDegrees>-0.15907435677945613861083984375</LongitudeDegrees>
            </Position>
            <AltitudeMeters>280.79998779296875</AltitudeMeters>
            <DistanceMeters>7732.972781675</DistanceMeters>
          </Trackpoint>
          <Trackpoint>
            <Time>2022-04-23T10:23:19.000Z</Time>
            <Position>
              <LatitudeDegrees>41.74299702979624271392822265625</LatitudeDegrees>
              <LongitudeDegrees>-0.1591470278799533843994140625</LongitudeDegrees>
            </Position>
            <AltitudeMeters>281.20001220703125</AltitudeMeters>
            <DistanceMeters>7747.9641305982</DistanceMeters>
          </Trackpoint>
          <Trackpoint>
            <Time>2022-04-23T10:23:21.000Z</Time>
            <Position>
              <LatitudeDegrees>41.74288429319858551025390625</LatitudeDegrees>
              <LongitudeDegrees>-0.159148536622524261474609375</LongitudeDegrees>
            </Position>
            <AltitudeMeters>281.399993896484375</AltitudeMeters>
            <DistanceMeters>7760.5126951786</DistanceMeters>
          </Trackpoint>
          <Trackpoint>
            <Time>2022-04-23T10:23:26.000Z</Time>
            <Position>
              <LatitudeDegrees>41.74260157160460948944091796875</LatitudeDegrees>
              <LongitudeDegrees>-0.158986933529376983642578125</LongitudeDegrees>
            </Position>
            <AltitudeMeters>281</AltitudeMeters>
            <DistanceMeters>7794.7225763139</DistanceMeters>
          </Trackpoint>
          <Trackpoint>
            <Time>2022-04-23T10:23:33.000Z</Time>
            <Position>
              <LatitudeDegrees>41.7421661317348480224609375</LatitudeDegrees>
              <LongitudeDegrees>-0.15870119445025920867919921875</LongitudeDegrees>
            </Position>
            <AltitudeMeters>281</AltitudeMeters>
            <DistanceMeters>7848.6854520845</DistanceMeters>
          </Trackpoint>
          <Trackpoint>
            <Time>2022-04-23T10:23:40.000Z</Time>
            <Position>
              <LatitudeDegrees>41.74174368381500244140625</LatitudeDegrees>
              <LongitudeDegrees>-0.15840883366763591766357421875</LongitudeDegrees>
            </Position>
            <AltitudeMeters>280.399993896484375</AltitudeMeters>
            <DistanceMeters>7901.6036442891</DistanceMeters>
          </Trackpoint>
          <Trackpoint>
            <Time>2022-04-23T10:23:43.000Z</Time>
            <Position>
              <LatitudeDegrees>41.74155064858496189117431640625</LatitudeDegrees>
              <LongitudeDegrees>-0.15828729607164859771728515625</LongitudeDegrees>
            </Position>
            <AltitudeMeters>280.20001220703125</AltitudeMeters>
            <DistanceMeters>7925.3416903388</DistanceMeters>
          </Trackpoint>
          <Trackpoint>
            <Time>2022-04-23T10:23:48.000Z</Time>
            <Position>
              <LatitudeDegrees>41.74122677184641361236572265625</LatitudeDegrees>
              <LongitudeDegrees>-0.1580597274005413055419921875</LongitudeDegrees>
            </Position>
            <AltitudeMeters>280</AltitudeMeters>
            <DistanceMeters>7966.0437520116</DistanceMeters>
          </Trackpoint>
          <Trackpoint>
            <Time>2022-04-23T10:23:55.000Z</Time>
            <Position>
              <LatitudeDegrees>41.7407678626477718353271484375</LatitudeDegrees>
              <LongitudeDegrees>-0.1576969586312770843505859375</LongitudeDegrees>
            </Position>
            <AltitudeMeters>279.20001220703125</AltitudeMeters>
            <DistanceMeters>8025.3445333689</DistanceMeters>
          </Trackpoint>
          <Trackpoint>
            <Time>2022-04-23T10:23:57.000Z</Time>
            <Position>
              <LatitudeDegrees>41.74062914215028285980224609375</LatitudeDegrees>
              <LongitudeDegrees>-0.1575605012476444244384765625</LongitudeDegrees>
            </Position>
            <AltitudeMeters>279</AltitudeMeters>
            <DistanceMeters>8044.4970727647</DistanceMeters>
          </Trackpoint>
          <Trackpoint>
            <Time>2022-04-23T10:23:58.000Z</Time>
            <Position>
              <LatitudeDegrees>41.74058153294026851654052734375</LatitudeDegrees>
              <LongitudeDegrees>-0.15749906189739704132080078125</LongitudeDegrees>
            </Position>
            <AltitudeMeters>278.79998779296875</AltitudeMeters>
            <DistanceMeters>8051.853515392</DistanceMeters>
          </Trackpoint>
          <Trackpoint>
            <Time>2022-04-23T10:24:00.000Z</Time>
            <Position>
              <LatitudeDegrees>41.74046619795262813568115234375</LatitudeDegrees>
              <LongitudeDegrees>-0.1573268137872219085693359375</LongitudeDegrees>
            </Position>
            <AltitudeMeters>278.399993896484375</AltitudeMeters>
            <DistanceMeters>8071.0740631833</DistanceMeters>
          </Trackpoint>
          <Trackpoint>
            <Time>2022-04-23T10:24:04.000Z</Time>
            <Position>
              <LatitudeDegrees>41.74026779830455780029296875</LatitudeDegrees>
              <LongitudeDegrees>-0.157006792724132537841796875</LongitudeDegrees>
            </Position>
            <AltitudeMeters>277.79998779296875</AltitudeMeters>
            <DistanceMeters>8105.6285258167</DistanceMeters>
          </Trackpoint>
          <Trackpoint>
            <Time>2022-04-23T10:24:10.000Z</Time>
            <Position>
              <LatitudeDegrees>41.7399720847606658935546875</LatitudeDegrees>
              <LongitudeDegrees>-0.15652810223400592803955078125</LongitudeDegrees>
            </Position>
            <AltitudeMeters>277</AltitudeMeters>
            <DistanceMeters>8157.2405429287</DistanceMeters>
          </Trackpoint>
          <Trackpoint>
            <Time>2022-04-23T10:24:13.000Z</Time>
            <Position>
              <LatitudeDegrees>41.73983168788254261016845703125</LatitudeDegrees>
              <LongitudeDegrees>-0.1562976837158203125</LongitudeDegrees>
            </Position>
            <AltitudeMeters>276.79998779296875</AltitudeMeters>
            <DistanceMeters>8181.9467576794</DistanceMeters>
          </Trackpoint>
          <Trackpoint>
            <Time>2022-04-23T10:24:17.000Z</Time>
            <Position>
              <LatitudeDegrees>41.73962750472128391265869140625</LatitudeDegrees>
              <LongitudeDegrees>-0.15597690828144550323486328125</LongitudeDegrees>
            </Position>
            <AltitudeMeters>276.600006103515625</AltitudeMeters>
            <DistanceMeters>8216.9638118149</DistanceMeters>
          </Trackpoint>
          <Trackpoint>
            <Time>2022-04-23T10:24:24.000Z</Time>
            <Position>
              <LatitudeDegrees>41.73927898518741130828857421875</LatitudeDegrees>
              <LongitudeDegrees>-0.15538849867880344390869140625</LongitudeDegrees>
            </Position>
            <AltitudeMeters>276.79998779296875</AltitudeMeters>
            <DistanceMeters>8279.3563581222</DistanceMeters>
          </Trackpoint>
          <Trackpoint>
            <Time>2022-04-23T10:24:26.000Z</Time>
            <Position>
              <LatitudeDegrees>41.739191897213459014892578125</LatitudeDegrees>
              <LongitudeDegrees>-0.155238546431064605712890625</LongitudeDegrees>
            </Position>
            <AltitudeMeters>276.79998779296875</AltitudeMeters>
            <DistanceMeters>8295.1379467115</DistanceMeters>
          </Trackpoint>
          <Trackpoint>
            <Time>2022-04-23T10:24:32.000Z</Time>
            <Position>
              <LatitudeDegrees>41.73886307515203952789306640625</LatitudeDegrees>
              <LongitudeDegrees>-0.15474929474294185638427734375</LongitudeDegrees>
            </Position>
            <AltitudeMeters>277.399993896484375</AltitudeMeters>
            <DistanceMeters>8349.8235710216</DistanceMeters>
          </Trackpoint>
          <Trackpoint>
            <Time>2022-04-23T10:24:38.000Z</Time>
            <Position>
              <LatitudeDegrees>41.73855663277208805084228515625</LatitudeDegrees>
              <LongitudeDegrees>-0.154235400259494781494140625</LongitudeDegrees>
            </Position>
            <AltitudeMeters>276.399993896484375</AltitudeMeters>
            <DistanceMeters>8404.4580646028</DistanceMeters>
          </Trackpoint>
          <Trackpoint>
            <Time>2022-04-23T10:24:41.000Z</Time>
            <Position>
              <LatitudeDegrees>41.73839435912668704986572265625</LatitudeDegrees>
              <LongitudeDegrees>-0.15396910719573497772216796875</LongitudeDegrees>
            </Position>
            <AltitudeMeters>275.600006103515625</AltitudeMeters>
            <DistanceMeters>8433.012287798</DistanceMeters>
          </Trackpoint>
          <Trackpoint>
            <Time>2022-04-23T10:24:42.000Z</Time>
            <Position>
              <LatitudeDegrees>41.73833258450031280517578125</LatitudeDegrees>
              <LongitudeDegrees>-0.153888724744319915771484375</LongitudeDegrees>
            </Position>
            <AltitudeMeters>275.79998779296875</AltitudeMeters>
            <DistanceMeters>8442.5963337906</DistanceMeters>
          </Trackpoint>
          <Trackpoint>
            <Time>2022-04-23T10:24:43.000Z</Time>
            <Position>
              <LatitudeDegrees>41.7382646910846233367919921875</LatitudeDegrees>
              <LongitudeDegrees>-0.15381672419607639312744140625</LongitudeDegrees>
            </Position>
            <AltitudeMeters>275.600006103515625</AltitudeMeters>
            <DistanceMeters>8452.2329984703</DistanceMeters>
          </Trackpoint>
          <Trackpoint>
            <Time>2022-04-23T10:24:44.000Z</Time>
            <Position>
              <LatitudeDegrees>41.7381952889263629913330078125</LatitudeDegrees>
              <LongitudeDegrees>-0.15375235117971897125244140625</LongitudeDegrees>
            </Position>
            <AltitudeMeters>275.399993896484375</AltitudeMeters>
            <DistanceMeters>8461.6276760679</DistanceMeters>
          </Trackpoint>
          <Trackpoint>
            <Time>2022-04-23T10:24:46.000Z</Time>
            <Position>
              <LatitudeDegrees>41.73802907578647136688232421875</LatitudeDegrees>
              <LongitudeDegrees>-0.15366584993898868560791015625</LongitudeDegrees>
            </Position>
            <AltitudeMeters>275</AltitudeMeters>
            <DistanceMeters>8481.4737044932</DistanceMeters>
          </Trackpoint>
          <Trackpoint>
            <Time>2022-04-23T10:24:47.000Z</Time>
            <Position>
              <LatitudeDegrees>41.7379428260028362274169921875</LatitudeDegrees>
              <LongitudeDegrees>-0.15365528874099254608154296875</LongitudeDegrees>
            </Position>
            <AltitudeMeters>274.600006103515625</AltitudeMeters>
            <DistanceMeters>8491.1136483045</DistanceMeters>
          </Trackpoint>
          <Trackpoint>
            <Time>2022-04-23T10:24:48.000Z</Time>
            <Position>
              <LatitudeDegrees>41.7378556542098522186279296875</LatitudeDegrees>
              <LongitudeDegrees>-0.15366149134933948516845703125</LongitudeDegrees>
            </Position>
            <AltitudeMeters>274</AltitudeMeters>
            <DistanceMeters>8500.8301008064</DistanceMeters>
          </Trackpoint>
          <Trackpoint>
            <Time>2022-04-23T10:24:49.000Z</Time>
            <Position>
              <LatitudeDegrees>41.73776957206428050994873046875</LatitudeDegrees>
              <LongitudeDegrees>-0.1536749862134456634521484375</LongitudeDegrees>
            </Position>
            <AltitudeMeters>273.79998779296875</AltitudeMeters>
            <DistanceMeters>8510.4761314759</DistanceMeters>
          </Trackpoint>
          <Trackpoint>
            <Time>2022-04-23T10:24:50.000Z</Time>
            <Position>
              <LatitudeDegrees>41.7376826517283916473388671875</LatitudeDegrees>
              <LongitudeDegrees>-0.15368378721177577972412109375</LongitudeDegrees>
            </Position>
            <AltitudeMeters>273.20001220703125</AltitudeMeters>
            <DistanceMeters>8520.1781682132</DistanceMeters>
          </Trackpoint>
          <Trackpoint>
            <Time>2022-04-23T10:24:52.000Z</Time>
            <Position>
              <LatitudeDegrees>41.73750654794275760650634765625</LatitudeDegrees>
              <LongitudeDegrees>-0.15367540530860424041748046875</LongitudeDegrees>
            </Position>
            <AltitudeMeters>272.79998779296875</AltitudeMeters>
            <DistanceMeters>8539.7910006543</DistanceMeters>
          </Trackpoint>
          <Trackpoint>
            <Time>2022-04-23T10:24:53.000Z</Time>
            <Position>
              <LatitudeDegrees>41.7374197952449321746826171875</LatitudeDegrees>
              <LongitudeDegrees>-0.153655372560024261474609375</LongitudeDegrees>
            </Position>
            <AltitudeMeters>272.79998779296875</AltitudeMeters>
            <DistanceMeters>8549.589356269</DistanceMeters>
          </Trackpoint>
          <Trackpoint>
            <Time>2022-04-23T10:24:57.000Z</Time>
            <Position>
              <LatitudeDegrees>41.737085022032260894775390625</LatitudeDegrees>
              <LongitudeDegrees>-0.15355504117906093597412109375</LongitudeDegrees>
            </Position>
            <AltitudeMeters>272.20001220703125</AltitudeMeters>
            <DistanceMeters>8587.7708252191</DistanceMeters>
          </Trackpoint>
          <Trackpoint>
            <Time>2022-04-23T10:24:58.000Z</Time>
            <Position>
              <LatitudeDegrees>41.73700614832341670989990234375</LatitudeDegrees>
              <LongitudeDegrees>-0.15354900620877742767333984375</LongitudeDegrees>
            </Position>
            <AltitudeMeters>272</AltitudeMeters>
            <DistanceMeters>8596.5647762462</DistanceMeters>
          </Trackpoint>
          <Trackpoint>
            <Time>2022-04-23T10:24:59.000Z</Time>
            <Position>
              <LatitudeDegrees>41.7369250953197479248046875</LatitudeDegrees>
              <LongitudeDegrees>-0.15355537645518779754638671875</LongitudeDegrees>
            </Position>
            <AltitudeMeters>271.79998779296875</AltitudeMeters>
            <DistanceMeters>8605.6013121578</DistanceMeters>
          </Trackpoint>
          <Trackpoint>
            <Time>2022-04-23T10:25:00.000Z</Time>
            <Position>
              <LatitudeDegrees>41.73684840090572834014892578125</LatitudeDegrees>
              <LongitudeDegrees>-0.15358421020209789276123046875</LongitudeDegrees>
            </Position>
            <AltitudeMeters>271.79998779296875</AltitudeMeters>
            <DistanceMeters>8614.4668513613</DistanceMeters>
          </Trackpoint>
          <Trackpoint>
            <Time>2022-04-23T10:25:02.000Z</Time>
            <Position>
              <LatitudeDegrees>41.73668570816516876220703125</LatitudeDegrees>
              <LongitudeDegrees>-0.15366266481578350067138671875</LongitudeDegrees>
            </Position>
            <AltitudeMeters>271.399993896484375</AltitudeMeters>
            <DistanceMeters>8633.7113447346</DistanceMeters>
          </Trackpoint>
          <Trackpoint>
            <Time>2022-04-23T10:25:04.000Z</Time>
            <Position>
              <LatitudeDegrees>41.736513040959835052490234375</LatitudeDegrees>
              <LongitudeDegrees>-0.15367875806987285614013671875</LongitudeDegrees>
            </Position>
            <AltitudeMeters>271</AltitudeMeters>
            <DistanceMeters>8652.9760043935</DistanceMeters>
          </Trackpoint>
          <Trackpoint>
            <Time>2022-04-23T10:25:05.000Z</Time>
            <Position>
              <LatitudeDegrees>41.73642813228070735931396484375</LatitudeDegrees>
              <LongitudeDegrees>-0.15366249717772006988525390625</LongitudeDegrees>
            </Position>
            <AltitudeMeters>271</AltitudeMeters>
            <DistanceMeters>8662.5222880406</DistanceMeters>
          </Trackpoint>
          <Trackpoint>
            <Time>2022-04-23T10:25:11.000Z</Time>
            <Position>
              <LatitudeDegrees>41.735908873379230499267578125</LatitudeDegrees>
              <LongitudeDegrees>-0.153477676212787628173828125</LongitudeDegrees>
            </Position>
            <AltitudeMeters>270.600006103515625</AltitudeMeters>
            <DistanceMeters>8722.3207503233</DistanceMeters>
          </Trackpoint>
          <Trackpoint>
            <Time>2022-04-23T10:25:12.000Z</Time>
            <Position>
              <LatitudeDegrees>41.7358215339481830596923828125</LatitudeDegrees>
              <LongitudeDegrees>-0.15344909392297267913818359375</LongitudeDegrees>
            </Position>
            <AltitudeMeters>270.600006103515625</AltitudeMeters>
            <DistanceMeters>8732.3279251376</DistanceMeters>
          </Trackpoint>
          <Trackpoint>
            <Time>2022-04-23T10:25:17.000Z</Time>
            <Position>
              <LatitudeDegrees>41.73538391478359699249267578125</LatitudeDegrees>
              <LongitudeDegrees>-0.15328631736338138580322265625</LongitudeDegrees>
            </Position>
            <AltitudeMeters>270</AltitudeMeters>
            <DistanceMeters>8782.8772248487</DistanceMeters>
          </Trackpoint>
          <Trackpoint>
            <Time>2022-04-23T10:25:18.000Z</Time>
            <Position>
              <LatitudeDegrees>41.735293306410312652587890625</LatitudeDegrees>
              <LongitudeDegrees>-0.15326636843383312225341796875</LongitudeDegrees>
            </Position>
            <AltitudeMeters>269.600006103515625</AltitudeMeters>
            <DistanceMeters>8793.0969050859</DistanceMeters>
          </Trackpoint>
          <Trackpoint>
            <Time>2022-04-23T10:25:20.000Z</Time>
            <Position>
              <LatitudeDegrees>41.73510647378861904144287109375</LatitudeDegrees>
              <LongitudeDegrees>-0.15322898514568805694580078125</LongitudeDegrees>
            </Position>
            <AltitudeMeters>268.600006103515625</AltitudeMeters>
            <DistanceMeters>8814.122089086</DistanceMeters>
          </Trackpoint>
          <Trackpoint>
            <Time>2022-04-23T10:25:21.000Z</Time>
            <Position>
              <LatitudeDegrees>41.7350068129599094390869140625</LatitudeDegrees>
              <LongitudeDegrees>-0.1532210223376750946044921875</LongitudeDegrees>
            </Position>
            <AltitudeMeters>268.20001220703125</AltitudeMeters>
            <DistanceMeters>8825.2341215416</DistanceMeters>
          </Trackpoint>
          <Trackpoint>
            <Time>2022-04-23T10:25:23.000Z</Time>
            <Position>
              <LatitudeDegrees>41.7348116822540760040283203125</LatitudeDegrees>
              <LongitudeDegrees>-0.153257735073566436767578125</LongitudeDegrees>
            </Position>
            <AltitudeMeters>268</AltitudeMeters>
            <DistanceMeters>8847.1657437311</DistanceMeters>
          </Trackpoint>
          <Trackpoint>
            <Time>2022-04-23T10:25:25.000Z</Time>
            <Position>
              <LatitudeDegrees>41.734638512134552001953125</LatitudeDegrees>
              <LongitudeDegrees>-0.15332512557506561279296875</LongitudeDegrees>
            </Position>
            <AltitudeMeters>267.20001220703125</AltitudeMeters>
            <DistanceMeters>8867.2359617173</DistanceMeters>
          </Trackpoint>
          <Trackpoint>
            <Time>2022-04-23T10:25:27.000Z</Time>
            <Position>
              <LatitudeDegrees>41.7344985343515872955322265625</LatitudeDegrees>
              <LongitudeDegrees>-0.1533993892371654510498046875</LongitudeDegrees>
            </Position>
            <AltitudeMeters>266</AltitudeMeters>
            <DistanceMeters>8883.992219261</DistanceMeters>
          </Trackpoint>
          <Trackpoint>
            <Time>2022-04-23T10:25:29.000Z</Time>
            <Position>
              <LatitudeDegrees>41.734400130808353424072265625</LatitudeDegrees>
              <LongitudeDegrees>-0.15352117829024791717529296875</LongitudeDegrees>
            </Position>
            <AltitudeMeters>264.600006103515625</AltitudeMeters>
            <DistanceMeters>8898.9014231883</DistanceMeters>
          </Trackpoint>
          <Trackpoint>
            <Time>2022-04-23T10:25:30.000Z</Time>
            <Position>
              <LatitudeDegrees>41.73437255434691905975341796875</LatitudeDegrees>
              <LongitudeDegrees>-0.15361346304416656494140625</LongitudeDegrees>
            </Position>
            <AltitudeMeters>263.79998779296875</AltitudeMeters>
            <DistanceMeters>8907.1583643381</DistanceMeters>
          </Trackpoint>
          <Trackpoint>
            <Time>2022-04-23T10:25:31.000Z</Time>
            <Position>
              <LatitudeDegrees>41.73435931093990802764892578125</LatitudeDegrees>
              <LongitudeDegrees>-0.15372150577604770660400390625</LongitudeDegrees>
            </Position>
            <AltitudeMeters>262.600006103515625</AltitudeMeters>
            <DistanceMeters>8916.2521776237</DistanceMeters>
          </Trackpoint>
          <Trackpoint>
            <Time>2022-04-23T10:25:33.000Z</Time>
            <Position>
              <LatitudeDegrees>41.73435361124575138092041015625</LatitudeDegrees>
              <LongitudeDegrees>-0.153987295925617218017578125</LongitudeDegrees>
            </Position>
            <AltitudeMeters>261</AltitudeMeters>
            <DistanceMeters>8938.3370484399</DistanceMeters>
          </Trackpoint>
          <Trackpoint>
            <Time>2022-04-23T10:25:35.000Z</Time>
            <Position>
              <LatitudeDegrees>41.7343503423035144805908203125</LatitudeDegrees>
              <LongitudeDegrees>-0.1542164571583271026611328125</LongitudeDegrees>
            </Position>
            <AltitudeMeters>259.600006103515625</AltitudeMeters>
            <DistanceMeters>8957.3741986469</DistanceMeters>
          </Trackpoint>
          <Trackpoint>
            <Time>2022-04-23T10:25:37.000Z</Time>
            <Position>
              <LatitudeDegrees>41.73431756906211376190185546875</LatitudeDegrees>
              <LongitudeDegrees>-0.15445542521774768829345703125</LongitudeDegrees>
            </Position>
            <AltitudeMeters>258.79998779296875</AltitudeMeters>
            <DistanceMeters>8977.5547944662</DistanceMeters>
          </Trackpoint>
          <Trackpoint>
            <Time>2022-04-23T10:25:38.000Z</Time>
            <Position>
              <LatitudeDegrees>41.734290830790996551513671875</LatitudeDegrees>
              <LongitudeDegrees>-0.15456975437700748443603515625</LongitudeDegrees>
            </Position>
            <AltitudeMeters>258.600006103515625</AltitudeMeters>
            <DistanceMeters>8987.5067730854</DistanceMeters>
          </Trackpoint>
          <Trackpoint>
            <Time>2022-04-23T10:25:42.000Z</Time>
            <Position>
              <LatitudeDegrees>41.73421262763440608978271484375</LatitudeDegrees>
              <LongitudeDegrees>-0.15500611625611782073974609375</LongitudeDegrees>
            </Position>
            <AltitudeMeters>257.79998779296875</AltitudeMeters>
            <DistanceMeters>9024.7806308337</DistanceMeters>
          </Trackpoint>
          <Trackpoint>
            <Time>2022-04-23T10:25:43.000Z</Time>
            <Position>
              <LatitudeDegrees>41.73420910723507404327392578125</LatitudeDegrees>
              <LongitudeDegrees>-0.15510703437030315399169921875</LongitudeDegrees>
            </Position>
            <AltitudeMeters>257.600006103515625</AltitudeMeters>
            <DistanceMeters>9033.1720869714</DistanceMeters>
          </Trackpoint>
          <Trackpoint>
            <Time>2022-04-23T10:25:47.000Z</Time>
            <Position>
              <LatitudeDegrees>41.734224446117877960205078125</LatitudeDegrees>
              <LongitudeDegrees>-0.1555042527616024017333984375</LongitudeDegrees>
            </Position>
            <AltitudeMeters>257.600006103515625</AltitudeMeters>
            <DistanceMeters>9066.2083261516</DistanceMeters>
          </Trackpoint>
          <Trackpoint>
            <Time>2022-04-23T10:25:49.000Z</Time>
            <Position>
              <LatitudeDegrees>41.73423123545944690704345703125</LatitudeDegrees>
              <LongitudeDegrees>-0.15572704374790191650390625</LongitudeDegrees>
            </Position>
            <AltitudeMeters>257.79998779296875</AltitudeMeters>
            <DistanceMeters>9084.7282989801</DistanceMeters>
          </Trackpoint>
          <Trackpoint>
            <Time>2022-04-23T10:25:53.000Z</Time>
            <Position>
              <LatitudeDegrees>41.73423777334392070770263671875</LatitudeDegrees>
              <LongitudeDegrees>-0.15618092380464076995849609375</LongitudeDegrees>
            </Position>
            <AltitudeMeters>258.20001220703125</AltitudeMeters>
            <DistanceMeters>9122.4337928161</DistanceMeters>
          </Trackpoint>
          <Trackpoint>
            <Time>2022-04-23T10:25:57.000Z</Time>
            <Position>
              <LatitudeDegrees>41.73423861153423786163330078125</LatitudeDegrees>
              <LongitudeDegrees>-0.15663639642298221588134765625</LongitudeDegrees>
            </Position>
            <AltitudeMeters>258.600006103515625</AltitudeMeters>
            <DistanceMeters>9160.2644517511</DistanceMeters>
          </Trackpoint>
          <Trackpoint>
            <Time>2022-04-23T10:26:02.000Z</Time>
            <Position>
              <LatitudeDegrees>41.7342388629913330078125</LatitudeDegrees>
              <LongitudeDegrees>-0.1571839861571788787841796875</LongitudeDegrees>
            </Position>
            <AltitudeMeters>259.20001220703125</AltitudeMeters>
            <DistanceMeters>9205.7462266905</DistanceMeters>
          </Trackpoint>
          <Trackpoint>
            <Time>2022-04-23T10:26:06.000Z</Time>
            <Position>
              <LatitudeDegrees>41.7342527769505977630615234375</LatitudeDegrees>
              <LongitudeDegrees>-0.1576510258018970489501953125</LongitudeDegrees>
            </Position>
            <AltitudeMeters>258</AltitudeMeters>
            <DistanceMeters>9244.5685648344</DistanceMeters>
          </Trackpoint>
          <Trackpoint>
            <Time>2022-04-23T10:26:07.000Z</Time>
            <Position>
              <LatitudeDegrees>41.73425420187413692474365234375</LatitudeDegrees>
              <LongitudeDegrees>-0.1577693782746791839599609375</LongitudeDegrees>
            </Position>
            <AltitudeMeters>257.600006103515625</AltitudeMeters>
            <DistanceMeters>9254.4000417456</DistanceMeters>
          </Trackpoint>
          <Trackpoint>
            <Time>2022-04-23T10:26:10.000Z</Time>
            <Position>
              <LatitudeDegrees>41.73424984328448772430419921875</LatitudeDegrees>
              <LongitudeDegrees>-0.15813298523426055908203125</LongitudeDegrees>
            </Position>
            <AltitudeMeters>256.20001220703125</AltitudeMeters>
            <DistanceMeters>9284.6044888211</DistanceMeters>
          </Trackpoint>
          <Trackpoint>
            <Time>2022-04-23T10:26:12.000Z</Time>
            <Position>
              <LatitudeDegrees>41.7342564649879932403564453125</LatitudeDegrees>
              <LongitudeDegrees>-0.15838854946196079254150390625</LongitudeDegrees>
            </Position>
            <AltitudeMeters>255</AltitudeMeters>
            <DistanceMeters>9305.8441818271</DistanceMeters>
          </Trackpoint>
          <Trackpoint>
            <Time>2022-04-23T10:26:13.000Z</Time>
            <Position>
              <LatitudeDegrees>41.73426073975861072540283203125</LatitudeDegrees>
              <LongitudeDegrees>-0.15851779840886592864990234375</LongitudeDegrees>
            </Position>
            <AltitudeMeters>254.600006103515625</AltitudeMeters>
            <DistanceMeters>9316.5897663849</DistanceMeters>
          </Trackpoint>
          <Trackpoint>
            <Time>2022-04-23T10:26:14.000Z</Time>
            <Position>
              <LatitudeDegrees>41.734265349805355072021484375</LatitudeDegrees>
              <LongitudeDegrees>-0.15864771790802478790283203125</LongitudeDegrees>
            </Position>
            <AltitudeMeters>253.399993896484375</AltitudeMeters>
            <DistanceMeters>9327.3927617085</DistanceMeters>
          </Trackpoint>
          <Trackpoint>
            <Time>2022-04-23T10:26:15.000Z</Time>
            <Position>
              <LatitudeDegrees>41.73427012749016284942626953125</LatitudeDegrees>
              <LongitudeDegrees>-0.15880110673606395721435546875</LongitudeDegrees>
            </Position>
            <AltitudeMeters>252.399993896484375</AltitudeMeters>
            <DistanceMeters>9340.1440579739</DistanceMeters>
          </Trackpoint>
          <Trackpoint>
            <Time>2022-04-23T10:26:17.000Z</Time>
            <Position>
              <LatitudeDegrees>41.73428806476294994354248046875</LatitudeDegrees>
              <LongitudeDegrees>-0.15902188606560230255126953125</LongitudeDegrees>
            </Position>
            <AltitudeMeters>251.1999969482421875</AltitudeMeters>
            <DistanceMeters>9358.5900136393</DistanceMeters>
          </Trackpoint>
          <Trackpoint>
            <Time>2022-04-23T10:26:19.000Z</Time>
            <Position>
              <LatitudeDegrees>41.73432402312755584716796875</LatitudeDegrees>
              <LongitudeDegrees>-0.1592626981437206268310546875</LongitudeDegrees>
            </Position>
            <AltitudeMeters>250.399993896484375</AltitudeMeters>
            <DistanceMeters>9378.9880241381</DistanceMeters>
          </Trackpoint>
          <Trackpoint>
            <Time>2022-04-23T10:26:20.000Z</Time>
            <Position>
              <LatitudeDegrees>41.7343439720571041107177734375</LatitudeDegrees>
              <LongitudeDegrees>-0.15938113443553447723388671875</LongitudeDegrees>
            </Position>
            <AltitudeMeters>250.399993896484375</AltitudeMeters>
            <DistanceMeters>9389.0725033468</DistanceMeters>
          </Trackpoint>
          <Trackpoint>
            <Time>2022-04-23T10:26:22.000Z</Time>
            <Position>
              <LatitudeDegrees>41.7343899048864841461181640625</LatitudeDegrees>
              <LongitudeDegrees>-0.1596254669129848480224609375</LongitudeDegrees>
            </Position>
            <AltitudeMeters>249</AltitudeMeters>
            <DistanceMeters>9409.9999663448</DistanceMeters>
          </Trackpoint>
          <Trackpoint>
            <Time>2022-04-23T10:26:26.000Z</Time>
            <Position>
              <LatitudeDegrees>41.7344864644110202789306640625</LatitudeDegrees>
              <LongitudeDegrees>-0.16012595035135746002197265625</LongitudeDegrees>
            </Position>
            <AltitudeMeters>247.8000030517578125</AltitudeMeters>
            <DistanceMeters>9452.9358500092</DistanceMeters>
          </Trackpoint>
          <Trackpoint>
            <Time>2022-04-23T10:26:27.000Z</Time>
            <Position>
              <LatitudeDegrees>41.73450549133121967315673828125</LatitudeDegrees>
              <LongitudeDegrees>-0.160250253975391387939453125</LongitudeDegrees>
            </Position>
            <AltitudeMeters>247.399993896484375</AltitudeMeters>
            <DistanceMeters>9463.4748224572</DistanceMeters>
          </Trackpoint>
          <Trackpoint>
            <Time>2022-04-23T10:26:28.000Z</Time>
            <Position>
              <LatitudeDegrees>41.7345245182514190673828125</LatitudeDegrees>
              <LongitudeDegrees>-0.160378329455852508544921875</LongitudeDegrees>
            </Position>
            <AltitudeMeters>246.399993896484375</AltitudeMeters>
            <DistanceMeters>9474.3211967783</DistanceMeters>
          </Trackpoint>
          <Trackpoint>
            <Time>2022-04-23T10:26:30.000Z</Time>
            <Position>
              <LatitudeDegrees>41.73456148244440555572509765625</LatitudeDegrees>
              <LongitudeDegrees>-0.16063540242612361907958984375</LongitudeDegrees>
            </Position>
            <AltitudeMeters>245.1999969482421875</AltitudeMeters>
            <DistanceMeters>9496.0659171204</DistanceMeters>
          </Trackpoint>
          <Trackpoint>
            <Time>2022-04-23T10:26:34.000Z</Time>
            <Position>
              <LatitudeDegrees>41.7346554435789585113525390625</LatitudeDegrees>
              <LongitudeDegrees>-0.16112239100039005279541015625</LongitudeDegrees>
            </Position>
            <AltitudeMeters>244.1999969482421875</AltitudeMeters>
            <DistanceMeters>9537.8441827122</DistanceMeters>
          </Trackpoint>
          <Trackpoint>
            <Time>2022-04-23T10:26:35.000Z</Time>
            <Position>
              <LatitudeDegrees>41.7346789129078388214111328125</LatitudeDegrees>
              <LongitudeDegrees>-0.1612354628741741180419921875</LongitudeDegrees>
            </Position>
            <AltitudeMeters>243.600006103515625</AltitudeMeters>
            <DistanceMeters>9547.5921822208</DistanceMeters>
          </Trackpoint>
          <Trackpoint>
            <Time>2022-04-23T10:26:39.000Z</Time>
            <Position>
              <LatitudeDegrees>41.73475988209247589111328125</LatitudeDegrees>
              <LongitudeDegrees>-0.16165480948984622955322265625</LongitudeDegrees>
            </Position>
            <AltitudeMeters>242.600006103515625</AltitudeMeters>
            <DistanceMeters>9583.5691758035</DistanceMeters>
          </Trackpoint>
          <Trackpoint>
            <Time>2022-04-23T10:26:46.000Z</Time>
            <Position>
              <LatitudeDegrees>41.734886951744556427001953125</LatitudeDegrees>
              <LongitudeDegrees>-0.16231915913522243499755859375</LongitudeDegrees>
            </Position>
            <AltitudeMeters>242</AltitudeMeters>
            <DistanceMeters>9640.5319646088</DistanceMeters>
          </Trackpoint>
          <Trackpoint>
            <Time>2022-04-23T10:26:53.000Z</Time>
            <Position>
              <LatitudeDegrees>41.7349939048290252685546875</LatitudeDegrees>
              <LongitudeDegrees>-0.163022987544536590576171875</LongitudeDegrees>
            </Position>
            <AltitudeMeters>241.600006103515625</AltitudeMeters>
            <DistanceMeters>9700.1896723173</DistanceMeters>
          </Trackpoint>
          <Trackpoint>
            <Time>2022-04-23T10:26:54.000Z</Time>
            <Position>
              <LatitudeDegrees>41.73500421456992626190185546875</LatitudeDegrees>
              <LongitudeDegrees>-0.1631314493715763092041015625</LongitudeDegrees>
            </Position>
            <AltitudeMeters>241.1999969482421875</AltitudeMeters>
            <DistanceMeters>9709.2705675423</DistanceMeters>
          </Trackpoint>
          <Trackpoint>
            <Time>2022-04-23T10:26:58.000Z</Time>
            <Position>
              <LatitudeDegrees>41.735030114650726318359375</LatitudeDegrees>
              <LongitudeDegrees>-0.16353067941963672637939453125</LongitudeDegrees>
            </Position>
            <AltitudeMeters>240.1999969482421875</AltitudeMeters>
            <DistanceMeters>9742.5544796955</DistanceMeters>
          </Trackpoint>
          <Trackpoint>
            <Time>2022-04-23T10:26:59.000Z</Time>
            <Position>
              <LatitudeDegrees>41.735037155449390411376953125</LatitudeDegrees>
              <LongitudeDegrees>-0.16362640075385570526123046875</LongitudeDegrees>
            </Position>
            <AltitudeMeters>240.1999969482421875</AltitudeMeters>
            <DistanceMeters>9750.5435084416</DistanceMeters>
          </Trackpoint>
          <Trackpoint>
            <Time>2022-04-23T10:27:05.000Z</Time>
            <Position>
              <LatitudeDegrees>41.735090129077434539794921875</LatitudeDegrees>
              <LongitudeDegrees>-0.164183713495731353759765625</LongitudeDegrees>
            </Position>
            <AltitudeMeters>239</AltitudeMeters>
            <DistanceMeters>9797.2062698565</DistanceMeters>
          </Trackpoint>
          <Trackpoint>
            <Time>2022-04-23T10:27:06.000Z</Time>
            <Position>
              <LatitudeDegrees>41.73509742133319377899169921875</LatitudeDegrees>
              <LongitudeDegrees>-0.16429401934146881103515625</LongitudeDegrees>
            </Position>
            <AltitudeMeters>239</AltitudeMeters>
            <DistanceMeters>9806.4032653469</DistanceMeters>
          </Trackpoint>
          <Trackpoint>
            <Time>2022-04-23T10:27:14.000Z</Time>
            <Position>
              <LatitudeDegrees>41.73515844158828258514404296875</LatitudeDegrees>
              <LongitudeDegrees>-0.1650163717567920684814453125</LongitudeDegrees>
            </Position>
            <AltitudeMeters>239.1999969482421875</AltitudeMeters>
            <DistanceMeters>9866.7828538068</DistanceMeters>
          </Trackpoint>
          <Trackpoint>
            <Time>2022-04-23T10:27:16.000Z</Time>
            <Position>
              <LatitudeDegrees>41.7351794801652431488037109375</LatitudeDegrees>
              <LongitudeDegrees>-0.16520706005394458770751953125</LongitudeDegrees>
            </Position>
            <AltitudeMeters>239.399993896484375</AltitudeMeters>
            <DistanceMeters>9882.7925286875</DistanceMeters>
          </Trackpoint>
          <Trackpoint>
            <Time>2022-04-23T10:27:23.000Z</Time>
            <Position>
              <LatitudeDegrees>41.73525718040764331817626953125</LatitudeDegrees>
              <LongitudeDegrees>-0.16587275080382823944091796875</LongitudeDegrees>
            </Position>
            <AltitudeMeters>240</AltitudeMeters>
            <DistanceMeters>9938.7548733675</DistanceMeters>
          </Trackpoint>
          <Trackpoint>
            <Time>2022-04-23T10:27:25.000Z</Time>
            <Position>
              <LatitudeDegrees>41.735267825424671173095703125</LatitudeDegrees>
              <LongitudeDegrees>-0.16605396755039691925048828125</LongitudeDegrees>
            </Position>
            <AltitudeMeters>240.1999969482421875</AltitudeMeters>
            <DistanceMeters>9953.8524622346</DistanceMeters>
          </Trackpoint>
          <Trackpoint>
            <Time>2022-04-23T10:27:29.000Z</Time>
            <Position>
              <LatitudeDegrees>41.735280565917491912841796875</LatitudeDegrees>
              <LongitudeDegrees>-0.16640181653201580047607421875</LongitudeDegrees>
            </Position>
            <AltitudeMeters>240.399993896484375</AltitudeMeters>
            <DistanceMeters>9982.7780696265</DistanceMeters>
          </Trackpoint>
          <Trackpoint>
            <Time>2022-04-23T10:27:35.000Z</Time>
            <Position>
              <LatitudeDegrees>41.73527729697525501251220703125</LatitudeDegrees>
              <LongitudeDegrees>-0.16691126860678195953369140625</LongitudeDegrees>
            </Position>
            <AltitudeMeters>241.399993896484375</AltitudeMeters>
            <DistanceMeters>10025.093029132</DistanceMeters>
          </Trackpoint>
          <Trackpoint>
            <Time>2022-04-23T10:27:37.000Z</Time>
            <Position>
              <LatitudeDegrees>41.7352733574807643890380859375</LatitudeDegrees>
              <LongitudeDegrees>-0.16707706265151500701904296875</LongitudeDegrees>
            </Position>
            <AltitudeMeters>241.8000030517578125</AltitudeMeters>
            <DistanceMeters>10038.87059194</DistanceMeters>
          </Trackpoint>
          <Trackpoint>
            <Time>2022-04-23T10:27:38.000Z</Time>
            <Position>
              <LatitudeDegrees>41.7352676577866077423095703125</LatitudeDegrees>
              <LongitudeDegrees>-0.16716004349291324615478515625</LongitudeDegrees>
            </Position>
            <AltitudeMeters>241.8000030517578125</AltitudeMeters>
            <DistanceMeters>10045.791251262</DistanceMeters>
          </Trackpoint>
          <Trackpoint>
            <Time>2022-04-23T10:27:42.000Z</Time>
            <Position>
              <LatitudeDegrees>41.73522030003368854522705078125</LatitudeDegrees>
              <LongitudeDegrees>-0.16749179922044277191162109375</LongitudeDegrees>
            </Position>
            <AltitudeMeters>242</AltitudeMeters>
            <DistanceMeters>10073.845223219</DistanceMeters>
          </Trackpoint>
          <Trackpoint>
            <Time>2022-04-23T10:27:47.000Z</Time>
            <Position>
              <LatitudeDegrees>41.73515743575990200042724609375</LatitudeDegrees>
              <LongitudeDegrees>-0.1678937114775180816650390625</LongitudeDegrees>
            </Position>
            <AltitudeMeters>242.399993896484375</AltitudeMeters>
            <DistanceMeters>10107.95226894</DistanceMeters>
          </Trackpoint>
          <Trackpoint>
            <Time>2022-04-23T10:27:48.000Z</Time>
            <Position>
              <LatitudeDegrees>41.7351469583809375762939453125</LatitudeDegrees>
              <LongitudeDegrees>-0.167973339557647705078125</LongitudeDegrees>
            </Position>
            <AltitudeMeters>242.600006103515625</AltitudeMeters>
            <DistanceMeters>10114.6676395</DistanceMeters>
          </Trackpoint>
          <Trackpoint>
            <Time>2022-04-23T10:27:50.000Z</Time>
            <Position>
              <LatitudeDegrees>41.73511988483369350433349609375</LatitudeDegrees>
              <LongitudeDegrees>-0.1681344397366046905517578125</LongitudeDegrees>
            </Position>
            <AltitudeMeters>242.8000030517578125</AltitudeMeters>
            <DistanceMeters>10128.383125364</DistanceMeters>
          </Trackpoint>
          <Trackpoint>
            <Time>2022-04-23T10:27:54.000Z</Time>
            <Position>
              <LatitudeDegrees>41.73506431281566619873046875</LatitudeDegrees>
              <LongitudeDegrees>-0.16845555044710636138916015625</LongitudeDegrees>
            </Position>
            <AltitudeMeters>243.399993896484375</AltitudeMeters>
            <DistanceMeters>10155.761705415</DistanceMeters>
          </Trackpoint>
          <Trackpoint>
            <Time>2022-04-23T10:27:59.000Z</Time>
            <Position>
              <LatitudeDegrees>41.735015697777271270751953125</LatitudeDegrees>
              <LongitudeDegrees>-0.16885067336261272430419921875</LongitudeDegrees>
            </Position>
            <AltitudeMeters>244</AltitudeMeters>
            <DistanceMeters>10189.022684434</DistanceMeters>
          </Trackpoint>
          <Trackpoint>
            <Time>2022-04-23T10:28:04.000Z</Time>
            <Position>
              <LatitudeDegrees>41.7349622212350368499755859375</LatitudeDegrees>
              <LongitudeDegrees>-0.169243700802326202392578125</LongitudeDegrees>
            </Position>
            <AltitudeMeters>244.600006103515625</AltitudeMeters>
            <DistanceMeters>10222.204701415</DistanceMeters>
          </Trackpoint>
          <Trackpoint>
            <Time>2022-04-23T10:28:07.000Z</Time>
            <Position>
              <LatitudeDegrees>41.734933890402317047119140625</LatitudeDegrees>
              <LongitudeDegrees>-0.16948803327977657318115234375</LongitudeDegrees>
            </Position>
            <AltitudeMeters>244.8000030517578125</AltitudeMeters>
            <DistanceMeters>10242.741687086</DistanceMeters>
          </Trackpoint>
          <Trackpoint>
            <Time>2022-04-23T10:28:16.000Z</Time>
            <Position>
              <LatitudeDegrees>41.7348334752023220062255859375</LatitudeDegrees>
              <LongitudeDegrees>-0.170208625495433807373046875</LongitudeDegrees>
            </Position>
            <AltitudeMeters>244.8000030517578125</AltitudeMeters>
            <DistanceMeters>10303.626749798</DistanceMeters>
          </Trackpoint>
          <Trackpoint>
            <Time>2022-04-23T10:28:17.000Z</Time>
            <Position>
              <LatitudeDegrees>41.73482065089046955108642578125</LatitudeDegrees>
              <LongitudeDegrees>-0.1702895946800708770751953125</LongitudeDegrees>
            </Position>
            <AltitudeMeters>244.8000030517578125</AltitudeMeters>
            <DistanceMeters>10310.500932661</DistanceMeters>
          </Trackpoint>
          <Trackpoint>
            <Time>2022-04-23T10:28:24.000Z</Time>
            <Position>
              <LatitudeDegrees>41.7347349040210247039794921875</LatitudeDegrees>
              <LongitudeDegrees>-0.1708910800516605377197265625</LongitudeDegrees>
            </Position>
            <AltitudeMeters>245.399993896484375</AltitudeMeters>
            <DistanceMeters>10361.36206742</DistanceMeters>
          </Trackpoint>
          <Trackpoint>
            <Time>2022-04-23T10:28:26.000Z</Time>
            <Position>
              <LatitudeDegrees>41.73469760455191135406494140625</LatitudeDegrees>
              <LongitudeDegrees>-0.1710550300776958465576171875</LongitudeDegrees>
            </Position>
            <AltitudeMeters>245.600006103515625</AltitudeMeters>
            <DistanceMeters>10375.598008051</DistanceMeters>
          </Trackpoint>
          <Trackpoint>
            <Time>2022-04-23T10:28:28.000Z</Time>
            <Position>
              <LatitudeDegrees>41.7346318066120147705078125</LatitudeDegrees>
              <LongitudeDegrees>-0.17120246775448322296142578125</LongitudeDegrees>
            </Position>
            <AltitudeMeters>245.8000030517578125</AltitudeMeters>
            <DistanceMeters>10389.86657853</DistanceMeters>
          </Trackpoint>
          <Trackpoint>
            <Time>2022-04-23T10:28:33.000Z</Time>
            <Position>
              <LatitudeDegrees>41.73442318104207515716552734375</LatitudeDegrees>
              <LongitudeDegrees>-0.17152265645563602447509765625</LongitudeDegrees>
            </Position>
            <AltitudeMeters>246.399993896484375</AltitudeMeters>
            <DistanceMeters>10425.171528773</DistanceMeters>
          </Trackpoint>
          <Trackpoint>
            <Time>2022-04-23T10:28:34.000Z</Time>
            <Position>
              <LatitudeDegrees>41.7343781702220439910888671875</LatitudeDegrees>
              <LongitudeDegrees>-0.17158183269202709197998046875</LongitudeDegrees>
            </Position>
            <AltitudeMeters>246.600006103515625</AltitudeMeters>
            <DistanceMeters>10432.189365828</DistanceMeters>
          </Trackpoint>
          <Trackpoint>
            <Time>2022-04-23T10:28:40.000Z</Time>
            <Position>
              <LatitudeDegrees>41.734103746712207794189453125</LatitudeDegrees>
              <LongitudeDegrees>-0.17194007523357868194580078125</LongitudeDegrees>
            </Position>
            <AltitudeMeters>247.1999969482421875</AltitudeMeters>
            <DistanceMeters>10474.830638471</DistanceMeters>
          </Trackpoint>
          <Trackpoint>
            <Time>2022-04-23T10:28:46.000Z</Time>
            <Position>
              <LatitudeDegrees>41.73384927213191986083984375</LatitudeDegrees>
              <LongitudeDegrees>-0.1722767762839794158935546875</LongitudeDegrees>
            </Position>
            <AltitudeMeters>247.8000030517578125</AltitudeMeters>
            <DistanceMeters>10514.634129298</DistanceMeters>
          </Trackpoint>
          <Trackpoint>
            <Time>2022-04-23T10:28:48.000Z</Time>
            <Position>
              <LatitudeDegrees>41.7337595857679843902587890625</LatitudeDegrees>
              <LongitudeDegrees>-0.172386579215526580810546875</LongitudeDegrees>
            </Position>
            <AltitudeMeters>248</AltitudeMeters>
            <DistanceMeters>10528.155332191</DistanceMeters>
          </Trackpoint>
          <Trackpoint>
            <Time>2022-04-23T10:28:55.000Z</Time>
            <Position>
              <LatitudeDegrees>41.73349262215197086334228515625</LatitudeDegrees>
              <LongitudeDegrees>-0.172767452895641326904296875</LongitudeDegrees>
            </Position>
            <AltitudeMeters>249</AltitudeMeters>
            <DistanceMeters>10571.556436855</DistanceMeters>
          </Trackpoint>
          <Trackpoint>
            <Time>2022-04-23T10:28:56.000Z</Time>
            <Position>
              <LatitudeDegrees>41.73345339484512805938720703125</LatitudeDegrees>
              <LongitudeDegrees>-0.17282336018979549407958984375</LongitudeDegrees>
            </Position>
            <AltitudeMeters>249.1999969482421875</AltitudeMeters>
            <DistanceMeters>10577.929605914</DistanceMeters>
          </Trackpoint>
          <Trackpoint>
            <Time>2022-04-23T10:29:01.000Z</Time>
            <Position>
              <LatitudeDegrees>41.7332719266414642333984375</LatitudeDegrees>
              <LongitudeDegrees>-0.17307414673268795013427734375</LongitudeDegrees>
            </Position>
            <AltitudeMeters>250.1999969482421875</AltitudeMeters>
            <DistanceMeters>10606.944204595</DistanceMeters>
          </Trackpoint>
          <Trackpoint>
            <Time>2022-04-23T10:29:03.000Z</Time>
            <Position>
              <LatitudeDegrees>41.73320964910089969635009765625</LatitudeDegrees>
              <LongitudeDegrees>-0.17317137680947780609130859375</LongitudeDegrees>
            </Position>
            <AltitudeMeters>250.600006103515625</AltitudeMeters>
            <DistanceMeters>10617.58677237</DistanceMeters>
          </Trackpoint>
          <Trackpoint>
            <Time>2022-04-23T10:29:04.000Z</Time>
            <Position>
              <LatitudeDegrees>41.7331741936504840850830078125</LatitudeDegrees>
              <LongitudeDegrees>-0.1732168905436992645263671875</LongitudeDegrees>
            </Position>
            <AltitudeMeters>250.8000030517578125</AltitudeMeters>
            <DistanceMeters>10623.052254313</DistanceMeters>
          </Trackpoint>
          <Trackpoint>
            <Time>2022-04-23T10:29:05.000Z</Time>
            <Position>
              <LatitudeDegrees>41.73313848674297332763671875</LatitudeDegrees>
              <LongitudeDegrees>-0.17325796186923980712890625</LongitudeDegrees>
            </Position>
            <AltitudeMeters>250.8000030517578125</AltitudeMeters>
            <DistanceMeters>10628.289941994</DistanceMeters>
          </Trackpoint>
          <Trackpoint>
            <Time>2022-04-23T10:29:07.000Z</Time>
            <Position>
              <LatitudeDegrees>41.73307947814464569091796875</LatitudeDegrees>
              <LongitudeDegrees>-0.17335326410830020904541015625</LongitudeDegrees>
            </Position>
            <AltitudeMeters>251.1999969482421875</AltitudeMeters>
            <DistanceMeters>10638.575678507</DistanceMeters>
          </Trackpoint>
          <Trackpoint>
            <Time>2022-04-23T10:29:08.000Z</Time>
            <Position>
              <LatitudeDegrees>41.7330457828938961029052734375</LatitudeDegrees>
              <LongitudeDegrees>-0.17340003512799739837646484375</LongitudeDegrees>
            </Position>
            <AltitudeMeters>251.399993896484375</AltitudeMeters>
            <DistanceMeters>10643.975504137</DistanceMeters>
          </Trackpoint>
          <Trackpoint>
            <Time>2022-04-23T10:29:10.000Z</Time>
            <Position>
              <LatitudeDegrees>41.732981242239475250244140625</LatitudeDegrees>
              <LongitudeDegrees>-0.17350112088024616241455078125</LongitudeDegrees>
            </Position>
            <AltitudeMeters>252</AltitudeMeters>
            <DistanceMeters>10655.025603398</DistanceMeters>
          </Trackpoint>
          <Trackpoint>
            <Time>2022-04-23T10:29:11.000Z</Time>
            <Position>
              <LatitudeDegrees>41.7329554259777069091796875</LatitudeDegrees>
              <LongitudeDegrees>-0.1735615544021129608154296875</LongitudeDegrees>
            </Position>
            <AltitudeMeters>252.600006103515625</AltitudeMeters>
            <DistanceMeters>10660.808976388</DistanceMeters>
          </Trackpoint>
          <Trackpoint>
            <Time>2022-04-23T10:29:12.000Z</Time>
            <Position>
              <LatitudeDegrees>41.7329304479062557220458984375</LatitudeDegrees>
              <LongitudeDegrees>-0.17362601123750209808349609375</LongitudeDegrees>
            </Position>
            <AltitudeMeters>252.8000030517578125</AltitudeMeters>
            <DistanceMeters>10666.841488972</DistanceMeters>
          </Trackpoint>
          <Trackpoint>
            <Time>2022-04-23T10:29:13.000Z</Time>
            <Position>
              <LatitudeDegrees>41.73290873877704143524169921875</LatitudeDegrees>
              <LongitudeDegrees>-0.17369474284350872039794921875</LongitudeDegrees>
            </Position>
            <AltitudeMeters>253</AltitudeMeters>
            <DistanceMeters>10673.040844208</DistanceMeters>
          </Trackpoint>
          <Trackpoint>
            <Time>2022-04-23T10:29:20.000Z</Time>
            <Position>
              <LatitudeDegrees>41.73279306851327419281005859375</LatitudeDegrees>
              <LongitudeDegrees>-0.1742398180067539215087890625</LongitudeDegrees>
            </Position>
            <AltitudeMeters>253.600006103515625</AltitudeMeters>
            <DistanceMeters>10720.109581657</DistanceMeters>
          </Trackpoint>
          <Trackpoint>
            <Time>2022-04-23T10:29:23.000Z</Time>
            <Position>
              <LatitudeDegrees>41.73275434412062168121337890625</LatitudeDegrees>
              <LongitudeDegrees>-0.17447325401008129119873046875</LongitudeDegrees>
            </Position>
            <AltitudeMeters>253.600006103515625</AltitudeMeters>
            <DistanceMeters>10739.972210884</DistanceMeters>
          </Trackpoint>
          <Trackpoint>
            <Time>2022-04-23T10:29:27.000Z</Time>
            <Position>
              <LatitudeDegrees>41.732691228389739990234375</LatitudeDegrees>
              <LongitudeDegrees>-0.1747930236160755157470703125</LongitudeDegrees>
            </Position>
            <AltitudeMeters>253.600006103515625</AltitudeMeters>
            <DistanceMeters>10767.445615654</DistanceMeters>
          </Trackpoint>
          <Trackpoint>
            <Time>2022-04-23T10:29:36.000Z</Time>
            <Position>
              <LatitudeDegrees>41.73252350650727748870849609375</LatitudeDegrees>
              <LongitudeDegrees>-0.17543415538966655731201171875</LongitudeDegrees>
            </Position>
            <AltitudeMeters>253.8000030517578125</AltitudeMeters>
            <DistanceMeters>10823.875403948</DistanceMeters>
          </Trackpoint>
          <Trackpoint>
            <Time>2022-04-23T10:29:41.000Z</Time>
            <Position>
              <LatitudeDegrees>41.7323921620845794677734375</LatitudeDegrees>
              <LongitudeDegrees>-0.17581586726009845733642578125</LongitudeDegrees>
            </Position>
            <AltitudeMeters>254.1999969482421875</AltitudeMeters>
            <DistanceMeters>10858.788637812</DistanceMeters>
          </Trackpoint>
          <Trackpoint>
            <Time>2022-04-23T10:29:43.000Z</Time>
            <Position>
              <LatitudeDegrees>41.732360981404781341552734375</LatitudeDegrees>
              <LongitudeDegrees>-0.17597244121134281158447265625</LongitudeDegrees>
            </Position>
            <AltitudeMeters>254.399993896484375</AltitudeMeters>
            <DistanceMeters>10872.248929554</DistanceMeters>
          </Trackpoint>
          <Trackpoint>
            <Time>2022-04-23T10:29:46.000Z</Time>
            <Position>
              <LatitudeDegrees>41.73234228976070880889892578125</LatitudeDegrees>
              <LongitudeDegrees>-0.17621233128011226654052734375</LongitudeDegrees>
            </Position>
            <AltitudeMeters>254.399993896484375</AltitudeMeters>
            <DistanceMeters>10892.282895903</DistanceMeters>
          </Trackpoint>
          <Trackpoint>
            <Time>2022-04-23T10:29:54.000Z</Time>
            <Position>
              <LatitudeDegrees>41.73229987733066082000732421875</LatitudeDegrees>
              <LongitudeDegrees>-0.17680107615888118743896484375</LongitudeDegrees>
            </Position>
            <AltitudeMeters>254.1999969482421875</AltitudeMeters>
            <DistanceMeters>10941.411799135</DistanceMeters>
          </Trackpoint>
          <Trackpoint>
            <Time>2022-04-23T10:29:58.000Z</Time>
            <Position>
              <LatitudeDegrees>41.732287891209125518798828125</LatitudeDegrees>
              <LongitudeDegrees>-0.177119672298431396484375</LongitudeDegrees>
            </Position>
            <AltitudeMeters>254.8000030517578125</AltitudeMeters>
            <DistanceMeters>10967.908409925</DistanceMeters>
          </Trackpoint>
          <Trackpoint>
            <Time>2022-04-23T10:30:04.000Z</Time>
            <Position>
              <LatitudeDegrees>41.7322526872158050537109375</LatitudeDegrees>
              <LongitudeDegrees>-0.1776076667010784149169921875</LongitudeDegrees>
            </Position>
            <AltitudeMeters>255.1999969482421875</AltitudeMeters>
            <DistanceMeters>11008.630433919</DistanceMeters>
          </Trackpoint>
          <Trackpoint>
            <Time>2022-04-23T10:30:10.000Z</Time>
            <Position>
              <LatitudeDegrees>41.73221153207123279571533203125</LatitudeDegrees>
              <LongitudeDegrees>-0.1780726946890354156494140625</LongitudeDegrees>
            </Position>
            <AltitudeMeters>255.600006103515625</AltitudeMeters>
            <DistanceMeters>11047.526552459</DistanceMeters>
          </Trackpoint>
          <Trackpoint>
            <Time>2022-04-23T10:30:12.000Z</Time>
            <Position>
              <LatitudeDegrees>41.73217012546956539154052734375</LatitudeDegrees>
              <LongitudeDegrees>-0.178215019404888153076171875</LongitudeDegrees>
            </Position>
            <AltitudeMeters>255.8000030517578125</AltitudeMeters>
            <DistanceMeters>11060.214665118</DistanceMeters>
          </Trackpoint>
          <Trackpoint>
            <Time>2022-04-23T10:30:13.000Z</Time>
            <Position>
              <LatitudeDegrees>41.73214229755103588104248046875</LatitudeDegrees>
              <LongitudeDegrees>-0.17827796749770641326904296875</LongitudeDegrees>
            </Position>
            <AltitudeMeters>256</AltitudeMeters>
            <DistanceMeters>11066.291918828</DistanceMeters>
          </Trackpoint>
          <Trackpoint>
            <Time>2022-04-23T10:30:15.000Z</Time>
            <Position>
              <LatitudeDegrees>41.73208043910562992095947265625</LatitudeDegrees>
              <LongitudeDegrees>-0.1784136705100536346435546875</LongitudeDegrees>
            </Position>
            <AltitudeMeters>256.600006103515625</AltitudeMeters>
            <DistanceMeters>11079.499948462</DistanceMeters>
          </Trackpoint>
          <Trackpoint>
            <Time>2022-04-23T10:30:16.000Z</Time>
            <Position>
              <LatitudeDegrees>41.73205462284386157989501953125</LatitudeDegrees>
              <LongitudeDegrees>-0.17847712151706218719482421875</LongitudeDegrees>
            </Position>
            <AltitudeMeters>257</AltitudeMeters>
            <DistanceMeters>11085.502448359</DistanceMeters>
          </Trackpoint>
          <Trackpoint>
            <Time>2022-04-23T10:30:22.000Z</Time>
            <Position>
              <LatitudeDegrees>41.731886565685272216796875</LatitudeDegrees>
              <LongitudeDegrees>-0.17884223721921443939208984375</LongitudeDegrees>
            </Position>
            <AltitudeMeters>258</AltitudeMeters>
            <DistanceMeters>11121.133791692</DistanceMeters>
          </Trackpoint>
          <Trackpoint>
            <Time>2022-04-23T10:30:24.000Z</Time>
            <Position>
              <LatitudeDegrees>41.731828562915325164794921875</LatitudeDegrees>
              <LongitudeDegrees>-0.1789719052612781524658203125</LongitudeDegrees>
            </Position>
            <AltitudeMeters>258.20001220703125</AltitudeMeters>
            <DistanceMeters>11133.690629064</DistanceMeters>
          </Trackpoint>
          <Trackpoint>
            <Time>2022-04-23T10:30:33.000Z</Time>
            <Position>
              <LatitudeDegrees>41.7315504513680934906005859375</LatitudeDegrees>
              <LongitudeDegrees>-0.17958722077310085296630859375</LongitudeDegrees>
            </Position>
            <AltitudeMeters>258.20001220703125</AltitudeMeters>
            <DistanceMeters>11193.442562625</DistanceMeters>
          </Trackpoint>
          <Trackpoint>
            <Time>2022-04-23T10:30:42.000Z</Time>
            <Position>
              <LatitudeDegrees>41.7312924563884735107421875</LatitudeDegrees>
              <LongitudeDegrees>-0.18015836365520954132080078125</LongitudeDegrees>
            </Position>
            <AltitudeMeters>257.79998779296875</AltitudeMeters>
            <DistanceMeters>11248.896492626</DistanceMeters>
          </Trackpoint>
          <Trackpoint>
            <Time>2022-04-23T10:30:49.000Z</Time>
            <Position>
              <LatitudeDegrees>41.7310746945440769195556640625</LatitudeDegrees>
              <LongitudeDegrees>-0.180646441876888275146484375</LongitudeDegrees>
            </Position>
            <AltitudeMeters>257.79998779296875</AltitudeMeters>
            <DistanceMeters>11296.130027393</DistanceMeters>
          </Trackpoint>
          <Trackpoint>
            <Time>2022-04-23T10:30:58.000Z</Time>
            <Position>
              <LatitudeDegrees>41.73081108368933200836181640625</LatitudeDegrees>
              <LongitudeDegrees>-0.18123728223145008087158203125</LongitudeDegrees>
            </Position>
            <AltitudeMeters>258.399993896484375</AltitudeMeters>
            <DistanceMeters>11353.308478726</DistanceMeters>
          </Trackpoint>
          <Trackpoint>
            <Time>2022-04-23T10:31:03.000Z</Time>
            <Position>
              <LatitudeDegrees>41.7306482233107089996337890625</LatitudeDegrees>
              <LongitudeDegrees>-0.18160373903810977935791015625</LongitudeDegrees>
            </Position>
            <AltitudeMeters>258.600006103515625</AltitudeMeters>
            <DistanceMeters>11388.735987601</DistanceMeters>
          </Trackpoint>
          <Trackpoint>
            <Time>2022-04-23T10:31:09.000Z</Time>
            <Position>
              <LatitudeDegrees>41.7304795794188976287841796875</LatitudeDegrees>
              <LongitudeDegrees>-0.18199299462139606475830078125</LongitudeDegrees>
            </Position>
            <AltitudeMeters>258.600006103515625</AltitudeMeters>
            <DistanceMeters>11426.122207154</DistanceMeters>
          </Trackpoint>
          <Trackpoint>
            <Time>2022-04-23T10:31:12.000Z</Time>
            <Position>
              <LatitudeDegrees>41.73039651475846767425537109375</LatitudeDegrees>
              <LongitudeDegrees>-0.18217957578599452972412109375</LongitudeDegrees>
            </Position>
            <AltitudeMeters>258.600006103515625</AltitudeMeters>
            <DistanceMeters>11444.168027911</DistanceMeters>
          </Trackpoint>
          <Trackpoint>
            <Time>2022-04-23T10:31:15.000Z</Time>
            <Position>
              <LatitudeDegrees>41.730292998254299163818359375</LatitudeDegrees>
              <LongitudeDegrees>-0.1824058033525943756103515625</LongitudeDegrees>
            </Position>
            <AltitudeMeters>258.600006103515625</AltitudeMeters>
            <DistanceMeters>11466.209924448</DistanceMeters>
          </Trackpoint>
          <Trackpoint>
            <Time>2022-04-23T10:31:18.000Z</Time>
            <Position>
              <LatitudeDegrees>41.7302019707858562469482421875</LatitudeDegrees>
              <LongitudeDegrees>-0.18260068260133266448974609375</LongitudeDegrees>
            </Position>
            <AltitudeMeters>258.399993896484375</AltitudeMeters>
            <DistanceMeters>11485.306275071</DistanceMeters>
          </Trackpoint>
          <Trackpoint>
            <Time>2022-04-23T10:31:20.000Z</Time>
            <Position>
              <LatitudeDegrees>41.73012427054345607757568359375</LatitudeDegrees>
              <LongitudeDegrees>-0.18274887464940547943115234375</LongitudeDegrees>
            </Position>
            <AltitudeMeters>258.399993896484375</AltitudeMeters>
            <DistanceMeters>11500.349937385</DistanceMeters>
          </Trackpoint>
          <Trackpoint>
            <Time>2022-04-23T10:31:24.000Z</Time>
            <Position>
              <LatitudeDegrees>41.729999296367168426513671875</LatitudeDegrees>
              <LongitudeDegrees>-0.1830512098968029022216796875</LongitudeDegrees>
            </Position>
            <AltitudeMeters>258.600006103515625</AltitudeMeters>
            <DistanceMeters>11529.057757866</DistanceMeters>
          </Trackpoint>
          <Trackpoint>
            <Time>2022-04-23T10:31:26.000Z</Time>
            <Position>
              <LatitudeDegrees>41.7299491725862026214599609375</LatitudeDegrees>
              <LongitudeDegrees>-0.18317584879696369171142578125</LongitudeDegrees>
            </Position>
            <AltitudeMeters>258.600006103515625</AltitudeMeters>
            <DistanceMeters>11540.818057641</DistanceMeters>
          </Trackpoint>
          <Trackpoint>
            <Time>2022-04-23T10:31:29.000Z</Time>
            <Position>
              <LatitudeDegrees>41.7298601567745208740234375</LatitudeDegrees>
              <LongitudeDegrees>-0.183370225131511688232421875</LongitudeDegrees>
            </Position>
            <AltitudeMeters>259.399993896484375</AltitudeMeters>
            <DistanceMeters>11559.76105576</DistanceMeters>
          </Trackpoint>
          <Trackpoint>
            <Time>2022-04-23T10:31:32.000Z</Time>
            <Position>
              <LatitudeDegrees>41.72978664748370647430419921875</LatitudeDegrees>
              <LongitudeDegrees>-0.18353492952883243560791015625</LongitudeDegrees>
            </Position>
            <AltitudeMeters>259.79998779296875</AltitudeMeters>
            <DistanceMeters>11575.702335862</DistanceMeters>
          </Trackpoint>
          <Trackpoint>
            <Time>2022-04-23T10:31:33.000Z</Time>
            <Position>
              <LatitudeDegrees>41.7297610826790332794189453125</LatitudeDegrees>
              <LongitudeDegrees>-0.18359444104135036468505859375</LongitudeDegrees>
            </Position>
            <AltitudeMeters>260</AltitudeMeters>
            <DistanceMeters>11581.405522283</DistanceMeters>
          </Trackpoint>
          <Trackpoint>
            <Time>2022-04-23T10:31:35.000Z</Time>
            <Position>
              <LatitudeDegrees>41.7297024093568325042724609375</LatitudeDegrees>
              <LongitudeDegrees>-0.18371312879025936126708984375</LongitudeDegrees>
            </Position>
            <AltitudeMeters>260.399993896484375</AltitudeMeters>
            <DistanceMeters>11593.230526881</DistanceMeters>
          </Trackpoint>
          <Trackpoint>
            <Time>2022-04-23T10:31:36.000Z</Time>
            <Position>
              <LatitudeDegrees>41.729669384658336639404296875</LatitudeDegrees>
              <LongitudeDegrees>-0.18378839828073978424072265625</LongitudeDegrees>
            </Position>
            <AltitudeMeters>260.600006103515625</AltitudeMeters>
            <DistanceMeters>11600.482503522</DistanceMeters>
          </Trackpoint>
          <Trackpoint>
            <Time>2022-04-23T10:31:41.000Z</Time>
            <Position>
              <LatitudeDegrees>41.72950409352779388427734375</LatitudeDegrees>
              <LongitudeDegrees>-0.1841495744884014129638671875</LongitudeDegrees>
            </Position>
            <AltitudeMeters>261.79998779296875</AltitudeMeters>
            <DistanceMeters>11635.67473341</DistanceMeters>
          </Trackpoint>
          <Trackpoint>
            <Time>2022-04-23T10:31:42.000Z</Time>
            <Position>
              <LatitudeDegrees>41.72947148792445659637451171875</LatitudeDegrees>
              <LongitudeDegrees>-0.18422023393213748931884765625</LongitudeDegrees>
            </Position>
            <AltitudeMeters>261.79998779296875</AltitudeMeters>
            <DistanceMeters>11642.574484348</DistanceMeters>
          </Trackpoint>
          <Trackpoint>
            <Time>2022-04-23T10:31:47.000Z</Time>
            <Position>
              <LatitudeDegrees>41.7293064482510089874267578125</LatitudeDegrees>
              <LongitudeDegrees>-0.18456690944731235504150390625</LongitudeDegrees>
            </Position>
            <AltitudeMeters>262.20001220703125</AltitudeMeters>
            <DistanceMeters>11676.730871545</DistanceMeters>
          </Trackpoint>
          <Trackpoint>
            <Time>2022-04-23T10:31:48.000Z</Time>
            <Position>
              <LatitudeDegrees>41.72926026396453380584716796875</LatitudeDegrees>
              <LongitudeDegrees>-0.18460513092577457427978515625</LongitudeDegrees>
            </Position>
            <AltitudeMeters>262.20001220703125</AltitudeMeters>
            <DistanceMeters>11682.772358861</DistanceMeters>
          </Trackpoint>
          <Trackpoint>
            <Time>2022-04-23T10:31:49.000Z</Time>
            <Position>
              <LatitudeDegrees>41.72921818681061267852783203125</LatitudeDegrees>
              <LongitudeDegrees>-0.184622146189212799072265625</LongitudeDegrees>
            </Position>
            <AltitudeMeters>262.20001220703125</AltitudeMeters>
            <DistanceMeters>11687.664158384</DistanceMeters>
          </Trackpoint>
          <Trackpoint>
            <Time>2022-04-23T10:31:52.000Z</Time>
            <Position>
              <LatitudeDegrees>41.7290479503571987152099609375</LatitudeDegrees>
              <LongitudeDegrees>-0.1846568472683429718017578125</LongitudeDegrees>
            </Position>
            <AltitudeMeters>262</AltitudeMeters>
            <DistanceMeters>11706.829659147</DistanceMeters>
          </Trackpoint>
          <Trackpoint>
            <Time>2022-04-23T10:31:54.000Z</Time>
            <Position>
              <LatitudeDegrees>41.72896320931613445281982421875</LatitudeDegrees>
              <LongitudeDegrees>-0.18469867296516895294189453125</LongitudeDegrees>
            </Position>
            <AltitudeMeters>261.79998779296875</AltitudeMeters>
            <DistanceMeters>11716.88095236</DistanceMeters>
          </Trackpoint>
          <Trackpoint>
            <Time>2022-04-23T10:31:56.000Z</Time>
            <Position>
              <LatitudeDegrees>41.7288722656667232513427734375</LatitudeDegrees>
              <LongitudeDegrees>-0.184795819222927093505859375</LongitudeDegrees>
            </Position>
            <AltitudeMeters>261.79998779296875</AltitudeMeters>
            <DistanceMeters>11729.825879111</DistanceMeters>
          </Trackpoint>
          <Trackpoint>
            <Time>2022-04-23T10:31:58.000Z</Time>
            <Position>
              <LatitudeDegrees>41.7288102395832538604736328125</LatitudeDegrees>
              <LongitudeDegrees>-0.184900760650634765625</LongitudeDegrees>
            </Position>
            <AltitudeMeters>261.79998779296875</AltitudeMeters>
            <DistanceMeters>11740.945628962</DistanceMeters>
          </Trackpoint>
          <Trackpoint>
            <Time>2022-04-23T10:32:01.000Z</Time>
            <Position>
              <LatitudeDegrees>41.7287391610443592071533203125</LatitudeDegrees>
              <LongitudeDegrees>-0.185087509453296661376953125</LongitudeDegrees>
            </Position>
            <AltitudeMeters>261.79998779296875</AltitudeMeters>
            <DistanceMeters>11758.358869238</DistanceMeters>
          </Trackpoint>
          <Trackpoint>
            <Time>2022-04-23T10:32:05.000Z</Time>
            <Position>
              <LatitudeDegrees>41.7286187969148159027099609375</LatitudeDegrees>
              <LongitudeDegrees>-0.18532262183725833892822265625</LongitudeDegrees>
            </Position>
            <AltitudeMeters>262.20001220703125</AltitudeMeters>
            <DistanceMeters>11782.041692298</DistanceMeters>
          </Trackpoint>
          <Trackpoint>
            <Time>2022-04-23T10:32:07.000Z</Time>
            <Position>
              <LatitudeDegrees>41.72854511998593807220458984375</LatitudeDegrees>
              <LongitudeDegrees>-0.18539571203291416168212890625</LongitudeDegrees>
            </Position>
            <AltitudeMeters>262.79998779296875</AltitudeMeters>
            <DistanceMeters>11792.2450129</DistanceMeters>
          </Trackpoint>
          <Trackpoint>
            <Time>2022-04-23T10:32:08.000Z</Time>
            <Position>
              <LatitudeDegrees>41.72849767841398715972900390625</LatitudeDegrees>
              <LongitudeDegrees>-0.18542471341788768768310546875</LongitudeDegrees>
            </Position>
            <AltitudeMeters>263</AltitudeMeters>
            <DistanceMeters>11798.048648411</DistanceMeters>
          </Trackpoint>
          <Trackpoint>
            <Time>2022-04-23T10:32:09.000Z</Time>
            <Position>
              <LatitudeDegrees>41.7284400947391986846923828125</LatitudeDegrees>
              <LongitudeDegrees>-0.18544717691838741302490234375</LongitudeDegrees>
            </Position>
            <AltitudeMeters>263.20001220703125</AltitudeMeters>
            <DistanceMeters>11804.723556438</DistanceMeters>
          </Trackpoint>
          <Trackpoint>
            <Time>2022-04-23T10:32:11.000Z</Time>
            <Position>
              <LatitudeDegrees>41.72833322547376155853271484375</LatitudeDegrees>
              <LongitudeDegrees>-0.18545069731771945953369140625</LongitudeDegrees>
            </Position>
            <AltitudeMeters>263.600006103515625</AltitudeMeters>
            <DistanceMeters>11816.622024343</DistanceMeters>
          </Trackpoint>
          <Trackpoint>
            <Time>2022-04-23T10:32:15.000Z</Time>
            <Position>
              <LatitudeDegrees>41.728095598518848419189453125</LatitudeDegrees>
              <LongitudeDegrees>-0.1854479312896728515625</LongitudeDegrees>
            </Position>
            <AltitudeMeters>264</AltitudeMeters>
            <DistanceMeters>11843.071562756</DistanceMeters>
          </Trackpoint>
          <Trackpoint>
            <Time>2022-04-23T10:32:17.000Z</Time>
            <Position>
              <LatitudeDegrees>41.7279847897589206695556640625</LatitudeDegrees>
              <LongitudeDegrees>-0.18543116748332977294921875</LongitudeDegrees>
            </Position>
            <AltitudeMeters>264.20001220703125</AltitudeMeters>
            <DistanceMeters>11855.483375844</DistanceMeters>
          </Trackpoint>
          <Trackpoint>
            <Time>2022-04-23T10:32:19.000Z</Time>
            <Position>
              <LatitudeDegrees>41.7278672754764556884765625</LatitudeDegrees>
              <LongitudeDegrees>-0.1853768527507781982421875</LongitudeDegrees>
            </Position>
            <AltitudeMeters>264.20001220703125</AltitudeMeters>
            <DistanceMeters>11869.319474305</DistanceMeters>
          </Trackpoint>
          <Trackpoint>
            <Time>2022-04-23T10:32:22.000Z</Time>
            <Position>
              <LatitudeDegrees>41.72771614976227283477783203125</LatitudeDegrees>
              <LongitudeDegrees>-0.18525774590671062469482421875</LongitudeDegrees>
            </Position>
            <AltitudeMeters>263.600006103515625</AltitudeMeters>
            <DistanceMeters>11888.833991562</DistanceMeters>
          </Trackpoint>
          <Trackpoint>
            <Time>2022-04-23T10:32:28.000Z</Time>
            <Position>
              <LatitudeDegrees>41.72741574235260486602783203125</LatitudeDegrees>
              <LongitudeDegrees>-0.18505607731640338897705078125</LongitudeDegrees>
            </Position>
            <AltitudeMeters>263.20001220703125</AltitudeMeters>
            <DistanceMeters>11926.231802993</DistanceMeters>
          </Trackpoint>
          <Trackpoint>
            <Time>2022-04-23T10:32:29.000Z</Time>
            <Position>
              <LatitudeDegrees>41.72736578620970249176025390625</LatitudeDegrees>
              <LongitudeDegrees>-0.18501810729503631591796875</LongitudeDegrees>
            </Position>
            <AltitudeMeters>262.79998779296875</AltitudeMeters>
            <DistanceMeters>11932.62477773</DistanceMeters>
          </Trackpoint>
          <Trackpoint>
            <Time>2022-04-23T10:32:30.000Z</Time>
            <Position>
              <LatitudeDegrees>41.7273013293743133544921875</LatitudeDegrees>
              <LongitudeDegrees>-0.18497410230338573455810546875</LongitudeDegrees>
            </Position>
            <AltitudeMeters>262.600006103515625</AltitudeMeters>
            <DistanceMeters>11940.676855031</DistanceMeters>
          </Trackpoint>
          <Trackpoint>
            <Time>2022-04-23T10:32:32.000Z</Time>
            <Position>
              <LatitudeDegrees>41.7271962203085422515869140625</LatitudeDegrees>
              <LongitudeDegrees>-0.18491509370505809783935546875</LongitudeDegrees>
            </Position>
            <AltitudeMeters>262.20001220703125</AltitudeMeters>
            <DistanceMeters>11953.361408712</DistanceMeters>
          </Trackpoint>
          <Trackpoint>
            <Time>2022-04-23T10:32:33.000Z</Time>
            <Position>
              <LatitudeDegrees>41.7271231301128864288330078125</LatitudeDegrees>
              <LongitudeDegrees>-0.1848808117210865020751953125</LongitudeDegrees>
            </Position>
            <AltitudeMeters>262</AltitudeMeters>
            <DistanceMeters>11961.980075014</DistanceMeters>
          </Trackpoint>
          <Trackpoint>
            <Time>2022-04-23T10:32:38.000Z</Time>
            <Position>
              <LatitudeDegrees>41.726798750460147857666015625</LatitudeDegrees>
              <LongitudeDegrees>-0.1847574301064014434814453125</LongitudeDegrees>
            </Position>
            <AltitudeMeters>262.79998779296875</AltitudeMeters>
            <DistanceMeters>11999.5106951</DistanceMeters>
          </Trackpoint>
          <Trackpoint>
            <Time>2022-04-23T10:32:45.000Z</Time>
            <Position>
              <LatitudeDegrees>41.7263322137296199798583984375</LatitudeDegrees>
              <LongitudeDegrees>-0.18461736850440502166748046875</LongitudeDegrees>
            </Position>
            <AltitudeMeters>263.399993896484375</AltitudeMeters>
            <DistanceMeters>12052.724636994</DistanceMeters>
          </Trackpoint>
          <Trackpoint>
            <Time>2022-04-23T10:32:51.000Z</Time>
            <Position>
              <LatitudeDegrees>41.7259101010859012603759765625</LatitudeDegrees>
              <LongitudeDegrees>-0.184484012424945831298828125</LongitudeDegrees>
            </Position>
            <AltitudeMeters>263.79998779296875</AltitudeMeters>
            <DistanceMeters>12100.994934225</DistanceMeters>
          </Trackpoint>
          <Trackpoint>
            <Time>2022-04-23T10:32:52.000Z</Time>
            <Position>
              <LatitudeDegrees>41.72584128566086292266845703125</LatitudeDegrees>
              <LongitudeDegrees>-0.18447495996952056884765625</LongitudeDegrees>
            </Position>
            <AltitudeMeters>264</AltitudeMeters>
            <DistanceMeters>12108.690338134</DistanceMeters>
          </Trackpoint>
          <Trackpoint>
            <Time>2022-04-23T10:32:54.000Z</Time>
            <Position>
              <LatitudeDegrees>41.72571949660778045654296875</LatitudeDegrees>
              <LongitudeDegrees>-0.18445551395416259765625</LongitudeDegrees>
            </Position>
            <AltitudeMeters>264.20001220703125</AltitudeMeters>
            <DistanceMeters>12122.341811229</DistanceMeters>
          </Trackpoint>
          <Trackpoint>
            <Time>2022-04-23T10:32:57.000Z</Time>
            <Position>
              <LatitudeDegrees>41.72550383023917675018310546875</LatitudeDegrees>
              <LongitudeDegrees>-0.18439776264131069183349609375</LongitudeDegrees>
            </Position>
            <AltitudeMeters>264.399993896484375</AltitudeMeters>
            <DistanceMeters>12146.820737117</DistanceMeters>
          </Trackpoint>
          <Trackpoint>
            <Time>2022-04-23T10:32:58.000Z</Time>
            <Position>
              <LatitudeDegrees>41.725447587668895721435546875</LatitudeDegrees>
              <LongitudeDegrees>-0.18438837490975856781005859375</LongitudeDegrees>
            </Position>
            <AltitudeMeters>264.600006103515625</AltitudeMeters>
            <DistanceMeters>12153.129108293</DistanceMeters>
          </Trackpoint>
          <Trackpoint>
            <Time>2022-04-23T10:33:00.000Z</Time>
            <Position>
              <LatitudeDegrees>41.72529478557407855987548828125</LatitudeDegrees>
              <LongitudeDegrees>-0.1843514107167720794677734375</LongitudeDegrees>
            </Position>
            <AltitudeMeters>264.600006103515625</AltitudeMeters>
            <DistanceMeters>12170.411173516</DistanceMeters>
          </Trackpoint>
          <Trackpoint>
            <Time>2022-04-23T10:33:02.000Z</Time>
            <Position>
              <LatitudeDegrees>41.72517408616840839385986328125</LatitudeDegrees>
              <LongitudeDegrees>-0.1842947490513324737548828125</LongitudeDegrees>
            </Position>
            <AltitudeMeters>264.399993896484375</AltitudeMeters>
            <DistanceMeters>12184.646162642</DistanceMeters>
          </Trackpoint>
          <Trackpoint>
            <Time>2022-04-23T10:33:03.000Z</Time>
            <Position>
              <LatitudeDegrees>41.72511138953268527984619140625</LatitudeDegrees>
              <LongitudeDegrees>-0.18425040878355503082275390625</LongitudeDegrees>
            </Position>
            <AltitudeMeters>264.399993896484375</AltitudeMeters>
            <DistanceMeters>12192.536813887</DistanceMeters>
          </Trackpoint>
          <Trackpoint>
            <Time>2022-04-23T10:33:09.000Z</Time>
            <Position>
              <LatitudeDegrees>41.72468282282352447509765625</LatitudeDegrees>
              <LongitudeDegrees>-0.18402577377855777740478515625</LongitudeDegrees>
            </Position>
            <AltitudeMeters>263.20001220703125</AltitudeMeters>
            <DistanceMeters>12243.757182584</DistanceMeters>
          </Trackpoint>
          <Trackpoint>
            <Time>2022-04-23T10:33:12.000Z</Time>
            <Position>
              <LatitudeDegrees>41.724491380155086517333984375</LatitudeDegrees>
              <LongitudeDegrees>-0.1839349977672100067138671875</LongitudeDegrees>
            </Position>
            <AltitudeMeters>263</AltitudeMeters>
            <DistanceMeters>12266.360161038</DistanceMeters>
          </Trackpoint>
          <Trackpoint>
            <Time>2022-04-23T10:33:14.000Z</Time>
            <Position>
              <LatitudeDegrees>41.72436724416911602020263671875</LatitudeDegrees>
              <LongitudeDegrees>-0.18381957896053791046142578125</LongitudeDegrees>
            </Position>
            <AltitudeMeters>263</AltitudeMeters>
            <DistanceMeters>12283.177473374</DistanceMeters>
          </Trackpoint>
          <Trackpoint>
            <Time>2022-04-23T10:33:15.000Z</Time>
            <Position>
              <LatitudeDegrees>41.72432064078748226165771484375</LatitudeDegrees>
              <LongitudeDegrees>-0.1837646774947643280029296875</LongitudeDegrees>
            </Position>
            <AltitudeMeters>263</AltitudeMeters>
            <DistanceMeters>12290.084418709</DistanceMeters>
          </Trackpoint>
          <Trackpoint>
            <Time>2022-04-23T10:33:19.000Z</Time>
            <Position>
              <LatitudeDegrees>41.72416155226528644561767578125</LatitudeDegrees>
              <LongitudeDegrees>-0.18353073857724666595458984375</LongitudeDegrees>
            </Position>
            <AltitudeMeters>262.79998779296875</AltitudeMeters>
            <DistanceMeters>12316.375066691</DistanceMeters>
          </Trackpoint>
          <Trackpoint>
            <Time>2022-04-23T10:33:21.000Z</Time>
            <Position>
              <LatitudeDegrees>41.72406432218849658966064453125</LatitudeDegrees>
              <LongitudeDegrees>-0.18337651155889034271240234375</LongitudeDegrees>
            </Position>
            <AltitudeMeters>261.79998779296875</AltitudeMeters>
            <DistanceMeters>12333.145599208</DistanceMeters>
          </Trackpoint>
          <Trackpoint>
            <Time>2022-04-23T10:33:24.000Z</Time>
            <Position>
              <LatitudeDegrees>41.7239029705524444580078125</LatitudeDegrees>
              <LongitudeDegrees>-0.1831122301518917083740234375</LongitudeDegrees>
            </Position>
            <AltitudeMeters>261</AltitudeMeters>
            <DistanceMeters>12361.50944187</DistanceMeters>
          </Trackpoint>
          <Trackpoint>
            <Time>2022-04-23T10:33:26.000Z</Time>
            <Position>
              <LatitudeDegrees>41.72381873242557048797607421875</LatitudeDegrees>
              <LongitudeDegrees>-0.1829103939235210418701171875</LongitudeDegrees>
            </Position>
            <AltitudeMeters>260.79998779296875</AltitudeMeters>
            <DistanceMeters>12380.71965098</DistanceMeters>
          </Trackpoint>
          <Trackpoint>
            <Time>2022-04-23T10:33:28.000Z</Time>
            <Position>
              <LatitudeDegrees>41.7237603105604648590087890625</LatitudeDegrees>
              <LongitudeDegrees>-0.1826914586126804351806640625</LongitudeDegrees>
            </Position>
            <AltitudeMeters>260.79998779296875</AltitudeMeters>
            <DistanceMeters>12400.034634237</DistanceMeters>
          </Trackpoint>
          <Trackpoint>
            <Time>2022-04-23T10:33:31.000Z</Time>
            <Position>
              <LatitudeDegrees>41.72369250096380710601806640625</LatitudeDegrees>
              <LongitudeDegrees>-0.182345621287822723388671875</LongitudeDegrees>
            </Position>
            <AltitudeMeters>260.79998779296875</AltitudeMeters>
            <DistanceMeters>12429.738957651</DistanceMeters>
          </Trackpoint>
          <Trackpoint>
            <Time>2022-04-23T10:33:34.000Z</Time>
            <Position>
              <LatitudeDegrees>41.723612956702709197998046875</LatitudeDegrees>
              <LongitudeDegrees>-0.18200221471488475799560546875</LongitudeDegrees>
            </Position>
            <AltitudeMeters>260.600006103515625</AltitudeMeters>
            <DistanceMeters>12459.60865204</DistanceMeters>
          </Trackpoint>
          <Trackpoint>
            <Time>2022-04-23T10:33:36.000Z</Time>
            <Position>
              <LatitudeDegrees>41.7235172353684902191162109375</LatitudeDegrees>
              <LongitudeDegrees>-0.181801132857799530029296875</LongitudeDegrees>
            </Position>
            <AltitudeMeters>260.600006103515625</AltitudeMeters>
            <DistanceMeters>12479.421209245</DistanceMeters>
          </Trackpoint>
          <Trackpoint>
            <Time>2022-04-23T10:33:38.000Z</Time>
            <Position>
              <LatitudeDegrees>41.72336845658719539642333984375</LatitudeDegrees>
              <LongitudeDegrees>-0.181616730988025665283203125</LongitudeDegrees>
            </Position>
            <AltitudeMeters>260.399993896484375</AltitudeMeters>
            <DistanceMeters>12501.979198246</DistanceMeters>
          </Trackpoint>
          <Trackpoint>
            <Time>2022-04-23T10:33:40.000Z</Time>
            <Position>
              <LatitudeDegrees>41.7232235334813594818115234375</LatitudeDegrees>
              <LongitudeDegrees>-0.181504078209400177001953125</LongitudeDegrees>
            </Position>
            <AltitudeMeters>260.399993896484375</AltitudeMeters>
            <DistanceMeters>12520.627691591</DistanceMeters>
          </Trackpoint>
          <Trackpoint>
            <Time>2022-04-23T10:33:43.000Z</Time>
            <Position>
              <LatitudeDegrees>41.72292865812778472900390625</LatitudeDegrees>
              <LongitudeDegrees>-0.1814177446067333221435546875</LongitudeDegrees>
            </Position>
            <AltitudeMeters>260.399993896484375</AltitudeMeters>
            <DistanceMeters>12554.222289581</DistanceMeters>
          </Trackpoint>
          <Trackpoint>
            <Time>2022-04-23T10:33:49.000Z</Time>
            <Position>
              <LatitudeDegrees>41.7224182002246379852294921875</LatitudeDegrees>
              <LongitudeDegrees>-0.1813557185232639312744140625</LongitudeDegrees>
            </Position>
            <AltitudeMeters>260.399993896484375</AltitudeMeters>
            <DistanceMeters>12611.270380704</DistanceMeters>
          </Trackpoint>
          <Trackpoint>
            <Time>2022-04-23T10:33:50.000Z</Time>
            <Position>
              <LatitudeDegrees>41.72234301455318927764892578125</LatitudeDegrees>
              <LongitudeDegrees>-0.18132830969989299774169921875</LongitudeDegrees>
            </Position>
            <AltitudeMeters>260.399993896484375</AltitudeMeters>
            <DistanceMeters>12619.943358092</DistanceMeters>
          </Trackpoint>
          <Trackpoint>
            <Time>2022-04-23T10:33:52.000Z</Time>
            <Position>
              <LatitudeDegrees>41.7222029529511928558349609375</LatitudeDegrees>
              <LongitudeDegrees>-0.18121884204447269439697265625</LongitudeDegrees>
            </Position>
            <AltitudeMeters>260.20001220703125</AltitudeMeters>
            <DistanceMeters>12637.990930154</DistanceMeters>
          </Trackpoint>
          <Trackpoint>
            <Time>2022-04-23T10:33:55.000Z</Time>
            <Position>
              <LatitudeDegrees>41.7221063934266567230224609375</LatitudeDegrees>
              <LongitudeDegrees>-0.18095766194164752960205078125</LongitudeDegrees>
            </Position>
            <AltitudeMeters>260</AltitudeMeters>
            <DistanceMeters>12662.203915989</DistanceMeters>
          </Trackpoint>
          <Trackpoint>
            <Time>2022-04-23T10:33:58.000Z</Time>
            <Position>
              <LatitudeDegrees>41.72198410145938396453857421875</LatitudeDegrees>
              <LongitudeDegrees>-0.18064853735268115997314453125</LongitudeDegrees>
            </Position>
            <AltitudeMeters>259.600006103515625</AltitudeMeters>
            <DistanceMeters>12691.268423403</DistanceMeters>
          </Trackpoint>
          <Trackpoint>
            <Time>2022-04-23T10:34:00.000Z</Time>
            <Position>
              <LatitudeDegrees>41.72191017307341098785400390625</LatitudeDegrees>
              <LongitudeDegrees>-0.18042658455669879913330078125</LongitudeDegrees>
            </Position>
            <AltitudeMeters>259.20001220703125</AltitudeMeters>
            <DistanceMeters>12711.459979097</DistanceMeters>
          </Trackpoint>
          <Trackpoint>
            <Time>2022-04-23T10:34:01.000Z</Time>
            <Position>
              <LatitudeDegrees>41.72187161631882190704345703125</LatitudeDegrees>
              <LongitudeDegrees>-0.18031342886388301849365234375</LongitudeDegrees>
            </Position>
            <AltitudeMeters>258.399993896484375</AltitudeMeters>
            <DistanceMeters>12721.793888523</DistanceMeters>
          </Trackpoint>
          <Trackpoint>
            <Time>2022-04-23T10:34:06.000Z</Time>
            <Position>
              <LatitudeDegrees>41.72166324220597743988037109375</LatitudeDegrees>
              <LongitudeDegrees>-0.1797393523156642913818359375</LongitudeDegrees>
            </Position>
            <AltitudeMeters>258</AltitudeMeters>
            <DistanceMeters>12774.825095822</DistanceMeters>
          </Trackpoint>
          <Trackpoint>
            <Time>2022-04-23T10:34:10.000Z</Time>
            <Position>
              <LatitudeDegrees>41.72147129662334918975830078125</LatitudeDegrees>
              <LongitudeDegrees>-0.17931330017745494842529296875</LongitudeDegrees>
            </Position>
            <AltitudeMeters>257.399993896484375</AltitudeMeters>
            <DistanceMeters>12816.167068306</DistanceMeters>
          </Trackpoint>
          <Trackpoint>
            <Time>2022-04-23T10:34:12.000Z</Time>
            <Position>
              <LatitudeDegrees>41.72136853449046611785888671875</LatitudeDegrees>
              <LongitudeDegrees>-0.17914130352437496185302734375</LongitudeDegrees>
            </Position>
            <AltitudeMeters>257.20001220703125</AltitudeMeters>
            <DistanceMeters>12834.469519392</DistanceMeters>
          </Trackpoint>
          <Trackpoint>
            <Time>2022-04-23T10:34:17.000Z</Time>
            <Position>
              <LatitudeDegrees>41.721130572259426116943359375</LatitudeDegrees>
              <LongitudeDegrees>-0.178670324385166168212890625</LongitudeDegrees>
            </Position>
            <AltitudeMeters>256.79998779296875</AltitudeMeters>
            <DistanceMeters>12881.717390435</DistanceMeters>
          </Trackpoint>
          <Trackpoint>
            <Time>2022-04-23T10:34:18.000Z</Time>
            <Position>
              <LatitudeDegrees>41.7210744135081768035888671875</LatitudeDegrees>
              <LongitudeDegrees>-0.1785789616405963897705078125</LongitudeDegrees>
            </Position>
            <AltitudeMeters>256.600006103515625</AltitudeMeters>
            <DistanceMeters>12891.549326578</DistanceMeters>
          </Trackpoint>
          <Trackpoint>
            <Time>2022-04-23T10:34:19.000Z</Time>
            <Position>
              <LatitudeDegrees>41.7209996469318866729736328125</LatitudeDegrees>
              <LongitudeDegrees>-0.1784894429147243499755859375</LongitudeDegrees>
            </Position>
            <AltitudeMeters>256.20001220703125</AltitudeMeters>
            <DistanceMeters>12902.710010897</DistanceMeters>
          </Trackpoint>
          <Trackpoint>
            <Time>2022-04-23T10:34:20.000Z</Time>
            <Position>
              <LatitudeDegrees>41.72094088979065418243408203125</LatitudeDegrees>
              <LongitudeDegrees>-0.1784326136112213134765625</LongitudeDegrees>
            </Position>
            <AltitudeMeters>256</AltitudeMeters>
            <DistanceMeters>12910.776653994</DistanceMeters>
          </Trackpoint>
          <Trackpoint>
            <Time>2022-04-23T10:34:21.000Z</Time>
            <Position>
              <LatitudeDegrees>41.7209007404744625091552734375</LatitudeDegrees>
              <LongitudeDegrees>-0.17838408239185810089111328125</LongitudeDegrees>
            </Position>
            <AltitudeMeters>255.600006103515625</AltitudeMeters>
            <DistanceMeters>12916.794929214</DistanceMeters>
          </Trackpoint>
          <Trackpoint>
            <Time>2022-04-23T10:34:23.000Z</Time>
            <Position>
              <LatitudeDegrees>41.720841564238071441650390625</LatitudeDegrees>
              <LongitudeDegrees>-0.17822809517383575439453125</LongitudeDegrees>
            </Position>
            <AltitudeMeters>254.600006103515625</AltitudeMeters>
            <DistanceMeters>12931.33122134</DistanceMeters>
          </Trackpoint>
          <Trackpoint>
            <Time>2022-04-23T10:34:26.000Z</Time>
            <Position>
              <LatitudeDegrees>41.720815412700176239013671875</LatitudeDegrees>
              <LongitudeDegrees>-0.17796121537685394287109375</LongitudeDegrees>
            </Position>
            <AltitudeMeters>253.399993896484375</AltitudeMeters>
            <DistanceMeters>12953.692604415</DistanceMeters>
          </Trackpoint>
          <Trackpoint>
            <Time>2022-04-23T10:34:27.000Z</Time>
            <Position>
              <LatitudeDegrees>41.7208023369312286376953125</LatitudeDegrees>
              <LongitudeDegrees>-0.17786960117518901824951171875</LongitudeDegrees>
            </Position>
            <AltitudeMeters>253.399993896484375</AltitudeMeters>
            <DistanceMeters>12961.44179846</DistanceMeters>
          </Trackpoint>
          <Trackpoint>
            <Time>2022-04-23T10:34:32.000Z</Time>
            <Position>
              <LatitudeDegrees>41.720668561756610870361328125</LatitudeDegrees>
              <LongitudeDegrees>-0.177388228476047515869140625</LongitudeDegrees>
            </Position>
            <AltitudeMeters>253</AltitudeMeters>
            <DistanceMeters>13004.113978097</DistanceMeters>
          </Trackpoint>
          <Trackpoint>
            <Time>2022-04-23T10:34:39.000Z</Time>
            <Position>
              <LatitudeDegrees>41.7203807272017002105712890625</LatitudeDegrees>
              <LongitudeDegrees>-0.17675262875854969024658203125</LongitudeDegrees>
            </Position>
            <AltitudeMeters>253.600006103515625</AltitudeMeters>
            <DistanceMeters>13065.875567467</DistanceMeters>
          </Trackpoint>
          <Trackpoint>
            <Time>2022-04-23T10:34:44.000Z</Time>
            <Position>
              <LatitudeDegrees>41.72016992233693599700927734375</LatitudeDegrees>
              <LongitudeDegrees>-0.1763104833662509918212890625</LongitudeDegrees>
            </Position>
            <AltitudeMeters>252.399993896484375</AltitudeMeters>
            <DistanceMeters>13109.461453051</DistanceMeters>
          </Trackpoint>
          <Trackpoint>
            <Time>2022-04-23T10:34:45.000Z</Time>
            <Position>
              <LatitudeDegrees>41.7201138474047183990478515625</LatitudeDegrees>
              <LongitudeDegrees>-0.1762266643345355987548828125</LongitudeDegrees>
            </Position>
            <AltitudeMeters>252.399993896484375</AltitudeMeters>
            <DistanceMeters>13118.812777037</DistanceMeters>
          </Trackpoint>
          <Trackpoint>
            <Time>2022-04-23T10:34:46.000Z</Time>
            <Position>
              <LatitudeDegrees>41.72005156986415386199951171875</LatitudeDegrees>
              <LongitudeDegrees>-0.17615466378629207611083984375</LongitudeDegrees>
            </Position>
            <AltitudeMeters>252.1999969482421875</AltitudeMeters>
            <DistanceMeters>13127.968441929</DistanceMeters>
          </Trackpoint>
          <Trackpoint>
            <Time>2022-04-23T10:34:48.000Z</Time>
            <Position>
              <LatitudeDegrees>41.7199170403182506561279296875</LatitudeDegrees>
              <LongitudeDegrees>-0.1760422624647617340087890625</LongitudeDegrees>
            </Position>
            <AltitudeMeters>252.1999969482421875</AltitudeMeters>
            <DistanceMeters>13145.615033276</DistanceMeters>
          </Trackpoint>
          <Trackpoint>
            <Time>2022-04-23T10:34:49.000Z</Time>
            <Position>
              <LatitudeDegrees>41.7198509909212589263916015625</LatitudeDegrees>
              <LongitudeDegrees>-0.17600127495825290679931640625</LongitudeDegrees>
            </Position>
            <AltitudeMeters>252.1999969482421875</AltitudeMeters>
            <DistanceMeters>13153.71630451</DistanceMeters>
          </Trackpoint>
          <Trackpoint>
            <Time>2022-04-23T10:34:52.000Z</Time>
            <Position>
              <LatitudeDegrees>41.71965963207185268402099609375</LatitudeDegrees>
              <LongitudeDegrees>-0.17590119503438472747802734375</LongitudeDegrees>
            </Position>
            <AltitudeMeters>252.399993896484375</AltitudeMeters>
            <DistanceMeters>13176.580253325</DistanceMeters>
          </Trackpoint>
          <Trackpoint>
            <Time>2022-04-23T10:34:54.000Z</Time>
            <Position>
              <LatitudeDegrees>41.71952283941209316253662109375</LatitudeDegrees>
              <LongitudeDegrees>-0.1758598722517490386962890625</LongitudeDegrees>
            </Position>
            <AltitudeMeters>251.1999969482421875</AltitudeMeters>
            <DistanceMeters>13192.18779452</DistanceMeters>
          </Trackpoint>
          <Trackpoint>
            <Time>2022-04-23T10:35:00.000Z</Time>
            <Position>
              <LatitudeDegrees>41.71908513642847537994384765625</LatitudeDegrees>
              <LongitudeDegrees>-0.17579340375959873199462890625</LongitudeDegrees>
            </Position>
            <AltitudeMeters>253.1999969482421875</AltitudeMeters>
            <DistanceMeters>13241.217067</DistanceMeters>
          </Trackpoint>
          <Trackpoint>
            <Time>2022-04-23T10:35:02.000Z</Time>
            <Position>
              <LatitudeDegrees>41.7189393751323223114013671875</LatitudeDegrees>
              <LongitudeDegrees>-0.17579130828380584716796875</LongitudeDegrees>
            </Position>
            <AltitudeMeters>253.600006103515625</AltitudeMeters>
            <DistanceMeters>13257.441330568</DistanceMeters>
          </Trackpoint>
          <Trackpoint>
            <Time>2022-04-23T10:35:06.000Z</Time>
            <Position>
              <LatitudeDegrees>41.71867894940078258514404296875</LatitudeDegrees>
              <LongitudeDegrees>-0.17577311955392360687255859375</LongitudeDegrees>
            </Position>
            <AltitudeMeters>254</AltitudeMeters>
            <DistanceMeters>13286.466664536</DistanceMeters>
          </Trackpoint>
          <Trackpoint>
            <Time>2022-04-23T10:35:07.000Z</Time>
            <Position>
              <LatitudeDegrees>41.71861642040312290191650390625</LatitudeDegrees>
              <LongitudeDegrees>-0.1757542602717876434326171875</LongitudeDegrees>
            </Position>
            <AltitudeMeters>254</AltitudeMeters>
            <DistanceMeters>13293.600633336</DistanceMeters>
          </Trackpoint>
          <Trackpoint>
            <Time>2022-04-23T10:35:08.000Z</Time>
            <Position>
              <LatitudeDegrees>41.7185561545193195343017578125</LatitudeDegrees>
              <LongitudeDegrees>-0.17572903074324131011962890625</LongitudeDegrees>
            </Position>
            <AltitudeMeters>254.1999969482421875</AltitudeMeters>
            <DistanceMeters>13300.627471742</DistanceMeters>
          </Trackpoint>
          <Trackpoint>
            <Time>2022-04-23T10:35:11.000Z</Time>
            <Position>
              <LatitudeDegrees>41.71839195303618907928466796875</LatitudeDegrees>
              <LongitudeDegrees>-0.1756208203732967376708984375</LongitudeDegrees>
            </Position>
            <AltitudeMeters>254.1999969482421875</AltitudeMeters>
            <DistanceMeters>13320.994691771</DistanceMeters>
          </Trackpoint>
          <Trackpoint>
            <Time>2022-04-23T10:35:17.000Z</Time>
            <Position>
              <LatitudeDegrees>41.71804678626358509063720703125</LatitudeDegrees>
              <LongitudeDegrees>-0.17543734051287174224853515625</LongitudeDegrees>
            </Position>
            <AltitudeMeters>254.600006103515625</AltitudeMeters>
            <DistanceMeters>13362.325960096</DistanceMeters>
          </Trackpoint>
          <Trackpoint>
            <Time>2022-04-23T10:35:19.000Z</Time>
            <Position>
              <LatitudeDegrees>41.71791854314506053924560546875</LatitudeDegrees>
              <LongitudeDegrees>-0.1753740571439266204833984375</LongitudeDegrees>
            </Position>
            <AltitudeMeters>254.600006103515625</AltitudeMeters>
            <DistanceMeters>13377.537359729</DistanceMeters>
          </Trackpoint>
          <Trackpoint>
            <Time>2022-04-23T10:35:22.000Z</Time>
            <Position>
              <LatitudeDegrees>41.71774118207395076751708984375</LatitudeDegrees>
              <LongitudeDegrees>-0.17524673603475093841552734375</LongitudeDegrees>
            </Position>
            <AltitudeMeters>254.8000030517578125</AltitudeMeters>
            <DistanceMeters>13399.933444792</DistanceMeters>
          </Trackpoint>
          <Trackpoint>
            <Time>2022-04-23T10:35:23.000Z</Time>
            <Position>
              <LatitudeDegrees>41.71768418513238430023193359375</LatitudeDegrees>
              <LongitudeDegrees>-0.175198204815387725830078125</LongitudeDegrees>
            </Position>
            <AltitudeMeters>254.8000030517578125</AltitudeMeters>
            <DistanceMeters>13407.449571337</DistanceMeters>
          </Trackpoint>
          <Trackpoint>
            <Time>2022-04-23T10:35:30.000Z</Time>
            <Position>
              <LatitudeDegrees>41.71732258982956409454345703125</LatitudeDegrees>
              <LongitudeDegrees>-0.17489570192992687225341796875</LongitudeDegrees>
            </Position>
            <AltitudeMeters>255.600006103515625</AltitudeMeters>
            <DistanceMeters>13454.8981712</DistanceMeters>
          </Trackpoint>
          <Trackpoint>
            <Time>2022-04-23T10:35:36.000Z</Time>
            <Position>
              <LatitudeDegrees>41.71712041832506656646728515625</LatitudeDegrees>
              <LongitudeDegrees>-0.17471364699304103851318359375</LongitudeDegrees>
            </Position>
            <AltitudeMeters>255.1999969482421875</AltitudeMeters>
            <DistanceMeters>13482.011276207</DistanceMeters>
          </Trackpoint>
          <Trackpoint>
            <Time>2022-04-23T10:35:41.000Z</Time>
            <Position>
              <LatitudeDegrees>41.7170557938516139984130859375</LatitudeDegrees>
              <LongitudeDegrees>-0.17462379299104213714599609375</LongitudeDegrees>
            </Position>
            <AltitudeMeters>254.600006103515625</AltitudeMeters>
            <DistanceMeters>13492.377902455</DistanceMeters>
          </Trackpoint>
          <Trackpoint>
            <Time>2022-04-23T10:35:45.000Z</Time>
            <Position>
              <LatitudeDegrees>41.716997288167476654052734375</LatitudeDegrees>
              <LongitudeDegrees>-0.17455623485147953033447265625</LongitudeDegrees>
            </Position>
            <AltitudeMeters>254.600006103515625</AltitudeMeters>
            <DistanceMeters>13500.97453817</DistanceMeters>
          </Trackpoint>
          <Trackpoint>
            <Time>2022-04-23T10:35:48.000Z</Time>
            <Position>
              <LatitudeDegrees>41.7169542051851749420166015625</LatitudeDegrees>
              <LongitudeDegrees>-0.17450761981308460235595703125</LongitudeDegrees>
            </Position>
            <AltitudeMeters>254.8000030517578125</AltitudeMeters>
            <DistanceMeters>13507.243421059</DistanceMeters>
          </Trackpoint>
          <Trackpoint>
            <Time>2022-04-23T10:35:51.000Z</Time>
            <Position>
              <LatitudeDegrees>41.7169019021093845367431640625</LatitudeDegrees>
              <LongitudeDegrees>-0.174461938440799713134765625</LongitudeDegrees>
            </Position>
            <AltitudeMeters>254.600006103515625</AltitudeMeters>
            <DistanceMeters>13514.192726695</DistanceMeters>
          </Trackpoint>
          <Trackpoint>
            <Time>2022-04-23T10:35:55.000Z</Time>
            <Position>
              <LatitudeDegrees>41.71681850217282772064208984375</LatitudeDegrees>
              <LongitudeDegrees>-0.1744205318391323089599609375</LongitudeDegrees>
            </Position>
            <AltitudeMeters>254.600006103515625</AltitudeMeters>
            <DistanceMeters>13524.091938258</DistanceMeters>
          </Trackpoint>
          <Trackpoint>
            <Time>2022-04-23T10:35:56.000Z</Time>
            <Position>
              <LatitudeDegrees>41.716796122491359710693359375</LatitudeDegrees>
              <LongitudeDegrees>-0.17441072501242160797119140625</LongitudeDegrees>
            </Position>
            <AltitudeMeters>254.600006103515625</AltitudeMeters>
            <DistanceMeters>13526.715088702</DistanceMeters>
          </Trackpoint>
          <Trackpoint>
            <Time>2022-04-23T10:36:01.000Z</Time>
            <Position>
              <LatitudeDegrees>41.71667533926665782928466796875</LatitudeDegrees>
              <LongitudeDegrees>-0.174373425543308258056640625</LongitudeDegrees>
            </Position>
            <AltitudeMeters>254.399993896484375</AltitudeMeters>
            <DistanceMeters>13540.511318306</DistanceMeters>
          </Trackpoint>
          <Trackpoint>
            <Time>2022-04-23T10:36:02.000Z</Time>
            <Position>
              <LatitudeDegrees>41.71666310168802738189697265625</LatitudeDegrees>
              <LongitudeDegrees>-0.17437116242945194244384765625</LongitudeDegrees>
            </Position>
            <AltitudeMeters>254.399993896484375</AltitudeMeters>
            <DistanceMeters>13541.888386225</DistanceMeters>
          </Trackpoint>
          <Trackpoint>
            <Time>2022-04-23T10:36:03.000Z</Time>
            <Position>
              <LatitudeDegrees>41.71665119938552379608154296875</LatitudeDegrees>
              <LongitudeDegrees>-0.17436437308788299560546875</LongitudeDegrees>
            </Position>
            <AltitudeMeters>254.399993896484375</AltitudeMeters>
            <DistanceMeters>13543.326401352</DistanceMeters>
          </Trackpoint>
          <Trackpoint>
            <Time>2022-04-23T10:36:07.000Z</Time>
            <Position>
              <LatitudeDegrees>41.716592274606227874755859375</LatitudeDegrees>
              <LongitudeDegrees>-0.17433964647352695465087890625</LongitudeDegrees>
            </Position>
            <AltitudeMeters>254.600006103515625</AltitudeMeters>
            <DistanceMeters>13550.1986135</DistanceMeters>
          </Trackpoint>
          <Trackpoint>
            <Time>2022-04-23T10:36:09.000Z</Time>
            <Position>
              <LatitudeDegrees>41.71657425351440906524658203125</LatitudeDegrees>
              <LongitudeDegrees>-0.1743457652628421783447265625</LongitudeDegrees>
            </Position>
            <AltitudeMeters>254.8000030517578125</AltitudeMeters>
            <DistanceMeters>13552.265308</DistanceMeters>
          </Trackpoint>
          <Trackpoint>
            <Time>2022-04-23T10:36:12.000Z</Time>
            <Position>
              <LatitudeDegrees>41.71652630902826786041259765625</LatitudeDegrees>
              <LongitudeDegrees>-0.1743682287633419036865234375</LongitudeDegrees>
            </Position>
            <AltitudeMeters>255</AltitudeMeters>
            <DistanceMeters>13557.918399237</DistanceMeters>
          </Trackpoint>
          <Trackpoint>
            <Time>2022-04-23T10:36:15.000Z</Time>
            <Position>
              <LatitudeDegrees>41.71641197986900806427001953125</LatitudeDegrees>
              <LongitudeDegrees>-0.17435791902244091033935546875</LongitudeDegrees>
            </Position>
            <AltitudeMeters>255.1999969482421875</AltitudeMeters>
            <DistanceMeters>13570.672173854</DistanceMeters>
          </Trackpoint>
          <Trackpoint>
            <Time>2022-04-23T10:36:16.000Z</Time>
            <Position>
              <LatitudeDegrees>41.7163604311645030975341796875</LatitudeDegrees>
              <LongitudeDegrees>-0.1743422448635101318359375</LongitudeDegrees>
            </Position>
            <AltitudeMeters>255.1999969482421875</AltitudeMeters>
            <DistanceMeters>13576.55616171</DistanceMeters>
          </Trackpoint>
          <Trackpoint>
            <Time>2022-04-23T10:36:21.000Z</Time>
            <Position>
              <LatitudeDegrees>41.7160724289715290069580078125</LatitudeDegrees>
              <LongitudeDegrees>-0.17422263510525226593017578125</LongitudeDegrees>
            </Position>
            <AltitudeMeters>255.600006103515625</AltitudeMeters>
            <DistanceMeters>13610.116605311</DistanceMeters>
          </Trackpoint>
          <Trackpoint>
            <Time>2022-04-23T10:36:22.000Z</Time>
            <Position>
              <LatitudeDegrees>41.71602155081927776336669921875</LatitudeDegrees>
              <LongitudeDegrees>-0.174189023673534393310546875</LongitudeDegrees>
            </Position>
            <AltitudeMeters>255.600006103515625</AltitudeMeters>
            <DistanceMeters>13616.431414697</DistanceMeters>
          </Trackpoint>
          <Trackpoint>
            <Time>2022-04-23T10:36:24.000Z</Time>
            <Position>
              <LatitudeDegrees>41.71593991108238697052001953125</LatitudeDegrees>
              <LongitudeDegrees>-0.17407980747520923614501953125</LongitudeDegrees>
            </Position>
            <AltitudeMeters>255.8000030517578125</AltitudeMeters>
            <DistanceMeters>13629.273036714</DistanceMeters>
          </Trackpoint>
          <Trackpoint>
            <Time>2022-04-23T10:36:27.000Z</Time>
            <Position>
              <LatitudeDegrees>41.71589917503297328948974609375</LatitudeDegrees>
              <LongitudeDegrees>-0.173830278217792510986328125</LongitudeDegrees>
            </Position>
            <AltitudeMeters>255.8000030517578125</AltitudeMeters>
            <DistanceMeters>13650.494440353</DistanceMeters>
          </Trackpoint>
          <Trackpoint>
            <Time>2022-04-23T10:36:31.000Z</Time>
            <Position>
              <LatitudeDegrees>41.71581141650676727294921875</LatitudeDegrees>
              <LongitudeDegrees>-0.17345870845019817352294921875</LongitudeDegrees>
            </Position>
            <AltitudeMeters>256.20001220703125</AltitudeMeters>
            <DistanceMeters>13682.873459875</DistanceMeters>
          </Trackpoint>
          <Trackpoint>
            <Time>2022-04-23T10:36:38.000Z</Time>
            <Position>
              <LatitudeDegrees>41.71570052392780780792236328125</LatitudeDegrees>
              <LongitudeDegrees>-0.17277843318879604339599609375</LongitudeDegrees>
            </Position>
            <AltitudeMeters>256.600006103515625</AltitudeMeters>
            <DistanceMeters>13740.72405029</DistanceMeters>
          </Trackpoint>
          <Trackpoint>
            <Time>2022-04-23T10:36:46.000Z</Time>
            <Position>
              <LatitudeDegrees>41.715510673820972442626953125</LatitudeDegrees>
              <LongitudeDegrees>-0.1720313541591167449951171875</LongitudeDegrees>
            </Position>
            <AltitudeMeters>257.79998779296875</AltitudeMeters>
            <DistanceMeters>13806.291243715</DistanceMeters>
          </Trackpoint>
          <Trackpoint>
            <Time>2022-04-23T10:36:51.000Z</Time>
            <Position>
              <LatitudeDegrees>41.71538184396922588348388671875</LatitudeDegrees>
              <LongitudeDegrees>-0.17144353128969669342041015625</LongitudeDegrees>
            </Position>
            <AltitudeMeters>257.79998779296875</AltitudeMeters>
            <DistanceMeters>13857.190358655</DistanceMeters>
          </Trackpoint>
          <Trackpoint>
            <Time>2022-04-23T10:36:53.000Z</Time>
            <Position>
              <LatitudeDegrees>41.71533993445336818695068359375</LatitudeDegrees>
              <LongitudeDegrees>-0.17118201591074466705322265625</LongitudeDegrees>
            </Position>
            <AltitudeMeters>256.79998779296875</AltitudeMeters>
            <DistanceMeters>13879.412391875</DistanceMeters>
          </Trackpoint>
          <Trackpoint>
            <Time>2022-04-23T10:36:56.000Z</Time>
            <Position>
              <LatitudeDegrees>41.7152838595211505889892578125</LatitudeDegrees>
              <LongitudeDegrees>-0.1707871444523334503173828125</LongitudeDegrees>
            </Position>
            <AltitudeMeters>255.600006103515625</AltitudeMeters>
            <DistanceMeters>13912.807488835</DistanceMeters>
          </Trackpoint>
          <Trackpoint>
            <Time>2022-04-23T10:36:58.000Z</Time>
            <Position>
              <LatitudeDegrees>41.71525209210813045501708984375</LatitudeDegrees>
              <LongitudeDegrees>-0.17052118666470050811767578125</LongitudeDegrees>
            </Position>
            <AltitudeMeters>255.1999969482421875</AltitudeMeters>
            <DistanceMeters>13935.185019064</DistanceMeters>
          </Trackpoint>
          <Trackpoint>
            <Time>2022-04-23T10:36:59.000Z</Time>
            <Position>
              <LatitudeDegrees>41.71523733995854854583740234375</LatitudeDegrees>
              <LongitudeDegrees>-0.170388333499431610107421875</LongitudeDegrees>
            </Position>
            <AltitudeMeters>254.600006103515625</AltitudeMeters>
            <DistanceMeters>13946.344489671</DistanceMeters>
          </Trackpoint>
          <Trackpoint>
            <Time>2022-04-23T10:37:03.000Z</Time>
            <Position>
              <LatitudeDegrees>41.7152003757655620574951171875</LatitudeDegrees>
              <LongitudeDegrees>-0.16987502574920654296875</LongitudeDegrees>
            </Position>
            <AltitudeMeters>253.600006103515625</AltitudeMeters>
            <DistanceMeters>13989.18942076</DistanceMeters>
          </Trackpoint>
          <Trackpoint>
            <Time>2022-04-23T10:37:05.000Z</Time>
            <Position>
              <LatitudeDegrees>41.71519861556589603424072265625</LatitudeDegrees>
              <LongitudeDegrees>-0.1696126721799373626708984375</LongitudeDegrees>
            </Position>
            <AltitudeMeters>253</AltitudeMeters>
            <DistanceMeters>14010.987231712</DistanceMeters>
          </Trackpoint>
          <Trackpoint>
            <Time>2022-04-23T10:37:08.000Z</Time>
            <Position>
              <LatitudeDegrees>41.7151857912540435791015625</LatitudeDegrees>
              <LongitudeDegrees>-0.169204808771610260009765625</LongitudeDegrees>
            </Position>
            <AltitudeMeters>252.8000030517578125</AltitudeMeters>
            <DistanceMeters>14044.903782364</DistanceMeters>
          </Trackpoint>
          <Trackpoint>
            <Time>2022-04-23T10:37:09.000Z</Time>
            <Position>
              <LatitudeDegrees>41.715198867022991180419921875</LatitudeDegrees>
              <LongitudeDegrees>-0.16908218152821063995361328125</LongitudeDegrees>
            </Position>
            <AltitudeMeters>252.8000030517578125</AltitudeMeters>
            <DistanceMeters>14055.195662498</DistanceMeters>
          </Trackpoint>
          <Trackpoint>
            <Time>2022-04-23T10:37:10.000Z</Time>
            <Position>
              <LatitudeDegrees>41.71522744931280612945556640625</LatitudeDegrees>
              <LongitudeDegrees>-0.16897313296794891357421875</LongitudeDegrees>
            </Position>
            <AltitudeMeters>252.600006103515625</AltitudeMeters>
            <DistanceMeters>14064.79806379</DistanceMeters>
          </Trackpoint>
          <Trackpoint>
            <Time>2022-04-23T10:37:11.000Z</Time>
            <Position>
              <LatitudeDegrees>41.71527522616088390350341796875</LatitudeDegrees>
              <LongitudeDegrees>-0.1688834466040134429931640625</LongitudeDegrees>
            </Position>
            <AltitudeMeters>252.1999969482421875</AltitudeMeters>
            <DistanceMeters>14073.952742347</DistanceMeters>
          </Trackpoint>
          <Trackpoint>
            <Time>2022-04-23T10:37:13.000Z</Time>
            <Position>
              <LatitudeDegrees>41.71537664718925952911376953125</LatitudeDegrees>
              <LongitudeDegrees>-0.1687111146748065948486328125</LongitudeDegrees>
            </Position>
            <AltitudeMeters>252</AltitudeMeters>
            <DistanceMeters>14092.185494037</DistanceMeters>
          </Trackpoint>
          <Trackpoint>
            <Time>2022-04-23T10:37:15.000Z</Time>
            <Position>
              <LatitudeDegrees>41.71544018201529979705810546875</LatitudeDegrees>
              <LongitudeDegrees>-0.16849176026880741119384765625</LongitudeDegrees>
            </Position>
            <AltitudeMeters>251.600006103515625</AltitudeMeters>
            <DistanceMeters>14111.733761862</DistanceMeters>
          </Trackpoint>
          <Trackpoint>
            <Time>2022-04-23T10:37:16.000Z</Time>
            <Position>
              <LatitudeDegrees>41.71547220088541507720947265625</LatitudeDegrees>
              <LongitudeDegrees>-0.16837793402373790740966796875</LongitudeDegrees>
            </Position>
            <AltitudeMeters>251.399993896484375</AltitudeMeters>
            <DistanceMeters>14121.839708853</DistanceMeters>
          </Trackpoint>
          <Trackpoint>
            <Time>2022-04-23T10:37:17.000Z</Time>
            <Position>
              <LatitudeDegrees>41.715522743761539459228515625</LatitudeDegrees>
              <LongitudeDegrees>-0.16827919520437717437744140625</LongitudeDegrees>
            </Position>
            <AltitudeMeters>251.1999969482421875</AltitudeMeters>
            <DistanceMeters>14131.786695713</DistanceMeters>
          </Trackpoint>
          <Trackpoint>
            <Time>2022-04-23T10:37:18.000Z</Time>
            <Position>
              <LatitudeDegrees>41.7155913077294826507568359375</LatitudeDegrees>
              <LongitudeDegrees>-0.16820191405713558197021484375</LongitudeDegrees>
            </Position>
            <AltitudeMeters>250.8000030517578125</AltitudeMeters>
            <DistanceMeters>14141.75952189</DistanceMeters>
          </Trackpoint>
          <Trackpoint>
            <Time>2022-04-23T10:37:21.000Z</Time>
            <Position>
              <LatitudeDegrees>41.71582625247538089752197265625</LatitudeDegrees>
              <LongitudeDegrees>-0.1680283248424530029296875</LongitudeDegrees>
            </Position>
            <AltitudeMeters>250.399993896484375</AltitudeMeters>
            <DistanceMeters>14171.622715785</DistanceMeters>
          </Trackpoint>
          <Trackpoint>
            <Time>2022-04-23T10:37:22.000Z</Time>
            <Position>
              <LatitudeDegrees>41.71589213423430919647216796875</LatitudeDegrees>
              <LongitudeDegrees>-0.167962275445461273193359375</LongitudeDegrees>
            </Position>
            <AltitudeMeters>250</AltitudeMeters>
            <DistanceMeters>14180.781832017</DistanceMeters>
          </Trackpoint>
          <Trackpoint>
            <Time>2022-04-23T10:37:23.000Z</Time>
            <Position>
              <LatitudeDegrees>41.71594074927270412445068359375</LatitudeDegrees>
              <LongitudeDegrees>-0.16787803731858730316162109375</LongitudeDegrees>
            </Position>
            <AltitudeMeters>250</AltitudeMeters>
            <DistanceMeters>14189.627997428</DistanceMeters>
          </Trackpoint>
          <Trackpoint>
            <Time>2022-04-23T10:37:25.000Z</Time>
            <Position>
              <LatitudeDegrees>41.7159797251224517822265625</LatitudeDegrees>
              <LongitudeDegrees>-0.16767016611993312835693359375</LongitudeDegrees>
            </Position>
            <AltitudeMeters>249.8000030517578125</AltitudeMeters>
            <DistanceMeters>14207.435050365</DistanceMeters>
          </Trackpoint>
          <Trackpoint>
            <Time>2022-04-23T10:37:27.000Z</Time>
            <Position>
              <LatitudeDegrees>41.71600176952779293060302734375</LatitudeDegrees>
              <LongitudeDegrees>-0.1674290187656879425048828125</LongitudeDegrees>
            </Position>
            <AltitudeMeters>249.600006103515625</AltitudeMeters>
            <DistanceMeters>14227.619672953</DistanceMeters>
          </Trackpoint>
          <Trackpoint>
            <Time>2022-04-23T10:37:29.000Z</Time>
            <Position>
              <LatitudeDegrees>41.71605105511844158172607421875</LatitudeDegrees>
              <LongitudeDegrees>-0.1671745441854000091552734375</LongitudeDegrees>
            </Position>
            <AltitudeMeters>249.1999969482421875</AltitudeMeters>
            <DistanceMeters>14249.461765313</DistanceMeters>
          </Trackpoint>
          <Trackpoint>
            <Time>2022-04-23T10:37:30.000Z</Time>
            <Position>
              <LatitudeDegrees>41.716081984341144561767578125</LatitudeDegrees>
              <LongitudeDegrees>-0.16704730689525604248046875</LongitudeDegrees>
            </Position>
            <AltitudeMeters>249</AltitudeMeters>
            <DistanceMeters>14260.57948479</DistanceMeters>
          </Trackpoint>
          <Trackpoint>
            <Time>2022-04-23T10:37:33.000Z</Time>
            <Position>
              <LatitudeDegrees>41.71617192216217517852783203125</LatitudeDegrees>
              <LongitudeDegrees>-0.16667489893734455108642578125</LongitudeDegrees>
            </Position>
            <AltitudeMeters>248.8000030517578125</AltitudeMeters>
            <DistanceMeters>14293.098759417</DistanceMeters>
          </Trackpoint>
          <Trackpoint>
            <Time>2022-04-23T10:37:34.000Z</Time>
            <Position>
              <LatitudeDegrees>41.71618692576885223388671875</LatitudeDegrees>
              <LongitudeDegrees>-0.1665450632572174072265625</LongitudeDegrees>
            </Position>
            <AltitudeMeters>248.8000030517578125</AltitudeMeters>
            <DistanceMeters>14304.014843365</DistanceMeters>
          </Trackpoint>
          <Trackpoint>
            <Time>2022-04-23T10:37:38.000Z</Time>
            <Position>
              <LatitudeDegrees>41.71623227186501026153564453125</LatitudeDegrees>
              <LongitudeDegrees>-0.16603401862084865570068359375</LongitudeDegrees>
            </Position>
            <AltitudeMeters>248</AltitudeMeters>
            <DistanceMeters>14346.772113232</DistanceMeters>
          </Trackpoint>
          <Trackpoint>
            <Time>2022-04-23T10:37:42.000Z</Time>
            <Position>
              <LatitudeDegrees>41.71626261435449123382568359375</LatitudeDegrees>
              <LongitudeDegrees>-0.16551115550100803375244140625</LongitudeDegrees>
            </Position>
            <AltitudeMeters>247.600006103515625</AltitudeMeters>
            <DistanceMeters>14390.343390254</DistanceMeters>
          </Trackpoint>
          <Trackpoint>
            <Time>2022-04-23T10:37:43.000Z</Time>
            <Position>
              <LatitudeDegrees>41.716256327927112579345703125</LatitudeDegrees>
              <LongitudeDegrees>-0.16537955962121486663818359375</LongitudeDegrees>
            </Position>
            <AltitudeMeters>247.600006103515625</AltitudeMeters>
            <DistanceMeters>14401.29910913</DistanceMeters>
          </Trackpoint>
          <Trackpoint>
            <Time>2022-04-23T10:37:45.000Z</Time>
            <Position>
              <LatitudeDegrees>41.71620679087936878204345703125</LatitudeDegrees>
              <LongitudeDegrees>-0.16511452384293079376220703125</LongitudeDegrees>
            </Position>
            <AltitudeMeters>247.1999969482421875</AltitudeMeters>
            <DistanceMeters>14423.998363785</DistanceMeters>
          </Trackpoint>
          <Trackpoint>
            <Time>2022-04-23T10:37:48.000Z</Time>
            <Position>
              <LatitudeDegrees>41.7161351256072521209716796875</LatitudeDegrees>
              <LongitudeDegrees>-0.16472560353577136993408203125</LongitudeDegrees>
            </Position>
            <AltitudeMeters>247.1999969482421875</AltitudeMeters>
            <DistanceMeters>14457.280376753</DistanceMeters>
          </Trackpoint>
          <Trackpoint>
            <Time>2022-04-23T10:37:49.000Z</Time>
            <Position>
              <LatitudeDegrees>41.71612766571342945098876953125</LatitudeDegrees>
              <LongitudeDegrees>-0.164597444236278533935546875</LongitudeDegrees>
            </Position>
            <AltitudeMeters>247.1999969482421875</AltitudeMeters>
            <DistanceMeters>14467.960635441</DistanceMeters>
          </Trackpoint>
          <Trackpoint>
            <Time>2022-04-23T10:37:53.000Z</Time>
            <Position>
              <LatitudeDegrees>41.71610905788838863372802734375</LatitudeDegrees>
              <LongitudeDegrees>-0.16409159637987613677978515625</LongitudeDegrees>
            </Position>
            <AltitudeMeters>247</AltitudeMeters>
            <DistanceMeters>14510.038267127</DistanceMeters>
          </Trackpoint>
          <Trackpoint>
            <Time>2022-04-23T10:37:54.000Z</Time>
            <Position>
              <LatitudeDegrees>41.7160821519792079925537109375</LatitudeDegrees>
              <LongitudeDegrees>-0.1639729924499988555908203125</LongitudeDegrees>
            </Position>
            <AltitudeMeters>246.600006103515625</AltitudeMeters>
            <DistanceMeters>14520.337164054</DistanceMeters>
          </Trackpoint>
          <Trackpoint>
            <Time>2022-04-23T10:37:57.000Z</Time>
            <Position>
              <LatitudeDegrees>41.71598819084465503692626953125</LatitudeDegrees>
              <LongitudeDegrees>-0.1636377163231372833251953125</LongitudeDegrees>
            </Position>
            <AltitudeMeters>246.1999969482421875</AltitudeMeters>
            <DistanceMeters>14550.090997999</DistanceMeters>
          </Trackpoint>
          <Trackpoint>
            <Time>2022-04-23T10:37:58.000Z</Time>
            <Position>
              <LatitudeDegrees>41.7159819044172763824462890625</LatitudeDegrees>
              <LongitudeDegrees>-0.16352447681128978729248046875</LongitudeDegrees>
            </Position>
            <AltitudeMeters>246.1999969482421875</AltitudeMeters>
            <DistanceMeters>14559.525480683</DistanceMeters>
          </Trackpoint>
          <Trackpoint>
            <Time>2022-04-23T10:37:59.000Z</Time>
            <Position>
              <LatitudeDegrees>41.71599657274782657623291015625</LatitudeDegrees>
              <LongitudeDegrees>-0.16341081820428371429443359375</LongitudeDegrees>
            </Position>
            <AltitudeMeters>246</AltitudeMeters>
            <DistanceMeters>14569.10858443</DistanceMeters>
          </Trackpoint>
          <Trackpoint>
            <Time>2022-04-23T10:38:01.000Z</Time>
            <Position>
              <LatitudeDegrees>41.7160784639418125152587890625</LatitudeDegrees>
              <LongitudeDegrees>-0.1632021926343441009521484375</LongitudeDegrees>
            </Position>
            <AltitudeMeters>245.399993896484375</AltitudeMeters>
            <DistanceMeters>14588.691928031</DistanceMeters>
          </Trackpoint>
          <Trackpoint>
            <Time>2022-04-23T10:38:06.000Z</Time>
            <Position>
              <LatitudeDegrees>41.716287843883037567138671875</LatitudeDegrees>
              <LongitudeDegrees>-0.1626761443912982940673828125</LongitudeDegrees>
            </Position>
            <AltitudeMeters>245.1999969482421875</AltitudeMeters>
            <DistanceMeters>14638.221816963</DistanceMeters>
          </Trackpoint>
          <Trackpoint>
            <Time>2022-04-23T10:38:07.000Z</Time>
            <Position>
              <LatitudeDegrees>41.71633620746433734893798828125</LatitudeDegrees>
              <LongitudeDegrees>-0.1625782437622547149658203125</LongitudeDegrees>
            </Position>
            <AltitudeMeters>245.1999969482421875</AltitudeMeters>
            <DistanceMeters>14647.975372998</DistanceMeters>
          </Trackpoint>
          <Trackpoint>
            <Time>2022-04-23T10:38:10.000Z</Time>
            <Position>
              <LatitudeDegrees>41.716503091156482696533203125</LatitudeDegrees>
              <LongitudeDegrees>-0.16230558045208454132080078125</LongitudeDegrees>
            </Position>
            <AltitudeMeters>243.8000030517578125</AltitudeMeters>
            <DistanceMeters>14677.270122441</DistanceMeters>
          </Trackpoint>
          <Trackpoint>
            <Time>2022-04-23T10:38:11.000Z</Time>
            <Position>
              <LatitudeDegrees>41.71655514277517795562744140625</LatitudeDegrees>
              <LongitudeDegrees>-0.16221824102103710174560546875</LongitudeDegrees>
            </Position>
            <AltitudeMeters>243.399993896484375</AltitudeMeters>
            <DistanceMeters>14686.555550266</DistanceMeters>
          </Trackpoint>
          <Trackpoint>
            <Time>2022-04-23T10:38:13.000Z</Time>
            <Position>
              <LatitudeDegrees>41.71663443557918071746826171875</LatitudeDegrees>
              <LongitudeDegrees>-0.16202344559133052825927734375</LongitudeDegrees>
            </Position>
            <AltitudeMeters>243</AltitudeMeters>
            <DistanceMeters>14704.98926331</DistanceMeters>
          </Trackpoint>
          <Trackpoint>
            <Time>2022-04-23T10:38:15.000Z</Time>
            <Position>
              <LatitudeDegrees>41.7166636884212493896484375</LatitudeDegrees>
              <LongitudeDegrees>-0.1617695577442646026611328125</LongitudeDegrees>
            </Position>
            <AltitudeMeters>242.8000030517578125</AltitudeMeters>
            <DistanceMeters>14726.33222951</DistanceMeters>
          </Trackpoint>
          <Trackpoint>
            <Time>2022-04-23T10:38:16.000Z</Time>
            <Position>
              <LatitudeDegrees>41.716660670936107635498046875</LatitudeDegrees>
              <LongitudeDegrees>-0.161674506962299346923828125</LongitudeDegrees>
            </Position>
            <AltitudeMeters>242.8000030517578125</AltitudeMeters>
            <DistanceMeters>14734.236601649</DistanceMeters>
          </Trackpoint>
          <Trackpoint>
            <Time>2022-04-23T10:38:18.000Z</Time>
            <Position>
              <LatitudeDegrees>41.7166541330516338348388671875</LatitudeDegrees>
              <LongitudeDegrees>-0.16143017448484897613525390625</LongitudeDegrees>
            </Position>
            <AltitudeMeters>242.600006103515625</AltitudeMeters>
            <DistanceMeters>14754.549214797</DistanceMeters>
          </Trackpoint>
          <Trackpoint>
            <Time>2022-04-23T10:38:21.000Z</Time>
            <Position>
              <LatitudeDegrees>41.71669478528201580047607421875</LatitudeDegrees>
              <LongitudeDegrees>-0.161062292754650115966796875</LongitudeDegrees>
            </Position>
            <AltitudeMeters>242.1999969482421875</AltitudeMeters>
            <DistanceMeters>14785.446197843</DistanceMeters>
          </Trackpoint>
          <Trackpoint>
            <Time>2022-04-23T10:38:26.000Z</Time>
            <Position>
              <LatitudeDegrees>41.7167520336806774139404296875</LatitudeDegrees>
              <LongitudeDegrees>-0.16042736358940601348876953125</LongitudeDegrees>
            </Position>
            <AltitudeMeters>242</AltitudeMeters>
            <DistanceMeters>14838.57998389</DistanceMeters>
          </Trackpoint>
          <Trackpoint>
            <Time>2022-04-23T10:38:30.000Z</Time>
            <Position>
              <LatitudeDegrees>41.71679251827299594879150390625</LatitudeDegrees>
              <LongitudeDegrees>-0.15991489402949810028076171875</LongitudeDegrees>
            </Position>
            <AltitudeMeters>242</AltitudeMeters>
            <DistanceMeters>14881.393921779</DistanceMeters>
          </Trackpoint>
          <Trackpoint>
            <Time>2022-04-23T10:38:31.000Z</Time>
            <Position>
              <LatitudeDegrees>41.71678631566464900970458984375</LatitudeDegrees>
              <LongitudeDegrees>-0.15979587100446224212646484375</LongitudeDegrees>
            </Position>
            <AltitudeMeters>241.8000030517578125</AltitudeMeters>
            <DistanceMeters>14891.306806922</DistanceMeters>
          </Trackpoint>
          <Trackpoint>
            <Time>2022-04-23T10:38:32.000Z</Time>
            <Position>
              <LatitudeDegrees>41.7167677916586399078369140625</LatitudeDegrees>
              <LongitudeDegrees>-0.1596921868622303009033203125</LongitudeDegrees>
            </Position>
            <AltitudeMeters>241.8000030517578125</AltitudeMeters>
            <DistanceMeters>14900.164193904</DistanceMeters>
          </Trackpoint>
          <Trackpoint>
            <Time>2022-04-23T10:38:34.000Z</Time>
            <Position>
              <LatitudeDegrees>41.7166943661868572235107421875</LatitudeDegrees>
              <LongitudeDegrees>-0.15952195040881633758544921875</LongitudeDegrees>
            </Position>
            <AltitudeMeters>241.600006103515625</AltitudeMeters>
            <DistanceMeters>14916.498841092</DistanceMeters>
          </Trackpoint>
          <Trackpoint>
            <Time>2022-04-23T10:38:35.000Z</Time>
            <Position>
              <LatitudeDegrees>41.71665404923260211944580078125</LatitudeDegrees>
              <LongitudeDegrees>-0.1594383828341960906982421875</LongitudeDegrees>
            </Position>
            <AltitudeMeters>241.600006103515625</AltitudeMeters>
            <DistanceMeters>14924.765619094</DistanceMeters>
          </Trackpoint>
          <Trackpoint>
            <Time>2022-04-23T10:38:37.000Z</Time>
            <Position>
              <LatitudeDegrees>41.7165971361100673675537109375</LatitudeDegrees>
              <LongitudeDegrees>-0.15925884246826171875</LongitudeDegrees>
            </Position>
            <AltitudeMeters>241.600006103515625</AltitudeMeters>
            <DistanceMeters>14940.971505163</DistanceMeters>
          </Trackpoint>
          <Trackpoint>
            <Time>2022-04-23T10:38:38.000Z</Time>
            <Position>
              <LatitudeDegrees>41.71658514998853206634521484375</LatitudeDegrees>
              <LongitudeDegrees>-0.1591590978205204010009765625</LongitudeDegrees>
            </Position>
            <AltitudeMeters>241.399993896484375</AltitudeMeters>
            <DistanceMeters>14949.365113232</DistanceMeters>
          </Trackpoint>
          <Trackpoint>
            <Time>2022-04-23T10:38:39.000Z</Time>
            <Position>
              <LatitudeDegrees>41.7165716551244258880615234375</LatitudeDegrees>
              <LongitudeDegrees>-0.15905591659247875213623046875</LongitudeDegrees>
            </Position>
            <AltitudeMeters>241</AltitudeMeters>
            <DistanceMeters>14958.068232283</DistanceMeters>
          </Trackpoint>
          <Trackpoint>
            <Time>2022-04-23T10:38:41.000Z</Time>
            <Position>
              <LatitudeDegrees>41.716529242694377899169921875</LatitudeDegrees>
              <LongitudeDegrees>-0.15884955413639545440673828125</LongitudeDegrees>
            </Position>
            <AltitudeMeters>240.8000030517578125</AltitudeMeters>
            <DistanceMeters>14975.851181337</DistanceMeters>
          </Trackpoint>
          <Trackpoint>
            <Time>2022-04-23T10:38:42.000Z</Time>
            <Position>
              <LatitudeDegrees>41.71651574783027172088623046875</LatitudeDegrees>
              <LongitudeDegrees>-0.15874176286160945892333984375</LongitudeDegrees>
            </Position>
            <AltitudeMeters>240.8000030517578125</AltitudeMeters>
            <DistanceMeters>14984.931579347</DistanceMeters>
          </Trackpoint>
          <Trackpoint>
            <Time>2022-04-23T10:38:43.000Z</Time>
            <Position>
              <LatitudeDegrees>41.7165119759738445281982421875</LatitudeDegrees>
              <LongitudeDegrees>-0.15862994827330112457275390625</LongitudeDegrees>
            </Position>
            <AltitudeMeters>240.600006103515625</AltitudeMeters>
            <DistanceMeters>14994.230612201</DistanceMeters>
          </Trackpoint>
          <Trackpoint>
            <Time>2022-04-23T10:38:46.000Z</Time>
            <Position>
              <LatitudeDegrees>41.716525219380855560302734375</LatitudeDegrees>
              <LongitudeDegrees>-0.1582903973758220672607421875</LongitudeDegrees>
            </Position>
            <AltitudeMeters>240.1999969482421875</AltitudeMeters>
            <DistanceMeters>15022.479291026</DistanceMeters>
          </Trackpoint>
          <Trackpoint>
            <Time>2022-04-23T10:38:47.000Z</Time>
            <Position>
              <LatitudeDegrees>41.71650988049805164337158203125</LatitudeDegrees>
              <LongitudeDegrees>-0.15814907848834991455078125</LongitudeDegrees>
            </Position>
            <AltitudeMeters>240</AltitudeMeters>
            <DistanceMeters>15034.343558033</DistanceMeters>
          </Trackpoint>
          <Trackpoint>
            <Time>2022-04-23T10:38:50.000Z</Time>
            <Position>
              <LatitudeDegrees>41.7164439149200916290283203125</LatitudeDegrees>
              <LongitudeDegrees>-0.15781623311340808868408203125</LongitudeDegrees>
            </Position>
            <AltitudeMeters>240</AltitudeMeters>
            <DistanceMeters>15062.954648362</DistanceMeters>
          </Trackpoint>
          <Trackpoint>
            <Time>2022-04-23T10:38:53.000Z</Time>
            <Position>
              <LatitudeDegrees>41.7163453437387943267822265625</LatitudeDegrees>
              <LongitudeDegrees>-0.15747961588203907012939453125</LongitudeDegrees>
            </Position>
            <AltitudeMeters>239.399993896484375</AltitudeMeters>
            <DistanceMeters>15092.996168464</DistanceMeters>
          </Trackpoint>
          <Trackpoint>
            <Time>2022-04-23T10:38:56.000Z</Time>
            <Position>
              <LatitudeDegrees>41.716234199702739715576171875</LatitudeDegrees>
              <LongitudeDegrees>-0.15711508691310882568359375</LongitudeDegrees>
            </Position>
            <AltitudeMeters>239</AltitudeMeters>
            <DistanceMeters>15125.710762457</DistanceMeters>
          </Trackpoint>
          <Trackpoint>
            <Time>2022-04-23T10:39:01.000Z</Time>
            <Position>
              <LatitudeDegrees>41.716027669608592987060546875</LatitudeDegrees>
              <LongitudeDegrees>-0.15660588629543781280517578125</LongitudeDegrees>
            </Position>
            <AltitudeMeters>238.8000030517578125</AltitudeMeters>
            <DistanceMeters>15173.85790198</DistanceMeters>
          </Trackpoint>
          <Trackpoint>
            <Time>2022-04-23T10:39:03.000Z</Time>
            <Position>
              <LatitudeDegrees>41.7159487120807170867919921875</LatitudeDegrees>
              <LongitudeDegrees>-0.15638024546205997467041015625</LongitudeDegrees>
            </Position>
            <AltitudeMeters>238.399993896484375</AltitudeMeters>
            <DistanceMeters>15194.562171077</DistanceMeters>
          </Trackpoint>
          <Trackpoint>
            <Time>2022-04-23T10:39:04.000Z</Time>
            <Position>
              <LatitudeDegrees>41.71590395271778106689453125</LatitudeDegrees>
              <LongitudeDegrees>-0.15627421438694000244140625</LongitudeDegrees>
            </Position>
            <AltitudeMeters>238.399993896484375</AltitudeMeters>
            <DistanceMeters>15204.682404624</DistanceMeters>
          </Trackpoint>
          <Trackpoint>
            <Time>2022-04-23T10:39:06.000Z</Time>
            <Position>
              <LatitudeDegrees>41.71582222916185855865478515625</LatitudeDegrees>
              <LongitudeDegrees>-0.1560715399682521820068359375</LongitudeDegrees>
            </Position>
            <AltitudeMeters>238.1999969482421875</AltitudeMeters>
            <DistanceMeters>15223.820558418</DistanceMeters>
          </Trackpoint>
          <Trackpoint>
            <Time>2022-04-23T10:39:08.000Z</Time>
            <Position>
              <LatitudeDegrees>41.7157502286136150360107421875</LatitudeDegrees>
              <LongitudeDegrees>-0.155871212482452392578125</LongitudeDegrees>
            </Position>
            <AltitudeMeters>237.600006103515625</AltitudeMeters>
            <DistanceMeters>15242.292930454</DistanceMeters>
          </Trackpoint>
          <Trackpoint>
            <Time>2022-04-23T10:39:10.000Z</Time>
            <Position>
              <LatitudeDegrees>41.7157123424112796783447265625</LatitudeDegrees>
              <LongitudeDegrees>-0.155650265514850616455078125</LongitudeDegrees>
            </Position>
            <AltitudeMeters>237.1999969482421875</AltitudeMeters>
            <DistanceMeters>15261.128126584</DistanceMeters>
          </Trackpoint>
          <Trackpoint>
            <Time>2022-04-23T10:39:11.000Z</Time>
            <Position>
              <LatitudeDegrees>41.71570505015552043914794921875</LatitudeDegrees>
              <LongitudeDegrees>-0.15553166158497333526611328125</LongitudeDegrees>
            </Position>
            <AltitudeMeters>237.1999969482421875</AltitudeMeters>
            <DistanceMeters>15271.015472415</DistanceMeters>
          </Trackpoint>
          <Trackpoint>
            <Time>2022-04-23T10:39:13.000Z</Time>
            <Position>
              <LatitudeDegrees>41.7156979255378246307373046875</LatitudeDegrees>
              <LongitudeDegrees>-0.1552977226674556732177734375</LongitudeDegrees>
            </Position>
            <AltitudeMeters>237.1999969482421875</AltitudeMeters>
            <DistanceMeters>15290.467884176</DistanceMeters>
          </Trackpoint>
          <Trackpoint>
            <Time>2022-04-23T10:39:14.000Z</Time>
            <Position>
              <LatitudeDegrees>41.71568241901695728302001953125</LatitudeDegrees>
              <LongitudeDegrees>-0.15518029220402240753173828125</LongitudeDegrees>
            </Position>
            <AltitudeMeters>237</AltitudeMeters>
            <DistanceMeters>15300.375302152</DistanceMeters>
          </Trackpoint>
          <Trackpoint>
            <Time>2022-04-23T10:39:18.000Z</Time>
            <Position>
              <LatitudeDegrees>41.7156405933201313018798828125</LatitudeDegrees>
              <LongitudeDegrees>-0.1547518931329250335693359375</LongitudeDegrees>
            </Position>
            <AltitudeMeters>236.399993896484375</AltitudeMeters>
            <DistanceMeters>15336.270755173</DistanceMeters>
          </Trackpoint>
          <Trackpoint>
            <Time>2022-04-23T10:39:21.000Z</Time>
            <Position>
              <LatitudeDegrees>41.7156315408647060394287109375</LatitudeDegrees>
              <LongitudeDegrees>-0.15445701777935028076171875</LongitudeDegrees>
            </Position>
            <AltitudeMeters>236.1999969482421875</AltitudeMeters>
            <DistanceMeters>15360.79022559</DistanceMeters>
          </Trackpoint>
          <Trackpoint>
            <Time>2022-04-23T10:39:22.000Z</Time>
            <Position>
              <LatitudeDegrees>41.715619303286075592041015625</LatitudeDegrees>
              <LongitudeDegrees>-0.15435551293194293975830078125</LongitudeDegrees>
            </Position>
            <AltitudeMeters>236.1999969482421875</AltitudeMeters>
            <DistanceMeters>15369.333121926</DistanceMeters>
          </Trackpoint>
          <Trackpoint>
            <Time>2022-04-23T10:39:23.000Z</Time>
            <Position>
              <LatitudeDegrees>41.71559751033782958984375</LatitudeDegrees>
              <LongitudeDegrees>-0.15425442717969417572021484375</LongitudeDegrees>
            </Position>
            <AltitudeMeters>235.8000030517578125</AltitudeMeters>
            <DistanceMeters>15378.074546688</DistanceMeters>
          </Trackpoint>
          <Trackpoint>
            <Time>2022-04-23T10:39:24.000Z</Time>
            <Position>
              <LatitudeDegrees>41.71556456945836544036865234375</LatitudeDegrees>
              <LongitudeDegrees>-0.15415686182677745819091796875</LongitudeDegrees>
            </Position>
            <AltitudeMeters>235.8000030517578125</AltitudeMeters>
            <DistanceMeters>15386.970590188</DistanceMeters>
          </Trackpoint>
          <Trackpoint>
            <Time>2022-04-23T10:39:26.000Z</Time>
            <Position>
              <LatitudeDegrees>41.715488545596599578857421875</LatitudeDegrees>
              <LongitudeDegrees>-0.15396810136735439300537109375</LongitudeDegrees>
            </Position>
            <AltitudeMeters>235.600006103515625</AltitudeMeters>
            <DistanceMeters>15404.790569656</DistanceMeters>
          </Trackpoint>
          <Trackpoint>
            <Time>2022-04-23T10:39:27.000Z</Time>
            <Position>
              <LatitudeDegrees>41.71546163968741893768310546875</LatitudeDegrees>
              <LongitudeDegrees>-0.15388126485049724578857421875</LongitudeDegrees>
            </Position>
            <AltitudeMeters>235.600006103515625</AltitudeMeters>
            <DistanceMeters>15412.601280024</DistanceMeters>
          </Trackpoint>
          <Trackpoint>
            <Time>2022-04-23T10:39:28.000Z</Time>
            <Position>
              <LatitudeDegrees>41.715430207550525665283203125</LatitudeDegrees>
              <LongitudeDegrees>-0.15379291959106922149658203125</LongitudeDegrees>
            </Position>
            <AltitudeMeters>235.399993896484375</AltitudeMeters>
            <DistanceMeters>15420.732591094</DistanceMeters>
          </Trackpoint>
          <Trackpoint>
            <Time>2022-04-23T10:39:30.000Z</Time>
            <Position>
              <LatitudeDegrees>41.71536508016288280487060546875</LatitudeDegrees>
              <LongitudeDegrees>-0.153707005083560943603515625</LongitudeDegrees>
            </Position>
            <AltitudeMeters>234.8000030517578125</AltitudeMeters>
            <DistanceMeters>15430.906220545</DistanceMeters>
          </Trackpoint>
          <Trackpoint>
            <Time>2022-04-23T10:39:33.000Z</Time>
            <Position>
              <LatitudeDegrees>41.7152570374310016632080078125</LatitudeDegrees>
              <LongitudeDegrees>-0.1537041552364826202392578125</LongitudeDegrees>
            </Position>
            <AltitudeMeters>234.1999969482421875</AltitudeMeters>
            <DistanceMeters>15442.933764959</DistanceMeters>
          </Trackpoint>
          <Trackpoint>
            <Time>2022-04-23T10:39:37.000Z</Time>
            <Position>
              <LatitudeDegrees>41.715124435722827911376953125</LatitudeDegrees>
              <LongitudeDegrees>-0.15386802144348621368408203125</LongitudeDegrees>
            </Position>
            <AltitudeMeters>233.8000030517578125</AltitudeMeters>
            <DistanceMeters>15463.012979413</DistanceMeters>
          </Trackpoint>
          <Trackpoint>
            <Time>2022-04-23T10:39:41.000Z</Time>
            <Position>
              <LatitudeDegrees>41.71502645127475261688232421875</LatitudeDegrees>
              <LongitudeDegrees>-0.15416775830090045928955078125</LongitudeDegrees>
            </Position>
            <AltitudeMeters>234</AltitudeMeters>
            <DistanceMeters>15490.19942322</DistanceMeters>
          </Trackpoint>
          <Trackpoint>
            <Time>2022-04-23T10:39:43.000Z</Time>
            <Position>
              <LatitudeDegrees>41.7149683646857738494873046875</LatitudeDegrees>
              <LongitudeDegrees>-0.1543150283396244049072265625</LongitudeDegrees>
            </Position>
            <AltitudeMeters>234</AltitudeMeters>
            <DistanceMeters>15504.038132019</DistanceMeters>
          </Trackpoint>
          <Trackpoint>
            <Time>2022-04-23T10:39:45.000Z</Time>
            <Position>
              <LatitudeDegrees>41.71489435248076915740966796875</LatitudeDegrees>
              <LongitudeDegrees>-0.15443061478435993194580078125</LongitudeDegrees>
            </Position>
            <AltitudeMeters>234</AltitudeMeters>
            <DistanceMeters>15516.690609847</DistanceMeters>
          </Trackpoint>
          <Trackpoint>
            <Time>2022-04-23T10:39:46.000Z</Time>
            <Position>
              <LatitudeDegrees>41.71483953483402729034423828125</LatitudeDegrees>
              <LongitudeDegrees>-0.15447922982275485992431640625</LongitudeDegrees>
            </Position>
            <AltitudeMeters>234</AltitudeMeters>
            <DistanceMeters>15524.007666854</DistanceMeters>
          </Trackpoint>
          <Trackpoint>
            <Time>2022-04-23T10:39:51.000Z</Time>
            <Position>
              <LatitudeDegrees>41.7146186716854572296142578125</LatitudeDegrees>
              <LongitudeDegrees>-0.15465206466615200042724609375</LongitudeDegrees>
            </Position>
            <AltitudeMeters>235</AltitudeMeters>
            <DistanceMeters>15552.47701074</DistanceMeters>
          </Trackpoint>
          <Trackpoint>
            <Time>2022-04-23T10:39:52.000Z</Time>
            <Position>
              <LatitudeDegrees>41.71456712298095226287841796875</LatitudeDegrees>
              <LongitudeDegrees>-0.154686011373996734619140625</LongitudeDegrees>
            </Position>
            <AltitudeMeters>235.1999969482421875</AltitudeMeters>
            <DistanceMeters>15558.87139782</DistanceMeters>
          </Trackpoint>
          <Trackpoint>
            <Time>2022-04-23T10:39:54.000Z</Time>
            <Position>
              <LatitudeDegrees>41.7144664563238620758056640625</LatitudeDegrees>
              <LongitudeDegrees>-0.15474795363843441009521484375</LongitudeDegrees>
            </Position>
            <AltitudeMeters>235.399993896484375</AltitudeMeters>
            <DistanceMeters>15571.20145731</DistanceMeters>
          </Trackpoint>
          <Trackpoint>
            <Time>2022-04-23T10:39:56.000Z</Time>
            <Position>
              <LatitudeDegrees>41.71437148936092853546142578125</LatitudeDegrees>
              <LongitudeDegrees>-0.1548291742801666259765625</LongitudeDegrees>
            </Position>
            <AltitudeMeters>235.399993896484375</AltitudeMeters>
            <DistanceMeters>15583.742103678</DistanceMeters>
          </Trackpoint>
          <Trackpoint>
            <Time>2022-04-23T10:39:57.000Z</Time>
            <Position>
              <LatitudeDegrees>41.71431935392320156097412109375</LatitudeDegrees>
              <LongitudeDegrees>-0.154865719377994537353515625</LongitudeDegrees>
            </Position>
            <AltitudeMeters>235.8000030517578125</AltitudeMeters>
            <DistanceMeters>15590.291367997</DistanceMeters>
          </Trackpoint>
          <Trackpoint>
            <Time>2022-04-23T10:39:58.000Z</Time>
            <Position>
              <LatitudeDegrees>41.71426403336226940155029296875</LatitudeDegrees>
              <LongitudeDegrees>-0.15488876961171627044677734375</LongitudeDegrees>
            </Position>
            <AltitudeMeters>235.8000030517578125</AltitudeMeters>
            <DistanceMeters>15596.739194913</DistanceMeters>
          </Trackpoint>
          <Trackpoint>
            <Time>2022-04-23T10:40:00.000Z</Time>
            <Position>
              <LatitudeDegrees>41.7141531407833099365234375</LatitudeDegrees>
              <LongitudeDegrees>-0.15492799691855907440185546875</LongitudeDegrees>
            </Position>
            <AltitudeMeters>235.600006103515625</AltitudeMeters>
            <DistanceMeters>15609.504646707</DistanceMeters>
          </Trackpoint>
          <Trackpoint>
            <Time>2022-04-23T10:40:05.000Z</Time>
            <Position>
              <LatitudeDegrees>41.71389472670853137969970703125</LatitudeDegrees>
              <LongitudeDegrees>-0.1550784520804882049560546875</LongitudeDegrees>
            </Position>
            <AltitudeMeters>235</AltitudeMeters>
            <DistanceMeters>15640.865766043</DistanceMeters>
          </Trackpoint>
          <Trackpoint>
            <Time>2022-04-23T10:40:06.000Z</Time>
            <Position>
              <LatitudeDegrees>41.71385080553591251373291015625</LatitudeDegrees>
              <LongitudeDegrees>-0.15509404242038726806640625</LongitudeDegrees>
            </Position>
            <AltitudeMeters>235</AltitudeMeters>
            <DistanceMeters>15645.922758874</DistanceMeters>
          </Trackpoint>
          <Trackpoint>
            <Time>2022-04-23T10:40:08.000Z</Time>
            <Position>
              <LatitudeDegrees>41.71377721242606639862060546875</LatitudeDegrees>
              <LongitudeDegrees>-0.15511977486312389373779296875</LongitudeDegrees>
            </Position>
            <AltitudeMeters>234.600006103515625</AltitudeMeters>
            <DistanceMeters>15654.388140534</DistanceMeters>
          </Trackpoint>
          <Trackpoint>
            <Time>2022-04-23T10:40:11.000Z</Time>
            <Position>
              <LatitudeDegrees>41.71367461793124675750732421875</LatitudeDegrees>
              <LongitudeDegrees>-0.15512329526245594024658203125</LongitudeDegrees>
            </Position>
            <AltitudeMeters>234.399993896484375</AltitudeMeters>
            <DistanceMeters>15665.81033579</DistanceMeters>
          </Trackpoint>
          <Trackpoint>
            <Time>2022-04-23T10:40:15.000Z</Time>
            <Position>
              <LatitudeDegrees>41.71351888217031955718994140625</LatitudeDegrees>
              <LongitudeDegrees>-0.1551294140517711639404296875</LongitudeDegrees>
            </Position>
            <AltitudeMeters>234.399993896484375</AltitudeMeters>
            <DistanceMeters>15683.151344286</DistanceMeters>
          </Trackpoint>
          <Trackpoint>
            <Time>2022-04-23T10:40:16.000Z</Time>
            <Position>
              <LatitudeDegrees>41.7134706862270832061767578125</LatitudeDegrees>
              <LongitudeDegrees>-0.1551491953432559967041015625</LongitudeDegrees>
            </Position>
            <AltitudeMeters>234.600006103515625</AltitudeMeters>
            <DistanceMeters>15688.761945545</DistanceMeters>
          </Trackpoint>
          <Trackpoint>
            <Time>2022-04-23T10:40:20.000Z</Time>
            <Position>
              <LatitudeDegrees>41.71326340176165103912353515625</LatitudeDegrees>
              <LongitudeDegrees>-0.15524156391620635986328125</LongitudeDegrees>
            </Position>
            <AltitudeMeters>234.600006103515625</AltitudeMeters>
            <DistanceMeters>15713.075974716</DistanceMeters>
          </Trackpoint>
          <Trackpoint>
            <Time>2022-04-23T10:40:21.000Z</Time>
            <Position>
              <LatitudeDegrees>41.71319425106048583984375</LatitudeDegrees>
              <LongitudeDegrees>-0.15526059083640575408935546875</LongitudeDegrees>
            </Position>
            <AltitudeMeters>234.8000030517578125</AltitudeMeters>
            <DistanceMeters>15720.933368218</DistanceMeters>
          </Trackpoint>
          <Trackpoint>
            <Time>2022-04-23T10:40:24.000Z</Time>
            <Position>
              <LatitudeDegrees>41.71301496215164661407470703125</LatitudeDegrees>
              <LongitudeDegrees>-0.1552796177566051483154296875</LongitudeDegrees>
            </Position>
            <AltitudeMeters>234.600006103515625</AltitudeMeters>
            <DistanceMeters>15740.950875859</DistanceMeters>
          </Trackpoint>
          <Trackpoint>
            <Time>2022-04-23T10:40:27.000Z</Time>
            <Position>
              <LatitudeDegrees>41.7128259502351284027099609375</LatitudeDegrees>
              <LongitudeDegrees>-0.1553067751228809356689453125</LongitudeDegrees>
            </Position>
            <AltitudeMeters>234</AltitudeMeters>
            <DistanceMeters>15762.10878241</DistanceMeters>
          </Trackpoint>
          <Trackpoint>
            <Time>2022-04-23T10:40:30.000Z</Time>
            <Position>
              <LatitudeDegrees>41.71263643540441989898681640625</LatitudeDegrees>
              <LongitudeDegrees>-0.15539042651653289794921875</LongitudeDegrees>
            </Position>
            <AltitudeMeters>233.8000030517578125</AltitudeMeters>
            <DistanceMeters>15784.317605104</DistanceMeters>
          </Trackpoint>
          <Trackpoint>
            <Time>2022-04-23T10:40:33.000Z</Time>
            <Position>
              <LatitudeDegrees>41.71244029887020587921142578125</LatitudeDegrees>
              <LongitudeDegrees>-0.15551992692053318023681640625</LongitudeDegrees>
            </Position>
            <AltitudeMeters>233.399993896484375</AltitudeMeters>
            <DistanceMeters>15808.655577378</DistanceMeters>
          </Trackpoint>
          <Trackpoint>
            <Time>2022-04-23T10:40:38.000Z</Time>
            <Position>
              <LatitudeDegrees>41.71212513931095600128173828125</LatitudeDegrees>
              <LongitudeDegrees>-0.15569678507745265960693359375</LongitudeDegrees>
            </Position>
            <AltitudeMeters>232.399993896484375</AltitudeMeters>
            <DistanceMeters>15846.68692582</DistanceMeters>
          </Trackpoint>
          <Trackpoint>
            <Time>2022-04-23T10:40:39.000Z</Time>
            <Position>
              <LatitudeDegrees>41.71206713654100894927978515625</LatitudeDegrees>
              <LongitudeDegrees>-0.15572109259665012359619140625</LongitudeDegrees>
            </Position>
            <AltitudeMeters>232.399993896484375</AltitudeMeters>
            <DistanceMeters>15853.451866871</DistanceMeters>
          </Trackpoint>
          <Trackpoint>
            <Time>2022-04-23T10:40:43.000Z</Time>
            <Position>
              <LatitudeDegrees>41.71184317208826541900634765625</LatitudeDegrees>
              <LongitudeDegrees>-0.15578848309814929962158203125</LongitudeDegrees>
            </Position>
            <AltitudeMeters>231.8000030517578125</AltitudeMeters>
            <DistanceMeters>15879.000625662</DistanceMeters>
          </Trackpoint>
          <Trackpoint>
            <Time>2022-04-23T10:40:45.000Z</Time>
            <Position>
              <LatitudeDegrees>41.7117409966886043548583984375</LatitudeDegrees>
              <LongitudeDegrees>-0.15576937235891819000244140625</LongitudeDegrees>
            </Position>
            <AltitudeMeters>231.1999969482421875</AltitudeMeters>
            <DistanceMeters>15890.483140463</DistanceMeters>
          </Trackpoint>
          <Trackpoint>
            <Time>2022-04-23T10:40:46.000Z</Time>
            <Position>
              <LatitudeDegrees>41.7117000930011272430419921875</LatitudeDegrees>
              <LongitudeDegrees>-0.1557290554046630859375</LongitudeDegrees>
            </Position>
            <AltitudeMeters>231.1999969482421875</AltitudeMeters>
            <DistanceMeters>15896.135432959</DistanceMeters>
          </Trackpoint>
          <Trackpoint>
            <Time>2022-04-23T10:40:47.000Z</Time>
            <Position>
              <LatitudeDegrees>41.71167637221515178680419921875</LatitudeDegrees>
              <LongitudeDegrees>-0.1556692086160182952880859375</LongitudeDegrees>
            </Position>
            <AltitudeMeters>231</AltitudeMeters>
            <DistanceMeters>15901.765314691</DistanceMeters>
          </Trackpoint>
          <Trackpoint>
            <Time>2022-04-23T10:40:49.000Z</Time>
            <Position>
              <LatitudeDegrees>41.71165005303919315338134765625</LatitudeDegrees>
              <LongitudeDegrees>-0.15553970821201801300048828125</LongitudeDegrees>
            </Position>
            <AltitudeMeters>230.600006103515625</AltitudeMeters>
            <DistanceMeters>15912.916690512</DistanceMeters>
          </Trackpoint>
          <Trackpoint>
            <Time>2022-04-23T10:40:50.000Z</Time>
            <Position>
              <LatitudeDegrees>41.7116481252014636993408203125</LatitudeDegrees>
              <LongitudeDegrees>-0.15547215007245540618896484375</LongitudeDegrees>
            </Position>
            <AltitudeMeters>230.1999969482421875</AltitudeMeters>
            <DistanceMeters>15918.533725949</DistanceMeters>
          </Trackpoint>
          <Trackpoint>
            <Time>2022-04-23T10:40:51.000Z</Time>
            <Position>
              <LatitudeDegrees>41.7116498015820980072021484375</LatitudeDegrees>
              <LongitudeDegrees>-0.155406855046749114990234375</LongitudeDegrees>
            </Position>
            <AltitudeMeters>230</AltitudeMeters>
            <DistanceMeters>15923.961906071</DistanceMeters>
          </Trackpoint>
          <Trackpoint>
            <Time>2022-04-23T10:40:54.000Z</Time>
            <Position>
              <LatitudeDegrees>41.7116828262805938720703125</LatitudeDegrees>
              <LongitudeDegrees>-0.15520158223807811737060546875</LongitudeDegrees>
            </Position>
            <AltitudeMeters>229.600006103515625</AltitudeMeters>
            <DistanceMeters>15941.409079966</DistanceMeters>
          </Trackpoint>
          <Trackpoint>
            <Time>2022-04-23T10:40:58.000Z</Time>
            <Position>
              <LatitudeDegrees>41.71171207912266254425048828125</LatitudeDegrees>
              <LongitudeDegrees>-0.15488273464143276214599609375</LongitudeDegrees>
            </Position>
            <AltitudeMeters>229.1999969482421875</AltitudeMeters>
            <DistanceMeters>15968.100593807</DistanceMeters>
          </Trackpoint>
          <Trackpoint>
            <Time>2022-04-23T10:40:59.000Z</Time>
            <Position>
              <LatitudeDegrees>41.71170118264853954315185546875</LatitudeDegrees>
              <LongitudeDegrees>-0.1548023521900177001953125</LongitudeDegrees>
            </Position>
            <AltitudeMeters>229.1999969482421875</AltitudeMeters>
            <DistanceMeters>15974.88951936</DistanceMeters>
          </Trackpoint>
          <Trackpoint>
            <Time>2022-04-23T10:41:00.000Z</Time>
            <Position>
              <LatitudeDegrees>41.71167972497642040252685546875</LatitudeDegrees>
              <LongitudeDegrees>-0.15472968108952045440673828125</LongitudeDegrees>
            </Position>
            <AltitudeMeters>229.1999969482421875</AltitudeMeters>
            <DistanceMeters>15981.382007084</DistanceMeters>
          </Trackpoint>
          <Trackpoint>
            <Time>2022-04-23T10:41:01.000Z</Time>
            <Position>
              <LatitudeDegrees>41.71164871193468570709228515625</LatitudeDegrees>
              <LongitudeDegrees>-0.15466949902474880218505859375</LongitudeDegrees>
            </Position>
            <AltitudeMeters>229.1999969482421875</AltitudeMeters>
            <DistanceMeters>15987.457774731</DistanceMeters>
          </Trackpoint>
          <Trackpoint>
            <Time>2022-04-23T10:41:02.000Z</Time>
            <Position>
              <LatitudeDegrees>41.71161099337041378021240234375</LatitudeDegrees>
              <LongitudeDegrees>-0.15462088398635387420654296875</LongitudeDegrees>
            </Position>
            <AltitudeMeters>229.1999969482421875</AltitudeMeters>
            <DistanceMeters>15993.283152596</DistanceMeters>
          </Trackpoint>
          <Trackpoint>
            <Time>2022-04-23T10:41:04.000Z</Time>
            <Position>
              <LatitudeDegrees>41.71151627786457538604736328125</LatitudeDegrees>
              <LongitudeDegrees>-0.1545614562928676605224609375</LongitudeDegrees>
            </Position>
            <AltitudeMeters>229.399993896484375</AltitudeMeters>
            <DistanceMeters>16004.924216001</DistanceMeters>
          </Trackpoint>
          <Trackpoint>
            <Time>2022-04-23T10:41:05.000Z</Time>
            <Position>
              <LatitudeDegrees>41.71146087348461151123046875</LatitudeDegrees>
              <LongitudeDegrees>-0.15455617569386959075927734375</LongitudeDegrees>
            </Position>
            <AltitudeMeters>229.600006103515625</AltitudeMeters>
            <DistanceMeters>16011.106067141</DistanceMeters>
          </Trackpoint>
          <Trackpoint>
            <Time>2022-04-23T10:41:06.000Z</Time>
            <Position>
              <LatitudeDegrees>41.71140111051499843597412109375</LatitudeDegrees>
              <LongitudeDegrees>-0.15456807799637317657470703125</LongitudeDegrees>
            </Position>
            <AltitudeMeters>229.8000030517578125</AltitudeMeters>
            <DistanceMeters>16017.830843927</DistanceMeters>
          </Trackpoint>
          <Trackpoint>
            <Time>2022-04-23T10:41:08.000Z</Time>
            <Position>
              <LatitudeDegrees>41.7112769745290279388427734375</LatitudeDegrees>
              <LongitudeDegrees>-0.154602862894535064697265625</LongitudeDegrees>
            </Position>
            <AltitudeMeters>230.1999969482421875</AltitudeMeters>
            <DistanceMeters>16031.946389852</DistanceMeters>
          </Trackpoint>
          <Trackpoint>
            <Time>2022-04-23T10:41:09.000Z</Time>
            <Position>
              <LatitudeDegrees>41.71121804974973201751708984375</LatitudeDegrees>
              <LongitudeDegrees>-0.15461535193026065826416015625</LongitudeDegrees>
            </Position>
            <AltitudeMeters>230.399993896484375</AltitudeMeters>
            <DistanceMeters>16038.586030896</DistanceMeters>
          </Trackpoint>
          <Trackpoint>
            <Time>2022-04-23T10:41:17.000Z</Time>
            <Position>
              <LatitudeDegrees>41.71073826961219310760498046875</LatitudeDegrees>
              <LongitudeDegrees>-0.15477343462407588958740234375</LongitudeDegrees>
            </Position>
            <AltitudeMeters>230.8000030517578125</AltitudeMeters>
            <DistanceMeters>16093.578180161</DistanceMeters>
          </Trackpoint>
          <Trackpoint>
            <Time>2022-04-23T10:41:18.000Z</Time>
            <Position>
              <LatitudeDegrees>41.71067959628999233245849609375</LatitudeDegrees>
              <LongitudeDegrees>-0.15478969551622867584228515625</LongitudeDegrees>
            </Position>
            <AltitudeMeters>230.8000030517578125</AltitudeMeters>
            <DistanceMeters>16100.246320562</DistanceMeters>
          </Trackpoint>
          <Trackpoint>
            <Time>2022-04-23T10:41:24.000Z</Time>
            <Position>
              <LatitudeDegrees>41.71031431294977664947509765625</LatitudeDegrees>
              <LongitudeDegrees>-0.1549007557332515716552734375</LongitudeDegrees>
            </Position>
            <AltitudeMeters>230.8000030517578125</AltitudeMeters>
            <DistanceMeters>16141.937172965</DistanceMeters>
          </Trackpoint>
          <Trackpoint>
            <Time>2022-04-23T10:41:25.000Z</Time>
            <Position>
              <LatitudeDegrees>41.710257567465305328369140625</LatitudeDegrees>
              <LongitudeDegrees>-0.1549362950026988983154296875</LongitudeDegrees>
            </Position>
            <AltitudeMeters>230.8000030517578125</AltitudeMeters>
            <DistanceMeters>16148.909181392</DistanceMeters>
          </Trackpoint>
          <Trackpoint>
            <Time>2022-04-23T10:41:27.000Z</Time>
            <Position>
              <LatitudeDegrees>41.710152290761470794677734375</LatitudeDegrees>
              <LongitudeDegrees>-0.15503293834626674652099609375</LongitudeDegrees>
            </Position>
            <AltitudeMeters>230.8000030517578125</AltitudeMeters>
            <DistanceMeters>16163.114324412</DistanceMeters>
          </Trackpoint>
          <Trackpoint>
            <Time>2022-04-23T10:41:28.000Z</Time>
            <Position>
              <LatitudeDegrees>41.71009638346731662750244140625</LatitudeDegrees>
              <LongitudeDegrees>-0.15507015399634838104248046875</LongitudeDegrees>
            </Position>
            <AltitudeMeters>230.8000030517578125</AltitudeMeters>
            <DistanceMeters>16170.062980307</DistanceMeters>
          </Trackpoint>
          <Trackpoint>
            <Time>2022-04-23T10:41:29.000Z</Time>
            <Position>
              <LatitudeDegrees>41.7100361175835132598876953125</LatitudeDegrees>
              <LongitudeDegrees>-0.15509613789618015289306640625</LongitudeDegrees>
            </Position>
            <AltitudeMeters>230.8000030517578125</AltitudeMeters>
            <DistanceMeters>16177.109709361</DistanceMeters>
          </Trackpoint>
          <Trackpoint>
            <Time>2022-04-23T10:41:33.000Z</Time>
            <Position>
              <LatitudeDegrees>41.70978340320289134979248046875</LatitudeDegrees>
              <LongitudeDegrees>-0.15516788698732852935791015625</LongitudeDegrees>
            </Position>
            <AltitudeMeters>230.8000030517578125</AltitudeMeters>
            <DistanceMeters>16205.862161403</DistanceMeters>
          </Trackpoint>
          <Trackpoint>
            <Time>2022-04-23T10:41:40.000Z</Time>
            <Position>
              <LatitudeDegrees>41.7093638889491558074951171875</LatitudeDegrees>
              <LongitudeDegrees>-0.15525505878031253814697265625</LongitudeDegrees>
            </Position>
            <AltitudeMeters>230.8000030517578125</AltitudeMeters>
            <DistanceMeters>16253.113472504</DistanceMeters>
          </Trackpoint>
          <Trackpoint>
            <Time>2022-04-23T10:41:47.000Z</Time>
            <Position>
              <LatitudeDegrees>41.708922497928142547607421875</LatitudeDegrees>
              <LongitudeDegrees>-0.15523695386946201324462890625</LongitudeDegrees>
            </Position>
            <AltitudeMeters>230.399993896484375</AltitudeMeters>
            <DistanceMeters>16302.264243515</DistanceMeters>
          </Trackpoint>
          <Trackpoint>
            <Time>2022-04-23T10:41:52.000Z</Time>
            <Position>
              <LatitudeDegrees>41.7085716314613819122314453125</LatitudeDegrees>
              <LongitudeDegrees>-0.15519420616328716278076171875</LongitudeDegrees>
            </Position>
            <AltitudeMeters>230.600006103515625</AltitudeMeters>
            <DistanceMeters>16341.477475174</DistanceMeters>
          </Trackpoint>
          <Trackpoint>
            <Time>2022-04-23T10:41:58.000Z</Time>
            <Position>
              <LatitudeDegrees>41.70812730677425861358642578125</LatitudeDegrees>
              <LongitudeDegrees>-0.15512748621404170989990234375</LongitudeDegrees>
            </Position>
            <AltitudeMeters>230.600006103515625</AltitudeMeters>
            <DistanceMeters>16391.241360516</DistanceMeters>
          </Trackpoint>
          <Trackpoint>
            <Time>2022-04-23T10:42:04.000Z</Time>
            <Position>
              <LatitudeDegrees>41.707689352333545684814453125</LatitudeDegrees>
              <LongitudeDegrees>-0.15508272685110569000244140625</LongitudeDegrees>
            </Position>
            <AltitudeMeters>229.8000030517578125</AltitudeMeters>
            <DistanceMeters>16440.128149036</DistanceMeters>
          </Trackpoint>
          <Trackpoint>
            <Time>2022-04-23T10:42:08.000Z</Time>
            <Position>
              <LatitudeDegrees>41.70747779309749603271484375</LatitudeDegrees>
              <LongitudeDegrees>-0.15509127639234066009521484375</LongitudeDegrees>
            </Position>
            <AltitudeMeters>229.8000030517578125</AltitudeMeters>
            <DistanceMeters>16463.68595959</DistanceMeters>
          </Trackpoint>
          <Trackpoint>
            <Time>2022-04-23T10:42:10.000Z</Time>
            <Position>
              <LatitudeDegrees>41.70736522413790225982666015625</LatitudeDegrees>
              <LongitudeDegrees>-0.15506579540669918060302734375</LongitudeDegrees>
            </Position>
            <AltitudeMeters>229.8000030517578125</AltitudeMeters>
            <DistanceMeters>16476.393273507</DistanceMeters>
          </Trackpoint>
          <Trackpoint>
            <Time>2022-04-23T10:42:12.000Z</Time>
            <Position>
              <LatitudeDegrees>41.7072590254247188568115234375</LatitudeDegrees>
              <LongitudeDegrees>-0.155019946396350860595703125</LongitudeDegrees>
            </Position>
            <AltitudeMeters>229.600006103515625</AltitudeMeters>
            <DistanceMeters>16488.812359852</DistanceMeters>
          </Trackpoint>
          <Trackpoint>
            <Time>2022-04-23T10:42:14.000Z</Time>
            <Position>
              <LatitudeDegrees>41.70719138346612453460693359375</LatitudeDegrees>
              <LongitudeDegrees>-0.154965631663799285888671875</LongitudeDegrees>
            </Position>
            <AltitudeMeters>229.399993896484375</AltitudeMeters>
            <DistanceMeters>16497.590380261</DistanceMeters>
          </Trackpoint>
          <Trackpoint>
            <Time>2022-04-23T10:42:15.000Z</Time>
            <Position>
              <LatitudeDegrees>41.7071772180497646331787109375</LatitudeDegrees>
              <LongitudeDegrees>-0.15492129139602184295654296875</LongitudeDegrees>
            </Position>
            <AltitudeMeters>229.1999969482421875</AltitudeMeters>
            <DistanceMeters>16501.59730875</DistanceMeters>
          </Trackpoint>
          <Trackpoint>
            <Time>2022-04-23T10:42:16.000Z</Time>
            <Position>
              <LatitudeDegrees>41.70718987472355365753173828125</LatitudeDegrees>
              <LongitudeDegrees>-0.15486932359635829925537109375</LongitudeDegrees>
            </Position>
            <AltitudeMeters>229.1999969482421875</AltitudeMeters>
            <DistanceMeters>16506.138750658</DistanceMeters>
          </Trackpoint>
          <Trackpoint>
            <Time>2022-04-23T10:42:17.000Z</Time>
            <Position>
              <LatitudeDegrees>41.70722457580268383026123046875</LatitudeDegrees>
              <LongitudeDegrees>-0.15481970272958278656005859375</LongitudeDegrees>
            </Position>
            <AltitudeMeters>229</AltitudeMeters>
            <DistanceMeters>16511.787847059</DistanceMeters>
          </Trackpoint>
          <Trackpoint>
            <Time>2022-04-23T10:42:18.000Z</Time>
            <Position>
              <LatitudeDegrees>41.70727084390819072723388671875</LatitudeDegrees>
              <LongitudeDegrees>-0.15478047542273998260498046875</LongitudeDegrees>
            </Position>
            <AltitudeMeters>229</AltitudeMeters>
            <DistanceMeters>16517.882905261</DistanceMeters>
          </Trackpoint>
          <Trackpoint>
            <Time>2022-04-23T10:42:21.000Z</Time>
            <Position>
              <LatitudeDegrees>41.7074424214661121368408203125</LatitudeDegrees>
              <LongitudeDegrees>-0.1546610333025455474853515625</LongitudeDegrees>
            </Position>
            <AltitudeMeters>229</AltitudeMeters>
            <DistanceMeters>16539.404935166</DistanceMeters>
          </Trackpoint>
          <Trackpoint>
            <Time>2022-04-23T10:42:25.000Z</Time>
            <Position>
              <LatitudeDegrees>41.70766680501401424407958984375</LatitudeDegrees>
              <LongitudeDegrees>-0.15446229837834835052490234375</LongitudeDegrees>
            </Position>
            <AltitudeMeters>229.399993896484375</AltitudeMeters>
            <DistanceMeters>16569.344986243</DistanceMeters>
          </Trackpoint>
          <Trackpoint>
            <Time>2022-04-23T10:42:27.000Z</Time>
            <Position>
              <LatitudeDegrees>41.7077817209064960479736328125</LatitudeDegrees>
              <LongitudeDegrees>-0.15435651876032352447509765625</LongitudeDegrees>
            </Position>
            <AltitudeMeters>229.8000030517578125</AltitudeMeters>
            <DistanceMeters>16584.864335421</DistanceMeters>
          </Trackpoint>
          <Trackpoint>
            <Time>2022-04-23T10:42:31.000Z</Time>
            <Position>
              <LatitudeDegrees>41.708025969564914703369140625</LatitudeDegrees>
              <LongitudeDegrees>-0.15408678911626338958740234375</LongitudeDegrees>
            </Position>
            <AltitudeMeters>229.8000030517578125</AltitudeMeters>
            <DistanceMeters>16620.097339959</DistanceMeters>
          </Trackpoint>
          <Trackpoint>
            <Time>2022-04-23T10:42:32.000Z</Time>
            <Position>
              <LatitudeDegrees>41.70807684771716594696044921875</LatitudeDegrees>
              <LongitudeDegrees>-0.1540370844304561614990234375</LongitudeDegrees>
            </Position>
            <AltitudeMeters>230</AltitudeMeters>
            <DistanceMeters>16627.106164101</DistanceMeters>
          </Trackpoint>
          <Trackpoint>
            <Time>2022-04-23T10:42:35.000Z</Time>
            <Position>
              <LatitudeDegrees>41.70826460234820842742919921875</LatitudeDegrees>
              <LongitudeDegrees>-0.153841786086559295654296875</LongitudeDegrees>
            </Position>
            <AltitudeMeters>230.1999969482421875</AltitudeMeters>
            <DistanceMeters>16653.56423633</DistanceMeters>
          </Trackpoint>
          <Trackpoint>
            <Time>2022-04-23T10:42:38.000Z</Time>
            <Position>
              <LatitudeDegrees>41.70845906250178813934326171875</LatitudeDegrees>
              <LongitudeDegrees>-0.15365579165518283843994140625</LongitudeDegrees>
            </Position>
            <AltitudeMeters>230.600006103515625</AltitudeMeters>
            <DistanceMeters>16680.159495827</DistanceMeters>
          </Trackpoint>
          <Trackpoint>
            <Time>2022-04-23T10:42:41.000Z</Time>
            <Position>
              <LatitudeDegrees>41.708652935922145843505859375</LatitudeDegrees>
              <LongitudeDegrees>-0.15348739922046661376953125</LongitudeDegrees>
            </Position>
            <AltitudeMeters>230.8000030517578125</AltitudeMeters>
            <DistanceMeters>16705.877172998</DistanceMeters>
          </Trackpoint>
          <Trackpoint>
            <Time>2022-04-23T10:42:44.000Z</Time>
            <Position>
              <LatitudeDegrees>41.70884999446570873260498046875</LatitudeDegrees>
              <LongitudeDegrees>-0.1532967947423458099365234375</LongitudeDegrees>
            </Position>
            <AltitudeMeters>231.1999969482421875</AltitudeMeters>
            <DistanceMeters>16732.930595993</DistanceMeters>
          </Trackpoint>
          <Trackpoint>
            <Time>2022-04-23T10:42:45.000Z</Time>
            <Position>
              <LatitudeDegrees>41.70891403220593929290771484375</LatitudeDegrees>
              <LongitudeDegrees>-0.153225548565387725830078125</LongitudeDegrees>
            </Position>
            <AltitudeMeters>231.399993896484375</AltitudeMeters>
            <DistanceMeters>16742.195578815</DistanceMeters>
          </Trackpoint>
          <Trackpoint>
            <Time>2022-04-23T10:42:50.000Z</Time>
            <Position>
              <LatitudeDegrees>41.70924344100058078765869140625</LatitudeDegrees>
              <LongitudeDegrees>-0.1528250612318515777587890625</LongitudeDegrees>
            </Position>
            <AltitudeMeters>231.600006103515625</AltitudeMeters>
            <DistanceMeters>16791.709056615</DistanceMeters>
          </Trackpoint>
          <Trackpoint>
            <Time>2022-04-23T10:42:55.000Z</Time>
            <Position>
              <LatitudeDegrees>41.70959413982927799224853515625</LatitudeDegrees>
              <LongitudeDegrees>-0.15245047397911548614501953125</LongitudeDegrees>
            </Position>
            <AltitudeMeters>231.8000030517578125</AltitudeMeters>
            <DistanceMeters>16841.632550873</DistanceMeters>
          </Trackpoint>
          <Trackpoint>
            <Time>2022-04-23T10:43:00.000Z</Time>
            <Position>
              <LatitudeDegrees>41.70999060384929180145263671875</LatitudeDegrees>
              <LongitudeDegrees>-0.152076892554759979248046875</LongitudeDegrees>
            </Position>
            <AltitudeMeters>231.600006103515625</AltitudeMeters>
            <DistanceMeters>16895.583962727</DistanceMeters>
          </Trackpoint>
          <Trackpoint>
            <Time>2022-04-23T10:43:06.000Z</Time>
            <Position>
              <LatitudeDegrees>41.710450015962123870849609375</LatitudeDegrees>
              <LongitudeDegrees>-0.1516775786876678466796875</LongitudeDegrees>
            </Position>
            <AltitudeMeters>231.8000030517578125</AltitudeMeters>
            <DistanceMeters>16956.538544779</DistanceMeters>
          </Trackpoint>
          <Trackpoint>
            <Time>2022-04-23T10:43:11.000Z</Time>
            <Position>
              <LatitudeDegrees>41.71081085689365863800048828125</LatitudeDegrees>
              <LongitudeDegrees>-0.15136686153709888458251953125</LongitudeDegrees>
            </Position>
            <AltitudeMeters>232</AltitudeMeters>
            <DistanceMeters>17004.283015007</DistanceMeters>
          </Trackpoint>
          <Trackpoint>
            <Time>2022-04-23T10:43:18.000Z</Time>
            <Position>
              <LatitudeDegrees>41.71132273972034454345703125</LatitudeDegrees>
              <LongitudeDegrees>-0.150930248200893402099609375</LongitudeDegrees>
            </Position>
            <AltitudeMeters>231.8000030517578125</AltitudeMeters>
            <DistanceMeters>17071.825821729</DistanceMeters>
          </Trackpoint>
          <Trackpoint>
            <Time>2022-04-23T10:43:25.000Z</Time>
            <Position>
              <LatitudeDegrees>41.71180176548659801483154296875</LatitudeDegrees>
              <LongitudeDegrees>-0.15051090158522129058837890625</LongitudeDegrees>
            </Position>
            <AltitudeMeters>231.8000030517578125</AltitudeMeters>
            <DistanceMeters>17135.517685272</DistanceMeters>
          </Trackpoint>
          <Trackpoint>
            <Time>2022-04-23T10:43:32.000Z</Time>
            <Position>
              <LatitudeDegrees>41.7122764326632022857666015625</LatitudeDegrees>
              <LongitudeDegrees>-0.15011158771812915802001953125</LongitudeDegrees>
            </Position>
            <AltitudeMeters>231.8000030517578125</AltitudeMeters>
            <DistanceMeters>17197.902922284</DistanceMeters>
          </Trackpoint>
          <Trackpoint>
            <Time>2022-04-23T10:43:33.000Z</Time>
            <Position>
              <LatitudeDegrees>41.7123431526124477386474609375</LatitudeDegrees>
              <LongitudeDegrees>-0.150053501129150390625</LongitudeDegrees>
            </Position>
            <AltitudeMeters>231.8000030517578125</AltitudeMeters>
            <DistanceMeters>17206.760309265</DistanceMeters>
          </Trackpoint>
          <Trackpoint>
            <Time>2022-04-23T10:43:39.000Z</Time>
            <Position>
              <LatitudeDegrees>41.71273894608020782470703125</LatitudeDegrees>
              <LongitudeDegrees>-0.1497110165655612945556640625</LongitudeDegrees>
            </Position>
            <AltitudeMeters>232.1999969482421875</AltitudeMeters>
            <DistanceMeters>17259.204122943</DistanceMeters>
          </Trackpoint>
          <Trackpoint>
            <Time>2022-04-23T10:43:46.000Z</Time>
            <Position>
              <LatitudeDegrees>41.71318695880472660064697265625</LatitudeDegrees>
              <LongitudeDegrees>-0.1492728106677532196044921875</LongitudeDegrees>
            </Position>
            <AltitudeMeters>232.399993896484375</AltitudeMeters>
            <DistanceMeters>17320.946044123</DistanceMeters>
          </Trackpoint>
          <Trackpoint>
            <Time>2022-04-23T10:43:50.000Z</Time>
            <Position>
              <LatitudeDegrees>41.71341226436197757720947265625</LatitudeDegrees>
              <LongitudeDegrees>-0.14898740686476230621337890625</LongitudeDegrees>
            </Position>
            <AltitudeMeters>233.600006103515625</AltitudeMeters>
            <DistanceMeters>17355.458930464</DistanceMeters>
          </Trackpoint>
          <Trackpoint>
            <Time>2022-04-23T10:43:53.000Z</Time>
            <Position>
              <LatitudeDegrees>41.71356431208550930023193359375</LatitudeDegrees>
              <LongitudeDegrees>-0.148765034973621368408203125</LongitudeDegrees>
            </Position>
            <AltitudeMeters>233.600006103515625</AltitudeMeters>
            <DistanceMeters>17380.513927056</DistanceMeters>
          </Trackpoint>
          <Trackpoint>
            <Time>2022-04-23T10:44:00.000Z</Time>
            <Position>
              <LatitudeDegrees>41.71387796290218830108642578125</LatitudeDegrees>
              <LongitudeDegrees>-0.148243010044097900390625</LongitudeDegrees>
            </Position>
            <AltitudeMeters>233.1999969482421875</AltitudeMeters>
            <DistanceMeters>17436.190256603</DistanceMeters>
          </Trackpoint>
          <Trackpoint>
            <Time>2022-04-23T10:44:07.000Z</Time>
            <Position>
              <LatitudeDegrees>41.71418759040534496307373046875</LatitudeDegrees>
              <LongitudeDegrees>-0.14770195819437503814697265625</LongitudeDegrees>
            </Position>
            <AltitudeMeters>232.8000030517578125</AltitudeMeters>
            <DistanceMeters>17492.833033907</DistanceMeters>
          </Trackpoint>
          <Trackpoint>
            <Time>2022-04-23T10:44:08.000Z</Time>
            <Position>
              <LatitudeDegrees>41.71422463841736316680908203125</LatitudeDegrees>
              <LongitudeDegrees>-0.147639177739620208740234375</LongitudeDegrees>
            </Position>
            <AltitudeMeters>232.600006103515625</AltitudeMeters>
            <DistanceMeters>17499.482188309</DistanceMeters>
          </Trackpoint>
          <Trackpoint>
            <Time>2022-04-23T10:44:14.000Z</Time>
            <Position>
              <LatitudeDegrees>41.71445664949715137481689453125</LatitudeDegrees>
              <LongitudeDegrees>-0.1471320725977420806884765625</LongitudeDegrees>
            </Position>
            <AltitudeMeters>232.600006103515625</AltitudeMeters>
            <DistanceMeters>17548.898455393</DistanceMeters>
          </Trackpoint>
          <Trackpoint>
            <Time>2022-04-23T10:44:20.000Z</Time>
            <Position>
              <LatitudeDegrees>41.71459511853754520416259765625</LatitudeDegrees>
              <LongitudeDegrees>-0.146569311618804931640625</LongitudeDegrees>
            </Position>
            <AltitudeMeters>232.8000030517578125</AltitudeMeters>
            <DistanceMeters>17598.129264015</DistanceMeters>
          </Trackpoint>
          <Trackpoint>
            <Time>2022-04-23T10:44:28.000Z</Time>
            <Position>
              <LatitudeDegrees>41.714720092713832855224609375</LatitudeDegrees>
              <LongitudeDegrees>-0.14580127783119678497314453125</LongitudeDegrees>
            </Position>
            <AltitudeMeters>232.600006103515625</AltitudeMeters>
            <DistanceMeters>17663.438616009</DistanceMeters>
          </Trackpoint>
          <Trackpoint>
            <Time>2022-04-23T10:44:30.000Z</Time>
            <Position>
              <LatitudeDegrees>41.7147611640393733978271484375</LatitudeDegrees>
              <LongitudeDegrees>-0.14560061506927013397216796875</LongitudeDegrees>
            </Position>
            <AltitudeMeters>232.600006103515625</AltitudeMeters>
            <DistanceMeters>17680.725644378</DistanceMeters>
          </Trackpoint>
          <Trackpoint>
            <Time>2022-04-23T10:44:35.000Z</Time>
            <Position>
              <LatitudeDegrees>41.71485252678394317626953125</LatitudeDegrees>
              <LongitudeDegrees>-0.145054869353771209716796875</LongitudeDegrees>
            </Position>
            <AltitudeMeters>232.399993896484375</AltitudeMeters>
            <DistanceMeters>17727.194290688</DistanceMeters>
          </Trackpoint>
          <Trackpoint>
            <Time>2022-04-23T10:44:42.000Z</Time>
            <Position>
              <LatitudeDegrees>41.7149884812533855438232421875</LatitudeDegrees>
              <LongitudeDegrees>-0.1442773640155792236328125</LongitudeDegrees>
            </Position>
            <AltitudeMeters>232.8000030517578125</AltitudeMeters>
            <DistanceMeters>17793.540497238</DistanceMeters>
          </Trackpoint>
          <Trackpoint>
            <Time>2022-04-23T10:44:43.000Z</Time>
            <Position>
              <LatitudeDegrees>41.715007759630680084228515625</LatitudeDegrees>
              <LongitudeDegrees>-0.1441672258079051971435546875</LongitudeDegrees>
            </Position>
            <AltitudeMeters>232.8000030517578125</AltitudeMeters>
            <DistanceMeters>17802.939018811</DistanceMeters>
          </Trackpoint>
          <Trackpoint>
            <Time>2022-04-23T10:44:50.000Z</Time>
            <Position>
              <LatitudeDegrees>41.71513457782566547393798828125</LatitudeDegrees>
              <LongitudeDegrees>-0.1434178836643695831298828125</LongitudeDegrees>
            </Position>
            <AltitudeMeters>233.399993896484375</AltitudeMeters>
            <DistanceMeters>17866.776463299</DistanceMeters>
          </Trackpoint>
          <Trackpoint>
            <Time>2022-04-23T10:44:51.000Z</Time>
            <Position>
              <LatitudeDegrees>41.71515117399394512176513671875</LatitudeDegrees>
              <LongitudeDegrees>-0.14331637881696224212646484375</LongitudeDegrees>
            </Position>
            <AltitudeMeters>233.600006103515625</AltitudeMeters>
            <DistanceMeters>17875.409785427</DistanceMeters>
          </Trackpoint>
          <Trackpoint>
            <Time>2022-04-23T10:44:56.000Z</Time>
            <Position>
              <LatitudeDegrees>41.71523817814886569976806640625</LatitudeDegrees>
              <LongitudeDegrees>-0.1428438909351825714111328125</LongitudeDegrees>
            </Position>
            <AltitudeMeters>235</AltitudeMeters>
            <DistanceMeters>17915.842172807</DistanceMeters>
          </Trackpoint>
          <Trackpoint>
            <Time>2022-04-23T10:44:57.000Z</Time>
            <Position>
              <LatitudeDegrees>41.7152573727071285247802734375</LatitudeDegrees>
              <LongitudeDegrees>-0.14275646768510341644287109375</LongitudeDegrees>
            </Position>
            <AltitudeMeters>235</AltitudeMeters>
            <DistanceMeters>17923.413363285</DistanceMeters>
          </Trackpoint>
          <Trackpoint>
            <Time>2022-04-23T10:45:01.000Z</Time>
            <Position>
              <LatitudeDegrees>41.71532786451280117034912109375</LatitudeDegrees>
              <LongitudeDegrees>-0.14241482131183147430419921875</LongitudeDegrees>
            </Position>
            <AltitudeMeters>236.1999969482421875</AltitudeMeters>
            <DistanceMeters>17952.862447171</DistanceMeters>
          </Trackpoint>
          <Trackpoint>
            <Time>2022-04-23T10:45:04.000Z</Time>
            <Position>
              <LatitudeDegrees>41.7153740487992763519287109375</LatitudeDegrees>
              <LongitudeDegrees>-0.14215867035090923309326171875</LongitudeDegrees>
            </Position>
            <AltitudeMeters>236.8000030517578125</AltitudeMeters>
            <DistanceMeters>17974.755744265</DistanceMeters>
          </Trackpoint>
          <Trackpoint>
            <Time>2022-04-23T10:45:07.000Z</Time>
            <Position>
              <LatitudeDegrees>41.71541319228708744049072265625</LatitudeDegrees>
              <LongitudeDegrees>-0.14186815358698368072509765625</LongitudeDegrees>
            </Position>
            <AltitudeMeters>237.399993896484375</AltitudeMeters>
            <DistanceMeters>17999.282579212</DistanceMeters>
          </Trackpoint>
          <Trackpoint>
            <Time>2022-04-23T10:45:11.000Z</Time>
            <Position>
              <LatitudeDegrees>41.71547345817089080810546875</LatitudeDegrees>
              <LongitudeDegrees>-0.14150102622807025909423828125</LongitudeDegrees>
            </Position>
            <AltitudeMeters>237.8000030517578125</AltitudeMeters>
            <DistanceMeters>18030.513279122</DistanceMeters>
          </Trackpoint>
          <Trackpoint>
            <Time>2022-04-23T10:45:14.000Z</Time>
            <Position>
              <LatitudeDegrees>41.715512685477733612060546875</LatitudeDegrees>
              <LongitudeDegrees>-0.14123062603175640106201171875</LongitudeDegrees>
            </Position>
            <AltitudeMeters>238.399993896484375</AltitudeMeters>
            <DistanceMeters>18053.399137068</DistanceMeters>
          </Trackpoint>
          <Trackpoint>
            <Time>2022-04-23T10:45:20.000Z</Time>
            <Position>
              <LatitudeDegrees>41.7155921459197998046875</LatitudeDegrees>
              <LongitudeDegrees>-0.14071513898670673370361328125</LongitudeDegrees>
            </Position>
            <AltitudeMeters>238.8000030517578125</AltitudeMeters>
            <DistanceMeters>18097.130633381</DistanceMeters>
          </Trackpoint>
          <Trackpoint>
            <Time>2022-04-23T10:45:23.000Z</Time>
            <Position>
              <LatitudeDegrees>41.71563598327338695526123046875</LatitudeDegrees>
              <LongitudeDegrees>-0.14045865274965763092041015625</LongitudeDegrees>
            </Position>
            <AltitudeMeters>239.399993896484375</AltitudeMeters>
            <DistanceMeters>18118.991735039</DistanceMeters>
          </Trackpoint>
          <Trackpoint>
            <Time>2022-04-23T10:45:27.000Z</Time>
            <Position>
              <LatitudeDegrees>41.71568912453949451446533203125</LatitudeDegrees>
              <LongitudeDegrees>-0.140110217034816741943359375</LongitudeDegrees>
            </Position>
            <AltitudeMeters>240.1999969482421875</AltitudeMeters>
            <DistanceMeters>18148.538473107</DistanceMeters>
          </Trackpoint>
          <Trackpoint>
            <Time>2022-04-23T10:45:28.000Z</Time>
            <Position>
              <LatitudeDegrees>41.71570421196520328521728515625</LatitudeDegrees>
              <LongitudeDegrees>-0.14000016264617443084716796875</LongitudeDegrees>
            </Position>
            <AltitudeMeters>240.600006103515625</AltitudeMeters>
            <DistanceMeters>18157.834592274</DistanceMeters>
          </Trackpoint>
          <Trackpoint>
            <Time>2022-04-23T10:45:33.000Z</Time>
            <Position>
              <LatitudeDegrees>41.7157785594463348388671875</LatitudeDegrees>
              <LongitudeDegrees>-0.139547288417816162109375</LongitudeDegrees>
            </Position>
            <AltitudeMeters>241.600006103515625</AltitudeMeters>
            <DistanceMeters>18196.359458324</DistanceMeters>
          </Trackpoint>
          <Trackpoint>
            <Time>2022-04-23T10:45:35.000Z</Time>
            <Position>
              <LatitudeDegrees>41.71580068767070770263671875</LatitudeDegrees>
              <LongitudeDegrees>-0.13938660733401775360107421875</LongitudeDegrees>
            </Position>
            <AltitudeMeters>242.399993896484375</AltitudeMeters>
            <DistanceMeters>18209.934981524</DistanceMeters>
          </Trackpoint>
          <Trackpoint>
            <Time>2022-04-23T10:45:36.000Z</Time>
            <Position>
              <LatitudeDegrees>41.71581619419157505035400390625</LatitudeDegrees>
              <LongitudeDegrees>-0.13928619213402271270751953125</LongitudeDegrees>
            </Position>
            <AltitudeMeters>242.600006103515625</AltitudeMeters>
            <DistanceMeters>18218.45512146</DistanceMeters>
          </Trackpoint>
          <Trackpoint>
            <Time>2022-04-23T10:45:40.000Z</Time>
            <Position>
              <LatitudeDegrees>41.7158612050116062164306640625</LatitudeDegrees>
              <LongitudeDegrees>-0.1389744691550731658935546875</LongitudeDegrees>
            </Position>
            <AltitudeMeters>243.600006103515625</AltitudeMeters>
            <DistanceMeters>18244.833722646</DistanceMeters>
          </Trackpoint>
          <Trackpoint>
            <Time>2022-04-23T10:45:42.000Z</Time>
            <Position>
              <LatitudeDegrees>41.71588459052145481109619140625</LatitudeDegrees>
              <LongitudeDegrees>-0.13879425823688507080078125</LongitudeDegrees>
            </Position>
            <AltitudeMeters>244.600006103515625</AltitudeMeters>
            <DistanceMeters>18260.030274064</DistanceMeters>
          </Trackpoint>
          <Trackpoint>
            <Time>2022-04-23T10:45:43.000Z</Time>
            <Position>
              <LatitudeDegrees>41.7158957384526729583740234375</LatitudeDegrees>
              <LongitudeDegrees>-0.13871110975742340087890625</LongitudeDegrees>
            </Position>
            <AltitudeMeters>244.8000030517578125</AltitudeMeters>
            <DistanceMeters>18267.049397732</DistanceMeters>
          </Trackpoint>
          <Trackpoint>
            <Time>2022-04-23T10:45:47.000Z</Time>
            <Position>
              <LatitudeDegrees>41.71594678424298763275146484375</LatitudeDegrees>
              <LongitudeDegrees>-0.138375498354434967041015625</LongitudeDegrees>
            </Position>
            <AltitudeMeters>245.8000030517578125</AltitudeMeters>
            <DistanceMeters>18295.505575356</DistanceMeters>
          </Trackpoint>
          <Trackpoint>
            <Time>2022-04-23T10:45:51.000Z</Time>
            <Position>
              <LatitudeDegrees>41.7159912921488285064697265625</LatitudeDegrees>
              <LongitudeDegrees>-0.13801817782223224639892578125</LongitudeDegrees>
            </Position>
            <AltitudeMeters>246.600006103515625</AltitudeMeters>
            <DistanceMeters>18325.603102639</DistanceMeters>
          </Trackpoint>
          <Trackpoint>
            <Time>2022-04-23T10:45:53.000Z</Time>
            <Position>
              <LatitudeDegrees>41.71601467765867710113525390625</LatitudeDegrees>
              <LongitudeDegrees>-0.1378529705107212066650390625</LongitudeDegrees>
            </Position>
            <AltitudeMeters>246.8000030517578125</AltitudeMeters>
            <DistanceMeters>18339.573645659</DistanceMeters>
          </Trackpoint>
          <Trackpoint>
            <Time>2022-04-23T10:45:58.000Z</Time>
            <Position>
              <LatitudeDegrees>41.7160791344940662384033203125</LatitudeDegrees>
              <LongitudeDegrees>-0.1374270021915435791015625</LongitudeDegrees>
            </Position>
            <AltitudeMeters>247.1999969482421875</AltitudeMeters>
            <DistanceMeters>18375.683547048</DistanceMeters>
          </Trackpoint>
          <Trackpoint>
            <Time>2022-04-23T10:46:07.000Z</Time>
            <Position>
              <LatitudeDegrees>41.716188602149486541748046875</LatitudeDegrees>
              <LongitudeDegrees>-0.136652179062366485595703125</LongitudeDegrees>
            </Position>
            <AltitudeMeters>247.399993896484375</AltitudeMeters>
            <DistanceMeters>18441.199832254</DistanceMeters>
          </Trackpoint>
          <Trackpoint>
            <Time>2022-04-23T10:46:09.000Z</Time>
            <Position>
              <LatitudeDegrees>41.71621785499155521392822265625</LatitudeDegrees>
              <LongitudeDegrees>-0.1364655978977680206298828125</LongitudeDegrees>
            </Position>
            <AltitudeMeters>247.600006103515625</AltitudeMeters>
            <DistanceMeters>18457.039391715</DistanceMeters>
          </Trackpoint>
          <Trackpoint>
            <Time>2022-04-23T10:46:13.000Z</Time>
            <Position>
              <LatitudeDegrees>41.71626730822026729583740234375</LatitudeDegrees>
              <LongitudeDegrees>-0.13614482246339321136474609375</LongitudeDegrees>
            </Position>
            <AltitudeMeters>248</AltitudeMeters>
            <DistanceMeters>18484.25239484</DistanceMeters>
          </Trackpoint>
          <Trackpoint>
            <Time>2022-04-23T10:46:17.000Z</Time>
            <Position>
              <LatitudeDegrees>41.7163463495671749114990234375</LatitudeDegrees>
              <LongitudeDegrees>-0.13583133928477764129638671875</LongitudeDegrees>
            </Position>
            <AltitudeMeters>248.1999969482421875</AltitudeMeters>
            <DistanceMeters>18511.742721639</DistanceMeters>
          </Trackpoint>
          <Trackpoint>
            <Time>2022-04-23T10:46:21.000Z</Time>
            <Position>
              <LatitudeDegrees>41.71647434122860431671142578125</LatitudeDegrees>
              <LongitudeDegrees>-0.13556010089814662933349609375</LongitudeDegrees>
            </Position>
            <AltitudeMeters>249.1999969482421875</AltitudeMeters>
            <DistanceMeters>18538.402753839</DistanceMeters>
          </Trackpoint>
          <Trackpoint>
            <Time>2022-04-23T10:46:23.000Z</Time>
            <Position>
              <LatitudeDegrees>41.71654877252876758575439453125</LatitudeDegrees>
              <LongitudeDegrees>-0.13543336652219295501708984375</LongitudeDegrees>
            </Position>
            <AltitudeMeters>249.8000030517578125</AltitudeMeters>
            <DistanceMeters>18551.800509605</DistanceMeters>
          </Trackpoint>
          <Trackpoint>
            <Time>2022-04-23T10:46:26.000Z</Time>
            <Position>
              <LatitudeDegrees>41.71666578389704227447509765625</LatitudeDegrees>
              <LongitudeDegrees>-0.13525784946978092193603515625</LongitudeDegrees>
            </Position>
            <AltitudeMeters>250.399993896484375</AltitudeMeters>
            <DistanceMeters>18571.351779792</DistanceMeters>
          </Trackpoint>
          <Trackpoint>
            <Time>2022-04-23T10:46:30.000Z</Time>
            <Position>
              <LatitudeDegrees>41.71681263484060764312744140625</LatitudeDegrees>
              <LongitudeDegrees>-0.13501812703907489776611328125</LongitudeDegrees>
            </Position>
            <AltitudeMeters>251.600006103515625</AltitudeMeters>
            <DistanceMeters>18597.116114043</DistanceMeters>
          </Trackpoint>
          <Trackpoint>
            <Time>2022-04-23T10:46:34.000Z</Time>
            <Position>
              <LatitudeDegrees>41.71696149744093418121337890625</LatitudeDegrees>
              <LongitudeDegrees>-0.1347761414945125579833984375</LongitudeDegrees>
            </Position>
            <AltitudeMeters>252.8000030517578125</AltitudeMeters>
            <DistanceMeters>18623.168169156</DistanceMeters>
          </Trackpoint>
          <Trackpoint>
            <Time>2022-04-23T10:46:39.000Z</Time>
            <Position>
              <LatitudeDegrees>41.71714447438716888427734375</LatitudeDegrees>
              <LongitudeDegrees>-0.134482271969318389892578125</LongitudeDegrees>
            </Position>
            <AltitudeMeters>254.1999969482421875</AltitudeMeters>
            <DistanceMeters>18654.961954984</DistanceMeters>
          </Trackpoint>
          <Trackpoint>
            <Time>2022-04-23T10:46:41.000Z</Time>
            <Position>
              <LatitudeDegrees>41.71721932478249073028564453125</LatitudeDegrees>
              <LongitudeDegrees>-0.134365595877170562744140625</LongitudeDegrees>
            </Position>
            <AltitudeMeters>254.600006103515625</AltitudeMeters>
            <DistanceMeters>18667.743666256</DistanceMeters>
          </Trackpoint>
          <Trackpoint>
            <Time>2022-04-23T10:46:44.000Z</Time>
            <Position>
              <LatitudeDegrees>41.7173327319324016571044921875</LatitudeDegrees>
              <LongitudeDegrees>-0.13419100083410739898681640625</LongitudeDegrees>
            </Position>
            <AltitudeMeters>255.399993896484375</AltitudeMeters>
            <DistanceMeters>18686.972434029</DistanceMeters>
          </Trackpoint>
          <Trackpoint>
            <Time>2022-04-23T10:46:49.000Z</Time>
            <Position>
              <LatitudeDegrees>41.71754236333072185516357421875</LatitudeDegrees>
              <LongitudeDegrees>-0.13388388790190219879150390625</LongitudeDegrees>
            </Position>
            <AltitudeMeters>256.20001220703125</AltitudeMeters>
            <DistanceMeters>18721.547143713</DistanceMeters>
          </Trackpoint>
          <Trackpoint>
            <Time>2022-04-23T10:46:50.000Z</Time>
            <Position>
              <LatitudeDegrees>41.71757974661886692047119140625</LatitudeDegrees>
              <LongitudeDegrees>-0.13382420875132083892822265625</LongitudeDegrees>
            </Position>
            <AltitudeMeters>256.399993896484375</AltitudeMeters>
            <DistanceMeters>18728.019432691</DistanceMeters>
          </Trackpoint>
          <Trackpoint>
            <Time>2022-04-23T10:46:55.000Z</Time>
            <Position>
              <LatitudeDegrees>41.71777521260082721710205078125</LatitudeDegrees>
              <LongitudeDegrees>-0.13351910747587680816650390625</LongitudeDegrees>
            </Position>
            <AltitudeMeters>257.399993896484375</AltitudeMeters>
            <DistanceMeters>18761.423181371</DistanceMeters>
          </Trackpoint>
          <Trackpoint>
            <Time>2022-04-23T10:46:57.000Z</Time>
            <Position>
              <LatitudeDegrees>41.71784997917711734771728515625</LatitudeDegrees>
              <LongitudeDegrees>-0.13340578414499759674072265625</LongitudeDegrees>
            </Position>
            <AltitudeMeters>257.79998779296875</AltitudeMeters>
            <DistanceMeters>18773.988286088</DistanceMeters>
          </Trackpoint>
          <Trackpoint>
            <Time>2022-04-23T10:47:02.000Z</Time>
            <Position>
              <LatitudeDegrees>41.71802499331533908843994140625</LatitudeDegrees>
              <LongitudeDegrees>-0.13307218439877033233642578125</LongitudeDegrees>
            </Position>
            <AltitudeMeters>258</AltitudeMeters>
            <DistanceMeters>18807.864076924</DistanceMeters>
          </Trackpoint>
          <Trackpoint>
            <Time>2022-04-23T10:47:03.000Z</Time>
            <Position>
              <LatitudeDegrees>41.71806321479380130767822265625</LatitudeDegrees>
              <LongitudeDegrees>-0.1330147683620452880859375</LongitudeDegrees>
            </Position>
            <AltitudeMeters>258.20001220703125</AltitudeMeters>
            <DistanceMeters>18814.255639005</DistanceMeters>
          </Trackpoint>
          <Trackpoint>
            <Time>2022-04-23T10:47:04.000Z</Time>
            <Position>
              <LatitudeDegrees>41.7181088961660861968994140625</LatitudeDegrees>
              <LongitudeDegrees>-0.13294301927089691162109375</LongitudeDegrees>
            </Position>
            <AltitudeMeters>258.20001220703125</AltitudeMeters>
            <DistanceMeters>18822.090590164</DistanceMeters>
          </Trackpoint>
          <Trackpoint>
            <Time>2022-04-23T10:47:06.000Z</Time>
            <Position>
              <LatitudeDegrees>41.71817268244922161102294921875</LatitudeDegrees>
              <LongitudeDegrees>-0.13282374478876590728759765625</LongitudeDegrees>
            </Position>
            <AltitudeMeters>258.600006103515625</AltitudeMeters>
            <DistanceMeters>18834.280706569</DistanceMeters>
          </Trackpoint>
          <Trackpoint>
            <Time>2022-04-23T10:47:08.000Z</Time>
            <Position>
              <LatitudeDegrees>41.71825616620481014251708984375</LatitudeDegrees>
              <LongitudeDegrees>-0.13267404399812221527099609375</LongitudeDegrees>
            </Position>
            <AltitudeMeters>258.600006103515625</AltitudeMeters>
            <DistanceMeters>18849.805291596</DistanceMeters>
          </Trackpoint>
          <Trackpoint>
            <Time>2022-04-23T10:47:09.000Z</Time>
            <Position>
              <LatitudeDegrees>41.71828499995172023773193359375</LatitudeDegrees>
              <LongitudeDegrees>-0.13262006454169750213623046875</LongitudeDegrees>
            </Position>
            <AltitudeMeters>258.600006103515625</AltitudeMeters>
            <DistanceMeters>18855.31929807</DistanceMeters>
          </Trackpoint>
          <Trackpoint>
            <Time>2022-04-23T10:47:18.000Z</Time>
            <Position>
              <LatitudeDegrees>41.7186413146555423736572265625</LatitudeDegrees>
              <LongitudeDegrees>-0.13198723085224628448486328125</LongitudeDegrees>
            </Position>
            <AltitudeMeters>259</AltitudeMeters>
            <DistanceMeters>18921.174525152</DistanceMeters>
          </Trackpoint>
          <Trackpoint>
            <Time>2022-04-23T10:47:25.000Z</Time>
            <Position>
              <LatitudeDegrees>41.71892470680177211761474609375</LatitudeDegrees>
              <LongitudeDegrees>-0.13146118260920047760009765625</LongitudeDegrees>
            </Position>
            <AltitudeMeters>259.20001220703125</AltitudeMeters>
            <DistanceMeters>18975.071261612</DistanceMeters>
          </Trackpoint>
          <Trackpoint>
            <Time>2022-04-23T10:47:26.000Z</Time>
            <Position>
              <LatitudeDegrees>41.7189524509012699127197265625</LatitudeDegrees>
              <LongitudeDegrees>-0.1314019225537776947021484375</LongitudeDegrees>
            </Position>
            <AltitudeMeters>259.399993896484375</AltitudeMeters>
            <DistanceMeters>18980.882671587</DistanceMeters>
          </Trackpoint>
          <Trackpoint>
            <Time>2022-04-23T10:47:27.000Z</Time>
            <Position>
              <LatitudeDegrees>41.71898907981812953948974609375</LatitudeDegrees>
              <LongitudeDegrees>-0.13132791034877300262451171875</LongitudeDegrees>
            </Position>
            <AltitudeMeters>259.600006103515625</AltitudeMeters>
            <DistanceMeters>18988.259952301</DistanceMeters>
          </Trackpoint>
          <Trackpoint>
            <Time>2022-04-23T10:47:32.000Z</Time>
            <Position>
              <LatitudeDegrees>41.719194687902927398681640625</LatitudeDegrees>
              <LongitudeDegrees>-0.1309556700289249420166015625</LongitudeDegrees>
            </Position>
            <AltitudeMeters>260</AltitudeMeters>
            <DistanceMeters>19026.731338932</DistanceMeters>
          </Trackpoint>
          <Trackpoint>
            <Time>2022-04-23T10:47:38.000Z</Time>
            <Position>
              <LatitudeDegrees>41.7194500006735324859619140625</LatitudeDegrees>
              <LongitudeDegrees>-0.1305020414292812347412109375</LongitudeDegrees>
            </Position>
            <AltitudeMeters>260.600006103515625</AltitudeMeters>
            <DistanceMeters>19073.93064019</DistanceMeters>
          </Trackpoint>
          <Trackpoint>
            <Time>2022-04-23T10:47:39.000Z</Time>
            <Position>
              <LatitudeDegrees>41.71949249692261219024658203125</LatitudeDegrees>
              <LongitudeDegrees>-0.1304239220917224884033203125</LongitudeDegrees>
            </Position>
            <AltitudeMeters>260.600006103515625</AltitudeMeters>
            <DistanceMeters>19081.961381498</DistanceMeters>
          </Trackpoint>
          <Trackpoint>
            <Time>2022-04-23T10:47:48.000Z</Time>
            <Position>
              <LatitudeDegrees>41.71984411776065826416015625</LatitudeDegrees>
              <LongitudeDegrees>-0.129757560789585113525390625</LongitudeDegrees>
            </Position>
            <AltitudeMeters>260.79998779296875</AltitudeMeters>
            <DistanceMeters>19149.757331597</DistanceMeters>
          </Trackpoint>
          <Trackpoint>
            <Time>2022-04-23T10:47:51.000Z</Time>
            <Position>
              <LatitudeDegrees>41.7199455387890338897705078125</LatitudeDegrees>
              <LongitudeDegrees>-0.1295615918934345245361328125</LongitudeDegrees>
            </Position>
            <AltitudeMeters>261</AltitudeMeters>
            <DistanceMeters>19169.568521429</DistanceMeters>
          </Trackpoint>
          <Trackpoint>
            <Time>2022-04-23T10:47:53.000Z</Time>
            <Position>
              <LatitudeDegrees>41.72001980245113372802734375</LatitudeDegrees>
              <LongitudeDegrees>-0.129424966871738433837890625</LongitudeDegrees>
            </Position>
            <AltitudeMeters>261</AltitudeMeters>
            <DistanceMeters>19183.609341524</DistanceMeters>
          </Trackpoint>
          <Trackpoint>
            <Time>2022-04-23T10:47:59.000Z</Time>
            <Position>
              <LatitudeDegrees>41.72025189734995365142822265625</LatitudeDegrees>
              <LongitudeDegrees>-0.12899287976324558258056640625</LongitudeDegrees>
            </Position>
            <AltitudeMeters>261.79998779296875</AltitudeMeters>
            <DistanceMeters>19227.834349689</DistanceMeters>
          </Trackpoint>
          <Trackpoint>
            <Time>2022-04-23T10:48:00.000Z</Time>
            <Position>
              <LatitudeDegrees>41.72029028646647930145263671875</LatitudeDegrees>
              <LongitudeDegrees>-0.1289171911776065826416015625</LongitudeDegrees>
            </Position>
            <AltitudeMeters>261.399993896484375</AltitudeMeters>
            <DistanceMeters>19235.435892899</DistanceMeters>
          </Trackpoint>
          <Trackpoint>
            <Time>2022-04-23T10:48:08.000Z</Time>
            <Position>
              <LatitudeDegrees>41.72061231918632984161376953125</LatitudeDegrees>
              <LongitudeDegrees>-0.1282707788050174713134765625</LongitudeDegrees>
            </Position>
            <AltitudeMeters>262</AltitudeMeters>
            <DistanceMeters>19300.000094502</DistanceMeters>
          </Trackpoint>
          <Trackpoint>
            <Time>2022-04-23T10:48:12.000Z</Time>
            <Position>
              <LatitudeDegrees>41.720778532326221466064453125</LatitudeDegrees>
              <LongitudeDegrees>-0.127932988107204437255859375</LongitudeDegrees>
            </Position>
            <AltitudeMeters>262.79998779296875</AltitudeMeters>
            <DistanceMeters>19333.611622342</DistanceMeters>
          </Trackpoint>
          <Trackpoint>
            <Time>2022-04-23T10:48:16.000Z</Time>
            <Position>
              <LatitudeDegrees>41.720937453210353851318359375</LatitudeDegrees>
              <LongitudeDegrees>-0.12760349549353122711181640625</LongitudeDegrees>
            </Position>
            <AltitudeMeters>262.79998779296875</AltitudeMeters>
            <DistanceMeters>19366.202045038</DistanceMeters>
          </Trackpoint>
          <Trackpoint>
            <Time>2022-04-23T10:48:21.000Z</Time>
            <Position>
              <LatitudeDegrees>41.72115580178797245025634765625</LatitudeDegrees>
              <LongitudeDegrees>-0.1271616853773593902587890625</LongitudeDegrees>
            </Position>
            <AltitudeMeters>263.79998779296875</AltitudeMeters>
            <DistanceMeters>19410.222087111</DistanceMeters>
          </Trackpoint>
          <Trackpoint>
            <Time>2022-04-23T10:48:23.000Z</Time>
            <Position>
              <LatitudeDegrees>41.72123693861067295074462890625</LatitudeDegrees>
              <LongitudeDegrees>-0.12701257131993770599365234375</LongitudeDegrees>
            </Position>
            <AltitudeMeters>263.600006103515625</AltitudeMeters>
            <DistanceMeters>19425.55234378</DistanceMeters>
          </Trackpoint>
          <Trackpoint>
            <Time>2022-04-23T10:48:26.000Z</Time>
            <Position>
              <LatitudeDegrees>41.72137591056525707244873046875</LatitudeDegrees>
              <LongitudeDegrees>-0.1267311908304691314697265625</LongitudeDegrees>
            </Position>
            <AltitudeMeters>263.399993896484375</AltitudeMeters>
            <DistanceMeters>19453.58216417</DistanceMeters>
          </Trackpoint>
          <Trackpoint>
            <Time>2022-04-23T10:48:29.000Z</Time>
            <Position>
              <LatitudeDegrees>41.72150180675089359283447265625</LatitudeDegrees>
              <LongitudeDegrees>-0.12645517475903034210205078125</LongitudeDegrees>
            </Position>
            <AltitudeMeters>263.399993896484375</AltitudeMeters>
            <DistanceMeters>19480.454737795</DistanceMeters>
          </Trackpoint>
          <Trackpoint>
            <Time>2022-04-23T10:48:36.000Z</Time>
            <Position>
              <LatitudeDegrees>41.72180037014186382293701171875</LatitudeDegrees>
              <LongitudeDegrees>-0.12582586146891117095947265625</LongitudeDegrees>
            </Position>
            <AltitudeMeters>262.600006103515625</AltitudeMeters>
            <DistanceMeters>19542.40195247</DistanceMeters>
          </Trackpoint>
          <Trackpoint>
            <Time>2022-04-23T10:48:43.000Z</Time>
            <Position>
              <LatitudeDegrees>41.722101867198944091796875</LatitudeDegrees>
              <LongitudeDegrees>-0.125160925090312957763671875</LongitudeDegrees>
            </Position>
            <AltitudeMeters>262.79998779296875</AltitudeMeters>
            <DistanceMeters>19607.034929532</DistanceMeters>
          </Trackpoint>
          <Trackpoint>
            <Time>2022-04-23T10:48:45.000Z</Time>
            <Position>
              <LatitudeDegrees>41.72219431959092617034912109375</LatitudeDegrees>
              <LongitudeDegrees>-0.12498482130467891693115234375</LongitudeDegrees>
            </Position>
            <AltitudeMeters>263</AltitudeMeters>
            <DistanceMeters>19624.920663738</DistanceMeters>
          </Trackpoint>
          <Trackpoint>
            <Time>2022-04-23T10:48:48.000Z</Time>
            <Position>
              <LatitudeDegrees>41.72235868871212005615234375</LatitudeDegrees>
              <LongitudeDegrees>-0.12473001144826412200927734375</LongitudeDegrees>
            </Position>
            <AltitudeMeters>262.399993896484375</AltitudeMeters>
            <DistanceMeters>19652.898891106</DistanceMeters>
          </Trackpoint>
          <Trackpoint>
            <Time>2022-04-23T10:48:51.000Z</Time>
            <Position>
              <LatitudeDegrees>41.7225301824510097503662109375</LatitudeDegrees>
              <LongitudeDegrees>-0.1244999282062053680419921875</LongitudeDegrees>
            </Position>
            <AltitudeMeters>262</AltitudeMeters>
            <DistanceMeters>19679.911394267</DistanceMeters>
          </Trackpoint>
          <Trackpoint>
            <Time>2022-04-23T10:48:57.000Z</Time>
            <Position>
              <LatitudeDegrees>41.72286554239690303802490234375</LatitudeDegrees>
              <LongitudeDegrees>-0.123997516930103302001953125</LongitudeDegrees>
            </Position>
            <AltitudeMeters>262</AltitudeMeters>
            <DistanceMeters>19735.904308293</DistanceMeters>
          </Trackpoint>
          <Trackpoint>
            <Time>2022-04-23T10:49:02.000Z</Time>
            <Position>
              <LatitudeDegrees>41.72315086238086223602294921875</LatitudeDegrees>
              <LongitudeDegrees>-0.123580433428287506103515625</LongitudeDegrees>
            </Position>
            <AltitudeMeters>261.79998779296875</AltitudeMeters>
            <DistanceMeters>19782.904217656</DistanceMeters>
          </Trackpoint>
          <Trackpoint>
            <Time>2022-04-23T10:49:09.000Z</Time>
            <Position>
              <LatitudeDegrees>41.7235225997865200042724609375</LatitudeDegrees>
              <LongitudeDegrees>-0.1230501942336559295654296875</LongitudeDegrees>
            </Position>
            <AltitudeMeters>262</AltitudeMeters>
            <DistanceMeters>19843.337173708</DistanceMeters>
          </Trackpoint>
          <Trackpoint>
            <Time>2022-04-23T10:49:17.000Z</Time>
            <Position>
              <LatitudeDegrees>41.72392786480486392974853515625</LatitudeDegrees>
              <LongitudeDegrees>-0.12248508632183074951171875</LongitudeDegrees>
            </Position>
            <AltitudeMeters>262.600006103515625</AltitudeMeters>
            <DistanceMeters>19908.440252439</DistanceMeters>
          </Trackpoint>
          <Trackpoint>
            <Time>2022-04-23T10:49:19.000Z</Time>
            <Position>
              <LatitudeDegrees>41.72404085285961627960205078125</LatitudeDegrees>
              <LongitudeDegrees>-0.1223213039338588714599609375</LongitudeDegrees>
            </Position>
            <AltitudeMeters>263.20001220703125</AltitudeMeters>
            <DistanceMeters>19926.967781307</DistanceMeters>
          </Trackpoint>
          <Trackpoint>
            <Time>2022-04-23T10:49:21.000Z</Time>
            <Position>
              <LatitudeDegrees>41.7241304554045200347900390625</LatitudeDegrees>
              <LongitudeDegrees>-0.1221858523786067962646484375</LongitudeDegrees>
            </Position>
            <AltitudeMeters>263.399993896484375</AltitudeMeters>
            <DistanceMeters>19942.003638244</DistanceMeters>
          </Trackpoint>
          <Trackpoint>
            <Time>2022-04-23T10:49:27.000Z</Time>
            <Position>
              <LatitudeDegrees>41.7244593612849712371826171875</LatitudeDegrees>
              <LongitudeDegrees>-0.1217261888086795806884765625</LongitudeDegrees>
            </Position>
            <AltitudeMeters>263.399993896484375</AltitudeMeters>
            <DistanceMeters>19994.901690838</DistanceMeters>
          </Trackpoint>
          <Trackpoint>
            <Time>2022-04-23T10:49:29.000Z</Time>
            <Position>
              <LatitudeDegrees>41.7245750315487384796142578125</LatitudeDegrees>
              <LongitudeDegrees>-0.1215568743646144866943359375</LongitudeDegrees>
            </Position>
            <AltitudeMeters>263.399993896484375</AltitudeMeters>
            <DistanceMeters>20013.96917462</DistanceMeters>
          </Trackpoint>
          <Trackpoint>
            <Time>2022-04-23T10:49:36.000Z</Time>
            <Position>
              <LatitudeDegrees>41.72493285499513149261474609375</LatitudeDegrees>
              <LongitudeDegrees>-0.12106460519134998321533203125</LongitudeDegrees>
            </Position>
            <AltitudeMeters>264</AltitudeMeters>
            <DistanceMeters>20071.051366797</DistanceMeters>
          </Trackpoint>
          <Trackpoint>
            <Time>2022-04-23T10:49:38.000Z</Time>
            <Position>
              <LatitudeDegrees>41.72503997571766376495361328125</LatitudeDegrees>
              <LongitudeDegrees>-0.1209247112274169921875</LongitudeDegrees>
            </Position>
            <AltitudeMeters>264</AltitudeMeters>
            <DistanceMeters>20087.700578688</DistanceMeters>
          </Trackpoint>
          <Trackpoint>
            <Time>2022-04-23T10:49:43.000Z</Time>
            <Position>
              <LatitudeDegrees>41.72529981471598148345947265625</LatitudeDegrees>
              <LongitudeDegrees>-0.12054157443344593048095703125</LongitudeDegrees>
            </Position>
            <AltitudeMeters>264.399993896484375</AltitudeMeters>
            <DistanceMeters>20130.704865519</DistanceMeters>
          </Trackpoint>
          <Trackpoint>
            <Time>2022-04-23T10:49:46.000Z</Time>
            <Position>
              <LatitudeDegrees>41.72544364817440509796142578125</LatitudeDegrees>
              <LongitudeDegrees>-0.1203386485576629638671875</LongitudeDegrees>
            </Position>
            <AltitudeMeters>264.399993896484375</AltitudeMeters>
            <DistanceMeters>20153.952253439</DistanceMeters>
          </Trackpoint>
          <Trackpoint>
            <Time>2022-04-23T10:49:54.000Z</Time>
            <Position>
              <LatitudeDegrees>41.7258561216294765472412109375</LatitudeDegrees>
              <LongitudeDegrees>-0.119751580059528350830078125</LongitudeDegrees>
            </Position>
            <AltitudeMeters>264.79998779296875</AltitudeMeters>
            <DistanceMeters>20220.929034007</DistanceMeters>
          </Trackpoint>
          <Trackpoint>
            <Time>2022-04-23T10:49:56.000Z</Time>
            <Position>
              <LatitudeDegrees>41.72596416436135768890380859375</LatitudeDegrees>
              <LongitudeDegrees>-0.11959911324083805084228515625</LongitudeDegrees>
            </Position>
            <AltitudeMeters>264.79998779296875</AltitudeMeters>
            <DistanceMeters>20238.393796305</DistanceMeters>
          </Trackpoint>
          <Trackpoint>
            <Time>2022-04-23T10:49:58.000Z</Time>
            <Position>
              <LatitudeDegrees>41.72601462341845035552978515625</LatitudeDegrees>
              <LongitudeDegrees>-0.1194744743406772613525390625</LongitudeDegrees>
            </Position>
            <AltitudeMeters>264.79998779296875</AltitudeMeters>
            <DistanceMeters>20250.172509922</DistanceMeters>
          </Trackpoint>
          <Trackpoint>
            <Time>2022-04-23T10:49:59.000Z</Time>
            <Position>
              <LatitudeDegrees>41.72601914964616298675537109375</LatitudeDegrees>
              <LongitudeDegrees>-0.1194037310779094696044921875</LongitudeDegrees>
            </Position>
            <AltitudeMeters>264.79998779296875</AltitudeMeters>
            <DistanceMeters>20256.070293782</DistanceMeters>
          </Trackpoint>
          <Trackpoint>
            <Time>2022-04-23T10:50:00.000Z</Time>
            <Position>
              <LatitudeDegrees>41.7260056547820568084716796875</LatitudeDegrees>
              <LongitudeDegrees>-0.11933223344385623931884765625</LongitudeDegrees>
            </Position>
            <AltitudeMeters>264.79998779296875</AltitudeMeters>
            <DistanceMeters>20262.196385334</DistanceMeters>
          </Trackpoint>
          <Trackpoint>
            <Time>2022-04-23T10:50:02.000Z</Time>
            <Position>
              <LatitudeDegrees>41.72594538889825344085693359375</LatitudeDegrees>
              <LongitudeDegrees>-0.1191827841103076934814453125</LongitudeDegrees>
            </Position>
            <AltitudeMeters>264.79998779296875</AltitudeMeters>
            <DistanceMeters>20276.307452468</DistanceMeters>
          </Trackpoint>
          <Trackpoint>
            <Time>2022-04-23T10:50:08.000Z</Time>
            <Position>
              <LatitudeDegrees>41.72571538947522640228271484375</LatitudeDegrees>
              <LongitudeDegrees>-0.1186728291213512420654296875</LongitudeDegrees>
            </Position>
            <AltitudeMeters>264.600006103515625</AltitudeMeters>
            <DistanceMeters>20325.803236623</DistanceMeters>
          </Trackpoint>
          <Trackpoint>
            <Time>2022-04-23T10:50:14.000Z</Time>
            <Position>
              <LatitudeDegrees>41.72547700814902782440185546875</LatitudeDegrees>
              <LongitudeDegrees>-0.1181290112435817718505859375</LongitudeDegrees>
            </Position>
            <AltitudeMeters>265.20001220703125</AltitudeMeters>
            <DistanceMeters>20378.193042264</DistanceMeters>
          </Trackpoint>
          <Trackpoint>
            <Time>2022-04-23T10:50:16.000Z</Time>
            <Position>
              <LatitudeDegrees>41.72539360821247100830078125</LatitudeDegrees>
              <LongitudeDegrees>-0.11794486083090305328369140625</LongitudeDegrees>
            </Position>
            <AltitudeMeters>265</AltitudeMeters>
            <DistanceMeters>20396.086348007</DistanceMeters>
          </Trackpoint>
          <Trackpoint>
            <Time>2022-04-23T10:50:22.000Z</Time>
            <Position>
              <LatitudeDegrees>41.72514676116406917572021484375</LatitudeDegrees>
              <LongitudeDegrees>-0.11735896579921245574951171875</LongitudeDegrees>
            </Position>
            <AltitudeMeters>265.20001220703125</AltitudeMeters>
            <DistanceMeters>20451.975872008</DistanceMeters>
          </Trackpoint>
          <Trackpoint>
            <Time>2022-04-23T10:50:24.000Z</Time>
            <Position>
              <LatitudeDegrees>41.72507249750196933746337890625</LatitudeDegrees>
              <LongitudeDegrees>-0.1171845383942127227783203125</LongitudeDegrees>
            </Position>
            <AltitudeMeters>265.399993896484375</AltitudeMeters>
            <DistanceMeters>20468.657323854</DistanceMeters>
          </Trackpoint>
          <Trackpoint>
            <Time>2022-04-23T10:50:27.000Z</Time>
            <Position>
              <LatitudeDegrees>41.72495297156274318695068359375</LatitudeDegrees>
              <LongitudeDegrees>-0.11689527891576290130615234375</LongitudeDegrees>
            </Position>
            <AltitudeMeters>265.399993896484375</AltitudeMeters>
            <DistanceMeters>20496.123003457</DistanceMeters>
          </Trackpoint>
          <Trackpoint>
            <Time>2022-04-23T10:50:34.000Z</Time>
            <Position>
              <LatitudeDegrees>41.7246987484395503997802734375</LatitudeDegrees>
              <LongitudeDegrees>-0.11619606055319309234619140625</LongitudeDegrees>
            </Position>
            <AltitudeMeters>265.399993896484375</AltitudeMeters>
            <DistanceMeters>20560.732783975</DistanceMeters>
          </Trackpoint>
          <Trackpoint>
            <Time>2022-04-23T10:50:35.000Z</Time>
            <Position>
              <LatitudeDegrees>41.724660694599151611328125</LatitudeDegrees>
              <LongitudeDegrees>-0.116091035306453704833984375</LongitudeDegrees>
            </Position>
            <AltitudeMeters>265.399993896484375</AltitudeMeters>
            <DistanceMeters>20570.431097037</DistanceMeters>
          </Trackpoint>
          <Trackpoint>
            <Time>2022-04-23T10:50:39.000Z</Time>
            <Position>
              <LatitudeDegrees>41.72451518476009368896484375</LatitudeDegrees>
              <LongitudeDegrees>-0.1156573556363582611083984375</LongitudeDegrees>
            </Position>
            <AltitudeMeters>264.20001220703125</AltitudeMeters>
            <DistanceMeters>20609.929988509</DistanceMeters>
          </Trackpoint>
          <Trackpoint>
            <Time>2022-04-23T10:50:43.000Z</Time>
            <Position>
              <LatitudeDegrees>41.72437143512070178985595703125</LatitudeDegrees>
              <LongitudeDegrees>-0.1152111031115055084228515625</LongitudeDegrees>
            </Position>
            <AltitudeMeters>263.600006103515625</AltitudeMeters>
            <DistanceMeters>20650.305943737</DistanceMeters>
          </Trackpoint>
          <Trackpoint>
            <Time>2022-04-23T10:50:49.000Z</Time>
            <Position>
              <LatitudeDegrees>41.724160797894001007080078125</LatitudeDegrees>
              <LongitudeDegrees>-0.11451699770987033843994140625</LongitudeDegrees>
            </Position>
            <AltitudeMeters>263.79998779296875</AltitudeMeters>
            <DistanceMeters>20712.54996496</DistanceMeters>
          </Trackpoint>
          <Trackpoint>
            <Time>2022-04-23T10:50:50.000Z</Time>
            <Position>
              <LatitudeDegrees>41.7241328023374080657958984375</LatitudeDegrees>
              <LongitudeDegrees>-0.11439713649451732635498046875</LongitudeDegrees>
            </Position>
            <AltitudeMeters>263.79998779296875</AltitudeMeters>
            <DistanceMeters>20722.983015399</DistanceMeters>
          </Trackpoint>
          <Trackpoint>
            <Time>2022-04-23T10:50:56.000Z</Time>
            <Position>
              <LatitudeDegrees>41.723989136517047882080078125</LatitudeDegrees>
              <LongitudeDegrees>-0.1136782206594944000244140625</LongitudeDegrees>
            </Position>
            <AltitudeMeters>264.399993896484375</AltitudeMeters>
            <DistanceMeters>20784.807880686</DistanceMeters>
          </Trackpoint>
          <Trackpoint>
            <Time>2022-04-23T10:50:57.000Z</Time>
            <Position>
              <LatitudeDegrees>41.72396399080753326416015625</LatitudeDegrees>
              <LongitudeDegrees>-0.1135588623583316802978515625</LongitudeDegrees>
            </Position>
            <AltitudeMeters>264.399993896484375</AltitudeMeters>
            <DistanceMeters>20795.110722459</DistanceMeters>
          </Trackpoint>
          <Trackpoint>
            <Time>2022-04-23T10:51:03.000Z</Time>
            <Position>
              <LatitudeDegrees>41.723804064095020294189453125</LatitudeDegrees>
              <LongitudeDegrees>-0.11282645165920257568359375</LongitudeDegrees>
            </Position>
            <AltitudeMeters>263.79998779296875</AltitudeMeters>
            <DistanceMeters>20858.503441755</DistanceMeters>
          </Trackpoint>
          <Trackpoint>
            <Time>2022-04-23T10:51:05.000Z</Time>
            <Position>
              <LatitudeDegrees>41.7237432114779949188232421875</LatitudeDegrees>
              <LongitudeDegrees>-0.11255529709160327911376953125</LongitudeDegrees>
            </Position>
            <AltitudeMeters>263.20001220703125</AltitudeMeters>
            <DistanceMeters>20882.025001092</DistanceMeters>
          </Trackpoint>
          <Trackpoint>
            <Time>2022-04-23T10:51:06.000Z</Time>
            <Position>
              <LatitudeDegrees>41.72372284345328807830810546875</LatitudeDegrees>
              <LongitudeDegrees>-0.11245572008192539215087890625</LongitudeDegrees>
            </Position>
            <AltitudeMeters>263.20001220703125</AltitudeMeters>
            <DistanceMeters>20890.602182026</DistanceMeters>
          </Trackpoint>
          <Trackpoint>
            <Time>2022-04-23T10:51:12.000Z</Time>
            <Position>
              <LatitudeDegrees>41.7235668562352657318115234375</LatitudeDegrees>
              <LongitudeDegrees>-0.11170218698680400848388671875</LongitudeDegrees>
            </Position>
            <AltitudeMeters>263</AltitudeMeters>
            <DistanceMeters>20955.562516255</DistanceMeters>
          </Trackpoint>
          <Trackpoint>
            <Time>2022-04-23T10:51:14.000Z</Time>
            <Position>
              <LatitudeDegrees>41.72351363115012645721435546875</LatitudeDegrees>
              <LongitudeDegrees>-0.11145190335810184478759765625</LongitudeDegrees>
            </Position>
            <AltitudeMeters>263</AltitudeMeters>
            <DistanceMeters>20977.181459258</DistanceMeters>
          </Trackpoint>
          <Trackpoint>
            <Time>2022-04-23T10:51:20.000Z</Time>
            <Position>
              <LatitudeDegrees>41.72330928035080432891845703125</LatitudeDegrees>
              <LongitudeDegrees>-0.11074346490204334259033203125</LongitudeDegrees>
            </Position>
            <AltitudeMeters>263.79998779296875</AltitudeMeters>
            <DistanceMeters>21040.275190322</DistanceMeters>
          </Trackpoint>
          <Trackpoint>
            <Time>2022-04-23T10:51:26.000Z</Time>
            <Position>
              <LatitudeDegrees>41.72304340638220310211181640625</LatitudeDegrees>
              <LongitudeDegrees>-0.11009152047336101531982421875</LongitudeDegrees>
            </Position>
            <AltitudeMeters>263.79998779296875</AltitudeMeters>
            <DistanceMeters>21101.991145746</DistanceMeters>
          </Trackpoint>
          <Trackpoint>
            <Time>2022-04-23T10:51:33.000Z</Time>
            <Position>
              <LatitudeDegrees>41.72273193486034870147705078125</LatitudeDegrees>
              <LongitudeDegrees>-0.10939481668174266815185546875</LongitudeDegrees>
            </Position>
            <AltitudeMeters>263.20001220703125</AltitudeMeters>
            <DistanceMeters>21169.456633008</DistanceMeters>
          </Trackpoint>
          <Trackpoint>
            <Time>2022-04-23T10:51:35.000Z</Time>
            <Position>
              <LatitudeDegrees>41.72263788990676403045654296875</LatitudeDegrees>
              <LongitudeDegrees>-0.10918878950178623199462890625</LongitudeDegrees>
            </Position>
            <AltitudeMeters>263.20001220703125</AltitudeMeters>
            <DistanceMeters>21189.518975776</DistanceMeters>
          </Trackpoint>
          <Trackpoint>
            <Time>2022-04-23T10:51:41.000Z</Time>
            <Position>
              <LatitudeDegrees>41.72235307283699512481689453125</LatitudeDegrees>
              <LongitudeDegrees>-0.10853986255824565887451171875</LongitudeDegrees>
            </Position>
            <AltitudeMeters>263</AltitudeMeters>
            <DistanceMeters>21252.057384206</DistanceMeters>
          </Trackpoint>
          <Trackpoint>
            <Time>2022-04-23T10:51:46.000Z</Time>
            <Position>
              <LatitudeDegrees>41.72214235179126262664794921875</LatitudeDegrees>
              <LongitudeDegrees>-0.1080405525863170623779296875</LongitudeDegrees>
            </Position>
            <AltitudeMeters>263</AltitudeMeters>
            <DistanceMeters>21299.708425663</DistanceMeters>
          </Trackpoint>
          <Trackpoint>
            <Time>2022-04-23T10:51:53.000Z</Time>
            <Position>
              <LatitudeDegrees>41.72184236347675323486328125</LatitudeDegrees>
              <LongitudeDegrees>-0.1073170267045497894287109375</LongitudeDegrees>
            </Position>
            <AltitudeMeters>262.399993896484375</AltitudeMeters>
            <DistanceMeters>21368.465884613</DistanceMeters>
          </Trackpoint>
          <Trackpoint>
            <Time>2022-04-23T10:51:54.000Z</Time>
            <Position>
              <LatitudeDegrees>41.7218009568750858306884765625</LatitudeDegrees>
              <LongitudeDegrees>-0.1072104088962078094482421875</LongitudeDegrees>
            </Position>
            <AltitudeMeters>262.399993896484375</AltitudeMeters>
            <DistanceMeters>21378.450474938</DistanceMeters>
          </Trackpoint>
          <Trackpoint>
            <Time>2022-04-23T10:51:59.000Z</Time>
            <Position>
              <LatitudeDegrees>41.7216195724904537200927734375</LatitudeDegrees>
              <LongitudeDegrees>-0.10665544308722019195556640625</LongitudeDegrees>
            </Position>
            <AltitudeMeters>262</AltitudeMeters>
            <DistanceMeters>21428.780376427</DistanceMeters>
          </Trackpoint>
          <Trackpoint>
            <Time>2022-04-23T10:52:00.000Z</Time>
            <Position>
              <LatitudeDegrees>41.72157942317426204681396484375</LatitudeDegrees>
              <LongitudeDegrees>-0.10651865042746067047119140625</LongitudeDegrees>
            </Position>
            <AltitudeMeters>262</AltitudeMeters>
            <DistanceMeters>21440.991216785</DistanceMeters>
          </Trackpoint>
          <Trackpoint>
            <Time>2022-04-23T10:52:07.000Z</Time>
            <Position>
              <LatitudeDegrees>41.72133936546742916107177734375</LatitudeDegrees>
              <LongitudeDegrees>-0.10576327331364154815673828125</LongitudeDegrees>
            </Position>
            <AltitudeMeters>261</AltitudeMeters>
            <DistanceMeters>21509.195246722</DistanceMeters>
          </Trackpoint>
          <Trackpoint>
            <Time>2022-04-23T10:52:11.000Z</Time>
            <Position>
              <LatitudeDegrees>41.721209026873111724853515625</LatitudeDegrees>
              <LongitudeDegrees>-0.10532565414905548095703125</LongitudeDegrees>
            </Position>
            <AltitudeMeters>260.399993896484375</AltitudeMeters>
            <DistanceMeters>21548.337948857</DistanceMeters>
          </Trackpoint>
          <Trackpoint>
            <Time>2022-04-23T10:52:17.000Z</Time>
            <Position>
              <LatitudeDegrees>41.72099771909415721893310546875</LatitudeDegrees>
              <LongitudeDegrees>-0.10466490872204303741455078125</LongitudeDegrees>
            </Position>
            <AltitudeMeters>260</AltitudeMeters>
            <DistanceMeters>21608.055793759</DistanceMeters>
          </Trackpoint>
          <Trackpoint>
            <Time>2022-04-23T10:52:19.000Z</Time>
            <Position>
              <LatitudeDegrees>41.7209258861839771270751953125</LatitudeDegrees>
              <LongitudeDegrees>-0.1044237613677978515625</LongitudeDegrees>
            </Position>
            <AltitudeMeters>260</AltitudeMeters>
            <DistanceMeters>21629.625811346</DistanceMeters>
          </Trackpoint>
          <Trackpoint>
            <Time>2022-04-23T10:52:26.000Z</Time>
            <Position>
              <LatitudeDegrees>41.7207015864551067352294921875</LatitudeDegrees>
              <LongitudeDegrees>-0.10368456132709980010986328125</LongitudeDegrees>
            </Position>
            <AltitudeMeters>259.79998779296875</AltitudeMeters>
            <DistanceMeters>21695.915782536</DistanceMeters>
          </Trackpoint>
          <Trackpoint>
            <Time>2022-04-23T10:52:30.000Z</Time>
            <Position>
              <LatitudeDegrees>41.72056353650987148284912109375</LatitudeDegrees>
              <LongitudeDegrees>-0.1032353751361370086669921875</LongitudeDegrees>
            </Position>
            <AltitudeMeters>259.79998779296875</AltitudeMeters>
            <DistanceMeters>21736.271828019</DistanceMeters>
          </Trackpoint>
          <Trackpoint>
            <Time>2022-04-23T10:52:36.000Z</Time>
            <Position>
              <LatitudeDegrees>41.72035533003509044647216796875</LatitudeDegrees>
              <LongitudeDegrees>-0.10256356559693813323974609375</LongitudeDegrees>
            </Position>
            <AltitudeMeters>259.399993896484375</AltitudeMeters>
            <DistanceMeters>21796.702692112</DistanceMeters>
          </Trackpoint>
          <Trackpoint>
            <Time>2022-04-23T10:52:39.000Z</Time>
            <Position>
              <LatitudeDegrees>41.720251142978668212890625</LatitudeDegrees>
              <LongitudeDegrees>-0.10222309269011020660400390625</LongitudeDegrees>
            </Position>
            <AltitudeMeters>259</AltitudeMeters>
            <DistanceMeters>21827.272654676</DistanceMeters>
          </Trackpoint>
          <Trackpoint>
            <Time>2022-04-23T10:52:45.000Z</Time>
            <Position>
              <LatitudeDegrees>41.72003765590488910675048828125</LatitudeDegrees>
              <LongitudeDegrees>-0.1015418954193592071533203125</LongitudeDegrees>
            </Position>
            <AltitudeMeters>259</AltitudeMeters>
            <DistanceMeters>21888.650055656</DistanceMeters>
          </Trackpoint>
          <Trackpoint>
            <Time>2022-04-23T10:52:46.000Z</Time>
            <Position>
              <LatitudeDegrees>41.72000194899737834930419921875</LatitudeDegrees>
              <LongitudeDegrees>-0.1014329306781291961669921875</LongitudeDegrees>
            </Position>
            <AltitudeMeters>259.20001220703125</AltitudeMeters>
            <DistanceMeters>21898.536488149</DistanceMeters>
          </Trackpoint>
          <Trackpoint>
            <Time>2022-04-23T10:52:52.000Z</Time>
            <Position>
              <LatitudeDegrees>41.7198084108531475067138671875</LatitudeDegrees>
              <LongitudeDegrees>-0.100815854966640472412109375</LongitudeDegrees>
            </Position>
            <AltitudeMeters>258.79998779296875</AltitudeMeters>
            <DistanceMeters>21954.142951586</DistanceMeters>
          </Trackpoint>
          <Trackpoint>
            <Time>2022-04-23T10:52:54.000Z</Time>
            <Position>
              <LatitudeDegrees>41.719749905169010162353515625</LatitudeDegrees>
              <LongitudeDegrees>-0.100617371499538421630859375</LongitudeDegrees>
            </Position>
            <AltitudeMeters>257.79998779296875</AltitudeMeters>
            <DistanceMeters>21971.871483412</DistanceMeters>
          </Trackpoint>
          <Trackpoint>
            <Time>2022-04-23T10:52:56.000Z</Time>
            <Position>
              <LatitudeDegrees>41.71969391405582427978515625</LatitudeDegrees>
              <LongitudeDegrees>-0.1004178822040557861328125</LongitudeDegrees>
            </Position>
            <AltitudeMeters>257.600006103515625</AltitudeMeters>
            <DistanceMeters>21989.577589533</DistanceMeters>
          </Trackpoint>
          <Trackpoint>
            <Time>2022-04-23T10:53:03.000Z</Time>
            <Position>
              <LatitudeDegrees>41.719487719237804412841796875</LatitudeDegrees>
              <LongitudeDegrees>-0.09975009597837924957275390625</LongitudeDegrees>
            </Position>
            <AltitudeMeters>257.399993896484375</AltitudeMeters>
            <DistanceMeters>22049.614923199</DistanceMeters>
          </Trackpoint>
          <Trackpoint>
            <Time>2022-04-23T10:53:10.000Z</Time>
            <Position>
              <LatitudeDegrees>41.719290912151336669921875</LatitudeDegrees>
              <LongitudeDegrees>-0.0991047732532024383544921875</LongitudeDegrees>
            </Position>
            <AltitudeMeters>257.600006103515625</AltitudeMeters>
            <DistanceMeters>22107.52900865</DistanceMeters>
          </Trackpoint>
          <Trackpoint>
            <Time>2022-04-23T10:53:17.000Z</Time>
            <Position>
              <LatitudeDegrees>41.719080694019794464111328125</LatitudeDegrees>
              <LongitudeDegrees>-0.09838007390499114990234375</LongitudeDegrees>
            </Position>
            <AltitudeMeters>257.20001220703125</AltitudeMeters>
            <DistanceMeters>22172.121875594</DistanceMeters>
          </Trackpoint>
          <Trackpoint>
            <Time>2022-04-23T10:53:21.000Z</Time>
            <Position>
              <LatitudeDegrees>41.71895303763449192047119140625</LatitudeDegrees>
              <LongitudeDegrees>-0.09795284830033779144287109375</LongitudeDegrees>
            </Position>
            <AltitudeMeters>256.600006103515625</AltitudeMeters>
            <DistanceMeters>22210.353096257</DistanceMeters>
          </Trackpoint>
          <Trackpoint>
            <Time>2022-04-23T10:53:24.000Z</Time>
            <Position>
              <LatitudeDegrees>41.71884189359843730926513671875</LatitudeDegrees>
              <LongitudeDegrees>-0.09760214947164058685302734375</LongitudeDegrees>
            </Position>
            <AltitudeMeters>256.20001220703125</AltitudeMeters>
            <DistanceMeters>22242.005694593</DistanceMeters>
          </Trackpoint>
          <Trackpoint>
            <Time>2022-04-23T10:53:30.000Z</Time>
            <Position>
              <LatitudeDegrees>41.71861558221280574798583984375</LatitudeDegrees>
              <LongitudeDegrees>-0.096870996057987213134765625</LongitudeDegrees>
            </Position>
            <AltitudeMeters>256</AltitudeMeters>
            <DistanceMeters>22307.764043616</DistanceMeters>
          </Trackpoint>
          <Trackpoint>
            <Time>2022-04-23T10:53:32.000Z</Time>
            <Position>
              <LatitudeDegrees>41.71853729523718357086181640625</LatitudeDegrees>
              <LongitudeDegrees>-0.09661107324063777923583984375</LongitudeDegrees>
            </Position>
            <AltitudeMeters>256</AltitudeMeters>
            <DistanceMeters>22331.050048647</DistanceMeters>
          </Trackpoint>
          <Trackpoint>
            <Time>2022-04-23T10:53:35.000Z</Time>
            <Position>
              <LatitudeDegrees>41.7184139974415302276611328125</LatitudeDegrees>
              <LongitudeDegrees>-0.0961907207965850830078125</LongitudeDegrees>
            </Position>
            <AltitudeMeters>256</AltitudeMeters>
            <DistanceMeters>22368.572005932</DistanceMeters>
          </Trackpoint>
          <Trackpoint>
            <Time>2022-04-23T10:53:38.000Z</Time>
            <Position>
              <LatitudeDegrees>41.71829422004520893096923828125</LatitudeDegrees>
              <LongitudeDegrees>-0.09576014243066310882568359375</LongitudeDegrees>
            </Position>
            <AltitudeMeters>256</AltitudeMeters>
            <DistanceMeters>22406.747207008</DistanceMeters>
          </Trackpoint>
          <Trackpoint>
            <Time>2022-04-23T10:53:43.000Z</Time>
            <Position>
              <LatitudeDegrees>41.71811786480247974395751953125</LatitudeDegrees>
              <LongitudeDegrees>-0.095043741166591644287109375</LongitudeDegrees>
            </Position>
            <AltitudeMeters>256.20001220703125</AltitudeMeters>
            <DistanceMeters>22469.418243696</DistanceMeters>
          </Trackpoint>
          <Trackpoint>
            <Time>2022-04-23T10:53:45.000Z</Time>
            <Position>
              <LatitudeDegrees>41.7180612869560718536376953125</LatitudeDegrees>
              <LongitudeDegrees>-0.0947683118283748626708984375</LongitudeDegrees>
            </Position>
            <AltitudeMeters>256.20001220703125</AltitudeMeters>
            <DistanceMeters>22493.151343962</DistanceMeters>
          </Trackpoint>
          <Trackpoint>
            <Time>2022-04-23T10:53:49.000Z</Time>
            <Position>
              <LatitudeDegrees>41.71792566776275634765625</LatitudeDegrees>
              <LongitudeDegrees>-0.094237066805362701416015625</LongitudeDegrees>
            </Position>
            <AltitudeMeters>256.399993896484375</AltitudeMeters>
            <DistanceMeters>22539.796588726</DistanceMeters>
          </Trackpoint>
          <Trackpoint>
            <Time>2022-04-23T10:53:50.000Z</Time>
            <Position>
              <LatitudeDegrees>41.7178856022655963897705078125</LatitudeDegrees>
              <LongitudeDegrees>-0.09411058388650417327880859375</LongitudeDegrees>
            </Position>
            <AltitudeMeters>256.399993896484375</AltitudeMeters>
            <DistanceMeters>22551.212062135</DistanceMeters>
          </Trackpoint>
          <Trackpoint>
            <Time>2022-04-23T10:53:54.000Z</Time>
            <Position>
              <LatitudeDegrees>41.71779599972069263458251953125</LatitudeDegrees>
              <LongitudeDegrees>-0.09358671493828296661376953125</LongitudeDegrees>
            </Position>
            <AltitudeMeters>256.20001220703125</AltitudeMeters>
            <DistanceMeters>22595.86268741</DistanceMeters>
          </Trackpoint>
          <Trackpoint>
            <Time>2022-04-23T10:53:58.000Z</Time>
            <Position>
              <LatitudeDegrees>41.717767417430877685546875</LatitudeDegrees>
              <LongitudeDegrees>-0.0930687971413135528564453125</LongitudeDegrees>
            </Position>
            <AltitudeMeters>255.399993896484375</AltitudeMeters>
            <DistanceMeters>22639.008164563</DistanceMeters>
          </Trackpoint>
          <Trackpoint>
            <Time>2022-04-23T10:54:00.000Z</Time>
            <Position>
              <LatitudeDegrees>41.71776196919381618499755859375</LatitudeDegrees>
              <LongitudeDegrees>-0.09283125400543212890625</LongitudeDegrees>
            </Position>
            <AltitudeMeters>254.8000030517578125</AltitudeMeters>
            <DistanceMeters>22658.752237094</DistanceMeters>
          </Trackpoint>
          <Trackpoint>
            <Time>2022-04-23T10:54:03.000Z</Time>
            <Position>
              <LatitudeDegrees>41.71778392978012561798095703125</LatitudeDegrees>
              <LongitudeDegrees>-0.0924763642251491546630859375</LongitudeDegrees>
            </Position>
            <AltitudeMeters>254.1999969482421875</AltitudeMeters>
            <DistanceMeters>22688.337458231</DistanceMeters>
          </Trackpoint>
          <Trackpoint>
            <Time>2022-04-23T10:54:04.000Z</Time>
            <Position>
              <LatitudeDegrees>41.71778024174273014068603515625</LatitudeDegrees>
              <LongitudeDegrees>-0.09238265454769134521484375</LongitudeDegrees>
            </Position>
            <AltitudeMeters>254</AltitudeMeters>
            <DistanceMeters>22696.133703772</DistanceMeters>
          </Trackpoint>
          <Trackpoint>
            <Time>2022-04-23T10:54:05.000Z</Time>
            <Position>
              <LatitudeDegrees>41.7177652381360530853271484375</LatitudeDegrees>
              <LongitudeDegrees>-0.09226723574101924896240234375</LongitudeDegrees>
            </Position>
            <AltitudeMeters>253.8000030517578125</AltitudeMeters>
            <DistanceMeters>22705.867334238</DistanceMeters>
          </Trackpoint>
          <Trackpoint>
            <Time>2022-04-23T10:54:07.000Z</Time>
            <Position>
              <LatitudeDegrees>41.717698015272617340087890625</LatitudeDegrees>
              <LongitudeDegrees>-0.09202633984386920928955078125</LongitudeDegrees>
            </Position>
            <AltitudeMeters>253.600006103515625</AltitudeMeters>
            <DistanceMeters>22727.233557925</DistanceMeters>
          </Trackpoint>
          <Trackpoint>
            <Time>2022-04-23T10:54:08.000Z</Time>
            <Position>
              <LatitudeDegrees>41.71766021288931369781494140625</LatitudeDegrees>
              <LongitudeDegrees>-0.0919023714959621429443359375</LongitudeDegrees>
            </Position>
            <AltitudeMeters>253</AltitudeMeters>
            <DistanceMeters>22738.358585014</DistanceMeters>
          </Trackpoint>
          <Trackpoint>
            <Time>2022-04-23T10:54:11.000Z</Time>
            <Position>
              <LatitudeDegrees>41.71756398864090442657470703125</LatitudeDegrees>
              <LongitudeDegrees>-0.09149224497377872467041015625</LongitudeDegrees>
            </Position>
            <AltitudeMeters>251.8000030517578125</AltitudeMeters>
            <DistanceMeters>22774.075232383</DistanceMeters>
          </Trackpoint>
          <Trackpoint>
            <Time>2022-04-23T10:54:12.000Z</Time>
            <Position>
              <LatitudeDegrees>41.7175273597240447998046875</LatitudeDegrees>
              <LongitudeDegrees>-0.09131739847362041473388671875</LongitudeDegrees>
            </Position>
            <AltitudeMeters>251.8000030517578125</AltitudeMeters>
            <DistanceMeters>22789.162649889</DistanceMeters>
          </Trackpoint>
          <Trackpoint>
            <Time>2022-04-23T10:54:15.000Z</Time>
            <Position>
              <LatitudeDegrees>41.71743121929466724395751953125</LatitudeDegrees>
              <LongitudeDegrees>-0.090902410447597503662109375</LongitudeDegrees>
            </Position>
            <AltitudeMeters>250.399993896484375</AltitudeMeters>
            <DistanceMeters>22825.262046725</DistanceMeters>
          </Trackpoint>
          <Trackpoint>
            <Time>2022-04-23T10:54:17.000Z</Time>
            <Position>
              <LatitudeDegrees>41.71738184988498687744140625</LatitudeDegrees>
              <LongitudeDegrees>-0.0905991531908512115478515625</LongitudeDegrees>
            </Position>
            <AltitudeMeters>248.8000030517578125</AltitudeMeters>
            <DistanceMeters>22851.048627326</DistanceMeters>
          </Trackpoint>
          <Trackpoint>
            <Time>2022-04-23T10:54:19.000Z</Time>
            <Position>
              <LatitudeDegrees>41.7173357494175434112548828125</LatitudeDegrees>
              <LongitudeDegrees>-0.09030637331306934356689453125</LongitudeDegrees>
            </Position>
            <AltitudeMeters>248.1999969482421875</AltitudeMeters>
            <DistanceMeters>22875.907877345</DistanceMeters>
          </Trackpoint>
          <Trackpoint>
            <Time>2022-04-23T10:54:20.000Z</Time>
            <Position>
              <LatitudeDegrees>41.7173112742602825164794921875</LatitudeDegrees>
              <LongitudeDegrees>-0.09015952236950397491455078125</LongitudeDegrees>
            </Position>
            <AltitudeMeters>247.399993896484375</AltitudeMeters>
            <DistanceMeters>22888.408857424</DistanceMeters>
          </Trackpoint>
          <Trackpoint>
            <Time>2022-04-23T10:54:22.000Z</Time>
            <Position>
              <LatitudeDegrees>41.7172572948038578033447265625</LatitudeDegrees>
              <LongitudeDegrees>-0.08986062370240688323974609375</LongitudeDegrees>
            </Position>
            <AltitudeMeters>246.1999969482421875</AltitudeMeters>
            <DistanceMeters>22913.957792937</DistanceMeters>
          </Trackpoint>
          <Trackpoint>
            <Time>2022-04-23T10:54:24.000Z</Time>
            <Position>
              <LatitudeDegrees>41.71717640943825244903564453125</LatitudeDegrees>
              <LongitudeDegrees>-0.0895603001117706298828125</LongitudeDegrees>
            </Position>
            <AltitudeMeters>245</AltitudeMeters>
            <DistanceMeters>22940.48335601</DistanceMeters>
          </Trackpoint>
          <Trackpoint>
            <Time>2022-04-23T10:54:25.000Z</Time>
            <Position>
              <LatitudeDegrees>41.71712863259017467498779296875</LatitudeDegrees>
              <LongitudeDegrees>-0.08940900675952434539794921875</LongitudeDegrees>
            </Position>
            <AltitudeMeters>244.600006103515625</AltitudeMeters>
            <DistanceMeters>22954.131521341</DistanceMeters>
          </Trackpoint>
          <Trackpoint>
            <Time>2022-04-23T10:54:26.000Z</Time>
            <Position>
              <LatitudeDegrees>41.71708236448466777801513671875</LatitudeDegrees>
              <LongitudeDegrees>-0.08925192989408969879150390625</LongitudeDegrees>
            </Position>
            <AltitudeMeters>243.600006103515625</AltitudeMeters>
            <DistanceMeters>22968.160760314</DistanceMeters>
          </Trackpoint>
          <Trackpoint>
            <Time>2022-04-23T10:54:28.000Z</Time>
            <Position>
              <LatitudeDegrees>41.7169910855591297149658203125</LatitudeDegrees>
              <LongitudeDegrees>-0.08892872370779514312744140625</LongitudeDegrees>
            </Position>
            <AltitudeMeters>242.1999969482421875</AltitudeMeters>
            <DistanceMeters>22996.870468039</DistanceMeters>
          </Trackpoint>
          <Trackpoint>
            <Time>2022-04-23T10:54:29.000Z</Time>
            <Position>
              <LatitudeDegrees>41.716947667300701141357421875</LatitudeDegrees>
              <LongitudeDegrees>-0.08876963518559932708740234375</LongitudeDegrees>
            </Position>
            <AltitudeMeters>241</AltitudeMeters>
            <DistanceMeters>23010.943407909</DistanceMeters>
          </Trackpoint>
          <Trackpoint>
            <Time>2022-04-23T10:54:30.000Z</Time>
            <Position>
              <LatitudeDegrees>41.71690441668033599853515625</LatitudeDegrees>
              <LongitudeDegrees>-0.08861121721565723419189453125</LongitudeDegrees>
            </Position>
            <AltitudeMeters>240.1999969482421875</AltitudeMeters>
            <DistanceMeters>23024.957834856</DistanceMeters>
          </Trackpoint>
          <Trackpoint>
            <Time>2022-04-23T10:54:31.000Z</Time>
            <Position>
              <LatitudeDegrees>41.71686158515512943267822265625</LatitudeDegrees>
              <LongitudeDegrees>-0.08845061995089054107666015625</LongitudeDegrees>
            </Position>
            <AltitudeMeters>239.399993896484375</AltitudeMeters>
            <DistanceMeters>23039.126697178</DistanceMeters>
          </Trackpoint>
          <Trackpoint>
            <Time>2022-04-23T10:54:33.000Z</Time>
            <Position>
              <LatitudeDegrees>41.7167815379798412322998046875</LatitudeDegrees>
              <LongitudeDegrees>-0.08812741376459598541259765625</LongitudeDegrees>
            </Position>
            <AltitudeMeters>237.600006103515625</AltitudeMeters>
            <DistanceMeters>23067.418178508</DistanceMeters>
          </Trackpoint>
          <Trackpoint>
            <Time>2022-04-23T10:54:35.000Z</Time>
            <Position>
              <LatitudeDegrees>41.7166819609701633453369140625</LatitudeDegrees>
              <LongitudeDegrees>-0.08781460113823413848876953125</LongitudeDegrees>
            </Position>
            <AltitudeMeters>236.1999969482421875</AltitudeMeters>
            <DistanceMeters>23095.671492076</DistanceMeters>
          </Trackpoint>
          <Trackpoint>
            <Time>2022-04-23T10:54:37.000Z</Time>
            <Position>
              <LatitudeDegrees>41.71654541976749897003173828125</LatitudeDegrees>
              <LongitudeDegrees>-0.0875394232571125030517578125</LongitudeDegrees>
            </Position>
            <AltitudeMeters>235.1999969482421875</AltitudeMeters>
            <DistanceMeters>23123.123852992</DistanceMeters>
          </Trackpoint>
          <Trackpoint>
            <Time>2022-04-23T10:54:39.000Z</Time>
            <Position>
              <LatitudeDegrees>41.71640192158520221710205078125</LatitudeDegrees>
              <LongitudeDegrees>-0.08728737942874431610107421875</LongitudeDegrees>
            </Position>
            <AltitudeMeters>234</AltitudeMeters>
            <DistanceMeters>23149.459800127</DistanceMeters>
          </Trackpoint>
          <Trackpoint>
            <Time>2022-04-23T10:54:42.000Z</Time>
            <Position>
              <LatitudeDegrees>41.71617887914180755615234375</LatitudeDegrees>
              <LongitudeDegrees>-0.08693911135196685791015625</LongitudeDegrees>
            </Position>
            <AltitudeMeters>232.399993896484375</AltitudeMeters>
            <DistanceMeters>23187.584584252</DistanceMeters>
          </Trackpoint>
          <Trackpoint>
            <Time>2022-04-23T10:54:44.000Z</Time>
            <Position>
              <LatitudeDegrees>41.716017611324787139892578125</LatitudeDegrees>
              <LongitudeDegrees>-0.08674473501741886138916015625</LongitudeDegrees>
            </Position>
            <AltitudeMeters>231.8000030517578125</AltitudeMeters>
            <DistanceMeters>23211.729224963</DistanceMeters>
          </Trackpoint>
          <Trackpoint>
            <Time>2022-04-23T10:54:46.000Z</Time>
            <Position>
              <LatitudeDegrees>41.7158353887498378753662109375</LatitudeDegrees>
              <LongitudeDegrees>-0.0866013206541538238525390625</LongitudeDegrees>
            </Position>
            <AltitudeMeters>231.399993896484375</AltitudeMeters>
            <DistanceMeters>23235.251935991</DistanceMeters>
          </Trackpoint>
          <Trackpoint>
            <Time>2022-04-23T10:54:48.000Z</Time>
            <Position>
              <LatitudeDegrees>41.71565425582230091094970703125</LatitudeDegrees>
              <LongitudeDegrees>-0.0864641927182674407958984375</LongitudeDegrees>
            </Position>
            <AltitudeMeters>230.1999969482421875</AltitudeMeters>
            <DistanceMeters>23258.408836896</DistanceMeters>
          </Trackpoint>
          <Trackpoint>
            <Time>2022-04-23T10:54:49.000Z</Time>
            <Position>
              <LatitudeDegrees>41.71555467881262302398681640625</LatitudeDegrees>
              <LongitudeDegrees>-0.0863657891750335693359375</LongitudeDegrees>
            </Position>
            <AltitudeMeters>230</AltitudeMeters>
            <DistanceMeters>23272.181483185</DistanceMeters>
          </Trackpoint>
          <Trackpoint>
            <Time>2022-04-23T10:54:51.000Z</Time>
            <Position>
              <LatitudeDegrees>41.71541403047740459442138671875</LatitudeDegrees>
              <LongitudeDegrees>-0.08619957603514194488525390625</LongitudeDegrees>
            </Position>
            <AltitudeMeters>229.1999969482421875</AltitudeMeters>
            <DistanceMeters>23293.056237528</DistanceMeters>
          </Trackpoint>
          <Trackpoint>
            <Time>2022-04-23T10:54:52.000Z</Time>
            <Position>
              <LatitudeDegrees>41.71533339656889438629150390625</LatitudeDegrees>
              <LongitudeDegrees>-0.08611701428890228271484375</LongitudeDegrees>
            </Position>
            <AltitudeMeters>228.8000030517578125</AltitudeMeters>
            <DistanceMeters>23304.352032327</DistanceMeters>
          </Trackpoint>
          <Trackpoint>
            <Time>2022-04-23T10:54:58.000Z</Time>
            <Position>
              <LatitudeDegrees>41.71480433084070682525634765625</LatitudeDegrees>
              <LongitudeDegrees>-0.0857155211269855499267578125</LongitudeDegrees>
            </Position>
            <AltitudeMeters>228.399993896484375</AltitudeMeters>
            <DistanceMeters>23372.029735408</DistanceMeters>
          </Trackpoint>
          <Trackpoint>
            <Time>2022-04-23T10:55:00.000Z</Time>
            <Position>
              <LatitudeDegrees>41.71465362422168254852294921875</LatitudeDegrees>
              <LongitudeDegrees>-0.08560647256672382354736328125</LongitudeDegrees>
            </Position>
            <AltitudeMeters>227.8000030517578125</AltitudeMeters>
            <DistanceMeters>23391.093903806</DistanceMeters>
          </Trackpoint>
          <Trackpoint>
            <Time>2022-04-23T10:55:01.000Z</Time>
            <Position>
              <LatitudeDegrees>41.714577265083789825439453125</LatitudeDegrees>
              <LongitudeDegrees>-0.08556473068892955780029296875</LongitudeDegrees>
            </Position>
            <AltitudeMeters>227</AltitudeMeters>
            <DistanceMeters>23400.27320897</DistanceMeters>
          </Trackpoint>
          <Trackpoint>
            <Time>2022-04-23T10:55:02.000Z</Time>
            <Position>
              <LatitudeDegrees>41.71450274996459484100341796875</LatitudeDegrees>
              <LongitudeDegrees>-0.0855452008545398712158203125</LongitudeDegrees>
            </Position>
            <AltitudeMeters>226.399993896484375</AltitudeMeters>
            <DistanceMeters>23408.724177826</DistanceMeters>
          </Trackpoint>
          <Trackpoint>
            <Time>2022-04-23T10:55:03.000Z</Time>
            <Position>
              <LatitudeDegrees>41.71442697755992412567138671875</LatitudeDegrees>
              <LongitudeDegrees>-0.08555701933801174163818359375</LongitudeDegrees>
            </Position>
            <AltitudeMeters>225.1999969482421875</AltitudeMeters>
            <DistanceMeters>23417.215121844</DistanceMeters>
          </Trackpoint>
          <Trackpoint>
            <Time>2022-04-23T10:55:05.000Z</Time>
            <Position>
              <LatitudeDegrees>41.71426202170550823211669921875</LatitudeDegrees>
              <LongitudeDegrees>-0.085581578314304351806640625</LongitudeDegrees>
            </Position>
            <AltitudeMeters>223.600006103515625</AltitudeMeters>
            <DistanceMeters>23435.687982717</DistanceMeters>
          </Trackpoint>
          <Trackpoint>
            <Time>2022-04-23T10:55:10.000Z</Time>
            <Position>
              <LatitudeDegrees>41.7138321138918399810791015625</LatitudeDegrees>
              <LongitudeDegrees>-0.085552744567394256591796875</LongitudeDegrees>
            </Position>
            <AltitudeMeters>222.600006103515625</AltitudeMeters>
            <DistanceMeters>23483.597658891</DistanceMeters>
          </Trackpoint>
          <Trackpoint>
            <Time>2022-04-23T10:55:11.000Z</Time>
            <Position>
              <LatitudeDegrees>41.7137439362704753875732421875</LatitudeDegrees>
              <LongitudeDegrees>-0.08558057248592376708984375</LongitudeDegrees>
            </Position>
            <AltitudeMeters>222.600006103515625</AltitudeMeters>
            <DistanceMeters>23493.681242617</DistanceMeters>
          </Trackpoint>
          <Trackpoint>
            <Time>2022-04-23T10:55:12.000Z</Time>
            <Position>
              <LatitudeDegrees>41.71366455964744091033935546875</LatitudeDegrees>
              <LongitudeDegrees>-0.08563019335269927978515625</LongitudeDegrees>
            </Position>
            <AltitudeMeters>222.399993896484375</AltitudeMeters>
            <DistanceMeters>23503.430631555</DistanceMeters>
          </Trackpoint>
          <Trackpoint>
            <Time>2022-04-23T10:55:13.000Z</Time>
            <Position>
              <LatitudeDegrees>41.7135997675359249114990234375</LatitudeDegrees>
              <LongitudeDegrees>-0.085702948272228240966796875</LongitudeDegrees>
            </Position>
            <AltitudeMeters>222.399993896484375</AltitudeMeters>
            <DistanceMeters>23512.840675636</DistanceMeters>
          </Trackpoint>
          <Trackpoint>
            <Time>2022-04-23T10:55:14.000Z</Time>
            <Position>
              <LatitudeDegrees>41.71354520134627819061279296875</LatitudeDegrees>
              <LongitudeDegrees>-0.0857985019683837890625</LongitudeDegrees>
            </Position>
            <AltitudeMeters>222.1999969482421875</AltitudeMeters>
            <DistanceMeters>23522.836112884</DistanceMeters>
          </Trackpoint>
          <Trackpoint>
            <Time>2022-04-23T10:55:15.000Z</Time>
            <Position>
              <LatitudeDegrees>41.71350739896297454833984375</LatitudeDegrees>
              <LongitudeDegrees>-0.08591140620410442352294921875</LongitudeDegrees>
            </Position>
            <AltitudeMeters>222.1999969482421875</AltitudeMeters>
            <DistanceMeters>23533.117458849</DistanceMeters>
          </Trackpoint>
          <Trackpoint>
            <Time>2022-04-23T10:55:16.000Z</Time>
            <Position>
              <LatitudeDegrees>41.71348501928150653839111328125</LatitudeDegrees>
              <LongitudeDegrees>-0.08603361435234546661376953125</LongitudeDegrees>
            </Position>
            <AltitudeMeters>222.1999969482421875</AltitudeMeters>
            <DistanceMeters>23543.572125045</DistanceMeters>
          </Trackpoint>
          <Trackpoint>
            <Time>2022-04-23T10:55:19.000Z</Time>
            <Position>
              <LatitudeDegrees>41.71346842311322689056396484375</LatitudeDegrees>
              <LongitudeDegrees>-0.08640392683446407318115234375</LongitudeDegrees>
            </Position>
            <AltitudeMeters>221.8000030517578125</AltitudeMeters>
            <DistanceMeters>23574.394930119</DistanceMeters>
          </Trackpoint>
          <Trackpoint>
            <Time>2022-04-23T10:55:21.000Z</Time>
            <Position>
              <LatitudeDegrees>41.71345031820237636566162109375</LatitudeDegrees>
              <LongitudeDegrees>-0.086637698113918304443359375</LongitudeDegrees>
            </Position>
            <AltitudeMeters>221.600006103515625</AltitudeMeters>
            <DistanceMeters>23593.92193726</DistanceMeters>
          </Trackpoint>
          <Trackpoint>
            <Time>2022-04-23T10:55:22.000Z</Time>
            <Position>
              <LatitudeDegrees>41.71340924687683582305908203125</LatitudeDegrees>
              <LongitudeDegrees>-0.0867297314107418060302734375</LongitudeDegrees>
            </Position>
            <AltitudeMeters>221.399993896484375</AltitudeMeters>
            <DistanceMeters>23602.830153232</DistanceMeters>
          </Trackpoint>
          <Trackpoint>
            <Time>2022-04-23T10:55:23.000Z</Time>
            <Position>
              <LatitudeDegrees>41.71333816833794116973876953125</LatitudeDegrees>
              <LongitudeDegrees>-0.0867863930761814117431640625</LongitudeDegrees>
            </Position>
            <AltitudeMeters>221.1999969482421875</AltitudeMeters>
            <DistanceMeters>23612.03549067</DistanceMeters>
          </Trackpoint>
          <Trackpoint>
            <Time>2022-04-23T10:55:24.000Z</Time>
            <Position>
              <LatitudeDegrees>41.713256277143955230712890625</LatitudeDegrees>
              <LongitudeDegrees>-0.0867974571883678436279296875</LongitudeDegrees>
            </Position>
            <AltitudeMeters>221.1999969482421875</AltitudeMeters>
            <DistanceMeters>23621.196578513</DistanceMeters>
          </Trackpoint>
          <Trackpoint>
            <Time>2022-04-23T10:55:26.000Z</Time>
            <Position>
              <LatitudeDegrees>41.713081933557987213134765625</LatitudeDegrees>
              <LongitudeDegrees>-0.08676636032760143280029296875</LongitudeDegrees>
            </Position>
            <AltitudeMeters>220.1999969482421875</AltitudeMeters>
            <DistanceMeters>23640.772542963</DistanceMeters>
          </Trackpoint>
          <Trackpoint>
            <Time>2022-04-23T10:55:30.000Z</Time>
            <Position>
              <LatitudeDegrees>41.71272276900708675384521484375</LatitudeDegrees>
              <LongitudeDegrees>-0.0867005623877048492431640625</LongitudeDegrees>
            </Position>
            <AltitudeMeters>219.600006103515625</AltitudeMeters>
            <DistanceMeters>23681.120308468</DistanceMeters>
          </Trackpoint>
          <Trackpoint>
            <Time>2022-04-23T10:55:32.000Z</Time>
            <Position>
              <LatitudeDegrees>41.7125195078551769256591796875</LatitudeDegrees>
              <LongitudeDegrees>-0.08665345609188079833984375</LongitudeDegrees>
            </Position>
            <AltitudeMeters>218.8000030517578125</AltitudeMeters>
            <DistanceMeters>23704.079832472</DistanceMeters>
          </Trackpoint>
          <Trackpoint>
            <Time>2022-04-23T10:55:34.000Z</Time>
            <Position>
              <LatitudeDegrees>41.712327897548675537109375</LatitudeDegrees>
              <LongitudeDegrees>-0.08659855462610721588134765625</LongitudeDegrees>
            </Position>
            <AltitudeMeters>217.8000030517578125</AltitudeMeters>
            <DistanceMeters>23725.888618692</DistanceMeters>
          </Trackpoint>
          <Trackpoint>
            <Time>2022-04-23T10:55:35.000Z</Time>
            <Position>
              <LatitudeDegrees>41.71223200857639312744140625</LatitudeDegrees>
              <LongitudeDegrees>-0.086581371724605560302734375</LongitudeDegrees>
            </Position>
            <AltitudeMeters>217.399993896484375</AltitudeMeters>
            <DistanceMeters>23736.656449557</DistanceMeters>
          </Trackpoint>
          <Trackpoint>
            <Time>2022-04-23T10:55:39.000Z</Time>
            <Position>
              <LatitudeDegrees>41.71187468804419040679931640625</LatitudeDegrees>
              <LongitudeDegrees>-0.086504258215427398681640625</LongitudeDegrees>
            </Position>
            <AltitudeMeters>216.1999969482421875</AltitudeMeters>
            <DistanceMeters>23776.939595254</DistanceMeters>
          </Trackpoint>
          <Trackpoint>
            <Time>2022-04-23T10:55:42.000Z</Time>
            <Position>
              <LatitudeDegrees>41.71160697005689144134521484375</LatitudeDegrees>
              <LongitudeDegrees>-0.0864293240010738372802734375</LongitudeDegrees>
            </Position>
            <AltitudeMeters>215.600006103515625</AltitudeMeters>
            <DistanceMeters>23807.380643439</DistanceMeters>
          </Trackpoint>
          <Trackpoint>
            <Time>2022-04-23T10:55:47.000Z</Time>
            <Position>
              <LatitudeDegrees>41.71116960234940052032470703125</LatitudeDegrees>
              <LongitudeDegrees>-0.08630611002445220947265625</LongitudeDegrees>
            </Position>
            <AltitudeMeters>215.1999969482421875</AltitudeMeters>
            <DistanceMeters>23857.125290469</DistanceMeters>
          </Trackpoint>
          <Trackpoint>
            <Time>2022-04-23T10:55:49.000Z</Time>
            <Position>
              <LatitudeDegrees>41.71099542640149593353271484375</LatitudeDegrees>
              <LongitudeDegrees>-0.08625858463346958160400390625</LongitudeDegrees>
            </Position>
            <AltitudeMeters>215</AltitudeMeters>
            <DistanceMeters>23876.909569418</DistanceMeters>
          </Trackpoint>
          <Trackpoint>
            <Time>2022-04-23T10:55:55.000Z</Time>
            <Position>
              <LatitudeDegrees>41.7104917578399181365966796875</LatitudeDegrees>
              <LongitudeDegrees>-0.08612263016402721405029296875</LongitudeDegrees>
            </Position>
            <AltitudeMeters>214.600006103515625</AltitudeMeters>
            <DistanceMeters>23934.095600791</DistanceMeters>
          </Trackpoint>
          <Trackpoint>
            <Time>2022-04-23T10:56:00.000Z</Time>
            <Position>
              <LatitudeDegrees>41.7101083695888519287109375</LatitudeDegrees>
              <LongitudeDegrees>-0.08601970039308071136474609375</LongitudeDegrees>
            </Position>
            <AltitudeMeters>214.600006103515625</AltitudeMeters>
            <DistanceMeters>23977.616072341</DistanceMeters>
          </Trackpoint>
          <Trackpoint>
            <Time>2022-04-23T10:56:02.000Z</Time>
            <Position>
              <LatitudeDegrees>41.7099583335220813751220703125</LatitudeDegrees>
              <LongitudeDegrees>-0.08596940897405147552490234375</LongitudeDegrees>
            </Position>
            <AltitudeMeters>214.600006103515625</AltitudeMeters>
            <DistanceMeters>23994.830339347</DistanceMeters>
          </Trackpoint>
          <Trackpoint>
            <Time>2022-04-23T10:56:05.000Z</Time>
            <Position>
              <LatitudeDegrees>41.7097209580242633819580078125</LatitudeDegrees>
              <LongitudeDegrees>-0.08591878227889537811279296875</LongitudeDegrees>
            </Position>
            <AltitudeMeters>215</AltitudeMeters>
            <DistanceMeters>24021.583355233</DistanceMeters>
          </Trackpoint>
          <Trackpoint>
            <Time>2022-04-23T10:56:12.000Z</Time>
            <Position>
              <LatitudeDegrees>41.70915844850242137908935546875</LatitudeDegrees>
              <LongitudeDegrees>-0.08581065572798252105712890625</LongitudeDegrees>
            </Position>
            <AltitudeMeters>215.399993896484375</AltitudeMeters>
            <DistanceMeters>24084.833110619</DistanceMeters>
          </Trackpoint>
          <Trackpoint>
            <Time>2022-04-23T10:56:17.000Z</Time>
            <Position>
              <LatitudeDegrees>41.708767600357532501220703125</LatitudeDegrees>
              <LongitudeDegrees>-0.0857456959784030914306640625</LongitudeDegrees>
            </Position>
            <AltitudeMeters>215.399993896484375</AltitudeMeters>
            <DistanceMeters>24128.66875989</DistanceMeters>
          </Trackpoint>
          <Trackpoint>
            <Time>2022-04-23T10:56:19.000Z</Time>
            <Position>
              <LatitudeDegrees>41.708614714443683624267578125</LatitudeDegrees>
              <LongitudeDegrees>-0.0857068039476871490478515625</LongitudeDegrees>
            </Position>
            <AltitudeMeters>215.1999969482421875</AltitudeMeters>
            <DistanceMeters>24145.989187125</DistanceMeters>
          </Trackpoint>
          <Trackpoint>
            <Time>2022-04-23T10:56:21.000Z</Time>
            <Position>
              <LatitudeDegrees>41.708480603992938995361328125</LatitudeDegrees>
              <LongitudeDegrees>-0.0856013596057891845703125</LongitudeDegrees>
            </Position>
            <AltitudeMeters>215</AltitudeMeters>
            <DistanceMeters>24163.297358202</DistanceMeters>
          </Trackpoint>
          <Trackpoint>
            <Time>2022-04-23T10:56:23.000Z</Time>
            <Position>
              <LatitudeDegrees>41.70839016325771808624267578125</LatitudeDegrees>
              <LongitudeDegrees>-0.0854248367249965667724609375</LongitudeDegrees>
            </Position>
            <AltitudeMeters>214.600006103515625</AltitudeMeters>
            <DistanceMeters>24181.086907355</DistanceMeters>
          </Trackpoint>
          <Trackpoint>
            <Time>2022-04-23T10:56:24.000Z</Time>
            <Position>
              <LatitudeDegrees>41.70836518518626689910888671875</LatitudeDegrees>
              <LongitudeDegrees>-0.0853188894689083099365234375</LongitudeDegrees>
            </Position>
            <AltitudeMeters>214.399993896484375</AltitudeMeters>
            <DistanceMeters>24190.318692744</DistanceMeters>
          </Trackpoint>
          <Trackpoint>
            <Time>2022-04-23T10:56:25.000Z</Time>
            <Position>
              <LatitudeDegrees>41.70834816992282867431640625</LatitudeDegrees>
              <LongitudeDegrees>-0.085209421813488006591796875</LongitudeDegrees>
            </Position>
            <AltitudeMeters>214.1999969482421875</AltitudeMeters>
            <DistanceMeters>24199.609467778</DistanceMeters>
          </Trackpoint>
          <Trackpoint>
            <Time>2022-04-23T10:56:26.000Z</Time>
            <Position>
              <LatitudeDegrees>41.70833752490580081939697265625</LatitudeDegrees>
              <LongitudeDegrees>-0.08509643375873565673828125</LongitudeDegrees>
            </Position>
            <AltitudeMeters>214</AltitudeMeters>
            <DistanceMeters>24209.072620957</DistanceMeters>
          </Trackpoint>
          <Trackpoint>
            <Time>2022-04-23T10:56:28.000Z</Time>
            <Position>
              <LatitudeDegrees>41.7083376087248325347900390625</LatitudeDegrees>
              <LongitudeDegrees>-0.084866099059581756591796875</LongitudeDegrees>
            </Position>
            <AltitudeMeters>213.399993896484375</AltitudeMeters>
            <DistanceMeters>24228.211482493</DistanceMeters>
          </Trackpoint>
          <Trackpoint>
            <Time>2022-04-23T10:56:29.000Z</Time>
            <Position>
              <LatitudeDegrees>41.70834012329578399658203125</LatitudeDegrees>
              <LongitudeDegrees>-0.08475244045257568359375</LongitudeDegrees>
            </Position>
            <AltitudeMeters>213</AltitudeMeters>
            <DistanceMeters>24237.659833446</DistanceMeters>
          </Trackpoint>
          <Trackpoint>
            <Time>2022-04-23T10:56:34.000Z</Time>
            <Position>
              <LatitudeDegrees>41.7083875648677349090576171875</LatitudeDegrees>
              <LongitudeDegrees>-0.08418490178883075714111328125</LongitudeDegrees>
            </Position>
            <AltitudeMeters>212.600006103515625</AltitudeMeters>
            <DistanceMeters>24285.112144263</DistanceMeters>
          </Trackpoint>
          <Trackpoint>
            <Time>2022-04-23T10:56:36.000Z</Time>
            <Position>
              <LatitudeDegrees>41.70835160650312900543212890625</LatitudeDegrees>
              <LongitudeDegrees>-0.0839898549020290374755859375</LongitudeDegrees>
            </Position>
            <AltitudeMeters>212.600006103515625</AltitudeMeters>
            <DistanceMeters>24301.805771464</DistanceMeters>
          </Trackpoint>
          <Trackpoint>
            <Time>2022-04-23T10:56:37.000Z</Time>
            <Position>
              <LatitudeDegrees>41.708321012556552886962890625</LatitudeDegrees>
              <LongitudeDegrees>-0.08389941416680812835693359375</LongitudeDegrees>
            </Position>
            <AltitudeMeters>212.8000030517578125</AltitudeMeters>
            <DistanceMeters>24310.056148197</DistanceMeters>
          </Trackpoint>
          <Trackpoint>
            <Time>2022-04-23T10:56:43.000Z</Time>
            <Position>
              <LatitudeDegrees>41.70809696428477764129638671875</LatitudeDegrees>
              <LongitudeDegrees>-0.08335911668837070465087890625</LongitudeDegrees>
            </Position>
            <AltitudeMeters>214.399993896484375</AltitudeMeters>
            <DistanceMeters>24361.411208185</DistanceMeters>
          </Trackpoint>
          <Trackpoint>
            <Time>2022-04-23T10:56:44.000Z</Time>
            <Position>
              <LatitudeDegrees>41.708060167729854583740234375</LatitudeDegrees>
              <LongitudeDegrees>-0.0832686759531497955322265625</LongitudeDegrees>
            </Position>
            <AltitudeMeters>214.399993896484375</AltitudeMeters>
            <DistanceMeters>24369.969417697</DistanceMeters>
          </Trackpoint>
          <Trackpoint>
            <Time>2022-04-23T10:56:51.000Z</Time>
            <Position>
              <LatitudeDegrees>41.70780259184539318084716796875</LatitudeDegrees>
              <LongitudeDegrees>-0.08264095522463321685791015625</LongitudeDegrees>
            </Position>
            <AltitudeMeters>215.399993896484375</AltitudeMeters>
            <DistanceMeters>24429.487555169</DistanceMeters>
          </Trackpoint>
          <Trackpoint>
            <Time>2022-04-23T10:56:52.000Z</Time>
            <Position>
              <LatitudeDegrees>41.70776722021400928497314453125</LatitudeDegrees>
              <LongitudeDegrees>-0.0825463235378265380859375</LongitudeDegrees>
            </Position>
            <AltitudeMeters>215.399993896484375</AltitudeMeters>
            <DistanceMeters>24438.281506196</DistanceMeters>
          </Trackpoint>
          <Trackpoint>
            <Time>2022-04-23T10:56:59.000Z</Time>
            <Position>
              <LatitudeDegrees>41.70751266181468963623046875</LatitudeDegrees>
              <LongitudeDegrees>-0.08190058171749114990234375</LongitudeDegrees>
            </Position>
            <AltitudeMeters>216</AltitudeMeters>
            <DistanceMeters>24498.958872386</DistanceMeters>
          </Trackpoint>
          <Trackpoint>
            <Time>2022-04-23T10:57:00.000Z</Time>
            <Position>
              <LatitudeDegrees>41.7074746079742908477783203125</LatitudeDegrees>
              <LongitudeDegrees>-0.08182003162801265716552734375</LongitudeDegrees>
            </Position>
            <AltitudeMeters>216.1999969482421875</AltitudeMeters>
            <DistanceMeters>24506.879792228</DistanceMeters>
          </Trackpoint>
          <Trackpoint>
            <Time>2022-04-23T10:57:01.000Z</Time>
            <Position>
              <LatitudeDegrees>41.70743496157228946685791015625</LatitudeDegrees>
              <LongitudeDegrees>-0.0817461870610713958740234375</LongitudeDegrees>
            </Position>
            <AltitudeMeters>216.1999969482421875</AltitudeMeters>
            <DistanceMeters>24514.437254335</DistanceMeters>
          </Trackpoint>
          <Trackpoint>
            <Time>2022-04-23T10:57:03.000Z</Time>
            <Position>
              <LatitudeDegrees>41.7073505558073520660400390625</LatitudeDegrees>
              <LongitudeDegrees>-0.08161065168678760528564453125</LongitudeDegrees>
            </Position>
            <AltitudeMeters>216.600006103515625</AltitudeMeters>
            <DistanceMeters>24529.103420191</DistanceMeters>
          </Trackpoint>
          <Trackpoint>
            <Time>2022-04-23T10:57:05.000Z</Time>
            <Position>
              <LatitudeDegrees>41.70724670402705669403076171875</LatitudeDegrees>
              <LongitudeDegrees>-0.08149716071784496307373046875</LongitudeDegrees>
            </Position>
            <AltitudeMeters>218</AltitudeMeters>
            <DistanceMeters>24544.021101106</DistanceMeters>
          </Trackpoint>
          <Trackpoint>
            <Time>2022-04-23T10:57:06.000Z</Time>
            <Position>
              <LatitudeDegrees>41.7071901261806488037109375</LatitudeDegrees>
              <LongitudeDegrees>-0.08144795894622802734375</LongitudeDegrees>
            </Position>
            <AltitudeMeters>218.399993896484375</AltitudeMeters>
            <DistanceMeters>24551.528812952</DistanceMeters>
          </Trackpoint>
          <Trackpoint>
            <Time>2022-04-23T10:57:07.000Z</Time>
            <Position>
              <LatitudeDegrees>41.707132123410701751708984375</LatitudeDegrees>
              <LongitudeDegrees>-0.08140227757394313812255859375</LongitudeDegrees>
            </Position>
            <AltitudeMeters>219.1999969482421875</AltitudeMeters>
            <DistanceMeters>24559.017255695</DistanceMeters>
          </Trackpoint>
          <Trackpoint>
            <Time>2022-04-23T10:57:10.000Z</Time>
            <Position>
              <LatitudeDegrees>41.7069539241492748260498046875</LatitudeDegrees>
              <LongitudeDegrees>-0.08128409273922443389892578125</LongitudeDegrees>
            </Position>
            <AltitudeMeters>220.399993896484375</AltitudeMeters>
            <DistanceMeters>24581.149301841</DistanceMeters>
          </Trackpoint>
          <Trackpoint>
            <Time>2022-04-23T10:57:12.000Z</Time>
            <Position>
              <LatitudeDegrees>41.70683850534260272979736328125</LatitudeDegrees>
              <LongitudeDegrees>-0.08121200837194919586181640625</LongitudeDegrees>
            </Position>
            <AltitudeMeters>221.399993896484375</AltitudeMeters>
            <DistanceMeters>24595.323261793</DistanceMeters>
          </Trackpoint>
          <Trackpoint>
            <Time>2022-04-23T10:57:13.000Z</Time>
            <Position>
              <LatitudeDegrees>41.7067882977426052093505859375</LatitudeDegrees>
              <LongitudeDegrees>-0.08117278106510639190673828125</LongitudeDegrees>
            </Position>
            <AltitudeMeters>221.8000030517578125</AltitudeMeters>
            <DistanceMeters>24601.792061855</DistanceMeters>
          </Trackpoint>
          <Trackpoint>
            <Time>2022-04-23T10:57:15.000Z</Time>
            <Position>
              <LatitudeDegrees>41.70669400133192539215087890625</LatitudeDegrees>
              <LongitudeDegrees>-0.08110153488814830780029296875</LongitudeDegrees>
            </Position>
            <AltitudeMeters>222.8000030517578125</AltitudeMeters>
            <DistanceMeters>24613.841359306</DistanceMeters>
          </Trackpoint>
          <Trackpoint>
            <Time>2022-04-23T10:57:16.000Z</Time>
            <Position>
              <LatitudeDegrees>41.70664689503610134124755859375</LatitudeDegrees>
              <LongitudeDegrees>-0.08107068948447704315185546875</LongitudeDegrees>
            </Position>
            <AltitudeMeters>223.1999969482421875</AltitudeMeters>
            <DistanceMeters>24619.6768043</DistanceMeters>
          </Trackpoint>
          <Trackpoint>
            <Time>2022-04-23T10:57:18.000Z</Time>
            <Position>
              <LatitudeDegrees>41.70655251480638980865478515625</LatitudeDegrees>
              <LongitudeDegrees>-0.0810119323432445526123046875</LongitudeDegrees>
            </Position>
            <AltitudeMeters>224</AltitudeMeters>
            <DistanceMeters>24631.260712792</DistanceMeters>
          </Trackpoint>
          <Trackpoint>
            <Time>2022-04-23T10:57:21.000Z</Time>
            <Position>
              <LatitudeDegrees>41.70641588978469371795654296875</LatitudeDegrees>
              <LongitudeDegrees>-0.08094303309917449951171875</LongitudeDegrees>
            </Position>
            <AltitudeMeters>225</AltitudeMeters>
            <DistanceMeters>24647.50944736</DistanceMeters>
          </Trackpoint>
          <Trackpoint>
            <Time>2022-04-23T10:57:22.000Z</Time>
            <Position>
              <LatitudeDegrees>41.70637615956366062164306640625</LatitudeDegrees>
              <LongitudeDegrees>-0.08090791292488574981689453125</LongitudeDegrees>
            </Position>
            <AltitudeMeters>225.1999969482421875</AltitudeMeters>
            <DistanceMeters>24652.808837678</DistanceMeters>
          </Trackpoint>
          <Trackpoint>
            <Time>2022-04-23T10:57:24.000Z</Time>
            <Position>
              <LatitudeDegrees>41.70629896223545074462890625</LatitudeDegrees>
              <LongitudeDegrees>-0.08084152825176715850830078125</LongitudeDegrees>
            </Position>
            <AltitudeMeters>226.600006103515625</AltitudeMeters>
            <DistanceMeters>24663.019678125</DistanceMeters>
          </Trackpoint>
          <Trackpoint>
            <Time>2022-04-23T10:57:25.000Z</Time>
            <Position>
              <LatitudeDegrees>41.7062555439770221710205078125</LatitudeDegrees>
              <LongitudeDegrees>-0.0808131136000156402587890625</LongitudeDegrees>
            </Position>
            <AltitudeMeters>226.8000030517578125</AltitudeMeters>
            <DistanceMeters>24668.398559507</DistanceMeters>
          </Trackpoint>
          <Trackpoint>
            <Time>2022-04-23T10:57:27.000Z</Time>
            <Position>
              <LatitudeDegrees>41.70616342686116695404052734375</LatitudeDegrees>
              <LongitudeDegrees>-0.08078277111053466796875</LongitudeDegrees>
            </Position>
            <AltitudeMeters>227.399993896484375</AltitudeMeters>
            <DistanceMeters>24678.956365322</DistanceMeters>
          </Trackpoint>
          <Trackpoint>
            <Time>2022-04-23T10:57:28.000Z</Time>
            <Position>
              <LatitudeDegrees>41.70611833222210407257080078125</LatitudeDegrees>
              <LongitudeDegrees>-0.08076776750385761260986328125</LongitudeDegrees>
            </Position>
            <AltitudeMeters>227.8000030517578125</AltitudeMeters>
            <DistanceMeters>24684.128123865</DistanceMeters>
          </Trackpoint>
          <Trackpoint>
            <Time>2022-04-23T10:57:29.000Z</Time>
            <Position>
              <LatitudeDegrees>41.706076003611087799072265625</LatitudeDegrees>
              <LongitudeDegrees>-0.080752260982990264892578125</LongitudeDegrees>
            </Position>
            <AltitudeMeters>227.8000030517578125</AltitudeMeters>
            <DistanceMeters>24689.012533959</DistanceMeters>
          </Trackpoint>
          <Trackpoint>
            <Time>2022-04-23T10:57:32.000Z</Time>
            <Position>
              <LatitudeDegrees>41.7059514485299587249755859375</LatitudeDegrees>
              <LongitudeDegrees>-0.08071864955127239227294921875</LongitudeDegrees>
            </Position>
            <AltitudeMeters>228.600006103515625</AltitudeMeters>
            <DistanceMeters>24703.15428431</DistanceMeters>
          </Trackpoint>
          <Trackpoint>
            <Time>2022-04-23T10:57:33.000Z</Time>
            <Position>
              <LatitudeDegrees>41.70591414906084537506103515625</LatitudeDegrees>
              <LongitudeDegrees>-0.08070389740169048309326171875</LongitudeDegrees>
            </Position>
            <AltitudeMeters>228.8000030517578125</AltitudeMeters>
            <DistanceMeters>24707.484000086</DistanceMeters>
          </Trackpoint>
          <Trackpoint>
            <Time>2022-04-23T10:57:35.000Z</Time>
            <Position>
              <LatitudeDegrees>41.705841310322284698486328125</LatitudeDegrees>
              <LongitudeDegrees>-0.080672465264797210693359375</LongitudeDegrees>
            </Position>
            <AltitudeMeters>230</AltitudeMeters>
            <DistanceMeters>24716.001489983</DistanceMeters>
          </Trackpoint>
          <Trackpoint>
            <Time>2022-04-23T10:57:36.000Z</Time>
            <Position>
              <LatitudeDegrees>41.7058015801012516021728515625</LatitudeDegrees>
              <LongitudeDegrees>-0.08065628819167613983154296875</LongitudeDegrees>
            </Position>
            <AltitudeMeters>230.399993896484375</AltitudeMeters>
            <DistanceMeters>24720.623736284</DistanceMeters>
          </Trackpoint>
          <Trackpoint>
            <Time>2022-04-23T10:57:37.000Z</Time>
            <Position>
              <LatitudeDegrees>41.70576092787086963653564453125</LatitudeDegrees>
              <LongitudeDegrees>-0.080636255443096160888671875</LongitudeDegrees>
            </Position>
            <AltitudeMeters>231.1999969482421875</AltitudeMeters>
            <DistanceMeters>24725.445815384</DistanceMeters>
          </Trackpoint>
          <Trackpoint>
            <Time>2022-04-23T10:57:38.000Z</Time>
            <Position>
              <LatitudeDegrees>41.70572069473564624786376953125</LatitudeDegrees>
              <LongitudeDegrees>-0.080613791942596435546875</LongitudeDegrees>
            </Position>
            <AltitudeMeters>231.399993896484375</AltitudeMeters>
            <DistanceMeters>24730.296833752</DistanceMeters>
          </Trackpoint>
          <Trackpoint>
            <Time>2022-04-23T10:57:40.000Z</Time>
            <Position>
              <LatitudeDegrees>41.7056413181126117706298828125</LatitudeDegrees>
              <LongitudeDegrees>-0.0805609859526157379150390625</LongitudeDegrees>
            </Position>
            <AltitudeMeters>232.1999969482421875</AltitudeMeters>
            <DistanceMeters>24740.160863035</DistanceMeters>
          </Trackpoint>
          <Trackpoint>
            <Time>2022-04-23T10:57:41.000Z</Time>
            <Position>
              <LatitudeDegrees>41.70560133643448352813720703125</LatitudeDegrees>
              <LongitudeDegrees>-0.08053525350987911224365234375</LongitudeDegrees>
            </Position>
            <AltitudeMeters>232.1999969482421875</AltitudeMeters>
            <DistanceMeters>24745.096766827</DistanceMeters>
          </Trackpoint>
          <Trackpoint>
            <Time>2022-04-23T10:57:48.000Z</Time>
            <Position>
              <LatitudeDegrees>41.7053127475082874298095703125</LatitudeDegrees>
              <LongitudeDegrees>-0.080382116138935089111328125</LongitudeDegrees>
            </Position>
            <AltitudeMeters>233.600006103515625</AltitudeMeters>
            <DistanceMeters>24779.646002489</DistanceMeters>
          </Trackpoint>
          <Trackpoint>
            <Time>2022-04-23T10:57:49.000Z</Time>
            <Position>
              <LatitudeDegrees>41.70527427457273006439208984375</LatitudeDegrees>
              <LongitudeDegrees>-0.08036174811422824859619140625</LongitudeDegrees>
            </Position>
            <AltitudeMeters>233.8000030517578125</AltitudeMeters>
            <DistanceMeters>24784.250632712</DistanceMeters>
          </Trackpoint>
          <Trackpoint>
            <Time>2022-04-23T10:57:53.000Z</Time>
            <Position>
              <LatitudeDegrees>41.7051172815263271331787109375</LatitudeDegrees>
              <LongitudeDegrees>-0.0802880711853504180908203125</LongitudeDegrees>
            </Position>
            <AltitudeMeters>234.399993896484375</AltitudeMeters>
            <DistanceMeters>24802.765972896</DistanceMeters>
          </Trackpoint>
          <Trackpoint>
            <Time>2022-04-23T10:57:55.000Z</Time>
            <Position>
              <LatitudeDegrees>41.70504142530262470245361328125</LatitudeDegrees>
              <LongitudeDegrees>-0.08024540729820728302001953125</LongitudeDegrees>
            </Position>
            <AltitudeMeters>235.1999969482421875</AltitudeMeters>
            <DistanceMeters>24811.923117093</DistanceMeters>
          </Trackpoint>
          <Trackpoint>
            <Time>2022-04-23T10:57:58.000Z</Time>
            <Position>
              <LatitudeDegrees>41.704936064779758453369140625</LatitudeDegrees>
              <LongitudeDegrees>-0.08019628934562206268310546875</LongitudeDegrees>
            </Position>
            <AltitudeMeters>236.1999969482421875</AltitudeMeters>
            <DistanceMeters>24824.340021909</DistanceMeters>
          </Trackpoint>
          <Trackpoint>
            <Time>2022-04-23T10:58:02.000Z</Time>
            <Position>
              <LatitudeDegrees>41.70480254106223583221435546875</LatitudeDegrees>
              <LongitudeDegrees>-0.08010995574295520782470703125</LongitudeDegrees>
            </Position>
            <AltitudeMeters>237.1999969482421875</AltitudeMeters>
            <DistanceMeters>24840.84241705</DistanceMeters>
          </Trackpoint>
          <Trackpoint>
            <Time>2022-04-23T10:58:03.000Z</Time>
            <Position>
              <LatitudeDegrees>41.7047649063169956207275390625</LatitudeDegrees>
              <LongitudeDegrees>-0.0800939463078975677490234375</LongitudeDegrees>
            </Position>
            <AltitudeMeters>237.399993896484375</AltitudeMeters>
            <DistanceMeters>24845.238365593</DistanceMeters>
          </Trackpoint>
          <Trackpoint>
            <Time>2022-04-23T10:58:05.000Z</Time>
            <Position>
              <LatitudeDegrees>41.704693324863910675048828125</LatitudeDegrees>
              <LongitudeDegrees>-0.08005413226783275604248046875</LongitudeDegrees>
            </Position>
            <AltitudeMeters>238.399993896484375</AltitudeMeters>
            <DistanceMeters>24853.864886327</DistanceMeters>
          </Trackpoint>
          <Trackpoint>
            <Time>2022-04-23T10:58:09.000Z</Time>
            <Position>
              <LatitudeDegrees>41.7045654170215129852294921875</LatitudeDegrees>
              <LongitudeDegrees>-0.079989172518253326416015625</LongitudeDegrees>
            </Position>
            <AltitudeMeters>239.600006103515625</AltitudeMeters>
            <DistanceMeters>24869.090526625</DistanceMeters>
          </Trackpoint>
          <Trackpoint>
            <Time>2022-04-23T10:58:12.000Z</Time>
            <Position>
              <LatitudeDegrees>41.70446692965924739837646484375</LatitudeDegrees>
              <LongitudeDegrees>-0.07992907427251338958740234375</LongitudeDegrees>
            </Position>
            <AltitudeMeters>240.8000030517578125</AltitudeMeters>
            <DistanceMeters>24881.136451179</DistanceMeters>
          </Trackpoint>
          <Trackpoint>
            <Time>2022-04-23T10:58:15.000Z</Time>
            <Position>
              <LatitudeDegrees>41.7043639160692691802978515625</LatitudeDegrees>
              <LongitudeDegrees>-0.07987693883478641510009765625</LongitudeDegrees>
            </Position>
            <AltitudeMeters>241.8000030517578125</AltitudeMeters>
            <DistanceMeters>24893.393055592</DistanceMeters>
          </Trackpoint>
          <Trackpoint>
            <Time>2022-04-23T10:58:18.000Z</Time>
            <Position>
              <LatitudeDegrees>41.7042584717273712158203125</LatitudeDegrees>
              <LongitudeDegrees>-0.07982329465448856353759765625</LongitudeDegrees>
            </Position>
            <AltitudeMeters>242.600006103515625</AltitudeMeters>
            <DistanceMeters>24905.94773537</DistanceMeters>
          </Trackpoint>
          <Trackpoint>
            <Time>2022-04-23T10:58:20.000Z</Time>
            <Position>
              <LatitudeDegrees>41.704184710979461669921875</LatitudeDegrees>
              <LongitudeDegrees>-0.07978591136634349822998046875</LongitudeDegrees>
            </Position>
            <AltitudeMeters>243.1999969482421875</AltitudeMeters>
            <DistanceMeters>24914.726270121</DistanceMeters>
          </Trackpoint>
          <Trackpoint>
            <Time>2022-04-23T10:58:23.000Z</Time>
            <Position>
              <LatitudeDegrees>41.70407130382955074310302734375</LatitudeDegrees>
              <LongitudeDegrees>-0.079731680452823638916015625</LongitudeDegrees>
            </Position>
            <AltitudeMeters>244.399993896484375</AltitudeMeters>
            <DistanceMeters>24928.12874305</DistanceMeters>
          </Trackpoint>
          <Trackpoint>
            <Time>2022-04-23T10:58:25.000Z</Time>
            <Position>
              <LatitudeDegrees>41.703998632729053497314453125</LatitudeDegrees>
              <LongitudeDegrees>-0.07968683727085590362548828125</LongitudeDegrees>
            </Position>
            <AltitudeMeters>244.8000030517578125</AltitudeMeters>
            <DistanceMeters>24937.033917463</DistanceMeters>
          </Trackpoint>
          <Trackpoint>
            <Time>2022-04-23T10:58:31.000Z</Time>
            <Position>
              <LatitudeDegrees>41.70378430746495723724365234375</LatitudeDegrees>
              <LongitudeDegrees>-0.07956395857036113739013671875</LongitudeDegrees>
            </Position>
            <AltitudeMeters>245.600006103515625</AltitudeMeters>
            <DistanceMeters>24962.982301227</DistanceMeters>
          </Trackpoint>
          <Trackpoint>
            <Time>2022-04-23T10:58:34.000Z</Time>
            <Position>
              <LatitudeDegrees>41.70368104241788387298583984375</LatitudeDegrees>
              <LongitudeDegrees>-0.07948969490826129913330078125</LongitudeDegrees>
            </Position>
            <AltitudeMeters>246</AltitudeMeters>
            <DistanceMeters>24976.027638351</DistanceMeters>
          </Trackpoint>
          <Trackpoint>
            <Time>2022-04-23T10:58:38.000Z</Time>
            <Position>
              <LatitudeDegrees>41.703583560883998870849609375</LatitudeDegrees>
              <LongitudeDegrees>-0.07933236658573150634765625</LongitudeDegrees>
            </Position>
            <AltitudeMeters>246.600006103515625</AltitudeMeters>
            <DistanceMeters>24993.016969222</DistanceMeters>
          </Trackpoint>
          <Trackpoint>
            <Time>2022-04-23T10:58:42.000Z</Time>
            <Position>
              <LatitudeDegrees>41.7035874165594577789306640625</LatitudeDegrees>
              <LongitudeDegrees>-0.07912038825452327728271484375</LongitudeDegrees>
            </Position>
            <AltitudeMeters>247.600006103515625</AltitudeMeters>
            <DistanceMeters>25010.636931146</DistanceMeters>
          </Trackpoint>
          <Trackpoint>
            <Time>2022-04-23T10:58:43.000Z</Time>
            <Position>
              <LatitudeDegrees>41.70359395444393157958984375</LatitudeDegrees>
              <LongitudeDegrees>-0.07906624116003513336181640625</LongitudeDegrees>
            </Position>
            <AltitudeMeters>248</AltitudeMeters>
            <DistanceMeters>25015.19425227</DistanceMeters>
          </Trackpoint>
          <Trackpoint>
            <Time>2022-04-23T10:58:47.000Z</Time>
            <Position>
              <LatitudeDegrees>41.7036201059818267822265625</LatitudeDegrees>
              <LongitudeDegrees>-0.07886172272264957427978515625</LongitudeDegrees>
            </Position>
            <AltitudeMeters>248.8000030517578125</AltitudeMeters>
            <DistanceMeters>25032.436299036</DistanceMeters>
          </Trackpoint>
          <Trackpoint>
            <Time>2022-04-23T10:58:50.000Z</Time>
            <Position>
              <LatitudeDegrees>41.7036350257694721221923828125</LatitudeDegrees>
              <LongitudeDegrees>-0.07871319539844989776611328125</LongitudeDegrees>
            </Position>
            <AltitudeMeters>249.1999969482421875</AltitudeMeters>
            <DistanceMeters>25044.889512792</DistanceMeters>
          </Trackpoint>
          <Trackpoint>
            <Time>2022-04-23T10:58:54.000Z</Time>
            <Position>
              <LatitudeDegrees>41.703654639422893524169921875</LatitudeDegrees>
              <LongitudeDegrees>-0.07852124981582164764404296875</LongitudeDegrees>
            </Position>
            <AltitudeMeters>250</AltitudeMeters>
            <DistanceMeters>25060.988620037</DistanceMeters>
          </Trackpoint>
          <Trackpoint>
            <Time>2022-04-23T10:58:56.000Z</Time>
            <Position>
              <LatitudeDegrees>41.7036665417253971099853515625</LatitudeDegrees>
              <LongitudeDegrees>-0.07842234335839748382568359375</LongitudeDegrees>
            </Position>
            <AltitudeMeters>250.1999969482421875</AltitudeMeters>
            <DistanceMeters>25069.313090388</DistanceMeters>
          </Trackpoint>
          <Trackpoint>
            <Time>2022-04-23T10:59:02.000Z</Time>
            <Position>
              <LatitudeDegrees>41.70370367355644702911376953125</LatitudeDegrees>
              <LongitudeDegrees>-0.0780926831066608428955078125</LongitudeDegrees>
            </Position>
            <AltitudeMeters>251.1999969482421875</AltitudeMeters>
            <DistanceMeters>25097.016922565</DistanceMeters>
          </Trackpoint>
          <Trackpoint>
            <Time>2022-04-23T10:59:04.000Z</Time>
            <Position>
              <LatitudeDegrees>41.7037215270102024078369140625</LatitudeDegrees>
              <LongitudeDegrees>-0.07797659374773502349853515625</LongitudeDegrees>
            </Position>
            <AltitudeMeters>251.600006103515625</AltitudeMeters>
            <DistanceMeters>25106.865835255</DistanceMeters>
          </Trackpoint>
          <Trackpoint>
            <Time>2022-04-23T10:59:09.000Z</Time>
            <Position>
              <LatitudeDegrees>41.70373988337814807891845703125</LatitudeDegrees>
              <LongitudeDegrees>-0.0777788646519184112548828125</LongitudeDegrees>
            </Position>
            <AltitudeMeters>252.1999969482421875</AltitudeMeters>
            <DistanceMeters>25123.42313246</DistanceMeters>
          </Trackpoint>
          <Trackpoint>
            <Time>2022-04-23T10:59:11.000Z</Time>
            <Position>
              <LatitudeDegrees>41.70373988337814807891845703125</LatitudeDegrees>
              <LongitudeDegrees>-0.0777788646519184112548828125</LongitudeDegrees>
            </Position>
            <AltitudeMeters>252.399993896484375</AltitudeMeters>
            <DistanceMeters>25123.42313246</DistanceMeters>
          </Trackpoint>
          <Trackpoint>
            <Time>2022-04-23T10:59:25.000Z</Time>
            <Position>
              <LatitudeDegrees>41.70374281704425811767578125</LatitudeDegrees>
              <LongitudeDegrees>-0.07775061763823032379150390625</LongitudeDegrees>
            </Position>
            <AltitudeMeters>253.600006103515625</AltitudeMeters>
            <DistanceMeters>25125.793091858</DistanceMeters>
          </Trackpoint>
          <Trackpoint>
            <Time>2022-04-23T10:59:29.000Z</Time>
            <Position>
              <LatitudeDegrees>41.703718006610870361328125</LatitudeDegrees>
              <LongitudeDegrees>-0.0776045210659503936767578125</LongitudeDegrees>
            </Position>
            <AltitudeMeters>253.1999969482421875</AltitudeMeters>
            <DistanceMeters>25138.243404796</DistanceMeters>
          </Trackpoint>
          <Trackpoint>
            <Time>2022-04-23T10:59:30.000Z</Time>
            <Position>
              <LatitudeDegrees>41.7037010751664638519287109375</LatitudeDegrees>
              <LongitudeDegrees>-0.07755381055176258087158203125</LongitudeDegrees>
            </Position>
            <AltitudeMeters>253.1999969482421875</AltitudeMeters>
            <DistanceMeters>25142.860764483</DistanceMeters>
          </Trackpoint>
          <Trackpoint>
            <Time>2022-04-23T10:59:31.000Z</Time>
            <Position>
              <LatitudeDegrees>41.70367903076112270355224609375</LatitudeDegrees>
              <LongitudeDegrees>-0.0774995796382427215576171875</LongitudeDegrees>
            </Position>
            <AltitudeMeters>253.1999969482421875</AltitudeMeters>
            <DistanceMeters>25147.992207059</DistanceMeters>
          </Trackpoint>
          <Trackpoint>
            <Time>2022-04-23T10:59:34.000Z</Time>
            <Position>
              <LatitudeDegrees>41.7035776935517787933349609375</LatitudeDegrees>
              <LongitudeDegrees>-0.07734350860118865966796875</LongitudeDegrees>
            </Position>
            <AltitudeMeters>253</AltitudeMeters>
            <DistanceMeters>25165.179700209</DistanceMeters>
          </Trackpoint>
          <Trackpoint>
            <Time>2022-04-23T10:59:36.000Z</Time>
            <Position>
              <LatitudeDegrees>41.70348775573074817657470703125</LatitudeDegrees>
              <LongitudeDegrees>-0.07726212032139301300048828125</LongitudeDegrees>
            </Position>
            <AltitudeMeters>253</AltitudeMeters>
            <DistanceMeters>25177.260432616</DistanceMeters>
          </Trackpoint>
          <Trackpoint>
            <Time>2022-04-23T10:59:38.000Z</Time>
            <Position>
              <LatitudeDegrees>41.7033802159130573272705078125</LatitudeDegrees>
              <LongitudeDegrees>-0.0772062130272388458251953125</LongitudeDegrees>
            </Position>
            <AltitudeMeters>253</AltitudeMeters>
            <DistanceMeters>25190.099944895</DistanceMeters>
          </Trackpoint>
          <Trackpoint>
            <Time>2022-04-23T10:59:44.000Z</Time>
            <Position>
              <LatitudeDegrees>41.7030394077301025390625</LatitudeDegrees>
              <LongitudeDegrees>-0.07706900127232074737548828125</LongitudeDegrees>
            </Position>
            <AltitudeMeters>253</AltitudeMeters>
            <DistanceMeters>25229.709103954</DistanceMeters>
          </Trackpoint>
          <Trackpoint>
            <Time>2022-04-23T10:59:49.000Z</Time>
            <Position>
              <LatitudeDegrees>41.702746041119098663330078125</LatitudeDegrees>
              <LongitudeDegrees>-0.076903291046619415283203125</LongitudeDegrees>
            </Position>
            <AltitudeMeters>252.8000030517578125</AltitudeMeters>
            <DistanceMeters>25265.146169872</DistanceMeters>
          </Trackpoint>
          <Trackpoint>
            <Time>2022-04-23T10:59:50.000Z</Time>
            <Position>
              <LatitudeDegrees>41.70267621986567974090576171875</LatitudeDegrees>
              <LongitudeDegrees>-0.076857022941112518310546875</LongitudeDegrees>
            </Position>
            <AltitudeMeters>252.600006103515625</AltitudeMeters>
            <DistanceMeters>25273.816023176</DistanceMeters>
          </Trackpoint>
          <Trackpoint>
            <Time>2022-04-23T10:59:51.000Z</Time>
            <Position>
              <LatitudeDegrees>41.7026020400226116180419921875</LatitudeDegrees>
              <LongitudeDegrees>-0.07681243121623992919921875</LongitudeDegrees>
            </Position>
            <AltitudeMeters>252.1999969482421875</AltitudeMeters>
            <DistanceMeters>25282.866039383</DistanceMeters>
          </Trackpoint>
          <Trackpoint>
            <Time>2022-04-23T10:59:56.000Z</Time>
            <Position>
              <LatitudeDegrees>41.70222736895084381103515625</LatitudeDegrees>
              <LongitudeDegrees>-0.07656298577785491943359375</LongitudeDegrees>
            </Position>
            <AltitudeMeters>251</AltitudeMeters>
            <DistanceMeters>25329.435334837</DistanceMeters>
          </Trackpoint>
          <Trackpoint>
            <Time>2022-04-23T10:59:57.000Z</Time>
            <Position>
              <LatitudeDegrees>41.7021544463932514190673828125</LatitudeDegrees>
              <LongitudeDegrees>-0.07650925777852535247802734375</LongitudeDegrees>
            </Position>
            <AltitudeMeters>250.8000030517578125</AltitudeMeters>
            <DistanceMeters>25338.698368162</DistanceMeters>
          </Trackpoint>
          <Trackpoint>
            <Time>2022-04-23T11:00:01.000Z</Time>
            <Position>
              <LatitudeDegrees>41.70187239535152912139892578125</LatitudeDegrees>
              <LongitudeDegrees>-0.076330639421939849853515625</LongitudeDegrees>
            </Position>
            <AltitudeMeters>250</AltitudeMeters>
            <DistanceMeters>25373.423319247</DistanceMeters>
          </Trackpoint>
          <Trackpoint>
            <Time>2022-04-23T11:00:02.000Z</Time>
            <Position>
              <LatitudeDegrees>41.70181338675320148468017578125</LatitudeDegrees>
              <LongitudeDegrees>-0.07628411985933780670166015625</LongitudeDegrees>
            </Position>
            <AltitudeMeters>250</AltitudeMeters>
            <DistanceMeters>25381.044438042</DistanceMeters>
          </Trackpoint>
          <Trackpoint>
            <Time>2022-04-23T11:00:07.000Z</Time>
            <Position>
              <LatitudeDegrees>41.70155706815421581268310546875</LatitudeDegrees>
              <LongitudeDegrees>-0.07608689367771148681640625</LongitudeDegrees>
            </Position>
            <AltitudeMeters>250.399993896484375</AltitudeMeters>
            <DistanceMeters>25413.945919832</DistanceMeters>
          </Trackpoint>
          <Trackpoint>
            <Time>2022-04-23T11:00:10.000Z</Time>
            <Position>
              <LatitudeDegrees>41.70143536292016506195068359375</LatitudeDegrees>
              <LongitudeDegrees>-0.07599226199090480804443359375</LongitudeDegrees>
            </Position>
            <AltitudeMeters>251.600006103515625</AltitudeMeters>
            <DistanceMeters>25429.608905397</DistanceMeters>
          </Trackpoint>
          <Trackpoint>
            <Time>2022-04-23T11:00:12.000Z</Time>
            <Position>
              <LatitudeDegrees>41.70135607011616230010986328125</LatitudeDegrees>
              <LongitudeDegrees>-0.0759338401257991790771484375</LongitudeDegrees>
            </Position>
            <AltitudeMeters>252.1999969482421875</AltitudeMeters>
            <DistanceMeters>25439.68173712</DistanceMeters>
          </Trackpoint>
          <Trackpoint>
            <Time>2022-04-23T11:00:13.000Z</Time>
            <Position>
              <LatitudeDegrees>41.7013115622103214263916015625</LatitudeDegrees>
              <LongitudeDegrees>-0.075913555920124053955078125</LongitudeDegrees>
            </Position>
            <AltitudeMeters>252.1999969482421875</AltitudeMeters>
            <DistanceMeters>25444.914250071</DistanceMeters>
          </Trackpoint>
          <Trackpoint>
            <Time>2022-04-23T11:00:14.000Z</Time>
            <Position>
              <LatitudeDegrees>41.70126202516257762908935546875</LatitudeDegrees>
              <LongitudeDegrees>-0.0758999772369861602783203125</LongitudeDegrees>
            </Position>
            <AltitudeMeters>252.600006103515625</AltitudeMeters>
            <DistanceMeters>25450.54252762</DistanceMeters>
          </Trackpoint>
          <Trackpoint>
            <Time>2022-04-23T11:00:16.000Z</Time>
            <Position>
              <LatitudeDegrees>41.70115272514522075653076171875</LatitudeDegrees>
              <LongitudeDegrees>-0.0758952833712100982666015625</LongitudeDegrees>
            </Position>
            <AltitudeMeters>252.600006103515625</AltitudeMeters>
            <DistanceMeters>25462.714110678</DistanceMeters>
          </Trackpoint>
          <Trackpoint>
            <Time>2022-04-23T11:00:17.000Z</Time>
            <Position>
              <LatitudeDegrees>41.7010926268994808197021484375</LatitudeDegrees>
              <LongitudeDegrees>-0.0759073533117771148681640625</LongitudeDegrees>
            </Position>
            <AltitudeMeters>252.600006103515625</AltitudeMeters>
            <DistanceMeters>25469.477716762</DistanceMeters>
          </Trackpoint>
          <Trackpoint>
            <Time>2022-04-23T11:00:20.000Z</Time>
            <Position>
              <LatitudeDegrees>41.7008871026337146759033203125</LatitudeDegrees>
              <LongitudeDegrees>-0.07595554925501346588134765625</LongitudeDegrees>
            </Position>
            <AltitudeMeters>252.8000030517578125</AltitudeMeters>
            <DistanceMeters>25492.701203703</DistanceMeters>
          </Trackpoint>
          <Trackpoint>
            <Time>2022-04-23T11:00:21.000Z</Time>
            <Position>
              <LatitudeDegrees>41.70080990530550479888916015625</LatitudeDegrees>
              <LongitudeDegrees>-0.07598505355417728424072265625</LongitudeDegrees>
            </Position>
            <AltitudeMeters>252.8000030517578125</AltitudeMeters>
            <DistanceMeters>25501.636747107</DistanceMeters>
          </Trackpoint>
          <Trackpoint>
            <Time>2022-04-23T11:00:26.000Z</Time>
            <Position>
              <LatitudeDegrees>41.7004123516380786895751953125</LatitudeDegrees>
              <LongitudeDegrees>-0.07610977627336978912353515625</LongitudeDegrees>
            </Position>
            <AltitudeMeters>251.600006103515625</AltitudeMeters>
            <DistanceMeters>25547.083068348</DistanceMeters>
          </Trackpoint>
          <Trackpoint>
            <Time>2022-04-23T11:00:29.000Z</Time>
            <Position>
              <LatitudeDegrees>41.70021579600870609283447265625</LatitudeDegrees>
              <LongitudeDegrees>-0.07615805603563785552978515625</LongitudeDegrees>
            </Position>
            <AltitudeMeters>250.600006103515625</AltitudeMeters>
            <DistanceMeters>25569.325004143</DistanceMeters>
          </Trackpoint>
          <Trackpoint>
            <Time>2022-04-23T11:00:31.000Z</Time>
            <Position>
              <LatitudeDegrees>41.70010616071522235870361328125</LatitudeDegrees>
              <LongitudeDegrees>-0.0761854648590087890625</LongitudeDegrees>
            </Position>
            <AltitudeMeters>250.399993896484375</AltitudeMeters>
            <DistanceMeters>25581.738635945</DistanceMeters>
          </Trackpoint>
          <Trackpoint>
            <Time>2022-04-23T11:00:33.000Z</Time>
            <Position>
              <LatitudeDegrees>41.70000909827649593353271484375</LatitudeDegrees>
              <LongitudeDegrees>-0.076203905045986175537109375</LongitudeDegrees>
            </Position>
            <AltitudeMeters>250.399993896484375</AltitudeMeters>
            <DistanceMeters>25592.650169197</DistanceMeters>
          </Trackpoint>
          <Trackpoint>
            <Time>2022-04-23T11:00:35.000Z</Time>
            <Position>
              <LatitudeDegrees>41.69992469251155853271484375</LatitudeDegrees>
              <LongitudeDegrees>-0.07621161639690399169921875</LongitudeDegrees>
            </Position>
            <AltitudeMeters>250.1999969482421875</AltitudeMeters>
            <DistanceMeters>25602.06692823</DistanceMeters>
          </Trackpoint>
          <Trackpoint>
            <Time>2022-04-23T11:00:36.000Z</Time>
            <Position>
              <LatitudeDegrees>41.69988638721406459808349609375</LatitudeDegrees>
              <LongitudeDegrees>-0.07622075267136096954345703125</LongitudeDegrees>
            </Position>
            <AltitudeMeters>250.1999969482421875</AltitudeMeters>
            <DistanceMeters>25606.397686682</DistanceMeters>
          </Trackpoint>
          <Trackpoint>
            <Time>2022-04-23T11:00:42.000Z</Time>
            <Position>
              <LatitudeDegrees>41.69962168671190738677978515625</LatitudeDegrees>
              <LongitudeDegrees>-0.0762731395661830902099609375</LongitudeDegrees>
            </Position>
            <AltitudeMeters>251</AltitudeMeters>
            <DistanceMeters>25636.179277278</DistanceMeters>
          </Trackpoint>
          <Trackpoint>
            <Time>2022-04-23T11:00:43.000Z</Time>
            <Position>
              <LatitudeDegrees>41.69957223348319530487060546875</LatitudeDegrees>
              <LongitudeDegrees>-0.07627489976584911346435546875</LongitudeDegrees>
            </Position>
            <AltitudeMeters>251</AltitudeMeters>
            <DistanceMeters>25641.685909343</DistanceMeters>
          </Trackpoint>
          <Trackpoint>
            <Time>2022-04-23T11:00:44.000Z</Time>
            <Position>
              <LatitudeDegrees>41.6995245404541492462158203125</LatitudeDegrees>
              <LongitudeDegrees>-0.07627330720424652099609375</LongitudeDegrees>
            </Position>
            <AltitudeMeters>250.8000030517578125</AltitudeMeters>
            <DistanceMeters>25646.996364006</DistanceMeters>
          </Trackpoint>
          <Trackpoint>
            <Time>2022-04-23T11:00:46.000Z</Time>
            <Position>
              <LatitudeDegrees>41.69943678192794322967529296875</LatitudeDegrees>
              <LongitudeDegrees>-0.07625612430274486541748046875</LongitudeDegrees>
            </Position>
            <AltitudeMeters>250.8000030517578125</AltitudeMeters>
            <DistanceMeters>25656.868171591</DistanceMeters>
          </Trackpoint>
          <Trackpoint>
            <Time>2022-04-23T11:00:48.000Z</Time>
            <Position>
              <LatitudeDegrees>41.69937743805348873138427734375</LatitudeDegrees>
              <LongitudeDegrees>-0.07623332552611827850341796875</LongitudeDegrees>
            </Position>
            <AltitudeMeters>250.399993896484375</AltitudeMeters>
            <DistanceMeters>25663.739069614</DistanceMeters>
          </Trackpoint>
          <Trackpoint>
            <Time>2022-04-23T11:00:50.000Z</Time>
            <Position>
              <LatitudeDegrees>41.6993243806064128875732421875</LatitudeDegrees>
              <LongitudeDegrees>-0.07619091309607028961181640625</LongitudeDegrees>
            </Position>
            <AltitudeMeters>249.399993896484375</AltitudeMeters>
            <DistanceMeters>25670.616535747</DistanceMeters>
          </Trackpoint>
          <Trackpoint>
            <Time>2022-04-23T11:00:53.000Z</Time>
            <Position>
              <LatitudeDegrees>41.69921784661710262298583984375</LatitudeDegrees>
              <LongitudeDegrees>-0.0761427171528339385986328125</LongitudeDegrees>
            </Position>
            <AltitudeMeters>248.399993896484375</AltitudeMeters>
            <DistanceMeters>25683.132675973</DistanceMeters>
          </Trackpoint>
          <Trackpoint>
            <Time>2022-04-23T11:00:58.000Z</Time>
            <Position>
              <LatitudeDegrees>41.6990347020328044891357421875</LatitudeDegrees>
              <LongitudeDegrees>-0.0760424695909023284912109375</LongitudeDegrees>
            </Position>
            <AltitudeMeters>247.600006103515625</AltitudeMeters>
            <DistanceMeters>25705.15387406</DistanceMeters>
          </Trackpoint>
          <Trackpoint>
            <Time>2022-04-23T11:01:06.000Z</Time>
            <Position>
              <LatitudeDegrees>41.6987631283700466156005859375</LatitudeDegrees>
              <LongitudeDegrees>-0.07589620538055896759033203125</LongitudeDegrees>
            </Position>
            <AltitudeMeters>249.600006103515625</AltitudeMeters>
            <DistanceMeters>25737.732934593</DistanceMeters>
          </Trackpoint>
          <Trackpoint>
            <Time>2022-04-23T11:01:10.000Z</Time>
            <Position>
              <LatitudeDegrees>41.69862926937639713287353515625</LatitudeDegrees>
              <LongitudeDegrees>-0.07581724785268306732177734375</LongitudeDegrees>
            </Position>
            <AltitudeMeters>251</AltitudeMeters>
            <DistanceMeters>25754.012760871</DistanceMeters>
          </Trackpoint>
          <Trackpoint>
            <Time>2022-04-23T11:01:12.000Z</Time>
            <Position>
              <LatitudeDegrees>41.69856221415102481842041015625</LatitudeDegrees>
              <LongitudeDegrees>-0.07575094699859619140625</LongitudeDegrees>
            </Position>
            <AltitudeMeters>252</AltitudeMeters>
            <DistanceMeters>25763.289432069</DistanceMeters>
          </Trackpoint>
          <Trackpoint>
            <Time>2022-04-23T11:01:17.000Z</Time>
            <Position>
              <LatitudeDegrees>41.6984053887426853179931640625</LatitudeDegrees>
              <LongitudeDegrees>-0.07556528784334659576416015625</LongitudeDegrees>
            </Position>
            <AltitudeMeters>253</AltitudeMeters>
            <DistanceMeters>25786.585905073</DistanceMeters>
          </Trackpoint>
          <Trackpoint>
            <Time>2022-04-23T11:01:18.000Z</Time>
            <Position>
              <LatitudeDegrees>41.698370017111301422119140625</LatitudeDegrees>
              <LongitudeDegrees>-0.07552589289844036102294921875</LongitudeDegrees>
            </Position>
            <AltitudeMeters>253.1999969482421875</AltitudeMeters>
            <DistanceMeters>25791.70677824</DistanceMeters>
          </Trackpoint>
          <Trackpoint>
            <Time>2022-04-23T11:01:19.000Z</Time>
            <Position>
              <LatitudeDegrees>41.698332130908966064453125</LatitudeDegrees>
              <LongitudeDegrees>-0.07548876106739044189453125</LongitudeDegrees>
            </Position>
            <AltitudeMeters>253.1999969482421875</AltitudeMeters>
            <DistanceMeters>25796.93238358</DistanceMeters>
          </Trackpoint>
          <Trackpoint>
            <Time>2022-04-23T11:01:25.000Z</Time>
            <Position>
              <LatitudeDegrees>41.69811495579779148101806640625</LatitudeDegrees>
              <LongitudeDegrees>-0.075217522680759429931640625</LongitudeDegrees>
            </Position>
            <AltitudeMeters>253.399993896484375</AltitudeMeters>
            <DistanceMeters>25829.983652959</DistanceMeters>
          </Trackpoint>
          <Trackpoint>
            <Time>2022-04-23T11:01:26.000Z</Time>
            <Position>
              <LatitudeDegrees>41.69809634797275066375732421875</LatitudeDegrees>
              <LongitudeDegrees>-0.075148455798625946044921875</LongitudeDegrees>
            </Position>
            <AltitudeMeters>253.1999969482421875</AltitudeMeters>
            <DistanceMeters>25836.084634446</DistanceMeters>
          </Trackpoint>
          <Trackpoint>
            <Time>2022-04-23T11:01:27.000Z</Time>
            <Position>
              <LatitudeDegrees>41.69808545149862766265869140625</LatitudeDegrees>
              <LongitudeDegrees>-0.075066648423671722412109375</LongitudeDegrees>
            </Position>
            <AltitudeMeters>253.1999969482421875</AltitudeMeters>
            <DistanceMeters>25842.989618416</DistanceMeters>
          </Trackpoint>
          <Trackpoint>
            <Time>2022-04-23T11:01:29.000Z</Time>
            <Position>
              <LatitudeDegrees>41.69807824306190013885498046875</LatitudeDegrees>
              <LongitudeDegrees>-0.0748537480831146240234375</LongitudeDegrees>
            </Position>
            <AltitudeMeters>252</AltitudeMeters>
            <DistanceMeters>25860.700823782</DistanceMeters>
          </Trackpoint>
          <Trackpoint>
            <Time>2022-04-23T11:01:30.000Z</Time>
            <Position>
              <LatitudeDegrees>41.698079667985439300537109375</LatitudeDegrees>
              <LongitudeDegrees>-0.0747263431549072265625</LongitudeDegrees>
            </Position>
            <AltitudeMeters>251.399993896484375</AltitudeMeters>
            <DistanceMeters>25871.289375577</DistanceMeters>
          </Trackpoint>
          <Trackpoint>
            <Time>2022-04-23T11:01:31.000Z</Time>
            <Position>
              <LatitudeDegrees>41.69807556085288524627685546875</LatitudeDegrees>
              <LongitudeDegrees>-0.074587874114513397216796875</LongitudeDegrees>
            </Position>
            <AltitudeMeters>250.8000030517578125</AltitudeMeters>
            <DistanceMeters>25882.80604883</DistanceMeters>
          </Trackpoint>
          <Trackpoint>
            <Time>2022-04-23T11:01:33.000Z</Time>
            <Position>
              <LatitudeDegrees>41.6980406083166599273681640625</LatitudeDegrees>
              <LongitudeDegrees>-0.07431772537529468536376953125</LongitudeDegrees>
            </Position>
            <AltitudeMeters>250.399993896484375</AltitudeMeters>
            <DistanceMeters>25905.591465549</DistanceMeters>
          </Trackpoint>
          <Trackpoint>
            <Time>2022-04-23T11:01:35.000Z</Time>
            <Position>
              <LatitudeDegrees>41.697967685759067535400390625</LatitudeDegrees>
              <LongitudeDegrees>-0.07409962825477123260498046875</LongitudeDegrees>
            </Position>
            <AltitudeMeters>249.1999969482421875</AltitudeMeters>
            <DistanceMeters>25925.450684786</DistanceMeters>
          </Trackpoint>
          <Trackpoint>
            <Time>2022-04-23T11:01:36.000Z</Time>
            <Position>
              <LatitudeDegrees>41.697928123176097869873046875</LatitudeDegrees>
              <LongitudeDegrees>-0.0740076787769794464111328125</LongitudeDegrees>
            </Position>
            <AltitudeMeters>248.399993896484375</AltitudeMeters>
            <DistanceMeters>25934.270269724</DistanceMeters>
          </Trackpoint>
          <Trackpoint>
            <Time>2022-04-23T11:01:37.000Z</Time>
            <Position>
              <LatitudeDegrees>41.69789149425923824310302734375</LatitudeDegrees>
              <LongitudeDegrees>-0.0739288888871669769287109375</LongitudeDegrees>
            </Position>
            <AltitudeMeters>248</AltitudeMeters>
            <DistanceMeters>25941.983255113</DistanceMeters>
          </Trackpoint>
          <Trackpoint>
            <Time>2022-04-23T11:01:39.000Z</Time>
            <Position>
              <LatitudeDegrees>41.69784061610698699951171875</LatitudeDegrees>
              <LongitudeDegrees>-0.073815397918224334716796875</LongitudeDegrees>
            </Position>
            <AltitudeMeters>247.399993896484375</AltitudeMeters>
            <DistanceMeters>25952.984213458</DistanceMeters>
          </Trackpoint>
          <Trackpoint>
            <Time>2022-04-23T11:01:44.000Z</Time>
            <Position>
              <LatitudeDegrees>41.69775587506592273712158203125</LatitudeDegrees>
              <LongitudeDegrees>-0.07360945455729961395263671875</LongitudeDegrees>
            </Position>
            <AltitudeMeters>247.1999969482421875</AltitudeMeters>
            <DistanceMeters>25972.526013089</DistanceMeters>
          </Trackpoint>
          <Trackpoint>
            <Time>2022-04-23T11:01:50.000Z</Time>
            <Position>
              <LatitudeDegrees>41.6976547054946422576904296875</LatitudeDegrees>
              <LongitudeDegrees>-0.073350034654140472412109375</LongitudeDegrees>
            </Position>
            <AltitudeMeters>249.1999969482421875</AltitudeMeters>
            <DistanceMeters>25996.848768446</DistanceMeters>
          </Trackpoint>
          <Trackpoint>
            <Time>2022-04-23T11:01:54.000Z</Time>
            <Position>
              <LatitudeDegrees>41.69759175740182399749755859375</LatitudeDegrees>
              <LongitudeDegrees>-0.07319136522710323333740234375</LongitudeDegrees>
            </Position>
            <AltitudeMeters>251</AltitudeMeters>
            <DistanceMeters>26011.780365393</DistanceMeters>
          </Trackpoint>
          <Trackpoint>
            <Time>2022-04-23T11:01:57.000Z</Time>
            <Position>
              <LatitudeDegrees>41.69754196889698505401611328125</LatitudeDegrees>
              <LongitudeDegrees>-0.073077790439128875732421875</LongitudeDegrees>
            </Position>
            <AltitudeMeters>252.600006103515625</AltitudeMeters>
            <DistanceMeters>26022.725363982</DistanceMeters>
          </Trackpoint>
          <Trackpoint>
            <Time>2022-04-23T11:02:00.000Z</Time>
            <Position>
              <LatitudeDegrees>41.69749888591468334197998046875</LatitudeDegrees>
              <LongitudeDegrees>-0.0729830749332904815673828125</LongitudeDegrees>
            </Position>
            <AltitudeMeters>253.600006103515625</AltitudeMeters>
            <DistanceMeters>26031.942465434</DistanceMeters>
          </Trackpoint>
          <Trackpoint>
            <Time>2022-04-23T11:02:03.000Z</Time>
            <Position>
              <LatitudeDegrees>41.697437278926372528076171875</LatitudeDegrees>
              <LongitudeDegrees>-0.072898752987384796142578125</LongitudeDegrees>
            </Position>
            <AltitudeMeters>255</AltitudeMeters>
            <DistanceMeters>26041.746809561</DistanceMeters>
          </Trackpoint>
          <Trackpoint>
            <Time>2022-04-23T11:02:06.000Z</Time>
            <Position>
              <LatitudeDegrees>41.697347424924373626708984375</LatitudeDegrees>
              <LongitudeDegrees>-0.07281216792762279510498046875</LongitudeDegrees>
            </Position>
            <AltitudeMeters>256.20001220703125</AltitudeMeters>
            <DistanceMeters>26054.067344655</DistanceMeters>
          </Trackpoint>
          <Trackpoint>
            <Time>2022-04-23T11:02:10.000Z</Time>
            <Position>
              <LatitudeDegrees>41.69720434583723545074462890625</LatitudeDegrees>
              <LongitudeDegrees>-0.07271795533597469329833984375</LongitudeDegrees>
            </Position>
            <AltitudeMeters>256.600006103515625</AltitudeMeters>
            <DistanceMeters>26071.813186025</DistanceMeters>
          </Trackpoint>
          <Trackpoint>
            <Time>2022-04-23T11:02:14.000Z</Time>
            <Position>
              <LatitudeDegrees>41.6970525495707988739013671875</LatitudeDegrees>
              <LongitudeDegrees>-0.0725887902081012725830078125</LongitudeDegrees>
            </Position>
            <AltitudeMeters>256.79998779296875</AltitudeMeters>
            <DistanceMeters>26091.83001699</DistanceMeters>
          </Trackpoint>
          <Trackpoint>
            <Time>2022-04-23T11:02:16.000Z</Time>
            <Position>
              <LatitudeDegrees>41.69697225093841552734375</LatitudeDegrees>
              <LongitudeDegrees>-0.07250974886119365692138671875</LongitudeDegrees>
            </Position>
            <AltitudeMeters>256.600006103515625</AltitudeMeters>
            <DistanceMeters>26102.921714853</DistanceMeters>
          </Trackpoint>
          <Trackpoint>
            <Time>2022-04-23T11:02:21.000Z</Time>
            <Position>
              <LatitudeDegrees>41.69677334837615489959716796875</LatitudeDegrees>
              <LongitudeDegrees>-0.07227136753499507904052734375</LongitudeDegrees>
            </Position>
            <AltitudeMeters>256.600006103515625</AltitudeMeters>
            <DistanceMeters>26132.629989987</DistanceMeters>
          </Trackpoint>
          <Trackpoint>
            <Time>2022-04-23T11:02:24.000Z</Time>
            <Position>
              <LatitudeDegrees>41.69664476998150348663330078125</LatitudeDegrees>
              <LongitudeDegrees>-0.072095096111297607421875</LongitudeDegrees>
            </Position>
            <AltitudeMeters>256.20001220703125</AltitudeMeters>
            <DistanceMeters>26153.109294186</DistanceMeters>
          </Trackpoint>
          <Trackpoint>
            <Time>2022-04-23T11:02:26.000Z</Time>
            <Position>
              <LatitudeDegrees>41.69654100202023983001708984375</LatitudeDegrees>
              <LongitudeDegrees>-0.07201530039310455322265625</LongitudeDegrees>
            </Position>
            <AltitudeMeters>256.20001220703125</AltitudeMeters>
            <DistanceMeters>26166.426941554</DistanceMeters>
          </Trackpoint>
          <Trackpoint>
            <Time>2022-04-23T11:02:27.000Z</Time>
            <Position>
              <LatitudeDegrees>41.6964881122112274169921875</LatitudeDegrees>
              <LongitudeDegrees>-0.07198822684586048126220703125</LongitudeDegrees>
            </Position>
            <AltitudeMeters>256.20001220703125</AltitudeMeters>
            <DistanceMeters>26172.728867942</DistanceMeters>
          </Trackpoint>
          <Trackpoint>
            <Time>2022-04-23T11:02:30.000Z</Time>
            <Position>
              <LatitudeDegrees>41.69632726348936557769775390625</LatitudeDegrees>
              <LongitudeDegrees>-0.071946568787097930908203125</LongitudeDegrees>
            </Position>
            <AltitudeMeters>256.20001220703125</AltitudeMeters>
            <DistanceMeters>26190.963105373</DistanceMeters>
          </Trackpoint>
          <Trackpoint>
            <Time>2022-04-23T11:02:31.000Z</Time>
            <Position>
              <LatitudeDegrees>41.69626993127167224884033203125</LatitudeDegrees>
              <LongitudeDegrees>-0.07194195874035358428955078125</LongitudeDegrees>
            </Position>
            <AltitudeMeters>256.20001220703125</AltitudeMeters>
            <DistanceMeters>26197.356080109</DistanceMeters>
          </Trackpoint>
          <Trackpoint>
            <Time>2022-04-23T11:02:37.000Z</Time>
            <Position>
              <LatitudeDegrees>41.69592124409973621368408203125</LatitudeDegrees>
              <LongitudeDegrees>-0.071909017860889434814453125</LongitudeDegrees>
            </Position>
            <AltitudeMeters>257.399993896484375</AltitudeMeters>
            <DistanceMeters>26236.262064148</DistanceMeters>
          </Trackpoint>
          <Trackpoint>
            <Time>2022-04-23T11:02:39.000Z</Time>
            <Position>
              <LatitudeDegrees>41.69581177644431591033935546875</LatitudeDegrees>
              <LongitudeDegrees>-0.071900300681591033935546875</LongitudeDegrees>
            </Position>
            <AltitudeMeters>257.399993896484375</AltitudeMeters>
            <DistanceMeters>26248.467356897</DistanceMeters>
          </Trackpoint>
          <Trackpoint>
            <Time>2022-04-23T11:02:45.000Z</Time>
            <Position>
              <LatitudeDegrees>41.69545822776854038238525390625</LatitudeDegrees>
              <LongitudeDegrees>-0.0717826187610626220703125</LongitudeDegrees>
            </Position>
            <AltitudeMeters>258</AltitudeMeters>
            <DistanceMeters>26289.015156817</DistanceMeters>
          </Trackpoint>
          <Trackpoint>
            <Time>2022-04-23T11:02:50.000Z</Time>
            <Position>
              <LatitudeDegrees>41.6952236182987689971923828125</LatitudeDegrees>
              <LongitudeDegrees>-0.07156661711633205413818359375</LongitudeDegrees>
            </Position>
            <AltitudeMeters>257.79998779296875</AltitudeMeters>
            <DistanceMeters>26320.703111001</DistanceMeters>
          </Trackpoint>
          <Trackpoint>
            <Time>2022-04-23T11:02:55.000Z</Time>
            <Position>
              <LatitudeDegrees>41.6950066946446895599365234375</LatitudeDegrees>
              <LongitudeDegrees>-0.07135069929063320159912109375</LongitudeDegrees>
            </Position>
            <AltitudeMeters>258</AltitudeMeters>
            <DistanceMeters>26350.785333006</DistanceMeters>
          </Trackpoint>
          <Trackpoint>
            <Time>2022-04-23T11:02:56.000Z</Time>
            <Position>
              <LatitudeDegrees>41.6949557326734066009521484375</LatitudeDegrees>
              <LongitudeDegrees>-0.0713066942989826202392578125</LongitudeDegrees>
            </Position>
            <AltitudeMeters>258</AltitudeMeters>
            <DistanceMeters>26357.534237035</DistanceMeters>
          </Trackpoint>
          <Trackpoint>
            <Time>2022-04-23T11:02:58.000Z</Time>
            <Position>
              <LatitudeDegrees>41.694877110421657562255859375</LatitudeDegrees>
              <LongitudeDegrees>-0.07124877534806728363037109375</LongitudeDegrees>
            </Position>
            <AltitudeMeters>258.20001220703125</AltitudeMeters>
            <DistanceMeters>26367.521540194</DistanceMeters>
          </Trackpoint>
          <Trackpoint>
            <Time>2022-04-23T11:02:59.000Z</Time>
            <Position>
              <LatitudeDegrees>41.6948236338794231414794921875</LatitudeDegrees>
              <LongitudeDegrees>-0.07120619527995586395263671875</LongitudeDegrees>
            </Position>
            <AltitudeMeters>258.20001220703125</AltitudeMeters>
            <DistanceMeters>26374.445460748</DistanceMeters>
          </Trackpoint>
          <Trackpoint>
            <Time>2022-04-23T11:03:05.000Z</Time>
            <Position>
              <LatitudeDegrees>41.694524399936199188232421875</LatitudeDegrees>
              <LongitudeDegrees>-0.0710099749267101287841796875</LongitudeDegrees>
            </Position>
            <AltitudeMeters>259</AltitudeMeters>
            <DistanceMeters>26411.528776154</DistanceMeters>
          </Trackpoint>
          <Trackpoint>
            <Time>2022-04-23T11:03:07.000Z</Time>
            <Position>
              <LatitudeDegrees>41.69442675076425075531005859375</LatitudeDegrees>
              <LongitudeDegrees>-0.0709489546716213226318359375</LongitudeDegrees>
            </Position>
            <AltitudeMeters>259</AltitudeMeters>
            <DistanceMeters>26423.522487746</DistanceMeters>
          </Trackpoint>
          <Trackpoint>
            <Time>2022-04-23T11:03:10.000Z</Time>
            <Position>
              <LatitudeDegrees>41.69427352957427501678466796875</LatitudeDegrees>
              <LongitudeDegrees>-0.070845521986484527587890625</LongitudeDegrees>
            </Position>
            <AltitudeMeters>259</AltitudeMeters>
            <DistanceMeters>26442.62049334</DistanceMeters>
          </Trackpoint>
          <Trackpoint>
            <Time>2022-04-23T11:03:12.000Z</Time>
            <Position>
              <LatitudeDegrees>41.6942020319402217864990234375</LatitudeDegrees>
              <LongitudeDegrees>-0.07075692526996135711669921875</LongitudeDegrees>
            </Position>
            <AltitudeMeters>259</AltitudeMeters>
            <DistanceMeters>26453.462704145</DistanceMeters>
          </Trackpoint>
          <Trackpoint>
            <Time>2022-04-23T11:03:16.000Z</Time>
            <Position>
              <LatitudeDegrees>41.6941044665873050689697265625</LatitudeDegrees>
              <LongitudeDegrees>-0.0705335475504398345947265625</LongitudeDegrees>
            </Position>
            <AltitudeMeters>258.600006103515625</AltitudeMeters>
            <DistanceMeters>26474.970253888</DistanceMeters>
          </Trackpoint>
          <Trackpoint>
            <Time>2022-04-23T11:03:17.000Z</Time>
            <Position>
              <LatitudeDegrees>41.69407521374523639678955078125</LatitudeDegrees>
              <LongitudeDegrees>-0.07046992890536785125732421875</LongitudeDegrees>
            </Position>
            <AltitudeMeters>258.600006103515625</AltitudeMeters>
            <DistanceMeters>26481.17979706</DistanceMeters>
          </Trackpoint>
          <Trackpoint>
            <Time>2022-04-23T11:03:21.000Z</Time>
            <Position>
              <LatitudeDegrees>41.69398720376193523406982421875</LatitudeDegrees>
              <LongitudeDegrees>-0.07030463777482509613037109375</LongitudeDegrees>
            </Position>
            <AltitudeMeters>259.399993896484375</AltitudeMeters>
            <DistanceMeters>26498.051789528</DistanceMeters>
          </Trackpoint>
          <Trackpoint>
            <Time>2022-04-23T11:03:23.000Z</Time>
            <Position>
              <LatitudeDegrees>41.693949066102504730224609375</LatitudeDegrees>
              <LongitudeDegrees>-0.07022450678050518035888671875</LongitudeDegrees>
            </Position>
            <AltitudeMeters>259.79998779296875</AltitudeMeters>
            <DistanceMeters>26505.949875883</DistanceMeters>
          </Trackpoint>
          <Trackpoint>
            <Time>2022-04-23T11:03:25.000Z</Time>
            <Position>
              <LatitudeDegrees>41.69391260482370853424072265625</LatitudeDegrees>
              <LongitudeDegrees>-0.07014739327132701873779296875</LongitudeDegrees>
            </Position>
            <AltitudeMeters>260.399993896484375</AltitudeMeters>
            <DistanceMeters>26513.535365129</DistanceMeters>
          </Trackpoint>
          <Trackpoint>
            <Time>2022-04-23T11:03:29.000Z</Time>
            <Position>
              <LatitudeDegrees>41.69382937252521514892578125</LatitudeDegrees>
              <LongitudeDegrees>-0.0699924118816852569580078125</LongitudeDegrees>
            </Position>
            <AltitudeMeters>261.20001220703125</AltitudeMeters>
            <DistanceMeters>26529.401127353</DistanceMeters>
          </Trackpoint>
          <Trackpoint>
            <Time>2022-04-23T11:03:32.000Z</Time>
            <Position>
              <LatitudeDegrees>41.69377447105944156646728515625</LatitudeDegrees>
              <LongitudeDegrees>-0.069887973368167877197265625</LongitudeDegrees>
            </Position>
            <AltitudeMeters>262</AltitudeMeters>
            <DistanceMeters>26540.016508832</DistanceMeters>
          </Trackpoint>
          <Trackpoint>
            <Time>2022-04-23T11:03:35.000Z</Time>
            <Position>
              <LatitudeDegrees>41.69371579773724079132080078125</LatitudeDegrees>
              <LongitudeDegrees>-0.0697677768766880035400390625</LongitudeDegrees>
            </Position>
            <AltitudeMeters>263</AltitudeMeters>
            <DistanceMeters>26551.95134967</DistanceMeters>
          </Trackpoint>
          <Trackpoint>
            <Time>2022-04-23T11:03:37.000Z</Time>
            <Position>
              <LatitudeDegrees>41.69367640279233455657958984375</LatitudeDegrees>
              <LongitudeDegrees>-0.06969451904296875</LongitudeDegrees>
            </Position>
            <AltitudeMeters>263.600006103515625</AltitudeMeters>
            <DistanceMeters>26559.45424888</DistanceMeters>
          </Trackpoint>
          <Trackpoint>
            <Time>2022-04-23T11:03:41.000Z</Time>
            <Position>
              <LatitudeDegrees>41.6936049051582813262939453125</LatitudeDegrees>
              <LongitudeDegrees>-0.06954456679522991180419921875</LongitudeDegrees>
            </Position>
            <AltitudeMeters>264.399993896484375</AltitudeMeters>
            <DistanceMeters>26574.240601062</DistanceMeters>
          </Trackpoint>
          <Trackpoint>
            <Time>2022-04-23T11:03:45.000Z</Time>
            <Position>
              <LatitudeDegrees>41.693544052541255950927734375</LatitudeDegrees>
              <LongitudeDegrees>-0.06939369253814220428466796875</LongitudeDegrees>
            </Position>
            <AltitudeMeters>265.79998779296875</AltitudeMeters>
            <DistanceMeters>26588.492073947</DistanceMeters>
          </Trackpoint>
          <Trackpoint>
            <Time>2022-04-23T11:03:46.000Z</Time>
            <Position>
              <LatitudeDegrees>41.69352837838232517242431640625</LatitudeDegrees>
              <LongitudeDegrees>-0.06935731507837772369384765625</LongitudeDegrees>
            </Position>
            <AltitudeMeters>266.20001220703125</AltitudeMeters>
            <DistanceMeters>26591.983578379</DistanceMeters>
          </Trackpoint>
          <Trackpoint>
            <Time>2022-04-23T11:03:48.000Z</Time>
            <Position>
              <LatitudeDegrees>41.69348680414259433746337890625</LatitudeDegrees>
              <LongitudeDegrees>-0.06927433423697948455810546875</LongitudeDegrees>
            </Position>
            <AltitudeMeters>267</AltitudeMeters>
            <DistanceMeters>26600.288500045</DistanceMeters>
          </Trackpoint>
          <Trackpoint>
            <Time>2022-04-23T11:03:52.000Z</Time>
            <Position>
              <LatitudeDegrees>41.693412959575653076171875</LatitudeDegrees>
              <LongitudeDegrees>-0.06910619325935840606689453125</LongitudeDegrees>
            </Position>
            <AltitudeMeters>268.20001220703125</AltitudeMeters>
            <DistanceMeters>26616.500792759</DistanceMeters>
          </Trackpoint>
          <Trackpoint>
            <Time>2022-04-23T11:03:53.000Z</Time>
            <Position>
              <LatitudeDegrees>41.6933909989893436431884765625</LatitudeDegrees>
              <LongitudeDegrees>-0.069056488573551177978515625</LongitudeDegrees>
            </Position>
            <AltitudeMeters>268.20001220703125</AltitudeMeters>
            <DistanceMeters>26621.300347427</DistanceMeters>
          </Trackpoint>
          <Trackpoint>
            <Time>2022-04-23T11:03:55.000Z</Time>
            <Position>
              <LatitudeDegrees>41.69334649108350276947021484375</LatitudeDegrees>
              <LongitudeDegrees>-0.068951547145843505859375</LongitudeDegrees>
            </Position>
            <AltitudeMeters>268.79998779296875</AltitudeMeters>
            <DistanceMeters>26631.330506033</DistanceMeters>
          </Trackpoint>
          <Trackpoint>
            <Time>2022-04-23T11:03:59.000Z</Time>
            <Position>
              <LatitudeDegrees>41.693234257400035858154296875</LatitudeDegrees>
              <LongitudeDegrees>-0.0687475316226482391357421875</LongitudeDegrees>
            </Position>
            <AltitudeMeters>269</AltitudeMeters>
            <DistanceMeters>26652.391307417</DistanceMeters>
          </Trackpoint>
          <Trackpoint>
            <Time>2022-04-23T11:04:00.000Z</Time>
            <Position>
              <LatitudeDegrees>41.693202741444110870361328125</LatitudeDegrees>
              <LongitudeDegrees>-0.0687002576887607574462890625</LongitudeDegrees>
            </Position>
            <AltitudeMeters>269.20001220703125</AltitudeMeters>
            <DistanceMeters>26657.658222532</DistanceMeters>
          </Trackpoint>
          <Trackpoint>
            <Time>2022-04-23T11:04:06.000Z</Time>
            <Position>
              <LatitudeDegrees>41.6930537112057209014892578125</LatitudeDegrees>
              <LongitudeDegrees>-0.06839306093752384185791015625</LongitudeDegrees>
            </Position>
            <AltitudeMeters>268.79998779296875</AltitudeMeters>
            <DistanceMeters>26688.104906383</DistanceMeters>
          </Trackpoint>
          <Trackpoint>
            <Time>2022-04-23T11:04:09.000Z</Time>
            <Position>
              <LatitudeDegrees>41.692978776991367340087890625</LatitudeDegrees>
              <LongitudeDegrees>-0.06823766045272350311279296875</LongitudeDegrees>
            </Position>
            <AltitudeMeters>268.79998779296875</AltitudeMeters>
            <DistanceMeters>26703.479277297</DistanceMeters>
          </Trackpoint>
          <Trackpoint>
            <Time>2022-04-23T11:04:13.000Z</Time>
            <Position>
              <LatitudeDegrees>41.69285380281507968902587890625</LatitudeDegrees>
              <LongitudeDegrees>-0.06804437376558780670166015625</LongitudeDegrees>
            </Position>
            <AltitudeMeters>269</AltitudeMeters>
            <DistanceMeters>26724.728959002</DistanceMeters>
          </Trackpoint>
          <Trackpoint>
            <Time>2022-04-23T11:04:14.000Z</Time>
            <Position>
              <LatitudeDegrees>41.69281683862209320068359375</LatitudeDegrees>
              <LongitudeDegrees>-0.06800330244004726409912109375</LongitudeDegrees>
            </Position>
            <AltitudeMeters>269.20001220703125</AltitudeMeters>
            <DistanceMeters>26730.074158893</DistanceMeters>
          </Trackpoint>
          <Trackpoint>
            <Time>2022-04-23T11:04:20.000Z</Time>
            <Position>
              <LatitudeDegrees>41.69257351197302341461181640625</LatitudeDegrees>
              <LongitudeDegrees>-0.06779274903237819671630859375</LongitudeDegrees>
            </Position>
            <AltitudeMeters>269.79998779296875</AltitudeMeters>
            <DistanceMeters>26762.318614875</DistanceMeters>
          </Trackpoint>
          <Trackpoint>
            <Time>2022-04-23T11:04:25.000Z</Time>
            <Position>
              <LatitudeDegrees>41.69235273264348506927490234375</LatitudeDegrees>
              <LongitudeDegrees>-0.06763785146176815032958984375</LongitudeDegrees>
            </Position>
            <AltitudeMeters>270</AltitudeMeters>
            <DistanceMeters>26790.059906029</DistanceMeters>
          </Trackpoint>
          <Trackpoint>
            <Time>2022-04-23T11:04:29.000Z</Time>
            <Position>
              <LatitudeDegrees>41.6921772994101047515869140625</LatitudeDegrees>
              <LongitudeDegrees>-0.06755654700100421905517578125</LongitudeDegrees>
            </Position>
            <AltitudeMeters>270.20001220703125</AltitudeMeters>
            <DistanceMeters>26810.722044207</DistanceMeters>
          </Trackpoint>
          <Trackpoint>
            <Time>2022-04-23T11:04:30.000Z</Time>
            <Position>
              <LatitudeDegrees>41.69213094748556613922119140625</LatitudeDegrees>
              <LongitudeDegrees>-0.0675355084240436553955078125</LongitudeDegrees>
            </Position>
            <AltitudeMeters>270.399993896484375</AltitudeMeters>
            <DistanceMeters>26816.169321619</DistanceMeters>
          </Trackpoint>
          <Trackpoint>
            <Time>2022-04-23T11:04:34.000Z</Time>
            <Position>
              <LatitudeDegrees>41.6919623874127864837646484375</LatitudeDegrees>
              <LongitudeDegrees>-0.0674315728247165679931640625</LongitudeDegrees>
            </Position>
            <AltitudeMeters>271.20001220703125</AltitudeMeters>
            <DistanceMeters>26836.82381027</DistanceMeters>
          </Trackpoint>
          <Trackpoint>
            <Time>2022-04-23T11:04:35.000Z</Time>
            <Position>
              <LatitudeDegrees>41.69191804714500904083251953125</LatitudeDegrees>
              <LongitudeDegrees>-0.06740248762071132659912109375</LongitudeDegrees>
            </Position>
            <AltitudeMeters>271.399993896484375</AltitudeMeters>
            <DistanceMeters>26842.320594401</DistanceMeters>
          </Trackpoint>
          <Trackpoint>
            <Time>2022-04-23T11:04:41.000Z</Time>
            <Position>
              <LatitudeDegrees>41.6916546039283275604248046875</LatitudeDegrees>
              <LongitudeDegrees>-0.06724624894559383392333984375</LongitudeDegrees>
            </Position>
            <AltitudeMeters>272.20001220703125</AltitudeMeters>
            <DistanceMeters>26874.388977986</DistanceMeters>
          </Trackpoint>
          <Trackpoint>
            <Time>2022-04-23T11:04:44.000Z</Time>
            <Position>
              <LatitudeDegrees>41.691536419093608856201171875</LatitudeDegrees>
              <LongitudeDegrees>-0.06717265583574771881103515625</LongitudeDegrees>
            </Position>
            <AltitudeMeters>272.600006103515625</AltitudeMeters>
            <DistanceMeters>26888.895421431</DistanceMeters>
          </Trackpoint>
          <Trackpoint>
            <Time>2022-04-23T11:04:49.000Z</Time>
            <Position>
              <LatitudeDegrees>41.69139468111097812652587890625</LatitudeDegrees>
              <LongitudeDegrees>-0.067049525678157806396484375</LongitudeDegrees>
            </Position>
            <AltitudeMeters>273.399993896484375</AltitudeMeters>
            <DistanceMeters>26907.69966918</DistanceMeters>
          </Trackpoint>
          <Trackpoint>
            <Time>2022-04-23T11:04:54.000Z</Time>
            <Position>
              <LatitudeDegrees>41.69128471054136753082275390625</LatitudeDegrees>
              <LongitudeDegrees>-0.0668495334684848785400390625</LongitudeDegrees>
            </Position>
            <AltitudeMeters>274</AltitudeMeters>
            <DistanceMeters>26928.342131418</DistanceMeters>
          </Trackpoint>
          <Trackpoint>
            <Time>2022-04-23T11:04:56.000Z</Time>
            <Position>
              <LatitudeDegrees>41.69126308523118495941162109375</LatitudeDegrees>
              <LongitudeDegrees>-0.0667482800781726837158203125</LongitudeDegrees>
            </Position>
            <AltitudeMeters>274.399993896484375</AltitudeMeters>
            <DistanceMeters>26937.094912036</DistanceMeters>
          </Trackpoint>
          <Trackpoint>
            <Time>2022-04-23T11:04:59.000Z</Time>
            <Position>
              <LatitudeDegrees>41.6912556253373622894287109375</LatitudeDegrees>
              <LongitudeDegrees>-0.0665967352688312530517578125</LongitudeDegrees>
            </Position>
            <AltitudeMeters>275.20001220703125</AltitudeMeters>
            <DistanceMeters>26949.717736556</DistanceMeters>
          </Trackpoint>
          <Trackpoint>
            <Time>2022-04-23T11:05:00.000Z</Time>
            <Position>
              <LatitudeDegrees>41.691255457699298858642578125</LatitudeDegrees>
              <LongitudeDegrees>-0.066539905965328216552734375</LongitudeDegrees>
            </Position>
            <AltitudeMeters>275.399993896484375</AltitudeMeters>
            <DistanceMeters>26954.441434143</DistanceMeters>
          </Trackpoint>
          <Trackpoint>
            <Time>2022-04-23T11:05:07.000Z</Time>
            <Position>
              <LatitudeDegrees>41.6913012228906154632568359375</LatitudeDegrees>
              <LongitudeDegrees>-0.06614302285015583038330078125</LongitudeDegrees>
            </Position>
            <AltitudeMeters>276.600006103515625</AltitudeMeters>
            <DistanceMeters>26987.818679848</DistanceMeters>
          </Trackpoint>
          <Trackpoint>
            <Time>2022-04-23T11:05:08.000Z</Time>
            <Position>
              <LatitudeDegrees>41.691315472126007080078125</LatitudeDegrees>
              <LongitudeDegrees>-0.06610111333429813385009765625</LongitudeDegrees>
            </Position>
            <AltitudeMeters>277</AltitudeMeters>
            <DistanceMeters>26991.645791552</DistanceMeters>
          </Trackpoint>
          <Trackpoint>
            <Time>2022-04-23T11:05:09.000Z</Time>
            <Position>
              <LatitudeDegrees>41.691331900656223297119140625</LatitudeDegrees>
              <LongitudeDegrees>-0.06606322713196277618408203125</LongitudeDegrees>
            </Position>
            <AltitudeMeters>277</AltitudeMeters>
            <DistanceMeters>26995.286691471</DistanceMeters>
          </Trackpoint>
          <Trackpoint>
            <Time>2022-04-23T11:05:11.000Z</Time>
            <Position>
              <LatitudeDegrees>41.6913592256605625152587890625</LatitudeDegrees>
              <LongitudeDegrees>-0.06597764790058135986328125</LongitudeDegrees>
            </Position>
            <AltitudeMeters>277.600006103515625</AltitudeMeters>
            <DistanceMeters>27003.021889369</DistanceMeters>
          </Trackpoint>
          <Trackpoint>
            <Time>2022-04-23T11:05:13.000Z</Time>
            <Position>
              <LatitudeDegrees>41.691388897597789764404296875</LatitudeDegrees>
              <LongitudeDegrees>-0.06585921160876750946044921875</LongitudeDegrees>
            </Position>
            <AltitudeMeters>278</AltitudeMeters>
            <DistanceMeters>27013.40461794</DistanceMeters>
          </Trackpoint>
          <Trackpoint>
            <Time>2022-04-23T11:05:15.000Z</Time>
            <Position>
              <LatitudeDegrees>41.691398285329341888427734375</LatitudeDegrees>
              <LongitudeDegrees>-0.0657129473984241485595703125</LongitudeDegrees>
            </Position>
            <AltitudeMeters>278.399993896484375</AltitudeMeters>
            <DistanceMeters>27025.606210882</DistanceMeters>
          </Trackpoint>
          <Trackpoint>
            <Time>2022-04-23T11:05:23.000Z</Time>
            <Position>
              <LatitudeDegrees>41.691413708031177520751953125</LatitudeDegrees>
              <LongitudeDegrees>-0.0651087798178195953369140625</LongitudeDegrees>
            </Position>
            <AltitudeMeters>278</AltitudeMeters>
            <DistanceMeters>27075.850007919</DistanceMeters>
          </Trackpoint>
          <Trackpoint>
            <Time>2022-04-23T11:05:28.000Z</Time>
            <Position>
              <LatitudeDegrees>41.69140272773802280426025390625</LatitudeDegrees>
              <LongitudeDegrees>-0.06480175070464611053466796875</LongitudeDegrees>
            </Position>
            <AltitudeMeters>276.79998779296875</AltitudeMeters>
            <DistanceMeters>27101.397529623</DistanceMeters>
          </Trackpoint>
          <Trackpoint>
            <Time>2022-04-23T11:05:30.000Z</Time>
            <Position>
              <LatitudeDegrees>41.6914018057286739349365234375</LatitudeDegrees>
              <LongitudeDegrees>-0.06468909792602062225341796875</LongitudeDegrees>
            </Position>
            <AltitudeMeters>276.79998779296875</AltitudeMeters>
            <DistanceMeters>27110.761398602</DistanceMeters>
          </Trackpoint>
          <Trackpoint>
            <Time>2022-04-23T11:05:32.000Z</Time>
            <Position>
              <LatitudeDegrees>41.69139166362583637237548828125</LatitudeDegrees>
              <LongitudeDegrees>-0.0645808875560760498046875</LongitudeDegrees>
            </Position>
            <AltitudeMeters>276.79998779296875</AltitudeMeters>
            <DistanceMeters>27119.825373199</DistanceMeters>
          </Trackpoint>
          <Trackpoint>
            <Time>2022-04-23T11:05:34.000Z</Time>
            <Position>
              <LatitudeDegrees>41.6913709603250026702880859375</LatitudeDegrees>
              <LongitudeDegrees>-0.064478628337383270263671875</LongitudeDegrees>
            </Position>
            <AltitudeMeters>276.79998779296875</AltitudeMeters>
            <DistanceMeters>27128.631637816</DistanceMeters>
          </Trackpoint>
          <Trackpoint>
            <Time>2022-04-23T11:05:40.000Z</Time>
            <Position>
              <LatitudeDegrees>41.6912780888378620147705078125</LatitudeDegrees>
              <LongitudeDegrees>-0.0642025284469127655029296875</LongitudeDegrees>
            </Position>
            <AltitudeMeters>279</AltitudeMeters>
            <DistanceMeters>27153.800086963</DistanceMeters>
          </Trackpoint>
          <Trackpoint>
            <Time>2022-04-23T11:05:42.000Z</Time>
            <Position>
              <LatitudeDegrees>41.69124045409262180328369140625</LatitudeDegrees>
              <LongitudeDegrees>-0.06412767805159091949462890625</LongitudeDegrees>
            </Position>
            <AltitudeMeters>280</AltitudeMeters>
            <DistanceMeters>27161.299976707</DistanceMeters>
          </Trackpoint>
          <Trackpoint>
            <Time>2022-04-23T11:05:46.000Z</Time>
            <Position>
              <LatitudeDegrees>41.69114892370998859405517578125</LatitudeDegrees>
              <LongitudeDegrees>-0.0639765523374080657958984375</LongitudeDegrees>
            </Position>
            <AltitudeMeters>281.20001220703125</AltitudeMeters>
            <DistanceMeters>27177.472116455</DistanceMeters>
          </Trackpoint>
          <Trackpoint>
            <Time>2022-04-23T11:05:48.000Z</Time>
            <Position>
              <LatitudeDegrees>41.6910987161099910736083984375</LatitudeDegrees>
              <LongitudeDegrees>-0.06389499641954898834228515625</LongitudeDegrees>
            </Position>
            <AltitudeMeters>281.79998779296875</AltitudeMeters>
            <DistanceMeters>27186.256820963</DistanceMeters>
          </Trackpoint>
          <Trackpoint>
            <Time>2022-04-23T11:05:49.000Z</Time>
            <Position>
              <LatitudeDegrees>41.69107139110565185546875</LatitudeDegrees>
              <LongitudeDegrees>-0.063859038054943084716796875</LongitudeDegrees>
            </Position>
            <AltitudeMeters>282.399993896484375</AltitudeMeters>
            <DistanceMeters>27190.521392918</DistanceMeters>
          </Trackpoint>
          <Trackpoint>
            <Time>2022-04-23T11:05:52.000Z</Time>
            <Position>
              <LatitudeDegrees>41.6909830458462238311767578125</LatitudeDegrees>
              <LongitudeDegrees>-0.06376541219651699066162109375</LongitudeDegrees>
            </Position>
            <AltitudeMeters>282.79998779296875</AltitudeMeters>
            <DistanceMeters>27203.061319201</DistanceMeters>
          </Trackpoint>
          <Trackpoint>
            <Time>2022-04-23T11:05:55.000Z</Time>
            <Position>
              <LatitudeDegrees>41.69090551324188709259033203125</LatitudeDegrees>
              <LongitudeDegrees>-0.0636689364910125732421875</LongitudeDegrees>
            </Position>
            <AltitudeMeters>283.79998779296875</AltitudeMeters>
            <DistanceMeters>27214.841182728</DistanceMeters>
          </Trackpoint>
          <Trackpoint>
            <Time>2022-04-23T11:05:57.000Z</Time>
            <Position>
              <LatitudeDegrees>41.6908690519630908966064453125</LatitudeDegrees>
              <LongitudeDegrees>-0.0635943375527858734130859375</LongitudeDegrees>
            </Position>
            <AltitudeMeters>284.399993896484375</AltitudeMeters>
            <DistanceMeters>27222.251438787</DistanceMeters>
          </Trackpoint>
          <Trackpoint>
            <Time>2022-04-23T11:05:59.000Z</Time>
            <Position>
              <LatitudeDegrees>41.6908522881567478179931640625</LatitudeDegrees>
              <LongitudeDegrees>-0.06352451629936695098876953125</LongitudeDegrees>
            </Position>
            <AltitudeMeters>285</AltitudeMeters>
            <DistanceMeters>27228.346496989</DistanceMeters>
          </Trackpoint>
          <Trackpoint>
            <Time>2022-04-23T11:06:02.000Z</Time>
            <Position>
              <LatitudeDegrees>41.6908452473580837249755859375</LatitudeDegrees>
              <LongitudeDegrees>-0.06340968422591686248779296875</LongitudeDegrees>
            </Position>
            <AltitudeMeters>286</AltitudeMeters>
            <DistanceMeters>27237.922530943</DistanceMeters>
          </Trackpoint>
          <Trackpoint>
            <Time>2022-04-23T11:06:03.000Z</Time>
            <Position>
              <LatitudeDegrees>41.69085069559514522552490234375</LatitudeDegrees>
              <LongitudeDegrees>-0.06337766535580158233642578125</LongitudeDegrees>
            </Position>
            <AltitudeMeters>286</AltitudeMeters>
            <DistanceMeters>27240.650310808</DistanceMeters>
          </Trackpoint>
          <Trackpoint>
            <Time>2022-04-23T11:06:05.000Z</Time>
            <Position>
              <LatitudeDegrees>41.69087902642786502838134765625</LatitudeDegrees>
              <LongitudeDegrees>-0.0633080117404460906982421875</LongitudeDegrees>
            </Position>
            <AltitudeMeters>287</AltitudeMeters>
            <DistanceMeters>27247.243548859</DistanceMeters>
          </Trackpoint>
          <Trackpoint>
            <Time>2022-04-23T11:06:06.000Z</Time>
            <Position>
              <LatitudeDegrees>41.69089193455874919891357421875</LatitudeDegrees>
              <LongitudeDegrees>-0.06327808834612369537353515625</LongitudeDegrees>
            </Position>
            <AltitudeMeters>287.399993896484375</AltitudeMeters>
            <DistanceMeters>27250.116437627</DistanceMeters>
          </Trackpoint>
          <Trackpoint>
            <Time>2022-04-23T11:06:07.000Z</Time>
            <Position>
              <LatitudeDegrees>41.690905429422855377197265625</LatitudeDegrees>
              <LongitudeDegrees>-0.0632496736943721771240234375</LongitudeDegrees>
            </Position>
            <AltitudeMeters>288</AltitudeMeters>
            <DistanceMeters>27252.916099455</DistanceMeters>
          </Trackpoint>
          <Trackpoint>
            <Time>2022-04-23T11:06:09.000Z</Time>
            <Position>
              <LatitudeDegrees>41.69094289653003215789794921875</LatitudeDegrees>
              <LongitudeDegrees>-0.063195191323757171630859375</LongitudeDegrees>
            </Position>
            <AltitudeMeters>288.79998779296875</AltitudeMeters>
            <DistanceMeters>27259.073067939</DistanceMeters>
          </Trackpoint>
          <Trackpoint>
            <Time>2022-04-23T11:06:12.000Z</Time>
            <Position>
              <LatitudeDegrees>41.69102269224822521209716796875</LatitudeDegrees>
              <LongitudeDegrees>-0.06315068341791629791259765625</LongitudeDegrees>
            </Position>
            <AltitudeMeters>289.600006103515625</AltitudeMeters>
            <DistanceMeters>27268.694258802</DistanceMeters>
          </Trackpoint>
          <Trackpoint>
            <Time>2022-04-23T11:06:13.000Z</Time>
            <Position>
              <LatitudeDegrees>41.69105202890932559967041015625</LatitudeDegrees>
              <LongitudeDegrees>-0.0631329976022243499755859375</LongitudeDegrees>
            </Position>
            <AltitudeMeters>290</AltitudeMeters>
            <DistanceMeters>27272.275139776</DistanceMeters>
          </Trackpoint>
          <Trackpoint>
            <Time>2022-04-23T11:06:16.000Z</Time>
            <Position>
              <LatitudeDegrees>41.69113685376942157745361328125</LatitudeDegrees>
              <LongitudeDegrees>-0.0630957819521427154541015625</LongitudeDegrees>
            </Position>
            <AltitudeMeters>291.79998779296875</AltitudeMeters>
            <DistanceMeters>27282.210317963</DistanceMeters>
          </Trackpoint>
          <Trackpoint>
            <Time>2022-04-23T11:06:19.000Z</Time>
            <Position>
              <LatitudeDegrees>41.69121983461081981658935546875</LatitudeDegrees>
              <LongitudeDegrees>-0.06305915303528308868408203125</LongitudeDegrees>
            </Position>
            <AltitudeMeters>292.600006103515625</AltitudeMeters>
            <DistanceMeters>27291.935595372</DistanceMeters>
          </Trackpoint>
          <Trackpoint>
            <Time>2022-04-23T11:06:21.000Z</Time>
            <Position>
              <LatitudeDegrees>41.69127565808594226837158203125</LatitudeDegrees>
              <LongitudeDegrees>-0.0630391202867031097412109375</LongitudeDegrees>
            </Position>
            <AltitudeMeters>292.79998779296875</AltitudeMeters>
            <DistanceMeters>27298.367998521</DistanceMeters>
          </Trackpoint>
          <Trackpoint>
            <Time>2022-04-23T11:06:24.000Z</Time>
            <Position>
              <LatitudeDegrees>41.6913619078695774078369140625</LatitudeDegrees>
              <LongitudeDegrees>-0.0630374439060688018798828125</LongitudeDegrees>
            </Position>
            <AltitudeMeters>293.79998779296875</AltitudeMeters>
            <DistanceMeters>27307.968518833</DistanceMeters>
          </Trackpoint>
          <Trackpoint>
            <Time>2022-04-23T11:06:26.000Z</Time>
            <Position>
              <LatitudeDegrees>41.691415049135684967041015625</LatitudeDegrees>
              <LongitudeDegrees>-0.0630364380776882171630859375</LongitudeDegrees>
            </Position>
            <AltitudeMeters>294.399993896484375</AltitudeMeters>
            <DistanceMeters>27313.884647322</DistanceMeters>
          </Trackpoint>
          <Trackpoint>
            <Time>2022-04-23T11:06:27.000Z</Time>
            <Position>
              <LatitudeDegrees>41.6914423741400241851806640625</LatitudeDegrees>
              <LongitudeDegrees>-0.0630384497344493865966796875</LongitudeDegrees>
            </Position>
            <AltitudeMeters>295</AltitudeMeters>
            <DistanceMeters>27316.931435562</DistanceMeters>
          </Trackpoint>
          <Trackpoint>
            <Time>2022-04-23T11:06:29.000Z</Time>
            <Position>
              <LatitudeDegrees>41.69149450957775115966796875</LatitudeDegrees>
              <LongitudeDegrees>-0.06303987465798854827880859375</LongitudeDegrees>
            </Position>
            <AltitudeMeters>296.20001220703125</AltitudeMeters>
            <DistanceMeters>27322.735071073</DistanceMeters>
          </Trackpoint>
          <Trackpoint>
            <Time>2022-04-23T11:06:31.000Z</Time>
            <Position>
              <LatitudeDegrees>41.6915439628064632415771484375</LatitudeDegrees>
              <LongitudeDegrees>-0.06302587687969207763671875</LongitudeDegrees>
            </Position>
            <AltitudeMeters>297.20001220703125</AltitudeMeters>
            <DistanceMeters>27328.360138882</DistanceMeters>
          </Trackpoint>
          <Trackpoint>
            <Time>2022-04-23T11:06:32.000Z</Time>
            <Position>
              <LatitudeDegrees>41.6915677674114704132080078125</LatitudeDegrees>
              <LongitudeDegrees>-0.06300835870206356048583984375</LongitudeDegrees>
            </Position>
            <AltitudeMeters>297.399993896484375</AltitudeMeters>
            <DistanceMeters>27331.383123725</DistanceMeters>
          </Trackpoint>
          <Trackpoint>
            <Time>2022-04-23T11:06:36.000Z</Time>
            <Position>
              <LatitudeDegrees>41.691644378006458282470703125</LatitudeDegrees>
              <LongitudeDegrees>-0.0629125535488128662109375</LongitudeDegrees>
            </Position>
            <AltitudeMeters>298.79998779296875</AltitudeMeters>
            <DistanceMeters>27343.050144438</DistanceMeters>
          </Trackpoint>
          <Trackpoint>
            <Time>2022-04-23T11:06:37.000Z</Time>
            <Position>
              <LatitudeDegrees>41.6916549392044544219970703125</LatitudeDegrees>
              <LongitudeDegrees>-0.06289067678153514862060546875</LongitudeDegrees>
            </Position>
            <AltitudeMeters>299</AltitudeMeters>
            <DistanceMeters>27345.217086927</DistanceMeters>
          </Trackpoint>
          <Trackpoint>
            <Time>2022-04-23T11:06:38.000Z</Time>
            <Position>
              <LatitudeDegrees>41.6916649974882602691650390625</LatitudeDegrees>
              <LongitudeDegrees>-0.06285580806434154510498046875</LongitudeDegrees>
            </Position>
            <AltitudeMeters>299.399993896484375</AltitudeMeters>
            <DistanceMeters>27348.324039086</DistanceMeters>
          </Trackpoint>
          <Trackpoint>
            <Time>2022-04-23T11:06:39.000Z</Time>
            <Position>
              <LatitudeDegrees>41.691669858992099761962890625</LatitudeDegrees>
              <LongitudeDegrees>-0.06283099763095378875732421875</LongitudeDegrees>
            </Position>
            <AltitudeMeters>300</AltitudeMeters>
            <DistanceMeters>27350.455266069</DistanceMeters>
          </Trackpoint>
          <Trackpoint>
            <Time>2022-04-23T11:06:43.000Z</Time>
            <Position>
              <LatitudeDegrees>41.69169257394969463348388671875</LatitudeDegrees>
              <LongitudeDegrees>-0.06270141340792179107666015625</LongitudeDegrees>
            </Position>
            <AltitudeMeters>301.399993896484375</AltitudeMeters>
            <DistanceMeters>27361.518432709</DistanceMeters>
          </Trackpoint>
          <Trackpoint>
            <Time>2022-04-23T11:06:45.000Z</Time>
            <Position>
              <LatitudeDegrees>41.6917233355343341827392578125</LatitudeDegrees>
              <LongitudeDegrees>-0.06263335235416889190673828125</LongitudeDegrees>
            </Position>
            <AltitudeMeters>302.600006103515625</AltitudeMeters>
            <DistanceMeters>27368.130817313</DistanceMeters>
          </Trackpoint>
          <Trackpoint>
            <Time>2022-04-23T11:06:46.000Z</Time>
            <Position>
              <LatitudeDegrees>41.6917357407510280609130859375</LatitudeDegrees>
              <LongitudeDegrees>-0.06261323578655719757080078125</LongitudeDegrees>
            </Position>
            <AltitudeMeters>303.399993896484375</AltitudeMeters>
            <DistanceMeters>27370.297759802</DistanceMeters>
          </Trackpoint>
          <Trackpoint>
            <Time>2022-04-23T11:06:47.000Z</Time>
            <Position>
              <LatitudeDegrees>41.691753007471561431884765625</LatitudeDegrees>
              <LongitudeDegrees>-0.06258959881961345672607421875</LongitudeDegrees>
            </Position>
            <AltitudeMeters>303.79998779296875</AltitudeMeters>
            <DistanceMeters>27373.045330348</DistanceMeters>
          </Trackpoint>
          <Trackpoint>
            <Time>2022-04-23T11:06:50.000Z</Time>
            <Position>
              <LatitudeDegrees>41.69182064943015575408935546875</LatitudeDegrees>
              <LongitudeDegrees>-0.06252639926970005035400390625</LongitudeDegrees>
            </Position>
            <AltitudeMeters>304.79998779296875</AltitudeMeters>
            <DistanceMeters>27382.225619203</DistanceMeters>
          </Trackpoint>
          <Trackpoint>
            <Time>2022-04-23T11:06:51.000Z</Time>
            <Position>
              <LatitudeDegrees>41.69184328056871891021728515625</LatitudeDegrees>
              <LongitudeDegrees>-0.06250477395951747894287109375</LongitudeDegrees>
            </Position>
            <AltitudeMeters>305</AltitudeMeters>
            <DistanceMeters>27385.319464873</DistanceMeters>
          </Trackpoint>
          <Trackpoint>
            <Time>2022-04-23T11:06:55.000Z</Time>
            <Position>
              <LatitudeDegrees>41.6919342242181301116943359375</LatitudeDegrees>
              <LongitudeDegrees>-0.06242430768907070159912109375</LongitudeDegrees>
            </Position>
            <AltitudeMeters>306</AltitudeMeters>
            <DistanceMeters>27397.451291444</DistanceMeters>
          </Trackpoint>
          <Trackpoint>
            <Time>2022-04-23T11:06:58.000Z</Time>
            <Position>
              <LatitudeDegrees>41.69200547039508819580078125</LatitudeDegrees>
              <LongitudeDegrees>-0.06237351335585117340087890625</LongitudeDegrees>
            </Position>
            <AltitudeMeters>307</AltitudeMeters>
            <DistanceMeters>27406.435211705</DistanceMeters>
          </Trackpoint>
          <Trackpoint>
            <Time>2022-04-23T11:06:59.000Z</Time>
            <Position>
              <LatitudeDegrees>41.6920237429440021514892578125</LatitudeDegrees>
              <LongitudeDegrees>-0.0623538158833980560302734375</LongitudeDegrees>
            </Position>
            <AltitudeMeters>307.600006103515625</AltitudeMeters>
            <DistanceMeters>27409.046285759</DistanceMeters>
          </Trackpoint>
          <Trackpoint>
            <Time>2022-04-23T11:07:03.000Z</Time>
            <Position>
              <LatitudeDegrees>41.69209021143615245819091796875</LatitudeDegrees>
              <LongitudeDegrees>-0.06224803626537322998046875</LongitudeDegrees>
            </Position>
            <AltitudeMeters>309</AltitudeMeters>
            <DistanceMeters>27420.536269119</DistanceMeters>
          </Trackpoint>
          <Trackpoint>
            <Time>2022-04-23T11:07:07.000Z</Time>
            <Position>
              <LatitudeDegrees>41.69213647954165935516357421875</LatitudeDegrees>
              <LongitudeDegrees>-0.062088780105113983154296875</LongitudeDegrees>
            </Position>
            <AltitudeMeters>310.20001220703125</AltitudeMeters>
            <DistanceMeters>27434.738551243</DistanceMeters>
          </Trackpoint>
          <Trackpoint>
            <Time>2022-04-23T11:07:08.000Z</Time>
            <Position>
              <LatitudeDegrees>41.69214888475835323333740234375</LatitudeDegrees>
              <LongitudeDegrees>-0.06204796023666858673095703125</LongitudeDegrees>
            </Position>
            <AltitudeMeters>310.399993896484375</AltitudeMeters>
            <DistanceMeters>27438.401704747</DistanceMeters>
          </Trackpoint>
          <Trackpoint>
            <Time>2022-04-23T11:07:13.000Z</Time>
            <Position>
              <LatitudeDegrees>41.69228014536201953887939453125</LatitudeDegrees>
              <LongitudeDegrees>-0.061870515346527099609375</LongitudeDegrees>
            </Position>
            <AltitudeMeters>311.20001220703125</AltitudeMeters>
            <DistanceMeters>27459.160637958</DistanceMeters>
          </Trackpoint>
          <Trackpoint>
            <Time>2022-04-23T11:07:15.000Z</Time>
            <Position>
              <LatitudeDegrees>41.69234602712094783782958984375</LatitudeDegrees>
              <LongitudeDegrees>-0.06181620061397552490234375</LongitudeDegrees>
            </Position>
            <AltitudeMeters>311.399993896484375</AltitudeMeters>
            <DistanceMeters>27467.770918302</DistanceMeters>
          </Trackpoint>
          <Trackpoint>
            <Time>2022-04-23T11:07:20.000Z</Time>
            <Position>
              <LatitudeDegrees>41.69252556748688220977783203125</LatitudeDegrees>
              <LongitudeDegrees>-0.0617013685405254364013671875</LongitudeDegrees>
            </Position>
            <AltitudeMeters>312</AltitudeMeters>
            <DistanceMeters>27489.916220775</DistanceMeters>
          </Trackpoint>
          <Trackpoint>
            <Time>2022-04-23T11:07:26.000Z</Time>
            <Position>
              <LatitudeDegrees>41.69279311783611774444580078125</LatitudeDegrees>
              <LongitudeDegrees>-0.061583854258060455322265625</LongitudeDegrees>
            </Position>
            <AltitudeMeters>312</AltitudeMeters>
            <DistanceMeters>27521.256025411</DistanceMeters>
          </Trackpoint>
          <Trackpoint>
            <Time>2022-04-23T11:07:27.000Z</Time>
            <Position>
              <LatitudeDegrees>41.6928418166935443878173828125</LatitudeDegrees>
              <LongitudeDegrees>-0.06156566552817821502685546875</LongitudeDegrees>
            </Position>
            <AltitudeMeters>312</AltitudeMeters>
            <DistanceMeters>27526.882698319</DistanceMeters>
          </Trackpoint>
          <Trackpoint>
            <Time>2022-04-23T11:07:31.000Z</Time>
            <Position>
              <LatitudeDegrees>41.6930530406534671783447265625</LatitudeDegrees>
              <LongitudeDegrees>-0.0614757277071475982666015625</LongitudeDegrees>
            </Position>
            <AltitudeMeters>311.20001220703125</AltitudeMeters>
            <DistanceMeters>27551.552336177</DistanceMeters>
          </Trackpoint>
          <Trackpoint>
            <Time>2022-04-23T11:07:35.000Z</Time>
            <Position>
              <LatitudeDegrees>41.69325001537799835205078125</LatitudeDegrees>
              <LongitudeDegrees>-0.06140439771115779876708984375</LongitudeDegrees>
            </Position>
            <AltitudeMeters>310.20001220703125</AltitudeMeters>
            <DistanceMeters>27574.26352211</DistanceMeters>
          </Trackpoint>
          <Trackpoint>
            <Time>2022-04-23T11:07:37.000Z</Time>
            <Position>
              <LatitudeDegrees>41.693367026746273040771484375</LatitudeDegrees>
              <LongitudeDegrees>-0.06135092116892337799072265625</LongitudeDegrees>
            </Position>
            <AltitudeMeters>309.20001220703125</AltitudeMeters>
            <DistanceMeters>27588.024361584</DistanceMeters>
          </Trackpoint>
          <Trackpoint>
            <Time>2022-04-23T11:07:38.000Z</Time>
            <Position>
              <LatitudeDegrees>41.69343165121972560882568359375</LatitudeDegrees>
              <LongitudeDegrees>-0.06131286732852458953857421875</LongitudeDegrees>
            </Position>
            <AltitudeMeters>308.399993896484375</AltitudeMeters>
            <DistanceMeters>27595.881755086</DistanceMeters>
          </Trackpoint>
          <Trackpoint>
            <Time>2022-04-23T11:07:39.000Z</Time>
            <Position>
              <LatitudeDegrees>41.69349803589284420013427734375</LatitudeDegrees>
              <LongitudeDegrees>-0.0612661801278591156005859375</LongitudeDegrees>
            </Position>
            <AltitudeMeters>308</AltitudeMeters>
            <DistanceMeters>27604.22681048</DistanceMeters>
          </Trackpoint>
          <Trackpoint>
            <Time>2022-04-23T11:07:41.000Z</Time>
            <Position>
              <LatitudeDegrees>41.69362929649651050567626953125</LatitudeDegrees>
              <LongitudeDegrees>-0.06115076132118701934814453125</LongitudeDegrees>
            </Position>
            <AltitudeMeters>306.79998779296875</AltitudeMeters>
            <DistanceMeters>27621.703977464</DistanceMeters>
          </Trackpoint>
          <Trackpoint>
            <Time>2022-04-23T11:07:43.000Z</Time>
            <Position>
              <LatitudeDegrees>41.69375904835760593414306640625</LatitudeDegrees>
              <LongitudeDegrees>-0.06103509105741977691650390625</LongitudeDegrees>
            </Position>
            <AltitudeMeters>304.79998779296875</AltitudeMeters>
            <DistanceMeters>27639.05253498</DistanceMeters>
          </Trackpoint>
          <Trackpoint>
            <Time>2022-04-23T11:07:46.000Z</Time>
            <Position>
              <LatitudeDegrees>41.69395585544407367706298828125</LatitudeDegrees>
              <LongitudeDegrees>-0.06096770055592060089111328125</LongitudeDegrees>
            </Position>
            <AltitudeMeters>304</AltitudeMeters>
            <DistanceMeters>27661.662304054</DistanceMeters>
          </Trackpoint>
          <Trackpoint>
            <Time>2022-04-23T11:07:47.000Z</Time>
            <Position>
              <LatitudeDegrees>41.69400547631084918975830078125</LatitudeDegrees>
              <LongitudeDegrees>-0.0609456561505794525146484375</LongitudeDegrees>
            </Position>
            <AltitudeMeters>303.600006103515625</AltitudeMeters>
            <DistanceMeters>27667.481478107</DistanceMeters>
          </Trackpoint>
          <Trackpoint>
            <Time>2022-04-23T11:07:49.000Z</Time>
            <Position>
              <LatitudeDegrees>41.69410287402570247650146484375</LatitudeDegrees>
              <LongitudeDegrees>-0.06087181158363819122314453125</LongitudeDegrees>
            </Position>
            <AltitudeMeters>303.600006103515625</AltitudeMeters>
            <DistanceMeters>27679.938679386</DistanceMeters>
          </Trackpoint>
          <Trackpoint>
            <Time>2022-04-23T11:07:54.000Z</Time>
            <Position>
              <LatitudeDegrees>41.69433169998228549957275390625</LatitudeDegrees>
              <LongitudeDegrees>-0.06066259928047657012939453125</LongitudeDegrees>
            </Position>
            <AltitudeMeters>303.600006103515625</AltitudeMeters>
            <DistanceMeters>27710.776715</DistanceMeters>
          </Trackpoint>
          <Trackpoint>
            <Time>2022-04-23T11:07:55.000Z</Time>
            <Position>
              <LatitudeDegrees>41.69437176547944545745849609375</LatitudeDegrees>
              <LongitudeDegrees>-0.0606435723602771759033203125</LongitudeDegrees>
            </Position>
            <AltitudeMeters>303.600006103515625</AltitudeMeters>
            <DistanceMeters>27715.508053025</DistanceMeters>
          </Trackpoint>
          <Trackpoint>
            <Time>2022-04-23T11:07:58.000Z</Time>
            <Position>
              <LatitudeDegrees>41.69451073743402957916259765625</LatitudeDegrees>
              <LongitudeDegrees>-0.0605835579335689544677734375</LongitudeDegrees>
            </Position>
            <AltitudeMeters>304.20001220703125</AltitudeMeters>
            <DistanceMeters>27731.760121693</DistanceMeters>
          </Trackpoint>
          <Trackpoint>
            <Time>2022-04-23T11:08:00.000Z</Time>
            <Position>
              <LatitudeDegrees>41.694591455161571502685546875</LatitudeDegrees>
              <LongitudeDegrees>-0.06053117103874683380126953125</LongitudeDegrees>
            </Position>
            <AltitudeMeters>304.399993896484375</AltitudeMeters>
            <DistanceMeters>27741.743355323</DistanceMeters>
          </Trackpoint>
          <Trackpoint>
            <Time>2022-04-23T11:08:02.000Z</Time>
            <Position>
              <LatitudeDegrees>41.69466261751949787139892578125</LatitudeDegrees>
              <LongitudeDegrees>-0.0604578293859958648681640625</LongitudeDegrees>
            </Position>
            <AltitudeMeters>305</AltitudeMeters>
            <DistanceMeters>27751.736985567</DistanceMeters>
          </Trackpoint>
          <Trackpoint>
            <Time>2022-04-23T11:08:06.000Z</Time>
            <Position>
              <LatitudeDegrees>41.6948025114834308624267578125</LatitudeDegrees>
              <LongitudeDegrees>-0.06024182774126529693603515625</LongitudeDegrees>
            </Position>
            <AltitudeMeters>304</AltitudeMeters>
            <DistanceMeters>27775.500505098</DistanceMeters>
          </Trackpoint>
          <Trackpoint>
            <Time>2022-04-23T11:08:07.000Z</Time>
            <Position>
              <LatitudeDegrees>41.69482924975454807281494140625</LatitudeDegrees>
              <LongitudeDegrees>-0.06019069813191890716552734375</LongitudeDegrees>
            </Position>
            <AltitudeMeters>303.600006103515625</AltitudeMeters>
            <DistanceMeters>27780.687083713</DistanceMeters>
          </Trackpoint>
          <Trackpoint>
            <Time>2022-04-23T11:08:08.000Z</Time>
            <Position>
              <LatitudeDegrees>41.6948578320443630218505859375</LatitudeDegrees>
              <LongitudeDegrees>-0.0601252354681491851806640625</LongitudeDegrees>
            </Position>
            <AltitudeMeters>303.20001220703125</AltitudeMeters>
            <DistanceMeters>27786.989010101</DistanceMeters>
          </Trackpoint>
          <Trackpoint>
            <Time>2022-04-23T11:08:09.000Z</Time>
            <Position>
              <LatitudeDegrees>41.69488172046840190887451171875</LatitudeDegrees>
              <LongitudeDegrees>-0.06006027571856975555419921875</LongitudeDegrees>
            </Position>
            <AltitudeMeters>302.79998779296875</AltitudeMeters>
            <DistanceMeters>27793.006535053</DistanceMeters>
          </Trackpoint>
          <Trackpoint>
            <Time>2022-04-23T11:08:10.000Z</Time>
            <Position>
              <LatitudeDegrees>41.6949010826647281646728515625</LatitudeDegrees>
              <LongitudeDegrees>-0.0599871017038822174072265625</LongitudeDegrees>
            </Position>
            <AltitudeMeters>302.20001220703125</AltitudeMeters>
            <DistanceMeters>27799.458562052</DistanceMeters>
          </Trackpoint>
          <Trackpoint>
            <Time>2022-04-23T11:08:11.000Z</Time>
            <Position>
              <LatitudeDegrees>41.69491927139461040496826171875</LatitudeDegrees>
              <LongitudeDegrees>-0.05990403704345226287841796875</LongitudeDegrees>
            </Position>
            <AltitudeMeters>301.79998779296875</AltitudeMeters>
            <DistanceMeters>27806.652404426</DistanceMeters>
          </Trackpoint>
          <Trackpoint>
            <Time>2022-04-23T11:08:13.000Z</Time>
            <Position>
              <LatitudeDegrees>41.6949520446360111236572265625</LatitudeDegrees>
              <LongitudeDegrees>-0.05970622412860393524169921875</LongitudeDegrees>
            </Position>
            <AltitudeMeters>301</AltitudeMeters>
            <DistanceMeters>27823.492253613</DistanceMeters>
          </Trackpoint>
          <Trackpoint>
            <Time>2022-04-23T11:08:15.000Z</Time>
            <Position>
              <LatitudeDegrees>41.6949926130473613739013671875</LatitudeDegrees>
              <LongitudeDegrees>-0.0595343112945556640625</LongitudeDegrees>
            </Position>
            <AltitudeMeters>300.20001220703125</AltitudeMeters>
            <DistanceMeters>27838.476372563</DistanceMeters>
          </Trackpoint>
          <Trackpoint>
            <Time>2022-04-23T11:08:17.000Z</Time>
            <Position>
              <LatitudeDegrees>41.69508489780128002166748046875</LatitudeDegrees>
              <LongitudeDegrees>-0.05934110842645168304443359375</LongitudeDegrees>
            </Position>
            <AltitudeMeters>299.79998779296875</AltitudeMeters>
            <DistanceMeters>27857.537225001</DistanceMeters>
          </Trackpoint>
          <Trackpoint>
            <Time>2022-04-23T11:08:19.000Z</Time>
            <Position>
              <LatitudeDegrees>41.6951880790293216705322265625</LatitudeDegrees>
              <LongitudeDegrees>-0.05920263938605785369873046875</LongitudeDegrees>
            </Position>
            <AltitudeMeters>299.600006103515625</AltitudeMeters>
            <DistanceMeters>27873.795404409</DistanceMeters>
          </Trackpoint>
          <Trackpoint>
            <Time>2022-04-23T11:08:22.000Z</Time>
            <Position>
              <LatitudeDegrees>41.69539385475218296051025390625</LatitudeDegrees>
              <LongitudeDegrees>-0.058982782065868377685546875</LongitudeDegrees>
            </Position>
            <AltitudeMeters>299.399993896484375</AltitudeMeters>
            <DistanceMeters>27903.09446902</DistanceMeters>
          </Trackpoint>
          <Trackpoint>
            <Time>2022-04-23T11:08:24.000Z</Time>
            <Position>
              <LatitudeDegrees>41.6955079324543476104736328125</LatitudeDegrees>
              <LongitudeDegrees>-0.05883551202714443206787109375</LongitudeDegrees>
            </Position>
            <AltitudeMeters>299.399993896484375</AltitudeMeters>
            <DistanceMeters>27920.730055001</DistanceMeters>
          </Trackpoint>
          <Trackpoint>
            <Time>2022-04-23T11:08:26.000Z</Time>
            <Position>
              <LatitudeDegrees>41.69559434987604618072509765625</LatitudeDegrees>
              <LongitudeDegrees>-0.05866301245987415313720703125</LongitudeDegrees>
            </Position>
            <AltitudeMeters>299.20001220703125</AltitudeMeters>
            <DistanceMeters>27937.993561103</DistanceMeters>
          </Trackpoint>
          <Trackpoint>
            <Time>2022-04-23T11:08:31.000Z</Time>
            <Position>
              <LatitudeDegrees>41.69573449529707431793212890625</LatitudeDegrees>
              <LongitudeDegrees>-0.05817954428493976593017578125</LongitudeDegrees>
            </Position>
            <AltitudeMeters>299</AltitudeMeters>
            <DistanceMeters>27981.095168924</DistanceMeters>
          </Trackpoint>
          <Trackpoint>
            <Time>2022-04-23T11:08:32.000Z</Time>
            <Position>
              <LatitudeDegrees>41.69576517306268215179443359375</LatitudeDegrees>
              <LongitudeDegrees>-0.05807510577142238616943359375</LongitudeDegrees>
            </Position>
            <AltitudeMeters>298.79998779296875</AltitudeMeters>
            <DistanceMeters>27990.422320497</DistanceMeters>
          </Trackpoint>
          <Trackpoint>
            <Time>2022-04-23T11:08:39.000Z</Time>
            <Position>
              <LatitudeDegrees>41.69600673951208591461181640625</LatitudeDegrees>
              <LongitudeDegrees>-0.0573201477527618408203125</LongitudeDegrees>
            </Position>
            <AltitudeMeters>297.79998779296875</AltitudeMeters>
            <DistanceMeters>28058.683191685</DistanceMeters>
          </Trackpoint>
          <Trackpoint>
            <Time>2022-04-23T11:08:41.000Z</Time>
            <Position>
              <LatitudeDegrees>41.696094833314418792724609375</LatitudeDegrees>
              <LongitudeDegrees>-0.05709148943424224853515625</LongitudeDegrees>
            </Position>
            <AltitudeMeters>297.399993896484375</AltitudeMeters>
            <DistanceMeters>28080.066736314</DistanceMeters>
          </Trackpoint>
          <Trackpoint>
            <Time>2022-04-23T11:08:42.000Z</Time>
            <Position>
              <LatitudeDegrees>41.69614001177251338958740234375</LatitudeDegrees>
              <LongitudeDegrees>-0.057021416723728179931640625</LongitudeDegrees>
            </Position>
            <AltitudeMeters>296.79998779296875</AltitudeMeters>
            <DistanceMeters>28087.761553481</DistanceMeters>
          </Trackpoint>
          <Trackpoint>
            <Time>2022-04-23T11:08:43.000Z</Time>
            <Position>
              <LatitudeDegrees>41.69620312750339508056640625</LatitudeDegrees>
              <LongitudeDegrees>-0.0569379329681396484375</LongitudeDegrees>
            </Position>
            <AltitudeMeters>296.600006103515625</AltitudeMeters>
            <DistanceMeters>28097.635190364</DistanceMeters>
          </Trackpoint>
          <Trackpoint>
            <Time>2022-04-23T11:08:48.000Z</Time>
            <Position>
              <LatitudeDegrees>41.6965278424322605133056640625</LatitudeDegrees>
              <LongitudeDegrees>-0.05651674233376979827880859375</LongitudeDegrees>
            </Position>
            <AltitudeMeters>295.600006103515625</AltitudeMeters>
            <DistanceMeters>28147.948941667</DistanceMeters>
          </Trackpoint>
          <Trackpoint>
            <Time>2022-04-23T11:08:52.000Z</Time>
            <Position>
              <LatitudeDegrees>41.696734540164470672607421875</LatitudeDegrees>
              <LongitudeDegrees>-0.05612161941826343536376953125</LongitudeDegrees>
            </Position>
            <AltitudeMeters>294.600006103515625</AltitudeMeters>
            <DistanceMeters>28188.043346498</DistanceMeters>
          </Trackpoint>
          <Trackpoint>
            <Time>2022-04-23T11:08:53.000Z</Time>
            <Position>
              <LatitudeDegrees>41.69678709469735622406005859375</LatitudeDegrees>
              <LongitudeDegrees>-0.05602254532277584075927734375</LongitudeDegrees>
            </Position>
            <AltitudeMeters>294.399993896484375</AltitudeMeters>
            <DistanceMeters>28198.143483804</DistanceMeters>
          </Trackpoint>
          <Trackpoint>
            <Time>2022-04-23T11:08:54.000Z</Time>
            <Position>
              <LatitudeDegrees>41.69683939777314662933349609375</LatitudeDegrees>
              <LongitudeDegrees>-0.05592246539890766143798828125</LongitudeDegrees>
            </Position>
            <AltitudeMeters>294.20001220703125</AltitudeMeters>
            <DistanceMeters>28208.295788593</DistanceMeters>
          </Trackpoint>
          <Trackpoint>
            <Time>2022-04-23T11:08:56.000Z</Time>
            <Position>
              <LatitudeDegrees>41.6969398967921733856201171875</LatitudeDegrees>
              <LongitudeDegrees>-0.0557237304747104644775390625</LongitudeDegrees>
            </Position>
            <AltitudeMeters>293.600006103515625</AltitudeMeters>
            <DistanceMeters>28228.2432518</DistanceMeters>
          </Trackpoint>
          <Trackpoint>
            <Time>2022-04-23T11:08:57.000Z</Time>
            <Position>
              <LatitudeDegrees>41.69698725454509258270263671875</LatitudeDegrees>
              <LongitudeDegrees>-0.05562272854149341583251953125</LongitudeDegrees>
            </Position>
            <AltitudeMeters>293.20001220703125</AltitudeMeters>
            <DistanceMeters>28238.155225959</DistanceMeters>
          </Trackpoint>
          <Trackpoint>
            <Time>2022-04-23T11:09:00.000Z</Time>
            <Position>
              <LatitudeDegrees>41.69711113907396793365478515625</LatitudeDegrees>
              <LongitudeDegrees>-0.055304802954196929931640625</LongitudeDegrees>
            </Position>
            <AltitudeMeters>292.20001220703125</AltitudeMeters>
            <DistanceMeters>28267.95833669</DistanceMeters>
          </Trackpoint>
          <Trackpoint>
            <Time>2022-04-23T11:09:02.000Z</Time>
            <Position>
              <LatitudeDegrees>41.69720635749399662017822265625</LatitudeDegrees>
              <LongitudeDegrees>-0.05508645437657833099365234375</LongitudeDegrees>
            </Position>
            <AltitudeMeters>292</AltitudeMeters>
            <DistanceMeters>28288.972780732</DistanceMeters>
          </Trackpoint>
          <Trackpoint>
            <Time>2022-04-23T11:09:04.000Z</Time>
            <Position>
              <LatitudeDegrees>41.697299480438232421875</LatitudeDegrees>
              <LongitudeDegrees>-0.05486383102834224700927734375</LongitudeDegrees>
            </Position>
            <AltitudeMeters>291.399993896484375</AltitudeMeters>
            <DistanceMeters>28310.179711845</DistanceMeters>
          </Trackpoint>
          <Trackpoint>
            <Time>2022-04-23T11:09:05.000Z</Time>
            <Position>
              <LatitudeDegrees>41.69733694754540920257568359375</LatitudeDegrees>
              <LongitudeDegrees>-0.05474346689879894256591796875</LongitudeDegrees>
            </Position>
            <AltitudeMeters>290.600006103515625</AltitudeMeters>
            <DistanceMeters>28321.01692432</DistanceMeters>
          </Trackpoint>
          <Trackpoint>
            <Time>2022-04-23T11:09:07.000Z</Time>
            <Position>
              <LatitudeDegrees>41.6974089480936527252197265625</LatitudeDegrees>
              <LongitudeDegrees>-0.054472982883453369140625</LongitudeDegrees>
            </Position>
            <AltitudeMeters>290</AltitudeMeters>
            <DistanceMeters>28344.881309105</DistanceMeters>
          </Trackpoint>
          <Trackpoint>
            <Time>2022-04-23T11:09:09.000Z</Time>
            <Position>
              <LatitudeDegrees>41.69747591949999332427978515625</LatitudeDegrees>
              <LongitudeDegrees>-0.0542511977255344390869140625</LongitudeDegrees>
            </Position>
            <AltitudeMeters>289.600006103515625</AltitudeMeters>
            <DistanceMeters>28364.763250568</DistanceMeters>
          </Trackpoint>
          <Trackpoint>
            <Time>2022-04-23T11:09:12.000Z</Time>
            <Position>
              <LatitudeDegrees>41.69760282151401042938232421875</LatitudeDegrees>
              <LongitudeDegrees>-0.05390309728682041168212890625</LongitudeDegrees>
            </Position>
            <AltitudeMeters>288.399993896484375</AltitudeMeters>
            <DistanceMeters>28396.956136016</DistanceMeters>
          </Trackpoint>
          <Trackpoint>
            <Time>2022-04-23T11:09:14.000Z</Time>
            <Position>
              <LatitudeDegrees>41.69770223088562488555908203125</LatitudeDegrees>
              <LongitudeDegrees>-0.05369036458432674407958984375</LongitudeDegrees>
            </Position>
            <AltitudeMeters>288</AltitudeMeters>
            <DistanceMeters>28417.812064483</DistanceMeters>
          </Trackpoint>
          <Trackpoint>
            <Time>2022-04-23T11:09:17.000Z</Time>
            <Position>
              <LatitudeDegrees>41.6978721320629119873046875</LatitudeDegrees>
              <LongitudeDegrees>-0.05340789444744586944580078125</LongitudeDegrees>
            </Position>
            <AltitudeMeters>288</AltitudeMeters>
            <DistanceMeters>28447.956060108</DistanceMeters>
          </Trackpoint>
          <Trackpoint>
            <Time>2022-04-23T11:09:19.000Z</Time>
            <Position>
              <LatitudeDegrees>41.69798067770898342132568359375</LatitudeDegrees>
              <LongitudeDegrees>-0.05328501574695110321044921875</LongitudeDegrees>
            </Position>
            <AltitudeMeters>288</AltitudeMeters>
            <DistanceMeters>28463.775082784</DistanceMeters>
          </Trackpoint>
          <Trackpoint>
            <Time>2022-04-23T11:09:21.000Z</Time>
            <Position>
              <LatitudeDegrees>41.69810288585722446441650390625</LatitudeDegrees>
              <LongitudeDegrees>-0.05318728275597095489501953125</LongitudeDegrees>
            </Position>
            <AltitudeMeters>288</AltitudeMeters>
            <DistanceMeters>28479.618062454</DistanceMeters>
          </Trackpoint>
          <Trackpoint>
            <Time>2022-04-23T11:09:23.000Z</Time>
            <Position>
              <LatitudeDegrees>41.698228530585765838623046875</LatitudeDegrees>
              <LongitudeDegrees>-0.0530958361923694610595703125</LongitudeDegrees>
            </Position>
            <AltitudeMeters>288.20001220703125</AltitudeMeters>
            <DistanceMeters>28495.53439886</DistanceMeters>
          </Trackpoint>
          <Trackpoint>
            <Time>2022-04-23T11:09:25.000Z</Time>
            <Position>
              <LatitudeDegrees>41.6983554325997829437255859375</LatitudeDegrees>
              <LongitudeDegrees>-0.0530287809669971466064453125</LongitudeDegrees>
            </Position>
            <AltitudeMeters>288.20001220703125</AltitudeMeters>
            <DistanceMeters>28510.718466555</DistanceMeters>
          </Trackpoint>
          <Trackpoint>
            <Time>2022-04-23T11:09:26.000Z</Time>
            <Position>
              <LatitudeDegrees>41.6984151117503643035888671875</LatitudeDegrees>
              <LongitudeDegrees>-0.05301327444612979888916015625</LongitudeDegrees>
            </Position>
            <AltitudeMeters>288</AltitudeMeters>
            <DistanceMeters>28517.484742308</DistanceMeters>
          </Trackpoint>
          <Trackpoint>
            <Time>2022-04-23T11:09:30.000Z</Time>
            <Position>
              <LatitudeDegrees>41.69874829240143299102783203125</LatitudeDegrees>
              <LongitudeDegrees>-0.05297270603477954864501953125</LongitudeDegrees>
            </Position>
            <AltitudeMeters>287.20001220703125</AltitudeMeters>
            <DistanceMeters>28554.721394117</DistanceMeters>
          </Trackpoint>
          <Trackpoint>
            <Time>2022-04-23T11:09:31.000Z</Time>
            <Position>
              <LatitudeDegrees>41.698850803077220916748046875</LatitudeDegrees>
              <LongitudeDegrees>-0.0529660843312740325927734375</LongitudeDegrees>
            </Position>
            <AltitudeMeters>287.399993896484375</AltitudeMeters>
            <DistanceMeters>28566.143984653</DistanceMeters>
          </Trackpoint>
          <Trackpoint>
            <Time>2022-04-23T11:09:35.000Z</Time>
            <Position>
              <LatitudeDegrees>41.69914810918271541595458984375</LatitudeDegrees>
              <LongitudeDegrees>-0.05286122672259807586669921875</LongitudeDegrees>
            </Position>
            <AltitudeMeters>286.79998779296875</AltitudeMeters>
            <DistanceMeters>28600.362839287</DistanceMeters>
          </Trackpoint>
          <Trackpoint>
            <Time>2022-04-23T11:09:38.000Z</Time>
            <Position>
              <LatitudeDegrees>41.699357740581035614013671875</LatitudeDegrees>
              <LongitudeDegrees>-0.05266894586384296417236328125</LongitudeDegrees>
            </Position>
            <AltitudeMeters>286.600006103515625</AltitudeMeters>
            <DistanceMeters>28628.642508489</DistanceMeters>
          </Trackpoint>
          <Trackpoint>
            <Time>2022-04-23T11:09:39.000Z</Time>
            <Position>
              <LatitudeDegrees>41.699418760836124420166015625</LatitudeDegrees>
              <LongitudeDegrees>-0.0525855459272861480712890625</LongitudeDegrees>
            </Position>
            <AltitudeMeters>286.399993896484375</AltitudeMeters>
            <DistanceMeters>28638.346406529</DistanceMeters>
          </Trackpoint>
          <Trackpoint>
            <Time>2022-04-23T11:09:44.000Z</Time>
            <Position>
              <LatitudeDegrees>41.6997012309730052947998046875</LatitudeDegrees>
              <LongitudeDegrees>-0.05212160758674144744873046875</LongitudeDegrees>
            </Position>
            <AltitudeMeters>285.20001220703125</AltitudeMeters>
            <DistanceMeters>28688.094865513</DistanceMeters>
          </Trackpoint>
          <Trackpoint>
            <Time>2022-04-23T11:09:46.000Z</Time>
            <Position>
              <LatitudeDegrees>41.699800305068492889404296875</LatitudeDegrees>
              <LongitudeDegrees>-0.05197023041546344757080078125</LongitudeDegrees>
            </Position>
            <AltitudeMeters>284.79998779296875</AltitudeMeters>
            <DistanceMeters>28704.823346287</DistanceMeters>
          </Trackpoint>
          <Trackpoint>
            <Time>2022-04-23T11:09:52.000Z</Time>
            <Position>
              <LatitudeDegrees>41.7001682706177234649658203125</LatitudeDegrees>
              <LongitudeDegrees>-0.05149908363819122314453125</LongitudeDegrees>
            </Position>
            <AltitudeMeters>284.79998779296875</AltitudeMeters>
            <DistanceMeters>28761.48301975</DistanceMeters>
          </Trackpoint>
          <Trackpoint>
            <Time>2022-04-23T11:09:56.000Z</Time>
            <Position>
              <LatitudeDegrees>41.70041293837130069732666015625</LatitudeDegrees>
              <LongitudeDegrees>-0.05116456188261508941650390625</LongitudeDegrees>
            </Position>
            <AltitudeMeters>284.600006103515625</AltitudeMeters>
            <DistanceMeters>28800.398054633</DistanceMeters>
          </Trackpoint>
          <Trackpoint>
            <Time>2022-04-23T11:09:58.000Z</Time>
            <Position>
              <LatitudeDegrees>41.70055174268782138824462890625</LatitudeDegrees>
              <LongitudeDegrees>-0.05103028379380702972412109375</LongitudeDegrees>
            </Position>
            <AltitudeMeters>284.20001220703125</AltitudeMeters>
            <DistanceMeters>28819.455590533</DistanceMeters>
          </Trackpoint>
          <Trackpoint>
            <Time>2022-04-23T11:10:02.000Z</Time>
            <Position>
              <LatitudeDegrees>41.70084175653755664825439453125</LatitudeDegrees>
              <LongitudeDegrees>-0.05077245645225048065185546875</LongitudeDegrees>
            </Position>
            <AltitudeMeters>283.20001220703125</AltitudeMeters>
            <DistanceMeters>28858.198297803</DistanceMeters>
          </Trackpoint>
          <Trackpoint>
            <Time>2022-04-23T11:10:04.000Z</Time>
            <Position>
              <LatitudeDegrees>41.70098139904439449310302734375</LatitudeDegrees>
              <LongitudeDegrees>-0.05062602460384368896484375</LongitudeDegrees>
            </Position>
            <AltitudeMeters>282.79998779296875</AltitudeMeters>
            <DistanceMeters>28877.937796241</DistanceMeters>
          </Trackpoint>
          <Trackpoint>
            <Time>2022-04-23T11:10:05.000Z</Time>
            <Position>
              <LatitudeDegrees>41.70104451477527618408203125</LatitudeDegrees>
              <LongitudeDegrees>-0.05054245702922344207763671875</LongitudeDegrees>
            </Position>
            <AltitudeMeters>282.79998779296875</AltitudeMeters>
            <DistanceMeters>28887.816004887</DistanceMeters>
          </Trackpoint>
          <Trackpoint>
            <Time>2022-04-23T11:10:06.000Z</Time>
            <Position>
              <LatitudeDegrees>41.701101176440715789794921875</LatitudeDegrees>
              <LongitudeDegrees>-0.05045277066528797149658203125</LongitudeDegrees>
            </Position>
            <AltitudeMeters>282.79998779296875</AltitudeMeters>
            <DistanceMeters>28897.579277235</DistanceMeters>
          </Trackpoint>
          <Trackpoint>
            <Time>2022-04-23T11:10:10.000Z</Time>
            <Position>
              <LatitudeDegrees>41.701310388743877410888671875</LatitudeDegrees>
              <LongitudeDegrees>-0.050076507031917572021484375</LongitudeDegrees>
            </Position>
            <AltitudeMeters>282.399993896484375</AltitudeMeters>
            <DistanceMeters>28936.565253518</DistanceMeters>
          </Trackpoint>
          <Trackpoint>
            <Time>2022-04-23T11:10:13.000Z</Time>
            <Position>
              <LatitudeDegrees>41.70145665295422077178955078125</LatitudeDegrees>
              <LongitudeDegrees>-0.049781464040279388427734375</LongitudeDegrees>
            </Position>
            <AltitudeMeters>282.20001220703125</AltitudeMeters>
            <DistanceMeters>28965.995933641</DistanceMeters>
          </Trackpoint>
          <Trackpoint>
            <Time>2022-04-23T11:10:15.000Z</Time>
            <Position>
              <LatitudeDegrees>41.7015432380139827728271484375</LatitudeDegrees>
              <LongitudeDegrees>-0.04956764169037342071533203125</LongitudeDegrees>
            </Position>
            <AltitudeMeters>281.600006103515625</AltitudeMeters>
            <DistanceMeters>28986.210061351</DistanceMeters>
          </Trackpoint>
          <Trackpoint>
            <Time>2022-04-23T11:10:16.000Z</Time>
            <Position>
              <LatitudeDegrees>41.701575256884098052978515625</LatitudeDegrees>
              <LongitudeDegrees>-0.0494517199695110321044921875</LongitudeDegrees>
            </Position>
            <AltitudeMeters>281.20001220703125</AltitudeMeters>
            <DistanceMeters>28996.481301933</DistanceMeters>
          </Trackpoint>
          <Trackpoint>
            <Time>2022-04-23T11:10:17.000Z</Time>
            <Position>
              <LatitudeDegrees>41.70159713365137577056884765625</LatitudeDegrees>
              <LongitudeDegrees>-0.04933177493512630462646484375</LongitudeDegrees>
            </Position>
            <AltitudeMeters>281</AltitudeMeters>
            <DistanceMeters>29006.74242718</DistanceMeters>
          </Trackpoint>
          <Trackpoint>
            <Time>2022-04-23T11:10:20.000Z</Time>
            <Position>
              <LatitudeDegrees>41.70163049362599849700927734375</LatitudeDegrees>
              <LongitudeDegrees>-0.04895207472145557403564453125</LongitudeDegrees>
            </Position>
            <AltitudeMeters>280</AltitudeMeters>
            <DistanceMeters>29038.51348327</DistanceMeters>
          </Trackpoint>
          <Trackpoint>
            <Time>2022-04-23T11:10:21.000Z</Time>
            <Position>
              <LatitudeDegrees>41.70163887552917003631591796875</LatitudeDegrees>
              <LongitudeDegrees>-0.048824250698089599609375</LongitudeDegrees>
            </Position>
            <AltitudeMeters>279.20001220703125</AltitudeMeters>
            <DistanceMeters>29049.176818704</DistanceMeters>
          </Trackpoint>
          <Trackpoint>
            <Time>2022-04-23T11:10:22.000Z</Time>
            <Position>
              <LatitudeDegrees>41.7016433179378509521484375</LatitudeDegrees>
              <LongitudeDegrees>-0.0486953370273113250732421875</LongitudeDegrees>
            </Position>
            <AltitudeMeters>279</AltitudeMeters>
            <DistanceMeters>29059.900952869</DistanceMeters>
          </Trackpoint>
          <Trackpoint>
            <Time>2022-04-23T11:10:23.000Z</Time>
            <Position>
              <LatitudeDegrees>41.70164021663367748260498046875</LatitudeDegrees>
              <LongitudeDegrees>-0.0485655851662158966064453125</LongitudeDegrees>
            </Position>
            <AltitudeMeters>278.399993896484375</AltitudeMeters>
            <DistanceMeters>29070.688891746</DistanceMeters>
          </Trackpoint>
          <Trackpoint>
            <Time>2022-04-23T11:10:25.000Z</Time>
            <Position>
              <LatitudeDegrees>41.7015948705375194549560546875</LatitudeDegrees>
              <LongitudeDegrees>-0.04830666817724704742431640625</LongitudeDegrees>
            </Position>
            <AltitudeMeters>277.79998779296875</AltitudeMeters>
            <DistanceMeters>29092.789090268</DistanceMeters>
          </Trackpoint>
          <Trackpoint>
            <Time>2022-04-23T11:10:29.000Z</Time>
            <Position>
              <LatitudeDegrees>41.7014667950570583343505859375</LatitudeDegrees>
              <LongitudeDegrees>-0.047757066786289215087890625</LongitudeDegrees>
            </Position>
            <AltitudeMeters>276.399993896484375</AltitudeMeters>
            <DistanceMeters>29140.634073691</DistanceMeters>
          </Trackpoint>
          <Trackpoint>
            <Time>2022-04-23T11:10:30.000Z</Time>
            <Position>
              <LatitudeDegrees>41.70144424773752689361572265625</LatitudeDegrees>
              <LongitudeDegrees>-0.04762731492519378662109375</LongitudeDegrees>
            </Position>
            <AltitudeMeters>276</AltitudeMeters>
            <DistanceMeters>29151.70499179</DistanceMeters>
          </Trackpoint>
          <Trackpoint>
            <Time>2022-04-23T11:10:32.000Z</Time>
            <Position>
              <LatitudeDegrees>41.70139429159462451934814453125</LatitudeDegrees>
              <LongitudeDegrees>-0.04738398827612400054931640625</LongitudeDegrees>
            </Position>
            <AltitudeMeters>274.600006103515625</AltitudeMeters>
            <DistanceMeters>29172.675990407</DistanceMeters>
          </Trackpoint>
          <Trackpoint>
            <Time>2022-04-23T11:10:34.000Z</Time>
            <Position>
              <LatitudeDegrees>41.7013189382851123809814453125</LatitudeDegrees>
              <LongitudeDegrees>-0.04719824530184268951416015625</LongitudeDegrees>
            </Position>
            <AltitudeMeters>270.79998779296875</AltitudeMeters>
            <DistanceMeters>29190.242572383</DistanceMeters>
          </Trackpoint>
          <Trackpoint>
            <Time>2022-04-23T11:10:35.000Z</Time>
            <Position>
              <LatitudeDegrees>41.70126286335289478302001953125</LatitudeDegrees>
              <LongitudeDegrees>-0.04709229804575443267822265625</LongitudeDegrees>
            </Position>
            <AltitudeMeters>269.79998779296875</AltitudeMeters>
            <DistanceMeters>29201.034695713</DistanceMeters>
          </Trackpoint>
          <Trackpoint>
            <Time>2022-04-23T11:10:36.000Z</Time>
            <Position>
              <LatitudeDegrees>41.70120636932551860809326171875</LatitudeDegrees>
              <LongitudeDegrees>-0.04700864665210247039794921875</LongitudeDegrees>
            </Position>
            <AltitudeMeters>268.600006103515625</AltitudeMeters>
            <DistanceMeters>29210.407721571</DistanceMeters>
          </Trackpoint>
          <Trackpoint>
            <Time>2022-04-23T11:10:38.000Z</Time>
            <Position>
              <LatitudeDegrees>41.7010731808841228485107421875</LatitudeDegrees>
              <LongitudeDegrees>-0.04685877822339534759521484375</LongitudeDegrees>
            </Position>
            <AltitudeMeters>267.600006103515625</AltitudeMeters>
            <DistanceMeters>29229.768933654</DistanceMeters>
          </Trackpoint>
          <Trackpoint>
            <Time>2022-04-23T11:10:40.000Z</Time>
            <Position>
              <LatitudeDegrees>41.700950972735881805419921875</LatitudeDegrees>
              <LongitudeDegrees>-0.04674294032156467437744140625</LongitudeDegrees>
            </Position>
            <AltitudeMeters>266.79998779296875</AltitudeMeters>
            <DistanceMeters>29246.432512221</DistanceMeters>
          </Trackpoint>
          <Trackpoint>
            <Time>2022-04-23T11:10:41.000Z</Time>
            <Position>
              <LatitudeDegrees>41.700905375182628631591796875</LatitudeDegrees>
              <LongitudeDegrees>-0.04667085595428943634033203125</LongitudeDegrees>
            </Position>
            <AltitudeMeters>265.600006103515625</AltitudeMeters>
            <DistanceMeters>29254.284157391</DistanceMeters>
          </Trackpoint>
          <Trackpoint>
            <Time>2022-04-23T11:10:42.000Z</Time>
            <Position>
              <LatitudeDegrees>41.70086422003805637359619140625</LatitudeDegrees>
              <LongitudeDegrees>-0.04658703692257404327392578125</LongitudeDegrees>
            </Position>
            <AltitudeMeters>264.399993896484375</AltitudeMeters>
            <DistanceMeters>29262.621093183</DistanceMeters>
          </Trackpoint>
          <Trackpoint>
            <Time>2022-04-23T11:10:43.000Z</Time>
            <Position>
              <LatitudeDegrees>41.70082784257829189300537109375</LatitudeDegrees>
              <LongitudeDegrees>-0.04650137387216091156005859375</LongitudeDegrees>
            </Position>
            <AltitudeMeters>262.79998779296875</AltitudeMeters>
            <DistanceMeters>29270.810499617</DistanceMeters>
          </Trackpoint>
          <Trackpoint>
            <Time>2022-04-23T11:10:45.000Z</Time>
            <Position>
              <LatitudeDegrees>41.70077453367412090301513671875</LatitudeDegrees>
              <LongitudeDegrees>-0.0463396869599819183349609375</LongitudeDegrees>
            </Position>
            <AltitudeMeters>261.20001220703125</AltitudeMeters>
            <DistanceMeters>29285.498814238</DistanceMeters>
          </Trackpoint>
          <Trackpoint>
            <Time>2022-04-23T11:10:46.000Z</Time>
            <Position>
              <LatitudeDegrees>41.7007700912654399871826171875</LatitudeDegrees>
              <LongitudeDegrees>-0.04624170251190662384033203125</LongitudeDegrees>
            </Position>
            <AltitudeMeters>259.600006103515625</AltitudeMeters>
            <DistanceMeters>29293.65562754</DistanceMeters>
          </Trackpoint>
          <Trackpoint>
            <Time>2022-04-23T11:10:47.000Z</Time>
            <Position>
              <LatitudeDegrees>41.700792051851749420166015625</LatitudeDegrees>
              <LongitudeDegrees>-0.04617883823812007904052734375</LongitudeDegrees>
            </Position>
            <AltitudeMeters>258.79998779296875</AltitudeMeters>
            <DistanceMeters>29299.424148294</DistanceMeters>
          </Trackpoint>
          <Trackpoint>
            <Time>2022-04-23T11:10:48.000Z</Time>
            <Position>
              <LatitudeDegrees>41.7008351348340511322021484375</LatitudeDegrees>
              <LongitudeDegrees>-0.046104826033115386962890625</LongitudeDegrees>
            </Position>
            <AltitudeMeters>257.79998779296875</AltitudeMeters>
            <DistanceMeters>29307.223288947</DistanceMeters>
          </Trackpoint>
          <Trackpoint>
            <Time>2022-04-23T11:10:49.000Z</Time>
            <Position>
              <LatitudeDegrees>41.70089271850883960723876953125</LatitudeDegrees>
              <LongitudeDegrees>-0.0460392795503139495849609375</LongitudeDegrees>
            </Position>
            <AltitudeMeters>257.20001220703125</AltitudeMeters>
            <DistanceMeters>29315.634629443</DistanceMeters>
          </Trackpoint>
          <Trackpoint>
            <Time>2022-04-23T11:10:50.000Z</Time>
            <Position>
              <LatitudeDegrees>41.700961031019687652587890625</LatitudeDegrees>
              <LongitudeDegrees>-0.04598035477101802825927734375</LongitudeDegrees>
            </Position>
            <AltitudeMeters>255.600006103515625</AltitudeMeters>
            <DistanceMeters>29324.678157646</DistanceMeters>
          </Trackpoint>
          <Trackpoint>
            <Time>2022-04-23T11:10:52.000Z</Time>
            <Position>
              <LatitudeDegrees>41.70110779814422130584716796875</LatitudeDegrees>
              <LongitudeDegrees>-0.04586552269756793975830078125</LongitudeDegrees>
            </Position>
            <AltitudeMeters>254.1999969482421875</AltitudeMeters>
            <DistanceMeters>29343.596351264</DistanceMeters>
          </Trackpoint>
          <Trackpoint>
            <Time>2022-04-23T11:10:53.000Z</Time>
            <Position>
              <LatitudeDegrees>41.701180636882781982421875</LatitudeDegrees>
              <LongitudeDegrees>-0.045799054205417633056640625</LongitudeDegrees>
            </Position>
            <AltitudeMeters>252.600006103515625</AltitudeMeters>
            <DistanceMeters>29353.406680246</DistanceMeters>
          </Trackpoint>
          <Trackpoint>
            <Time>2022-04-23T11:10:55.000Z</Time>
            <Position>
              <LatitudeDegrees>41.7013402283191680908203125</LatitudeDegrees>
              <LongitudeDegrees>-0.045665614306926727294921875</LongitudeDegrees>
            </Position>
            <AltitudeMeters>249.8000030517578125</AltitudeMeters>
            <DistanceMeters>29374.346652834</DistanceMeters>
          </Trackpoint>
          <Trackpoint>
            <Time>2022-04-23T11:10:57.000Z</Time>
            <Position>
              <LatitudeDegrees>41.70152085833251476287841796875</LatitudeDegrees>
              <LongitudeDegrees>-0.04552982747554779052734375</LongitudeDegrees>
            </Position>
            <AltitudeMeters>247.600006103515625</AltitudeMeters>
            <DistanceMeters>29397.401551655</DistanceMeters>
          </Trackpoint>
          <Trackpoint>
            <Time>2022-04-23T11:10:59.000Z</Time>
            <Position>
              <LatitudeDegrees>41.7017179168760776519775390625</LatitudeDegrees>
              <LongitudeDegrees>-0.0454143248498439788818359375</LongitudeDegrees>
            </Position>
            <AltitudeMeters>246.399993896484375</AltitudeMeters>
            <DistanceMeters>29421.342626656</DistanceMeters>
          </Trackpoint>
          <Trackpoint>
            <Time>2022-04-23T11:11:00.000Z</Time>
            <Position>
              <LatitudeDegrees>41.701815985143184661865234375</LatitudeDegrees>
              <LongitudeDegrees>-0.0453700684010982513427734375</LongitudeDegrees>
            </Position>
            <AltitudeMeters>244.399993896484375</AltitudeMeters>
            <DistanceMeters>29432.860867976</DistanceMeters>
          </Trackpoint>
          <Trackpoint>
            <Time>2022-04-23T11:11:02.000Z</Time>
            <Position>
              <LatitudeDegrees>41.70200181193649768829345703125</LatitudeDegrees>
              <LongitudeDegrees>-0.0452663004398345947265625</LongitudeDegrees>
            </Position>
            <AltitudeMeters>242</AltitudeMeters>
            <DistanceMeters>29455.269045741</DistanceMeters>
          </Trackpoint>
          <Trackpoint>
            <Time>2022-04-23T11:11:03.000Z</Time>
            <Position>
              <LatitudeDegrees>41.70209015719592571258544921875</LatitudeDegrees>
              <LongitudeDegrees>-0.04520016722381114959716796875</LongitudeDegrees>
            </Position>
            <AltitudeMeters>241.399993896484375</AltitudeMeters>
            <DistanceMeters>29466.533620043</DistanceMeters>
          </Trackpoint>
          <Trackpoint>
            <Time>2022-04-23T11:11:04.000Z</Time>
            <Position>
              <LatitudeDegrees>41.7021755687892436981201171875</LatitudeDegrees>
              <LongitudeDegrees>-0.0451149232685565948486328125</LongitudeDegrees>
            </Position>
            <AltitudeMeters>239.600006103515625</AltitudeMeters>
            <DistanceMeters>29478.389130991</DistanceMeters>
          </Trackpoint>
          <Trackpoint>
            <Time>2022-04-23T11:11:06.000Z</Time>
            <Position>
              <LatitudeDegrees>41.7023313045501708984375</LatitudeDegrees>
              <LongitudeDegrees>-0.0449023582041263580322265625</LongitudeDegrees>
            </Position>
            <AltitudeMeters>238</AltitudeMeters>
            <DistanceMeters>29503.137342338</DistanceMeters>
          </Trackpoint>
          <Trackpoint>
            <Time>2022-04-23T11:11:08.000Z</Time>
            <Position>
              <LatitudeDegrees>41.70248444192111492156982421875</LatitudeDegrees>
              <LongitudeDegrees>-0.04468685947358608245849609375</LongitudeDegrees>
            </Position>
            <AltitudeMeters>237</AltitudeMeters>
            <DistanceMeters>29527.859999036</DistanceMeters>
          </Trackpoint>
          <Trackpoint>
            <Time>2022-04-23T11:11:09.000Z</Time>
            <Position>
              <LatitudeDegrees>41.7025698535144329071044921875</LatitudeDegrees>
              <LongitudeDegrees>-0.04456582479178905487060546875</LongitudeDegrees>
            </Position>
            <AltitudeMeters>236</AltitudeMeters>
            <DistanceMeters>29541.700012819</DistanceMeters>
          </Trackpoint>
          <Trackpoint>
            <Time>2022-04-23T11:11:10.000Z</Time>
            <Position>
              <LatitudeDegrees>41.70261218212544918060302734375</LatitudeDegrees>
              <LongitudeDegrees>-0.04448669962584972381591796875</LongitudeDegrees>
            </Position>
            <AltitudeMeters>235.8000030517578125</AltitudeMeters>
            <DistanceMeters>29549.789013618</DistanceMeters>
          </Trackpoint>
          <Trackpoint>
            <Time>2022-04-23T11:11:12.000Z</Time>
            <Position>
              <LatitudeDegrees>41.70271041803061962127685546875</LatitudeDegrees>
              <LongitudeDegrees>-0.04427589476108551025390625</LongitudeDegrees>
            </Position>
            <AltitudeMeters>234.600006103515625</AltitudeMeters>
            <DistanceMeters>29570.438911192</DistanceMeters>
          </Trackpoint>
          <Trackpoint>
            <Time>2022-04-23T11:11:13.000Z</Time>
            <Position>
              <LatitudeDegrees>41.70278049074113368988037109375</LatitudeDegrees>
              <LongitudeDegrees>-0.0441791675984859466552734375</LongitudeDegrees>
            </Position>
            <AltitudeMeters>233.600006103515625</AltitudeMeters>
            <DistanceMeters>29581.638364831</DistanceMeters>
          </Trackpoint>
          <Trackpoint>
            <Time>2022-04-23T11:11:14.000Z</Time>
            <Position>
              <LatitudeDegrees>41.70286313630640506744384765625</LatitudeDegrees>
              <LongitudeDegrees>-0.04409727640450000762939453125</LongitudeDegrees>
            </Position>
            <AltitudeMeters>232.8000030517578125</AltitudeMeters>
            <DistanceMeters>29593.080307336</DistanceMeters>
          </Trackpoint>
          <Trackpoint>
            <Time>2022-04-23T11:11:15.000Z</Time>
            <Position>
              <LatitudeDegrees>41.70295567251741886138916015625</LatitudeDegrees>
              <LongitudeDegrees>-0.04403340630233287811279296875</LongitudeDegrees>
            </Position>
            <AltitudeMeters>231</AltitudeMeters>
            <DistanceMeters>29604.666554201</DistanceMeters>
          </Trackpoint>
          <Trackpoint>
            <Time>2022-04-23T11:11:16.000Z</Time>
            <Position>
              <LatitudeDegrees>41.70305223204195499420166015625</LatitudeDegrees>
              <LongitudeDegrees>-0.0439843721687793731689453125</LongitudeDegrees>
            </Position>
            <AltitudeMeters>229</AltitudeMeters>
            <DistanceMeters>29616.160466432</DistanceMeters>
          </Trackpoint>
          <Trackpoint>
            <Time>2022-04-23T11:11:18.000Z</Time>
            <Position>
              <LatitudeDegrees>41.70323789119720458984375</LatitudeDegrees>
              <LongitudeDegrees>-0.04388135857880115509033203125</LongitudeDegrees>
            </Position>
            <AltitudeMeters>226.600006103515625</AltitudeMeters>
            <DistanceMeters>29638.527704197</DistanceMeters>
          </Trackpoint>
          <Trackpoint>
            <Time>2022-04-23T11:11:19.000Z</Time>
            <Position>
              <LatitudeDegrees>41.7033148370683193206787109375</LatitudeDegrees>
              <LongitudeDegrees>-0.04381028003990650177001953125</LongitudeDegrees>
            </Position>
            <AltitudeMeters>226</AltitudeMeters>
            <DistanceMeters>29648.931285131</DistanceMeters>
          </Trackpoint>
          <Trackpoint>
            <Time>2022-04-23T11:11:20.000Z</Time>
            <Position>
              <LatitudeDegrees>41.70339052565395832061767578125</LatitudeDegrees>
              <LongitudeDegrees>-0.0437245331704616546630859375</LongitudeDegrees>
            </Position>
            <AltitudeMeters>225.1999969482421875</AltitudeMeters>
            <DistanceMeters>29659.965028404</DistanceMeters>
          </Trackpoint>
          <Trackpoint>
            <Time>2022-04-23T11:11:23.000Z</Time>
            <Position>
              <LatitudeDegrees>41.703594624996185302734375</LatitudeDegrees>
              <LongitudeDegrees>-0.0434519536793231964111328125</LongitudeDegrees>
            </Position>
            <AltitudeMeters>224.1999969482421875</AltitudeMeters>
            <DistanceMeters>29692.044673537</DistanceMeters>
          </Trackpoint>
          <Trackpoint>
            <Time>2022-04-23T11:11:24.000Z</Time>
            <Position>
              <LatitudeDegrees>41.703646592795848846435546875</LatitudeDegrees>
              <LongitudeDegrees>-0.0433507002890110015869140625</LongitudeDegrees>
            </Position>
            <AltitudeMeters>224</AltitudeMeters>
            <DistanceMeters>29702.255513983</DistanceMeters>
          </Trackpoint>
          <Trackpoint>
            <Time>2022-04-23T11:11:26.000Z</Time>
            <Position>
              <LatitudeDegrees>41.70374323613941669464111328125</LatitudeDegrees>
              <LongitudeDegrees>-0.04314458929002285003662109375</LongitudeDegrees>
            </Position>
            <AltitudeMeters>223.600006103515625</AltitudeMeters>
            <DistanceMeters>29722.480806637</DistanceMeters>
          </Trackpoint>
          <Trackpoint>
            <Time>2022-04-23T11:11:28.000Z</Time>
            <Position>
              <LatitudeDegrees>41.70386075042188167572021484375</LatitudeDegrees>
              <LongitudeDegrees>-0.04295549355447292327880859375</LongitudeDegrees>
            </Position>
            <AltitudeMeters>223.399993896484375</AltitudeMeters>
            <DistanceMeters>29742.925688845</DistanceMeters>
          </Trackpoint>
          <Trackpoint>
            <Time>2022-04-23T11:11:30.000Z</Time>
            <Position>
              <LatitudeDegrees>41.70395412482321262359619140625</LatitudeDegrees>
              <LongitudeDegrees>-0.0427197106182575225830078125</LongitudeDegrees>
            </Position>
            <AltitudeMeters>223.1999969482421875</AltitudeMeters>
            <DistanceMeters>29765.104199256</DistanceMeters>
          </Trackpoint>
          <Trackpoint>
            <Time>2022-04-23T11:11:32.000Z</Time>
            <Position>
              <LatitudeDegrees>41.70402134768664836883544921875</LatitudeDegrees>
              <LongitudeDegrees>-0.04247956909239292144775390625</LongitudeDegrees>
            </Position>
            <AltitudeMeters>223</AltitudeMeters>
            <DistanceMeters>29786.415833518</DistanceMeters>
          </Trackpoint>
          <Trackpoint>
            <Time>2022-04-23T11:11:34.000Z</Time>
            <Position>
              <LatitudeDegrees>41.7041282169520854949951171875</LatitudeDegrees>
              <LongitudeDegrees>-0.04226583056151866912841796875</LongitudeDegrees>
            </Position>
            <AltitudeMeters>222.600006103515625</AltitudeMeters>
            <DistanceMeters>29807.791986778</DistanceMeters>
          </Trackpoint>
          <Trackpoint>
            <Time>2022-04-23T11:11:35.000Z</Time>
            <Position>
              <LatitudeDegrees>41.7042113654315471649169921875</LatitudeDegrees>
              <LongitudeDegrees>-0.04216105677187442779541015625</LongitudeDegrees>
            </Position>
            <AltitudeMeters>222.399993896484375</AltitudeMeters>
            <DistanceMeters>29820.497879375</DistanceMeters>
          </Trackpoint>
          <Trackpoint>
            <Time>2022-04-23T11:11:38.000Z</Time>
            <Position>
              <LatitudeDegrees>41.704487465322017669677734375</LatitudeDegrees>
              <LongitudeDegrees>-0.0418893992900848388671875</LongitudeDegrees>
            </Position>
            <AltitudeMeters>221</AltitudeMeters>
            <DistanceMeters>29858.628347615</DistanceMeters>
          </Trackpoint>
          <Trackpoint>
            <Time>2022-04-23T11:11:40.000Z</Time>
            <Position>
              <LatitudeDegrees>41.70467161573469638824462890625</LatitudeDegrees>
              <LongitudeDegrees>-0.04172134213149547576904296875</LongitudeDegrees>
            </Position>
            <AltitudeMeters>219.8000030517578125</AltitudeMeters>
            <DistanceMeters>29883.430138021</DistanceMeters>
          </Trackpoint>
          <Trackpoint>
            <Time>2022-04-23T11:11:41.000Z</Time>
            <Position>
              <LatitudeDegrees>41.70476029627025127410888671875</LatitudeDegrees>
              <LongitudeDegrees>-0.041641630232334136962890625</LongitudeDegrees>
            </Position>
            <AltitudeMeters>218.399993896484375</AltitudeMeters>
            <DistanceMeters>29895.317216561</DistanceMeters>
          </Trackpoint>
          <Trackpoint>
            <Time>2022-04-23T11:11:43.000Z</Time>
            <Position>
              <LatitudeDegrees>41.7049171216785907745361328125</LatitudeDegrees>
              <LongitudeDegrees>-0.041484050452709197998046875</LongitudeDegrees>
            </Position>
            <AltitudeMeters>217</AltitudeMeters>
            <DistanceMeters>29917.138007124</DistanceMeters>
          </Trackpoint>
          <Trackpoint>
            <Time>2022-04-23T11:11:44.000Z</Time>
            <Position>
              <LatitudeDegrees>41.70498325489461421966552734375</LatitudeDegrees>
              <LongitudeDegrees>-0.04140584729611873626708984375</LongitudeDegrees>
            </Position>
            <AltitudeMeters>216.8000030517578125</AltitudeMeters>
            <DistanceMeters>29926.956616807</DistanceMeters>
          </Trackpoint>
          <Trackpoint>
            <Time>2022-04-23T11:11:46.000Z</Time>
            <Position>
              <LatitudeDegrees>41.705062128603458404541015625</LatitudeDegrees>
              <LongitudeDegrees>-0.0412096269428730010986328125</LongitudeDegrees>
            </Position>
            <AltitudeMeters>215.8000030517578125</AltitudeMeters>
            <DistanceMeters>29945.474883007</DistanceMeters>
          </Trackpoint>
          <Trackpoint>
            <Time>2022-04-23T11:11:48.000Z</Time>
            <Position>
              <LatitudeDegrees>41.70506690628826618194580078125</LatitudeDegrees>
              <LongitudeDegrees>-0.04096898250281810760498046875</LongitudeDegrees>
            </Position>
            <AltitudeMeters>215.1999969482421875</AltitudeMeters>
            <DistanceMeters>29965.478401382</DistanceMeters>
          </Trackpoint>
          <Trackpoint>
            <Time>2022-04-23T11:11:49.000Z</Time>
            <Position>
              <LatitudeDegrees>41.70505600981414318084716796875</LatitudeDegrees>
              <LongitudeDegrees>-0.04084275104105472564697265625</LongitudeDegrees>
            </Position>
            <AltitudeMeters>215</AltitudeMeters>
            <DistanceMeters>29976.037490067</DistanceMeters>
          </Trackpoint>
          <Trackpoint>
            <Time>2022-04-23T11:11:50.000Z</Time>
            <Position>
              <LatitudeDegrees>41.705050058662891387939453125</LatitudeDegrees>
              <LongitudeDegrees>-0.04070964641869068145751953125</LongitudeDegrees>
            </Position>
            <AltitudeMeters>214.399993896484375</AltitudeMeters>
            <DistanceMeters>29987.11696926</DistanceMeters>
          </Trackpoint>
          <Trackpoint>
            <Time>2022-04-23T11:11:52.000Z</Time>
            <Position>
              <LatitudeDegrees>41.7050488851964473724365234375</LatitudeDegrees>
              <LongitudeDegrees>-0.04043689928948879241943359375</LongitudeDegrees>
            </Position>
            <AltitudeMeters>213.399993896484375</AltitudeMeters>
            <DistanceMeters>30009.781388478</DistanceMeters>
          </Trackpoint>
          <Trackpoint>
            <Time>2022-04-23T11:11:53.000Z</Time>
            <Position>
              <LatitudeDegrees>41.70505366288125514984130859375</LatitudeDegrees>
              <LongitudeDegrees>-0.04030178301036357879638671875</LongitudeDegrees>
            </Position>
            <AltitudeMeters>213</AltitudeMeters>
            <DistanceMeters>30021.021486321</DistanceMeters>
          </Trackpoint>
          <Trackpoint>
            <Time>2022-04-23T11:11:54.000Z</Time>
            <Position>
              <LatitudeDegrees>41.7050562612712383270263671875</LatitudeDegrees>
              <LongitudeDegrees>-0.04017018713057041168212890625</LongitudeDegrees>
            </Position>
            <AltitudeMeters>212.600006103515625</AltitudeMeters>
            <DistanceMeters>30031.959882588</DistanceMeters>
          </Trackpoint>
          <Trackpoint>
            <Time>2022-04-23T11:11:56.000Z</Time>
            <Position>
              <LatitudeDegrees>41.705021560192108154296875</LatitudeDegrees>
              <LongitudeDegrees>-0.0399074144661426544189453125</LongitudeDegrees>
            </Position>
            <AltitudeMeters>212.399993896484375</AltitudeMeters>
            <DistanceMeters>30054.134321082</DistanceMeters>
          </Trackpoint>
          <Trackpoint>
            <Time>2022-04-23T11:11:57.000Z</Time>
            <Position>
              <LatitudeDegrees>41.704987026751041412353515625</LatitudeDegrees>
              <LongitudeDegrees>-0.0397709570825099945068359375</LongitudeDegrees>
            </Position>
            <AltitudeMeters>211.8000030517578125</AltitudeMeters>
            <DistanceMeters>30066.106932889</DistanceMeters>
          </Trackpoint>
          <Trackpoint>
            <Time>2022-04-23T11:11:59.000Z</Time>
            <Position>
              <LatitudeDegrees>41.70492256991565227508544921875</LatitudeDegrees>
              <LongitudeDegrees>-0.039501227438449859619140625</LongitudeDegrees>
            </Position>
            <AltitudeMeters>210.1999969482421875</AltitudeMeters>
            <DistanceMeters>30089.640582169</DistanceMeters>
          </Trackpoint>
          <Trackpoint>
            <Time>2022-04-23T11:12:00.000Z</Time>
            <Position>
              <LatitudeDegrees>41.70491452328860759735107421875</LatitudeDegrees>
              <LongitudeDegrees>-0.039377845823764801025390625</LongitudeDegrees>
            </Position>
            <AltitudeMeters>210</AltitudeMeters>
            <DistanceMeters>30099.932023594</DistanceMeters>
          </Trackpoint>
          <Trackpoint>
            <Time>2022-04-23T11:12:02.000Z</Time>
            <Position>
              <LatitudeDegrees>41.7049298621714115142822265625</LatitudeDegrees>
              <LongitudeDegrees>-0.0391644425690174102783203125</LongitudeDegrees>
            </Position>
            <AltitudeMeters>209</AltitudeMeters>
            <DistanceMeters>30117.746934953</DistanceMeters>
          </Trackpoint>
          <Trackpoint>
            <Time>2022-04-23T11:12:03.000Z</Time>
            <Position>
              <LatitudeDegrees>41.70493950136005878448486328125</LatitudeDegrees>
              <LongitudeDegrees>-0.0390648655593395233154296875</LongitudeDegrees>
            </Position>
            <AltitudeMeters>208.8000030517578125</AltitudeMeters>
            <DistanceMeters>30126.09090819</DistanceMeters>
          </Trackpoint>
          <Trackpoint>
            <Time>2022-04-23T11:12:05.000Z</Time>
            <Position>
              <LatitudeDegrees>41.70494905672967433929443359375</LatitudeDegrees>
              <LongitudeDegrees>-0.03885892219841480255126953125</LongitudeDegrees>
            </Position>
            <AltitudeMeters>208.600006103515625</AltitudeMeters>
            <DistanceMeters>30143.236845572</DistanceMeters>
          </Trackpoint>
          <Trackpoint>
            <Time>2022-04-23T11:12:07.000Z</Time>
            <Position>
              <LatitudeDegrees>41.704917959868907928466796875</LatitudeDegrees>
              <LongitudeDegrees>-0.03865892998874187469482421875</LongitudeDegrees>
            </Position>
            <AltitudeMeters>208.399993896484375</AltitudeMeters>
            <DistanceMeters>30160.21235144</DistanceMeters>
          </Trackpoint>
          <Trackpoint>
            <Time>2022-04-23T11:12:11.000Z</Time>
            <Position>
              <LatitudeDegrees>41.70476214028894901275634765625</LatitudeDegrees>
              <LongitudeDegrees>-0.03826506435871124267578125</LongitudeDegrees>
            </Position>
            <AltitudeMeters>208.600006103515625</AltitudeMeters>
            <DistanceMeters>30197.252053303</DistanceMeters>
          </Trackpoint>
          <Trackpoint>
            <Time>2022-04-23T11:12:12.000Z</Time>
            <Position>
              <LatitudeDegrees>41.7047411017119884490966796875</LatitudeDegrees>
              <LongitudeDegrees>-0.0381723605096340179443359375</LongitudeDegrees>
            </Position>
            <AltitudeMeters>208.8000030517578125</AltitudeMeters>
            <DistanceMeters>30205.303569856</DistanceMeters>
          </Trackpoint>
          <Trackpoint>
            <Time>2022-04-23T11:12:13.000Z</Time>
            <Position>
              <LatitudeDegrees>41.704729534685611724853515625</LatitudeDegrees>
              <LongitudeDegrees>-0.038078986108303070068359375</LongitudeDegrees>
            </Position>
            <AltitudeMeters>209</AltitudeMeters>
            <DistanceMeters>30213.168429908</DistanceMeters>
          </Trackpoint>
          <Trackpoint>
            <Time>2022-04-23T11:12:15.000Z</Time>
            <Position>
              <LatitudeDegrees>41.70474839396774768829345703125</LatitudeDegrees>
              <LongitudeDegrees>-0.03788326866924762725830078125</LongitudeDegrees>
            </Position>
            <AltitudeMeters>209</AltitudeMeters>
            <DistanceMeters>30229.566803194</DistanceMeters>
          </Trackpoint>
          <Trackpoint>
            <Time>2022-04-23T11:12:19.000Z</Time>
            <Position>
              <LatitudeDegrees>41.70476767234504222869873046875</LatitudeDegrees>
              <LongitudeDegrees>-0.03752821125090122222900390625</LongitudeDegrees>
            </Position>
            <AltitudeMeters>209.600006103515625</AltitudeMeters>
            <DistanceMeters>30259.148361433</DistanceMeters>
          </Trackpoint>
          <Trackpoint>
            <Time>2022-04-23T11:12:21.000Z</Time>
            <Position>
              <LatitudeDegrees>41.704766750335693359375</LatitudeDegrees>
              <LongitudeDegrees>-0.03739628009498119354248046875</LongitudeDegrees>
            </Position>
            <AltitudeMeters>210</AltitudeMeters>
            <DistanceMeters>30270.111907737</DistanceMeters>
          </Trackpoint>
          <Trackpoint>
            <Time>2022-04-23T11:12:23.000Z</Time>
            <Position>
              <LatitudeDegrees>41.7047917284071445465087890625</LatitudeDegrees>
              <LongitudeDegrees>-0.03727222792804241180419921875</LongitudeDegrees>
            </Position>
            <AltitudeMeters>210.8000030517578125</AltitudeMeters>
            <DistanceMeters>30280.78878392</DistanceMeters>
          </Trackpoint>
          <Trackpoint>
            <Time>2022-04-23T11:12:24.000Z</Time>
            <Position>
              <LatitudeDegrees>41.704817377030849456787109375</LatitudeDegrees>
              <LongitudeDegrees>-0.03721891902387142181396484375</LongitudeDegrees>
            </Position>
            <AltitudeMeters>211.399993896484375</AltitudeMeters>
            <DistanceMeters>30286.059126901</DistanceMeters>
          </Trackpoint>
          <Trackpoint>
            <Time>2022-04-23T11:12:25.000Z</Time>
            <Position>
              <LatitudeDegrees>41.704850904643535614013671875</LatitudeDegrees>
              <LongitudeDegrees>-0.0371713936328887939453125</LongitudeDegrees>
            </Position>
            <AltitudeMeters>211.600006103515625</AltitudeMeters>
            <DistanceMeters>30291.493126347</DistanceMeters>
          </Trackpoint>
          <Trackpoint>
            <Time>2022-04-23T11:12:27.000Z</Time>
            <Position>
              <LatitudeDegrees>41.7049236595630645751953125</LatitudeDegrees>
              <LongitudeDegrees>-0.0370967946946620941162109375</LongitudeDegrees>
            </Position>
            <AltitudeMeters>212.600006103515625</AltitudeMeters>
            <DistanceMeters>30301.691578213</DistanceMeters>
          </Trackpoint>
          <Trackpoint>
            <Time>2022-04-23T11:12:31.000Z</Time>
            <Position>
              <LatitudeDegrees>41.705075204372406005859375</LatitudeDegrees>
              <LongitudeDegrees>-0.03699244000017642974853515625</LongitudeDegrees>
            </Position>
            <AltitudeMeters>213.8000030517578125</AltitudeMeters>
            <DistanceMeters>30320.657444001</DistanceMeters>
          </Trackpoint>
          <Trackpoint>
            <Time>2022-04-23T11:12:32.000Z</Time>
            <Position>
              <LatitudeDegrees>41.70512122102081775665283203125</LatitudeDegrees>
              <LongitudeDegrees>-0.03696285188198089599609375</LongitudeDegrees>
            </Position>
            <AltitudeMeters>214.1999969482421875</AltitudeMeters>
            <DistanceMeters>30326.338420432</DistanceMeters>
          </Trackpoint>
          <Trackpoint>
            <Time>2022-04-23T11:12:33.000Z</Time>
            <Position>
              <LatitudeDegrees>41.70516715385019779205322265625</LatitudeDegrees>
              <LongitudeDegrees>-0.0369147397577762603759765625</LongitudeDegrees>
            </Position>
            <AltitudeMeters>214.1999969482421875</AltitudeMeters>
            <DistanceMeters>30332.828821545</DistanceMeters>
          </Trackpoint>
          <Trackpoint>
            <Time>2022-04-23T11:12:35.000Z</Time>
            <Position>
              <LatitudeDegrees>41.7052158527076244354248046875</LatitudeDegrees>
              <LongitudeDegrees>-0.03676713444292545318603515625</LongitudeDegrees>
            </Position>
            <AltitudeMeters>214.1999969482421875</AltitudeMeters>
            <DistanceMeters>30346.238703808</DistanceMeters>
          </Trackpoint>
          <Trackpoint>
            <Time>2022-04-23T11:12:38.000Z</Time>
            <Position>
              <LatitudeDegrees>41.70519531704485416412353515625</LatitudeDegrees>
              <LongitudeDegrees>-0.03651333041489124298095703125</LongitudeDegrees>
            </Position>
            <AltitudeMeters>214</AltitudeMeters>
            <DistanceMeters>30367.452446751</DistanceMeters>
          </Trackpoint>
          <Trackpoint>
            <Time>2022-04-23T11:12:40.000Z</Time>
            <Position>
              <LatitudeDegrees>41.7051596939563751220703125</LatitudeDegrees>
              <LongitudeDegrees>-0.03633462823927402496337890625</LongitudeDegrees>
            </Position>
            <AltitudeMeters>213.8000030517578125</AltitudeMeters>
            <DistanceMeters>30382.822118178</DistanceMeters>
          </Trackpoint>
          <Trackpoint>
            <Time>2022-04-23T11:12:41.000Z</Time>
            <Position>
              <LatitudeDegrees>41.70513429678976535797119140625</LatitudeDegrees>
              <LongitudeDegrees>-0.036247707903385162353515625</LongitudeDegrees>
            </Position>
            <AltitudeMeters>213.399993896484375</AltitudeMeters>
            <DistanceMeters>30390.578300826</DistanceMeters>
          </Trackpoint>
          <Trackpoint>
            <Time>2022-04-23T11:12:43.000Z</Time>
            <Position>
              <LatitudeDegrees>41.7050643078982830047607421875</LatitudeDegrees>
              <LongitudeDegrees>-0.03610764630138874053955078125</LongitudeDegrees>
            </Position>
            <AltitudeMeters>213.1999969482421875</AltitudeMeters>
            <DistanceMeters>30404.583059316</DistanceMeters>
          </Trackpoint>
          <Trackpoint>
            <Time>2022-04-23T11:12:44.000Z</Time>
            <Position>
              <LatitudeDegrees>41.7050099931657314300537109375</LatitudeDegrees>
              <LongitudeDegrees>-0.0360234081745147705078125</LongitudeDegrees>
            </Position>
            <AltitudeMeters>213.1999969482421875</AltitudeMeters>
            <DistanceMeters>30413.831946501</DistanceMeters>
          </Trackpoint>
          <Trackpoint>
            <Time>2022-04-23T11:12:46.000Z</Time>
            <Position>
              <LatitudeDegrees>41.7049211449921131134033203125</LatitudeDegrees>
              <LongitudeDegrees>-0.03589021973311901092529296875</LongitudeDegrees>
            </Position>
            <AltitudeMeters>213</AltitudeMeters>
            <DistanceMeters>30428.673768652</DistanceMeters>
          </Trackpoint>
          <Trackpoint>
            <Time>2022-04-23T11:12:47.000Z</Time>
            <Position>
              <LatitudeDegrees>41.70489616692066192626953125</LatitudeDegrees>
              <LongitudeDegrees>-0.03581427969038486480712890625</LongitudeDegrees>
            </Position>
            <AltitudeMeters>213.1999969482421875</AltitudeMeters>
            <DistanceMeters>30435.569592211</DistanceMeters>
          </Trackpoint>
          <Trackpoint>
            <Time>2022-04-23T11:12:48.000Z</Time>
            <Position>
              <LatitudeDegrees>41.70488585717976093292236328125</LatitudeDegrees>
              <LongitudeDegrees>-0.03573481924831867218017578125</LongitudeDegrees>
            </Position>
            <AltitudeMeters>213.1999969482421875</AltitudeMeters>
            <DistanceMeters>30442.271502404</DistanceMeters>
          </Trackpoint>
          <Trackpoint>
            <Time>2022-04-23T11:12:51.000Z</Time>
            <Position>
              <LatitudeDegrees>41.70489960350096225738525390625</LatitudeDegrees>
              <LongitudeDegrees>-0.03548705019056797027587890625</LongitudeDegrees>
            </Position>
            <AltitudeMeters>214</AltitudeMeters>
            <DistanceMeters>30462.916807881</DistanceMeters>
          </Trackpoint>
          <Trackpoint>
            <Time>2022-04-23T11:12:55.000Z</Time>
            <Position>
              <LatitudeDegrees>41.7049389146268367767333984375</LatitudeDegrees>
              <LongitudeDegrees>-0.0351558811962604522705078125</LongitudeDegrees>
            </Position>
            <AltitudeMeters>214.399993896484375</AltitudeMeters>
            <DistanceMeters>30490.781194341</DistanceMeters>
          </Trackpoint>
          <Trackpoint>
            <Time>2022-04-23T11:12:57.000Z</Time>
            <Position>
              <LatitudeDegrees>41.70495039783418178558349609375</LatitudeDegrees>
              <LongitudeDegrees>-0.03498715348541736602783203125</LongitudeDegrees>
            </Position>
            <AltitudeMeters>214.399993896484375</AltitudeMeters>
            <DistanceMeters>30504.859907988</DistanceMeters>
          </Trackpoint>
          <Trackpoint>
            <Time>2022-04-23T11:12:58.000Z</Time>
            <Position>
              <LatitudeDegrees>41.704952828586101531982421875</LatitudeDegrees>
              <LongitudeDegrees>-0.03489495255053043365478515625</LongitudeDegrees>
            </Position>
            <AltitudeMeters>214.399993896484375</AltitudeMeters>
            <DistanceMeters>30512.525919826</DistanceMeters>
          </Trackpoint>
          <Trackpoint>
            <Time>2022-04-23T11:13:01.000Z</Time>
            <Position>
              <LatitudeDegrees>41.70496799983084201812744140625</LatitudeDegrees>
              <LongitudeDegrees>-0.03459404222667217254638671875</LongitudeDegrees>
            </Position>
            <AltitudeMeters>214</AltitudeMeters>
            <DistanceMeters>30537.587402962</DistanceMeters>
          </Trackpoint>
          <Trackpoint>
            <Time>2022-04-23T11:13:03.000Z</Time>
            <Position>
              <LatitudeDegrees>41.7049858532845973968505859375</LatitudeDegrees>
              <LongitudeDegrees>-0.03439840860664844512939453125</LongitudeDegrees>
            </Position>
            <AltitudeMeters>213.600006103515625</AltitudeMeters>
            <DistanceMeters>30553.964561767</DistanceMeters>
          </Trackpoint>
          <Trackpoint>
            <Time>2022-04-23T11:13:05.000Z</Time>
            <Position>
              <LatitudeDegrees>41.70501284301280975341796875</LatitudeDegrees>
              <LongitudeDegrees>-0.03420864231884479522705078125</LongitudeDegrees>
            </Position>
            <AltitudeMeters>213.1999969482421875</AltitudeMeters>
            <DistanceMeters>30570.016483809</DistanceMeters>
          </Trackpoint>
          <Trackpoint>
            <Time>2022-04-23T11:13:06.000Z</Time>
            <Position>
              <LatitudeDegrees>41.70501477085053920745849609375</LatitudeDegrees>
              <LongitudeDegrees>-0.0341114960610866546630859375</LongitudeDegrees>
            </Position>
            <AltitudeMeters>213.1999969482421875</AltitudeMeters>
            <DistanceMeters>30578.091518299</DistanceMeters>
          </Trackpoint>
          <Trackpoint>
            <Time>2022-04-23T11:13:08.000Z</Time>
            <Position>
              <LatitudeDegrees>41.70499415136873722076416015625</LatitudeDegrees>
              <LongitudeDegrees>-0.03392332233488559722900390625</LongitudeDegrees>
            </Position>
            <AltitudeMeters>212.8000030517578125</AltitudeMeters>
            <DistanceMeters>30593.895120872</DistanceMeters>
          </Trackpoint>
          <Trackpoint>
            <Time>2022-04-23T11:13:10.000Z</Time>
            <Position>
              <LatitudeDegrees>41.7049462907016277313232421875</LatitudeDegrees>
              <LongitudeDegrees>-0.03374294377863407135009765625</LongitudeDegrees>
            </Position>
            <AltitudeMeters>212.8000030517578125</AltitudeMeters>
            <DistanceMeters>30609.802377144</DistanceMeters>
          </Trackpoint>
          <Trackpoint>
            <Time>2022-04-23T11:13:11.000Z</Time>
            <Position>
              <LatitudeDegrees>41.70491536147892475128173828125</LatitudeDegrees>
              <LongitudeDegrees>-0.0336575321853160858154296875</LongitudeDegrees>
            </Position>
            <AltitudeMeters>212.8000030517578125</AltitudeMeters>
            <DistanceMeters>30617.690166866</DistanceMeters>
          </Trackpoint>
          <Trackpoint>
            <Time>2022-04-23T11:13:15.000Z</Time>
            <Position>
              <LatitudeDegrees>41.7047498188912868499755859375</LatitudeDegrees>
              <LongitudeDegrees>-0.0333490781486034393310546875</LongitudeDegrees>
            </Position>
            <AltitudeMeters>213.1999969482421875</AltitudeMeters>
            <DistanceMeters>30649.256777001</DistanceMeters>
          </Trackpoint>
          <Trackpoint>
            <Time>2022-04-23T11:13:22.000Z</Time>
            <Position>
              <LatitudeDegrees>41.70442099682986736297607421875</LatitudeDegrees>
              <LongitudeDegrees>-0.032835267484188079833984375</LongitudeDegrees>
            </Position>
            <AltitudeMeters>213.399993896484375</AltitudeMeters>
            <DistanceMeters>30705.491881262</DistanceMeters>
          </Trackpoint>
          <Trackpoint>
            <Time>2022-04-23T11:13:23.000Z</Time>
            <Position>
              <LatitudeDegrees>41.7043608985841274261474609375</LatitudeDegrees>
              <LongitudeDegrees>-0.0327725708484649658203125</LongitudeDegrees>
            </Position>
            <AltitudeMeters>213.1999969482421875</AltitudeMeters>
            <DistanceMeters>30713.970053735</DistanceMeters>
          </Trackpoint>
          <Trackpoint>
            <Time>2022-04-23T11:13:24.000Z</Time>
            <Position>
              <LatitudeDegrees>41.70429401099681854248046875</LatitudeDegrees>
              <LongitudeDegrees>-0.0327257998287677764892578125</LongitudeDegrees>
            </Position>
            <AltitudeMeters>213.1999969482421875</AltitudeMeters>
            <DistanceMeters>30722.367964013</DistanceMeters>
          </Trackpoint>
          <Trackpoint>
            <Time>2022-04-23T11:13:26.000Z</Time>
            <Position>
              <LatitudeDegrees>41.70417406596243381500244140625</LatitudeDegrees>
              <LongitudeDegrees>-0.03268648870289325714111328125</LongitudeDegrees>
            </Position>
            <AltitudeMeters>213.1999969482421875</AltitudeMeters>
            <DistanceMeters>30736.111731293</DistanceMeters>
          </Trackpoint>
          <Trackpoint>
            <Time>2022-04-23T11:13:29.000Z</Time>
            <Position>
              <LatitudeDegrees>41.7040309868752956390380859375</LatitudeDegrees>
              <LongitudeDegrees>-0.0326547212898731231689453125</LongitudeDegrees>
            </Position>
            <AltitudeMeters>212.8000030517578125</AltitudeMeters>
            <DistanceMeters>30752.253970477</DistanceMeters>
          </Trackpoint>
          <Trackpoint>
            <Time>2022-04-23T11:13:30.000Z</Time>
            <Position>
              <LatitudeDegrees>41.7039907537400722503662109375</LatitudeDegrees>
              <LongitudeDegrees>-0.0326154939830303192138671875</LongitudeDegrees>
            </Position>
            <AltitudeMeters>212.8000030517578125</AltitudeMeters>
            <DistanceMeters>30757.793302544</DistanceMeters>
          </Trackpoint>
          <Trackpoint>
            <Time>2022-04-23T11:13:31.000Z</Time>
            <Position>
              <LatitudeDegrees>41.70395965687930583953857421875</LatitudeDegrees>
              <LongitudeDegrees>-0.032553970813751220703125</LongitudeDegrees>
            </Position>
            <AltitudeMeters>212.600006103515625</AltitudeMeters>
            <DistanceMeters>30763.967845665</DistanceMeters>
          </Trackpoint>
          <Trackpoint>
            <Time>2022-04-23T11:13:34.000Z</Time>
            <Position>
              <LatitudeDegrees>41.70390031300485134124755859375</LatitudeDegrees>
              <LongitudeDegrees>-0.032355487346649169921875</LongitudeDegrees>
            </Position>
            <AltitudeMeters>212</AltitudeMeters>
            <DistanceMeters>30781.734537877</DistanceMeters>
          </Trackpoint>
          <Trackpoint>
            <Time>2022-04-23T11:13:40.000Z</Time>
            <Position>
              <LatitudeDegrees>41.703788079321384429931640625</LatitudeDegrees>
              <LongitudeDegrees>-0.03192432224750518798828125</LongitudeDegrees>
            </Position>
            <AltitudeMeters>212.1999969482421875</AltitudeMeters>
            <DistanceMeters>30819.67864662</DistanceMeters>
          </Trackpoint>
          <Trackpoint>
            <Time>2022-04-23T11:13:46.000Z</Time>
            <Position>
              <LatitudeDegrees>41.70368506573140621185302734375</LatitudeDegrees>
              <LongitudeDegrees>-0.03159482963383197784423828125</LongitudeDegrees>
            </Position>
            <AltitudeMeters>213.8000030517578125</AltitudeMeters>
            <DistanceMeters>30849.362595131</DistanceMeters>
          </Trackpoint>
          <Trackpoint>
            <Time>2022-04-23T11:13:47.000Z</Time>
            <Position>
              <LatitudeDegrees>41.70366662554442882537841796875</LatitudeDegrees>
              <LongitudeDegrees>-0.0315523333847522735595703125</LongitudeDegrees>
            </Position>
            <AltitudeMeters>213.8000030517578125</AltitudeMeters>
            <DistanceMeters>30853.447638738</DistanceMeters>
          </Trackpoint>
          <Trackpoint>
            <Time>2022-04-23T11:13:52.000Z</Time>
            <Position>
              <LatitudeDegrees>41.7035900987684726715087890625</LatitudeDegrees>
              <LongitudeDegrees>-0.0312854535877704620361328125</LongitudeDegrees>
            </Position>
            <AltitudeMeters>215.399993896484375</AltitudeMeters>
            <DistanceMeters>30877.204127276</DistanceMeters>
          </Trackpoint>
          <Trackpoint>
            <Time>2022-04-23T11:13:53.000Z</Time>
            <Position>
              <LatitudeDegrees>41.7035760171711444854736328125</LatitudeDegrees>
              <LongitudeDegrees>-0.0312257744371891021728515625</LongitudeDegrees>
            </Position>
            <AltitudeMeters>215.600006103515625</AltitudeMeters>
            <DistanceMeters>30882.403747346</DistanceMeters>
          </Trackpoint>
          <Trackpoint>
            <Time>2022-04-23T11:13:54.000Z</Time>
            <Position>
              <LatitudeDegrees>41.7035637795925140380859375</LatitudeDegrees>
              <LongitudeDegrees>-0.03116651438176631927490234375</LongitudeDegrees>
            </Position>
            <AltitudeMeters>216.399993896484375</AltitudeMeters>
            <DistanceMeters>30887.514029244</DistanceMeters>
          </Trackpoint>
          <Trackpoint>
            <Time>2022-04-23T11:13:57.000Z</Time>
            <Position>
              <LatitudeDegrees>41.7035334371030330657958984375</LatitudeDegrees>
              <LongitudeDegrees>-0.0310038216412067413330078125</LongitudeDegrees>
            </Position>
            <AltitudeMeters>217.600006103515625</AltitudeMeters>
            <DistanceMeters>30901.448976817</DistanceMeters>
          </Trackpoint>
          <Trackpoint>
            <Time>2022-04-23T11:14:01.000Z</Time>
            <Position>
              <LatitudeDegrees>41.703466214239597320556640625</LatitudeDegrees>
              <LongitudeDegrees>-0.0307708047330379486083984375</LongitudeDegrees>
            </Position>
            <AltitudeMeters>218.1999969482421875</AltitudeMeters>
            <DistanceMeters>30922.207475026</DistanceMeters>
          </Trackpoint>
          <Trackpoint>
            <Time>2022-04-23T11:14:04.000Z</Time>
            <Position>
              <LatitudeDegrees>41.70339806936681270599365234375</LatitudeDegrees>
              <LongitudeDegrees>-0.03058095462620258331298828125</LongitudeDegrees>
            </Position>
            <AltitudeMeters>218.600006103515625</AltitudeMeters>
            <DistanceMeters>30939.712520415</DistanceMeters>
          </Trackpoint>
          <Trackpoint>
            <Time>2022-04-23T11:14:05.000Z</Time>
            <Position>
              <LatitudeDegrees>41.70336596667766571044921875</LatitudeDegrees>
              <LongitudeDegrees>-0.030519179999828338623046875</LongitudeDegrees>
            </Position>
            <AltitudeMeters>218.8000030517578125</AltitudeMeters>
            <DistanceMeters>30945.966982114</DistanceMeters>
          </Trackpoint>
          <Trackpoint>
            <Time>2022-04-23T11:14:07.000Z</Time>
            <Position>
              <LatitudeDegrees>41.70329312793910503387451171875</LatitudeDegrees>
              <LongitudeDegrees>-0.0304083712399005889892578125</LongitudeDegrees>
            </Position>
            <AltitudeMeters>219</AltitudeMeters>
            <DistanceMeters>30958.235368894</DistanceMeters>
          </Trackpoint>
          <Trackpoint>
            <Time>2022-04-23T11:14:11.000Z</Time>
            <Position>
              <LatitudeDegrees>41.70313487760722637176513671875</LatitudeDegrees>
              <LongitudeDegrees>-0.03022723831236362457275390625</LongitudeDegrees>
            </Position>
            <AltitudeMeters>219</AltitudeMeters>
            <DistanceMeters>30981.403965401</DistanceMeters>
          </Trackpoint>
          <Trackpoint>
            <Time>2022-04-23T11:14:14.000Z</Time>
            <Position>
              <LatitudeDegrees>41.70303664170205593109130859375</LatitudeDegrees>
              <LongitudeDegrees>-0.03010050393640995025634765625</LongitudeDegrees>
            </Position>
            <AltitudeMeters>219.8000030517578125</AltitudeMeters>
            <DistanceMeters>30996.585059269</DistanceMeters>
          </Trackpoint>
          <Trackpoint>
            <Time>2022-04-23T11:14:16.000Z</Time>
            <Position>
              <LatitudeDegrees>41.702978052198886871337890625</LatitudeDegrees>
              <LongitudeDegrees>-0.0299648009240627288818359375</LongitudeDegrees>
            </Position>
            <AltitudeMeters>220.399993896484375</AltitudeMeters>
            <DistanceMeters>31009.611000171</DistanceMeters>
          </Trackpoint>
          <Trackpoint>
            <Time>2022-04-23T11:14:17.000Z</Time>
            <Position>
              <LatitudeDegrees>41.70295315794646739959716796875</LatitudeDegrees>
              <LongitudeDegrees>-0.02987855114042758941650390625</LongitudeDegrees>
            </Position>
            <AltitudeMeters>220.8000030517578125</AltitudeMeters>
            <DistanceMeters>31017.294660743</DistanceMeters>
          </Trackpoint>
          <Trackpoint>
            <Time>2022-04-23T11:14:18.000Z</Time>
            <Position>
              <LatitudeDegrees>41.7029296047985553741455078125</LatitudeDegrees>
              <LongitudeDegrees>-0.0297872722148895263671875</LongitudeDegrees>
            </Position>
            <AltitudeMeters>221</AltitudeMeters>
            <DistanceMeters>31025.319777888</DistanceMeters>
          </Trackpoint>
          <Trackpoint>
            <Time>2022-04-23T11:14:23.000Z</Time>
            <Position>
              <LatitudeDegrees>41.70280161313712596893310546875</LatitudeDegrees>
              <LongitudeDegrees>-0.0292642414569854736328125</LongitudeDegrees>
            </Position>
            <AltitudeMeters>220.399993896484375</AltitudeMeters>
            <DistanceMeters>31071.05794302</DistanceMeters>
          </Trackpoint>
          <Trackpoint>
            <Time>2022-04-23T11:14:24.000Z</Time>
            <Position>
              <LatitudeDegrees>41.70278250239789485931396484375</LatitudeDegrees>
              <LongitudeDegrees>-0.0291463918983936309814453125</LongitudeDegrees>
            </Position>
            <AltitudeMeters>219.600006103515625</AltitudeMeters>
            <DistanceMeters>31081.079545198</DistanceMeters>
          </Trackpoint>
          <Trackpoint>
            <Time>2022-04-23T11:14:25.000Z</Time>
            <Position>
              <LatitudeDegrees>41.7027663253247737884521484375</LatitudeDegrees>
              <LongitudeDegrees>-0.02902409993112087249755859375</LongitudeDegrees>
            </Position>
            <AltitudeMeters>218.600006103515625</AltitudeMeters>
            <DistanceMeters>31091.400338856</DistanceMeters>
          </Trackpoint>
          <Trackpoint>
            <Time>2022-04-23T11:14:27.000Z</Time>
            <Position>
              <LatitudeDegrees>41.70273103751242160797119140625</LatitudeDegrees>
              <LongitudeDegrees>-0.02876778133213520050048828125</LongitudeDegrees>
            </Position>
            <AltitudeMeters>217.1999969482421875</AltitudeMeters>
            <DistanceMeters>31113.059343248</DistanceMeters>
          </Trackpoint>
          <Trackpoint>
            <Time>2022-04-23T11:14:28.000Z</Time>
            <Position>
              <LatitudeDegrees>41.70271821320056915283203125</LatitudeDegrees>
              <LongitudeDegrees>-0.028634928166866302490234375</LongitudeDegrees>
            </Position>
            <AltitudeMeters>217</AltitudeMeters>
            <DistanceMeters>31124.190861966</DistanceMeters>
          </Trackpoint>
          <Trackpoint>
            <Time>2022-04-23T11:14:30.000Z</Time>
            <Position>
              <LatitudeDegrees>41.7027244158089160919189453125</LatitudeDegrees>
              <LongitudeDegrees>-0.0283658690750598907470703125</LongitudeDegrees>
            </Position>
            <AltitudeMeters>216</AltitudeMeters>
            <DistanceMeters>31146.559916392</DistanceMeters>
          </Trackpoint>
          <Trackpoint>
            <Time>2022-04-23T11:14:32.000Z</Time>
            <Position>
              <LatitudeDegrees>41.70275584794580936431884765625</LatitudeDegrees>
              <LongitudeDegrees>-0.028093792498111724853515625</LongitudeDegrees>
            </Position>
            <AltitudeMeters>215</AltitudeMeters>
            <DistanceMeters>31169.438078926</DistanceMeters>
          </Trackpoint>
          <Trackpoint>
            <Time>2022-04-23T11:14:33.000Z</Time>
            <Position>
              <LatitudeDegrees>41.70278183184564113616943359375</LatitudeDegrees>
              <LongitudeDegrees>-0.02796144224703311920166015625</LongitudeDegrees>
            </Position>
            <AltitudeMeters>214.8000030517578125</AltitudeMeters>
            <DistanceMeters>31180.810359033</DistanceMeters>
          </Trackpoint>
          <Trackpoint>
            <Time>2022-04-23T11:14:34.000Z</Time>
            <Position>
              <LatitudeDegrees>41.7028176225721836090087890625</LatitudeDegrees>
              <LongitudeDegrees>-0.027833618223667144775390625</LongitudeDegrees>
            </Position>
            <AltitudeMeters>213.600006103515625</AltitudeMeters>
            <DistanceMeters>31192.154813602</DistanceMeters>
          </Trackpoint>
          <Trackpoint>
            <Time>2022-04-23T11:14:35.000Z</Time>
            <Position>
              <LatitudeDegrees>41.70286095701158046722412109375</LatitudeDegrees>
              <LongitudeDegrees>-0.02770830877125263214111328125</LongitudeDegrees>
            </Position>
            <AltitudeMeters>213.1999969482421875</AltitudeMeters>
            <DistanceMeters>31203.630641889</DistanceMeters>
          </Trackpoint>
          <Trackpoint>
            <Time>2022-04-23T11:14:36.000Z</Time>
            <Position>
              <LatitudeDegrees>41.70290865004062652587890625</LatitudeDegrees>
              <LongitudeDegrees>-0.02758450806140899658203125</LongitudeDegrees>
            </Position>
            <AltitudeMeters>212.600006103515625</AltitudeMeters>
            <DistanceMeters>31215.207142418</DistanceMeters>
          </Trackpoint>
          <Trackpoint>
            <Time>2022-04-23T11:14:39.000Z</Time>
            <Position>
              <LatitudeDegrees>41.70308860950171947479248046875</LatitudeDegrees>
              <LongitudeDegrees>-0.02720036543905735015869140625</LongitudeDegrees>
            </Position>
            <AltitudeMeters>211.1999969482421875</AltitudeMeters>
            <DistanceMeters>31252.892513752</DistanceMeters>
          </Trackpoint>
          <Trackpoint>
            <Time>2022-04-23T11:14:41.000Z</Time>
            <Position>
              <LatitudeDegrees>41.70322825200855731964111328125</LatitudeDegrees>
              <LongitudeDegrees>-0.02693985588848590850830078125</LongitudeDegrees>
            </Position>
            <AltitudeMeters>209.8000030517578125</AltitudeMeters>
            <DistanceMeters>31279.542043807</DistanceMeters>
          </Trackpoint>
          <Trackpoint>
            <Time>2022-04-23T11:14:44.000Z</Time>
            <Position>
              <LatitudeDegrees>41.70339756645262241363525390625</LatitudeDegrees>
              <LongitudeDegrees>-0.026560910046100616455078125</LongitudeDegrees>
            </Position>
            <AltitudeMeters>209</AltitudeMeters>
            <DistanceMeters>31316.239953431</DistanceMeters>
          </Trackpoint>
          <Trackpoint>
            <Time>2022-04-23T11:14:45.000Z</Time>
            <Position>
              <LatitudeDegrees>41.70345020480453968048095703125</LatitudeDegrees>
              <LongitudeDegrees>-0.026444233953952789306640625</LongitudeDegrees>
            </Position>
            <AltitudeMeters>208.600006103515625</AltitudeMeters>
            <DistanceMeters>31327.568477008</DistanceMeters>
          </Trackpoint>
          <Trackpoint>
            <Time>2022-04-23T11:14:48.000Z</Time>
            <Position>
              <LatitudeDegrees>41.70361164025962352752685546875</LatitudeDegrees>
              <LongitudeDegrees>-0.02612027339637279510498046875</LongitudeDegrees>
            </Position>
            <AltitudeMeters>207.399993896484375</AltitudeMeters>
            <DistanceMeters>31359.934525702</DistanceMeters>
          </Trackpoint>
          <Trackpoint>
            <Time>2022-04-23T11:14:51.000Z</Time>
            <Position>
              <LatitudeDegrees>41.7037835530936717987060546875</LatitudeDegrees>
              <LongitudeDegrees>-0.0258201174437999725341796875</LongitudeDegrees>
            </Position>
            <AltitudeMeters>207.1999969482421875</AltitudeMeters>
            <DistanceMeters>31391.370850805</DistanceMeters>
          </Trackpoint>
          <Trackpoint>
            <Time>2022-04-23T11:14:53.000Z</Time>
            <Position>
              <LatitudeDegrees>41.7039159871637821197509765625</LatitudeDegrees>
              <LongitudeDegrees>-0.0256350450217723846435546875</LongitudeDegrees>
            </Position>
            <AltitudeMeters>207.1999969482421875</AltitudeMeters>
            <DistanceMeters>31412.673373229</DistanceMeters>
          </Trackpoint>
          <Trackpoint>
            <Time>2022-04-23T11:14:55.000Z</Time>
            <Position>
              <LatitudeDegrees>41.704076416790485382080078125</LatitudeDegrees>
              <LongitudeDegrees>-0.0255056284368038177490234375</LongitudeDegrees>
            </Position>
            <AltitudeMeters>207.600006103515625</AltitudeMeters>
            <DistanceMeters>31433.517608118</DistanceMeters>
          </Trackpoint>
          <Trackpoint>
            <Time>2022-04-23T11:14:57.000Z</Time>
            <Position>
              <LatitudeDegrees>41.70425654388964176177978515625</LatitudeDegrees>
              <LongitudeDegrees>-0.02547067590057849884033203125</LongitudeDegrees>
            </Position>
            <AltitudeMeters>207.600006103515625</AltitudeMeters>
            <DistanceMeters>31453.775467187</DistanceMeters>
          </Trackpoint>
          <Trackpoint>
            <Time>2022-04-23T11:14:58.000Z</Time>
            <Position>
              <LatitudeDegrees>41.70435427688062191009521484375</LatitudeDegrees>
              <LongitudeDegrees>-0.02547520212829113006591796875</LongitudeDegrees>
            </Position>
            <AltitudeMeters>207.600006103515625</AltitudeMeters>
            <DistanceMeters>31464.65965631</DistanceMeters>
          </Trackpoint>
          <Trackpoint>
            <Time>2022-04-23T11:15:04.000Z</Time>
            <Position>
              <LatitudeDegrees>41.70492910780012607574462890625</LatitudeDegrees>
              <LongitudeDegrees>-0.02548794262111186981201171875</LongitudeDegrees>
            </Position>
            <AltitudeMeters>206.600006103515625</AltitudeMeters>
            <DistanceMeters>31528.648277817</DistanceMeters>
          </Trackpoint>
          <Trackpoint>
            <Time>2022-04-23T11:15:05.000Z</Time>
            <Position>
              <LatitudeDegrees>41.705035306513309478759765625</LatitudeDegrees>
              <LongitudeDegrees>-0.02548995427787303924560546875</LongitudeDegrees>
            </Position>
            <AltitudeMeters>206.600006103515625</AltitudeMeters>
            <DistanceMeters>31540.469845523</DistanceMeters>
          </Trackpoint>
          <Trackpoint>
            <Time>2022-04-23T11:15:11.000Z</Time>
            <Position>
              <LatitudeDegrees>41.70552757568657398223876953125</LatitudeDegrees>
              <LongitudeDegrees>-0.0255183689296245574951171875</LongitudeDegrees>
            </Position>
            <AltitudeMeters>205.600006103515625</AltitudeMeters>
            <DistanceMeters>31595.311375232</DistanceMeters>
          </Trackpoint>
          <Trackpoint>
            <Time>2022-04-23T11:15:13.000Z</Time>
            <Position>
              <LatitudeDegrees>41.7056666314601898193359375</LatitudeDegrees>
              <LongitudeDegrees>-0.0255327858030796051025390625</LongitudeDegrees>
            </Position>
            <AltitudeMeters>205.399993896484375</AltitudeMeters>
            <DistanceMeters>31610.83479689</DistanceMeters>
          </Trackpoint>
          <Trackpoint>
            <Time>2022-04-23T11:15:15.000Z</Time>
            <Position>
              <LatitudeDegrees>41.7057995684444904327392578125</LatitudeDegrees>
              <LongitudeDegrees>-0.02553219906985759735107421875</LongitudeDegrees>
            </Position>
            <AltitudeMeters>204.600006103515625</AltitudeMeters>
            <DistanceMeters>31625.630917101</DistanceMeters>
          </Trackpoint>
          <Trackpoint>
            <Time>2022-04-23T11:15:16.000Z</Time>
            <Position>
              <LatitudeDegrees>41.70585631392896175384521484375</LatitudeDegrees>
              <LongitudeDegrees>-0.02549246884882450103759765625</LongitudeDegrees>
            </Position>
            <AltitudeMeters>204.1999969482421875</AltitudeMeters>
            <DistanceMeters>31632.75728714</DistanceMeters>
          </Trackpoint>
          <Trackpoint>
            <Time>2022-04-23T11:15:17.000Z</Time>
            <Position>
              <LatitudeDegrees>41.7058689706027507781982421875</LatitudeDegrees>
              <LongitudeDegrees>-0.02544569782912731170654296875</LongitudeDegrees>
            </Position>
            <AltitudeMeters>204</AltitudeMeters>
            <DistanceMeters>31636.89067614</DistanceMeters>
          </Trackpoint>
          <Trackpoint>
            <Time>2022-04-23T11:15:18.000Z</Time>
            <Position>
              <LatitudeDegrees>41.70587257482111454010009765625</LatitudeDegrees>
              <LongitudeDegrees>-0.0253777205944061279296875</LongitudeDegrees>
            </Position>
            <AltitudeMeters>204</AltitudeMeters>
            <DistanceMeters>31642.553343485</DistanceMeters>
          </Trackpoint>
          <Trackpoint>
            <Time>2022-04-23T11:15:20.000Z</Time>
            <Position>
              <LatitudeDegrees>41.7058555595576763153076171875</LatitudeDegrees>
              <LongitudeDegrees>-0.02521519549190998077392578125</LongitudeDegrees>
            </Position>
            <AltitudeMeters>203.8000030517578125</AltitudeMeters>
            <DistanceMeters>31656.190587501</DistanceMeters>
          </Trackpoint>
          <Trackpoint>
            <Time>2022-04-23T11:15:22.000Z</Time>
            <Position>
              <LatitudeDegrees>41.705850027501583099365234375</LatitudeDegrees>
              <LongitudeDegrees>-0.02504177391529083251953125</LongitudeDegrees>
            </Position>
            <AltitudeMeters>203.399993896484375</AltitudeMeters>
            <DistanceMeters>31670.614002531</DistanceMeters>
          </Trackpoint>
          <Trackpoint>
            <Time>2022-04-23T11:15:24.000Z</Time>
            <Position>
              <LatitudeDegrees>41.70584474690258502960205078125</LatitudeDegrees>
              <LongitudeDegrees>-0.024808086454868316650390625</LongitudeDegrees>
            </Position>
            <AltitudeMeters>202.8000030517578125</AltitudeMeters>
            <DistanceMeters>31690.04109817</DistanceMeters>
          </Trackpoint>
          <Trackpoint>
            <Time>2022-04-23T11:15:25.000Z</Time>
            <Position>
              <LatitudeDegrees>41.70583116821944713592529296875</LatitudeDegrees>
              <LongitudeDegrees>-0.0246583856642246246337890625</LongitudeDegrees>
            </Position>
            <AltitudeMeters>202.8000030517578125</AltitudeMeters>
            <DistanceMeters>31702.571659578</DistanceMeters>
          </Trackpoint>
          <Trackpoint>
            <Time>2022-04-23T11:15:27.000Z</Time>
            <Position>
              <LatitudeDegrees>41.70580987818539142608642578125</LatitudeDegrees>
              <LongitudeDegrees>-0.02442025579512119293212890625</LongitudeDegrees>
            </Position>
            <AltitudeMeters>200.8000030517578125</AltitudeMeters>
            <DistanceMeters>31722.500553731</DistanceMeters>
          </Trackpoint>
          <Trackpoint>
            <Time>2022-04-23T11:15:29.000Z</Time>
            <Position>
              <LatitudeDegrees>41.70580736361443996429443359375</LatitudeDegrees>
              <LongitudeDegrees>-0.02412856556475162506103515625</LongitudeDegrees>
            </Position>
            <AltitudeMeters>199.600006103515625</AltitudeMeters>
            <DistanceMeters>31746.740004094</DistanceMeters>
          </Trackpoint>
          <Trackpoint>
            <Time>2022-04-23T11:15:30.000Z</Time>
            <Position>
              <LatitudeDegrees>41.70582597143948078155517578125</LatitudeDegrees>
              <LongitudeDegrees>-0.02399839460849761962890625</LongitudeDegrees>
            </Position>
            <AltitudeMeters>199.600006103515625</AltitudeMeters>
            <DistanceMeters>31757.75367818</DistanceMeters>
          </Trackpoint>
          <Trackpoint>
            <Time>2022-04-23T11:15:32.000Z</Time>
            <Position>
              <LatitudeDegrees>41.70587291009724140167236328125</LatitudeDegrees>
              <LongitudeDegrees>-0.023742578923702239990234375</LongitudeDegrees>
            </Position>
            <AltitudeMeters>198.8000030517578125</AltitudeMeters>
            <DistanceMeters>31779.643262833</DistanceMeters>
          </Trackpoint>
          <Trackpoint>
            <Time>2022-04-23T11:15:35.000Z</Time>
            <Position>
              <LatitudeDegrees>41.70589973218739032745361328125</LatitudeDegrees>
              <LongitudeDegrees>-0.0233937241137027740478515625</LongitudeDegrees>
            </Position>
            <AltitudeMeters>198.1999969482421875</AltitudeMeters>
            <DistanceMeters>31808.784564777</DistanceMeters>
          </Trackpoint>
          <Trackpoint>
            <Time>2022-04-23T11:15:37.000Z</Time>
            <Position>
              <LatitudeDegrees>41.7058622650802135467529296875</LatitudeDegrees>
              <LongitudeDegrees>-0.02317202277481555938720703125</LongitudeDegrees>
            </Position>
            <AltitudeMeters>198</AltitudeMeters>
            <DistanceMeters>31827.67266315</DistanceMeters>
          </Trackpoint>
          <Trackpoint>
            <Time>2022-04-23T11:15:38.000Z</Time>
            <Position>
              <LatitudeDegrees>41.70581725426018238067626953125</LatitudeDegrees>
              <LongitudeDegrees>-0.02305031754076480865478515625</LongitudeDegrees>
            </Position>
            <AltitudeMeters>197.8000030517578125</AltitudeMeters>
            <DistanceMeters>31838.958860841</DistanceMeters>
          </Trackpoint>
          <Trackpoint>
            <Time>2022-04-23T11:15:39.000Z</Time>
            <Position>
              <LatitudeDegrees>41.705769561231136322021484375</LatitudeDegrees>
              <LongitudeDegrees>-0.02295560203492641448974609375</LongitudeDegrees>
            </Position>
            <AltitudeMeters>197.8000030517578125</AltitudeMeters>
            <DistanceMeters>31848.452024851</DistanceMeters>
          </Trackpoint>
          <Trackpoint>
            <Time>2022-04-23T11:15:40.000Z</Time>
            <Position>
              <LatitudeDegrees>41.705727986991405487060546875</LatitudeDegrees>
              <LongitudeDegrees>-0.02288385294377803802490234375</LongitudeDegrees>
            </Position>
            <AltitudeMeters>197.600006103515625</AltitudeMeters>
            <DistanceMeters>31855.999323852</DistanceMeters>
          </Trackpoint>
          <Trackpoint>
            <Time>2022-04-23T11:15:41.000Z</Time>
            <Position>
              <LatitudeDegrees>41.70568473637104034423828125</LatitudeDegrees>
              <LongitudeDegrees>-0.0227905623614788055419921875</LongitudeDegrees>
            </Position>
            <AltitudeMeters>197.600006103515625</AltitudeMeters>
            <DistanceMeters>31865.12436275</DistanceMeters>
          </Trackpoint>
          <Trackpoint>
            <Time>2022-04-23T11:15:42.000Z</Time>
            <Position>
              <LatitudeDegrees>41.7056520469486713409423828125</LatitudeDegrees>
              <LongitudeDegrees>-0.02267028205096721649169921875</LongitudeDegrees>
            </Position>
            <AltitudeMeters>197.600006103515625</AltitudeMeters>
            <DistanceMeters>31875.760564971</DistanceMeters>
          </Trackpoint>
          <Trackpoint>
            <Time>2022-04-23T11:15:46.000Z</Time>
            <Position>
              <LatitudeDegrees>41.70560016296803951263427734375</LatitudeDegrees>
              <LongitudeDegrees>-0.0222623348236083984375</LongitudeDegrees>
            </Position>
            <AltitudeMeters>197.1999969482421875</AltitudeMeters>
            <DistanceMeters>31910.147370435</DistanceMeters>
          </Trackpoint>
          <Trackpoint>
            <Time>2022-04-23T11:15:47.000Z</Time>
            <Position>
              <LatitudeDegrees>41.7056064493954181671142578125</LatitudeDegrees>
              <LongitudeDegrees>-0.02213467843830585479736328125</LongitudeDegrees>
            </Position>
            <AltitudeMeters>197</AltitudeMeters>
            <DistanceMeters>31920.778477469</DistanceMeters>
          </Trackpoint>
          <Trackpoint>
            <Time>2022-04-23T11:15:50.000Z</Time>
            <Position>
              <LatitudeDegrees>41.705644838511943817138671875</LatitudeDegrees>
              <LongitudeDegrees>-0.021846927702426910400390625</LongitudeDegrees>
            </Position>
            <AltitudeMeters>196.399993896484375</AltitudeMeters>
            <DistanceMeters>31945.068168174</DistanceMeters>
          </Trackpoint>
          <Trackpoint>
            <Time>2022-04-23T11:15:53.000Z</Time>
            <Position>
              <LatitudeDegrees>41.70570979826152324676513671875</LatitudeDegrees>
              <LongitudeDegrees>-0.02153872512280941009521484375</LongitudeDegrees>
            </Position>
            <AltitudeMeters>196</AltitudeMeters>
            <DistanceMeters>31971.679381128</DistanceMeters>
          </Trackpoint>
          <Trackpoint>
            <Time>2022-04-23T11:15:54.000Z</Time>
            <Position>
              <LatitudeDegrees>41.705723293125629425048828125</LatitudeDegrees>
              <LongitudeDegrees>-0.02143462188541889190673828125</LongitudeDegrees>
            </Position>
            <AltitudeMeters>196</AltitudeMeters>
            <DistanceMeters>31980.458944473</DistanceMeters>
          </Trackpoint>
          <Trackpoint>
            <Time>2022-04-23T11:15:57.000Z</Time>
            <Position>
              <LatitudeDegrees>41.7057345248758792877197265625</LatitudeDegrees>
              <LongitudeDegrees>-0.02108844928443431854248046875</LongitudeDegrees>
            </Position>
            <AltitudeMeters>195.8000030517578125</AltitudeMeters>
            <DistanceMeters>32009.251254868</DistanceMeters>
          </Trackpoint>
          <Trackpoint>
            <Time>2022-04-23T11:16:04.000Z</Time>
            <Position>
              <LatitudeDegrees>41.70567744411528110504150390625</LatitudeDegrees>
              <LongitudeDegrees>-0.0203520990908145904541015625</LongitudeDegrees>
            </Position>
            <AltitudeMeters>195.600006103515625</AltitudeMeters>
            <DistanceMeters>32070.767163746</DistanceMeters>
          </Trackpoint>
          <Trackpoint>
            <Time>2022-04-23T11:16:05.000Z</Time>
            <Position>
              <LatitudeDegrees>41.7056639492511749267578125</LatitudeDegrees>
              <LongitudeDegrees>-0.02024405635893344879150390625</LongitudeDegrees>
            </Position>
            <AltitudeMeters>195.600006103515625</AltitudeMeters>
            <DistanceMeters>32079.869909566</DistanceMeters>
          </Trackpoint>
          <Trackpoint>
            <Time>2022-04-23T11:16:08.000Z</Time>
            <Position>
              <LatitudeDegrees>41.7056232132017612457275390625</LatitudeDegrees>
              <LongitudeDegrees>-0.01992789097130298614501953125</LongitudeDegrees>
            </Position>
            <AltitudeMeters>195.600006103515625</AltitudeMeters>
            <DistanceMeters>32106.529941766</DistanceMeters>
          </Trackpoint>
          <Trackpoint>
            <Time>2022-04-23T11:16:10.000Z</Time>
            <Position>
              <LatitudeDegrees>41.70563302002847194671630859375</LatitudeDegrees>
              <LongitudeDegrees>-0.0197263062000274658203125</LongitudeDegrees>
            </Position>
            <AltitudeMeters>195.600006103515625</AltitudeMeters>
            <DistanceMeters>32123.316082041</DistanceMeters>
          </Trackpoint>
          <Trackpoint>
            <Time>2022-04-23T11:16:12.000Z</Time>
            <Position>
              <LatitudeDegrees>41.7056865803897380828857421875</LatitudeDegrees>
              <LongitudeDegrees>-0.01953964121639728546142578125</LongitudeDegrees>
            </Position>
            <AltitudeMeters>195.600006103515625</AltitudeMeters>
            <DistanceMeters>32139.932991426</DistanceMeters>
          </Trackpoint>
          <Trackpoint>
            <Time>2022-04-23T11:16:14.000Z</Time>
            <Position>
              <LatitudeDegrees>41.7057415656745433807373046875</LatitudeDegrees>
              <LongitudeDegrees>-0.01935540698468685150146484375</LongitudeDegrees>
            </Position>
            <AltitudeMeters>195.600006103515625</AltitudeMeters>
            <DistanceMeters>32156.420057906</DistanceMeters>
          </Trackpoint>
          <Trackpoint>
            <Time>2022-04-23T11:16:15.000Z</Time>
            <Position>
              <LatitudeDegrees>41.7057593353092670440673828125</LatitudeDegrees>
              <LongitudeDegrees>-0.0192570872604846954345703125</LongitudeDegrees>
            </Position>
            <AltitudeMeters>195.600006103515625</AltitudeMeters>
            <DistanceMeters>32164.826565995</DistanceMeters>
          </Trackpoint>
          <Trackpoint>
            <Time>2022-04-23T11:16:17.000Z</Time>
            <Position>
              <LatitudeDegrees>41.70577249489724636077880859375</LatitudeDegrees>
              <LongitudeDegrees>-0.0190569274127483367919921875</LongitudeDegrees>
            </Position>
            <AltitudeMeters>195.1999969482421875</AltitudeMeters>
            <DistanceMeters>32181.523438459</DistanceMeters>
          </Trackpoint>
          <Trackpoint>
            <Time>2022-04-23T11:16:18.000Z</Time>
            <Position>
              <LatitudeDegrees>41.70577366836369037628173828125</LatitudeDegrees>
              <LongitudeDegrees>-0.0189576856791973114013671875</LongitudeDegrees>
            </Position>
            <AltitudeMeters>195</AltitudeMeters>
            <DistanceMeters>32189.770531024</DistanceMeters>
          </Trackpoint>
          <Trackpoint>
            <Time>2022-04-23T11:16:19.000Z</Time>
            <Position>
              <LatitudeDegrees>41.7057710699737071990966796875</LatitudeDegrees>
              <LongitudeDegrees>-0.01885701902210712432861328125</LongitudeDegrees>
            </Position>
            <AltitudeMeters>194.8000030517578125</AltitudeMeters>
            <DistanceMeters>32198.140437418</DistanceMeters>
          </Trackpoint>
          <Trackpoint>
            <Time>2022-04-23T11:16:25.000Z</Time>
            <Position>
              <LatitudeDegrees>41.705765537917613983154296875</LatitudeDegrees>
              <LongitudeDegrees>-0.01824581064283847808837890625</LongitudeDegrees>
            </Position>
            <AltitudeMeters>194.600006103515625</AltitudeMeters>
            <DistanceMeters>32248.932460704</DistanceMeters>
          </Trackpoint>
          <Trackpoint>
            <Time>2022-04-23T11:16:26.000Z</Time>
            <Position>
              <LatitudeDegrees>41.7057801224291324615478515625</LatitudeDegrees>
              <LongitudeDegrees>-0.0181491672992706298828125</LongitudeDegrees>
            </Position>
            <AltitudeMeters>194.600006103515625</AltitudeMeters>
            <DistanceMeters>32257.125725517</DistanceMeters>
          </Trackpoint>
          <Trackpoint>
            <Time>2022-04-23T11:16:30.000Z</Time>
            <Position>
              <LatitudeDegrees>41.70586637221276760101318359375</LatitudeDegrees>
              <LongitudeDegrees>-0.01778078265488147735595703125</LongitudeDegrees>
            </Position>
            <AltitudeMeters>194.1999969482421875</AltitudeMeters>
            <DistanceMeters>32289.206637326</DistanceMeters>
          </Trackpoint>
          <Trackpoint>
            <Time>2022-04-23T11:16:33.000Z</Time>
            <Position>
              <LatitudeDegrees>41.70591498725116252899169921875</LatitudeDegrees>
              <LongitudeDegrees>-0.01749730668962001800537109375</LongitudeDegrees>
            </Position>
            <AltitudeMeters>194.1999969482421875</AltitudeMeters>
            <DistanceMeters>32313.37557576</DistanceMeters>
          </Trackpoint>
          <Trackpoint>
            <Time>2022-04-23T11:16:35.000Z</Time>
            <Position>
              <LatitudeDegrees>41.70591867528855800628662109375</LatitudeDegrees>
              <LongitudeDegrees>-0.01729295589029788970947265625</LongitudeDegrees>
            </Position>
            <AltitudeMeters>193.8000030517578125</AltitudeMeters>
            <DistanceMeters>32330.360653983</DistanceMeters>
          </Trackpoint>
          <Trackpoint>
            <Time>2022-04-23T11:16:42.000Z</Time>
            <Position>
              <LatitudeDegrees>41.70584374107420444488525390625</LatitudeDegrees>
              <LongitudeDegrees>-0.016603209078311920166015625</LongitudeDegrees>
            </Position>
            <AltitudeMeters>194.1999969482421875</AltitudeMeters>
            <DistanceMeters>32388.278637351</DistanceMeters>
          </Trackpoint>
          <Trackpoint>
            <Time>2022-04-23T11:16:46.000Z</Time>
            <Position>
              <LatitudeDegrees>41.70578171499073505401611328125</LatitudeDegrees>
              <LongitudeDegrees>-0.0162327289581298828125</LongitudeDegrees>
            </Position>
            <AltitudeMeters>193.8000030517578125</AltitudeMeters>
            <DistanceMeters>32419.828078967</DistanceMeters>
          </Trackpoint>
          <Trackpoint>
            <Time>2022-04-23T11:16:48.000Z</Time>
            <Position>
              <LatitudeDegrees>41.70573259703814983367919921875</LatitudeDegrees>
              <LongitudeDegrees>-0.016056708991527557373046875</LongitudeDegrees>
            </Position>
            <AltitudeMeters>193.8000030517578125</AltitudeMeters>
            <DistanceMeters>32435.442561474</DistanceMeters>
          </Trackpoint>
          <Trackpoint>
            <Time>2022-04-23T11:16:52.000Z</Time>
            <Position>
              <LatitudeDegrees>41.70569202862679958343505859375</LatitudeDegrees>
              <LongitudeDegrees>-0.01568765379488468170166015625</LongitudeDegrees>
            </Position>
            <AltitudeMeters>193.600006103515625</AltitudeMeters>
            <DistanceMeters>32466.439920296</DistanceMeters>
          </Trackpoint>
          <Trackpoint>
            <Time>2022-04-23T11:16:53.000Z</Time>
            <Position>
              <LatitudeDegrees>41.705692447721958160400390625</LatitudeDegrees>
              <LongitudeDegrees>-0.01559394411742687225341796875</LongitudeDegrees>
            </Position>
            <AltitudeMeters>193.600006103515625</AltitudeMeters>
            <DistanceMeters>32474.226894248</DistanceMeters>
          </Trackpoint>
          <Trackpoint>
            <Time>2022-04-23T11:16:54.000Z</Time>
            <Position>
              <LatitudeDegrees>41.7056988179683685302734375</LatitudeDegrees>
              <LongitudeDegrees>-0.0155026651918888092041015625</LongitudeDegrees>
            </Position>
            <AltitudeMeters>193.600006103515625</AltitudeMeters>
            <DistanceMeters>32481.844457587</DistanceMeters>
          </Trackpoint>
          <Trackpoint>
            <Time>2022-04-23T11:16:57.000Z</Time>
            <Position>
              <LatitudeDegrees>41.7057670466601848602294921875</LatitudeDegrees>
              <LongitudeDegrees>-0.0152418203651905059814453125</LongitudeDegrees>
            </Position>
            <AltitudeMeters>193.8000030517578125</AltitudeMeters>
            <DistanceMeters>32504.811059975</DistanceMeters>
          </Trackpoint>
          <Trackpoint>
            <Time>2022-04-23T11:16:59.000Z</Time>
            <Position>
              <LatitudeDegrees>41.7058384604752063751220703125</LatitudeDegrees>
              <LongitudeDegrees>-0.01507963053882122039794921875</LongitudeDegrees>
            </Position>
            <AltitudeMeters>193.8000030517578125</AltitudeMeters>
            <DistanceMeters>32520.457605999</DistanceMeters>
          </Trackpoint>
          <Trackpoint>
            <Time>2022-04-23T11:17:02.000Z</Time>
            <Position>
              <LatitudeDegrees>41.70596343465149402618408203125</LatitudeDegrees>
              <LongitudeDegrees>-0.0148642994463443756103515625</LongitudeDegrees>
            </Position>
            <AltitudeMeters>193.8000030517578125</AltitudeMeters>
            <DistanceMeters>32543.121228353</DistanceMeters>
          </Trackpoint>
          <Trackpoint>
            <Time>2022-04-23T11:17:03.000Z</Time>
            <Position>
              <LatitudeDegrees>41.70598975382745265960693359375</LatitudeDegrees>
              <LongitudeDegrees>-0.01479380764067173004150390625</LongitudeDegrees>
            </Position>
            <AltitudeMeters>194</AltitudeMeters>
            <DistanceMeters>32549.670492671</DistanceMeters>
          </Trackpoint>
          <Trackpoint>
            <Time>2022-04-23T11:17:06.000Z</Time>
            <Position>
              <LatitudeDegrees>41.706053204834461212158203125</LatitudeDegrees>
              <LongitudeDegrees>-0.0145581923425197601318359375</LongitudeDegrees>
            </Position>
            <AltitudeMeters>194</AltitudeMeters>
            <DistanceMeters>32570.483512565</DistanceMeters>
          </Trackpoint>
          <Trackpoint>
            <Time>2022-04-23T11:17:10.000Z</Time>
            <Position>
              <LatitudeDegrees>41.7061365209519863128662109375</LatitudeDegrees>
              <LongitudeDegrees>-0.01426021568477153778076171875</LongitudeDegrees>
            </Position>
            <AltitudeMeters>194.399993896484375</AltitudeMeters>
            <DistanceMeters>32596.9231483</DistanceMeters>
          </Trackpoint>
          <Trackpoint>
            <Time>2022-04-23T11:17:11.000Z</Time>
            <Position>
              <LatitudeDegrees>41.70614984817802906036376953125</LatitudeDegrees>
              <LongitudeDegrees>-0.01418511383235454559326171875</LongitudeDegrees>
            </Position>
            <AltitudeMeters>194.399993896484375</AltitudeMeters>
            <DistanceMeters>32603.337979425</DistanceMeters>
          </Trackpoint>
          <Trackpoint>
            <Time>2022-04-23T11:17:12.000Z</Time>
            <Position>
              <LatitudeDegrees>41.706161163747310638427734375</LatitudeDegrees>
              <LongitudeDegrees>-0.014104731380939483642578125</LongitudeDegrees>
            </Position>
            <AltitudeMeters>194.399993896484375</AltitudeMeters>
            <DistanceMeters>32610.134881005</DistanceMeters>
          </Trackpoint>
          <Trackpoint>
            <Time>2022-04-23T11:17:16.000Z</Time>
            <Position>
              <LatitudeDegrees>41.70617499388754367828369140625</LatitudeDegrees>
              <LongitudeDegrees>-0.01379015855491161346435546875</LongitudeDegrees>
            </Position>
            <AltitudeMeters>194.8000030517578125</AltitudeMeters>
            <DistanceMeters>32636.319526205</DistanceMeters>
          </Trackpoint>
          <Trackpoint>
            <Time>2022-04-23T11:17:18.000Z</Time>
            <Position>
              <LatitudeDegrees>41.70618035830557346343994140625</LatitudeDegrees>
              <LongitudeDegrees>-0.01362788490951061248779296875</LongitudeDegrees>
            </Position>
            <AltitudeMeters>194.8000030517578125</AltitudeMeters>
            <DistanceMeters>32649.816665241</DistanceMeters>
          </Trackpoint>
          <Trackpoint>
            <Time>2022-04-23T11:17:20.000Z</Time>
            <Position>
              <LatitudeDegrees>41.706191003322601318359375</LatitudeDegrees>
              <LongitudeDegrees>-0.01345035620033740997314453125</LongitudeDegrees>
            </Position>
            <AltitudeMeters>194.8000030517578125</AltitudeMeters>
            <DistanceMeters>32664.61583664</DistanceMeters>
          </Trackpoint>
          <Trackpoint>
            <Time>2022-04-23T11:17:25.000Z</Time>
            <Position>
              <LatitudeDegrees>41.70620416291058063507080078125</LatitudeDegrees>
              <LongitudeDegrees>-0.01297828741371631622314453125</LongitudeDegrees>
            </Position>
            <AltitudeMeters>195.1999969482421875</AltitudeMeters>
            <DistanceMeters>32703.869346851</DistanceMeters>
          </Trackpoint>
          <Trackpoint>
            <Time>2022-04-23T11:17:27.000Z</Time>
            <Position>
              <LatitudeDegrees>41.7062277160584926605224609375</LatitudeDegrees>
              <LongitudeDegrees>-0.012807883322238922119140625</LongitudeDegrees>
            </Position>
            <AltitudeMeters>195.1999969482421875</AltitudeMeters>
            <DistanceMeters>32718.269265093</DistanceMeters>
          </Trackpoint>
          <Trackpoint>
            <Time>2022-04-23T11:17:30.000Z</Time>
            <Position>
              <LatitudeDegrees>41.70628814958035945892333984375</LatitudeDegrees>
              <LongitudeDegrees>-0.01251443289220333099365234375</LongitudeDegrees>
            </Position>
            <AltitudeMeters>195.1999969482421875</AltitudeMeters>
            <DistanceMeters>32743.56386998</DistanceMeters>
          </Trackpoint>
          <Trackpoint>
            <Time>2022-04-23T11:17:35.000Z</Time>
            <Position>
              <LatitudeDegrees>41.70638102106750011444091796875</LatitudeDegrees>
              <LongitudeDegrees>-0.0120362453162670135498046875</LongitudeDegrees>
            </Position>
            <AltitudeMeters>195</AltitudeMeters>
            <DistanceMeters>32784.620909451</DistanceMeters>
          </Trackpoint>
          <Trackpoint>
            <Time>2022-04-23T11:17:41.000Z</Time>
            <Position>
              <LatitudeDegrees>41.70656508766114711761474609375</LatitudeDegrees>
              <LongitudeDegrees>-0.01150332391262054443359375</LongitudeDegrees>
            </Position>
            <AltitudeMeters>194.399993896484375</AltitudeMeters>
            <DistanceMeters>32833.412847651</DistanceMeters>
          </Trackpoint>
          <Trackpoint>
            <Time>2022-04-23T11:17:45.000Z</Time>
            <Position>
              <LatitudeDegrees>41.7067108489573001861572265625</LatitudeDegrees>
              <LongitudeDegrees>-0.01115120016038417816162109375</LongitudeDegrees>
            </Position>
            <AltitudeMeters>194</AltitudeMeters>
            <DistanceMeters>32866.868999485</DistanceMeters>
          </Trackpoint>
          <Trackpoint>
            <Time>2022-04-23T11:17:49.000Z</Time>
            <Position>
              <LatitudeDegrees>41.70685241930186748504638671875</LatitudeDegrees>
              <LongitudeDegrees>-0.0108104757964611053466796875</LongitudeDegrees>
            </Position>
            <AltitudeMeters>193.600006103515625</AltitudeMeters>
            <DistanceMeters>32899.270461606</DistanceMeters>
          </Trackpoint>
          <Trackpoint>
            <Time>2022-04-23T11:17:53.000Z</Time>
            <Position>
              <LatitudeDegrees>41.70699776150286197662353515625</LatitudeDegrees>
              <LongitudeDegrees>-0.01048869453370571136474609375</LongitudeDegrees>
            </Position>
            <AltitudeMeters>193.1999969482421875</AltitudeMeters>
            <DistanceMeters>32930.521105878</DistanceMeters>
          </Trackpoint>
          <Trackpoint>
            <Time>2022-04-23T11:17:54.000Z</Time>
            <Position>
              <LatitudeDegrees>41.70703028328716754913330078125</LatitudeDegrees>
              <LongitudeDegrees>-0.01040403731167316436767578125</LongitudeDegrees>
            </Position>
            <AltitudeMeters>193.1999969482421875</AltitudeMeters>
            <DistanceMeters>32938.432900232</DistanceMeters>
          </Trackpoint>
          <Trackpoint>
            <Time>2022-04-23T11:17:58.000Z</Time>
            <Position>
              <LatitudeDegrees>41.70715165324509143829345703125</LatitudeDegrees>
              <LongitudeDegrees>-0.010047890245914459228515625</LongitudeDegrees>
            </Position>
            <AltitudeMeters>193</AltitudeMeters>
            <DistanceMeters>32970.963696697</DistanceMeters>
          </Trackpoint>
          <Trackpoint>
            <Time>2022-04-23T11:18:00.000Z</Time>
            <Position>
              <LatitudeDegrees>41.70722155831754207611083984375</LatitudeDegrees>
              <LongitudeDegrees>-0.00986994244158267974853515625</LongitudeDegrees>
            </Position>
            <AltitudeMeters>193</AltitudeMeters>
            <DistanceMeters>32987.672192839</DistanceMeters>
          </Trackpoint>
          <Trackpoint>
            <Time>2022-04-23T11:18:07.000Z</Time>
            <Position>
              <LatitudeDegrees>41.70746429823338985443115234375</LatitudeDegrees>
              <LongitudeDegrees>-0.0092256255447864532470703125</LongitudeDegrees>
            </Position>
            <AltitudeMeters>192.399993896484375</AltitudeMeters>
            <DistanceMeters>33047.641127249</DistanceMeters>
          </Trackpoint>
          <Trackpoint>
            <Time>2022-04-23T11:18:12.000Z</Time>
            <Position>
              <LatitudeDegrees>41.707575358450412750244140625</LatitudeDegrees>
              <LongitudeDegrees>-0.00873402692377567291259765625</LongitudeDegrees>
            </Position>
            <AltitudeMeters>192.399993896484375</AltitudeMeters>
            <DistanceMeters>33090.318808523</DistanceMeters>
          </Trackpoint>
          <Trackpoint>
            <Time>2022-04-23T11:18:14.000Z</Time>
            <Position>
              <LatitudeDegrees>41.707598827779293060302734375</LatitudeDegrees>
              <LongitudeDegrees>-0.0085305981338024139404296875</LongitudeDegrees>
            </Position>
            <AltitudeMeters>192.399993896484375</AltitudeMeters>
            <DistanceMeters>33107.423089175</DistanceMeters>
          </Trackpoint>
          <Trackpoint>
            <Time>2022-04-23T11:18:17.000Z</Time>
            <Position>
              <LatitudeDegrees>41.7076080478727817535400390625</LatitudeDegrees>
              <LongitudeDegrees>-0.0082335434854030609130859375</LongitudeDegrees>
            </Position>
            <AltitudeMeters>192.600006103515625</AltitudeMeters>
            <DistanceMeters>33132.127476367</DistanceMeters>
          </Trackpoint>
          <Trackpoint>
            <Time>2022-04-23T11:18:18.000Z</Time>
            <Position>
              <LatitudeDegrees>41.70761601068079471588134765625</LatitudeDegrees>
              <LongitudeDegrees>-0.00813572667539119720458984375</LongitudeDegrees>
            </Position>
            <AltitudeMeters>192.600006103515625</AltitudeMeters>
            <DistanceMeters>33140.304192456</DistanceMeters>
          </Trackpoint>
          <Trackpoint>
            <Time>2022-04-23T11:18:19.000Z</Time>
            <Position>
              <LatitudeDegrees>41.70763067901134490966796875</LatitudeDegrees>
              <LongitudeDegrees>-0.00803464092314243316650390625</LongitudeDegrees>
            </Position>
            <AltitudeMeters>193</AltitudeMeters>
            <DistanceMeters>33148.861874382</DistanceMeters>
          </Trackpoint>
          <Trackpoint>
            <Time>2022-04-23T11:18:24.000Z</Time>
            <Position>
              <LatitudeDegrees>41.7077171802520751953125</LatitudeDegrees>
              <LongitudeDegrees>-0.0075544416904449462890625</LongitudeDegrees>
            </Position>
            <AltitudeMeters>193.600006103515625</AltitudeMeters>
            <DistanceMeters>33189.907915391</DistanceMeters>
          </Trackpoint>
          <Trackpoint>
            <Time>2022-04-23T11:18:27.000Z</Time>
            <Position>
              <LatitudeDegrees>41.7077830620110034942626953125</LatitudeDegrees>
              <LongitudeDegrees>-0.007261745631694793701171875</LongitudeDegrees>
            </Position>
            <AltitudeMeters>193.600006103515625</AltitudeMeters>
            <DistanceMeters>33215.310104323</DistanceMeters>
          </Trackpoint>
          <Trackpoint>
            <Time>2022-04-23T11:18:30.000Z</Time>
            <Position>
              <LatitudeDegrees>41.7078392207622528076171875</LatitudeDegrees>
              <LongitudeDegrees>-0.00697550363838672637939453125</LongitudeDegrees>
            </Position>
            <AltitudeMeters>193.600006103515625</AltitudeMeters>
            <DistanceMeters>33239.902019246</DistanceMeters>
          </Trackpoint>
          <Trackpoint>
            <Time>2022-04-23T11:18:37.000Z</Time>
            <Position>
              <LatitudeDegrees>41.70803108252584934234619140625</LatitudeDegrees>
              <LongitudeDegrees>-0.0062976591289043426513671875</LongitudeDegrees>
            </Position>
            <AltitudeMeters>192.399993896484375</AltitudeMeters>
            <DistanceMeters>33300.13786369</DistanceMeters>
          </Trackpoint>
          <Trackpoint>
            <Time>2022-04-23T11:18:38.000Z</Time>
            <Position>
              <LatitudeDegrees>41.708053462207317352294921875</LatitudeDegrees>
              <LongitudeDegrees>-0.00619850121438503265380859375</LongitudeDegrees>
            </Position>
            <AltitudeMeters>192.399993896484375</AltitudeMeters>
            <DistanceMeters>33308.745521746</DistanceMeters>
          </Trackpoint>
          <Trackpoint>
            <Time>2022-04-23T11:18:43.000Z</Time>
            <Position>
              <LatitudeDegrees>41.70810568146407604217529296875</LatitudeDegrees>
              <LongitudeDegrees>-0.00566415488719940185546875</LongitudeDegrees>
            </Position>
            <AltitudeMeters>192</AltitudeMeters>
            <DistanceMeters>33353.524182673</DistanceMeters>
          </Trackpoint>
          <Trackpoint>
            <Time>2022-04-23T11:18:48.000Z</Time>
            <Position>
              <LatitudeDegrees>41.70818916521966457366943359375</LatitudeDegrees>
              <LongitudeDegrees>-0.00514120794832706451416015625</LongitudeDegrees>
            </Position>
            <AltitudeMeters>192.1999969482421875</AltitudeMeters>
            <DistanceMeters>33397.959105142</DistanceMeters>
          </Trackpoint>
          <Trackpoint>
            <Time>2022-04-23T11:18:51.000Z</Time>
            <Position>
              <LatitudeDegrees>41.7082799412310123443603515625</LatitudeDegrees>
              <LongitudeDegrees>-0.0048281438648700714111328125</LongitudeDegrees>
            </Position>
            <AltitudeMeters>192.399993896484375</AltitudeMeters>
            <DistanceMeters>33425.865265618</DistanceMeters>
          </Trackpoint>
          <Trackpoint>
            <Time>2022-04-23T11:18:54.000Z</Time>
            <Position>
              <LatitudeDegrees>41.7083761654794216156005859375</LatitudeDegrees>
              <LongitudeDegrees>-0.004558078944683074951171875</LongitudeDegrees>
            </Position>
            <AltitudeMeters>192.399993896484375</AltitudeMeters>
            <DistanceMeters>33450.730326928</DistanceMeters>
          </Trackpoint>
          <Trackpoint>
            <Time>2022-04-23T11:18:59.000Z</Time>
            <Position>
              <LatitudeDegrees>41.7085096053779125213623046875</LatitudeDegrees>
              <LongitudeDegrees>-0.004051141440868377685546875</LongitudeDegrees>
            </Position>
            <AltitudeMeters>192.399993896484375</AltitudeMeters>
            <DistanceMeters>33495.394196862</DistanceMeters>
          </Trackpoint>
          <Trackpoint>
            <Time>2022-04-23T11:19:01.000Z</Time>
            <Position>
              <LatitudeDegrees>41.70854304917156696319580078125</LatitudeDegrees>
              <LongitudeDegrees>-0.003848969936370849609375</LongitudeDegrees>
            </Position>
            <AltitudeMeters>192.399993896484375</AltitudeMeters>
            <DistanceMeters>33512.600331123</DistanceMeters>
          </Trackpoint>
          <Trackpoint>
            <Time>2022-04-23T11:19:04.000Z</Time>
            <Position>
              <LatitudeDegrees>41.70856702141463756561279296875</LatitudeDegrees>
              <LongitudeDegrees>-0.003540180623531341552734375</LongitudeDegrees>
            </Position>
            <AltitudeMeters>192.399993896484375</AltitudeMeters>
            <DistanceMeters>33538.396540017</DistanceMeters>
          </Trackpoint>
          <Trackpoint>
            <Time>2022-04-23T11:19:05.000Z</Time>
            <Position>
              <LatitudeDegrees>41.70858018100261688232421875</LatitudeDegrees>
              <LongitudeDegrees>-0.00344739295542240142822265625</LongitudeDegrees>
            </Position>
            <AltitudeMeters>192.399993896484375</AltitudeMeters>
            <DistanceMeters>33546.24415885</DistanceMeters>
          </Trackpoint>
          <Trackpoint>
            <Time>2022-04-23T11:19:08.000Z</Time>
            <Position>
              <LatitudeDegrees>41.70866668224334716796875</LatitudeDegrees>
              <LongitudeDegrees>-0.003166683018207550048828125</LongitudeDegrees>
            </Position>
            <AltitudeMeters>192.399993896484375</AltitudeMeters>
            <DistanceMeters>33571.477643553</DistanceMeters>
          </Trackpoint>
          <Trackpoint>
            <Time>2022-04-23T11:19:16.000Z</Time>
            <Position>
              <LatitudeDegrees>41.708951331675052642822265625</LatitudeDegrees>
              <LongitudeDegrees>-0.0024634413421154022216796875</LongitudeDegrees>
            </Position>
            <AltitudeMeters>192.399993896484375</AltitudeMeters>
            <DistanceMeters>33637.946911353</DistanceMeters>
          </Trackpoint>
          <Trackpoint>
            <Time>2022-04-23T11:19:23.000Z</Time>
            <Position>
              <LatitudeDegrees>41.7091050557792186737060546875</LatitudeDegrees>
              <LongitudeDegrees>-0.0018193759024143218994140625</LongitudeDegrees>
            </Position>
            <AltitudeMeters>192</AltitudeMeters>
            <DistanceMeters>33694.131250299</DistanceMeters>
          </Trackpoint>
          <Trackpoint>
            <Time>2022-04-23T11:19:25.000Z</Time>
            <Position>
              <LatitudeDegrees>41.70916113071143627166748046875</LatitudeDegrees>
              <LongitudeDegrees>-0.00163757242262363433837890625</LongitudeDegrees>
            </Position>
            <AltitudeMeters>191.8000030517578125</AltitudeMeters>
            <DistanceMeters>33710.475845171</DistanceMeters>
          </Trackpoint>
          <Trackpoint>
            <Time>2022-04-23T11:19:26.000Z</Time>
            <Position>
              <LatitudeDegrees>41.7091977596282958984375</LatitudeDegrees>
              <LongitudeDegrees>-0.00154755078256130218505859375</LongitudeDegrees>
            </Position>
            <AltitudeMeters>191.399993896484375</AltitudeMeters>
            <DistanceMeters>33718.994395183</DistanceMeters>
          </Trackpoint>
          <Trackpoint>
            <Time>2022-04-23T11:19:28.000Z</Time>
            <Position>
              <LatitudeDegrees>41.70928836800158023834228515625</LatitudeDegrees>
              <LongitudeDegrees>-0.00136666931211948394775390625</LongitudeDegrees>
            </Position>
            <AltitudeMeters>191.1999969482421875</AltitudeMeters>
            <DistanceMeters>33737.093928692</DistanceMeters>
          </Trackpoint>
          <Trackpoint>
            <Time>2022-04-23T11:19:29.000Z</Time>
            <Position>
              <LatitudeDegrees>41.709303371608257293701171875</LatitudeDegrees>
              <LongitudeDegrees>-0.0013010390102863311767578125</LongitudeDegrees>
            </Position>
            <AltitudeMeters>191.1999969482421875</AltitudeMeters>
            <DistanceMeters>33742.797115112</DistanceMeters>
          </Trackpoint>
          <Trackpoint>
            <Time>2022-04-23T11:19:30.000Z</Time>
            <Position>
              <LatitudeDegrees>41.70930278487503528594970703125</LatitudeDegrees>
              <LongitudeDegrees>-0.001225434243679046630859375</LongitudeDegrees>
            </Position>
            <AltitudeMeters>191.1999969482421875</AltitudeMeters>
            <DistanceMeters>33749.079667471</DistanceMeters>
          </Trackpoint>
          <Trackpoint>
            <Time>2022-04-23T11:19:31.000Z</Time>
            <Position>
              <LatitudeDegrees>41.709286607801914215087890625</LatitudeDegrees>
              <LongitudeDegrees>-0.00116583891212940216064453125</LongitudeDegrees>
            </Position>
            <AltitudeMeters>191.600006103515625</AltitudeMeters>
            <DistanceMeters>33754.348296798</DistanceMeters>
          </Trackpoint>
          <Trackpoint>
            <Time>2022-04-23T11:19:32.000Z</Time>
            <Position>
              <LatitudeDegrees>41.7092532478272914886474609375</LatitudeDegrees>
              <LongitudeDegrees>-0.00112996436655521392822265625</LongitudeDegrees>
            </Position>
            <AltitudeMeters>191.8000030517578125</AltitudeMeters>
            <DistanceMeters>33759.109125704</DistanceMeters>
          </Trackpoint>
          <Trackpoint>
            <Time>2022-04-23T11:19:33.000Z</Time>
            <Position>
              <LatitudeDegrees>41.70920111238956451416015625</LatitudeDegrees>
              <LongitudeDegrees>-0.00111588276922702789306640625</LongitudeDegrees>
            </Position>
            <AltitudeMeters>192</AltitudeMeters>
            <DistanceMeters>33765.029068836</DistanceMeters>
          </Trackpoint>
          <Trackpoint>
            <Time>2022-04-23T11:19:37.000Z</Time>
            <Position>
              <LatitudeDegrees>41.70899768359959125518798828125</LatitudeDegrees>
              <LongitudeDegrees>-0.0011109374463558197021484375</LongitudeDegrees>
            </Position>
            <AltitudeMeters>193.399993896484375</AltitudeMeters>
            <DistanceMeters>33787.674953703</DistanceMeters>
          </Trackpoint>
          <Trackpoint>
            <Time>2022-04-23T11:19:39.000Z</Time>
            <Position>
              <LatitudeDegrees>41.70888595283031463623046875</LatitudeDegrees>
              <LongitudeDegrees>-0.00108830630779266357421875</LongitudeDegrees>
            </Position>
            <AltitudeMeters>194</AltitudeMeters>
            <DistanceMeters>33800.252269758</DistanceMeters>
          </Trackpoint>
          <Trackpoint>
            <Time>2022-04-23T11:19:40.000Z</Time>
            <Position>
              <LatitudeDegrees>41.708819232881069183349609375</LatitudeDegrees>
              <LongitudeDegrees>-0.00107891857624053955078125</LongitudeDegrees>
            </Position>
            <AltitudeMeters>194.399993896484375</AltitudeMeters>
            <DistanceMeters>33807.718975321</DistanceMeters>
          </Trackpoint>
          <Trackpoint>
            <Time>2022-04-23T11:19:46.000Z</Time>
            <Position>
              <LatitudeDegrees>41.7084311507642269134521484375</LatitudeDegrees>
              <LongitudeDegrees>-0.00101320445537567138671875</LongitudeDegrees>
            </Position>
            <AltitudeMeters>195.399993896484375</AltitudeMeters>
            <DistanceMeters>33851.256976272</DistanceMeters>
          </Trackpoint>
          <Trackpoint>
            <Time>2022-04-23T11:19:47.000Z</Time>
            <Position>
              <LatitudeDegrees>41.7083711363375186920166015625</LatitudeDegrees>
              <LongitudeDegrees>-0.00099987722933292388916015625</LongitudeDegrees>
            </Position>
            <AltitudeMeters>195.600006103515625</AltitudeMeters>
            <DistanceMeters>33858.028588206</DistanceMeters>
          </Trackpoint>
          <Trackpoint>
            <Time>2022-04-23T11:19:52.000Z</Time>
            <Position>
              <LatitudeDegrees>41.7080475948750972747802734375</LatitudeDegrees>
              <LongitudeDegrees>-0.00093533657491207122802734375</LongitudeDegrees>
            </Position>
            <AltitudeMeters>195.8000030517578125</AltitudeMeters>
            <DistanceMeters>33894.436595311</DistanceMeters>
          </Trackpoint>
          <Trackpoint>
            <Time>2022-04-23T11:19:59.000Z</Time>
            <Position>
              <LatitudeDegrees>41.7075644619762897491455078125</LatitudeDegrees>
              <LongitudeDegrees>-0.000923685729503631591796875</LongitudeDegrees>
            </Position>
            <AltitudeMeters>196.399993896484375</AltitudeMeters>
            <DistanceMeters>33948.21902931</DistanceMeters>
          </Trackpoint>
          <Trackpoint>
            <Time>2022-04-23T11:20:01.000Z</Time>
            <Position>
              <LatitudeDegrees>41.7074596881866455078125</LatitudeDegrees>
              <LongitudeDegrees>-0.00093181617558002471923828125</LongitudeDegrees>
            </Position>
            <AltitudeMeters>196.600006103515625</AltitudeMeters>
            <DistanceMeters>33959.89997341</DistanceMeters>
          </Trackpoint>
          <Trackpoint>
            <Time>2022-04-23T11:20:06.000Z</Time>
            <Position>
              <LatitudeDegrees>41.70716020278632640838623046875</LatitudeDegrees>
              <LongitudeDegrees>-0.00097054056823253631591796875</LongitudeDegrees>
            </Position>
            <AltitudeMeters>196.8000030517578125</AltitudeMeters>
            <DistanceMeters>33993.388228869</DistanceMeters>
          </Trackpoint>
          <Trackpoint>
            <Time>2022-04-23T11:20:12.000Z</Time>
            <Position>
              <LatitudeDegrees>41.706806235015392303466796875</LatitudeDegrees>
              <LongitudeDegrees>-0.00101882033050060272216796875</LongitudeDegrees>
            </Position>
            <AltitudeMeters>197.600006103515625</AltitudeMeters>
            <DistanceMeters>34032.989293829</DistanceMeters>
          </Trackpoint>
          <Trackpoint>
            <Time>2022-04-23T11:20:14.000Z</Time>
            <Position>
              <LatitudeDegrees>41.70671277679502964019775390625</LatitudeDegrees>
              <LongitudeDegrees>-0.0010304711759090423583984375</LongitudeDegrees>
            </Position>
            <AltitudeMeters>197.8000030517578125</AltitudeMeters>
            <DistanceMeters>34043.436183505</DistanceMeters>
          </Trackpoint>
          <Trackpoint>
            <Time>2022-04-23T11:20:20.000Z</Time>
            <Position>
              <LatitudeDegrees>41.70641739852726459503173828125</LatitudeDegrees>
              <LongitudeDegrees>-0.0010599754750728607177734375</LongitudeDegrees>
            </Position>
            <AltitudeMeters>198.399993896484375</AltitudeMeters>
            <DistanceMeters>34076.40374333</DistanceMeters>
          </Trackpoint>
          <Trackpoint>
            <Time>2022-04-23T11:20:25.000Z</Time>
            <Position>
              <LatitudeDegrees>41.70618404634296894073486328125</LatitudeDegrees>
              <LongitudeDegrees>-0.00108897686004638671875</LongitudeDegrees>
            </Position>
            <AltitudeMeters>198.600006103515625</AltitudeMeters>
            <DistanceMeters>34102.487840779</DistanceMeters>
          </Trackpoint>
          <Trackpoint>
            <Time>2022-04-23T11:20:27.000Z</Time>
            <Position>
              <LatitudeDegrees>41.70609452761709690093994140625</LatitudeDegrees>
              <LongitudeDegrees>-0.0010898150503635406494140625</LongitudeDegrees>
            </Position>
            <AltitudeMeters>198.399993896484375</AltitudeMeters>
            <DistanceMeters>34112.45160816</DistanceMeters>
          </Trackpoint>
          <Trackpoint>
            <Time>2022-04-23T11:20:29.000Z</Time>
            <Position>
              <LatitudeDegrees>41.7060158215463161468505859375</LatitudeDegrees>
              <LongitudeDegrees>-0.001099370419979095458984375</LongitudeDegrees>
            </Position>
            <AltitudeMeters>198.600006103515625</AltitudeMeters>
            <DistanceMeters>34121.247612649</DistanceMeters>
          </Trackpoint>
          <Trackpoint>
            <Time>2022-04-23T11:20:30.000Z</Time>
            <Position>
              <LatitudeDegrees>41.7059692181646823883056640625</LatitudeDegrees>
              <LongitudeDegrees>-0.0011010468006134033203125</LongitudeDegrees>
            </Position>
            <AltitudeMeters>198.600006103515625</AltitudeMeters>
            <DistanceMeters>34126.436802177</DistanceMeters>
          </Trackpoint>
          <Trackpoint>
            <Time>2022-04-23T11:20:34.000Z</Time>
            <Position>
              <LatitudeDegrees>41.705783642828464508056640625</LatitudeDegrees>
              <LongitudeDegrees>-0.0011099316179752349853515625</LongitudeDegrees>
            </Position>
            <AltitudeMeters>199.1999969482421875</AltitudeMeters>
            <DistanceMeters>34147.10505794</DistanceMeters>
          </Trackpoint>
          <Trackpoint>
            <Time>2022-04-23T11:20:37.000Z</Time>
            <Position>
              <LatitudeDegrees>41.705628745257854461669921875</LatitudeDegrees>
              <LongitudeDegrees>-0.00111672095954418182373046875</LongitudeDegrees>
            </Position>
            <AltitudeMeters>199.600006103515625</AltitudeMeters>
            <DistanceMeters>34164.354958779</DistanceMeters>
          </Trackpoint>
          <Trackpoint>
            <Time>2022-04-23T11:20:42.000Z</Time>
            <Position>
              <LatitudeDegrees>41.7053784616291522979736328125</LatitudeDegrees>
              <LongitudeDegrees>-0.00112493522465229034423828125</LongitudeDegrees>
            </Position>
            <AltitudeMeters>200</AltitudeMeters>
            <DistanceMeters>34192.22047947</DistanceMeters>
          </Trackpoint>
          <Trackpoint>
            <Time>2022-04-23T11:20:49.000Z</Time>
            <Position>
              <LatitudeDegrees>41.70497135259211063385009765625</LatitudeDegrees>
              <LongitudeDegrees>-0.0010864622890949249267578125</LongitudeDegrees>
            </Position>
            <AltitudeMeters>200.8000030517578125</AltitudeMeters>
            <DistanceMeters>34237.645236902</DistanceMeters>
          </Trackpoint>
          <Trackpoint>
            <Time>2022-04-23T11:20:51.000Z</Time>
            <Position>
              <LatitudeDegrees>41.70487998984754085540771484375</LatitudeDegrees>
              <LongitudeDegrees>-0.00107632018625736236572265625</LongitudeDegrees>
            </Position>
            <AltitudeMeters>201</AltitudeMeters>
            <DistanceMeters>34247.849442479</DistanceMeters>
          </Trackpoint>
          <Trackpoint>
            <Time>2022-04-23T11:20:56.000Z</Time>
            <Position>
              <LatitudeDegrees>41.7046281136572360992431640625</LatitudeDegrees>
              <LongitudeDegrees>-0.00103600323200225830078125</LongitudeDegrees>
            </Position>
            <AltitudeMeters>202</AltitudeMeters>
            <DistanceMeters>34276.083412946</DistanceMeters>
          </Trackpoint>
          <Trackpoint>
            <Time>2022-04-23T11:20:59.000Z</Time>
            <Position>
              <LatitudeDegrees>41.704471372067928314208984375</LatitudeDegrees>
              <LongitudeDegrees>-0.001014880836009979248046875</LongitudeDegrees>
            </Position>
            <AltitudeMeters>202.8000030517578125</AltitudeMeters>
            <DistanceMeters>34293.617064948</DistanceMeters>
          </Trackpoint>
          <Trackpoint>
            <Time>2022-04-23T11:21:01.000Z</Time>
            <Position>
              <LatitudeDegrees>41.7043766565620899200439453125</LatitudeDegrees>
              <LongitudeDegrees>-0.0010036490857601165771484375</LongitudeDegrees>
            </Position>
            <AltitudeMeters>203</AltitudeMeters>
            <DistanceMeters>34304.200071994</DistanceMeters>
          </Trackpoint>
          <Trackpoint>
            <Time>2022-04-23T11:21:02.000Z</Time>
            <Position>
              <LatitudeDegrees>41.7043344117701053619384765625</LatitudeDegrees>
              <LongitudeDegrees>-0.00100155360996723175048828125</LongitudeDegrees>
            </Position>
            <AltitudeMeters>203</AltitudeMeters>
            <DistanceMeters>34308.905573821</DistanceMeters>
          </Trackpoint>
          <Trackpoint>
            <Time>2022-04-23T11:21:03.000Z</Time>
            <Position>
              <LatitudeDegrees>41.70429476536810398101806640625</LatitudeDegrees>
              <LongitudeDegrees>-0.00099501572549343109130859375</LongitudeDegrees>
            </Position>
            <AltitudeMeters>203.1999969482421875</AltitudeMeters>
            <DistanceMeters>34313.352580389</DistanceMeters>
          </Trackpoint>
          <Trackpoint>
            <Time>2022-04-23T11:21:05.000Z</Time>
            <Position>
              <LatitudeDegrees>41.7042224295437335968017578125</LatitudeDegrees>
              <LongitudeDegrees>-0.0009785033762454986572265625</LongitudeDegrees>
            </Position>
            <AltitudeMeters>203.399993896484375</AltitudeMeters>
            <DistanceMeters>34321.519351147</DistanceMeters>
          </Trackpoint>
          <Trackpoint>
            <Time>2022-04-23T11:21:11.000Z</Time>
            <Position>
              <LatitudeDegrees>41.703936271369457244873046875</LatitudeDegrees>
              <LongitudeDegrees>-0.00093013979494571685791015625</LongitudeDegrees>
            </Position>
            <AltitudeMeters>204</AltitudeMeters>
            <DistanceMeters>34353.621788815</DistanceMeters>
          </Trackpoint>
          <Trackpoint>
            <Time>2022-04-23T11:21:13.000Z</Time>
            <Position>
              <LatitudeDegrees>41.7038449086248874664306640625</LatitudeDegrees>
              <LongitudeDegrees>-0.00091186724603176116943359375</LongitudeDegrees>
            </Position>
            <AltitudeMeters>204.1999969482421875</AltitudeMeters>
            <DistanceMeters>34363.903573919</DistanceMeters>
          </Trackpoint>
          <Trackpoint>
            <Time>2022-04-23T11:21:23.000Z</Time>
            <Position>
              <LatitudeDegrees>41.7033999972045421600341796875</LatitudeDegrees>
              <LongitudeDegrees>-0.0008061714470386505126953125</LongitudeDegrees>
            </Position>
            <AltitudeMeters>204.600006103515625</AltitudeMeters>
            <DistanceMeters>34414.1960529</DistanceMeters>
          </Trackpoint>
          <Trackpoint>
            <Time>2022-04-23T11:21:28.000Z</Time>
            <Position>
              <LatitudeDegrees>41.70311409048736095428466796875</LatitudeDegrees>
              <LongitudeDegrees>-0.0007870607078075408935546875</LongitudeDegrees>
            </Position>
            <AltitudeMeters>205.1999969482421875</AltitudeMeters>
            <DistanceMeters>34446.057647239</DistanceMeters>
          </Trackpoint>
          <Trackpoint>
            <Time>2022-04-23T11:21:29.000Z</Time>
            <Position>
              <LatitudeDegrees>41.70311409048736095428466796875</LatitudeDegrees>
              <LongitudeDegrees>-0.0007870607078075408935546875</LongitudeDegrees>
            </Position>
            <AltitudeMeters>205.399993896484375</AltitudeMeters>
            <DistanceMeters>34446.057647239</DistanceMeters>
          </Trackpoint>
          <Trackpoint>
            <Time>2022-04-23T11:21:33.000Z</Time>
            <Position>
              <LatitudeDegrees>41.70287109911441802978515625</LatitudeDegrees>
              <LongitudeDegrees>-0.00081069767475128173828125</LongitudeDegrees>
            </Position>
            <AltitudeMeters>206.1999969482421875</AltitudeMeters>
            <DistanceMeters>34473.174415572</DistanceMeters>
          </Trackpoint>
          <Trackpoint>
            <Time>2022-04-23T11:21:34.000Z</Time>
            <Position>
              <LatitudeDegrees>41.7028229869902133941650390625</LatitudeDegrees>
              <LongitudeDegrees>-0.00080927275121212005615234375</LongitudeDegrees>
            </Position>
            <AltitudeMeters>206.399993896484375</AltitudeMeters>
            <DistanceMeters>34478.531428074</DistanceMeters>
          </Trackpoint>
          <Trackpoint>
            <Time>2022-04-23T11:21:37.000Z</Time>
            <Position>
              <LatitudeDegrees>41.70268426649272441864013671875</LatitudeDegrees>
              <LongitudeDegrees>-0.0008021481335163116455078125</LongitudeDegrees>
            </Position>
            <AltitudeMeters>206.8000030517578125</AltitudeMeters>
            <DistanceMeters>34493.982549749</DistanceMeters>
          </Trackpoint>
          <Trackpoint>
            <Time>2022-04-23T11:21:42.000Z</Time>
            <Position>
              <LatitudeDegrees>41.70246549881994724273681640625</LatitudeDegrees>
              <LongitudeDegrees>-0.00077792443335056304931640625</LongitudeDegrees>
            </Position>
            <AltitudeMeters>207.399993896484375</AltitudeMeters>
            <DistanceMeters>34518.414951051</DistanceMeters>
          </Trackpoint>
          <Trackpoint>
            <Time>2022-04-23T11:21:43.000Z</Time>
            <Position>
              <LatitudeDegrees>41.70242476277053356170654296875</LatitudeDegrees>
              <LongitudeDegrees>-0.000769793987274169921875</LongitudeDegrees>
            </Position>
            <AltitudeMeters>207.600006103515625</AltitudeMeters>
            <DistanceMeters>34522.999928474</DistanceMeters>
          </Trackpoint>
          <Trackpoint>
            <Time>2022-04-23T11:21:44.000Z</Time>
            <Position>
              <LatitudeDegrees>41.70238486491143703460693359375</LatitudeDegrees>
              <LongitudeDegrees>-0.0007632561028003692626953125</LongitudeDegrees>
            </Position>
            <AltitudeMeters>208</AltitudeMeters>
            <DistanceMeters>34527.473254909</DistanceMeters>
          </Trackpoint>
          <Trackpoint>
            <Time>2022-04-23T11:21:47.000Z</Time>
            <Position>
              <LatitudeDegrees>41.7022548615932464599609375</LatitudeDegrees>
              <LongitudeDegrees>-0.0007387809455394744873046875</LongitudeDegrees>
            </Position>
            <AltitudeMeters>208.399993896484375</AltitudeMeters>
            <DistanceMeters>34542.085137999</DistanceMeters>
          </Trackpoint>
          <Trackpoint>
            <Time>2022-04-23T11:21:48.000Z</Time>
            <Position>
              <LatitudeDegrees>41.70221320353448390960693359375</LatitudeDegrees>
              <LongitudeDegrees>-0.00072612427175045013427734375</LongitudeDegrees>
            </Position>
            <AltitudeMeters>208.8000030517578125</AltitudeMeters>
            <DistanceMeters>34546.840273267</DistanceMeters>
          </Trackpoint>
          <Trackpoint>
            <Time>2022-04-23T11:21:52.000Z</Time>
            <Position>
              <LatitudeDegrees>41.70206853188574314117431640625</LatitudeDegrees>
              <LongitudeDegrees>-0.0006770901381969451904296875</LongitudeDegrees>
            </Position>
            <AltitudeMeters>209.399993896484375</AltitudeMeters>
            <DistanceMeters>34563.449844768</DistanceMeters>
          </Trackpoint>
          <Trackpoint>
            <Time>2022-04-23T11:21:55.000Z</Time>
            <Position>
              <LatitudeDegrees>41.7019935138523578643798828125</LatitudeDegrees>
              <LongitudeDegrees>-0.000642053782939910888671875</LongitudeDegrees>
            </Position>
            <AltitudeMeters>210</AltitudeMeters>
            <DistanceMeters>34572.292436692</DistanceMeters>
          </Trackpoint>
          <Trackpoint>
            <Time>2022-04-23T11:21:58.000Z</Time>
            <Position>
              <LatitudeDegrees>41.70183266513049602508544921875</LatitudeDegrees>
              <LongitudeDegrees>-0.00053937546908855438232421875</LongitudeDegrees>
            </Position>
            <AltitudeMeters>210.399993896484375</AltitudeMeters>
            <DistanceMeters>34592.124354892</DistanceMeters>
          </Trackpoint>
          <Trackpoint>
            <Time>2022-04-23T11:22:00.000Z</Time>
            <Position>
              <LatitudeDegrees>41.7017586529254913330078125</LatitudeDegrees>
              <LongitudeDegrees>-0.0004836358129978179931640625</LongitudeDegrees>
            </Position>
            <AltitudeMeters>210.8000030517578125</AltitudeMeters>
            <DistanceMeters>34601.575094869</DistanceMeters>
          </Trackpoint>
          <Trackpoint>
            <Time>2022-04-23T11:22:02.000Z</Time>
            <Position>
              <LatitudeDegrees>41.7016969621181488037109375</LatitudeDegrees>
              <LongitudeDegrees>-0.00041498802602291107177734375</LongitudeDegrees>
            </Position>
            <AltitudeMeters>211</AltitudeMeters>
            <DistanceMeters>34610.502044215</DistanceMeters>
          </Trackpoint>
          <Trackpoint>
            <Time>2022-04-23T11:22:03.000Z</Time>
            <Position>
              <LatitudeDegrees>41.70167273841798305511474609375</LatitudeDegrees>
              <LongitudeDegrees>-0.00038665719330310821533203125</LongitudeDegrees>
            </Position>
            <AltitudeMeters>211</AltitudeMeters>
            <DistanceMeters>34614.080402553</DistanceMeters>
          </Trackpoint>
          <Trackpoint>
            <Time>2022-04-23T11:22:05.000Z</Time>
            <Position>
              <LatitudeDegrees>41.70159579254686832427978515625</LatitudeDegrees>
              <LongitudeDegrees>-0.0003240443766117095947265625</LongitudeDegrees>
            </Position>
            <AltitudeMeters>211.1999969482421875</AltitudeMeters>
            <DistanceMeters>34624.101103629</DistanceMeters>
          </Trackpoint>
          <Trackpoint>
            <Time>2022-04-23T11:22:12.000Z</Time>
            <Position>
              <LatitudeDegrees>41.70131407678127288818359375</LatitudeDegrees>
              <LongitudeDegrees>-0.0002212822437286376953125</LongitudeDegrees>
            </Position>
            <AltitudeMeters>211.8000030517578125</AltitudeMeters>
            <DistanceMeters>34656.598572765</DistanceMeters>
          </Trackpoint>
          <Trackpoint>
            <Time>2022-04-23T11:22:13.000Z</Time>
            <Position>
              <LatitudeDegrees>41.7012696526944637298583984375</LatitudeDegrees>
              <LongitudeDegrees>-0.0002132356166839599609375</LongitudeDegrees>
            </Position>
            <AltitudeMeters>212</AltitudeMeters>
            <DistanceMeters>34661.589058797</DistanceMeters>
          </Trackpoint>
          <Trackpoint>
            <Time>2022-04-23T11:22:15.000Z</Time>
            <Position>
              <LatitudeDegrees>41.70118289999663829803466796875</LatitudeDegrees>
              <LongitudeDegrees>-0.00019756145775318145751953125</LongitudeDegrees>
            </Position>
            <AltitudeMeters>212.600006103515625</AltitudeMeters>
            <DistanceMeters>34671.331962039</DistanceMeters>
          </Trackpoint>
          <Trackpoint>
            <Time>2022-04-23T11:22:19.000Z</Time>
            <Position>
              <LatitudeDegrees>41.7010145075619220733642578125</LatitudeDegrees>
              <LongitudeDegrees>-0.0001885928213596343994140625</LongitudeDegrees>
            </Position>
            <AltitudeMeters>213.1999969482421875</AltitudeMeters>
            <DistanceMeters>34690.089089708</DistanceMeters>
          </Trackpoint>
          <Trackpoint>
            <Time>2022-04-23T11:22:20.000Z</Time>
            <Position>
              <LatitudeDegrees>41.70097402296960353851318359375</LatitudeDegrees>
              <LongitudeDegrees>-0.00019303523004055023193359375</LongitudeDegrees>
            </Position>
            <AltitudeMeters>213.1999969482421875</AltitudeMeters>
            <DistanceMeters>34694.609605497</DistanceMeters>
          </Trackpoint>
          <Trackpoint>
            <Time>2022-04-23T11:22:22.000Z</Time>
            <Position>
              <LatitudeDegrees>41.70089808292686939239501953125</LatitudeDegrees>
              <LongitudeDegrees>-0.00021264888346195220947265625</LongitudeDegrees>
            </Position>
            <AltitudeMeters>213.8000030517578125</AltitudeMeters>
            <DistanceMeters>34703.216739</DistanceMeters>
          </Trackpoint>
          <Trackpoint>
            <Time>2022-04-23T11:22:24.000Z</Time>
            <Position>
              <LatitudeDegrees>41.700831949710845947265625</LatitudeDegrees>
              <LongitudeDegrees>-0.00023662112653255462646484375</LongitudeDegrees>
            </Position>
            <AltitudeMeters>214.1999969482421875</AltitudeMeters>
            <DistanceMeters>34710.842003732</DistanceMeters>
          </Trackpoint>
          <Trackpoint>
            <Time>2022-04-23T11:22:26.000Z</Time>
            <Position>
              <LatitudeDegrees>41.70076330192387104034423828125</LatitudeDegrees>
              <LongitudeDegrees>-0.00025439076125621795654296875</LongitudeDegrees>
            </Position>
            <AltitudeMeters>214.8000030517578125</AltitudeMeters>
            <DistanceMeters>34718.623757559</DistanceMeters>
          </Trackpoint>
          <Trackpoint>
            <Time>2022-04-23T11:22:28.000Z</Time>
            <Position>
              <LatitudeDegrees>41.700701527297496795654296875</LatitudeDegrees>
              <LongitudeDegrees>-0.00027962028980255126953125</LongitudeDegrees>
            </Position>
            <AltitudeMeters>215.1999969482421875</AltitudeMeters>
            <DistanceMeters>34725.813205213</DistanceMeters>
          </Trackpoint>
          <Trackpoint>
            <Time>2022-04-23T11:22:33.000Z</Time>
            <Position>
              <LatitudeDegrees>41.70055559836328029632568359375</LatitudeDegrees>
              <LongitudeDegrees>-0.00034122727811336517333984375</LongitudeDegrees>
            </Position>
            <AltitudeMeters>216.1999969482421875</AltitudeMeters>
            <DistanceMeters>34742.843413527</DistanceMeters>
          </Trackpoint>
          <Trackpoint>
            <Time>2022-04-23T11:22:41.000Z</Time>
            <Position>
              <LatitudeDegrees>41.70030414126813411712646484375</LatitudeDegrees>
              <LongitudeDegrees>-0.00051506794989109039306640625</LongitudeDegrees>
            </Position>
            <AltitudeMeters>217.399993896484375</AltitudeMeters>
            <DistanceMeters>34774.339573259</DistanceMeters>
          </Trackpoint>
          <Trackpoint>
            <Time>2022-04-23T11:22:43.000Z</Time>
            <Position>
              <LatitudeDegrees>41.70024563558399677276611328125</LatitudeDegrees>
              <LongitudeDegrees>-0.00056929886341094970703125</LongitudeDegrees>
            </Position>
            <AltitudeMeters>217.8000030517578125</AltitudeMeters>
            <DistanceMeters>34782.258212714</DistanceMeters>
          </Trackpoint>
          <Trackpoint>
            <Time>2022-04-23T11:22:48.000Z</Time>
            <Position>
              <LatitudeDegrees>41.70009677298367023468017578125</LatitudeDegrees>
              <LongitudeDegrees>-0.000672899186611175537109375</LongitudeDegrees>
            </Position>
            <AltitudeMeters>218.600006103515625</AltitudeMeters>
            <DistanceMeters>34800.929934417</DistanceMeters>
          </Trackpoint>
          <Trackpoint>
            <Time>2022-04-23T11:22:51.000Z</Time>
            <Position>
              <LatitudeDegrees>41.7000043205916881561279296875</LatitudeDegrees>
              <LongitudeDegrees>-0.000716149806976318359375</LongitudeDegrees>
            </Position>
            <AltitudeMeters>219.1999969482421875</AltitudeMeters>
            <DistanceMeters>34811.829461273</DistanceMeters>
          </Trackpoint>
          <Trackpoint>
            <Time>2022-04-23T11:22:52.000Z</Time>
            <Position>
              <LatitudeDegrees>41.6999761573970317840576171875</LatitudeDegrees>
              <LongitudeDegrees>-0.0007324106991291046142578125</LongitudeDegrees>
            </Position>
            <AltitudeMeters>219.600006103515625</AltitudeMeters>
            <DistanceMeters>34815.242494911</DistanceMeters>
          </Trackpoint>
          <Trackpoint>
            <Time>2022-04-23T11:22:57.000Z</Time>
            <Position>
              <LatitudeDegrees>41.69983156956732273101806640625</LatitudeDegrees>
              <LongitudeDegrees>-0.00080893747508525848388671875</LongitudeDegrees>
            </Position>
            <AltitudeMeters>221</AltitudeMeters>
            <DistanceMeters>34832.546491698</DistanceMeters>
          </Trackpoint>
          <Trackpoint>
            <Time>2022-04-23T11:22:59.000Z</Time>
            <Position>
              <LatitudeDegrees>41.69977038167417049407958984375</LatitudeDegrees>
              <LongitudeDegrees>-0.0008381903171539306640625</LongitudeDegrees>
            </Position>
            <AltitudeMeters>221.600006103515625</AltitudeMeters>
            <DistanceMeters>34839.777269154</DistanceMeters>
          </Trackpoint>
          <Trackpoint>
            <Time>2022-04-23T11:23:00.000Z</Time>
            <Position>
              <LatitudeDegrees>41.6997389495372772216796875</LatitudeDegrees>
              <LongitudeDegrees>-0.0008437223732471466064453125</LongitudeDegrees>
            </Position>
            <AltitudeMeters>221.8000030517578125</AltitudeMeters>
            <DistanceMeters>34843.304795956</DistanceMeters>
          </Trackpoint>
          <Trackpoint>
            <Time>2022-04-23T11:23:01.000Z</Time>
            <Position>
              <LatitudeDegrees>41.6997065953910350799560546875</LatitudeDegrees>
              <LongitudeDegrees>-0.00085369683802127838134765625</LongitudeDegrees>
            </Position>
            <AltitudeMeters>222.1999969482421875</AltitudeMeters>
            <DistanceMeters>34846.999856927</DistanceMeters>
          </Trackpoint>
          <Trackpoint>
            <Time>2022-04-23T11:23:06.000Z</Time>
            <Position>
              <LatitudeDegrees>41.69955857098102569580078125</LatitudeDegrees>
              <LongitudeDegrees>-0.0009070895612239837646484375</LongitudeDegrees>
            </Position>
            <AltitudeMeters>223.399993896484375</AltitudeMeters>
            <DistanceMeters>34864.062114529</DistanceMeters>
          </Trackpoint>
          <Trackpoint>
            <Time>2022-04-23T11:23:08.000Z</Time>
            <Position>
              <LatitudeDegrees>41.69950199313461780548095703125</LatitudeDegrees>
              <LongitudeDegrees>-0.00093139708042144775390625</LongitudeDegrees>
            </Position>
            <AltitudeMeters>224.1999969482421875</AltitudeMeters>
            <DistanceMeters>34870.675181913</DistanceMeters>
          </Trackpoint>
          <Trackpoint>
            <Time>2022-04-23T11:23:09.000Z</Time>
            <Position>
              <LatitudeDegrees>41.69950199313461780548095703125</LatitudeDegrees>
              <LongitudeDegrees>-0.00093139708042144775390625</LongitudeDegrees>
            </Position>
            <AltitudeMeters>224.600006103515625</AltitudeMeters>
            <DistanceMeters>34870.675181913</DistanceMeters>
          </Trackpoint>
          <Trackpoint>
            <Time>2022-04-23T11:23:12.000Z</Time>
            <Position>
              <LatitudeDegrees>41.6993968002498149871826171875</LatitudeDegrees>
              <LongitudeDegrees>-0.00098713673651218414306640625</LongitudeDegrees>
            </Position>
            <AltitudeMeters>225.600006103515625</AltitudeMeters>
            <DistanceMeters>34883.266490508</DistanceMeters>
          </Trackpoint>
          <Trackpoint>
            <Time>2022-04-23T11:23:13.000Z</Time>
            <Position>
              <LatitudeDegrees>41.69936872087419033050537109375</LatitudeDegrees>
              <LongitudeDegrees>-0.00099820084869861602783203125</LongitudeDegrees>
            </Position>
            <AltitudeMeters>226.1999969482421875</AltitudeMeters>
            <DistanceMeters>34886.525227978</DistanceMeters>
          </Trackpoint>
          <Trackpoint>
            <Time>2022-04-23T11:23:15.000Z</Time>
            <Position>
              <LatitudeDegrees>41.69931172393262386322021484375</LatitudeDegrees>
              <LongitudeDegrees>-0.001015551388263702392578125</LongitudeDegrees>
            </Position>
            <AltitudeMeters>226.8000030517578125</AltitudeMeters>
            <DistanceMeters>34893.030915358</DistanceMeters>
          </Trackpoint>
          <Trackpoint>
            <Time>2022-04-23T11:23:16.000Z</Time>
            <Position>
              <LatitudeDegrees>41.69928289018571376800537109375</LatitudeDegrees>
              <LongitudeDegrees>-0.0010298006236553192138671875</LongitudeDegrees>
            </Position>
            <AltitudeMeters>226.8000030517578125</AltitudeMeters>
            <DistanceMeters>34896.451877075</DistanceMeters>
          </Trackpoint>
          <Trackpoint>
            <Time>2022-04-23T11:23:20.000Z</Time>
            <Position>
              <LatitudeDegrees>41.69917224906384944915771484375</LatitudeDegrees>
              <LongitudeDegrees>-0.0010878033936023712158203125</LongitudeDegrees>
            </Position>
            <AltitudeMeters>227.8000030517578125</AltitudeMeters>
            <DistanceMeters>34909.675963449</DistanceMeters>
          </Trackpoint>
          <Trackpoint>
            <Time>2022-04-23T11:23:24.000Z</Time>
            <Position>
              <LatitudeDegrees>41.69905138202011585235595703125</LatitudeDegrees>
              <LongitudeDegrees>-0.001151002943515777587890625</LongitudeDegrees>
            </Position>
            <AltitudeMeters>229</AltitudeMeters>
            <DistanceMeters>34924.117835752</DistanceMeters>
          </Trackpoint>
          <Trackpoint>
            <Time>2022-04-23T11:23:28.000Z</Time>
            <Position>
              <LatitudeDegrees>41.6989369690418243408203125</LatitudeDegrees>
              <LongitudeDegrees>-0.00122912228107452392578125</LongitudeDegrees>
            </Position>
            <AltitudeMeters>230.399993896484375</AltitudeMeters>
            <DistanceMeters>34938.411066649</DistanceMeters>
          </Trackpoint>
          <Trackpoint>
            <Time>2022-04-23T11:23:29.000Z</Time>
            <Position>
              <LatitudeDegrees>41.69890888966619968414306640625</LatitudeDegrees>
              <LongitudeDegrees>-0.00124496407806873321533203125</LongitudeDegrees>
            </Position>
            <AltitudeMeters>231</AltitudeMeters>
            <DistanceMeters>34941.802868145</DistanceMeters>
          </Trackpoint>
          <Trackpoint>
            <Time>2022-04-23T11:23:32.000Z</Time>
            <Position>
              <LatitudeDegrees>41.69882758520543575286865234375</LatitudeDegrees>
              <LongitudeDegrees>-0.00130229629576206207275390625</LongitudeDegrees>
            </Position>
            <AltitudeMeters>231.600006103515625</AltitudeMeters>
            <DistanceMeters>34952.030056197</DistanceMeters>
          </Trackpoint>
          <Trackpoint>
            <Time>2022-04-23T11:23:36.000Z</Time>
            <Position>
              <LatitudeDegrees>41.6987208835780620574951171875</LatitudeDegrees>
              <LongitudeDegrees>-0.0013907253742218017578125</LongitudeDegrees>
            </Position>
            <AltitudeMeters>232.8000030517578125</AltitudeMeters>
            <DistanceMeters>34965.996073925</DistanceMeters>
          </Trackpoint>
          <Trackpoint>
            <Time>2022-04-23T11:23:42.000Z</Time>
            <Position>
              <LatitudeDegrees>41.69853128492832183837890625</LatitudeDegrees>
              <LongitudeDegrees>-0.00155459158122539520263671875</LongitudeDegrees>
            </Position>
            <AltitudeMeters>234</AltitudeMeters>
            <DistanceMeters>34991.111186901</DistanceMeters>
          </Trackpoint>
          <Trackpoint>
            <Time>2022-04-23T11:23:46.000Z</Time>
            <Position>
              <LatitudeDegrees>41.69840379618108272552490234375</LatitudeDegrees>
              <LongitudeDegrees>-0.00165534205734729766845703125</LongitudeDegrees>
            </Position>
            <AltitudeMeters>234</AltitudeMeters>
            <DistanceMeters>35007.587295606</DistanceMeters>
          </Trackpoint>
          <Trackpoint>
            <Time>2022-04-23T11:23:54.000Z</Time>
            <Position>
              <LatitudeDegrees>41.69815753586590290069580078125</LatitudeDegrees>
              <LongitudeDegrees>-0.00185332261025905609130859375</LongitudeDegrees>
            </Position>
            <AltitudeMeters>234.399993896484375</AltitudeMeters>
            <DistanceMeters>35039.555700345</DistanceMeters>
          </Trackpoint>
          <Trackpoint>
            <Time>2022-04-23T11:24:00.000Z</Time>
            <Position>
              <LatitudeDegrees>41.69798051007091999053955078125</LatitudeDegrees>
              <LongitudeDegrees>-0.0019886903464794158935546875</LongitudeDegrees>
            </Position>
            <AltitudeMeters>235.1999969482421875</AltitudeMeters>
            <DistanceMeters>35062.244410485</DistanceMeters>
          </Trackpoint>
          <Trackpoint>
            <Time>2022-04-23T11:24:03.000Z</Time>
            <Position>
              <LatitudeDegrees>41.69788914732635021209716796875</LatitudeDegrees>
              <LongitudeDegrees>-0.00205901451408863067626953125</LongitudeDegrees>
            </Position>
            <AltitudeMeters>236</AltitudeMeters>
            <DistanceMeters>35073.973956286</DistanceMeters>
          </Trackpoint>
          <Trackpoint>
            <Time>2022-04-23T11:24:05.000Z</Time>
            <Position>
              <LatitudeDegrees>41.6978277079761028289794921875</LatitudeDegrees>
              <LongitudeDegrees>-0.00210276804864406585693359375</LongitudeDegrees>
            </Position>
            <AltitudeMeters>236.600006103515625</AltitudeMeters>
            <DistanceMeters>35081.719653666</DistanceMeters>
          </Trackpoint>
          <Trackpoint>
            <Time>2022-04-23T11:24:11.000Z</Time>
            <Position>
              <LatitudeDegrees>41.69763534329831600189208984375</LatitudeDegrees>
              <LongitudeDegrees>-0.0022233836352825164794921875</LongitudeDegrees>
            </Position>
            <AltitudeMeters>237.399993896484375</AltitudeMeters>
            <DistanceMeters>35105.360497375</DistanceMeters>
          </Trackpoint>
          <Trackpoint>
            <Time>2022-04-23T11:24:12.000Z</Time>
            <Position>
              <LatitudeDegrees>41.6976094432175159454345703125</LatitudeDegrees>
              <LongitudeDegrees>-0.00223604030907154083251953125</LongitudeDegrees>
            </Position>
            <AltitudeMeters>237.600006103515625</AltitudeMeters>
            <DistanceMeters>35108.429433629</DistanceMeters>
          </Trackpoint>
          <Trackpoint>
            <Time>2022-04-23T11:24:18.000Z</Time>
            <Position>
              <LatitudeDegrees>41.69741037301719188690185546875</LatitudeDegrees>
              <LongitudeDegrees>-0.002341233193874359130859375</LongitudeDegrees>
            </Position>
            <AltitudeMeters>238</AltitudeMeters>
            <DistanceMeters>35132.248747283</DistanceMeters>
          </Trackpoint>
          <Trackpoint>
            <Time>2022-04-23T11:24:19.000Z</Time>
            <Position>
              <LatitudeDegrees>41.69738732278347015380859375</LatitudeDegrees>
              <LongitudeDegrees>-0.00235204584896564483642578125</LongitudeDegrees>
            </Position>
            <AltitudeMeters>238.600006103515625</AltitudeMeters>
            <DistanceMeters>35134.966577766</DistanceMeters>
          </Trackpoint>
          <Trackpoint>
            <Time>2022-04-23T11:24:23.000Z</Time>
            <Position>
              <LatitudeDegrees>41.6972761787474155426025390625</LatitudeDegrees>
              <LongitudeDegrees>-0.00240233726799488067626953125</LongitudeDegrees>
            </Position>
            <AltitudeMeters>240</AltitudeMeters>
            <DistanceMeters>35148.024368674</DistanceMeters>
          </Trackpoint>
          <Trackpoint>
            <Time>2022-04-23T11:24:26.000Z</Time>
            <Position>
              <LatitudeDegrees>41.69718682765960693359375</LatitudeDegrees>
              <LongitudeDegrees>-0.00242806971073150634765625</LongitudeDegrees>
            </Position>
            <AltitudeMeters>240.600006103515625</AltitudeMeters>
            <DistanceMeters>35158.19711049</DistanceMeters>
          </Trackpoint>
          <Trackpoint>
            <Time>2022-04-23T11:24:31.000Z</Time>
            <Position>
              <LatitudeDegrees>41.6970153339207172393798828125</LatitudeDegrees>
              <LongitudeDegrees>-0.00249571166932582855224609375</LongitudeDegrees>
            </Position>
            <AltitudeMeters>241</AltitudeMeters>
            <DistanceMeters>35178.095622794</DistanceMeters>
          </Trackpoint>
          <Trackpoint>
            <Time>2022-04-23T11:24:34.000Z</Time>
            <Position>
              <LatitudeDegrees>41.6969117335975170135498046875</LatitudeDegrees>
              <LongitudeDegrees>-0.00253804028034210205078125</LongitudeDegrees>
            </Position>
            <AltitudeMeters>241.399993896484375</AltitudeMeters>
            <DistanceMeters>35190.150914175</DistanceMeters>
          </Trackpoint>
          <Trackpoint>
            <Time>2022-04-23T11:24:40.000Z</Time>
            <Position>
              <LatitudeDegrees>41.69671081937849521636962890625</LatitudeDegrees>
              <LongitudeDegrees>-0.002646334469318389892578125</LongitudeDegrees>
            </Position>
            <AltitudeMeters>242</AltitudeMeters>
            <DistanceMeters>35214.255878371</DistanceMeters>
          </Trackpoint>
          <Trackpoint>
            <Time>2022-04-23T11:24:42.000Z</Time>
            <Position>
              <LatitudeDegrees>41.6966458596289157867431640625</LatitudeDegrees>
              <LongitudeDegrees>-0.00268531031906604766845703125</LongitudeDegrees>
            </Position>
            <AltitudeMeters>243.1999969482421875</AltitudeMeters>
            <DistanceMeters>35222.178508071</DistanceMeters>
          </Trackpoint>
          <Trackpoint>
            <Time>2022-04-23T11:24:47.000Z</Time>
            <Position>
              <LatitudeDegrees>41.69647227041423320770263671875</LatitudeDegrees>
              <LongitudeDegrees>-0.0027822889387607574462890625</LongitudeDegrees>
            </Position>
            <AltitudeMeters>244</AltitudeMeters>
            <DistanceMeters>35243.112873836</DistanceMeters>
          </Trackpoint>
          <Trackpoint>
            <Time>2022-04-23T11:24:49.000Z</Time>
            <Position>
              <LatitudeDegrees>41.69640303589403629302978515625</LatitudeDegrees>
              <LongitudeDegrees>-0.0028176605701446533203125</LongitudeDegrees>
            </Position>
            <AltitudeMeters>244.1999969482421875</AltitudeMeters>
            <DistanceMeters>35251.359966401</DistanceMeters>
          </Trackpoint>
          <Trackpoint>
            <Time>2022-04-23T11:24:57.000Z</Time>
            <Position>
              <LatitudeDegrees>41.696127690374851226806640625</LatitudeDegrees>
              <LongitudeDegrees>-0.0029666908085346221923828125</LongitudeDegrees>
            </Position>
            <AltitudeMeters>244.1999969482421875</AltitudeMeters>
            <DistanceMeters>35284.414514188</DistanceMeters>
          </Trackpoint>
          <Trackpoint>
            <Time>2022-04-23T11:25:01.000Z</Time>
            <Position>
              <LatitudeDegrees>41.69599668122828006744384765625</LatitudeDegrees>
              <LongitudeDegrees>-0.00302427448332309722900390625</LongitudeDegrees>
            </Position>
            <AltitudeMeters>244.600006103515625</AltitudeMeters>
            <DistanceMeters>35299.761549207</DistanceMeters>
          </Trackpoint>
          <Trackpoint>
            <Time>2022-04-23T11:25:05.000Z</Time>
            <Position>
              <LatitudeDegrees>41.69585888274013996124267578125</LatitudeDegrees>
              <LongitudeDegrees>-0.00309652648866176605224609375</LongitudeDegrees>
            </Position>
            <AltitudeMeters>245.1999969482421875</AltitudeMeters>
            <DistanceMeters>35316.232450415</DistanceMeters>
          </Trackpoint>
          <Trackpoint>
            <Time>2022-04-23T11:25:08.000Z</Time>
            <Position>
              <LatitudeDegrees>41.69575251638889312744140625</LatitudeDegrees>
              <LongitudeDegrees>-0.0031520985066890716552734375</LongitudeDegrees>
            </Position>
            <AltitudeMeters>245.600006103515625</AltitudeMeters>
            <DistanceMeters>35328.940119637</DistanceMeters>
          </Trackpoint>
          <Trackpoint>
            <Time>2022-04-23T11:25:13.000Z</Time>
            <Position>
              <LatitudeDegrees>41.69557540677487850189208984375</LatitudeDegrees>
              <LongitudeDegrees>-0.003244467079639434814453125</LongitudeDegrees>
            </Position>
            <AltitudeMeters>246.399993896484375</AltitudeMeters>
            <DistanceMeters>35350.094824988</DistanceMeters>
          </Trackpoint>
          <Trackpoint>
            <Time>2022-04-23T11:25:14.000Z</Time>
            <Position>
              <LatitudeDegrees>41.69554020278155803680419921875</LatitudeDegrees>
              <LongitudeDegrees>-0.0032640807330608367919921875</LongitudeDegrees>
            </Position>
            <AltitudeMeters>246.600006103515625</AltitudeMeters>
            <DistanceMeters>35354.338169474</DistanceMeters>
          </Trackpoint>
          <Trackpoint>
            <Time>2022-04-23T11:25:20.000Z</Time>
            <Position>
              <LatitudeDegrees>41.6953097842633724212646484375</LatitudeDegrees>
              <LongitudeDegrees>-0.00337245874106884002685546875</LongitudeDegrees>
            </Position>
            <AltitudeMeters>247.8000030517578125</AltitudeMeters>
            <DistanceMeters>35381.519962732</DistanceMeters>
          </Trackpoint>
          <Trackpoint>
            <Time>2022-04-23T11:25:22.000Z</Time>
            <Position>
              <LatitudeDegrees>41.6952350176870822906494140625</LatitudeDegrees>
              <LongitudeDegrees>-0.00341084785759449005126953125</LongitudeDegrees>
            </Position>
            <AltitudeMeters>248</AltitudeMeters>
            <DistanceMeters>35390.432232499</DistanceMeters>
          </Trackpoint>
          <Trackpoint>
            <Time>2022-04-23T11:25:23.000Z</Time>
            <Position>
              <LatitudeDegrees>41.69519822113215923309326171875</LatitudeDegrees>
              <LongitudeDegrees>-0.00342844985425472259521484375</LongitudeDegrees>
            </Position>
            <AltitudeMeters>248.1999969482421875</AltitudeMeters>
            <DistanceMeters>35394.781716394</DistanceMeters>
          </Trackpoint>
          <Trackpoint>
            <Time>2022-04-23T11:25:30.000Z</Time>
            <Position>
              <LatitudeDegrees>41.694944836199283599853515625</LatitudeDegrees>
              <LongitudeDegrees>-0.003568343818187713623046875</LongitudeDegrees>
            </Position>
            <AltitudeMeters>249.1999969482421875</AltitudeMeters>
            <DistanceMeters>35425.286327806</DistanceMeters>
          </Trackpoint>
          <Trackpoint>
            <Time>2022-04-23T11:25:38.000Z</Time>
            <Position>
              <LatitudeDegrees>41.69462439604103565216064453125</LatitudeDegrees>
              <LongitudeDegrees>-0.0037485547363758087158203125</LongitudeDegrees>
            </Position>
            <AltitudeMeters>249.8000030517578125</AltitudeMeters>
            <DistanceMeters>35463.969087627</DistanceMeters>
          </Trackpoint>
          <Trackpoint>
            <Time>2022-04-23T11:25:39.000Z</Time>
            <Position>
              <LatitudeDegrees>41.69458198361098766326904296875</LatitudeDegrees>
              <LongitudeDegrees>-0.00376380980014801025390625</LongitudeDegrees>
            </Position>
            <AltitudeMeters>249.8000030517578125</AltitudeMeters>
            <DistanceMeters>35468.857193832</DistanceMeters>
          </Trackpoint>
          <Trackpoint>
            <Time>2022-04-23T11:25:44.000Z</Time>
            <Position>
              <LatitudeDegrees>41.69437360949814319610595703125</LatitudeDegrees>
              <LongitudeDegrees>-0.0037894584238529205322265625</LongitudeDegrees>
            </Position>
            <AltitudeMeters>250.1999969482421875</AltitudeMeters>
            <DistanceMeters>35492.147464161</DistanceMeters>
          </Trackpoint>
          <Trackpoint>
            <Time>2022-04-23T11:25:45.000Z</Time>
            <Position>
              <LatitudeDegrees>41.694331951439380645751953125</LatitudeDegrees>
              <LongitudeDegrees>-0.00378283672034740447998046875</LongitudeDegrees>
            </Position>
            <AltitudeMeters>250.1999969482421875</AltitudeMeters>
            <DistanceMeters>35496.816361733</DistanceMeters>
          </Trackpoint>
          <Trackpoint>
            <Time>2022-04-23T11:25:48.000Z</Time>
            <Position>
              <LatitudeDegrees>41.694209910929203033447265625</LatitudeDegrees>
              <LongitudeDegrees>-0.00377479009330272674560546875</LongitudeDegrees>
            </Position>
            <AltitudeMeters>250.1999969482421875</AltitudeMeters>
            <DistanceMeters>35510.416142088</DistanceMeters>
          </Trackpoint>
          <Trackpoint>
            <Time>2022-04-23T11:25:52.000Z</Time>
            <Position>
              <LatitudeDegrees>41.69405199587345123291015625</LatitudeDegrees>
              <LongitudeDegrees>-0.00376674346625804901123046875</LongitudeDegrees>
            </Position>
            <AltitudeMeters>250.399993896484375</AltitudeMeters>
            <DistanceMeters>35528.005070963</DistanceMeters>
          </Trackpoint>
          <Trackpoint>
            <Time>2022-04-23T11:25:59.000Z</Time>
            <Position>
              <LatitudeDegrees>41.69376106001436710357666015625</LatitudeDegrees>
              <LongitudeDegrees>-0.00378954224288463592529296875</LongitudeDegrees>
            </Position>
            <AltitudeMeters>251.600006103515625</AltitudeMeters>
            <DistanceMeters>35560.442186234</DistanceMeters>
          </Trackpoint>
          <Trackpoint>
            <Time>2022-04-23T11:26:02.000Z</Time>
            <Position>
              <LatitudeDegrees>41.6936409473419189453125</LatitudeDegrees>
              <LongitudeDegrees>-0.00379775650799274444580078125</LongitudeDegrees>
            </Position>
            <AltitudeMeters>252.399993896484375</AltitudeMeters>
            <DistanceMeters>35573.82847911</DistanceMeters>
          </Trackpoint>
          <Trackpoint>
            <Time>2022-04-23T11:26:03.000Z</Time>
            <Position>
              <LatitudeDegrees>41.69359995983541011810302734375</LatitudeDegrees>
              <LongitudeDegrees>-0.0038092397153377532958984375</LongitudeDegrees>
            </Position>
            <AltitudeMeters>252.600006103515625</AltitudeMeters>
            <DistanceMeters>35578.489633894</DistanceMeters>
          </Trackpoint>
          <Trackpoint>
            <Time>2022-04-23T11:26:05.000Z</Time>
            <Position>
              <LatitudeDegrees>41.69351781718432903289794921875</LatitudeDegrees>
              <LongitudeDegrees>-0.00383631326258182525634765625</LongitudeDegrees>
            </Position>
            <AltitudeMeters>253</AltitudeMeters>
            <DistanceMeters>35587.905433942</DistanceMeters>
          </Trackpoint>
          <Trackpoint>
            <Time>2022-04-23T11:26:06.000Z</Time>
            <Position>
              <LatitudeDegrees>41.6934761591255664825439453125</LatitudeDegrees>
              <LongitudeDegrees>-0.00385441817343235015869140625</LongitudeDegrees>
            </Position>
            <AltitudeMeters>253.1999969482421875</AltitudeMeters>
            <DistanceMeters>35592.780591498</DistanceMeters>
          </Trackpoint>
          <Trackpoint>
            <Time>2022-04-23T11:26:07.000Z</Time>
            <Position>
              <LatitudeDegrees>41.69343500398099422454833984375</LatitudeDegrees>
              <LongitudeDegrees>-0.00387235544621944427490234375</LongitudeDegrees>
            </Position>
            <AltitudeMeters>253.399993896484375</AltitudeMeters>
            <DistanceMeters>35597.597986693</DistanceMeters>
          </Trackpoint>
          <Trackpoint>
            <Time>2022-04-23T11:26:08.000Z</Time>
            <Position>
              <LatitudeDegrees>41.69339560903608798980712890625</LatitudeDegrees>
              <LongitudeDegrees>-0.0038863532245159149169921875</LongitudeDegrees>
            </Position>
            <AltitudeMeters>253.8000030517578125</AltitudeMeters>
            <DistanceMeters>35602.135450113</DistanceMeters>
          </Trackpoint>
          <Trackpoint>
            <Time>2022-04-23T11:26:13.000Z</Time>
            <Position>
              <LatitudeDegrees>41.69318924658000469207763671875</LatitudeDegrees>
              <LongitudeDegrees>-0.00395852141082286834716796875</LongitudeDegrees>
            </Position>
            <AltitudeMeters>254</AltitudeMeters>
            <DistanceMeters>35625.874256961</DistanceMeters>
          </Trackpoint>
          <Trackpoint>
            <Time>2022-04-23T11:26:14.000Z</Time>
            <Position>
              <LatitudeDegrees>41.6931499354541301727294921875</LatitudeDegrees>
              <LongitudeDegrees>-0.0039741955697536468505859375</LongitudeDegrees>
            </Position>
            <AltitudeMeters>254</AltitudeMeters>
            <DistanceMeters>35630.43949698</DistanceMeters>
          </Trackpoint>
          <Trackpoint>
            <Time>2022-04-23T11:26:16.000Z</Time>
            <Position>
              <LatitudeDegrees>41.69306921772658824920654296875</LatitudeDegrees>
              <LongitudeDegrees>-0.0039976648986339569091796875</LongitudeDegrees>
            </Position>
            <AltitudeMeters>254.1999969482421875</AltitudeMeters>
            <DistanceMeters>35639.633055351</DistanceMeters>
          </Trackpoint>
          <Trackpoint>
            <Time>2022-04-23T11:26:20.000Z</Time>
            <Position>
              <LatitudeDegrees>41.69291180558502674102783203125</LatitudeDegrees>
              <LongitudeDegrees>-0.004065893590450286865234375</LongitudeDegrees>
            </Position>
            <AltitudeMeters>254.399993896484375</AltitudeMeters>
            <DistanceMeters>35658.048144022</DistanceMeters>
          </Trackpoint>
          <Trackpoint>
            <Time>2022-04-23T11:26:24.000Z</Time>
            <Position>
              <LatitudeDegrees>41.692770905792713165283203125</LatitudeDegrees>
              <LongitudeDegrees>-0.00414677895605564117431640625</LongitudeDegrees>
            </Position>
            <AltitudeMeters>255</AltitudeMeters>
            <DistanceMeters>35675.110137001</DistanceMeters>
          </Trackpoint>
          <Trackpoint>
            <Time>2022-04-23T11:26:28.000Z</Time>
            <Position>
              <LatitudeDegrees>41.6926406510174274444580078125</LatitudeDegrees>
              <LongitudeDegrees>-0.00424484722316265106201171875</LongitudeDegrees>
            </Position>
            <AltitudeMeters>255.8000030517578125</AltitudeMeters>
            <DistanceMeters>35691.741712441</DistanceMeters>
          </Trackpoint>
          <Trackpoint>
            <Time>2022-04-23T11:26:30.000Z</Time>
            <Position>
              <LatitudeDegrees>41.6925786249339580535888671875</LatitudeDegrees>
              <LongitudeDegrees>-0.00430284999310970306396484375</LongitudeDegrees>
            </Position>
            <AltitudeMeters>256</AltitudeMeters>
            <DistanceMeters>35700.161637035</DistanceMeters>
          </Trackpoint>
          <Trackpoint>
            <Time>2022-04-23T11:26:35.000Z</Time>
            <Position>
              <LatitudeDegrees>41.69244191609323024749755859375</LatitudeDegrees>
              <LongitudeDegrees>-0.00446093268692493438720703125</LongitudeDegrees>
            </Position>
            <AltitudeMeters>257</AltitudeMeters>
            <DistanceMeters>35720.264897249</DistanceMeters>
          </Trackpoint>
          <Trackpoint>
            <Time>2022-04-23T11:26:36.000Z</Time>
            <Position>
              <LatitudeDegrees>41.69241760857403278350830078125</LatitudeDegrees>
              <LongitudeDegrees>-0.00450518913567066192626953125</LongitudeDegrees>
            </Position>
            <AltitudeMeters>257.600006103515625</AltitudeMeters>
            <DistanceMeters>35724.830137268</DistanceMeters>
          </Trackpoint>
          <Trackpoint>
            <Time>2022-04-23T11:26:38.000Z</Time>
            <Position>
              <LatitudeDegrees>41.69238366186618804931640625</LatitudeDegrees>
              <LongitudeDegrees>-0.0045810453593730926513671875</LongitudeDegrees>
            </Position>
            <AltitudeMeters>258.399993896484375</AltitudeMeters>
            <DistanceMeters>35732.179825513</DistanceMeters>
          </Trackpoint>
          <Trackpoint>
            <Time>2022-04-23T11:26:41.000Z</Time>
            <Position>
              <LatitudeDegrees>41.69232641346752643585205078125</LatitudeDegrees>
              <LongitudeDegrees>-0.0046950392425060272216796875</LongitudeDegrees>
            </Position>
            <AltitudeMeters>259.399993896484375</AltitudeMeters>
            <DistanceMeters>35743.597276347</DistanceMeters>
          </Trackpoint>
          <Trackpoint>
            <Time>2022-04-23T11:26:42.000Z</Time>
            <Position>
              <LatitudeDegrees>41.69230881147086620330810546875</LatitudeDegrees>
              <LongitudeDegrees>-0.00474172644317150115966796875</LongitudeDegrees>
            </Position>
            <AltitudeMeters>259.399993896484375</AltitudeMeters>
            <DistanceMeters>35747.943644937</DistanceMeters>
          </Trackpoint>
          <Trackpoint>
            <Time>2022-04-23T11:26:45.000Z</Time>
            <Position>
              <LatitudeDegrees>41.6922822408378124237060546875</LatitudeDegrees>
              <LongitudeDegrees>-0.00486175529658794403076171875</LongitudeDegrees>
            </Position>
            <AltitudeMeters>260.600006103515625</AltitudeMeters>
            <DistanceMeters>35758.348093813</DistanceMeters>
          </Trackpoint>
          <Trackpoint>
            <Time>2022-04-23T11:26:48.000Z</Time>
            <Position>
              <LatitudeDegrees>41.692272685468196868896484375</LatitudeDegrees>
              <LongitudeDegrees>-0.00499603338539600372314453125</LongitudeDegrees>
            </Position>
            <AltitudeMeters>262</AltitudeMeters>
            <DistanceMeters>35769.558829914</DistanceMeters>
          </Trackpoint>
          <Trackpoint>
            <Time>2022-04-23T11:26:49.000Z</Time>
            <Position>
              <LatitudeDegrees>41.69226824305951595306396484375</LatitudeDegrees>
              <LongitudeDegrees>-0.00504146330058574676513671875</LongitudeDegrees>
            </Position>
            <AltitudeMeters>262.20001220703125</AltitudeMeters>
            <DistanceMeters>35773.367018824</DistanceMeters>
          </Trackpoint>
          <Trackpoint>
            <Time>2022-04-23T11:26:52.000Z</Time>
            <Position>
              <LatitudeDegrees>41.69225349090993404388427734375</LatitudeDegrees>
              <LongitudeDegrees>-0.0051833689212799072265625</LongitudeDegrees>
            </Position>
            <AltitudeMeters>262.79998779296875</AltitudeMeters>
            <DistanceMeters>35785.274590378</DistanceMeters>
          </Trackpoint>
          <Trackpoint>
            <Time>2022-04-23T11:26:54.000Z</Time>
            <Position>
              <LatitudeDegrees>41.69224577955901622772216796875</LatitudeDegrees>
              <LongitudeDegrees>-0.00528001226484775543212890625</LongitudeDegrees>
            </Position>
            <AltitudeMeters>263.20001220703125</AltitudeMeters>
            <DistanceMeters>35793.352420061</DistanceMeters>
          </Trackpoint>
          <Trackpoint>
            <Time>2022-04-23T11:26:57.000Z</Time>
            <Position>
              <LatitudeDegrees>41.6922212205827236175537109375</LatitudeDegrees>
              <LongitudeDegrees>-0.00542803667485713958740234375</LongitudeDegrees>
            </Position>
            <AltitudeMeters>263.79998779296875</AltitudeMeters>
            <DistanceMeters>35805.954839848</DistanceMeters>
          </Trackpoint>
          <Trackpoint>
            <Time>2022-04-23T11:26:59.000Z</Time>
            <Position>
              <LatitudeDegrees>41.69218710623681545257568359375</LatitudeDegrees>
              <LongitudeDegrees>-0.00551772303879261016845703125</LongitudeDegrees>
            </Position>
            <AltitudeMeters>264.20001220703125</AltitudeMeters>
            <DistanceMeters>35814.320429633</DistanceMeters>
          </Trackpoint>
          <Trackpoint>
            <Time>2022-04-23T11:27:02.000Z</Time>
            <Position>
              <LatitudeDegrees>41.6921065561473369598388671875</LatitudeDegrees>
              <LongitudeDegrees>-0.0056204013526439666748046875</LongitudeDegrees>
            </Position>
            <AltitudeMeters>264.600006103515625</AltitudeMeters>
            <DistanceMeters>35826.698001161</DistanceMeters>
          </Trackpoint>
          <Trackpoint>
            <Time>2022-04-23T11:27:06.000Z</Time>
            <Position>
              <LatitudeDegrees>41.6919744573533535003662109375</LatitudeDegrees>
              <LongitudeDegrees>-0.005732215940952301025390625</LongitudeDegrees>
            </Position>
            <AltitudeMeters>265.20001220703125</AltitudeMeters>
            <DistanceMeters>35844.091524413</DistanceMeters>
          </Trackpoint>
          <Trackpoint>
            <Time>2022-04-23T11:27:09.000Z</Time>
            <Position>
              <LatitudeDegrees>41.69187395833432674407958984375</LatitudeDegrees>
              <LongitudeDegrees>-0.0058229081332683563232421875</LongitudeDegrees>
            </Position>
            <AltitudeMeters>265.20001220703125</AltitudeMeters>
            <DistanceMeters>35857.579963173</DistanceMeters>
          </Trackpoint>
          <Trackpoint>
            <Time>2022-04-23T11:27:15.000Z</Time>
            <Position>
              <LatitudeDegrees>41.69170506298542022705078125</LatitudeDegrees>
              <LongitudeDegrees>-0.00607662834227085113525390625</LongitudeDegrees>
            </Position>
            <AltitudeMeters>265.399993896484375</AltitudeMeters>
            <DistanceMeters>35885.829920624</DistanceMeters>
          </Trackpoint>
          <Trackpoint>
            <Time>2022-04-23T11:27:18.000Z</Time>
            <Position>
              <LatitudeDegrees>41.6916405223309993743896484375</LatitudeDegrees>
              <LongitudeDegrees>-0.00621777959167957305908203125</LongitudeDegrees>
            </Position>
            <AltitudeMeters>265.399993896484375</AltitudeMeters>
            <DistanceMeters>35899.586165822</DistanceMeters>
          </Trackpoint>
          <Trackpoint>
            <Time>2022-04-23T11:27:21.000Z</Time>
            <Position>
              <LatitudeDegrees>41.6915617324411869049072265625</LatitudeDegrees>
              <LongitudeDegrees>-0.0063553266227245330810546875</LongitudeDegrees>
            </Position>
            <AltitudeMeters>265.79998779296875</AltitudeMeters>
            <DistanceMeters>35913.994233957</DistanceMeters>
          </Trackpoint>
          <Trackpoint>
            <Time>2022-04-23T11:27:22.000Z</Time>
            <Position>
              <LatitudeDegrees>41.69153197668492794036865234375</LatitudeDegrees>
              <LongitudeDegrees>-0.00639773905277252197265625</LongitudeDegrees>
            </Position>
            <AltitudeMeters>265.79998779296875</AltitudeMeters>
            <DistanceMeters>35918.831271073</DistanceMeters>
          </Trackpoint>
          <Trackpoint>
            <Time>2022-04-23T11:27:24.000Z</Time>
            <Position>
              <LatitudeDegrees>41.6914621554315090179443359375</LatitudeDegrees>
              <LongitudeDegrees>-0.0064636208117008209228515625</LongitudeDegrees>
            </Position>
            <AltitudeMeters>266.399993896484375</AltitudeMeters>
            <DistanceMeters>35928.337742819</DistanceMeters>
          </Trackpoint>
          <Trackpoint>
            <Time>2022-04-23T11:27:26.000Z</Time>
            <Position>
              <LatitudeDegrees>41.69137959368526935577392578125</LatitudeDegrees>
              <LongitudeDegrees>-0.00650410540401935577392578125</LongitudeDegrees>
            </Position>
            <AltitudeMeters>266.600006103515625</AltitudeMeters>
            <DistanceMeters>35938.124110417</DistanceMeters>
          </Trackpoint>
          <Trackpoint>
            <Time>2022-04-23T11:27:28.000Z</Time>
            <Position>
              <LatitudeDegrees>41.691291332244873046875</LatitudeDegrees>
              <LongitudeDegrees>-0.00652086921036243438720703125</LongitudeDegrees>
            </Position>
            <AltitudeMeters>266.600006103515625</AltitudeMeters>
            <DistanceMeters>35948.046100812</DistanceMeters>
          </Trackpoint>
          <Trackpoint>
            <Time>2022-04-23T11:27:30.000Z</Time>
            <Position>
              <LatitudeDegrees>41.69120751321315765380859375</LatitudeDegrees>
              <LongitudeDegrees>-0.00650796107947826385498046875</LongitudeDegrees>
            </Position>
            <AltitudeMeters>266.600006103515625</AltitudeMeters>
            <DistanceMeters>35957.43741364</DistanceMeters>
          </Trackpoint>
          <Trackpoint>
            <Time>2022-04-23T11:27:31.000Z</Time>
            <Position>
              <LatitudeDegrees>41.6911654360592365264892578125</LatitudeDegrees>
              <LongitudeDegrees>-0.0064978189766407012939453125</LongitudeDegrees>
            </Position>
            <AltitudeMeters>266.399993896484375</AltitudeMeters>
            <DistanceMeters>35962.196345423</DistanceMeters>
          </Trackpoint>
          <Trackpoint>
            <Time>2022-04-23T11:27:34.000Z</Time>
            <Position>
              <LatitudeDegrees>41.6910366900265216827392578125</LatitudeDegrees>
              <LongitudeDegrees>-0.0064679794013500213623046875</LongitudeDegrees>
            </Position>
            <AltitudeMeters>265.399993896484375</AltitudeMeters>
            <DistanceMeters>35976.738848314</DistanceMeters>
          </Trackpoint>
          <Trackpoint>
            <Time>2022-04-23T11:27:37.000Z</Time>
            <Position>
              <LatitudeDegrees>41.690913140773773193359375</LatitudeDegrees>
              <LongitudeDegrees>-0.006461106240749359130859375</LongitudeDegrees>
            </Position>
            <AltitudeMeters>265.20001220703125</AltitudeMeters>
            <DistanceMeters>35990.502312399</DistanceMeters>
          </Trackpoint>
          <Trackpoint>
            <Time>2022-04-23T11:27:42.000Z</Time>
            <Position>
              <LatitudeDegrees>41.6907681338489055633544921875</LatitudeDegrees>
              <LongitudeDegrees>-0.006483234465122222900390625</LongitudeDegrees>
            </Position>
            <AltitudeMeters>265.79998779296875</AltitudeMeters>
            <DistanceMeters>36006.746600437</DistanceMeters>
          </Trackpoint>
          <Trackpoint>
            <Time>2022-04-23T11:27:45.000Z</Time>
            <Position>
              <LatitudeDegrees>41.69060669839382171630859375</LatitudeDegrees>
              <LongitudeDegrees>-0.00651852227747440338134765625</LongitudeDegrees>
            </Position>
            <AltitudeMeters>266.79998779296875</AltitudeMeters>
            <DistanceMeters>36024.952340078</DistanceMeters>
          </Trackpoint>
          <Trackpoint>
            <Time>2022-04-23T11:27:52.000Z</Time>
            <Position>
              <LatitudeDegrees>41.69030050747096538543701171875</LatitudeDegrees>
              <LongitudeDegrees>-0.0065377168357372283935546875</LongitudeDegrees>
            </Position>
            <AltitudeMeters>267.600006103515625</AltitudeMeters>
            <DistanceMeters>36059.069445079</DistanceMeters>
          </Trackpoint>
          <Trackpoint>
            <Time>2022-04-23T11:27:58.000Z</Time>
            <Position>
              <LatitudeDegrees>41.6900159418582916259765625</LatitudeDegrees>
              <LongitudeDegrees>-0.00643302686512470245361328125</LongitudeDegrees>
            </Position>
            <AltitudeMeters>267.600006103515625</AltitudeMeters>
            <DistanceMeters>36091.915714474</DistanceMeters>
          </Trackpoint>
          <Trackpoint>
            <Time>2022-04-23T11:28:00.000Z</Time>
            <Position>
              <LatitudeDegrees>41.68993136845529079437255859375</LatitudeDegrees>
              <LongitudeDegrees>-0.0063942186534404754638671875</LongitudeDegrees>
            </Position>
            <AltitudeMeters>267.399993896484375</AltitudeMeters>
            <DistanceMeters>36101.865878198</DistanceMeters>
          </Trackpoint>
          <Trackpoint>
            <Time>2022-04-23T11:28:04.000Z</Time>
            <Position>
              <LatitudeDegrees>41.6897343099117279052734375</LatitudeDegrees>
              <LongitudeDegrees>-0.00632657669484615325927734375</LongitudeDegrees>
            </Position>
            <AltitudeMeters>267.399993896484375</AltitudeMeters>
            <DistanceMeters>36124.507974611</DistanceMeters>
          </Trackpoint>
          <Trackpoint>
            <Time>2022-04-23T11:28:05.000Z</Time>
            <Position>
              <LatitudeDegrees>41.68968678452074527740478515625</LatitudeDegrees>
              <LongitudeDegrees>-0.00631324946880340576171875</LongitudeDegrees>
            </Position>
            <AltitudeMeters>267.399993896484375</AltitudeMeters>
            <DistanceMeters>36129.91197935</DistanceMeters>
          </Trackpoint>
          <Trackpoint>
            <Time>2022-04-23T11:28:07.000Z</Time>
            <Position>
              <LatitudeDegrees>41.68958603404462337493896484375</LatitudeDegrees>
              <LongitudeDegrees>-0.00630394555628299713134765625</LongitudeDegrees>
            </Position>
            <AltitudeMeters>267.600006103515625</AltitudeMeters>
            <DistanceMeters>36141.152478876</DistanceMeters>
          </Trackpoint>
          <Trackpoint>
            <Time>2022-04-23T11:28:09.000Z</Time>
            <Position>
              <LatitudeDegrees>41.68950104154646396636962890625</LatitudeDegrees>
              <LongitudeDegrees>-0.00631802715361118316650390625</LongitudeDegrees>
            </Position>
            <AltitudeMeters>267.600006103515625</AltitudeMeters>
            <DistanceMeters>36150.684563075</DistanceMeters>
          </Trackpoint>
          <Trackpoint>
            <Time>2022-04-23T11:28:12.000Z</Time>
            <Position>
              <LatitudeDegrees>41.689341366291046142578125</LatitudeDegrees>
              <LongitudeDegrees>-0.0063399039208889007568359375</LongitudeDegrees>
            </Position>
            <AltitudeMeters>268</AltitudeMeters>
            <DistanceMeters>36168.549332645</DistanceMeters>
          </Trackpoint>
          <Trackpoint>
            <Time>2022-04-23T11:28:17.000Z</Time>
            <Position>
              <LatitudeDegrees>41.6890770010650157928466796875</LatitudeDegrees>
              <LongitudeDegrees>-0.00638240016996860504150390625</LongitudeDegrees>
            </Position>
            <AltitudeMeters>268.399993896484375</AltitudeMeters>
            <DistanceMeters>36198.18487271</DistanceMeters>
          </Trackpoint>
          <Trackpoint>
            <Time>2022-04-23T11:28:20.000Z</Time>
            <Position>
              <LatitudeDegrees>41.68892788700759410858154296875</LatitudeDegrees>
              <LongitudeDegrees>-0.0064371339976787567138671875</LongitudeDegrees>
            </Position>
            <AltitudeMeters>268.399993896484375</AltitudeMeters>
            <DistanceMeters>36215.393893224</DistanceMeters>
          </Trackpoint>
          <Trackpoint>
            <Time>2022-04-23T11:28:23.000Z</Time>
            <Position>
              <LatitudeDegrees>41.68881087563931941986083984375</LatitudeDegrees>
              <LongitudeDegrees>-0.00652489252388477325439453125</LongitudeDegrees>
            </Position>
            <AltitudeMeters>268.399993896484375</AltitudeMeters>
            <DistanceMeters>36230.32095376</DistanceMeters>
          </Trackpoint>
          <Trackpoint>
            <Time>2022-04-23T11:28:24.000Z</Time>
            <Position>
              <LatitudeDegrees>41.68876678682863712310791015625</LatitudeDegrees>
              <LongitudeDegrees>-0.00656981952488422393798828125</LongitudeDegrees>
            </Position>
            <AltitudeMeters>268.399993896484375</AltitudeMeters>
            <DistanceMeters>36236.486715824</DistanceMeters>
          </Trackpoint>
          <Trackpoint>
            <Time>2022-04-23T11:28:27.000Z</Time>
            <Position>
              <LatitudeDegrees>41.688685230910778045654296875</LatitudeDegrees>
              <LongitudeDegrees>-0.00669269822537899017333984375</LongitudeDegrees>
            </Position>
            <AltitudeMeters>268.79998779296875</AltitudeMeters>
            <DistanceMeters>36250.150751119</DistanceMeters>
          </Trackpoint>
          <Trackpoint>
            <Time>2022-04-23T11:28:30.000Z</Time>
            <Position>
              <LatitudeDegrees>41.68860820122063159942626953125</LatitudeDegrees>
              <LongitudeDegrees>-0.0068428181111812591552734375</LongitudeDegrees>
            </Position>
            <AltitudeMeters>269.20001220703125</AltitudeMeters>
            <DistanceMeters>36265.290150061</DistanceMeters>
          </Trackpoint>
          <Trackpoint>
            <Time>2022-04-23T11:28:32.000Z</Time>
            <Position>
              <LatitudeDegrees>41.68856914155185222625732421875</LatitudeDegrees>
              <LongitudeDegrees>-0.00692470930516719818115234375</LongitudeDegrees>
            </Position>
            <AltitudeMeters>269.600006103515625</AltitudeMeters>
            <DistanceMeters>36273.366861782</DistanceMeters>
          </Trackpoint>
          <Trackpoint>
            <Time>2022-04-23T11:28:33.000Z</Time>
            <Position>
              <LatitudeDegrees>41.68854936026036739349365234375</LatitudeDegrees>
              <LongitudeDegrees>-0.00698036514222621917724609375</LongitudeDegrees>
            </Position>
            <AltitudeMeters>270</AltitudeMeters>
            <DistanceMeters>36278.489498032</DistanceMeters>
          </Trackpoint>
          <Trackpoint>
            <Time>2022-04-23T11:28:34.000Z</Time>
            <Position>
              <LatitudeDegrees>41.68852572329342365264892578125</LatitudeDegrees>
              <LongitudeDegrees>-0.00702311284840106964111328125</LongitudeDegrees>
            </Position>
            <AltitudeMeters>270.399993896484375</AltitudeMeters>
            <DistanceMeters>36282.910028025</DistanceMeters>
          </Trackpoint>
          <Trackpoint>
            <Time>2022-04-23T11:28:35.000Z</Time>
            <Position>
              <LatitudeDegrees>41.68849940411746501922607421875</LatitudeDegrees>
              <LongitudeDegrees>-0.0070607475936412811279296875</LongitudeDegrees>
            </Position>
            <AltitudeMeters>270.600006103515625</AltitudeMeters>
            <DistanceMeters>36287.196775693</DistanceMeters>
          </Trackpoint>
          <Trackpoint>
            <Time>2022-04-23T11:28:38.000Z</Time>
            <Position>
              <LatitudeDegrees>41.688408963382244110107421875</LatitudeDegrees>
              <LongitudeDegrees>-0.00717633403837680816650390625</LongitudeDegrees>
            </Position>
            <AltitudeMeters>271.399993896484375</AltitudeMeters>
            <DistanceMeters>36301.11226919</DistanceMeters>
          </Trackpoint>
          <Trackpoint>
            <Time>2022-04-23T11:28:39.000Z</Time>
            <Position>
              <LatitudeDegrees>41.6883742623031139373779296875</LatitudeDegrees>
              <LongitudeDegrees>-0.0072099454700946807861328125</LongitudeDegrees>
            </Position>
            <AltitudeMeters>271.399993896484375</AltitudeMeters>
            <DistanceMeters>36305.878784933</DistanceMeters>
          </Trackpoint>
          <Trackpoint>
            <Time>2022-04-23T11:28:43.000Z</Time>
            <Position>
              <LatitudeDegrees>41.68823688291013240814208984375</LatitudeDegrees>
              <LongitudeDegrees>-0.007335841655731201171875</LongitudeDegrees>
            </Position>
            <AltitudeMeters>272.399993896484375</AltitudeMeters>
            <DistanceMeters>36324.407288549</DistanceMeters>
          </Trackpoint>
          <Trackpoint>
            <Time>2022-04-23T11:28:44.000Z</Time>
            <Position>
              <LatitudeDegrees>41.6882009245455265045166015625</LatitudeDegrees>
              <LongitudeDegrees>-0.00736534595489501953125</LongitudeDegrees>
            </Position>
            <AltitudeMeters>272.600006103515625</AltitudeMeters>
            <DistanceMeters>36329.101261975</DistanceMeters>
          </Trackpoint>
          <Trackpoint>
            <Time>2022-04-23T11:28:47.000Z</Time>
            <Position>
              <LatitudeDegrees>41.6880906186997890472412109375</LatitudeDegrees>
              <LongitudeDegrees>-0.00745042227208614349365234375</LongitudeDegrees>
            </Position>
            <AltitudeMeters>273</AltitudeMeters>
            <DistanceMeters>36343.269486964</DistanceMeters>
          </Trackpoint>
          <Trackpoint>
            <Time>2022-04-23T11:28:50.000Z</Time>
            <Position>
              <LatitudeDegrees>41.6879823245108127593994140625</LatitudeDegrees>
              <LongitudeDegrees>-0.007534660398960113525390625</LongitudeDegrees>
            </Position>
            <AltitudeMeters>273.79998779296875</AltitudeMeters>
            <DistanceMeters>36357.208969915</DistanceMeters>
          </Trackpoint>
          <Trackpoint>
            <Time>2022-04-23T11:28:56.000Z</Time>
            <Position>
              <LatitudeDegrees>41.68776716105639934539794921875</LatitudeDegrees>
              <LongitudeDegrees>-0.0077279470860958099365234375</LongitudeDegrees>
            </Position>
            <AltitudeMeters>274</AltitudeMeters>
            <DistanceMeters>36386.046720521</DistanceMeters>
          </Trackpoint>
          <Trackpoint>
            <Time>2022-04-23T11:28:58.000Z</Time>
            <Position>
              <LatitudeDegrees>41.68769658543169498443603515625</LatitudeDegrees>
              <LongitudeDegrees>-0.00779676251113414764404296875</LongitudeDegrees>
            </Position>
            <AltitudeMeters>274.20001220703125</AltitudeMeters>
            <DistanceMeters>36395.763637691</DistanceMeters>
          </Trackpoint>
          <Trackpoint>
            <Time>2022-04-23T11:29:03.000Z</Time>
            <Position>
              <LatitudeDegrees>41.6875266842544078826904296875</LatitudeDegrees>
              <LongitudeDegrees>-0.0079783983528614044189453125</LongitudeDegrees>
            </Position>
            <AltitudeMeters>275</AltitudeMeters>
            <DistanceMeters>36419.96132801</DistanceMeters>
          </Trackpoint>
          <Trackpoint>
            <Time>2022-04-23T11:29:05.000Z</Time>
            <Position>
              <LatitudeDegrees>41.6874663345515727996826171875</LatitudeDegrees>
              <LongitudeDegrees>-0.00803916715085506439208984375</LongitudeDegrees>
            </Position>
            <AltitudeMeters>275.399993896484375</AltitudeMeters>
            <DistanceMeters>36428.365687471</DistanceMeters>
          </Trackpoint>
          <Trackpoint>
            <Time>2022-04-23T11:29:11.000Z</Time>
            <Position>
              <LatitudeDegrees>41.68728000484406948089599609375</LatitudeDegrees>
              <LongitudeDegrees>-0.00826212577521800994873046875</LongitudeDegrees>
            </Position>
            <AltitudeMeters>276</AltitudeMeters>
            <DistanceMeters>36456.178498701</DistanceMeters>
          </Trackpoint>
          <Trackpoint>
            <Time>2022-04-23T11:29:13.000Z</Time>
            <Position>
              <LatitudeDegrees>41.687227450311183929443359375</LatitudeDegrees>
              <LongitudeDegrees>-0.00833521597087383270263671875</LongitudeDegrees>
            </Position>
            <AltitudeMeters>276.20001220703125</AltitudeMeters>
            <DistanceMeters>36464.611818455</DistanceMeters>
          </Trackpoint>
          <Trackpoint>
            <Time>2022-04-23T11:29:21.000Z</Time>
            <Position>
              <LatitudeDegrees>41.68702217750251293182373046875</LatitudeDegrees>
              <LongitudeDegrees>-0.00864584930241107940673828125</LongitudeDegrees>
            </Position>
            <AltitudeMeters>277</AltitudeMeters>
            <DistanceMeters>36499.088317151</DistanceMeters>
          </Trackpoint>
          <Trackpoint>
            <Time>2022-04-23T11:29:22.000Z</Time>
            <Position>
              <LatitudeDegrees>41.68699367903172969818115234375</LatitudeDegrees>
              <LongitudeDegrees>-0.00868591479957103729248046875</LongitudeDegrees>
            </Position>
            <AltitudeMeters>277.20001220703125</AltitudeMeters>
            <DistanceMeters>36503.687060352</DistanceMeters>
          </Trackpoint>
          <Trackpoint>
            <Time>2022-04-23T11:29:31.000Z</Time>
            <Position>
              <LatitudeDegrees>41.68672151863574981689453125</LatitudeDegrees>
              <LongitudeDegrees>-0.00901146791875362396240234375</LongitudeDegrees>
            </Position>
            <AltitudeMeters>278</AltitudeMeters>
            <DistanceMeters>36544.305173142</DistanceMeters>
          </Trackpoint>
          <Trackpoint>
            <Time>2022-04-23T11:29:33.000Z</Time>
            <Position>
              <LatitudeDegrees>41.68666116893291473388671875</LatitudeDegrees>
              <LongitudeDegrees>-0.009068548679351806640625</LongitudeDegrees>
            </Position>
            <AltitudeMeters>278.20001220703125</AltitudeMeters>
            <DistanceMeters>36552.52923981</DistanceMeters>
          </Trackpoint>
          <Trackpoint>
            <Time>2022-04-23T11:29:40.000Z</Time>
            <Position>
              <LatitudeDegrees>41.68641163967549800872802734375</LatitudeDegrees>
              <LongitudeDegrees>-0.00927683897316455841064453125</LongitudeDegrees>
            </Position>
            <AltitudeMeters>278.399993896484375</AltitudeMeters>
            <DistanceMeters>36585.256666493</DistanceMeters>
          </Trackpoint>
          <Trackpoint>
            <Time>2022-04-23T11:29:45.000Z</Time>
            <Position>
              <LatitudeDegrees>41.6862519644200801849365234375</LatitudeDegrees>
              <LongitudeDegrees>-0.00942620448768138885498046875</LongitudeDegrees>
            </Position>
            <AltitudeMeters>279.20001220703125</AltitudeMeters>
            <DistanceMeters>36606.935673818</DistanceMeters>
          </Trackpoint>
          <Trackpoint>
            <Time>2022-04-23T11:29:47.000Z</Time>
            <Position>
              <LatitudeDegrees>41.6861936263740062713623046875</LatitudeDegrees>
              <LongitudeDegrees>-0.0095002166926860809326171875</LongitudeDegrees>
            </Position>
            <AltitudeMeters>279.600006103515625</AltitudeMeters>
            <DistanceMeters>36615.880307812</DistanceMeters>
          </Trackpoint>
          <Trackpoint>
            <Time>2022-04-23T11:29:48.000Z</Time>
            <Position>
              <LatitudeDegrees>41.68616437353193759918212890625</LatitudeDegrees>
              <LongitudeDegrees>-0.0095357559621334075927734375</LongitudeDegrees>
            </Position>
            <AltitudeMeters>279.79998779296875</AltitudeMeters>
            <DistanceMeters>36620.276256355</DistanceMeters>
          </Trackpoint>
          <Trackpoint>
            <Time>2022-04-23T11:29:53.000Z</Time>
            <Position>
              <LatitudeDegrees>41.686033196747303009033203125</LatitudeDegrees>
              <LongitudeDegrees>-0.0097315572202205657958984375</LongitudeDegrees>
            </Position>
            <AltitudeMeters>280.399993896484375</AltitudeMeters>
            <DistanceMeters>36642.140249284</DistanceMeters>
          </Trackpoint>
          <Trackpoint>
            <Time>2022-04-23T11:29:54.000Z</Time>
            <Position>
              <LatitudeDegrees>41.68600662611424922943115234375</LatitudeDegrees>
              <LongitudeDegrees>-0.009769611060619354248046875</LongitudeDegrees>
            </Position>
            <AltitudeMeters>280.600006103515625</AltitudeMeters>
            <DistanceMeters>36646.469965059</DistanceMeters>
          </Trackpoint>
          <Trackpoint>
            <Time>2022-04-23T11:30:00.000Z</Time>
            <Position>
              <LatitudeDegrees>41.68585977517068386077880859375</LatitudeDegrees>
              <LongitudeDegrees>-0.01000438816845417022705078125</LongitudeDegrees>
            </Position>
            <AltitudeMeters>281.399993896484375</AltitudeMeters>
            <DistanceMeters>36671.92542077</DistanceMeters>
          </Trackpoint>
          <Trackpoint>
            <Time>2022-04-23T11:30:01.000Z</Time>
            <Position>
              <LatitudeDegrees>41.685829348862171173095703125</LatitudeDegrees>
              <LongitudeDegrees>-0.0100547634065151214599609375</LongitudeDegrees>
            </Position>
            <AltitudeMeters>281.600006103515625</AltitudeMeters>
            <DistanceMeters>36677.310174754</DistanceMeters>
          </Trackpoint>
          <Trackpoint>
            <Time>2022-04-23T11:30:08.000Z</Time>
            <Position>
              <LatitudeDegrees>41.6856196336448192596435546875</LatitudeDegrees>
              <LongitudeDegrees>-0.0103055499494075775146484375</LongitudeDegrees>
            </Position>
            <AltitudeMeters>282.600006103515625</AltitudeMeters>
            <DistanceMeters>36708.604998141</DistanceMeters>
          </Trackpoint>
          <Trackpoint>
            <Time>2022-04-23T11:30:12.000Z</Time>
            <Position>
              <LatitudeDegrees>41.6854875348508358001708984375</LatitudeDegrees>
              <LongitudeDegrees>-0.0104329548776149749755859375</LongitudeDegrees>
            </Position>
            <AltitudeMeters>283.20001220703125</AltitudeMeters>
            <DistanceMeters>36726.724477144</DistanceMeters>
          </Trackpoint>
          <Trackpoint>
            <Time>2022-04-23T11:30:15.000Z</Time>
            <Position>
              <LatitudeDegrees>41.685390137135982513427734375</LatitudeDegrees>
              <LongitudeDegrees>-0.01051300205290317535400390625</LongitudeDegrees>
            </Position>
            <AltitudeMeters>283.600006103515625</AltitudeMeters>
            <DistanceMeters>36739.44386587</DistanceMeters>
          </Trackpoint>
          <Trackpoint>
            <Time>2022-04-23T11:30:22.000Z</Time>
            <Position>
              <LatitudeDegrees>41.68515686877071857452392578125</LatitudeDegrees>
              <LongitudeDegrees>-0.01069757156074047088623046875</LongitudeDegrees>
            </Position>
            <AltitudeMeters>285</AltitudeMeters>
            <DistanceMeters>36769.601039461</DistanceMeters>
          </Trackpoint>
          <Trackpoint>
            <Time>2022-04-23T11:30:31.000Z</Time>
            <Position>
              <LatitudeDegrees>41.6848511807620525360107421875</LatitudeDegrees>
              <LongitudeDegrees>-0.010942406952381134033203125</LongitudeDegrees>
            </Position>
            <AltitudeMeters>286</AltitudeMeters>
            <DistanceMeters>36809.24665846</DistanceMeters>
          </Trackpoint>
          <Trackpoint>
            <Time>2022-04-23T11:30:33.000Z</Time>
            <Position>
              <LatitudeDegrees>41.68478429317474365234375</LatitudeDegrees>
              <LongitudeDegrees>-0.01099781133234500885009765625</LongitudeDegrees>
            </Position>
            <AltitudeMeters>286.20001220703125</AltitudeMeters>
            <DistanceMeters>36818.000986463</DistanceMeters>
          </Trackpoint>
          <Trackpoint>
            <Time>2022-04-23T11:30:38.000Z</Time>
            <Position>
              <LatitudeDegrees>41.68461606837809085845947265625</LatitudeDegrees>
              <LongitudeDegrees>-0.0111413933336734771728515625</LongitudeDegrees>
            </Position>
            <AltitudeMeters>287</AltitudeMeters>
            <DistanceMeters>36840.20513278</DistanceMeters>
          </Trackpoint>
          <Trackpoint>
            <Time>2022-04-23T11:30:42.000Z</Time>
            <Position>
              <LatitudeDegrees>41.68448832817375659942626953125</LatitudeDegrees>
              <LongitudeDegrees>-0.0112503580749034881591796875</LongitudeDegrees>
            </Position>
            <AltitudeMeters>287.79998779296875</AltitudeMeters>
            <DistanceMeters>36857.062936189</DistanceMeters>
          </Trackpoint>
          <Trackpoint>
            <Time>2022-04-23T11:30:46.000Z</Time>
            <Position>
              <LatitudeDegrees>41.68435388244688510894775390625</LatitudeDegrees>
              <LongitudeDegrees>-0.01136024482548236846923828125</LongitudeDegrees>
            </Position>
            <AltitudeMeters>288</AltitudeMeters>
            <DistanceMeters>36874.59478555</DistanceMeters>
          </Trackpoint>
          <Trackpoint>
            <Time>2022-04-23T11:30:49.000Z</Time>
            <Position>
              <LatitudeDegrees>41.68424759991466999053955078125</LatitudeDegrees>
              <LongitudeDegrees>-0.0114542059600353240966796875</LongitudeDegrees>
            </Position>
            <AltitudeMeters>288.399993896484375</AltitudeMeters>
            <DistanceMeters>36888.770019623</DistanceMeters>
          </Trackpoint>
          <Trackpoint>
            <Time>2022-04-23T11:30:54.000Z</Time>
            <Position>
              <LatitudeDegrees>41.6840921156108379364013671875</LatitudeDegrees>
              <LongitudeDegrees>-0.011586137115955352783203125</LongitudeDegrees>
            </Position>
            <AltitudeMeters>289.399993896484375</AltitudeMeters>
            <DistanceMeters>36909.257920282</DistanceMeters>
          </Trackpoint>
          <Trackpoint>
            <Time>2022-04-23T11:30:59.000Z</Time>
            <Position>
              <LatitudeDegrees>41.683922298252582550048828125</LatitudeDegrees>
              <LongitudeDegrees>-0.01171899028122425079345703125</LongitudeDegrees>
            </Position>
            <AltitudeMeters>289.79998779296875</AltitudeMeters>
            <DistanceMeters>36931.148742485</DistanceMeters>
          </Trackpoint>
          <Trackpoint>
            <Time>2022-04-23T11:31:00.000Z</Time>
            <Position>
              <LatitudeDegrees>41.68388466350734233856201171875</LatitudeDegrees>
              <LongitudeDegrees>-0.01175520010292530059814453125</LongitudeDegrees>
            </Position>
            <AltitudeMeters>289.79998779296875</AltitudeMeters>
            <DistanceMeters>36936.306513826</DistanceMeters>
          </Trackpoint>
          <Trackpoint>
            <Time>2022-04-23T11:31:02.000Z</Time>
            <Position>
              <LatitudeDegrees>41.68381961993873119354248046875</LatitudeDegrees>
              <LongitudeDegrees>-0.01181035302579402923583984375</LongitudeDegrees>
            </Position>
            <AltitudeMeters>290.399993896484375</AltitudeMeters>
            <DistanceMeters>36944.875795105</DistanceMeters>
          </Trackpoint>
          <Trackpoint>
            <Time>2022-04-23T11:31:06.000Z</Time>
            <Position>
              <LatitudeDegrees>41.6836827434599399566650390625</LatitudeDegrees>
              <LongitudeDegrees>-0.01192417927086353302001953125</LongitudeDegrees>
            </Position>
            <AltitudeMeters>290.79998779296875</AltitudeMeters>
            <DistanceMeters>36962.809428385</DistanceMeters>
          </Trackpoint>
          <Trackpoint>
            <Time>2022-04-23T11:31:13.000Z</Time>
            <Position>
              <LatitudeDegrees>41.68346154503524303436279296875</LatitudeDegrees>
              <LongitudeDegrees>-0.0121207349002361297607421875</LongitudeDegrees>
            </Position>
            <AltitudeMeters>291.399993896484375</AltitudeMeters>
            <DistanceMeters>36992.357083299</DistanceMeters>
          </Trackpoint>
          <Trackpoint>
            <Time>2022-04-23T11:31:14.000Z</Time>
            <Position>
              <LatitudeDegrees>41.68342986144125461578369140625</LatitudeDegrees>
              <LongitudeDegrees>-0.01214629970490932464599609375</LongitudeDegrees>
            </Position>
            <AltitudeMeters>291.600006103515625</AltitudeMeters>
            <DistanceMeters>36996.474054696</DistanceMeters>
          </Trackpoint>
          <Trackpoint>
            <Time>2022-04-23T11:31:18.000Z</Time>
            <Position>
              <LatitudeDegrees>41.68330916203558444976806640625</LatitudeDegrees>
              <LongitudeDegrees>-0.01225023530423641204833984375</LongitudeDegrees>
            </Position>
            <AltitudeMeters>293</AltitudeMeters>
            <DistanceMeters>37012.44645964</DistanceMeters>
          </Trackpoint>
          <Trackpoint>
            <Time>2022-04-23T11:31:21.000Z</Time>
            <Position>
              <LatitudeDegrees>41.68320489116013050079345703125</LatitudeDegrees>
              <LongitudeDegrees>-0.01232734881341457366943359375</LongitudeDegrees>
            </Position>
            <AltitudeMeters>293.79998779296875</AltitudeMeters>
            <DistanceMeters>37025.704644586</DistanceMeters>
          </Trackpoint>
          <Trackpoint>
            <Time>2022-04-23T11:31:27.000Z</Time>
            <Position>
              <LatitudeDegrees>41.68301177211105823516845703125</LatitudeDegrees>
              <LongitudeDegrees>-0.01247026026248931884765625</LongitudeDegrees>
            </Position>
            <AltitudeMeters>294.20001220703125</AltitudeMeters>
            <DistanceMeters>37050.263489548</DistanceMeters>
          </Trackpoint>
          <Trackpoint>
            <Time>2022-04-23T11:31:32.000Z</Time>
            <Position>
              <LatitudeDegrees>41.68283977545797824859619140625</LatitudeDegrees>
              <LongitudeDegrees>-0.01260596327483654022216796875</LongitudeDegrees>
            </Position>
            <AltitudeMeters>295.20001220703125</AltitudeMeters>
            <DistanceMeters>37072.483287692</DistanceMeters>
          </Trackpoint>
          <Trackpoint>
            <Time>2022-04-23T11:31:33.000Z</Time>
            <Position>
              <LatitudeDegrees>41.68281597085297107696533203125</LatitudeDegrees>
              <LongitudeDegrees>-0.0126273371279239654541015625</LongitudeDegrees>
            </Position>
            <AltitudeMeters>295.399993896484375</AltitudeMeters>
            <DistanceMeters>37075.674827482</DistanceMeters>
          </Trackpoint>
          <Trackpoint>
            <Time>2022-04-23T11:31:40.000Z</Time>
            <Position>
              <LatitudeDegrees>41.68258815072476863861083984375</LatitudeDegrees>
              <LongitudeDegrees>-0.01280377618968486785888671875</LongitudeDegrees>
            </Position>
            <AltitudeMeters>296.20001220703125</AltitudeMeters>
            <DistanceMeters>37104.967727372</DistanceMeters>
          </Trackpoint>
          <Trackpoint>
            <Time>2022-04-23T11:31:43.000Z</Time>
            <Position>
              <LatitudeDegrees>41.68248404748737812042236328125</LatitudeDegrees>
              <LongitudeDegrees>-0.01287351362407207489013671875</LongitudeDegrees>
            </Position>
            <AltitudeMeters>296.399993896484375</AltitudeMeters>
            <DistanceMeters>37117.923462046</DistanceMeters>
          </Trackpoint>
          <Trackpoint>
            <Time>2022-04-23T11:31:49.000Z</Time>
            <Position>
              <LatitudeDegrees>41.6822715662419795989990234375</LatitudeDegrees>
              <LongitudeDegrees>-0.01298784278333187103271484375</LongitudeDegrees>
            </Position>
            <AltitudeMeters>296.79998779296875</AltitudeMeters>
            <DistanceMeters>37143.411178684</DistanceMeters>
          </Trackpoint>
          <Trackpoint>
            <Time>2022-04-23T11:31:56.000Z</Time>
            <Position>
              <LatitudeDegrees>41.68201415799558162689208984375</LatitudeDegrees>
              <LongitudeDegrees>-0.0130916945636272430419921875</LongitudeDegrees>
            </Position>
            <AltitudeMeters>297.399993896484375</AltitudeMeters>
            <DistanceMeters>37173.333580652</DistanceMeters>
          </Trackpoint>
          <Trackpoint>
            <Time>2022-04-23T11:32:01.000Z</Time>
            <Position>
              <LatitudeDegrees>41.68183193542063236236572265625</LatitudeDegrees>
              <LongitudeDegrees>-0.013150535523891448974609375</LongitudeDegrees>
            </Position>
            <AltitudeMeters>297.600006103515625</AltitudeMeters>
            <DistanceMeters>37194.19686838</DistanceMeters>
          </Trackpoint>
          <Trackpoint>
            <Time>2022-04-23T11:32:06.000Z</Time>
            <Position>
              <LatitudeDegrees>41.6816409118473529815673828125</LatitudeDegrees>
              <LongitudeDegrees>-0.013189427554607391357421875</LongitudeDegrees>
            </Position>
            <AltitudeMeters>298.600006103515625</AltitudeMeters>
            <DistanceMeters>37215.70231874</DistanceMeters>
          </Trackpoint>
          <Trackpoint>
            <Time>2022-04-23T11:32:08.000Z</Time>
            <Position>
              <LatitudeDegrees>41.681560613214969635009765625</LatitudeDegrees>
              <LongitudeDegrees>-0.0132030062377452850341796875</LongitudeDegrees>
            </Position>
            <AltitudeMeters>299</AltitudeMeters>
            <DistanceMeters>37224.710831214</DistanceMeters>
          </Trackpoint>
          <Trackpoint>
            <Time>2022-04-23T11:32:16.000Z</Time>
            <Position>
              <LatitudeDegrees>41.6812583617866039276123046875</LatitudeDegrees>
              <LongitudeDegrees>-0.01327584497630596160888671875</LongitudeDegrees>
            </Position>
            <AltitudeMeters>299.600006103515625</AltitudeMeters>
            <DistanceMeters>37258.892456847</DistanceMeters>
          </Trackpoint>
          <Trackpoint>
            <Time>2022-04-23T11:32:20.000Z</Time>
            <Position>
              <LatitudeDegrees>41.68110706843435764312744140625</LatitudeDegrees>
              <LongitudeDegrees>-0.0133193470537662506103515625</LongitudeDegrees>
            </Position>
            <AltitudeMeters>300.20001220703125</AltitudeMeters>
            <DistanceMeters>37276.115377073</DistanceMeters>
          </Trackpoint>
          <Trackpoint>
            <Time>2022-04-23T11:32:21.000Z</Time>
            <Position>
              <LatitudeDegrees>41.6810696013271808624267578125</LatitudeDegrees>
              <LongitudeDegrees>-0.01332881860435009002685546875</LongitudeDegrees>
            </Position>
            <AltitudeMeters>300.79998779296875</AltitudeMeters>
            <DistanceMeters>37280.359785454</DistanceMeters>
          </Trackpoint>
          <Trackpoint>
            <Time>2022-04-23T11:32:26.000Z</Time>
            <Position>
              <LatitudeDegrees>41.68088025413453578948974609375</LatitudeDegrees>
              <LongitudeDegrees>-0.01338422298431396484375</LongitudeDegrees>
            </Position>
            <AltitudeMeters>301.399993896484375</AltitudeMeters>
            <DistanceMeters>37301.931896141</DistanceMeters>
          </Trackpoint>
          <Trackpoint>
            <Time>2022-04-23T11:32:27.000Z</Time>
            <Position>
              <LatitudeDegrees>41.6808427870273590087890625</LatitudeDegrees>
              <LongitudeDegrees>-0.0133924372494220733642578125</LongitudeDegrees>
            </Position>
            <AltitudeMeters>301.399993896484375</AltitudeMeters>
            <DistanceMeters>37306.157113429</DistanceMeters>
          </Trackpoint>
          <Trackpoint>
            <Time>2022-04-23T11:32:31.000Z</Time>
            <Position>
              <LatitudeDegrees>41.6806914098560810089111328125</LatitudeDegrees>
              <LongitudeDegrees>-0.01342244446277618408203125</LongitudeDegrees>
            </Position>
            <AltitudeMeters>301.79998779296875</AltitudeMeters>
            <DistanceMeters>37323.189442566</DistanceMeters>
          </Trackpoint>
          <Trackpoint>
            <Time>2022-04-23T11:32:36.000Z</Time>
            <Position>
              <LatitudeDegrees>41.68050055392086505889892578125</LatitudeDegrees>
              <LongitudeDegrees>-0.01345739699900150299072265625</LongitudeDegrees>
            </Position>
            <AltitudeMeters>302.79998779296875</AltitudeMeters>
            <DistanceMeters>37344.630131258</DistanceMeters>
          </Trackpoint>
          <Trackpoint>
            <Time>2022-04-23T11:32:44.000Z</Time>
            <Position>
              <LatitudeDegrees>41.68016888201236724853515625</LatitudeDegrees>
              <LongitudeDegrees>-0.01352026127278804779052734375</LongitudeDegrees>
            </Position>
            <AltitudeMeters>303.600006103515625</AltitudeMeters>
            <DistanceMeters>37381.913920466</DistanceMeters>
          </Trackpoint>
          <Trackpoint>
            <Time>2022-04-23T11:32:46.000Z</Time>
            <Position>
              <LatitudeDegrees>41.68009269051253795623779296875</LatitudeDegrees>
              <LongitudeDegrees>-0.0135491788387298583984375</LongitudeDegrees>
            </Position>
            <AltitudeMeters>303.600006103515625</AltitudeMeters>
            <DistanceMeters>37390.728384586</DistanceMeters>
          </Trackpoint>
          <Trackpoint>
            <Time>2022-04-23T11:32:48.000Z</Time>
            <Position>
              <LatitudeDegrees>41.680014319717884063720703125</LatitudeDegrees>
              <LongitudeDegrees>-0.0135801918804645538330078125</LongitudeDegrees>
            </Position>
            <AltitudeMeters>303.79998779296875</AltitudeMeters>
            <DistanceMeters>37399.824183638</DistanceMeters>
          </Trackpoint>
          <Trackpoint>
            <Time>2022-04-23T11:32:50.000Z</Time>
            <Position>
              <LatitudeDegrees>41.67994600720703601837158203125</LatitudeDegrees>
              <LongitudeDegrees>-0.0136187486350536346435546875</LongitudeDegrees>
            </Position>
            <AltitudeMeters>303.79998779296875</AltitudeMeters>
            <DistanceMeters>37408.075107605</DistanceMeters>
          </Trackpoint>
          <Trackpoint>
            <Time>2022-04-23T11:32:52.000Z</Time>
            <Position>
              <LatitudeDegrees>41.67987040244042873382568359375</LatitudeDegrees>
              <LongitudeDegrees>-0.01365839503705501556396484375</LongitudeDegrees>
            </Position>
            <AltitudeMeters>303.79998779296875</AltitudeMeters>
            <DistanceMeters>37417.112143145</DistanceMeters>
          </Trackpoint>
          <Trackpoint>
            <Time>2022-04-23T11:33:00.000Z</Time>
            <Position>
              <LatitudeDegrees>41.67959413491189479827880859375</LatitudeDegrees>
              <LongitudeDegrees>-0.01382050104439258575439453125</LongitudeDegrees>
            </Position>
            <AltitudeMeters>304.20001220703125</AltitudeMeters>
            <DistanceMeters>37450.684423697</DistanceMeters>
          </Trackpoint>
          <Trackpoint>
            <Time>2022-04-23T11:33:02.000Z</Time>
            <Position>
              <LatitudeDegrees>41.6795273311436176300048828125</LatitudeDegrees>
              <LongitudeDegrees>-0.01385637558996677398681640625</LongitudeDegrees>
            </Position>
            <AltitudeMeters>304.79998779296875</AltitudeMeters>
            <DistanceMeters>37458.696026742</DistanceMeters>
          </Trackpoint>
          <Trackpoint>
            <Time>2022-04-23T11:33:05.000Z</Time>
            <Position>
              <LatitudeDegrees>41.67941040359437465667724609375</LatitudeDegrees>
              <LongitudeDegrees>-0.01391253434121608734130859375</LongitudeDegrees>
            </Position>
            <AltitudeMeters>305.79998779296875</AltitudeMeters>
            <DistanceMeters>37472.522658595</DistanceMeters>
          </Trackpoint>
          <Trackpoint>
            <Time>2022-04-23T11:33:07.000Z</Time>
            <Position>
              <LatitudeDegrees>41.67934401892125606536865234375</LatitudeDegrees>
              <LongitudeDegrees>-0.0139422900974750518798828125</LongitudeDegrees>
            </Position>
            <AltitudeMeters>306.20001220703125</AltitudeMeters>
            <DistanceMeters>37480.315428583</DistanceMeters>
          </Trackpoint>
          <Trackpoint>
            <Time>2022-04-23T11:33:12.000Z</Time>
            <Position>
              <LatitudeDegrees>41.67915743775665760040283203125</LatitudeDegrees>
              <LongitudeDegrees>-0.01404211856424808502197265625</LongitudeDegrees>
            </Position>
            <AltitudeMeters>306.79998779296875</AltitudeMeters>
            <DistanceMeters>37502.679234474</DistanceMeters>
          </Trackpoint>
          <Trackpoint>
            <Time>2022-04-23T11:33:16.000Z</Time>
            <Position>
              <LatitudeDegrees>41.67900639586150646209716796875</LatitudeDegrees>
              <LongitudeDegrees>-0.01415468752384185791015625</LongitudeDegrees>
            </Position>
            <AltitudeMeters>307.20001220703125</AltitudeMeters>
            <DistanceMeters>37521.919269655</DistanceMeters>
          </Trackpoint>
          <Trackpoint>
            <Time>2022-04-23T11:33:27.000Z</Time>
            <Position>
              <LatitudeDegrees>41.678660474717617034912109375</LatitudeDegrees>
              <LongitudeDegrees>-0.01446724869310855865478515625</LongitudeDegrees>
            </Position>
            <AltitudeMeters>307.79998779296875</AltitudeMeters>
            <DistanceMeters>37568.368187665</DistanceMeters>
          </Trackpoint>
          <Trackpoint>
            <Time>2022-04-23T11:33:28.000Z</Time>
            <Position>
              <LatitudeDegrees>41.67862803675234317779541015625</LatitudeDegrees>
              <LongitudeDegrees>-0.01448870636522769927978515625</LongitudeDegrees>
            </Position>
            <AltitudeMeters>308</AltitudeMeters>
            <DistanceMeters>37572.395347618</DistanceMeters>
          </Trackpoint>
          <Trackpoint>
            <Time>2022-04-23T11:33:33.000Z</Time>
            <Position>
              <LatitudeDegrees>41.678461320698261260986328125</LatitudeDegrees>
              <LongitudeDegrees>-0.01459264196455478668212890625</LongitudeDegrees>
            </Position>
            <AltitudeMeters>309.20001220703125</AltitudeMeters>
            <DistanceMeters>37592.864287182</DistanceMeters>
          </Trackpoint>
          <Trackpoint>
            <Time>2022-04-23T11:33:38.000Z</Time>
            <Position>
              <LatitudeDegrees>41.67829695157706737518310546875</LatitudeDegrees>
              <LongitudeDegrees>-0.01470009796321392059326171875</LongitudeDegrees>
            </Position>
            <AltitudeMeters>309.79998779296875</AltitudeMeters>
            <DistanceMeters>37613.223525108</DistanceMeters>
          </Trackpoint>
          <Trackpoint>
            <Time>2022-04-23T11:33:42.000Z</Time>
            <Position>
              <LatitudeDegrees>41.6781691275537014007568359375</LatitudeDegrees>
              <LongitudeDegrees>-0.0147895328700542449951171875</LongitudeDegrees>
            </Position>
            <AltitudeMeters>310.399993896484375</AltitudeMeters>
            <DistanceMeters>37629.276009694</DistanceMeters>
          </Trackpoint>
          <Trackpoint>
            <Time>2022-04-23T11:33:46.000Z</Time>
            <Position>
              <LatitudeDegrees>41.67803786695003509521484375</LatitudeDegrees>
              <LongitudeDegrees>-0.0148741900920867919921875</LongitudeDegrees>
            </Position>
            <AltitudeMeters>311.600006103515625</AltitudeMeters>
            <DistanceMeters>37645.492479292</DistanceMeters>
          </Trackpoint>
          <Trackpoint>
            <Time>2022-04-23T11:33:49.000Z</Time>
            <Position>
              <LatitudeDegrees>41.67793770320713520050048828125</LatitudeDegrees>
              <LongitudeDegrees>-0.01492875628173351287841796875</LongitudeDegrees>
            </Position>
            <AltitudeMeters>312.20001220703125</AltitudeMeters>
            <DistanceMeters>37657.528279486</DistanceMeters>
          </Trackpoint>
          <Trackpoint>
            <Time>2022-04-23T11:33:53.000Z</Time>
            <Position>
              <LatitudeDegrees>41.67780543677508831024169921875</LatitudeDegrees>
              <LongitudeDegrees>-0.01500452868640422821044921875</LongitudeDegrees>
            </Position>
            <AltitudeMeters>312.600006103515625</AltitudeMeters>
            <DistanceMeters>37673.540774312</DistanceMeters>
          </Trackpoint>
          <Trackpoint>
            <Time>2022-04-23T11:33:58.000Z</Time>
            <Position>
              <LatitudeDegrees>41.67763955891132354736328125</LatitudeDegrees>
              <LongitudeDegrees>-0.01510712318122386932373046875</LongitudeDegrees>
            </Position>
            <AltitudeMeters>313.600006103515625</AltitudeMeters>
            <DistanceMeters>37693.878045303</DistanceMeters>
          </Trackpoint>
          <Trackpoint>
            <Time>2022-04-23T11:34:07.000Z</Time>
            <Position>
              <LatitudeDegrees>41.67734594084322452545166015625</LatitudeDegrees>
              <LongitudeDegrees>-0.0152706541121006011962890625</LongitudeDegrees>
            </Position>
            <AltitudeMeters>314.399993896484375</AltitudeMeters>
            <DistanceMeters>37729.273168494</DistanceMeters>
          </Trackpoint>
          <Trackpoint>
            <Time>2022-04-23T11:34:08.000Z</Time>
            <Position>
              <LatitudeDegrees>41.6773161850869655609130859375</LatitudeDegrees>
              <LongitudeDegrees>-0.01528817228972911834716796875</LongitudeDegrees>
            </Position>
            <AltitudeMeters>314.600006103515625</AltitudeMeters>
            <DistanceMeters>37732.891677972</DistanceMeters>
          </Trackpoint>
          <Trackpoint>
            <Time>2022-04-23T11:34:12.000Z</Time>
            <Position>
              <LatitudeDegrees>41.67719054035842418670654296875</LatitudeDegrees>
              <LongitudeDegrees>-0.01536126248538494110107421875</LongitudeDegrees>
            </Position>
            <AltitudeMeters>315.79998779296875</AltitudeMeters>
            <DistanceMeters>37748.139246569</DistanceMeters>
          </Trackpoint>
          <Trackpoint>
            <Time>2022-04-23T11:34:15.000Z</Time>
            <Position>
              <LatitudeDegrees>41.67709096334874629974365234375</LatitudeDegrees>
              <LongitudeDegrees>-0.015426389873027801513671875</LongitudeDegrees>
            </Position>
            <AltitudeMeters>316.399993896484375</AltitudeMeters>
            <DistanceMeters>37760.474065498</DistanceMeters>
          </Trackpoint>
          <Trackpoint>
            <Time>2022-04-23T11:34:17.000Z</Time>
            <Position>
              <LatitudeDegrees>41.6770278476178646087646484375</LatitudeDegrees>
              <LongitudeDegrees>-0.0154771842062473297119140625</LongitudeDegrees>
            </Position>
            <AltitudeMeters>316.79998779296875</AltitudeMeters>
            <DistanceMeters>37768.670636045</DistanceMeters>
          </Trackpoint>
          <Trackpoint>
            <Time>2022-04-23T11:34:23.000Z</Time>
            <Position>
              <LatitudeDegrees>41.6768367402255535125732421875</LatitudeDegrees>
              <LongitudeDegrees>-0.01563266851007938385009765625</LongitudeDegrees>
            </Position>
            <AltitudeMeters>317.600006103515625</AltitudeMeters>
            <DistanceMeters>37793.560561607</DistanceMeters>
          </Trackpoint>
          <Trackpoint>
            <Time>2022-04-23T11:34:27.000Z</Time>
            <Position>
              <LatitudeDegrees>41.67670807801187038421630859375</LatitudeDegrees>
              <LongitudeDegrees>-0.01573861576616764068603515625</LongitudeDegrees>
            </Position>
            <AltitudeMeters>318</AltitudeMeters>
            <DistanceMeters>37810.373040688</DistanceMeters>
          </Trackpoint>
          <Trackpoint>
            <Time>2022-04-23T11:34:30.000Z</Time>
            <Position>
              <LatitudeDegrees>41.676607914268970489501953125</LatitudeDegrees>
              <LongitudeDegrees>-0.01581153832376003265380859375</LongitudeDegrees>
            </Position>
            <AltitudeMeters>318.399993896484375</AltitudeMeters>
            <DistanceMeters>37823.063288254</DistanceMeters>
          </Trackpoint>
          <Trackpoint>
            <Time>2022-04-23T11:34:35.000Z</Time>
            <Position>
              <LatitudeDegrees>41.676444299519062042236328125</LatitudeDegrees>
              <LongitudeDegrees>-0.01594196073710918426513671875</LongitudeDegrees>
            </Position>
            <AltitudeMeters>319.20001220703125</AltitudeMeters>
            <DistanceMeters>37844.257441283</DistanceMeters>
          </Trackpoint>
          <Trackpoint>
            <Time>2022-04-23T11:34:40.000Z</Time>
            <Position>
              <LatitudeDegrees>41.6762816905975341796875</LatitudeDegrees>
              <LongitudeDegrees>-0.01604991964995861053466796875</LongitudeDegrees>
            </Position>
            <AltitudeMeters>320</AltitudeMeters>
            <DistanceMeters>37864.459056932</DistanceMeters>
          </Trackpoint>
          <Trackpoint>
            <Time>2022-04-23T11:34:41.000Z</Time>
            <Position>
              <LatitudeDegrees>41.6762503422796726226806640625</LatitudeDegrees>
              <LongitudeDegrees>-0.016070790588855743408203125</LongitudeDegrees>
            </Position>
            <AltitudeMeters>320.20001220703125</AltitudeMeters>
            <DistanceMeters>37868.356310911</DistanceMeters>
          </Trackpoint>
          <Trackpoint>
            <Time>2022-04-23T11:34:47.000Z</Time>
            <Position>
              <LatitudeDegrees>41.67605831287801265716552734375</LatitudeDegrees>
              <LongitudeDegrees>-0.0161799229681491851806640625</LongitudeDegrees>
            </Position>
            <AltitudeMeters>321.20001220703125</AltitudeMeters>
            <DistanceMeters>37891.575131378</DistanceMeters>
          </Trackpoint>
          <Trackpoint>
            <Time>2022-04-23T11:34:52.000Z</Time>
            <Position>
              <LatitudeDegrees>41.67589587159454822540283203125</LatitudeDegrees>
              <LongitudeDegrees>-0.01627019606530666351318359375</LongitudeDegrees>
            </Position>
            <AltitudeMeters>322.399993896484375</AltitudeMeters>
            <DistanceMeters>37911.151095827</DistanceMeters>
          </Trackpoint>
          <Trackpoint>
            <Time>2022-04-23T11:34:56.000Z</Time>
            <Position>
              <LatitudeDegrees>41.675766371190547943115234375</LatitudeDegrees>
              <LongitudeDegrees>-0.0163368321955204010009765625</LongitudeDegrees>
            </Position>
            <AltitudeMeters>322.79998779296875</AltitudeMeters>
            <DistanceMeters>37926.592863815</DistanceMeters>
          </Trackpoint>
          <Trackpoint>
            <Time>2022-04-23T11:35:02.000Z</Time>
            <Position>
              <LatitudeDegrees>41.6755600087344646453857421875</LatitudeDegrees>
              <LongitudeDegrees>-0.01641956157982349395751953125</LongitudeDegrees>
            </Position>
            <AltitudeMeters>323.399993896484375</AltitudeMeters>
            <DistanceMeters>37950.568990825</DistanceMeters>
          </Trackpoint>
          <Trackpoint>
            <Time>2022-04-23T11:35:06.000Z</Time>
            <Position>
              <LatitudeDegrees>41.67542480863630771636962890625</LatitudeDegrees>
              <LongitudeDegrees>-0.01646297983825206756591796875</LongitudeDegrees>
            </Position>
            <AltitudeMeters>324.399993896484375</AltitudeMeters>
            <DistanceMeters>37966.044055519</DistanceMeters>
          </Trackpoint>
          <Trackpoint>
            <Time>2022-04-23T11:35:07.000Z</Time>
            <Position>
              <LatitudeDegrees>41.6753917001187801361083984375</LatitudeDegrees>
              <LongitudeDegrees>-0.01647479832172393798828125</LongitudeDegrees>
            </Position>
            <AltitudeMeters>324.399993896484375</AltitudeMeters>
            <DistanceMeters>37969.856983931</DistanceMeters>
          </Trackpoint>
          <Trackpoint>
            <Time>2022-04-23T11:35:13.000Z</Time>
            <Position>
              <LatitudeDegrees>41.6751761175692081451416015625</LatitudeDegrees>
              <LongitudeDegrees>-0.01652986742556095123291015625</LongitudeDegrees>
            </Position>
            <AltitudeMeters>325.399993896484375</AltitudeMeters>
            <DistanceMeters>37994.284580035</DistanceMeters>
          </Trackpoint>
          <Trackpoint>
            <Time>2022-04-23T11:35:15.000Z</Time>
            <Position>
              <LatitudeDegrees>41.6751036979258060455322265625</LatitudeDegrees>
              <LongitudeDegrees>-0.01654076389968395233154296875</LongitudeDegrees>
            </Position>
            <AltitudeMeters>325.79998779296875</AltitudeMeters>
            <DistanceMeters>38002.395876909</DistanceMeters>
          </Trackpoint>
          <Trackpoint>
            <Time>2022-04-23T11:35:20.000Z</Time>
            <Position>
              <LatitudeDegrees>41.67491384781897068023681640625</LatitudeDegrees>
              <LongitudeDegrees>-0.0165420211851596832275390625</LongitudeDegrees>
            </Position>
            <AltitudeMeters>327</AltitudeMeters>
            <DistanceMeters>38023.526664635</DistanceMeters>
          </Trackpoint>
          <Trackpoint>
            <Time>2022-04-23T11:35:22.000Z</Time>
            <Position>
              <LatitudeDegrees>41.6748358123004436492919921875</LatitudeDegrees>
              <LongitudeDegrees>-0.016542188823223114013671875</LongitudeDegrees>
            </Position>
            <AltitudeMeters>327.20001220703125</AltitudeMeters>
            <DistanceMeters>38032.211087383</DistanceMeters>
          </Trackpoint>
          <Trackpoint>
            <Time>2022-04-23T11:35:26.000Z</Time>
            <Position>
              <LatitudeDegrees>41.67467814870178699493408203125</LatitudeDegrees>
              <LongitudeDegrees>-0.016538836061954498291015625</LongitudeDegrees>
            </Position>
            <AltitudeMeters>328</AltitudeMeters>
            <DistanceMeters>38049.760954828</DistanceMeters>
          </Trackpoint>
          <Trackpoint>
            <Time>2022-04-23T11:35:31.000Z</Time>
            <Position>
              <LatitudeDegrees>41.67448486201465129852294921875</LatitudeDegrees>
              <LongitudeDegrees>-0.01651645638048648834228515625</LongitudeDegrees>
            </Position>
            <AltitudeMeters>328.399993896484375</AltitudeMeters>
            <DistanceMeters>38071.35440354</DistanceMeters>
          </Trackpoint>
          <Trackpoint>
            <Time>2022-04-23T11:35:35.000Z</Time>
            <Position>
              <LatitudeDegrees>41.6743355803191661834716796875</LatitudeDegrees>
              <LongitudeDegrees>-0.01648686826229095458984375</LongitudeDegrees>
            </Position>
            <AltitudeMeters>329</AltitudeMeters>
            <DistanceMeters>38088.150761724</DistanceMeters>
          </Trackpoint>
          <Trackpoint>
            <Time>2022-04-23T11:35:39.000Z</Time>
            <Position>
              <LatitudeDegrees>41.67418931610882282257080078125</LatitudeDegrees>
              <LongitudeDegrees>-0.01647102646529674530029296875</LongitudeDegrees>
            </Position>
            <AltitudeMeters>330</AltitudeMeters>
            <DistanceMeters>38104.483197493</DistanceMeters>
          </Trackpoint>
          <Trackpoint>
            <Time>2022-04-23T11:35:40.000Z</Time>
            <Position>
              <LatitudeDegrees>41.67415226809680461883544921875</LatitudeDegrees>
              <LongitudeDegrees>-0.0164685957133769989013671875</LongitudeDegrees>
            </Position>
            <AltitudeMeters>330.20001220703125</AltitudeMeters>
            <DistanceMeters>38108.611121215</DistanceMeters>
          </Trackpoint>
          <Trackpoint>
            <Time>2022-04-23T11:35:45.000Z</Time>
            <Position>
              <LatitudeDegrees>41.67397742159664630889892578125</LatitudeDegrees>
              <LongitudeDegrees>-0.01645007170736789703369140625</LongitudeDegrees>
            </Position>
            <AltitudeMeters>331.20001220703125</AltitudeMeters>
            <DistanceMeters>38128.132578284</DistanceMeters>
          </Trackpoint>
          <Trackpoint>
            <Time>2022-04-23T11:35:46.000Z</Time>
            <Position>
              <LatitudeDegrees>41.67393802665174007415771484375</LatitudeDegrees>
              <LongitudeDegrees>-0.01644722186028957366943359375</LongitudeDegrees>
            </Position>
            <AltitudeMeters>331.399993896484375</AltitudeMeters>
            <DistanceMeters>38132.523388369</DistanceMeters>
          </Trackpoint>
          <Trackpoint>
            <Time>2022-04-23T11:35:50.000Z</Time>
            <Position>
              <LatitudeDegrees>41.673811376094818115234375</LatitudeDegrees>
              <LongitudeDegrees>-0.0164521671831607818603515625</LongitudeDegrees>
            </Position>
            <AltitudeMeters>332.20001220703125</AltitudeMeters>
            <DistanceMeters>38146.62581382</DistanceMeters>
          </Trackpoint>
          <Trackpoint>
            <Time>2022-04-23T11:35:53.000Z</Time>
            <Position>
              <LatitudeDegrees>41.67370073497295379638671875</LatitudeDegrees>
              <LongitudeDegrees>-0.01648393459618091583251953125</LongitudeDegrees>
            </Position>
            <AltitudeMeters>333</AltitudeMeters>
            <DistanceMeters>38159.220349255</DistanceMeters>
          </Trackpoint>
          <Trackpoint>
            <Time>2022-04-23T11:35:55.000Z</Time>
            <Position>
              <LatitudeDegrees>41.6736154071986675262451171875</LatitudeDegrees>
              <LongitudeDegrees>-0.01650153659284114837646484375</LongitudeDegrees>
            </Position>
            <AltitudeMeters>333.399993896484375</AltitudeMeters>
            <DistanceMeters>38168.829800941</DistanceMeters>
          </Trackpoint>
          <Trackpoint>
            <Time>2022-04-23T11:36:00.000Z</Time>
            <Position>
              <LatitudeDegrees>41.6734484396874904632568359375</LatitudeDegrees>
              <LongitudeDegrees>-0.016541182994842529296875</LongitudeDegrees>
            </Position>
            <AltitudeMeters>334</AltitudeMeters>
            <DistanceMeters>38187.703551378</DistanceMeters>
          </Trackpoint>
          <Trackpoint>
            <Time>2022-04-23T11:36:02.000Z</Time>
            <Position>
              <LatitudeDegrees>41.673379875719547271728515625</LatitudeDegrees>
              <LongitudeDegrees>-0.01656062901020050048828125</LongitudeDegrees>
            </Position>
            <AltitudeMeters>334.600006103515625</AltitudeMeters>
            <DistanceMeters>38195.505007347</DistanceMeters>
          </Trackpoint>
          <Trackpoint>
            <Time>2022-04-23T11:36:06.000Z</Time>
            <Position>
              <LatitudeDegrees>41.67325104586780071258544921875</LatitudeDegrees>
              <LongitudeDegrees>-0.01660622656345367431640625</LongitudeDegrees>
            </Position>
            <AltitudeMeters>335.20001220703125</AltitudeMeters>
            <DistanceMeters>38210.336482735</DistanceMeters>
          </Trackpoint>
          <Trackpoint>
            <Time>2022-04-23T11:36:08.000Z</Time>
            <Position>
              <LatitudeDegrees>41.673188768327236175537109375</LatitudeDegrees>
              <LongitudeDegrees>-0.01663296483457088470458984375</LongitudeDegrees>
            </Position>
            <AltitudeMeters>335.600006103515625</AltitudeMeters>
            <DistanceMeters>38217.615801973</DistanceMeters>
          </Trackpoint>
          <Trackpoint>
            <Time>2022-04-23T11:36:14.000Z</Time>
            <Position>
              <LatitudeDegrees>41.672999002039432525634765625</LatitudeDegrees>
              <LongitudeDegrees>-0.016701109707355499267578125</LongitudeDegrees>
            </Position>
            <AltitudeMeters>336.600006103515625</AltitudeMeters>
            <DistanceMeters>38239.483924625</DistanceMeters>
          </Trackpoint>
          <Trackpoint>
            <Time>2022-04-23T11:36:18.000Z</Time>
            <Position>
              <LatitudeDegrees>41.67287168093025684356689453125</LatitudeDegrees>
              <LongitudeDegrees>-0.01673639751970767974853515625</LongitudeDegrees>
            </Position>
            <AltitudeMeters>337.79998779296875</AltitudeMeters>
            <DistanceMeters>38253.955466799</DistanceMeters>
          </Trackpoint>
          <Trackpoint>
            <Time>2022-04-23T11:36:21.000Z</Time>
            <Position>
              <LatitudeDegrees>41.67278082109987735748291015625</LatitudeDegrees>
              <LongitudeDegrees>-0.01678057014942169189453125</LongitudeDegrees>
            </Position>
            <AltitudeMeters>338</AltitudeMeters>
            <DistanceMeters>38264.714908235</DistanceMeters>
          </Trackpoint>
          <Trackpoint>
            <Time>2022-04-23T11:36:24.000Z</Time>
            <Position>
              <LatitudeDegrees>41.6726903803646564483642578125</LatitudeDegrees>
              <LongitudeDegrees>-0.01682273112237453460693359375</LongitudeDegrees>
            </Position>
            <AltitudeMeters>338.79998779296875</AltitudeMeters>
            <DistanceMeters>38275.374008657</DistanceMeters>
          </Trackpoint>
          <Trackpoint>
            <Time>2022-04-23T11:36:29.000Z</Time>
            <Position>
              <LatitudeDegrees>41.6725297830998897552490234375</LatitudeDegrees>
              <LongitudeDegrees>-0.0168970786035060882568359375</LongitudeDegrees>
            </Position>
            <AltitudeMeters>340.20001220703125</AltitudeMeters>
            <DistanceMeters>38294.28742845</DistanceMeters>
          </Trackpoint>
          <Trackpoint>
            <Time>2022-04-23T11:36:31.000Z</Time>
            <Position>
              <LatitudeDegrees>41.67246834374964237213134765625</LatitudeDegrees>
              <LongitudeDegrees>-0.01691694371402263641357421875</LongitudeDegrees>
            </Position>
            <AltitudeMeters>340.600006103515625</AltitudeMeters>
            <DistanceMeters>38301.321973134</DistanceMeters>
          </Trackpoint>
          <Trackpoint>
            <Time>2022-04-23T11:36:36.000Z</Time>
            <Position>
              <LatitudeDegrees>41.6723202355206012725830078125</LatitudeDegrees>
              <LongitudeDegrees>-0.016951896250247955322265625</LongitudeDegrees>
            </Position>
            <AltitudeMeters>341.20001220703125</AltitudeMeters>
            <DistanceMeters>38318.060707014</DistanceMeters>
          </Trackpoint>
          <Trackpoint>
            <Time>2022-04-23T11:36:43.000Z</Time>
            <Position>
              <LatitudeDegrees>41.6720999591052532196044921875</LatitudeDegrees>
              <LongitudeDegrees>-0.0170315243303775787353515625</LongitudeDegrees>
            </Position>
            <AltitudeMeters>341.600006103515625</AltitudeMeters>
            <DistanceMeters>38343.456140848</DistanceMeters>
          </Trackpoint>
          <Trackpoint>
            <Time>2022-04-23T11:36:46.000Z</Time>
            <Position>
              <LatitudeDegrees>41.6720077581703662872314453125</LatitudeDegrees>
              <LongitudeDegrees>-0.01705683767795562744140625</LongitudeDegrees>
            </Position>
            <AltitudeMeters>342.20001220703125</AltitudeMeters>
            <DistanceMeters>38353.931516209</DistanceMeters>
          </Trackpoint>
          <Trackpoint>
            <Time>2022-04-23T11:36:51.000Z</Time>
            <Position>
              <LatitudeDegrees>41.67185076512396335601806640625</LatitudeDegrees>
              <LongitudeDegrees>-0.017089359462261199951171875</LongitudeDegrees>
            </Position>
            <AltitudeMeters>342.79998779296875</AltitudeMeters>
            <DistanceMeters>38371.613125486</DistanceMeters>
          </Trackpoint>
          <Trackpoint>
            <Time>2022-04-23T11:36:53.000Z</Time>
            <Position>
              <LatitudeDegrees>41.67177817784249782562255859375</LatitudeDegrees>
              <LongitudeDegrees>-0.01709899865090847015380859375</LongitudeDegrees>
            </Position>
            <AltitudeMeters>343.20001220703125</AltitudeMeters>
            <DistanceMeters>38379.732211521</DistanceMeters>
          </Trackpoint>
          <Trackpoint>
            <Time>2022-04-23T11:36:59.000Z</Time>
            <Position>
              <LatitudeDegrees>41.67159444652497768402099609375</LatitudeDegrees>
              <LongitudeDegrees>-0.01712079159915447235107421875</LongitudeDegrees>
            </Position>
            <AltitudeMeters>344.399993896484375</AltitudeMeters>
            <DistanceMeters>38400.26194089</DistanceMeters>
          </Trackpoint>
          <Trackpoint>
            <Time>2022-04-23T11:37:02.000Z</Time>
            <Position>
              <LatitudeDegrees>41.67149369604885578155517578125</LatitudeDegrees>
              <LongitudeDegrees>-0.017134957015514373779296875</LongitudeDegrees>
            </Position>
            <AltitudeMeters>344.79998779296875</AltitudeMeters>
            <DistanceMeters>38411.536931629</DistanceMeters>
          </Trackpoint>
          <Trackpoint>
            <Time>2022-04-23T11:37:06.000Z</Time>
            <Position>
              <LatitudeDegrees>41.671366877853870391845703125</LatitudeDegrees>
              <LongitudeDegrees>-0.0171460211277008056640625</LongitudeDegrees>
            </Position>
            <AltitudeMeters>345.399993896484375</AltitudeMeters>
            <DistanceMeters>38425.682193516</DistanceMeters>
          </Trackpoint>
          <Trackpoint>
            <Time>2022-04-23T11:37:11.000Z</Time>
            <Position>
              <LatitudeDegrees>41.6712047718465328216552734375</LatitudeDegrees>
              <LongitudeDegrees>-0.01715364865958690643310546875</LongitudeDegrees>
            </Position>
            <AltitudeMeters>346.20001220703125</AltitudeMeters>
            <DistanceMeters>38443.736018852</DistanceMeters>
          </Trackpoint>
          <Trackpoint>
            <Time>2022-04-23T11:37:12.000Z</Time>
            <Position>
              <LatitudeDegrees>41.67117275297641754150390625</LatitudeDegrees>
              <LongitudeDegrees>-0.0171545706689357757568359375</LongitudeDegrees>
            </Position>
            <AltitudeMeters>346.399993896484375</AltitudeMeters>
            <DistanceMeters>38447.299203871</DistanceMeters>
          </Trackpoint>
          <Trackpoint>
            <Time>2022-04-23T11:37:18.000Z</Time>
            <Position>
              <LatitudeDegrees>41.6709640435874462127685546875</LatitudeDegrees>
              <LongitudeDegrees>-0.0171592645347118377685546875</LongitudeDegrees>
            </Position>
            <AltitudeMeters>347.399993896484375</AltitudeMeters>
            <DistanceMeters>38470.532215286</DistanceMeters>
          </Trackpoint>
          <Trackpoint>
            <Time>2022-04-23T11:37:22.000Z</Time>
            <Position>
              <LatitudeDegrees>41.67083839885890483856201171875</LatitudeDegrees>
              <LongitudeDegrees>-0.01714803278446197509765625</LongitudeDegrees>
            </Position>
            <AltitudeMeters>348.20001220703125</AltitudeMeters>
            <DistanceMeters>38484.547930857</DistanceMeters>
          </Trackpoint>
          <Trackpoint>
            <Time>2022-04-23T11:37:23.000Z</Time>
            <Position>
              <LatitudeDegrees>41.67080394923686981201171875</LatitudeDegrees>
              <LongitudeDegrees>-0.017143674194812774658203125</LongitudeDegrees>
            </Position>
            <AltitudeMeters>348.600006103515625</AltitudeMeters>
            <DistanceMeters>38488.400909662</DistanceMeters>
          </Trackpoint>
          <Trackpoint>
            <Time>2022-04-23T11:37:28.000Z</Time>
            <Position>
              <LatitudeDegrees>41.6706334613263607025146484375</LatitudeDegrees>
              <LongitudeDegrees>-0.0171217136085033416748046875</LongitudeDegrees>
            </Position>
            <AltitudeMeters>349.600006103515625</AltitudeMeters>
            <DistanceMeters>38507.464130702</DistanceMeters>
          </Trackpoint>
          <Trackpoint>
            <Time>2022-04-23T11:37:29.000Z</Time>
            <Position>
              <LatitudeDegrees>41.670599095523357391357421875</LatitudeDegrees>
              <LongitudeDegrees>-0.01711961813271045684814453125</LongitudeDegrees>
            </Position>
            <AltitudeMeters>349.79998779296875</AltitudeMeters>
            <DistanceMeters>38511.291242406</DistanceMeters>
          </Trackpoint>
          <Trackpoint>
            <Time>2022-04-23T11:37:34.000Z</Time>
            <Position>
              <LatitudeDegrees>41.67042843997478485107421875</LatitudeDegrees>
              <LongitudeDegrees>-0.0170791335403919219970703125</LongitudeDegrees>
            </Position>
            <AltitudeMeters>350.79998779296875</AltitudeMeters>
            <DistanceMeters>38530.581431365</DistanceMeters>
          </Trackpoint>
          <Trackpoint>
            <Time>2022-04-23T11:37:37.000Z</Time>
            <Position>
              <LatitudeDegrees>41.67032643221318721771240234375</LatitudeDegrees>
              <LongitudeDegrees>-0.017054490745067596435546875</LongitudeDegrees>
            </Position>
            <AltitudeMeters>351.399993896484375</AltitudeMeters>
            <DistanceMeters>38542.118472875</DistanceMeters>
          </Trackpoint>
          <Trackpoint>
            <Time>2022-04-23T11:37:40.000Z</Time>
            <Position>
              <LatitudeDegrees>41.6702261008322238922119140625</LatitudeDegrees>
              <LongitudeDegrees>-0.0170288421213626861572265625</LongitudeDegrees>
            </Position>
            <AltitudeMeters>352.20001220703125</AltitudeMeters>
            <DistanceMeters>38553.487179228</DistanceMeters>
          </Trackpoint>
          <Trackpoint>
            <Time>2022-04-23T11:37:43.000Z</Time>
            <Position>
              <LatitudeDegrees>41.6701261885464191436767578125</LatitudeDegrees>
              <LongitudeDegrees>-0.01699925400316715240478515625</LongitudeDegrees>
            </Position>
            <AltitudeMeters>353.399993896484375</AltitudeMeters>
            <DistanceMeters>38564.876122025</DistanceMeters>
          </Trackpoint>
          <Trackpoint>
            <Time>2022-04-23T11:37:45.000Z</Time>
            <Position>
              <LatitudeDegrees>41.67005695402622222900390625</LatitudeDegrees>
              <LongitudeDegrees>-0.016984082758426666259765625</LongitudeDegrees>
            </Position>
            <AltitudeMeters>353.600006103515625</AltitudeMeters>
            <DistanceMeters>38572.683941572</DistanceMeters>
          </Trackpoint>
          <Trackpoint>
            <Time>2022-04-23T11:37:50.000Z</Time>
            <Position>
              <LatitudeDegrees>41.669877581298351287841796875</LatitudeDegrees>
              <LongitudeDegrees>-0.0169477052986621856689453125</LongitudeDegrees>
            </Position>
            <AltitudeMeters>354.399993896484375</AltitudeMeters>
            <DistanceMeters>38592.876168086</DistanceMeters>
          </Trackpoint>
          <Trackpoint>
            <Time>2022-04-23T11:37:53.000Z</Time>
            <Position>
              <LatitudeDegrees>41.66978144086897373199462890625</LatitudeDegrees>
              <LongitudeDegrees>-0.01693546772003173828125</LongitudeDegrees>
            </Position>
            <AltitudeMeters>354.600006103515625</AltitudeMeters>
            <DistanceMeters>38603.624693474</DistanceMeters>
          </Trackpoint>
          <Trackpoint>
            <Time>2022-04-23T11:38:00.000Z</Time>
            <Position>
              <LatitudeDegrees>41.669533252716064453125</LatitudeDegrees>
              <LongitudeDegrees>-0.01690219156444072723388671875</LongitudeDegrees>
            </Position>
            <AltitudeMeters>355.399993896484375</AltitudeMeters>
            <DistanceMeters>38631.386809471</DistanceMeters>
          </Trackpoint>
          <Trackpoint>
            <Time>2022-04-23T11:38:01.000Z</Time>
            <Position>
              <LatitudeDegrees>41.66950534097850322723388671875</LatitudeDegrees>
              <LongitudeDegrees>-0.01690168865025043487548828125</LongitudeDegrees>
            </Position>
            <AltitudeMeters>355.600006103515625</AltitudeMeters>
            <DistanceMeters>38634.49376163</DistanceMeters>
          </Trackpoint>
          <Trackpoint>
            <Time>2022-04-23T11:38:07.000Z</Time>
            <Position>
              <LatitudeDegrees>41.66930325329303741455078125</LatitudeDegrees>
              <LongitudeDegrees>-0.01688810996711254119873046875</LongitudeDegrees>
            </Position>
            <AltitudeMeters>356.20001220703125</AltitudeMeters>
            <DistanceMeters>38657.014892457</DistanceMeters>
          </Trackpoint>
          <Trackpoint>
            <Time>2022-04-23T11:38:09.000Z</Time>
            <Position>
              <LatitudeDegrees>41.66924097575247287750244140625</LatitudeDegrees>
              <LongitudeDegrees>-0.016884841024875640869140625</LongitudeDegrees>
            </Position>
            <AltitudeMeters>356.399993896484375</AltitudeMeters>
            <DistanceMeters>38663.951191708</DistanceMeters>
          </Trackpoint>
          <Trackpoint>
            <Time>2022-04-23T11:38:13.000Z</Time>
            <Position>
              <LatitudeDegrees>41.6691126488149166107177734375</LatitudeDegrees>
              <LongitudeDegrees>-0.01688609831035137176513671875</LongitudeDegrees>
            </Position>
            <AltitudeMeters>357.20001220703125</AltitudeMeters>
            <DistanceMeters>38678.234626767</DistanceMeters>
          </Trackpoint>
          <Trackpoint>
            <Time>2022-04-23T11:38:14.000Z</Time>
            <Position>
              <LatitudeDegrees>41.6690737567842006683349609375</LatitudeDegrees>
              <LongitudeDegrees>-0.01688727177679538726806640625</LongitudeDegrees>
            </Position>
            <AltitudeMeters>357.79998779296875</AltitudeMeters>
            <DistanceMeters>38682.564342543</DistanceMeters>
          </Trackpoint>
          <Trackpoint>
            <Time>2022-04-23T11:38:19.000Z</Time>
            <Position>
              <LatitudeDegrees>41.66889983229339122772216796875</LatitudeDegrees>
              <LongitudeDegrees>-0.01688542775809764862060546875</LongitudeDegrees>
            </Position>
            <AltitudeMeters>358.79998779296875</AltitudeMeters>
            <DistanceMeters>38701.922989254</DistanceMeters>
          </Trackpoint>
          <Trackpoint>
            <Time>2022-04-23T11:38:21.000Z</Time>
            <Position>
              <LatitudeDegrees>41.668834872543811798095703125</LatitudeDegrees>
              <LongitudeDegrees>-0.01689095981419086456298828125</LongitudeDegrees>
            </Position>
            <AltitudeMeters>359.399993896484375</AltitudeMeters>
            <DistanceMeters>38709.167490913</DistanceMeters>
          </Trackpoint>
          <Trackpoint>
            <Time>2022-04-23T11:38:25.000Z</Time>
            <Position>
              <LatitudeDegrees>41.66868089698255062103271484375</LatitudeDegrees>
              <LongitudeDegrees>-0.01689900644123554229736328125</LongitudeDegrees>
            </Position>
            <AltitudeMeters>360</AltitudeMeters>
            <DistanceMeters>38726.318430834</DistanceMeters>
          </Trackpoint>
          <Trackpoint>
            <Time>2022-04-23T11:38:30.000Z</Time>
            <Position>
              <LatitudeDegrees>41.66847922839224338531494140625</LatitudeDegrees>
              <LongitudeDegrees>-0.0169004313647747039794921875</LongitudeDegrees>
            </Position>
            <AltitudeMeters>360.79998779296875</AltitudeMeters>
            <DistanceMeters>38748.764859175</DistanceMeters>
          </Trackpoint>
          <Trackpoint>
            <Time>2022-04-23T11:38:31.000Z</Time>
            <Position>
              <LatitudeDegrees>41.66843832470476627349853515625</LatitudeDegrees>
              <LongitudeDegrees>-0.01689766533672809600830078125</LongitudeDegrees>
            </Position>
            <AltitudeMeters>361</AltitudeMeters>
            <DistanceMeters>38753.323170913</DistanceMeters>
          </Trackpoint>
          <Trackpoint>
            <Time>2022-04-23T11:38:34.000Z</Time>
            <Position>
              <LatitudeDegrees>41.668315194547176361083984375</LatitudeDegrees>
              <LongitudeDegrees>-0.0168890319764614105224609375</LongitudeDegrees>
            </Position>
            <AltitudeMeters>361.79998779296875</AltitudeMeters>
            <DistanceMeters>38767.046226121</DistanceMeters>
          </Trackpoint>
          <Trackpoint>
            <Time>2022-04-23T11:38:35.000Z</Time>
            <Position>
              <LatitudeDegrees>41.66826389729976654052734375</LatitudeDegrees>
              <LongitudeDegrees>-0.0168858468532562255859375</LongitudeDegrees>
            </Position>
            <AltitudeMeters>362.399993896484375</AltitudeMeters>
            <DistanceMeters>38772.762065217</DistanceMeters>
          </Trackpoint>
          <Trackpoint>
            <Time>2022-04-23T11:38:38.000Z</Time>
            <Position>
              <LatitudeDegrees>41.66814747266471385955810546875</LatitudeDegrees>
              <LongitudeDegrees>-0.01687000505626201629638671875</LongitudeDegrees>
            </Position>
            <AltitudeMeters>362.79998779296875</AltitudeMeters>
            <DistanceMeters>38785.787312862</DistanceMeters>
          </Trackpoint>
          <Trackpoint>
            <Time>2022-04-23T11:38:42.000Z</Time>
            <Position>
              <LatitudeDegrees>41.66797681711614131927490234375</LatitudeDegrees>
              <LongitudeDegrees>-0.0168501399457454681396484375</LongitudeDegrees>
            </Position>
            <AltitudeMeters>363.600006103515625</AltitudeMeters>
            <DistanceMeters>38804.853375836</DistanceMeters>
          </Trackpoint>
          <Trackpoint>
            <Time>2022-04-23T11:38:46.000Z</Time>
            <Position>
              <LatitudeDegrees>41.667798869311809539794921875</LatitudeDegrees>
              <LongitudeDegrees>-0.0168327055871486663818359375</LongitudeDegrees>
            </Position>
            <AltitudeMeters>364.399993896484375</AltitudeMeters>
            <DistanceMeters>38824.71236772</DistanceMeters>
          </Trackpoint>
          <Trackpoint>
            <Time>2022-04-23T11:38:47.000Z</Time>
            <Position>
              <LatitudeDegrees>41.66776425205171108245849609375</LatitudeDegrees>
              <LongitudeDegrees>-0.01682893373072147369384765625</LongitudeDegrees>
            </Position>
            <AltitudeMeters>364.600006103515625</AltitudeMeters>
            <DistanceMeters>38828.577047064</DistanceMeters>
          </Trackpoint>
          <Trackpoint>
            <Time>2022-04-23T11:38:51.000Z</Time>
            <Position>
              <LatitudeDegrees>41.66758932173252105712890625</LatitudeDegrees>
              <LongitudeDegrees>-0.016811080276966094970703125</LongitudeDegrees>
            </Position>
            <AltitudeMeters>365.600006103515625</AltitudeMeters>
            <DistanceMeters>38848.103360533</DistanceMeters>
          </Trackpoint>
          <Trackpoint>
            <Time>2022-04-23T11:38:52.000Z</Time>
            <Position>
              <LatitudeDegrees>41.66754431091248989105224609375</LatitudeDegrees>
              <LongitudeDegrees>-0.0168058834969997406005859375</LongitudeDegrees>
            </Position>
            <AltitudeMeters>365.79998779296875</AltitudeMeters>
            <DistanceMeters>38853.131701616</DistanceMeters>
          </Trackpoint>
          <Trackpoint>
            <Time>2022-04-23T11:38:55.000Z</Time>
            <Position>
              <LatitudeDegrees>41.66741439141333103179931640625</LatitudeDegrees>
              <LongitudeDegrees>-0.0167961604893207550048828125</LongitudeDegrees>
            </Position>
            <AltitudeMeters>367</AltitudeMeters>
            <DistanceMeters>38867.614782977</DistanceMeters>
          </Trackpoint>
          <Trackpoint>
            <Time>2022-04-23T11:38:58.000Z</Time>
            <Position>
              <LatitudeDegrees>41.6672830469906330108642578125</LatitudeDegrees>
              <LongitudeDegrees>-0.0167897902429103851318359375</LongitudeDegrees>
            </Position>
            <AltitudeMeters>368</AltitudeMeters>
            <DistanceMeters>38882.243342427</DistanceMeters>
          </Trackpoint>
          <Trackpoint>
            <Time>2022-04-23T11:39:05.000Z</Time>
            <Position>
              <LatitudeDegrees>41.66698439978063106536865234375</LatitudeDegrees>
              <LongitudeDegrees>-0.016799680888652801513671875</LongitudeDegrees>
            </Position>
            <AltitudeMeters>369</AltitudeMeters>
            <DistanceMeters>38915.493460008</DistanceMeters>
          </Trackpoint>
          <Trackpoint>
            <Time>2022-04-23T11:39:09.000Z</Time>
            <Position>
              <LatitudeDegrees>41.66681575588881969451904296875</LatitudeDegrees>
              <LongitudeDegrees>-0.0168360583484172821044921875</LongitudeDegrees>
            </Position>
            <AltitudeMeters>369.600006103515625</AltitudeMeters>
            <DistanceMeters>38934.506166027</DistanceMeters>
          </Trackpoint>
          <Trackpoint>
            <Time>2022-04-23T11:39:10.000Z</Time>
            <Position>
              <LatitudeDegrees>41.666772924363613128662109375</LatitudeDegrees>
              <LongitudeDegrees>-0.01684871502220630645751953125</LongitudeDegrees>
            </Position>
            <AltitudeMeters>370.20001220703125</AltitudeMeters>
            <DistanceMeters>38939.388727016</DistanceMeters>
          </Trackpoint>
          <Trackpoint>
            <Time>2022-04-23T11:39:12.000Z</Time>
            <Position>
              <LatitudeDegrees>41.666689105331897735595703125</LatitudeDegrees>
              <LongitudeDegrees>-0.01687520183622837066650390625</LongitudeDegrees>
            </Position>
            <AltitudeMeters>370.79998779296875</AltitudeMeters>
            <DistanceMeters>38948.974657221</DistanceMeters>
          </Trackpoint>
          <Trackpoint>
            <Time>2022-04-23T11:39:14.000Z</Time>
            <Position>
              <LatitudeDegrees>41.66660629212856292724609375</LatitudeDegrees>
              <LongitudeDegrees>-0.016899593174457550048828125</LongitudeDegrees>
            </Position>
            <AltitudeMeters>371.20001220703125</AltitudeMeters>
            <DistanceMeters>38958.411532439</DistanceMeters>
          </Trackpoint>
          <Trackpoint>
            <Time>2022-04-23T11:39:18.000Z</Time>
            <Position>
              <LatitudeDegrees>41.66643136180937290191650390625</LatitudeDegrees>
              <LongitudeDegrees>-0.0169379822909832000732421875</LongitudeDegrees>
            </Position>
            <AltitudeMeters>372.399993896484375</AltitudeMeters>
            <DistanceMeters>38978.141421829</DistanceMeters>
          </Trackpoint>
          <Trackpoint>
            <Time>2022-04-23T11:39:21.000Z</Time>
            <Position>
              <LatitudeDegrees>41.66629993356764316558837890625</LatitudeDegrees>
              <LongitudeDegrees>-0.0169473700225353240966796875</LongitudeDegrees>
            </Position>
            <AltitudeMeters>373.20001220703125</AltitudeMeters>
            <DistanceMeters>38992.790954135</DistanceMeters>
          </Trackpoint>
          <Trackpoint>
            <Time>2022-04-23T11:39:22.000Z</Time>
            <Position>
              <LatitudeDegrees>41.66625601239502429962158203125</LatitudeDegrees>
              <LongitudeDegrees>-0.01694913022220134735107421875</LongitudeDegrees>
            </Position>
            <AltitudeMeters>373.600006103515625</AltitudeMeters>
            <DistanceMeters>38997.680907347</DistanceMeters>
          </Trackpoint>
          <Trackpoint>
            <Time>2022-04-23T11:39:30.000Z</Time>
            <Position>
              <LatitudeDegrees>41.66590196080505847930908203125</LatitudeDegrees>
              <LongitudeDegrees>-0.016937144100666046142578125</LongitudeDegrees>
            </Position>
            <AltitudeMeters>374.79998779296875</AltitudeMeters>
            <DistanceMeters>39037.100274724</DistanceMeters>
          </Trackpoint>
          <Trackpoint>
            <Time>2022-04-23T11:39:31.000Z</Time>
            <Position>
              <LatitudeDegrees>41.6658594645559787750244140625</LatitudeDegrees>
              <LongitudeDegrees>-0.0169373117387294769287109375</LongitudeDegrees>
            </Position>
            <AltitudeMeters>375</AltitudeMeters>
            <DistanceMeters>39041.830658369</DistanceMeters>
          </Trackpoint>
          <Trackpoint>
            <Time>2022-04-23T11:39:35.000Z</Time>
            <Position>
              <LatitudeDegrees>41.6656817682087421417236328125</LatitudeDegrees>
              <LongitudeDegrees>-0.0169517286121845245361328125</LongitudeDegrees>
            </Position>
            <AltitudeMeters>375.79998779296875</AltitudeMeters>
            <DistanceMeters>39061.645038593</DistanceMeters>
          </Trackpoint>
          <Trackpoint>
            <Time>2022-04-23T11:39:40.000Z</Time>
            <Position>
              <LatitudeDegrees>41.6654500924050807952880859375</LatitudeDegrees>
              <LongitudeDegrees>-0.0170052051544189453125</LongitudeDegrees>
            </Position>
            <AltitudeMeters>376.79998779296875</AltitudeMeters>
            <DistanceMeters>39087.811399748</DistanceMeters>
          </Trackpoint>
          <Trackpoint>
            <Time>2022-04-23T11:39:49.000Z</Time>
            <Position>
              <LatitudeDegrees>41.6650564782321453094482421875</LatitudeDegrees>
              <LongitudeDegrees>-0.01714476384222507476806640625</LongitudeDegrees>
            </Position>
            <AltitudeMeters>378</AltitudeMeters>
            <DistanceMeters>39133.132069732</DistanceMeters>
          </Trackpoint>
          <Trackpoint>
            <Time>2022-04-23T11:39:56.000Z</Time>
            <Position>
              <LatitudeDegrees>41.66479236446321010589599609375</LatitudeDegrees>
              <LongitudeDegrees>-0.01722740940749645233154296875</LongitudeDegrees>
            </Position>
            <AltitudeMeters>379.20001220703125</AltitudeMeters>
            <DistanceMeters>39163.320966618</DistanceMeters>
          </Trackpoint>
          <Trackpoint>
            <Time>2022-04-23T11:39:57.000Z</Time>
            <Position>
              <LatitudeDegrees>41.66475783102214336395263671875</LatitudeDegrees>
              <LongitudeDegrees>-0.017238557338714599609375</LongitudeDegrees>
            </Position>
            <AltitudeMeters>379.399993896484375</AltitudeMeters>
            <DistanceMeters>39167.275722287</DistanceMeters>
          </Trackpoint>
          <Trackpoint>
            <Time>2022-04-23T11:40:03.000Z</Time>
            <Position>
              <LatitudeDegrees>41.66456739418208599090576171875</LatitudeDegrees>
              <LongitudeDegrees>-0.01728122122585773468017578125</LongitudeDegrees>
            </Position>
            <AltitudeMeters>380.20001220703125</AltitudeMeters>
            <DistanceMeters>39188.766681314</DistanceMeters>
          </Trackpoint>
          <Trackpoint>
            <Time>2022-04-23T11:40:04.000Z</Time>
            <Position>
              <LatitudeDegrees>41.66453034617006778717041015625</LatitudeDegrees>
              <LongitudeDegrees>-0.01728574745357036590576171875</LongitudeDegrees>
            </Position>
            <AltitudeMeters>380.399993896484375</AltitudeMeters>
            <DistanceMeters>39192.907709588</DistanceMeters>
          </Trackpoint>
          <Trackpoint>
            <Time>2022-04-23T11:40:08.000Z</Time>
            <Position>
              <LatitudeDegrees>41.66439120657742023468017578125</LatitudeDegrees>
              <LongitudeDegrees>-0.01729982905089855194091796875</LongitudeDegrees>
            </Position>
            <AltitudeMeters>381.79998779296875</AltitudeMeters>
            <DistanceMeters>39208.438691591</DistanceMeters>
          </Trackpoint>
          <Trackpoint>
            <Time>2022-04-23T11:40:12.000Z</Time>
            <Position>
              <LatitudeDegrees>41.66424737311899662017822265625</LatitudeDegrees>
              <LongitudeDegrees>-0.01730904914438724517822265625</LongitudeDegrees>
            </Position>
            <AltitudeMeters>382.600006103515625</AltitudeMeters>
            <DistanceMeters>39224.465842133</DistanceMeters>
          </Trackpoint>
          <Trackpoint>
            <Time>2022-04-23T11:40:13.000Z</Time>
            <Position>
              <LatitudeDegrees>41.66421200148761272430419921875</LatitudeDegrees>
              <LongitudeDegrees>-0.01730971969664096832275390625</LongitudeDegrees>
            </Position>
            <AltitudeMeters>382.79998779296875</AltitudeMeters>
            <DistanceMeters>39228.403435466</DistanceMeters>
          </Trackpoint>
          <Trackpoint>
            <Time>2022-04-23T11:40:17.000Z</Time>
            <Position>
              <LatitudeDegrees>41.66406800039112567901611328125</LatitudeDegrees>
              <LongitudeDegrees>-0.01732547767460346221923828125</LongitudeDegrees>
            </Position>
            <AltitudeMeters>384</AltitudeMeters>
            <DistanceMeters>39244.484583721</DistanceMeters>
          </Trackpoint>
          <Trackpoint>
            <Time>2022-04-23T11:40:20.000Z</Time>
            <Position>
              <LatitudeDegrees>41.66395300067961215972900390625</LatitudeDegrees>
              <LongitudeDegrees>-0.017329417169094085693359375</LongitudeDegrees>
            </Position>
            <AltitudeMeters>384.600006103515625</AltitudeMeters>
            <DistanceMeters>39257.288882527</DistanceMeters>
          </Trackpoint>
          <Trackpoint>
            <Time>2022-04-23T11:40:22.000Z</Time>
            <Position>
              <LatitudeDegrees>41.663875468075275421142578125</LatitudeDegrees>
              <LongitudeDegrees>-0.01733134500682353973388671875</LongitudeDegrees>
            </Position>
            <AltitudeMeters>385.20001220703125</AltitudeMeters>
            <DistanceMeters>39265.920635579</DistanceMeters>
          </Trackpoint>
          <Trackpoint>
            <Time>2022-04-23T11:40:24.000Z</Time>
            <Position>
              <LatitudeDegrees>41.66379659436643123626708984375</LatitudeDegrees>
              <LongitudeDegrees>-0.017333440482616424560546875</LongitudeDegrees>
            </Position>
            <AltitudeMeters>385.600006103515625</AltitudeMeters>
            <DistanceMeters>39274.700713175</DistanceMeters>
          </Trackpoint>
          <Trackpoint>
            <Time>2022-04-23T11:40:27.000Z</Time>
            <Position>
              <LatitudeDegrees>41.66367757134139537811279296875</LatitudeDegrees>
              <LongitudeDegrees>-0.0173326022922992706298828125</LongitudeDegrees>
            </Position>
            <AltitudeMeters>386.20001220703125</AltitudeMeters>
            <DistanceMeters>39287.948677765</DistanceMeters>
          </Trackpoint>
          <Trackpoint>
            <Time>2022-04-23T11:40:29.000Z</Time>
            <Position>
              <LatitudeDegrees>41.66360029019415378570556640625</LatitudeDegrees>
              <LongitudeDegrees>-0.01733587123453617095947265625</LongitudeDegrees>
            </Position>
            <AltitudeMeters>386.79998779296875</AltitudeMeters>
            <DistanceMeters>39296.554762066</DistanceMeters>
          </Trackpoint>
          <Trackpoint>
            <Time>2022-04-23T11:40:31.000Z</Time>
            <Position>
              <LatitudeDegrees>41.66351915337145328521728515625</LatitudeDegrees>
              <LongitudeDegrees>-0.0173282437026500701904296875</LongitudeDegrees>
            </Position>
            <AltitudeMeters>387.399993896484375</AltitudeMeters>
            <DistanceMeters>39305.607771168</DistanceMeters>
          </Trackpoint>
          <Trackpoint>
            <Time>2022-04-23T11:40:35.000Z</Time>
            <Position>
              <LatitudeDegrees>41.66336040012538433074951171875</LatitudeDegrees>
              <LongitudeDegrees>-0.01726345159113407135009765625</LongitudeDegrees>
            </Position>
            <AltitudeMeters>388.399993896484375</AltitudeMeters>
            <DistanceMeters>39324.080143205</DistanceMeters>
          </Trackpoint>
          <Trackpoint>
            <Time>2022-04-23T11:40:38.000Z</Time>
            <Position>
              <LatitudeDegrees>41.66325143538415431976318359375</LatitudeDegrees>
              <LongitudeDegrees>-0.01718290150165557861328125</LongitudeDegrees>
            </Position>
            <AltitudeMeters>389.79998779296875</AltitudeMeters>
            <DistanceMeters>39337.934829595</DistanceMeters>
          </Trackpoint>
          <Trackpoint>
            <Time>2022-04-23T11:40:41.000Z</Time>
            <Position>
              <LatitudeDegrees>41.66314615868031978607177734375</LatitudeDegrees>
              <LongitudeDegrees>-0.01708365976810455322265625</LongitudeDegrees>
            </Position>
            <AltitudeMeters>390.399993896484375</AltitudeMeters>
            <DistanceMeters>39352.266546826</DistanceMeters>
          </Trackpoint>
          <Trackpoint>
            <Time>2022-04-23T11:40:42.000Z</Time>
            <Position>
              <LatitudeDegrees>41.663114726543426513671875</LatitudeDegrees>
              <LongitudeDegrees>-0.01704485155642032623291015625</LongitudeDegrees>
            </Position>
            <AltitudeMeters>390.399993896484375</AltitudeMeters>
            <DistanceMeters>39357.02547861</DistanceMeters>
          </Trackpoint>
          <Trackpoint>
            <Time>2022-04-23T11:40:43.000Z</Time>
            <Position>
              <LatitudeDegrees>41.6630838811397552490234375</LatitudeDegrees>
              <LongitudeDegrees>-0.01700830645859241485595703125</LongitudeDegrees>
            </Position>
            <AltitudeMeters>390.79998779296875</AltitudeMeters>
            <DistanceMeters>39361.610456032</DistanceMeters>
          </Trackpoint>
          <Trackpoint>
            <Time>2022-04-23T11:40:44.000Z</Time>
            <Position>
              <LatitudeDegrees>41.66305043734610080718994140625</LatitudeDegrees>
              <LongitudeDegrees>-0.01697444356977939605712890625</LongitudeDegrees>
            </Position>
            <AltitudeMeters>391</AltitudeMeters>
            <DistanceMeters>39366.278386458</DistanceMeters>
          </Trackpoint>
          <Trackpoint>
            <Time>2022-04-23T11:40:48.000Z</Time>
            <Position>
              <LatitudeDegrees>41.66290677152574062347412109375</LatitudeDegrees>
              <LongitudeDegrees>-0.01686799339950084686279296875</LongitudeDegrees>
            </Position>
            <AltitudeMeters>392</AltitudeMeters>
            <DistanceMeters>39384.554916701</DistanceMeters>
          </Trackpoint>
          <Trackpoint>
            <Time>2022-04-23T11:40:49.000Z</Time>
            <Position>
              <LatitudeDegrees>41.66287324391305446624755859375</LatitudeDegrees>
              <LongitudeDegrees>-0.0168454460799694061279296875</LongitudeDegrees>
            </Position>
            <AltitudeMeters>392</AltitudeMeters>
            <DistanceMeters>39388.729608011</DistanceMeters>
          </Trackpoint>
          <Trackpoint>
            <Time>2022-04-23T11:40:55.000Z</Time>
            <Position>
              <LatitudeDegrees>41.66266470216214656829833984375</LatitudeDegrees>
              <LongitudeDegrees>-0.01675332896411418914794921875</LongitudeDegrees>
            </Position>
            <AltitudeMeters>393</AltitudeMeters>
            <DistanceMeters>39413.171986323</DistanceMeters>
          </Trackpoint>
          <Trackpoint>
            <Time>2022-04-23T11:40:59.000Z</Time>
            <Position>
              <LatitudeDegrees>41.6625232994556427001953125</LatitudeDegrees>
              <LongitudeDegrees>-0.01671544276177883148193359375</LongitudeDegrees>
            </Position>
            <AltitudeMeters>394.20001220703125</AltitudeMeters>
            <DistanceMeters>39429.222501918</DistanceMeters>
          </Trackpoint>
          <Trackpoint>
            <Time>2022-04-23T11:41:02.000Z</Time>
            <Position>
              <LatitudeDegrees>41.66241559199988842010498046875</LatitudeDegrees>
              <LongitudeDegrees>-0.01670571975409984588623046875</LongitudeDegrees>
            </Position>
            <AltitudeMeters>395.20001220703125</AltitudeMeters>
            <DistanceMeters>39441.238027799</DistanceMeters>
          </Trackpoint>
          <Trackpoint>
            <Time>2022-04-23T11:41:06.000Z</Time>
            <Position>
              <LatitudeDegrees>41.66227050125598907470703125</LatitudeDegrees>
              <LongitudeDegrees>-0.0167187117040157318115234375</LongitudeDegrees>
            </Position>
            <AltitudeMeters>396.600006103515625</AltitudeMeters>
            <DistanceMeters>39457.423005017</DistanceMeters>
          </Trackpoint>
          <Trackpoint>
            <Time>2022-04-23T11:41:10.000Z</Time>
            <Position>
              <LatitudeDegrees>41.66213127784430980682373046875</LatitudeDegrees>
              <LongitudeDegrees>-0.0167691707611083984375</LongitudeDegrees>
            </Position>
            <AltitudeMeters>397.79998779296875</AltitudeMeters>
            <DistanceMeters>39473.476895878</DistanceMeters>
          </Trackpoint>
          <Trackpoint>
            <Time>2022-04-23T11:41:14.000Z</Time>
            <Position>
              <LatitudeDegrees>41.6620041243731975555419921875</LatitudeDegrees>
              <LongitudeDegrees>-0.0168692506849765777587890625</LongitudeDegrees>
            </Position>
            <AltitudeMeters>398.79998779296875</AltitudeMeters>
            <DistanceMeters>39489.894806277</DistanceMeters>
          </Trackpoint>
          <Trackpoint>
            <Time>2022-04-23T11:41:15.000Z</Time>
            <Position>
              <LatitudeDegrees>41.6619759611785411834716796875</LatitudeDegrees>
              <LongitudeDegrees>-0.01690126955509185791015625</LongitudeDegrees>
            </Position>
            <AltitudeMeters>399</AltitudeMeters>
            <DistanceMeters>39494.007388578</DistanceMeters>
          </Trackpoint>
          <Trackpoint>
            <Time>2022-04-23T11:41:18.000Z</Time>
            <Position>
              <LatitudeDegrees>41.66190731339156627655029296875</LatitudeDegrees>
              <LongitudeDegrees>-0.01702590845525264739990234375</LongitudeDegrees>
            </Position>
            <AltitudeMeters>399.79998779296875</AltitudeMeters>
            <DistanceMeters>39506.883420711</DistanceMeters>
          </Trackpoint>
          <Trackpoint>
            <Time>2022-04-23T11:41:20.000Z</Time>
            <Position>
              <LatitudeDegrees>41.66186825372278690338134765625</LatitudeDegrees>
              <LongitudeDegrees>-0.0171203725039958953857421875</LongitudeDegrees>
            </Position>
            <AltitudeMeters>400.399993896484375</AltitudeMeters>
            <DistanceMeters>39515.861308121</DistanceMeters>
          </Trackpoint>
          <Trackpoint>
            <Time>2022-04-23T11:41:22.000Z</Time>
            <Position>
              <LatitudeDegrees>41.66183657012879848480224609375</LatitudeDegrees>
              <LongitudeDegrees>-0.01721374690532684326171875</LongitudeDegrees>
            </Position>
            <AltitudeMeters>400.79998779296875</AltitudeMeters>
            <DistanceMeters>39524.389393233</DistanceMeters>
          </Trackpoint>
          <Trackpoint>
            <Time>2022-04-23T11:41:26.000Z</Time>
            <Position>
              <LatitudeDegrees>41.66177387349307537078857421875</LatitudeDegrees>
              <LongitudeDegrees>-0.0174006633460521697998046875</LongitudeDegrees>
            </Position>
            <AltitudeMeters>401.79998779296875</AltitudeMeters>
            <DistanceMeters>39541.426493257</DistanceMeters>
          </Trackpoint>
          <Trackpoint>
            <Time>2022-04-23T11:41:29.000Z</Time>
            <Position>
              <LatitudeDegrees>41.66170732118189334869384765625</LatitudeDegrees>
              <LongitudeDegrees>-0.01751708798110485076904296875</LongitudeDegrees>
            </Position>
            <AltitudeMeters>403</AltitudeMeters>
            <DistanceMeters>39553.615868869</DistanceMeters>
          </Trackpoint>
          <Trackpoint>
            <Time>2022-04-23T11:41:33.000Z</Time>
            <Position>
              <LatitudeDegrees>41.6616366617381572723388671875</LatitudeDegrees>
              <LongitudeDegrees>-0.01769545488059520721435546875</LongitudeDegrees>
            </Position>
            <AltitudeMeters>403.600006103515625</AltitudeMeters>
            <DistanceMeters>39570.403085007</DistanceMeters>
          </Trackpoint>
          <Trackpoint>
            <Time>2022-04-23T11:41:34.000Z</Time>
            <Position>
              <LatitudeDegrees>41.66162115521728992462158203125</LatitudeDegrees>
              <LongitudeDegrees>-0.01774239353835582733154296875</LongitudeDegrees>
            </Position>
            <AltitudeMeters>404.20001220703125</AltitudeMeters>
            <DistanceMeters>39574.671889788</DistanceMeters>
          </Trackpoint>
          <Trackpoint>
            <Time>2022-04-23T11:41:37.000Z</Time>
            <Position>
              <LatitudeDegrees>41.66158393956720829010009765625</LatitudeDegrees>
              <LongitudeDegrees>-0.0178836286067962646484375</LongitudeDegrees>
            </Position>
            <AltitudeMeters>405.20001220703125</AltitudeMeters>
            <DistanceMeters>39587.125103544</DistanceMeters>
          </Trackpoint>
          <Trackpoint>
            <Time>2022-04-23T11:41:39.000Z</Time>
            <Position>
              <LatitudeDegrees>41.66156642138957977294921875</LatitudeDegrees>
              <LongitudeDegrees>-0.01796920783817768096923828125</LongitudeDegrees>
            </Position>
            <AltitudeMeters>405.79998779296875</AltitudeMeters>
            <DistanceMeters>39594.504220087</DistanceMeters>
          </Trackpoint>
          <Trackpoint>
            <Time>2022-04-23T11:41:41.000Z</Time>
            <Position>
              <LatitudeDegrees>41.66154873557388782501220703125</LatitudeDegrees>
              <LongitudeDegrees>-0.018050260841846466064453125</LongitudeDegrees>
            </Position>
            <AltitudeMeters>406.600006103515625</AltitudeMeters>
            <DistanceMeters>39601.525916277</DistanceMeters>
          </Trackpoint>
          <Trackpoint>
            <Time>2022-04-23T11:41:42.000Z</Time>
            <Position>
              <LatitudeDegrees>41.66153549216687679290771484375</LatitudeDegrees>
              <LongitudeDegrees>-0.0180883146822452545166015625</LongitudeDegrees>
            </Position>
            <AltitudeMeters>407.20001220703125</AltitudeMeters>
            <DistanceMeters>39605.017420709</DistanceMeters>
          </Trackpoint>
          <Trackpoint>
            <Time>2022-04-23T11:41:43.000Z</Time>
            <Position>
              <LatitudeDegrees>41.6615159623324871063232421875</LatitudeDegrees>
              <LongitudeDegrees>-0.01812142319977283477783203125</LongitudeDegrees>
            </Position>
            <AltitudeMeters>407.600006103515625</AltitudeMeters>
            <DistanceMeters>39608.524408607</DistanceMeters>
          </Trackpoint>
          <Trackpoint>
            <Time>2022-04-23T11:41:46.000Z</Time>
            <Position>
              <LatitudeDegrees>41.661430634558200836181640625</LatitudeDegrees>
              <LongitudeDegrees>-0.01819535158574581146240234375</LongitudeDegrees>
            </Position>
            <AltitudeMeters>409</AltitudeMeters>
            <DistanceMeters>39619.836978756</DistanceMeters>
          </Trackpoint>
          <Trackpoint>
            <Time>2022-04-23T11:41:50.000Z</Time>
            <Position>
              <LatitudeDegrees>41.6613077558577060699462890625</LatitudeDegrees>
              <LongitudeDegrees>-0.01828663051128387451171875</LongitudeDegrees>
            </Position>
            <AltitudeMeters>410</AltitudeMeters>
            <DistanceMeters>39635.478618413</DistanceMeters>
          </Trackpoint>
          <Trackpoint>
            <Time>2022-04-23T11:41:56.000Z</Time>
            <Position>
              <LatitudeDegrees>41.66111086495220661163330078125</LatitudeDegrees>
              <LongitudeDegrees>-0.01837120391428470611572265625</LongitudeDegrees>
            </Position>
            <AltitudeMeters>411.20001220703125</AltitudeMeters>
            <DistanceMeters>39658.49372767</DistanceMeters>
          </Trackpoint>
          <Trackpoint>
            <Time>2022-04-23T11:41:57.000Z</Time>
            <Position>
              <LatitudeDegrees>41.66107968427240848541259765625</LatitudeDegrees>
              <LongitudeDegrees>-0.01837925054132938385009765625</LongitudeDegrees>
            </Position>
            <AltitudeMeters>411.399993896484375</AltitudeMeters>
            <DistanceMeters>39662.028925798</DistanceMeters>
          </Trackpoint>
          <Trackpoint>
            <Time>2022-04-23T11:42:02.000Z</Time>
            <Position>
              <LatitudeDegrees>41.66092813946306705474853515625</LatitudeDegrees>
              <LongitudeDegrees>-0.01848469488322734832763671875</LongitudeDegrees>
            </Position>
            <AltitudeMeters>412.20001220703125</AltitudeMeters>
            <DistanceMeters>39681.039019414</DistanceMeters>
          </Trackpoint>
          <Trackpoint>
            <Time>2022-04-23T11:42:03.000Z</Time>
            <Position>
              <LatitudeDegrees>41.66089997626841068267822265625</LatitudeDegrees>
              <LongitudeDegrees>-0.0185127742588520050048828125</LongitudeDegrees>
            </Position>
            <AltitudeMeters>412.399993896484375</AltitudeMeters>
            <DistanceMeters>39684.947841403</DistanceMeters>
          </Trackpoint>
          <Trackpoint>
            <Time>2022-04-23T11:42:07.000Z</Time>
            <Position>
              <LatitudeDegrees>41.66078028269112110137939453125</LatitudeDegrees>
              <LongitudeDegrees>-0.018617548048496246337890625</LongitudeDegrees>
            </Position>
            <AltitudeMeters>413.79998779296875</AltitudeMeters>
            <DistanceMeters>39700.865879756</DistanceMeters>
          </Trackpoint>
          <Trackpoint>
            <Time>2022-04-23T11:42:10.000Z</Time>
            <Position>
              <LatitudeDegrees>41.6606992296874523162841796875</LatitudeDegrees>
              <LongitudeDegrees>-0.0186948291957378387451171875</LongitudeDegrees>
            </Position>
            <AltitudeMeters>415</AltitudeMeters>
            <DistanceMeters>39711.941690719</DistanceMeters>
          </Trackpoint>
          <Trackpoint>
            <Time>2022-04-23T11:42:14.000Z</Time>
            <Position>
              <LatitudeDegrees>41.6605812124907970428466796875</LatitudeDegrees>
              <LongitudeDegrees>-0.01879566349089145660400390625</LongitudeDegrees>
            </Position>
            <AltitudeMeters>416</AltitudeMeters>
            <DistanceMeters>39727.525202705</DistanceMeters>
          </Trackpoint>
          <Trackpoint>
            <Time>2022-04-23T11:42:17.000Z</Time>
            <Position>
              <LatitudeDegrees>41.66049110703170299530029296875</LatitudeDegrees>
              <LongitudeDegrees>-0.0188688375055789947509765625</LongitudeDegrees>
            </Position>
            <AltitudeMeters>417</AltitudeMeters>
            <DistanceMeters>39739.255518338</DistanceMeters>
          </Trackpoint>
          <Trackpoint>
            <Time>2022-04-23T11:42:19.000Z</Time>
            <Position>
              <LatitudeDegrees>41.66043930687010288238525390625</LatitudeDegrees>
              <LongitudeDegrees>-0.01892189495265483856201171875</LongitudeDegrees>
            </Position>
            <AltitudeMeters>417.79998779296875</AltitudeMeters>
            <DistanceMeters>39746.516206066</DistanceMeters>
          </Trackpoint>
          <Trackpoint>
            <Time>2022-04-23T11:42:21.000Z</Time>
            <Position>
              <LatitudeDegrees>41.66038063354790210723876953125</LatitudeDegrees>
              <LongitudeDegrees>-0.01896682195365428924560546875</LongitudeDegrees>
            </Position>
            <AltitudeMeters>418.399993896484375</AltitudeMeters>
            <DistanceMeters>39754.039537718</DistanceMeters>
          </Trackpoint>
          <Trackpoint>
            <Time>2022-04-23T11:42:25.000Z</Time>
            <Position>
              <LatitudeDegrees>41.660275943577289581298828125</LatitudeDegrees>
              <LongitudeDegrees>-0.019047372043132781982421875</LongitudeDegrees>
            </Position>
            <AltitudeMeters>419.399993896484375</AltitudeMeters>
            <DistanceMeters>39767.479688357</DistanceMeters>
          </Trackpoint>
          <Trackpoint>
            <Time>2022-04-23T11:42:26.000Z</Time>
            <Position>
              <LatitudeDegrees>41.66024954058229923248291015625</LatitudeDegrees>
              <LongitudeDegrees>-0.01906472258269786834716796875</LongitudeDegrees>
            </Position>
            <AltitudeMeters>419.79998779296875</AltitudeMeters>
            <DistanceMeters>39770.752251673</DistanceMeters>
          </Trackpoint>
          <Trackpoint>
            <Time>2022-04-23T11:42:30.000Z</Time>
            <Position>
              <LatitudeDegrees>41.6601299308240413665771484375</LatitudeDegrees>
              <LongitudeDegrees>-0.01912272535264492034912109375</LongitudeDegrees>
            </Position>
            <AltitudeMeters>420.79998779296875</AltitudeMeters>
            <DistanceMeters>39784.911550993</DistanceMeters>
          </Trackpoint>
          <Trackpoint>
            <Time>2022-04-23T11:42:33.000Z</Time>
            <Position>
              <LatitudeDegrees>41.660047285258769989013671875</LatitudeDegrees>
              <LongitudeDegrees>-0.01915792934596538543701171875</LongitudeDegrees>
            </Position>
            <AltitudeMeters>421.20001220703125</AltitudeMeters>
            <DistanceMeters>39794.564132448</DistanceMeters>
          </Trackpoint>
          <Trackpoint>
            <Time>2022-04-23T11:42:36.000Z</Time>
            <Position>
              <LatitudeDegrees>41.65995701216161251068115234375</LatitudeDegrees>
              <LongitudeDegrees>-0.01917821355164051055908203125</LongitudeDegrees>
            </Position>
            <AltitudeMeters>422</AltitudeMeters>
            <DistanceMeters>39804.751953542</DistanceMeters>
          </Trackpoint>
          <Trackpoint>
            <Time>2022-04-23T11:42:38.000Z</Time>
            <Position>
              <LatitudeDegrees>41.659903787076473236083984375</LatitudeDegrees>
              <LongitudeDegrees>-0.019213669002056121826171875</LongitudeDegrees>
            </Position>
            <AltitudeMeters>423</AltitudeMeters>
            <DistanceMeters>39811.368433769</DistanceMeters>
          </Trackpoint>
          <Trackpoint>
            <Time>2022-04-23T11:42:39.000Z</Time>
            <Position>
              <LatitudeDegrees>41.65986766107380390167236328125</LatitudeDegrees>
              <LongitudeDegrees>-0.019237808883190155029296875</LongitudeDegrees>
            </Position>
            <AltitudeMeters>423.20001220703125</AltitudeMeters>
            <DistanceMeters>39815.861901353</DistanceMeters>
          </Trackpoint>
          <Trackpoint>
            <Time>2022-04-23T11:42:42.000Z</Time>
            <Position>
              <LatitudeDegrees>41.6597976721823215484619140625</LatitudeDegrees>
              <LongitudeDegrees>-0.01929388381540775299072265625</LongitudeDegrees>
            </Position>
            <AltitudeMeters>424</AltitudeMeters>
            <DistanceMeters>39824.940807553</DistanceMeters>
          </Trackpoint>
          <Trackpoint>
            <Time>2022-04-23T11:42:45.000Z</Time>
            <Position>
              <LatitudeDegrees>41.659730114042758941650390625</LatitudeDegrees>
              <LongitudeDegrees>-0.01937401480972766876220703125</LongitudeDegrees>
            </Position>
            <AltitudeMeters>425.399993896484375</AltitudeMeters>
            <DistanceMeters>39834.987607764</DistanceMeters>
          </Trackpoint>
          <Trackpoint>
            <Time>2022-04-23T11:42:47.000Z</Time>
            <Position>
              <LatitudeDegrees>41.6596934013068675994873046875</LatitudeDegrees>
              <LongitudeDegrees>-0.01944207586348056793212890625</LongitudeDegrees>
            </Position>
            <AltitudeMeters>427</AltitudeMeters>
            <DistanceMeters>39841.96802985</DistanceMeters>
          </Trackpoint>
          <Trackpoint>
            <Time>2022-04-23T11:42:49.000Z</Time>
            <Position>
              <LatitudeDegrees>41.65965476073324680328369140625</LatitudeDegrees>
              <LongitudeDegrees>-0.019510723650455474853515625</LongitudeDegrees>
            </Position>
            <AltitudeMeters>428.20001220703125</AltitudeMeters>
            <DistanceMeters>39849.115908733</DistanceMeters>
          </Trackpoint>
          <Trackpoint>
            <Time>2022-04-23T11:42:53.000Z</Time>
            <Position>
              <LatitudeDegrees>41.659574210643768310546875</LatitudeDegrees>
              <LongitudeDegrees>-0.01964676193892955780029296875</LongitudeDegrees>
            </Position>
            <AltitudeMeters>429</AltitudeMeters>
            <DistanceMeters>39863.549963039</DistanceMeters>
          </Trackpoint>
          <Trackpoint>
            <Time>2022-04-23T11:42:56.000Z</Time>
            <Position>
              <LatitudeDegrees>41.6595247574150562286376953125</LatitudeDegrees>
              <LongitudeDegrees>-0.01975488848984241485595703125</LongitudeDegrees>
            </Position>
            <AltitudeMeters>429.399993896484375</AltitudeMeters>
            <DistanceMeters>39874.091933955</DistanceMeters>
          </Trackpoint>
          <Trackpoint>
            <Time>2022-04-23T11:42:59.000Z</Time>
            <Position>
              <LatitudeDegrees>41.65949868969619274139404296875</LatitudeDegrees>
              <LongitudeDegrees>-0.01988011412322521209716796875</LongitudeDegrees>
            </Position>
            <AltitudeMeters>429.79998779296875</AltitudeMeters>
            <DistanceMeters>39884.901614301</DistanceMeters>
          </Trackpoint>
          <Trackpoint>
            <Time>2022-04-23T11:43:01.000Z</Time>
            <Position>
              <LatitudeDegrees>41.65951578877866268157958984375</LatitudeDegrees>
              <LongitudeDegrees>-0.01996167004108428955078125</LongitudeDegrees>
            </Position>
            <AltitudeMeters>430.399993896484375</AltitudeMeters>
            <DistanceMeters>39891.945138986</DistanceMeters>
          </Trackpoint>
          <Trackpoint>
            <Time>2022-04-23T11:43:02.000Z</Time>
            <Position>
              <LatitudeDegrees>41.65954479016363620758056640625</LatitudeDegrees>
              <LongitudeDegrees>-0.019990168511867523193359375</LongitudeDegrees>
            </Position>
            <AltitudeMeters>430.399993896484375</AltitudeMeters>
            <DistanceMeters>39895.949813225</DistanceMeters>
          </Trackpoint>
          <Trackpoint>
            <Time>2022-04-23T11:43:03.000Z</Time>
            <Position>
              <LatitudeDegrees>41.659579910337924957275390625</LatitudeDegrees>
              <LongitudeDegrees>-0.02001472748816013336181640625</LongitudeDegrees>
            </Position>
            <AltitudeMeters>431.20001220703125</AltitudeMeters>
            <DistanceMeters>39900.360117598</DistanceMeters>
          </Trackpoint>
          <Trackpoint>
            <Time>2022-04-23T11:43:05.000Z</Time>
            <Position>
              <LatitudeDegrees>41.65962995029985904693603515625</LatitudeDegrees>
              <LongitudeDegrees>-0.0200225226581096649169921875</LongitudeDegrees>
            </Position>
            <AltitudeMeters>431.79998779296875</AltitudeMeters>
            <DistanceMeters>39905.967498999</DistanceMeters>
          </Trackpoint>
          <Trackpoint>
            <Time>2022-04-23T11:43:07.000Z</Time>
            <Position>
              <LatitudeDegrees>41.659691222012042999267578125</LatitudeDegrees>
              <LongitudeDegrees>-0.01998170278966426849365234375</LongitudeDegrees>
            </Position>
            <AltitudeMeters>432.399993896484375</AltitudeMeters>
            <DistanceMeters>39913.585062338</DistanceMeters>
          </Trackpoint>
          <Trackpoint>
            <Time>2022-04-23T11:43:08.000Z</Time>
            <Position>
              <LatitudeDegrees>41.6597168706357479095458984375</LatitudeDegrees>
              <LongitudeDegrees>-0.01995303668081760406494140625</LongitudeDegrees>
            </Position>
            <AltitudeMeters>433</AltitudeMeters>
            <DistanceMeters>39917.302052648</DistanceMeters>
          </Trackpoint>
          <Trackpoint>
            <Time>2022-04-23T11:43:11.000Z</Time>
            <Position>
              <LatitudeDegrees>41.6598040424287319183349609375</LatitudeDegrees>
              <LongitudeDegrees>-0.01987961120903491973876953125</LongitudeDegrees>
            </Position>
            <AltitudeMeters>434.20001220703125</AltitudeMeters>
            <DistanceMeters>39928.765283973</DistanceMeters>
          </Trackpoint>
          <Trackpoint>
            <Time>2022-04-23T11:43:13.000Z</Time>
            <Position>
              <LatitudeDegrees>41.6598630510270595550537109375</LatitudeDegrees>
              <LongitudeDegrees>-0.01983770169317722320556640625</LongitudeDegrees>
            </Position>
            <AltitudeMeters>435.399993896484375</AltitudeMeters>
            <DistanceMeters>39936.200479195</DistanceMeters>
          </Trackpoint>
          <Trackpoint>
            <Time>2022-04-23T11:43:19.000Z</Time>
            <Position>
              <LatitudeDegrees>41.66008542291820049285888671875</LatitudeDegrees>
              <LongitudeDegrees>-0.0198066048324108123779296875</LongitudeDegrees>
            </Position>
            <AltitudeMeters>436.600006103515625</AltitudeMeters>
            <DistanceMeters>39961.085869337</DistanceMeters>
          </Trackpoint>
          <Trackpoint>
            <Time>2022-04-23T11:43:20.000Z</Time>
            <Position>
              <LatitudeDegrees>41.66012196801602840423583984375</LatitudeDegrees>
              <LongitudeDegrees>-0.0198143161833286285400390625</LongitudeDegrees>
            </Position>
            <AltitudeMeters>437.20001220703125</AltitudeMeters>
            <DistanceMeters>39965.203937277</DistanceMeters>
          </Trackpoint>
          <Trackpoint>
            <Time>2022-04-23T11:43:22.000Z</Time>
            <Position>
              <LatitudeDegrees>41.6601899452507495880126953125</LatitudeDegrees>
              <LongitudeDegrees>-0.01982529647648334503173828125</LongitudeDegrees>
            </Position>
            <AltitudeMeters>437.79998779296875</AltitudeMeters>
            <DistanceMeters>39972.825056072</DistanceMeters>
          </Trackpoint>
          <Trackpoint>
            <Time>2022-04-23T11:43:27.000Z</Time>
            <Position>
              <LatitudeDegrees>41.6603696532547473907470703125</LatitudeDegrees>
              <LongitudeDegrees>-0.0198488496243953704833984375</LongitudeDegrees>
            </Position>
            <AltitudeMeters>438.79998779296875</AltitudeMeters>
            <DistanceMeters>39992.922700694</DistanceMeters>
          </Trackpoint>
          <Trackpoint>
            <Time>2022-04-23T11:43:28.000Z</Time>
            <Position>
              <LatitudeDegrees>41.6604075394570827484130859375</LatitudeDegrees>
              <LongitudeDegrees>-0.01985429786145687103271484375</LongitudeDegrees>
            </Position>
            <AltitudeMeters>438.79998779296875</AltitudeMeters>
            <DistanceMeters>39997.164981019</DistanceMeters>
          </Trackpoint>
          <Trackpoint>
            <Time>2022-04-23T11:43:29.000Z</Time>
            <Position>
              <LatitudeDegrees>41.66044450365006923675537109375</LatitudeDegrees>
              <LongitudeDegrees>-0.01985714770853519439697265625</LongitudeDegrees>
            </Position>
            <AltitudeMeters>439</AltitudeMeters>
            <DistanceMeters>40001.286336838</DistanceMeters>
          </Trackpoint>
          <Trackpoint>
            <Time>2022-04-23T11:43:37.000Z</Time>
            <Position>
              <LatitudeDegrees>41.66075580753386020660400390625</LatitudeDegrees>
              <LongitudeDegrees>-0.01982211135327816009521484375</LongitudeDegrees>
            </Position>
            <AltitudeMeters>439.79998779296875</AltitudeMeters>
            <DistanceMeters>40036.057285559</DistanceMeters>
          </Trackpoint>
          <Trackpoint>
            <Time>2022-04-23T11:43:38.000Z</Time>
            <Position>
              <LatitudeDegrees>41.66080744005739688873291015625</LatitudeDegrees>
              <LongitudeDegrees>-0.0198129750788211822509765625</LongitudeDegrees>
            </Position>
            <AltitudeMeters>440</AltitudeMeters>
            <DistanceMeters>40041.853915135</DistanceMeters>
          </Trackpoint>
          <Trackpoint>
            <Time>2022-04-23T11:43:43.000Z</Time>
            <Position>
              <LatitudeDegrees>41.66101262904703617095947265625</LatitudeDegrees>
              <LongitudeDegrees>-0.0197750888764858245849609375</LongitudeDegrees>
            </Position>
            <AltitudeMeters>441</AltitudeMeters>
            <DistanceMeters>40064.908030589</DistanceMeters>
          </Trackpoint>
          <Trackpoint>
            <Time>2022-04-23T11:43:45.000Z</Time>
            <Position>
              <LatitudeDegrees>41.6611017286777496337890625</LatitudeDegrees>
              <LongitudeDegrees>-0.01976209692656993865966796875</LongitudeDegrees>
            </Position>
            <AltitudeMeters>441.600006103515625</AltitudeMeters>
            <DistanceMeters>40074.8835728</DistanceMeters>
          </Trackpoint>
          <Trackpoint>
            <Time>2022-04-23T11:43:46.000Z</Time>
            <Position>
              <LatitudeDegrees>41.66113416664302349090576171875</LatitudeDegrees>
              <LongitudeDegrees>-0.01976318657398223876953125</LongitudeDegrees>
            </Position>
            <AltitudeMeters>441.79998779296875</AltitudeMeters>
            <DistanceMeters>40078.494587946</DistanceMeters>
          </Trackpoint>
          <Trackpoint>
            <Time>2022-04-23T11:43:48.000Z</Time>
            <Position>
              <LatitudeDegrees>41.6612088494002819061279296875</LatitudeDegrees>
              <LongitudeDegrees>-0.01978204585611820220947265625</LongitudeDegrees>
            </Position>
            <AltitudeMeters>442.399993896484375</AltitudeMeters>
            <DistanceMeters>40086.952499366</DistanceMeters>
          </Trackpoint>
          <Trackpoint>
            <Time>2022-04-23T11:43:50.000Z</Time>
            <Position>
              <LatitudeDegrees>41.6612755693495273590087890625</LatitudeDegrees>
              <LongitudeDegrees>-0.01984591595828533172607421875</LongitudeDegrees>
            </Position>
            <AltitudeMeters>443.20001220703125</AltitudeMeters>
            <DistanceMeters>40096.081990347</DistanceMeters>
          </Trackpoint>
          <Trackpoint>
            <Time>2022-04-23T11:43:51.000Z</Time>
            <Position>
              <LatitudeDegrees>41.66128336451947689056396484375</LatitudeDegrees>
              <LongitudeDegrees>-0.01988254487514495849609375</LongitudeDegrees>
            </Position>
            <AltitudeMeters>443.399993896484375</AltitudeMeters>
            <DistanceMeters>40099.247963318</DistanceMeters>
          </Trackpoint>
          <Trackpoint>
            <Time>2022-04-23T11:43:53.000Z</Time>
            <Position>
              <LatitudeDegrees>41.6612775810062885284423828125</LatitudeDegrees>
              <LongitudeDegrees>-0.01997466199100017547607421875</LongitudeDegrees>
            </Position>
            <AltitudeMeters>443.79998779296875</AltitudeMeters>
            <DistanceMeters>40106.933973993</DistanceMeters>
          </Trackpoint>
          <Trackpoint>
            <Time>2022-04-23T11:43:55.000Z</Time>
            <Position>
              <LatitudeDegrees>41.66124883107841014862060546875</LatitudeDegrees>
              <LongitudeDegrees>-0.0200664438307285308837890625</LongitudeDegrees>
            </Position>
            <AltitudeMeters>444.79998779296875</AltitudeMeters>
            <DistanceMeters>40115.209486047</DistanceMeters>
          </Trackpoint>
          <Trackpoint>
            <Time>2022-04-23T11:43:58.000Z</Time>
            <Position>
              <LatitudeDegrees>41.6611803509294986724853515625</LatitudeDegrees>
              <LongitudeDegrees>-0.02018471248447895050048828125</LongitudeDegrees>
            </Position>
            <AltitudeMeters>445.600006103515625</AltitudeMeters>
            <DistanceMeters>40127.651455364</DistanceMeters>
          </Trackpoint>
          <Trackpoint>
            <Time>2022-04-23T11:43:59.000Z</Time>
            <Position>
              <LatitudeDegrees>41.66115294210612773895263671875</LatitudeDegrees>
              <LongitudeDegrees>-0.02021673135459423065185546875</LongitudeDegrees>
            </Position>
            <AltitudeMeters>446</AltitudeMeters>
            <DistanceMeters>40131.700976178</DistanceMeters>
          </Trackpoint>
          <Trackpoint>
            <Time>2022-04-23T11:44:02.000Z</Time>
            <Position>
              <LatitudeDegrees>41.66105336509644985198974609375</LatitudeDegrees>
              <LongitudeDegrees>-0.02026936970651149749755859375</LongitudeDegrees>
            </Position>
            <AltitudeMeters>446.79998779296875</AltitudeMeters>
            <DistanceMeters>40143.616886634</DistanceMeters>
          </Trackpoint>
          <Trackpoint>
            <Time>2022-04-23T11:44:04.000Z</Time>
            <Position>
              <LatitudeDegrees>41.660986058413982391357421875</LatitudeDegrees>
              <LongitudeDegrees>-0.0202880613505840301513671875</LongitudeDegrees>
            </Position>
            <AltitudeMeters>447.20001220703125</AltitudeMeters>
            <DistanceMeters>40151.266389583</DistanceMeters>
          </Trackpoint>
          <Trackpoint>
            <Time>2022-04-23T11:44:08.000Z</Time>
            <Position>
              <LatitudeDegrees>41.660850942134857177734375</LatitudeDegrees>
              <LongitudeDegrees>-0.0203390233218669891357421875</LongitudeDegrees>
            </Position>
            <AltitudeMeters>448.399993896484375</AltitudeMeters>
            <DistanceMeters>40166.890700338</DistanceMeters>
          </Trackpoint>
          <Trackpoint>
            <Time>2022-04-23T11:44:11.000Z</Time>
            <Position>
              <LatitudeDegrees>41.66075228713452816009521484375</LatitudeDegrees>
              <LongitudeDegrees>-0.02040247432887554168701171875</LongitudeDegrees>
            </Position>
            <AltitudeMeters>449</AltitudeMeters>
            <DistanceMeters>40179.073036171</DistanceMeters>
          </Trackpoint>
          <Trackpoint>
            <Time>2022-04-23T11:44:13.000Z</Time>
            <Position>
              <LatitudeDegrees>41.66068489663302898406982421875</LatitudeDegrees>
              <LongitudeDegrees>-0.0204479880630970001220703125</LongitudeDegrees>
            </Position>
            <AltitudeMeters>449.79998779296875</AltitudeMeters>
            <DistanceMeters>40187.474171659</DistanceMeters>
          </Trackpoint>
          <Trackpoint>
            <Time>2022-04-23T11:44:17.000Z</Time>
            <Position>
              <LatitudeDegrees>41.66055179201066493988037109375</LatitudeDegrees>
              <LongitudeDegrees>-0.02050071023404598236083984375</LongitudeDegrees>
            </Position>
            <AltitudeMeters>449.79998779296875</AltitudeMeters>
            <DistanceMeters>40202.92353995</DistanceMeters>
          </Trackpoint>
          <Trackpoint>
            <Time>2022-04-23T11:44:22.000Z</Time>
            <Position>
              <LatitudeDegrees>41.66040292941033840179443359375</LatitudeDegrees>
              <LongitudeDegrees>-0.02055753953754901885986328125</LongitudeDegrees>
            </Position>
            <AltitudeMeters>450</AltitudeMeters>
            <DistanceMeters>40220.152488637</DistanceMeters>
          </Trackpoint>
          <Trackpoint>
            <Time>2022-04-23T11:44:24.000Z</Time>
            <Position>
              <LatitudeDegrees>41.660349704325199127197265625</LatitudeDegrees>
              <LongitudeDegrees>-0.02058126032352447509765625</LongitudeDegrees>
            </Position>
            <AltitudeMeters>450.600006103515625</AltitudeMeters>
            <DistanceMeters>40226.396835687</DistanceMeters>
          </Trackpoint>
          <Trackpoint>
            <Time>2022-04-23T11:44:25.000Z</Time>
            <Position>
              <LatitudeDegrees>41.6603213734924793243408203125</LatitudeDegrees>
              <LongitudeDegrees>-0.020596347749233245849609375</LongitudeDegrees>
            </Position>
            <AltitudeMeters>451</AltitudeMeters>
            <DistanceMeters>40229.789968084</DistanceMeters>
          </Trackpoint>
          <Trackpoint>
            <Time>2022-04-23T11:44:27.000Z</Time>
            <Position>
              <LatitudeDegrees>41.660264544188976287841796875</LatitudeDegrees>
              <LongitudeDegrees>-0.02062954008579254150390625</LongitudeDegrees>
            </Position>
            <AltitudeMeters>451.399993896484375</AltitudeMeters>
            <DistanceMeters>40236.689719023</DistanceMeters>
          </Trackpoint>
          <Trackpoint>
            <Time>2022-04-23T11:44:30.000Z</Time>
            <Position>
              <LatitudeDegrees>41.6601725108921527862548828125</LatitudeDegrees>
              <LongitudeDegrees>-0.02066499553620815277099609375</LongitudeDegrees>
            </Position>
            <AltitudeMeters>452.20001220703125</AltitudeMeters>
            <DistanceMeters>40247.349243022</DistanceMeters>
          </Trackpoint>
          <Trackpoint>
            <Time>2022-04-23T11:44:31.000Z</Time>
            <Position>
              <LatitudeDegrees>41.66014225222170352935791015625</LatitudeDegrees>
              <LongitudeDegrees>-0.02067874185740947723388671875</LongitudeDegrees>
            </Position>
            <AltitudeMeters>452.399993896484375</AltitudeMeters>
            <DistanceMeters>40250.9048171</DistanceMeters>
          </Trackpoint>
          <Trackpoint>
            <Time>2022-04-23T11:44:34.000Z</Time>
            <Position>
              <LatitudeDegrees>41.660049296915531158447265625</LatitudeDegrees>
              <LongitudeDegrees>-0.02072920091450214385986328125</LongitudeDegrees>
            </Position>
            <AltitudeMeters>453.20001220703125</AltitudeMeters>
            <DistanceMeters>40262.069546171</DistanceMeters>
          </Trackpoint>
          <Trackpoint>
            <Time>2022-04-23T11:44:35.000Z</Time>
            <Position>
              <LatitudeDegrees>41.660019457340240478515625</LatitudeDegrees>
              <LongitudeDegrees>-0.0207403488457202911376953125</LongitudeDegrees>
            </Position>
            <AltitudeMeters>453.399993896484375</AltitudeMeters>
            <DistanceMeters>40265.516803139</DistanceMeters>
          </Trackpoint>
          <Trackpoint>
            <Time>2022-04-23T11:44:38.000Z</Time>
            <Position>
              <LatitudeDegrees>41.65993220172822475433349609375</LatitudeDegrees>
              <LongitudeDegrees>-0.0207698531448841094970703125</LongitudeDegrees>
            </Position>
            <AltitudeMeters>454.399993896484375</AltitudeMeters>
            <DistanceMeters>40275.53299749</DistanceMeters>
          </Trackpoint>
          <Trackpoint>
            <Time>2022-04-23T11:44:42.000Z</Time>
            <Position>
              <LatitudeDegrees>41.65980932302772998809814453125</LatitudeDegrees>
              <LongitudeDegrees>-0.0208097510039806365966796875</LongitudeDegrees>
            </Position>
            <AltitudeMeters>455.600006103515625</AltitudeMeters>
            <DistanceMeters>40289.606258187</DistanceMeters>
          </Trackpoint>
          <Trackpoint>
            <Time>2022-04-23T11:44:44.000Z</Time>
            <Position>
              <LatitudeDegrees>41.65974796749651432037353515625</LatitudeDegrees>
              <LongitudeDegrees>-0.0208298675715923309326171875</LongitudeDegrees>
            </Position>
            <AltitudeMeters>456.399993896484375</AltitudeMeters>
            <DistanceMeters>40296.636950789</DistanceMeters>
          </Trackpoint>
          <Trackpoint>
            <Time>2022-04-23T11:44:45.000Z</Time>
            <Position>
              <LatitudeDegrees>41.6597155295312404632568359375</LatitudeDegrees>
              <LongitudeDegrees>-0.02083464525640010833740234375</LongitudeDegrees>
            </Position>
            <AltitudeMeters>456.79998779296875</AltitudeMeters>
            <DistanceMeters>40300.270402558</DistanceMeters>
          </Trackpoint>
          <Trackpoint>
            <Time>2022-04-23T11:44:48.000Z</Time>
            <Position>
              <LatitudeDegrees>41.6596156172454357147216796875</LatitudeDegrees>
              <LongitudeDegrees>-0.0208362378180027008056640625</LongitudeDegrees>
            </Position>
            <AltitudeMeters>458</AltitudeMeters>
            <DistanceMeters>40311.392182413</DistanceMeters>
          </Trackpoint>
          <Trackpoint>
            <Time>2022-04-23T11:44:51.000Z</Time>
            <Position>
              <LatitudeDegrees>41.65952266193926334381103515625</LatitudeDegrees>
              <LongitudeDegrees>-0.02083263359963893890380859375</LongitudeDegrees>
            </Position>
            <AltitudeMeters>458.79998779296875</AltitudeMeters>
            <DistanceMeters>40321.742681286</DistanceMeters>
          </Trackpoint>
          <Trackpoint>
            <Time>2022-04-23T11:44:53.000Z</Time>
            <Position>
              <LatitudeDegrees>41.65946130640804767608642578125</LatitudeDegrees>
              <LongitudeDegrees>-0.02083514817059040069580078125</LongitudeDegrees>
            </Position>
            <AltitudeMeters>459.20001220703125</AltitudeMeters>
            <DistanceMeters>40328.574038037</DistanceMeters>
          </Trackpoint>
          <Trackpoint>
            <Time>2022-04-23T11:44:57.000Z</Time>
            <Position>
              <LatitudeDegrees>41.65933289565145969390869140625</LatitudeDegrees>
              <LongitudeDegrees>-0.0208436138927936553955078125</LongitudeDegrees>
            </Position>
            <AltitudeMeters>460.399993896484375</AltitudeMeters>
            <DistanceMeters>40342.883685603</DistanceMeters>
          </Trackpoint>
          <Trackpoint>
            <Time>2022-04-23T11:44:59.000Z</Time>
            <Position>
              <LatitudeDegrees>41.6592679359018802642822265625</LatitudeDegrees>
              <LongitudeDegrees>-0.02084453590214252471923828125</LongitudeDegrees>
            </Position>
            <AltitudeMeters>461</AltitudeMeters>
            <DistanceMeters>40350.114463058</DistanceMeters>
          </Trackpoint>
          <Trackpoint>
            <Time>2022-04-23T11:45:00.000Z</Time>
            <Position>
              <LatitudeDegrees>41.65923348627984523773193359375</LatitudeDegrees>
              <LongitudeDegrees>-0.0208466313779354095458984375</LongitudeDegrees>
            </Position>
            <AltitudeMeters>461.399993896484375</AltitudeMeters>
            <DistanceMeters>40353.952177831</DistanceMeters>
          </Trackpoint>
          <Trackpoint>
            <Time>2022-04-23T11:45:06.000Z</Time>
            <Position>
              <LatitudeDegrees>41.65904338471591472625732421875</LatitudeDegrees>
              <LongitudeDegrees>-0.02087856642901897430419921875</LongitudeDegrees>
            </Position>
            <AltitudeMeters>463</AltitudeMeters>
            <DistanceMeters>40375.276731509</DistanceMeters>
          </Trackpoint>
          <Trackpoint>
            <Time>2022-04-23T11:45:07.000Z</Time>
            <Position>
              <LatitudeDegrees>41.65901622734963893890380859375</LatitudeDegrees>
              <LongitudeDegrees>-0.02088342793285846710205078125</LongitudeDegrees>
            </Position>
            <AltitudeMeters>463.399993896484375</AltitudeMeters>
            <DistanceMeters>40378.326482112</DistanceMeters>
          </Trackpoint>
          <Trackpoint>
            <Time>2022-04-23T11:45:09.000Z</Time>
            <Position>
              <LatitudeDegrees>41.658951938152313232421875</LatitudeDegrees>
              <LongitudeDegrees>-0.0209002755582332611083984375</LongitudeDegrees>
            </Position>
            <AltitudeMeters>464</AltitudeMeters>
            <DistanceMeters>40385.616957401</DistanceMeters>
          </Trackpoint>
          <Trackpoint>
            <Time>2022-04-23T11:45:13.000Z</Time>
            <Position>
              <LatitudeDegrees>41.6588314063847064971923828125</LatitudeDegrees>
              <LongitudeDegrees>-0.02092634327709674835205078125</LongitudeDegrees>
            </Position>
            <AltitudeMeters>465.399993896484375</AltitudeMeters>
            <DistanceMeters>40399.206109813</DistanceMeters>
          </Trackpoint>
          <Trackpoint>
            <Time>2022-04-23T11:45:16.000Z</Time>
            <Position>
              <LatitudeDegrees>41.6587462462484836578369140625</LatitudeDegrees>
              <LongitudeDegrees>-0.02092097885906696319580078125</LongitudeDegrees>
            </Position>
            <AltitudeMeters>466.79998779296875</AltitudeMeters>
            <DistanceMeters>40408.695468185</DistanceMeters>
          </Trackpoint>
          <Trackpoint>
            <Time>2022-04-23T11:45:17.000Z</Time>
            <Position>
              <LatitudeDegrees>41.6587197594344615936279296875</LatitudeDegrees>
              <LongitudeDegrees>-0.0209146924316883087158203125</LongitudeDegrees>
            </Position>
            <AltitudeMeters>467</AltitudeMeters>
            <DistanceMeters>40411.688432573</DistanceMeters>
          </Trackpoint>
          <Trackpoint>
            <Time>2022-04-23T11:45:19.000Z</Time>
            <Position>
              <LatitudeDegrees>41.65865463204681873321533203125</LatitudeDegrees>
              <LongitudeDegrees>-0.02091058529913425445556640625</LongitudeDegrees>
            </Position>
            <AltitudeMeters>467.399993896484375</AltitudeMeters>
            <DistanceMeters>40418.945388259</DistanceMeters>
          </Trackpoint>
          <Trackpoint>
            <Time>2022-04-23T11:45:20.000Z</Time>
            <Position>
              <LatitudeDegrees>41.6586245410144329071044921875</LatitudeDegrees>
              <LongitudeDegrees>-0.02090924419462680816650390625</LongitudeDegrees>
            </Position>
            <AltitudeMeters>467.79998779296875</AltitudeMeters>
            <DistanceMeters>40422.295669593</DistanceMeters>
          </Trackpoint>
          <Trackpoint>
            <Time>2022-04-23T11:45:24.000Z</Time>
            <Position>
              <LatitudeDegrees>41.6585008241236209869384765625</LatitudeDegrees>
              <LongitudeDegrees>-0.02090203575789928436279296875</LongitudeDegrees>
            </Position>
            <AltitudeMeters>469</AltitudeMeters>
            <DistanceMeters>40436.078802337</DistanceMeters>
          </Trackpoint>
          <Trackpoint>
            <Time>2022-04-23T11:45:27.000Z</Time>
            <Position>
              <LatitudeDegrees>41.65841172449290752410888671875</LatitudeDegrees>
              <LongitudeDegrees>-0.0209113396704196929931640625</LongitudeDegrees>
            </Position>
            <AltitudeMeters>470</AltitudeMeters>
            <DistanceMeters>40446.026243097</DistanceMeters>
          </Trackpoint>
          <Trackpoint>
            <Time>2022-04-23T11:45:28.000Z</Time>
            <Position>
              <LatitudeDegrees>41.65837333537638187408447265625</LatitudeDegrees>
              <LongitudeDegrees>-0.020913183689117431640625</LongitudeDegrees>
            </Position>
            <AltitudeMeters>470.600006103515625</AltitudeMeters>
            <DistanceMeters>40450.303500966</DistanceMeters>
          </Trackpoint>
          <Trackpoint>
            <Time>2022-04-23T11:45:32.000Z</Time>
            <Position>
              <LatitudeDegrees>41.658254228532314300537109375</LatitudeDegrees>
              <LongitudeDegrees>-0.020889379084110260009765625</LongitudeDegrees>
            </Position>
            <AltitudeMeters>471.600006103515625</AltitudeMeters>
            <DistanceMeters>40463.707321351</DistanceMeters>
          </Trackpoint>
          <Trackpoint>
            <Time>2022-04-23T11:45:33.000Z</Time>
            <Position>
              <LatitudeDegrees>41.65821575559675693511962890625</LatitudeDegrees>
              <LongitudeDegrees>-0.0208848528563976287841796875</LongitudeDegrees>
            </Position>
            <AltitudeMeters>471.79998779296875</AltitudeMeters>
            <DistanceMeters>40468.0066895</DistanceMeters>
          </Trackpoint>
          <Trackpoint>
            <Time>2022-04-23T11:45:38.000Z</Time>
            <Position>
              <LatitudeDegrees>41.65807728655636310577392578125</LatitudeDegrees>
              <LongitudeDegrees>-0.020796842873096466064453125</LongitudeDegrees>
            </Position>
            <AltitudeMeters>473</AltitudeMeters>
            <DistanceMeters>40485.06815322</DistanceMeters>
          </Trackpoint>
          <Trackpoint>
            <Time>2022-04-23T11:45:41.000Z</Time>
            <Position>
              <LatitudeDegrees>41.6580037772655487060546875</LatitudeDegrees>
              <LongitudeDegrees>-0.0207401812076568603515625</LongitudeDegrees>
            </Position>
            <AltitudeMeters>474</AltitudeMeters>
            <DistanceMeters>40494.508855233</DistanceMeters>
          </Trackpoint>
          <Trackpoint>
            <Time>2022-04-23T11:45:44.000Z</Time>
            <Position>
              <LatitudeDegrees>41.65793630294501781463623046875</LatitudeDegrees>
              <LongitudeDegrees>-0.0206689350306987762451171875</LongitudeDegrees>
            </Position>
            <AltitudeMeters>475.20001220703125</AltitudeMeters>
            <DistanceMeters>40504.074038688</DistanceMeters>
          </Trackpoint>
          <Trackpoint>
            <Time>2022-04-23T11:45:45.000Z</Time>
            <Position>
              <LatitudeDegrees>41.657916270196437835693359375</LatitudeDegrees>
              <LongitudeDegrees>-0.02064638771116733551025390625</LongitudeDegrees>
            </Position>
            <AltitudeMeters>475.399993896484375</AltitudeMeters>
            <DistanceMeters>40506.987502581</DistanceMeters>
          </Trackpoint>
          <Trackpoint>
            <Time>2022-04-23T11:45:48.000Z</Time>
            <Position>
              <LatitudeDegrees>41.65783739648759365081787109375</LatitudeDegrees>
              <LongitudeDegrees>-0.02056441269814968109130859375</LongitudeDegrees>
            </Position>
            <AltitudeMeters>476.600006103515625</AltitudeMeters>
            <DistanceMeters>40518.101972688</DistanceMeters>
          </Trackpoint>
          <Trackpoint>
            <Time>2022-04-23T11:45:52.000Z</Time>
            <Position>
              <LatitudeDegrees>41.6577340476214885711669921875</LatitudeDegrees>
              <LongitudeDegrees>-0.02048042602837085723876953125</LongitudeDegrees>
            </Position>
            <AltitudeMeters>477.20001220703125</AltitudeMeters>
            <DistanceMeters>40531.558909673</DistanceMeters>
          </Trackpoint>
          <Trackpoint>
            <Time>2022-04-23T11:45:53.000Z</Time>
            <Position>
              <LatitudeDegrees>41.6577114164829254150390625</LatitudeDegrees>
              <LongitudeDegrees>-0.02045117318630218505859375</LongitudeDegrees>
            </Position>
            <AltitudeMeters>477.79998779296875</AltitudeMeters>
            <DistanceMeters>40535.059454449</DistanceMeters>
          </Trackpoint>
          <Trackpoint>
            <Time>2022-04-23T11:45:56.000Z</Time>
            <Position>
              <LatitudeDegrees>41.65766640566289424896240234375</LatitudeDegrees>
              <LongitudeDegrees>-0.0203311443328857421875</LongitudeDegrees>
            </Position>
            <AltitudeMeters>478.600006103515625</AltitudeMeters>
            <DistanceMeters>40546.227013975</DistanceMeters>
          </Trackpoint>
          <Trackpoint>
            <Time>2022-04-23T11:45:57.000Z</Time>
            <Position>
              <LatitudeDegrees>41.65765735320746898651123046875</LatitudeDegrees>
              <LongitudeDegrees>-0.02028110437095165252685546875</LongitudeDegrees>
            </Position>
            <AltitudeMeters>478.79998779296875</AltitudeMeters>
            <DistanceMeters>40550.508492129</DistanceMeters>
          </Trackpoint>
          <Trackpoint>
            <Time>2022-04-23T11:46:03.000Z</Time>
            <Position>
              <LatitudeDegrees>41.6576643101871013641357421875</LatitudeDegrees>
              <LongitudeDegrees>-0.0200104527175426483154296875</LongitudeDegrees>
            </Position>
            <AltitudeMeters>479.79998779296875</AltitudeMeters>
            <DistanceMeters>40573.028420043</DistanceMeters>
          </Trackpoint>
          <Trackpoint>
            <Time>2022-04-23T11:46:04.000Z</Time>
            <Position>
              <LatitudeDegrees>41.65767721831798553466796875</LatitudeDegrees>
              <LongitudeDegrees>-0.0199658609926700592041015625</LongitudeDegrees>
            </Position>
            <AltitudeMeters>479.79998779296875</AltitudeMeters>
            <DistanceMeters>40577.005943636</DistanceMeters>
          </Trackpoint>
          <Trackpoint>
            <Time>2022-04-23T11:46:07.000Z</Time>
            <Position>
              <LatitudeDegrees>41.6577301919460296630859375</LatitudeDegrees>
              <LongitudeDegrees>-0.01984499394893646240234375</LongitudeDegrees>
            </Position>
            <AltitudeMeters>480.79998779296875</AltitudeMeters>
            <DistanceMeters>40588.658249391</DistanceMeters>
          </Trackpoint>
          <Trackpoint>
            <Time>2022-04-23T11:46:11.000Z</Time>
            <Position>
              <LatitudeDegrees>41.6578262485563755035400390625</LatitudeDegrees>
              <LongitudeDegrees>-0.0196909345686435699462890625</LongitudeDegrees>
            </Position>
            <AltitudeMeters>481.79998779296875</AltitudeMeters>
            <DistanceMeters>40605.34430186</DistanceMeters>
          </Trackpoint>
          <Trackpoint>
            <Time>2022-04-23T11:46:16.000Z</Time>
            <Position>
              <LatitudeDegrees>41.6579305194318294525146484375</LatitudeDegrees>
              <LongitudeDegrees>-0.0195115618407726287841796875</LongitudeDegrees>
            </Position>
            <AltitudeMeters>483</AltitudeMeters>
            <DistanceMeters>40624.243154036</DistanceMeters>
          </Trackpoint>
          <Trackpoint>
            <Time>2022-04-23T11:46:17.000Z</Time>
            <Position>
              <LatitudeDegrees>41.6579412482678890228271484375</LatitudeDegrees>
              <LongitudeDegrees>-0.0194756872951984405517578125</LongitudeDegrees>
            </Position>
            <AltitudeMeters>483.20001220703125</AltitudeMeters>
            <DistanceMeters>40627.457249158</DistanceMeters>
          </Trackpoint>
          <Trackpoint>
            <Time>2022-04-23T11:46:19.000Z</Time>
            <Position>
              <LatitudeDegrees>41.65795390494167804718017578125</LatitudeDegrees>
              <LongitudeDegrees>-0.01938625238835811614990234375</LongitudeDegrees>
            </Position>
            <AltitudeMeters>483.600006103515625</AltitudeMeters>
            <DistanceMeters>40635.026053883</DistanceMeters>
          </Trackpoint>
          <Trackpoint>
            <Time>2022-04-23T11:46:21.000Z</Time>
            <Position>
              <LatitudeDegrees>41.6579476185142993927001953125</LatitudeDegrees>
              <LongitudeDegrees>-0.0192788802087306976318359375</LongitudeDegrees>
            </Position>
            <AltitudeMeters>484</AltitudeMeters>
            <DistanceMeters>40643.981786068</DistanceMeters>
          </Trackpoint>
          <Trackpoint>
            <Time>2022-04-23T11:46:22.000Z</Time>
            <Position>
              <LatitudeDegrees>41.65794099681079387664794921875</LatitudeDegrees>
              <LongitudeDegrees>-0.01923638395965099334716796875</LongitudeDegrees>
            </Position>
            <AltitudeMeters>484</AltitudeMeters>
            <DistanceMeters>40647.590299645</DistanceMeters>
          </Trackpoint>
          <Trackpoint>
            <Time>2022-04-23T11:46:26.000Z</Time>
            <Position>
              <LatitudeDegrees>41.65787142701447010040283203125</LatitudeDegrees>
              <LongitudeDegrees>-0.0190522335469722747802734375</LongitudeDegrees>
            </Position>
            <AltitudeMeters>485</AltitudeMeters>
            <DistanceMeters>40664.750187837</DistanceMeters>
          </Trackpoint>
          <Trackpoint>
            <Time>2022-04-23T11:46:27.000Z</Time>
            <Position>
              <LatitudeDegrees>41.65784913115203380584716796875</LatitudeDegrees>
              <LongitudeDegrees>-0.01901376061141490936279296875</LongitudeDegrees>
            </Position>
            <AltitudeMeters>485.20001220703125</AltitudeMeters>
            <DistanceMeters>40668.79970865</DistanceMeters>
          </Trackpoint>
          <Trackpoint>
            <Time>2022-04-23T11:46:33.000Z</Time>
            <Position>
              <LatitudeDegrees>41.65768953971564769744873046875</LatitudeDegrees>
              <LongitudeDegrees>-0.01880756579339504241943359375</LongitudeDegrees>
            </Position>
            <AltitudeMeters>486.20001220703125</AltitudeMeters>
            <DistanceMeters>40693.488007494</DistanceMeters>
          </Trackpoint>
          <Trackpoint>
            <Time>2022-04-23T11:46:34.000Z</Time>
            <Position>
              <LatitudeDegrees>41.65766959078609943389892578125</LatitudeDegrees>
              <LongitudeDegrees>-0.0187796540558338165283203125</LongitudeDegrees>
            </Position>
            <AltitudeMeters>486.399993896484375</AltitudeMeters>
            <DistanceMeters>40696.700697547</DistanceMeters>
          </Trackpoint>
          <Trackpoint>
            <Time>2022-04-23T11:46:39.000Z</Time>
            <Position>
              <LatitudeDegrees>41.65757956914603710174560546875</LatitudeDegrees>
              <LongitudeDegrees>-0.01855392940342426300048828125</LongitudeDegrees>
            </Position>
            <AltitudeMeters>487.20001220703125</AltitudeMeters>
            <DistanceMeters>40717.978195346</DistanceMeters>
          </Trackpoint>
          <Trackpoint>
            <Time>2022-04-23T11:46:40.000Z</Time>
            <Position>
              <LatitudeDegrees>41.657564900815486907958984375</LatitudeDegrees>
              <LongitudeDegrees>-0.018505565822124481201171875</LongitudeDegrees>
            </Position>
            <AltitudeMeters>487.600006103515625</AltitudeMeters>
            <DistanceMeters>40722.318326619</DistanceMeters>
          </Trackpoint>
          <Trackpoint>
            <Time>2022-04-23T11:46:45.000Z</Time>
            <Position>
              <LatitudeDegrees>41.6574847698211669921875</LatitudeDegrees>
              <LongitudeDegrees>-0.01827992498874664306640625</LongitudeDegrees>
            </Position>
            <AltitudeMeters>488.600006103515625</AltitudeMeters>
            <DistanceMeters>40743.093783145</DistanceMeters>
          </Trackpoint>
          <Trackpoint>
            <Time>2022-04-23T11:46:47.000Z</Time>
            <Position>
              <LatitudeDegrees>41.65744277648627758026123046875</LatitudeDegrees>
              <LongitudeDegrees>-0.01818898133933544158935546875</LongitudeDegrees>
            </Position>
            <AltitudeMeters>489.20001220703125</AltitudeMeters>
            <DistanceMeters>40751.983734159</DistanceMeters>
          </Trackpoint>
          <Trackpoint>
            <Time>2022-04-23T11:46:49.000Z</Time>
            <Position>
              <LatitudeDegrees>41.65740690194070339202880859375</LatitudeDegrees>
              <LongitudeDegrees>-0.01811421476304531097412109375</LongitudeDegrees>
            </Position>
            <AltitudeMeters>489.600006103515625</AltitudeMeters>
            <DistanceMeters>40759.373245121</DistanceMeters>
          </Trackpoint>
          <Trackpoint>
            <Time>2022-04-23T11:46:52.000Z</Time>
            <Position>
              <LatitudeDegrees>41.65734730660915374755859375</LatitudeDegrees>
              <LongitudeDegrees>-0.0179860554635524749755859375</LongitudeDegrees>
            </Position>
            <AltitudeMeters>490.600006103515625</AltitudeMeters>
            <DistanceMeters>40771.926486297</DistanceMeters>
          </Trackpoint>
          <Trackpoint>
            <Time>2022-04-23T11:46:54.000Z</Time>
            <Position>
              <LatitudeDegrees>41.6573119349777698516845703125</LatitudeDegrees>
              <LongitudeDegrees>-0.017910785973072052001953125</LongitudeDegrees>
            </Position>
            <AltitudeMeters>491.399993896484375</AltitudeMeters>
            <DistanceMeters>40779.321494272</DistanceMeters>
          </Trackpoint>
          <Trackpoint>
            <Time>2022-04-23T11:46:55.000Z</Time>
            <Position>
              <LatitudeDegrees>41.6572867892682552337646484375</LatitudeDegrees>
              <LongitudeDegrees>-0.01786359585821628570556640625</LongitudeDegrees>
            </Position>
            <AltitudeMeters>492</AltitudeMeters>
            <DistanceMeters>40784.140763575</DistanceMeters>
          </Trackpoint>
          <Trackpoint>
            <Time>2022-04-23T11:47:00.000Z</Time>
            <Position>
              <LatitudeDegrees>41.6571748070418834686279296875</LatitudeDegrees>
              <LongitudeDegrees>-0.01768606714904308319091796875</LongitudeDegrees>
            </Position>
            <AltitudeMeters>493.20001220703125</AltitudeMeters>
            <DistanceMeters>40803.461356217</DistanceMeters>
          </Trackpoint>
          <Trackpoint>
            <Time>2022-04-23T11:47:01.000Z</Time>
            <Position>
              <LatitudeDegrees>41.65715016424655914306640625</LatitudeDegrees>
              <LongitudeDegrees>-0.017649941146373748779296875</LongitudeDegrees>
            </Position>
            <AltitudeMeters>493.20001220703125</AltitudeMeters>
            <DistanceMeters>40807.52756698</DistanceMeters>
          </Trackpoint>
          <Trackpoint>
            <Time>2022-04-23T11:47:04.000Z</Time>
            <Position>
              <LatitudeDegrees>41.657063663005828857421875</LatitudeDegrees>
              <LongitudeDegrees>-0.0175528787076473236083984375</LongitudeDegrees>
            </Position>
            <AltitudeMeters>494.20001220703125</AltitudeMeters>
            <DistanceMeters>40820.091234288</DistanceMeters>
          </Trackpoint>
          <Trackpoint>
            <Time>2022-04-23T11:47:07.000Z</Time>
            <Position>
              <LatitudeDegrees>41.65695302188396453857421875</LatitudeDegrees>
              <LongitudeDegrees>-0.01748062670230865478515625</LongitudeDegrees>
            </Position>
            <AltitudeMeters>494.600006103515625</AltitudeMeters>
            <DistanceMeters>40833.793546116</DistanceMeters>
          </Trackpoint>
          <Trackpoint>
            <Time>2022-04-23T11:47:13.000Z</Time>
            <Position>
              <LatitudeDegrees>41.6567198373377323150634765625</LatitudeDegrees>
              <LongitudeDegrees>-0.01733176410198211669921875</LongitudeDegrees>
            </Position>
            <AltitudeMeters>495.399993896484375</AltitudeMeters>
            <DistanceMeters>40862.548510551</DistanceMeters>
          </Trackpoint>
          <Trackpoint>
            <Time>2022-04-23T11:47:19.000Z</Time>
            <Position>
              <LatitudeDegrees>41.65641197003424167633056640625</LatitudeDegrees>
              <LongitudeDegrees>-0.01718902029097080230712890625</LongitudeDegrees>
            </Position>
            <AltitudeMeters>495.399993896484375</AltitudeMeters>
            <DistanceMeters>40898.812627152</DistanceMeters>
          </Trackpoint>
          <Trackpoint>
            <Time>2022-04-23T11:47:25.000Z</Time>
            <Position>
              <LatitudeDegrees>41.6560704074800014495849609375</LatitudeDegrees>
              <LongitudeDegrees>-0.0170459412038326263427734375</LongitudeDegrees>
            </Position>
            <AltitudeMeters>494.79998779296875</AltitudeMeters>
            <DistanceMeters>40938.647753277</DistanceMeters>
          </Trackpoint>
          <Trackpoint>
            <Time>2022-04-23T11:47:30.000Z</Time>
            <Position>
              <LatitudeDegrees>41.65579833090305328369140625</LatitudeDegrees>
              <LongitudeDegrees>-0.0169153511524200439453125</LongitudeDegrees>
            </Position>
            <AltitudeMeters>495</AltitudeMeters>
            <DistanceMeters>40970.818612007</DistanceMeters>
          </Trackpoint>
          <Trackpoint>
            <Time>2022-04-23T11:47:32.000Z</Time>
            <Position>
              <LatitudeDegrees>41.6556717641651630401611328125</LatitudeDegrees>
              <LongitudeDegrees>-0.01688274554908275604248046875</LongitudeDegrees>
            </Position>
            <AltitudeMeters>495</AltitudeMeters>
            <DistanceMeters>40985.164184222</DistanceMeters>
          </Trackpoint>
          <Trackpoint>
            <Time>2022-04-23T11:47:37.000Z</Time>
            <Position>
              <LatitudeDegrees>41.6552920639514923095703125</LatitudeDegrees>
              <LongitudeDegrees>-0.01685139723122119903564453125</LongitudeDegrees>
            </Position>
            <AltitudeMeters>495</AltitudeMeters>
            <DistanceMeters>41027.505917147</DistanceMeters>
          </Trackpoint>
          <Trackpoint>
            <Time>2022-04-23T11:47:38.000Z</Time>
            <Position>
              <LatitudeDegrees>41.65521872229874134063720703125</LatitudeDegrees>
              <LongitudeDegrees>-0.01683915965259075164794921875</LongitudeDegrees>
            </Position>
            <AltitudeMeters>494.600006103515625</AltitudeMeters>
            <DistanceMeters>41035.732179535</DistanceMeters>
          </Trackpoint>
          <Trackpoint>
            <Time>2022-04-23T11:47:39.000Z</Time>
            <Position>
              <LatitudeDegrees>41.65514814667403697967529296875</LatitudeDegrees>
              <LongitudeDegrees>-0.01681971363723278045654296875</LongitudeDegrees>
            </Position>
            <AltitudeMeters>494</AltitudeMeters>
            <DistanceMeters>41043.75279451</DistanceMeters>
          </Trackpoint>
          <Trackpoint>
            <Time>2022-04-23T11:47:41.000Z</Time>
            <Position>
              <LatitudeDegrees>41.6550184786319732666015625</LatitudeDegrees>
              <LongitudeDegrees>-0.01678769476711750030517578125</LongitudeDegrees>
            </Position>
            <AltitudeMeters>493.79998779296875</AltitudeMeters>
            <DistanceMeters>41058.428808388</DistanceMeters>
          </Trackpoint>
          <Trackpoint>
            <Time>2022-04-23T11:47:43.000Z</Time>
            <Position>
              <LatitudeDegrees>41.6549002937972545623779296875</LatitudeDegrees>
              <LongitudeDegrees>-0.01680093817412853240966796875</LongitudeDegrees>
            </Position>
            <AltitudeMeters>493.600006103515625</AltitudeMeters>
            <DistanceMeters>41071.629657422</DistanceMeters>
          </Trackpoint>
          <Trackpoint>
            <Time>2022-04-23T11:47:44.000Z</Time>
            <Position>
              <LatitudeDegrees>41.65484321303665637969970703125</LatitudeDegrees>
              <LongitudeDegrees>-0.016829185187816619873046875</LongitudeDegrees>
            </Position>
            <AltitudeMeters>493.600006103515625</AltitudeMeters>
            <DistanceMeters>41078.40326934</DistanceMeters>
          </Trackpoint>
          <Trackpoint>
            <Time>2022-04-23T11:47:46.000Z</Time>
            <Position>
              <LatitudeDegrees>41.65474162437021732330322265625</LatitudeDegrees>
              <LongitudeDegrees>-0.01692096702754497528076171875</LongitudeDegrees>
            </Position>
            <AltitudeMeters>493.20001220703125</AltitudeMeters>
            <DistanceMeters>41092.045478674</DistanceMeters>
          </Trackpoint>
          <Trackpoint>
            <Time>2022-04-23T11:47:48.000Z</Time>
            <Position>
              <LatitudeDegrees>41.65467188693583011627197265625</LatitudeDegrees>
              <LongitudeDegrees>-0.01705373637378215789794921875</LongitudeDegrees>
            </Position>
            <AltitudeMeters>493.20001220703125</AltitudeMeters>
            <DistanceMeters>41105.541614119</DistanceMeters>
          </Trackpoint>
          <Trackpoint>
            <Time>2022-04-23T11:47:53.000Z</Time>
            <Position>
              <LatitudeDegrees>41.6545767523348331451416015625</LatitudeDegrees>
              <LongitudeDegrees>-0.0174593366682529449462890625</LongitudeDegrees>
            </Position>
            <AltitudeMeters>493.399993896484375</AltitudeMeters>
            <DistanceMeters>41140.894489396</DistanceMeters>
          </Trackpoint>
          <Trackpoint>
            <Time>2022-04-23T11:47:59.000Z</Time>
            <Position>
              <LatitudeDegrees>41.65449854917824268341064453125</LatitudeDegrees>
              <LongitudeDegrees>-0.0179531984031200408935546875</LongitudeDegrees>
            </Position>
            <AltitudeMeters>493.399993896484375</AltitudeMeters>
            <DistanceMeters>41182.876728265</DistanceMeters>
          </Trackpoint>
          <Trackpoint>
            <Time>2022-04-23T11:48:01.000Z</Time>
            <Position>
              <LatitudeDegrees>41.65446418337523937225341796875</LatitudeDegrees>
              <LongitudeDegrees>-0.01811505295336246490478515625</LongitudeDegrees>
            </Position>
            <AltitudeMeters>493</AltitudeMeters>
            <DistanceMeters>41196.869553124</DistanceMeters>
          </Trackpoint>
          <Trackpoint>
            <Time>2022-04-23T11:48:04.000Z</Time>
            <Position>
              <LatitudeDegrees>41.65441607125103473663330078125</LatitudeDegrees>
              <LongitudeDegrees>-0.018352009356021881103515625</LongitudeDegrees>
            </Position>
            <AltitudeMeters>492.600006103515625</AltitudeMeters>
            <DistanceMeters>41217.289686326</DistanceMeters>
          </Trackpoint>
          <Trackpoint>
            <Time>2022-04-23T11:48:06.000Z</Time>
            <Position>
              <LatitudeDegrees>41.65442168712615966796875</LatitudeDegrees>
              <LongitudeDegrees>-0.018508918583393096923828125</LongitudeDegrees>
            </Position>
            <AltitudeMeters>492.399993896484375</AltitudeMeters>
            <DistanceMeters>41230.353008439</DistanceMeters>
          </Trackpoint>
          <Trackpoint>
            <Time>2022-04-23T11:48:07.000Z</Time>
            <Position>
              <LatitudeDegrees>41.6544342599809169769287109375</LatitudeDegrees>
              <LongitudeDegrees>-0.018589384853839874267578125</LongitudeDegrees>
            </Position>
            <AltitudeMeters>492.20001220703125</AltitudeMeters>
            <DistanceMeters>41237.189650573</DistanceMeters>
          </Trackpoint>
          <Trackpoint>
            <Time>2022-04-23T11:48:08.000Z</Time>
            <Position>
              <LatitudeDegrees>41.65445362217724323272705078125</LatitudeDegrees>
              <LongitudeDegrees>-0.01867345534265041351318359375</LongitudeDegrees>
            </Position>
            <AltitudeMeters>491.600006103515625</AltitudeMeters>
            <DistanceMeters>41244.505473363</DistanceMeters>
          </Trackpoint>
          <Trackpoint>
            <Time>2022-04-23T11:48:09.000Z</Time>
            <Position>
              <LatitudeDegrees>41.65447524748742580413818359375</LatitudeDegrees>
              <LongitudeDegrees>-0.01875928603112697601318359375</LongitudeDegrees>
            </Position>
            <AltitudeMeters>491.399993896484375</AltitudeMeters>
            <DistanceMeters>41252.038401105</DistanceMeters>
          </Trackpoint>
          <Trackpoint>
            <Time>2022-04-23T11:48:11.000Z</Time>
            <Position>
              <LatitudeDegrees>41.6545341722667217254638671875</LatitudeDegrees>
              <LongitudeDegrees>-0.018917955458164215087890625</LongitudeDegrees>
            </Position>
            <AltitudeMeters>490.600006103515625</AltitudeMeters>
            <DistanceMeters>41266.773364899</DistanceMeters>
          </Trackpoint>
          <Trackpoint>
            <Time>2022-04-23T11:48:12.000Z</Time>
            <Position>
              <LatitudeDegrees>41.6545707173645496368408203125</LatitudeDegrees>
              <LongitudeDegrees>-0.01899397931993007659912109375</LongitudeDegrees>
            </Position>
            <AltitudeMeters>490.399993896484375</AltitudeMeters>
            <DistanceMeters>41274.290692775</DistanceMeters>
          </Trackpoint>
          <Trackpoint>
            <Time>2022-04-23T11:48:14.000Z</Time>
            <Position>
              <LatitudeDegrees>41.65464020334184169769287109375</LatitudeDegrees>
              <LongitudeDegrees>-0.01914887689054012298583984375</LongitudeDegrees>
            </Position>
            <AltitudeMeters>489.79998779296875</AltitudeMeters>
            <DistanceMeters>41289.31543507</DistanceMeters>
          </Trackpoint>
          <Trackpoint>
            <Time>2022-04-23T11:48:16.000Z</Time>
            <Position>
              <LatitudeDegrees>41.65468563325703144073486328125</LatitudeDegrees>
              <LongitudeDegrees>-0.01931785605847835540771484375</LongitudeDegrees>
            </Position>
            <AltitudeMeters>489.399993896484375</AltitudeMeters>
            <DistanceMeters>41304.249450873</DistanceMeters>
          </Trackpoint>
          <Trackpoint>
            <Time>2022-04-23T11:48:17.000Z</Time>
            <Position>
              <LatitudeDegrees>41.654702983796596527099609375</LatitudeDegrees>
              <LongitudeDegrees>-0.01940687187016010284423828125</LongitudeDegrees>
            </Position>
            <AltitudeMeters>489</AltitudeMeters>
            <DistanceMeters>41311.900134209</DistanceMeters>
          </Trackpoint>
          <Trackpoint>
            <Time>2022-04-23T11:48:18.000Z</Time>
            <Position>
              <LatitudeDegrees>41.65471530519425868988037109375</LatitudeDegrees>
              <LongitudeDegrees>-0.01949605531990528106689453125</LongitudeDegrees>
            </Position>
            <AltitudeMeters>488.600006103515625</AltitudeMeters>
            <DistanceMeters>41319.441448514</DistanceMeters>
          </Trackpoint>
          <Trackpoint>
            <Time>2022-04-23T11:48:20.000Z</Time>
            <Position>
              <LatitudeDegrees>41.65469585917890071868896484375</LatitudeDegrees>
              <LongitudeDegrees>-0.01966687850654125213623046875</LongitudeDegrees>
            </Position>
            <AltitudeMeters>488</AltitudeMeters>
            <DistanceMeters>41333.810920598</DistanceMeters>
          </Trackpoint>
          <Trackpoint>
            <Time>2022-04-23T11:48:21.000Z</Time>
            <Position>
              <LatitudeDegrees>41.65466350503265857696533203125</LatitudeDegrees>
              <LongitudeDegrees>-0.0197358615696430206298828125</LongitudeDegrees>
            </Position>
            <AltitudeMeters>487.399993896484375</AltitudeMeters>
            <DistanceMeters>41340.58386592</DistanceMeters>
          </Trackpoint>
          <Trackpoint>
            <Time>2022-04-23T11:48:22.000Z</Time>
            <Position>
              <LatitudeDegrees>41.65461505763232707977294921875</LatitudeDegrees>
              <LongitudeDegrees>-0.0197918526828289031982421875</LongitudeDegrees>
            </Position>
            <AltitudeMeters>487.20001220703125</AltitudeMeters>
            <DistanceMeters>41347.70896871</DistanceMeters>
          </Trackpoint>
          <Trackpoint>
            <Time>2022-04-23T11:48:23.000Z</Time>
            <Position>
              <LatitudeDegrees>41.65456074289977550506591796875</LatitudeDegrees>
              <LongitudeDegrees>-0.019838623702526092529296875</LongitudeDegrees>
            </Position>
            <AltitudeMeters>487.20001220703125</AltitudeMeters>
            <DistanceMeters>41354.897160235</DistanceMeters>
          </Trackpoint>
          <Trackpoint>
            <Time>2022-04-23T11:48:27.000Z</Time>
            <Position>
              <LatitudeDegrees>41.65435438044369220733642578125</LatitudeDegrees>
              <LongitudeDegrees>-0.02001539804041385650634765625</LongitudeDegrees>
            </Position>
            <AltitudeMeters>486.20001220703125</AltitudeMeters>
            <DistanceMeters>41382.167509436</DistanceMeters>
          </Trackpoint>
          <Trackpoint>
            <Time>2022-04-23T11:48:28.000Z</Time>
            <Position>
              <LatitudeDegrees>41.6543142311275005340576171875</LatitudeDegrees>
              <LongitudeDegrees>-0.0200647674500942230224609375</LongitudeDegrees>
            </Position>
            <AltitudeMeters>486</AltitudeMeters>
            <DistanceMeters>41388.235841311</DistanceMeters>
          </Trackpoint>
          <Trackpoint>
            <Time>2022-04-23T11:48:34.000Z</Time>
            <Position>
              <LatitudeDegrees>41.654126979410648345947265625</LatitudeDegrees>
              <LongitudeDegrees>-0.020388476550579071044921875</LongitudeDegrees>
            </Position>
            <AltitudeMeters>485.79998779296875</AltitudeMeters>
            <DistanceMeters>41422.280744923</DistanceMeters>
          </Trackpoint>
          <Trackpoint>
            <Time>2022-04-23T11:48:40.000Z</Time>
            <Position>
              <LatitudeDegrees>41.65397048927843570709228515625</LatitudeDegrees>
              <LongitudeDegrees>-0.02074160613119602203369140625</LongitudeDegrees>
            </Position>
            <AltitudeMeters>486.600006103515625</AltitudeMeters>
            <DistanceMeters>41456.424307551</DistanceMeters>
          </Trackpoint>
          <Trackpoint>
            <Time>2022-04-23T11:48:42.000Z</Time>
            <Position>
              <LatitudeDegrees>41.6539417393505573272705078125</LatitudeDegrees>
              <LongitudeDegrees>-0.02086766995489597320556640625</LongitudeDegrees>
            </Position>
            <AltitudeMeters>487.20001220703125</AltitudeMeters>
            <DistanceMeters>41467.384970716</DistanceMeters>
          </Trackpoint>
          <Trackpoint>
            <Time>2022-04-23T11:48:44.000Z</Time>
            <Position>
              <LatitudeDegrees>41.653913073241710662841796875</LatitudeDegrees>
              <LongitudeDegrees>-0.02098266966640949249267578125</LongitudeDegrees>
            </Position>
            <AltitudeMeters>487.399993896484375</AltitudeMeters>
            <DistanceMeters>41477.466763237</DistanceMeters>
          </Trackpoint>
          <Trackpoint>
            <Time>2022-04-23T11:48:51.000Z</Time>
            <Position>
              <LatitudeDegrees>41.6537965647876262664794921875</LatitudeDegrees>
              <LongitudeDegrees>-0.02144400961697101593017578125</LongitudeDegrees>
            </Position>
            <AltitudeMeters>488</AltitudeMeters>
            <DistanceMeters>41517.964870159</DistanceMeters>
          </Trackpoint>
          <Trackpoint>
            <Time>2022-04-23T11:48:53.000Z</Time>
            <Position>
              <LatitudeDegrees>41.65376882068812847137451171875</LatitudeDegrees>
              <LongitudeDegrees>-0.02156294882297515869140625</LongitudeDegrees>
            </Position>
            <AltitudeMeters>488</AltitudeMeters>
            <DistanceMeters>41528.326704404</DistanceMeters>
          </Trackpoint>
          <Trackpoint>
            <Time>2022-04-23T11:48:56.000Z</Time>
            <Position>
              <LatitudeDegrees>41.65373361669480800628662109375</LatitudeDegrees>
              <LongitudeDegrees>-0.021767802536487579345703125</LongitudeDegrees>
            </Position>
            <AltitudeMeters>488.600006103515625</AltitudeMeters>
            <DistanceMeters>41545.807746047</DistanceMeters>
          </Trackpoint>
          <Trackpoint>
            <Time>2022-04-23T11:48:58.000Z</Time>
            <Position>
              <LatitudeDegrees>41.65371752344071865081787109375</LatitudeDegrees>
              <LongitudeDegrees>-0.02190761268138885498046875</LongitudeDegrees>
            </Position>
            <AltitudeMeters>488.79998779296875</AltitudeMeters>
            <DistanceMeters>41557.571884417</DistanceMeters>
          </Trackpoint>
          <Trackpoint>
            <Time>2022-04-23T11:49:04.000Z</Time>
            <Position>
              <LatitudeDegrees>41.65369304828345775604248046875</LatitudeDegrees>
              <LongitudeDegrees>-0.0223360955715179443359375</LongitudeDegrees>
            </Position>
            <AltitudeMeters>489.600006103515625</AltitudeMeters>
            <DistanceMeters>41593.309257456</DistanceMeters>
          </Trackpoint>
          <Trackpoint>
            <Time>2022-04-23T11:49:05.000Z</Time>
            <Position>
              <LatitudeDegrees>41.6536906175315380096435546875</LatitudeDegrees>
              <LongitudeDegrees>-0.02238948829472064971923828125</LongitudeDegrees>
            </Position>
            <AltitudeMeters>490</AltitudeMeters>
            <DistanceMeters>41597.757279206</DistanceMeters>
          </Trackpoint>
          <Trackpoint>
            <Time>2022-04-23T11:49:09.000Z</Time>
            <Position>
              <LatitudeDegrees>41.65366186760365962982177734375</LatitudeDegrees>
              <LongitudeDegrees>-0.02264446578919887542724609375</LongitudeDegrees>
            </Position>
            <AltitudeMeters>490.399993896484375</AltitudeMeters>
            <DistanceMeters>41619.201758053</DistanceMeters>
          </Trackpoint>
          <Trackpoint>
            <Time>2022-04-23T11:49:13.000Z</Time>
            <Position>
              <LatitudeDegrees>41.6536168567836284637451171875</LatitudeDegrees>
              <LongitudeDegrees>-0.0229025445878505706787109375</LongitudeDegrees>
            </Position>
            <AltitudeMeters>490.399993896484375</AltitudeMeters>
            <DistanceMeters>41641.241196385</DistanceMeters>
          </Trackpoint>
          <Trackpoint>
            <Time>2022-04-23T11:49:21.000Z</Time>
            <Position>
              <LatitudeDegrees>41.6535035334527492523193359375</LatitudeDegrees>
              <LongitudeDegrees>-0.0234192050993442535400390625</LongitudeDegrees>
            </Position>
            <AltitudeMeters>490.79998779296875</AltitudeMeters>
            <DistanceMeters>41686.020865602</DistanceMeters>
          </Trackpoint>
          <Trackpoint>
            <Time>2022-04-23T11:49:22.000Z</Time>
            <Position>
              <LatitudeDegrees>41.65349003858864307403564453125</LatitudeDegrees>
              <LongitudeDegrees>-0.0234788842499256134033203125</LongitudeDegrees>
            </Position>
            <AltitudeMeters>491</AltitudeMeters>
            <DistanceMeters>41691.205702877</DistanceMeters>
          </Trackpoint>
          <Trackpoint>
            <Time>2022-04-23T11:49:24.000Z</Time>
            <Position>
              <LatitudeDegrees>41.6534549184143543243408203125</LatitudeDegrees>
              <LongitudeDegrees>-0.023589022457599639892578125</LongitudeDegrees>
            </Position>
            <AltitudeMeters>491.600006103515625</AltitudeMeters>
            <DistanceMeters>41701.164031025</DistanceMeters>
          </Trackpoint>
          <Trackpoint>
            <Time>2022-04-23T11:49:25.000Z</Time>
            <Position>
              <LatitudeDegrees>41.6534327901899814605712890625</LatitudeDegrees>
              <LongitudeDegrees>-0.0236515514552593231201171875</LongitudeDegrees>
            </Position>
            <AltitudeMeters>491.79998779296875</AltitudeMeters>
            <DistanceMeters>41706.917661205</DistanceMeters>
          </Trackpoint>
          <Trackpoint>
            <Time>2022-04-23T11:49:26.000Z</Time>
            <Position>
              <LatitudeDegrees>41.65341493673622608184814453125</LatitudeDegrees>
              <LongitudeDegrees>-0.0236934609711170196533203125</LongitudeDegrees>
            </Position>
            <AltitudeMeters>492.20001220703125</AltitudeMeters>
            <DistanceMeters>41710.929094393</DistanceMeters>
          </Trackpoint>
          <Trackpoint>
            <Time>2022-04-23T11:49:28.000Z</Time>
            <Position>
              <LatitudeDegrees>41.6533754579722881317138671875</LatitudeDegrees>
              <LongitudeDegrees>-0.02380502410233020782470703125</LongitudeDegrees>
            </Position>
            <AltitudeMeters>492.79998779296875</AltitudeMeters>
            <DistanceMeters>41721.195058653</DistanceMeters>
          </Trackpoint>
          <Trackpoint>
            <Time>2022-04-23T11:49:30.000Z</Time>
            <Position>
              <LatitudeDegrees>41.65334880352020263671875</LatitudeDegrees>
              <LongitudeDegrees>-0.0239117257297039031982421875</LongitudeDegrees>
            </Position>
            <AltitudeMeters>493.20001220703125</AltitudeMeters>
            <DistanceMeters>41730.551209627</DistanceMeters>
          </Trackpoint>
          <Trackpoint>
            <Time>2022-04-23T11:49:32.000Z</Time>
            <Position>
              <LatitudeDegrees>41.65333279408514499664306640625</LatitudeDegrees>
              <LongitudeDegrees>-0.02402513287961483001708984375</LongitudeDegrees>
            </Position>
            <AltitudeMeters>493.79998779296875</AltitudeMeters>
            <DistanceMeters>41740.149378196</DistanceMeters>
          </Trackpoint>
          <Trackpoint>
            <Time>2022-04-23T11:49:38.000Z</Time>
            <Position>
              <LatitudeDegrees>41.65331737138330936431884765625</LatitudeDegrees>
              <LongitudeDegrees>-0.0243740715086460113525390625</LongitudeDegrees>
            </Position>
            <AltitudeMeters>494.79998779296875</AltitudeMeters>
            <DistanceMeters>41769.218700918</DistanceMeters>
          </Trackpoint>
          <Trackpoint>
            <Time>2022-04-23T11:49:40.000Z</Time>
            <Position>
              <LatitudeDegrees>41.65332240052521228790283203125</LatitudeDegrees>
              <LongitudeDegrees>-0.02448680810630321502685546875</LongitudeDegrees>
            </Position>
            <AltitudeMeters>494.79998779296875</AltitudeMeters>
            <DistanceMeters>41778.610494501</DistanceMeters>
          </Trackpoint>
          <Trackpoint>
            <Time>2022-04-23T11:49:45.000Z</Time>
            <Position>
              <LatitudeDegrees>41.6533164493739604949951171875</LatitudeDegrees>
              <LongitudeDegrees>-0.02474698238074779510498046875</LongitudeDegrees>
            </Position>
            <AltitudeMeters>495.79998779296875</AltitudeMeters>
            <DistanceMeters>41800.257404831</DistanceMeters>
          </Trackpoint>
          <Trackpoint>
            <Time>2022-04-23T11:49:46.000Z</Time>
            <Position>
              <LatitudeDegrees>41.65330521762371063232421875</LatitudeDegrees>
              <LongitudeDegrees>-0.024794004857540130615234375</LongitudeDegrees>
            </Position>
            <AltitudeMeters>495.79998779296875</AltitudeMeters>
            <DistanceMeters>41804.36229492</DistanceMeters>
          </Trackpoint>
          <Trackpoint>
            <Time>2022-04-23T11:49:47.000Z</Time>
            <Position>
              <LatitudeDegrees>41.65329608134925365447998046875</LatitudeDegrees>
              <LongitudeDegrees>-0.02484303899109363555908203125</LongitudeDegrees>
            </Position>
            <AltitudeMeters>496.20001220703125</AltitudeMeters>
            <DistanceMeters>41808.565011842</DistanceMeters>
          </Trackpoint>
          <Trackpoint>
            <Time>2022-04-23T11:49:51.000Z</Time>
            <Position>
              <LatitudeDegrees>41.653233133256435394287109375</LatitudeDegrees>
              <LongitudeDegrees>-0.025014616549015045166015625</LongitudeDegrees>
            </Position>
            <AltitudeMeters>496.79998779296875</AltitudeMeters>
            <DistanceMeters>41824.46147872</DistanceMeters>
          </Trackpoint>
          <Trackpoint>
            <Time>2022-04-23T11:49:52.000Z</Time>
            <Position>
              <LatitudeDegrees>41.653223745524883270263671875</LatitudeDegrees>
              <LongitudeDegrees>-0.02505308948457241058349609375</LongitudeDegrees>
            </Position>
            <AltitudeMeters>496.79998779296875</AltitudeMeters>
            <DistanceMeters>41827.826551656</DistanceMeters>
          </Trackpoint>
          <Trackpoint>
            <Time>2022-04-23T11:49:53.000Z</Time>
            <Position>
              <LatitudeDegrees>41.65320991538465023040771484375</LatitudeDegrees>
              <LongitudeDegrees>-0.02509675920009613037109375</LongitudeDegrees>
            </Position>
            <AltitudeMeters>497</AltitudeMeters>
            <DistanceMeters>41831.769874066</DistanceMeters>
          </Trackpoint>
          <Trackpoint>
            <Time>2022-04-23T11:49:56.000Z</Time>
            <Position>
              <LatitudeDegrees>41.65316163562238216400146484375</LatitudeDegrees>
              <LongitudeDegrees>-0.02523397095501422882080078125</LongitudeDegrees>
            </Position>
            <AltitudeMeters>497.600006103515625</AltitudeMeters>
            <DistanceMeters>41844.382321356</DistanceMeters>
          </Trackpoint>
          <Trackpoint>
            <Time>2022-04-23T11:49:57.000Z</Time>
            <Position>
              <LatitudeDegrees>41.65314654819667339324951171875</LatitudeDegrees>
              <LongitudeDegrees>-0.02528250217437744140625</LongitudeDegrees>
            </Position>
            <AltitudeMeters>498</AltitudeMeters>
            <DistanceMeters>41848.753550217</DistanceMeters>
          </Trackpoint>
          <Trackpoint>
            <Time>2022-04-23T11:50:03.000Z</Time>
            <Position>
              <LatitudeDegrees>41.6530364938080310821533203125</LatitudeDegrees>
              <LongitudeDegrees>-0.02556287683546543121337890625</LongitudeDegrees>
            </Position>
            <AltitudeMeters>499.20001220703125</AltitudeMeters>
            <DistanceMeters>41875.091897405</DistanceMeters>
          </Trackpoint>
          <Trackpoint>
            <Time>2022-04-23T11:50:05.000Z</Time>
            <Position>
              <LatitudeDegrees>41.65299818851053714752197265625</LatitudeDegrees>
              <LongitudeDegrees>-0.0256477855145931243896484375</LongitudeDegrees>
            </Position>
            <AltitudeMeters>499.600006103515625</AltitudeMeters>
            <DistanceMeters>41883.340084838</DistanceMeters>
          </Trackpoint>
          <Trackpoint>
            <Time>2022-04-23T11:50:07.000Z</Time>
            <Position>
              <LatitudeDegrees>41.6529585421085357666015625</LatitudeDegrees>
              <LongitudeDegrees>-0.02573286183178424835205078125</LongitudeDegrees>
            </Position>
            <AltitudeMeters>500.399993896484375</AltitudeMeters>
            <DistanceMeters>41891.678645182</DistanceMeters>
          </Trackpoint>
          <Trackpoint>
            <Time>2022-04-23T11:50:11.000Z</Time>
            <Position>
              <LatitudeDegrees>41.6528681851923465728759765625</LatitudeDegrees>
              <LongitudeDegrees>-0.0259093008935451507568359375</LongitudeDegrees>
            </Position>
            <AltitudeMeters>501.399993896484375</AltitudeMeters>
            <DistanceMeters>41909.467686722</DistanceMeters>
          </Trackpoint>
          <Trackpoint>
            <Time>2022-04-23T11:50:16.000Z</Time>
            <Position>
              <LatitudeDegrees>41.65272929705679416656494140625</LatitudeDegrees>
              <LongitudeDegrees>-0.02609898336231708526611328125</LongitudeDegrees>
            </Position>
            <AltitudeMeters>502.399993896484375</AltitudeMeters>
            <DistanceMeters>41931.553784146</DistanceMeters>
          </Trackpoint>
          <Trackpoint>
            <Time>2022-04-23T11:50:17.000Z</Time>
            <Position>
              <LatitudeDegrees>41.6526928357779979705810546875</LatitudeDegrees>
              <LongitudeDegrees>-0.0261289067566394805908203125</LongitudeDegrees>
            </Position>
            <AltitudeMeters>502.600006103515625</AltitudeMeters>
            <DistanceMeters>41936.314613052</DistanceMeters>
          </Trackpoint>
          <Trackpoint>
            <Time>2022-04-23T11:50:20.000Z</Time>
            <Position>
              <LatitudeDegrees>41.652580015361309051513671875</LatitudeDegrees>
              <LongitudeDegrees>-0.0262011587619781494140625</LongitudeDegrees>
            </Position>
            <AltitudeMeters>503</AltitudeMeters>
            <DistanceMeters>41950.235621298</DistanceMeters>
          </Trackpoint>
          <Trackpoint>
            <Time>2022-04-23T11:50:23.000Z</Time>
            <Position>
              <LatitudeDegrees>41.65247364901006221771240234375</LatitudeDegrees>
              <LongitudeDegrees>-0.02622152678668498992919921875</LongitudeDegrees>
            </Position>
            <AltitudeMeters>503.20001220703125</AltitudeMeters>
            <DistanceMeters>41962.195404359</DistanceMeters>
          </Trackpoint>
          <Trackpoint>
            <Time>2022-04-23T11:50:24.000Z</Time>
            <Position>
              <LatitudeDegrees>41.6524356789886951446533203125</LatitudeDegrees>
              <LongitudeDegrees>-0.026239044964313507080078125</LongitudeDegrees>
            </Position>
            <AltitudeMeters>503.20001220703125</AltitudeMeters>
            <DistanceMeters>41966.664691673</DistanceMeters>
          </Trackpoint>
          <Trackpoint>
            <Time>2022-04-23T11:50:27.000Z</Time>
            <Position>
              <LatitudeDegrees>41.65233735926449298858642578125</LatitudeDegrees>
              <LongitudeDegrees>-0.0263451598584651947021484375</LongitudeDegrees>
            </Position>
            <AltitudeMeters>502.79998779296875</AltitudeMeters>
            <DistanceMeters>41980.72286556</DistanceMeters>
          </Trackpoint>
          <Trackpoint>
            <Time>2022-04-23T11:50:28.000Z</Time>
            <Position>
              <LatitudeDegrees>41.65231011807918548583984375</LatitudeDegrees>
              <LongitudeDegrees>-0.02638799138367176055908203125</LongitudeDegrees>
            </Position>
            <AltitudeMeters>502.79998779296875</AltitudeMeters>
            <DistanceMeters>41985.400458448</DistanceMeters>
          </Trackpoint>
          <Trackpoint>
            <Time>2022-04-23T11:50:32.000Z</Time>
            <Position>
              <LatitudeDegrees>41.652219928801059722900390625</LatitudeDegrees>
              <LongitudeDegrees>-0.0265694595873355865478515625</LongitudeDegrees>
            </Position>
            <AltitudeMeters>503.399993896484375</AltitudeMeters>
            <DistanceMeters>42003.52591682</DistanceMeters>
          </Trackpoint>
          <Trackpoint>
            <Time>2022-04-23T11:50:33.000Z</Time>
            <Position>
              <LatitudeDegrees>41.65219469927251338958740234375</LatitudeDegrees>
              <LongitudeDegrees>-0.02661111764609813690185546875</LongitudeDegrees>
            </Position>
            <AltitudeMeters>503.600006103515625</AltitudeMeters>
            <DistanceMeters>42007.985090323</DistanceMeters>
          </Trackpoint>
          <Trackpoint>
            <Time>2022-04-23T11:50:35.000Z</Time>
            <Position>
              <LatitudeDegrees>41.65213979780673980712890625</LatitudeDegrees>
              <LongitudeDegrees>-0.0266908295452594757080078125</LongitudeDegrees>
            </Position>
            <AltitudeMeters>504.20001220703125</AltitudeMeters>
            <DistanceMeters>42017.001117616</DistanceMeters>
          </Trackpoint>
          <Trackpoint>
            <Time>2022-04-23T11:50:36.000Z</Time>
            <Position>
              <LatitudeDegrees>41.6521077789366245269775390625</LatitudeDegrees>
              <LongitudeDegrees>-0.0267213396728038787841796875</LongitudeDegrees>
            </Position>
            <AltitudeMeters>504.600006103515625</AltitudeMeters>
            <DistanceMeters>42021.376476122</DistanceMeters>
          </Trackpoint>
          <Trackpoint>
            <Time>2022-04-23T11:50:38.000Z</Time>
            <Position>
              <LatitudeDegrees>41.6520424000918865203857421875</LatitudeDegrees>
              <LongitudeDegrees>-0.02676903270184993743896484375</LongitudeDegrees>
            </Position>
            <AltitudeMeters>504.79998779296875</AltitudeMeters>
            <DistanceMeters>42029.663982468</DistanceMeters>
          </Trackpoint>
          <Trackpoint>
            <Time>2022-04-23T11:50:44.000Z</Time>
            <Position>
              <LatitudeDegrees>41.65184400044381618499755859375</LatitudeDegrees>
              <LongitudeDegrees>-0.02692409791052341461181640625</LongitudeDegrees>
            </Position>
            <AltitudeMeters>505.79998779296875</AltitudeMeters>
            <DistanceMeters>42055.236234538</DistanceMeters>
          </Trackpoint>
          <Trackpoint>
            <Time>2022-04-23T11:50:45.000Z</Time>
            <Position>
              <LatitudeDegrees>41.65181390941143035888671875</LatitudeDegrees>
              <LongitudeDegrees>-0.026953183114528656005859375</LongitudeDegrees>
            </Position>
            <AltitudeMeters>506.20001220703125</AltitudeMeters>
            <DistanceMeters>42059.369623539</DistanceMeters>
          </Trackpoint>
          <Trackpoint>
            <Time>2022-04-23T11:50:47.000Z</Time>
            <Position>
              <LatitudeDegrees>41.65175917558372020721435546875</LatitudeDegrees>
              <LongitudeDegrees>-0.0270133651793003082275390625</LongitudeDegrees>
            </Position>
            <AltitudeMeters>507</AltitudeMeters>
            <DistanceMeters>42067.254550699</DistanceMeters>
          </Trackpoint>
          <Trackpoint>
            <Time>2022-04-23T11:50:50.000Z</Time>
            <Position>
              <LatitudeDegrees>41.65167870931327342987060546875</LatitudeDegrees>
              <LongitudeDegrees>-0.02711202017962932586669921875</LongitudeDegrees>
            </Position>
            <AltitudeMeters>508.20001220703125</AltitudeMeters>
            <DistanceMeters>42079.400511297</DistanceMeters>
          </Trackpoint>
          <Trackpoint>
            <Time>2022-04-23T11:50:53.000Z</Time>
            <Position>
              <LatitudeDegrees>41.65160335600376129150390625</LatitudeDegrees>
              <LongitudeDegrees>-0.02720908261835575103759765625</LongitudeDegrees>
            </Position>
            <AltitudeMeters>509</AltitudeMeters>
            <DistanceMeters>42091.041186841</DistanceMeters>
          </Trackpoint>
          <Trackpoint>
            <Time>2022-04-23T11:50:55.000Z</Time>
            <Position>
              <LatitudeDegrees>41.65154837071895599365234375</LatitudeDegrees>
              <LongitudeDegrees>-0.02727094106376171112060546875</LongitudeDegrees>
            </Position>
            <AltitudeMeters>509.399993896484375</AltitudeMeters>
            <DistanceMeters>42099.036429874</DistanceMeters>
          </Trackpoint>
          <Trackpoint>
            <Time>2022-04-23T11:50:59.000Z</Time>
            <Position>
              <LatitudeDegrees>41.65143328718841075897216796875</LatitudeDegrees>
              <LongitudeDegrees>-0.0273939035832881927490234375</LongitudeDegrees>
            </Position>
            <AltitudeMeters>509.79998779296875</AltitudeMeters>
            <DistanceMeters>42115.426816514</DistanceMeters>
          </Trackpoint>
          <Trackpoint>
            <Time>2022-04-23T11:51:04.000Z</Time>
            <Position>
              <LatitudeDegrees>41.651302613317966461181640625</LatitudeDegrees>
              <LongitudeDegrees>-0.02754804678261280059814453125</LongitudeDegrees>
            </Position>
            <AltitudeMeters>510.399993896484375</AltitudeMeters>
            <DistanceMeters>42134.814129424</DistanceMeters>
          </Trackpoint>
          <Trackpoint>
            <Time>2022-04-23T11:51:09.000Z</Time>
            <Position>
              <LatitudeDegrees>41.65119037963449954986572265625</LatitudeDegrees>
              <LongitudeDegrees>-0.0277248211205005645751953125</LongitudeDegrees>
            </Position>
            <AltitudeMeters>511.20001220703125</AltitudeMeters>
            <DistanceMeters>42154.106190764</DistanceMeters>
          </Trackpoint>
          <Trackpoint>
            <Time>2022-04-23T11:51:11.000Z</Time>
            <Position>
              <LatitudeDegrees>41.65115266107022762298583984375</LatitudeDegrees>
              <LongitudeDegrees>-0.027810148894786834716796875</LongitudeDegrees>
            </Position>
            <AltitudeMeters>511.600006103515625</AltitudeMeters>
            <DistanceMeters>42162.351093157</DistanceMeters>
          </Trackpoint>
          <Trackpoint>
            <Time>2022-04-23T11:51:17.000Z</Time>
            <Position>
              <LatitudeDegrees>41.6510633938014507293701171875</LatitudeDegrees>
              <LongitudeDegrees>-0.02808331511914730072021484375</LongitudeDegrees>
            </Position>
            <AltitudeMeters>512.4000244140625</AltitudeMeters>
            <DistanceMeters>42187.146511175</DistanceMeters>
          </Trackpoint>
          <Trackpoint>
            <Time>2022-04-23T11:51:18.000Z</Time>
            <Position>
              <LatitudeDegrees>41.651046462357044219970703125</LatitudeDegrees>
              <LongitudeDegrees>-0.0281271524727344512939453125</LongitudeDegrees>
            </Position>
            <AltitudeMeters>512.5999755859375</AltitudeMeters>
            <DistanceMeters>42191.250301199</DistanceMeters>
          </Trackpoint>
          <Trackpoint>
            <Time>2022-04-23T11:51:23.000Z</Time>
            <Position>
              <LatitudeDegrees>41.6509651578962802886962890625</LatitudeDegrees>
              <LongitudeDegrees>-0.0283413939177989959716796875</LongitudeDegrees>
            </Position>
            <AltitudeMeters>513.79998779296875</AltitudeMeters>
            <DistanceMeters>42211.233947029</DistanceMeters>
          </Trackpoint>
          <Trackpoint>
            <Time>2022-04-23T11:51:26.000Z</Time>
            <Position>
              <LatitudeDegrees>41.65091528557240962982177734375</LatitudeDegrees>
              <LongitudeDegrees>-0.0284622609615325927734375</LongitudeDegrees>
            </Position>
            <AltitudeMeters>514.20001220703125</AltitudeMeters>
            <DistanceMeters>42222.716068614</DistanceMeters>
          </Trackpoint>
          <Trackpoint>
            <Time>2022-04-23T11:51:29.000Z</Time>
            <Position>
              <LatitudeDegrees>41.65086038410663604736328125</LatitudeDegrees>
              <LongitudeDegrees>-0.0285641849040985107421875</LongitudeDegrees>
            </Position>
            <AltitudeMeters>514.79998779296875</AltitudeMeters>
            <DistanceMeters>42233.165551106</DistanceMeters>
          </Trackpoint>
          <Trackpoint>
            <Time>2022-04-23T11:51:33.000Z</Time>
            <Position>
              <LatitudeDegrees>41.650776900351047515869140625</LatitudeDegrees>
              <LongitudeDegrees>-0.028710030019283294677734375</LongitudeDegrees>
            </Position>
            <AltitudeMeters>515.79998779296875</AltitudeMeters>
            <DistanceMeters>42248.444771188</DistanceMeters>
          </Trackpoint>
          <Trackpoint>
            <Time>2022-04-23T11:51:34.000Z</Time>
            <Position>
              <LatitudeDegrees>41.6507549397647380828857421875</LatitudeDegrees>
              <LongitudeDegrees>-0.0287517718970775604248046875</LongitudeDegrees>
            </Position>
            <AltitudeMeters>516</AltitudeMeters>
            <DistanceMeters>42252.689179569</DistanceMeters>
          </Trackpoint>
          <Trackpoint>
            <Time>2022-04-23T11:51:42.000Z</Time>
            <Position>
              <LatitudeDegrees>41.65059761144220829010009765625</LatitudeDegrees>
              <LongitudeDegrees>-0.02909459173679351806640625</LongitudeDegrees>
            </Position>
            <AltitudeMeters>516.20001220703125</AltitudeMeters>
            <DistanceMeters>42286.148300257</DistanceMeters>
          </Trackpoint>
          <Trackpoint>
            <Time>2022-04-23T11:51:48.000Z</Time>
            <Position>
              <LatitudeDegrees>41.650518067181110382080078125</LatitudeDegrees>
              <LongitudeDegrees>-0.029394328594207763671875</LongitudeDegrees>
            </Position>
            <AltitudeMeters>516.79998779296875</AltitudeMeters>
            <DistanceMeters>42312.601935246</DistanceMeters>
          </Trackpoint>
          <Trackpoint>
            <Time>2022-04-23T11:51:50.000Z</Time>
            <Position>
              <LatitudeDegrees>41.65049484930932521820068359375</LatitudeDegrees>
              <LongitudeDegrees>-0.029491893947124481201171875</LongitudeDegrees>
            </Position>
            <AltitudeMeters>517</AltitudeMeters>
            <DistanceMeters>42321.117304518</DistanceMeters>
          </Trackpoint>
          <Trackpoint>
            <Time>2022-04-23T11:51:53.000Z</Time>
            <Position>
              <LatitudeDegrees>41.6504545323550701141357421875</LatitudeDegrees>
              <LongitudeDegrees>-0.0296348892152309417724609375</LongitudeDegrees>
            </Position>
            <AltitudeMeters>517.79998779296875</AltitudeMeters>
            <DistanceMeters>42333.82817104</DistanceMeters>
          </Trackpoint>
          <Trackpoint>
            <Time>2022-04-23T11:51:56.000Z</Time>
            <Position>
              <LatitudeDegrees>41.6504104435443878173828125</LatitudeDegrees>
              <LongitudeDegrees>-0.02977360971271991729736328125</LongitudeDegrees>
            </Position>
            <AltitudeMeters>518.79998779296875</AltitudeMeters>
            <DistanceMeters>42346.365216568</DistanceMeters>
          </Trackpoint>
          <Trackpoint>
            <Time>2022-04-23T11:51:57.000Z</Time>
            <Position>
              <LatitudeDegrees>41.6503975354135036468505859375</LatitudeDegrees>
              <LongitudeDegrees>-0.0298199616372585296630859375</LongitudeDegrees>
            </Position>
            <AltitudeMeters>519</AltitudeMeters>
            <DistanceMeters>42350.478896582</DistanceMeters>
          </Trackpoint>
          <Trackpoint>
            <Time>2022-04-23T11:52:01.000Z</Time>
            <Position>
              <LatitudeDegrees>41.65034498088061809539794921875</LatitudeDegrees>
              <LongitudeDegrees>-0.03000377677381038665771484375</LongitudeDegrees>
            </Position>
            <AltitudeMeters>520.20001220703125</AltitudeMeters>
            <DistanceMeters>42366.847230893</DistanceMeters>
          </Trackpoint>
          <Trackpoint>
            <Time>2022-04-23T11:52:03.000Z</Time>
            <Position>
              <LatitudeDegrees>41.65031111799180507659912109375</LatitudeDegrees>
              <LongitudeDegrees>-0.0300958938896656036376953125</LongitudeDegrees>
            </Position>
            <AltitudeMeters>520.5999755859375</AltitudeMeters>
            <DistanceMeters>42375.384840456</DistanceMeters>
          </Trackpoint>
          <Trackpoint>
            <Time>2022-04-23T11:52:06.000Z</Time>
            <Position>
              <LatitudeDegrees>41.65028446353971958160400390625</LatitudeDegrees>
              <LongitudeDegrees>-0.03024534322321414947509765625</LongitudeDegrees>
            </Position>
            <AltitudeMeters>521</AltitudeMeters>
            <DistanceMeters>42388.163018818</DistanceMeters>
          </Trackpoint>
          <Trackpoint>
            <Time>2022-04-23T11:52:11.000Z</Time>
            <Position>
              <LatitudeDegrees>41.650257222354412078857421875</LatitudeDegrees>
              <LongitudeDegrees>-0.0304811261594295501708984375</LongitudeDegrees>
            </Position>
            <AltitudeMeters>522</AltitudeMeters>
            <DistanceMeters>42408.005179309</DistanceMeters>
          </Trackpoint>
          <Trackpoint>
            <Time>2022-04-23T11:52:12.000Z</Time>
            <Position>
              <LatitudeDegrees>41.6502530314028263092041015625</LatitudeDegrees>
              <LongitudeDegrees>-0.03052689135074615478515625</LongitudeDegrees>
            </Position>
            <AltitudeMeters>522.5999755859375</AltitudeMeters>
            <DistanceMeters>42411.839362984</DistanceMeters>
          </Trackpoint>
          <Trackpoint>
            <Time>2022-04-23T11:52:14.000Z</Time>
            <Position>
              <LatitudeDegrees>41.6502359323203563690185546875</LatitudeDegrees>
              <LongitudeDegrees>-0.03061464987695217132568359375</LongitudeDegrees>
            </Position>
            <AltitudeMeters>523.4000244140625</AltitudeMeters>
            <DistanceMeters>42419.381874608</DistanceMeters>
          </Trackpoint>
          <Trackpoint>
            <Time>2022-04-23T11:52:18.000Z</Time>
            <Position>
              <LatitudeDegrees>41.65017633698880672454833984375</LatitudeDegrees>
              <LongitudeDegrees>-0.03079033456742763519287109375</LongitudeDegrees>
            </Position>
            <AltitudeMeters>524.4000244140625</AltitudeMeters>
            <DistanceMeters>42435.427888744</DistanceMeters>
          </Trackpoint>
          <Trackpoint>
            <Time>2022-04-23T11:52:23.000Z</Time>
            <Position>
              <LatitudeDegrees>41.6501031629741191864013671875</LatitudeDegrees>
              <LongitudeDegrees>-0.03101103007793426513671875</LongitudeDegrees>
            </Position>
            <AltitudeMeters>525.5999755859375</AltitudeMeters>
            <DistanceMeters>42455.508227472</DistanceMeters>
          </Trackpoint>
          <Trackpoint>
            <Time>2022-04-23T11:52:26.000Z</Time>
            <Position>
              <LatitudeDegrees>41.6500649414956569671630859375</LatitudeDegrees>
              <LongitudeDegrees>-0.0311228446662425994873046875</LongitudeDegrees>
            </Position>
            <AltitudeMeters>526.79998779296875</AltitudeMeters>
            <DistanceMeters>42465.734974041</DistanceMeters>
          </Trackpoint>
          <Trackpoint>
            <Time>2022-04-23T11:52:29.000Z</Time>
            <Position>
              <LatitudeDegrees>41.65004859678447246551513671875</LatitudeDegrees>
              <LongitudeDegrees>-0.03123440779745578765869140625</LongitudeDegrees>
            </Position>
            <AltitudeMeters>527.79998779296875</AltitudeMeters>
            <DistanceMeters>42475.190490254</DistanceMeters>
          </Trackpoint>
          <Trackpoint>
            <Time>2022-04-23T11:52:30.000Z</Time>
            <Position>
              <LatitudeDegrees>41.650032587349414825439453125</LatitudeDegrees>
              <LongitudeDegrees>-0.031270869076251983642578125</LongitudeDegrees>
            </Position>
            <AltitudeMeters>528</AltitudeMeters>
            <DistanceMeters>42478.709046038</DistanceMeters>
          </Trackpoint>
          <Trackpoint>
            <Time>2022-04-23T11:52:34.000Z</Time>
            <Position>
              <LatitudeDegrees>41.649957485496997833251953125</LatitudeDegrees>
              <LongitudeDegrees>-0.0314222462475299835205078125</LongitudeDegrees>
            </Position>
            <AltitudeMeters>529.20001220703125</AltitudeMeters>
            <DistanceMeters>42493.820982819</DistanceMeters>
          </Trackpoint>
          <Trackpoint>
            <Time>2022-04-23T11:52:37.000Z</Time>
            <Position>
              <LatitudeDegrees>41.649900488555431365966796875</LatitudeDegrees>
              <LongitudeDegrees>-0.03153271973133087158203125</LongitudeDegrees>
            </Position>
            <AltitudeMeters>529.79998779296875</AltitudeMeters>
            <DistanceMeters>42504.98571189</DistanceMeters>
          </Trackpoint>
          <Trackpoint>
            <Time>2022-04-23T11:52:39.000Z</Time>
            <Position>
              <LatitudeDegrees>41.64986419491469860076904296875</LatitudeDegrees>
              <LongitudeDegrees>-0.031609833240509033203125</LongitudeDegrees>
            </Position>
            <AltitudeMeters>530.4000244140625</AltitudeMeters>
            <DistanceMeters>42512.565246595</DistanceMeters>
          </Trackpoint>
          <Trackpoint>
            <Time>2022-04-23T11:52:44.000Z</Time>
            <Position>
              <LatitudeDegrees>41.64979529567062854766845703125</LatitudeDegrees>
              <LongitudeDegrees>-0.03179549239575862884521484375</LongitudeDegrees>
            </Position>
            <AltitudeMeters>531.4000244140625</AltitudeMeters>
            <DistanceMeters>42529.805722117</DistanceMeters>
          </Trackpoint>
          <Trackpoint>
            <Time>2022-04-23T11:52:48.000Z</Time>
            <Position>
              <LatitudeDegrees>41.64974416606128215789794921875</LatitudeDegrees>
              <LongitudeDegrees>-0.031950138509273529052734375</LongitudeDegrees>
            </Position>
            <AltitudeMeters>532.5999755859375</AltitudeMeters>
            <DistanceMeters>42543.869675844</DistanceMeters>
          </Trackpoint>
          <Trackpoint>
            <Time>2022-04-23T11:52:51.000Z</Time>
            <Position>
              <LatitudeDegrees>41.64970896206796169281005859375</LatitudeDegrees>
              <LongitudeDegrees>-0.0320591032505035400390625</LongitudeDegrees>
            </Position>
            <AltitudeMeters>533.5999755859375</AltitudeMeters>
            <DistanceMeters>42553.743312726</DistanceMeters>
          </Trackpoint>
          <Trackpoint>
            <Time>2022-04-23T11:52:52.000Z</Time>
            <Position>
              <LatitudeDegrees>41.649701334536075592041015625</LatitudeDegrees>
              <LongitudeDegrees>-0.03209422342479228973388671875</LongitudeDegrees>
            </Position>
            <AltitudeMeters>533.5999755859375</AltitudeMeters>
            <DistanceMeters>42556.785652016</DistanceMeters>
          </Trackpoint>
          <Trackpoint>
            <Time>2022-04-23T11:52:53.000Z</Time>
            <Position>
              <LatitudeDegrees>41.64969027042388916015625</LatitudeDegrees>
              <LongitudeDegrees>-0.0321337021887302398681640625</LongitudeDegrees>
            </Position>
            <AltitudeMeters>534</AltitudeMeters>
            <DistanceMeters>42560.292639914</DistanceMeters>
          </Trackpoint>
          <Trackpoint>
            <Time>2022-04-23T11:52:58.000Z</Time>
            <Position>
              <LatitudeDegrees>41.64964945055544376373291015625</LatitudeDegrees>
              <LongitudeDegrees>-0.03233428113162517547607421875</LongitudeDegrees>
            </Position>
            <AltitudeMeters>535</AltitudeMeters>
            <DistanceMeters>42577.581757603</DistanceMeters>
          </Trackpoint>
          <Trackpoint>
            <Time>2022-04-23T11:52:59.000Z</Time>
            <Position>
              <LatitudeDegrees>41.64964173920452594757080078125</LatitudeDegrees>
              <LongitudeDegrees>-0.0323694013059139251708984375</LongitudeDegrees>
            </Position>
            <AltitudeMeters>535</AltitudeMeters>
            <DistanceMeters>42580.625580599</DistanceMeters>
          </Trackpoint>
          <Trackpoint>
            <Time>2022-04-23T11:53:02.000Z</Time>
            <Position>
              <LatitudeDegrees>41.6495870053768157958984375</LatitudeDegrees>
              <LongitudeDegrees>-0.032461099326610565185546875</LongitudeDegrees>
            </Position>
            <AltitudeMeters>537</AltitudeMeters>
            <DistanceMeters>42590.386077845</DistanceMeters>
          </Trackpoint>
          <Trackpoint>
            <Time>2022-04-23T11:53:05.000Z</Time>
            <Position>
              <LatitudeDegrees>41.64951433427631855010986328125</LatitudeDegrees>
              <LongitudeDegrees>-0.032534189522266387939453125</LongitudeDegrees>
            </Position>
            <AltitudeMeters>538.20001220703125</AltitudeMeters>
            <DistanceMeters>42600.504526674</DistanceMeters>
          </Trackpoint>
          <Trackpoint>
            <Time>2022-04-23T11:53:08.000Z</Time>
            <Position>
              <LatitudeDegrees>41.64942850358784198760986328125</LatitudeDegrees>
              <LongitudeDegrees>-0.03257341682910919189453125</LongitudeDegrees>
            </Position>
            <AltitudeMeters>538.5999755859375</AltitudeMeters>
            <DistanceMeters>42610.599745481</DistanceMeters>
          </Trackpoint>
          <Trackpoint>
            <Time>2022-04-23T11:53:10.000Z</Time>
            <Position>
              <LatitudeDegrees>41.649370752274990081787109375</LatitudeDegrees>
              <LongitudeDegrees>-0.03257467411458492279052734375</LongitudeDegrees>
            </Position>
            <AltitudeMeters>539.20001220703125</AltitudeMeters>
            <DistanceMeters>42617.027935724</DistanceMeters>
          </Trackpoint>
          <Trackpoint>
            <Time>2022-04-23T11:53:15.000Z</Time>
            <Position>
              <LatitudeDegrees>41.6492294333875179290771484375</LatitudeDegrees>
              <LongitudeDegrees>-0.0325445830821990966796875</LongitudeDegrees>
            </Position>
            <AltitudeMeters>540.4000244140625</AltitudeMeters>
            <DistanceMeters>42632.954481091</DistanceMeters>
          </Trackpoint>
          <Trackpoint>
            <Time>2022-04-23T11:53:22.000Z</Time>
            <Position>
              <LatitudeDegrees>41.6490597836673259735107421875</LatitudeDegrees>
              <LongitudeDegrees>-0.03240955062210559844970703125</LongitudeDegrees>
            </Position>
            <AltitudeMeters>541.20001220703125</AltitudeMeters>
            <DistanceMeters>42654.924156009</DistanceMeters>
          </Trackpoint>
          <Trackpoint>
            <Time>2022-04-23T11:53:23.000Z</Time>
            <Position>
              <LatitudeDegrees>41.64903782308101654052734375</LatitudeDegrees>
              <LongitudeDegrees>-0.032388009130954742431640625</LongitudeDegrees>
            </Position>
            <AltitudeMeters>541.4000244140625</AltitudeMeters>
            <DistanceMeters>42657.954599498</DistanceMeters>
          </Trackpoint>
          <Trackpoint>
            <Time>2022-04-23T11:53:26.000Z</Time>
            <Position>
              <LatitudeDegrees>41.64897705428302288055419921875</LatitudeDegrees>
              <LongitudeDegrees>-0.0323050282895565032958984375</LongitudeDegrees>
            </Position>
            <AltitudeMeters>542.4000244140625</AltitudeMeters>
            <DistanceMeters>42667.617466073</DistanceMeters>
          </Trackpoint>
          <Trackpoint>
            <Time>2022-04-23T11:53:27.000Z</Time>
            <Position>
              <LatitudeDegrees>41.64895526133477687835693359375</LatitudeDegrees>
              <LongitudeDegrees>-0.03227795474231243133544921875</LongitudeDegrees>
            </Position>
            <AltitudeMeters>542.4000244140625</AltitudeMeters>
            <DistanceMeters>42670.928434632</DistanceMeters>
          </Trackpoint>
          <Trackpoint>
            <Time>2022-04-23T11:53:30.000Z</Time>
            <Position>
              <LatitudeDegrees>41.6488844342529773712158203125</LatitudeDegrees>
              <LongitudeDegrees>-0.03220838494598865509033203125</LongitudeDegrees>
            </Position>
            <AltitudeMeters>543.4000244140625</AltitudeMeters>
            <DistanceMeters>42680.706955966</DistanceMeters>
          </Trackpoint>
          <Trackpoint>
            <Time>2022-04-23T11:53:32.000Z</Time>
            <Position>
              <LatitudeDegrees>41.64883456192910671234130859375</LatitudeDegrees>
              <LongitudeDegrees>-0.0321806408464908599853515625</LongitudeDegrees>
            </Position>
            <AltitudeMeters>543.5999755859375</AltitudeMeters>
            <DistanceMeters>42686.718475401</DistanceMeters>
          </Trackpoint>
          <Trackpoint>
            <Time>2022-04-23T11:53:36.000Z</Time>
            <Position>
              <LatitudeDegrees>41.648731045424938201904296875</LatitudeDegrees>
              <LongitudeDegrees>-0.03216228447854518890380859375</LongitudeDegrees>
            </Position>
            <AltitudeMeters>544.4000244140625</AltitudeMeters>
            <DistanceMeters>42698.340906882</DistanceMeters>
          </Trackpoint>
          <Trackpoint>
            <Time>2022-04-23T11:53:39.000Z</Time>
            <Position>
              <LatitudeDegrees>41.64865032769739627838134765625</LatitudeDegrees>
              <LongitudeDegrees>-0.0321843288838863372802734375</LongitudeDegrees>
            </Position>
            <AltitudeMeters>545</AltitudeMeters>
            <DistanceMeters>42707.509876928</DistanceMeters>
          </Trackpoint>
          <Trackpoint>
            <Time>2022-04-23T11:53:43.000Z</Time>
            <Position>
              <LatitudeDegrees>41.6485287062823772430419921875</LatitudeDegrees>
              <LongitudeDegrees>-0.03222548402845859527587890625</LongitudeDegrees>
            </Position>
            <AltitudeMeters>546.20001220703125</AltitudeMeters>
            <DistanceMeters>42721.472984766</DistanceMeters>
          </Trackpoint>
          <Trackpoint>
            <Time>2022-04-23T11:53:46.000Z</Time>
            <Position>
              <LatitudeDegrees>41.64843474514782428741455078125</LatitudeDegrees>
              <LongitudeDegrees>-0.03226454369723796844482421875</LongitudeDegrees>
            </Position>
            <AltitudeMeters>547.4000244140625</AltitudeMeters>
            <DistanceMeters>42732.423757121</DistanceMeters>
          </Trackpoint>
          <Trackpoint>
            <Time>2022-04-23T11:53:50.000Z</Time>
            <Position>
              <LatitudeDegrees>41.64831337518990039825439453125</LatitudeDegrees>
              <LongitudeDegrees>-0.0323191098868846893310546875</LongitudeDegrees>
            </Position>
            <AltitudeMeters>548.5999755859375</AltitudeMeters>
            <DistanceMeters>42746.674596367</DistanceMeters>
          </Trackpoint>
          <Trackpoint>
            <Time>2022-04-23T11:53:54.000Z</Time>
            <Position>
              <LatitudeDegrees>41.6482041589915752410888671875</LatitudeDegrees>
              <LongitudeDegrees>-0.0323774479329586029052734375</LongitudeDegrees>
            </Position>
            <AltitudeMeters>549.5999755859375</AltitudeMeters>
            <DistanceMeters>42759.763469898</DistanceMeters>
          </Trackpoint>
          <Trackpoint>
            <Time>2022-04-23T11:53:55.000Z</Time>
            <Position>
              <LatitudeDegrees>41.64818060584366321563720703125</LatitudeDegrees>
              <LongitudeDegrees>-0.0323928706347942352294921875</LongitudeDegrees>
            </Position>
            <AltitudeMeters>549.79998779296875</AltitudeMeters>
            <DistanceMeters>42762.680031574</DistanceMeters>
          </Trackpoint>
          <Trackpoint>
            <Time>2022-04-23T11:53:59.000Z</Time>
            <Position>
              <LatitudeDegrees>41.64809091947972774505615234375</LatitudeDegrees>
              <LongitudeDegrees>-0.03244844265282154083251953125</LongitudeDegrees>
            </Position>
            <AltitudeMeters>550.79998779296875</AltitudeMeters>
            <DistanceMeters>42773.680579489</DistanceMeters>
          </Trackpoint>
          <Trackpoint>
            <Time>2022-04-23T11:54:02.000Z</Time>
            <Position>
              <LatitudeDegrees>41.648023612797260284423828125</LatitudeDegrees>
              <LongitudeDegrees>-0.03248934634029865264892578125</LongitudeDegrees>
            </Position>
            <AltitudeMeters>551.79998779296875</AltitudeMeters>
            <DistanceMeters>42781.907939516</DistanceMeters>
          </Trackpoint>
          <Trackpoint>
            <Time>2022-04-23T11:54:03.000Z</Time>
            <Position>
              <LatitudeDegrees>41.64799955673515796661376953125</LatitudeDegrees>
              <LongitudeDegrees>-0.03251164220273494720458984375</LongitudeDegrees>
            </Position>
            <AltitudeMeters>552.20001220703125</AltitudeMeters>
            <DistanceMeters>42785.166676986</DistanceMeters>
          </Trackpoint>
          <Trackpoint>
            <Time>2022-04-23T11:54:07.000Z</Time>
            <Position>
              <LatitudeDegrees>41.64788849651813507080078125</LatitudeDegrees>
              <LongitudeDegrees>-0.0325896777212619781494140625</LongitudeDegrees>
            </Position>
            <AltitudeMeters>553.20001220703125</AltitudeMeters>
            <DistanceMeters>42799.128167957</DistanceMeters>
          </Trackpoint>
          <Trackpoint>
            <Time>2022-04-23T11:54:09.000Z</Time>
            <Position>
              <LatitudeDegrees>41.64783091284334659576416015625</LatitudeDegrees>
              <LongitudeDegrees>-0.03261490724980831146240234375</LongitudeDegrees>
            </Position>
            <AltitudeMeters>553.5999755859375</AltitudeMeters>
            <DistanceMeters>42805.871717836</DistanceMeters>
          </Trackpoint>
          <Trackpoint>
            <Time>2022-04-23T11:54:12.000Z</Time>
            <Position>
              <LatitudeDegrees>41.64775975048542022705078125</LatitudeDegrees>
              <LongitudeDegrees>-0.03263116814196109771728515625</LongitudeDegrees>
            </Position>
            <AltitudeMeters>554.20001220703125</AltitudeMeters>
            <DistanceMeters>42813.90695564</DistanceMeters>
          </Trackpoint>
          <Trackpoint>
            <Time>2022-04-23T11:54:14.000Z</Time>
            <Position>
              <LatitudeDegrees>41.64771549403667449951171875</LatitudeDegrees>
              <LongitudeDegrees>-0.0326329283416271209716796875</LongitudeDegrees>
            </Position>
            <AltitudeMeters>554.5999755859375</AltitudeMeters>
            <DistanceMeters>42818.834619951</DistanceMeters>
          </Trackpoint>
          <Trackpoint>
            <Time>2022-04-23T11:54:16.000Z</Time>
            <Position>
              <LatitudeDegrees>41.64767886511981487274169921875</LatitudeDegrees>
              <LongitudeDegrees>-0.0326429866254329681396484375</LongitudeDegrees>
            </Position>
            <AltitudeMeters>555.4000244140625</AltitudeMeters>
            <DistanceMeters>42822.99631271</DistanceMeters>
          </Trackpoint>
          <Trackpoint>
            <Time>2022-04-23T11:54:18.000Z</Time>
            <Position>
              <LatitudeDegrees>41.64767115376889705657958984375</LatitudeDegrees>
              <LongitudeDegrees>-0.03263510763645172119140625</LongitudeDegrees>
            </Position>
            <AltitudeMeters>555.79998779296875</AltitudeMeters>
            <DistanceMeters>42824.071417256</DistanceMeters>
          </Trackpoint>
          <Trackpoint>
            <Time>2022-04-23T11:54:19.000Z</Time>
            <Position>
              <LatitudeDegrees>41.64767115376889705657958984375</LatitudeDegrees>
              <LongitudeDegrees>-0.03263510763645172119140625</LongitudeDegrees>
            </Position>
            <AltitudeMeters>556.20001220703125</AltitudeMeters>
            <DistanceMeters>42824.071417256</DistanceMeters>
          </Trackpoint>
          <Trackpoint>
            <Time>2022-04-23T11:58:40.000Z</Time>
            <Position>
              <LatitudeDegrees>41.64765640161931514739990234375</LatitudeDegrees>
              <LongitudeDegrees>-0.032672323286533355712890625</LongitudeDegrees>
            </Position>
            <AltitudeMeters>557.79998779296875</AltitudeMeters>
            <DistanceMeters>42827.575829327</DistanceMeters>
          </Trackpoint>
          <Trackpoint>
            <Time>2022-04-23T11:58:41.000Z</Time>
            <Position>
              <LatitudeDegrees>41.647643409669399261474609375</LatitudeDegrees>
              <LongitudeDegrees>-0.032691098749637603759765625</LongitudeDegrees>
            </Position>
            <AltitudeMeters>557.79998779296875</AltitudeMeters>
            <DistanceMeters>42829.702815057</DistanceMeters>
          </Trackpoint>
          <Trackpoint>
            <Time>2022-04-23T11:58:42.000Z</Time>
            <Position>
              <LatitudeDegrees>41.64762387983500957489013671875</LatitudeDegrees>
              <LongitudeDegrees>-0.03271733410656452178955078125</LongitudeDegrees>
            </Position>
            <AltitudeMeters>557.79998779296875</AltitudeMeters>
            <DistanceMeters>42832.782032534</DistanceMeters>
          </Trackpoint>
          <Trackpoint>
            <Time>2022-04-23T11:58:46.000Z</Time>
            <Position>
              <LatitudeDegrees>41.64752103388309478759765625</LatitudeDegrees>
              <LongitudeDegrees>-0.03288497216999530792236328125</LongitudeDegrees>
            </Position>
            <AltitudeMeters>557.79998779296875</AltitudeMeters>
            <DistanceMeters>42850.821096665</DistanceMeters>
          </Trackpoint>
          <Trackpoint>
            <Time>2022-04-23T11:58:49.000Z</Time>
            <Position>
              <LatitudeDegrees>41.647427491843700408935546875</LatitudeDegrees>
              <LongitudeDegrees>-0.03302277065813541412353515625</LongitudeDegrees>
            </Position>
            <AltitudeMeters>557.5999755859375</AltitudeMeters>
            <DistanceMeters>42866.30462015</DistanceMeters>
          </Trackpoint>
          <Trackpoint>
            <Time>2022-04-23T11:58:51.000Z</Time>
            <Position>
              <LatitudeDegrees>41.64733571000397205352783203125</LatitudeDegrees>
              <LongitudeDegrees>-0.03309401683509349822998046875</LongitudeDegrees>
            </Position>
            <AltitudeMeters>557.5999755859375</AltitudeMeters>
            <DistanceMeters>42878.11472433</DistanceMeters>
          </Trackpoint>
          <Trackpoint>
            <Time>2022-04-23T11:58:54.000Z</Time>
            <Position>
              <LatitudeDegrees>41.647205539047718048095703125</LatitudeDegrees>
              <LongitudeDegrees>-0.0331985391676425933837890625</LongitudeDegrees>
            </Position>
            <AltitudeMeters>557.4000244140625</AltitudeMeters>
            <DistanceMeters>42895.010784129</DistanceMeters>
          </Trackpoint>
          <Trackpoint>
            <Time>2022-04-23T11:58:56.000Z</Time>
            <Position>
              <LatitudeDegrees>41.64715893566608428955078125</LatitudeDegrees>
              <LongitudeDegrees>-0.03331764601171016693115234375</LongitudeDegrees>
            </Position>
            <AltitudeMeters>557.20001220703125</AltitudeMeters>
            <DistanceMeters>42906.192888963</DistanceMeters>
          </Trackpoint>
          <Trackpoint>
            <Time>2022-04-23T11:58:58.000Z</Time>
            <Position>
              <LatitudeDegrees>41.6471352986991405487060546875</LatitudeDegrees>
              <LongitudeDegrees>-0.0334637425839900970458984375</LongitudeDegrees>
            </Position>
            <AltitudeMeters>557.20001220703125</AltitudeMeters>
            <DistanceMeters>42918.625782776</DistanceMeters>
          </Trackpoint>
          <Trackpoint>
            <Time>2022-04-23T11:59:00.000Z</Time>
            <Position>
              <LatitudeDegrees>41.64708115160465240478515625</LatitudeDegrees>
              <LongitudeDegrees>-0.03360933624207973480224609375</LongitudeDegrees>
            </Position>
            <AltitudeMeters>557</AltitudeMeters>
            <DistanceMeters>42932.151659781</DistanceMeters>
          </Trackpoint>
          <Trackpoint>
            <Time>2022-04-23T11:59:01.000Z</Time>
            <Position>
              <LatitudeDegrees>41.64704603143036365509033203125</LatitudeDegrees>
              <LongitudeDegrees>-0.0336706079542636871337890625</LongitudeDegrees>
            </Position>
            <AltitudeMeters>557</AltitudeMeters>
            <DistanceMeters>42938.574228519</DistanceMeters>
          </Trackpoint>
          <Trackpoint>
            <Time>2022-04-23T11:59:03.000Z</Time>
            <Position>
              <LatitudeDegrees>41.64696875028312206268310546875</LatitudeDegrees>
              <LongitudeDegrees>-0.03378334455192089080810546875</LongitudeDegrees>
            </Position>
            <AltitudeMeters>557</AltitudeMeters>
            <DistanceMeters>42951.298231056</DistanceMeters>
          </Trackpoint>
          <Trackpoint>
            <Time>2022-04-23T11:59:05.000Z</Time>
            <Position>
              <LatitudeDegrees>41.6469262540340423583984375</LatitudeDegrees>
              <LongitudeDegrees>-0.03392030484974384307861328125</LongitudeDegrees>
            </Position>
            <AltitudeMeters>557.79998779296875</AltitudeMeters>
            <DistanceMeters>42963.632683939</DistanceMeters>
          </Trackpoint>
          <Trackpoint>
            <Time>2022-04-23T11:59:07.000Z</Time>
            <Position>
              <LatitudeDegrees>41.6469465382397174835205078125</LatitudeDegrees>
              <LongitudeDegrees>-0.0340628810226917266845703125</LongitudeDegrees>
            </Position>
            <AltitudeMeters>558</AltitudeMeters>
            <DistanceMeters>42975.703695226</DistanceMeters>
          </Trackpoint>
          <Trackpoint>
            <Time>2022-04-23T11:59:08.000Z</Time>
            <Position>
              <LatitudeDegrees>41.64697922766208648681640625</LatitudeDegrees>
              <LongitudeDegrees>-0.0341430120170116424560546875</LongitudeDegrees>
            </Position>
            <AltitudeMeters>557.79998779296875</AltitudeMeters>
            <DistanceMeters>42983.296918395</DistanceMeters>
          </Trackpoint>
          <Trackpoint>
            <Time>2022-04-23T11:59:12.000Z</Time>
            <Position>
              <LatitudeDegrees>41.64711878634989261627197265625</LatitudeDegrees>
              <LongitudeDegrees>-0.03442372195422649383544921875</LongitudeDegrees>
            </Position>
            <AltitudeMeters>557.79998779296875</AltitudeMeters>
            <DistanceMeters>43011.338978179</DistanceMeters>
          </Trackpoint>
          <Trackpoint>
            <Time>2022-04-23T11:59:13.000Z</Time>
            <Position>
              <LatitudeDegrees>41.647165305912494659423828125</LatitudeDegrees>
              <LongitudeDegrees>-0.034523718059062957763671875</LongitudeDegrees>
            </Position>
            <AltitudeMeters>557.79998779296875</AltitudeMeters>
            <DistanceMeters>43021.135490438</DistanceMeters>
          </Trackpoint>
          <Trackpoint>
            <Time>2022-04-23T11:59:14.000Z</Time>
            <Position>
              <LatitudeDegrees>41.6471916250884532928466796875</LatitudeDegrees>
              <LongitudeDegrees>-0.03459303639829158782958984375</LongitudeDegrees>
            </Position>
            <AltitudeMeters>557.79998779296875</AltitudeMeters>
            <DistanceMeters>43027.602196246</DistanceMeters>
          </Trackpoint>
          <Trackpoint>
            <Time>2022-04-23T11:59:15.000Z</Time>
            <Position>
              <LatitudeDegrees>41.64720646105706691741943359375</LatitudeDegrees>
              <LongitudeDegrees>-0.03468305803835391998291015625</LongitudeDegrees>
            </Position>
            <AltitudeMeters>556.5999755859375</AltitudeMeters>
            <DistanceMeters>43035.26879703</DistanceMeters>
          </Trackpoint>
          <Trackpoint>
            <Time>2022-04-23T11:59:16.000Z</Time>
            <Position>
              <LatitudeDegrees>41.647196821868419647216796875</LatitudeDegrees>
              <LongitudeDegrees>-0.0347681343555450439453125</LongitudeDegrees>
            </Position>
            <AltitudeMeters>554.79998779296875</AltitudeMeters>
            <DistanceMeters>43042.425513707</DistanceMeters>
          </Trackpoint>
          <Trackpoint>
            <Time>2022-04-23T11:59:18.000Z</Time>
            <Position>
              <LatitudeDegrees>41.64711509831249713897705078125</LatitudeDegrees>
              <LongitudeDegrees>-0.0349022448062896728515625</LongitudeDegrees>
            </Position>
            <AltitudeMeters>553.5999755859375</AltitudeMeters>
            <DistanceMeters>43056.818218582</DistanceMeters>
          </Trackpoint>
          <Trackpoint>
            <Time>2022-04-23T11:59:20.000Z</Time>
            <Position>
              <LatitudeDegrees>41.64697595871984958648681640625</LatitudeDegrees>
              <LongitudeDegrees>-0.034918002784252166748046875</LongitudeDegrees>
            </Position>
            <AltitudeMeters>552.4000244140625</AltitudeMeters>
            <DistanceMeters>43072.360243703</DistanceMeters>
          </Trackpoint>
          <Trackpoint>
            <Time>2022-04-23T11:59:21.000Z</Time>
            <Position>
              <LatitudeDegrees>41.64689180441200733184814453125</LatitudeDegrees>
              <LongitudeDegrees>-0.03490693867206573486328125</LongitudeDegrees>
            </Position>
            <AltitudeMeters>551.79998779296875</AltitudeMeters>
            <DistanceMeters>43081.772686531</DistanceMeters>
          </Trackpoint>
          <Trackpoint>
            <Time>2022-04-23T11:59:22.000Z</Time>
            <Position>
              <LatitudeDegrees>41.64680354297161102294921875</LatitudeDegrees>
              <LongitudeDegrees>-0.03490014933049678802490234375</LongitudeDegrees>
            </Position>
            <AltitudeMeters>551.20001220703125</AltitudeMeters>
            <DistanceMeters>43091.612426347</DistanceMeters>
          </Trackpoint>
          <Trackpoint>
            <Time>2022-04-23T11:59:24.000Z</Time>
            <Position>
              <LatitudeDegrees>41.64661386050283908843994140625</LatitudeDegrees>
              <LongitudeDegrees>-0.03490366972982883453369140625</LongitudeDegrees>
            </Position>
            <AltitudeMeters>549.79998779296875</AltitudeMeters>
            <DistanceMeters>43112.72632731</DistanceMeters>
          </Trackpoint>
          <Trackpoint>
            <Time>2022-04-23T11:59:25.000Z</Time>
            <Position>
              <LatitudeDegrees>41.64651713334023952484130859375</LatitudeDegrees>
              <LongitudeDegrees>-0.03491364419460296630859375</LongitudeDegrees>
            </Position>
            <AltitudeMeters>549.5999755859375</AltitudeMeters>
            <DistanceMeters>43123.524306151</DistanceMeters>
          </Trackpoint>
          <Trackpoint>
            <Time>2022-04-23T11:59:28.000Z</Time>
            <Position>
              <LatitudeDegrees>41.64621270261704921722412109375</LatitudeDegrees>
              <LongitudeDegrees>-0.03497307188808917999267578125</LongitudeDegrees>
            </Position>
            <AltitudeMeters>548.5999755859375</AltitudeMeters>
            <DistanceMeters>43157.766639104</DistanceMeters>
          </Trackpoint>
          <Trackpoint>
            <Time>2022-04-23T11:59:29.000Z</Time>
            <Position>
              <LatitudeDegrees>41.6461086831986904144287109375</LatitudeDegrees>
              <LongitudeDegrees>-0.03499637357890605926513671875</LongitudeDegrees>
            </Position>
            <AltitudeMeters>547.20001220703125</AltitudeMeters>
            <DistanceMeters>43169.505419558</DistanceMeters>
          </Trackpoint>
          <Trackpoint>
            <Time>2022-04-23T11:59:30.000Z</Time>
            <Position>
              <LatitudeDegrees>41.64600734598934650421142578125</LatitudeDegrees>
              <LongitudeDegrees>-0.03500861115753650665283203125</LongitudeDegrees>
            </Position>
            <AltitudeMeters>546.79998779296875</AltitudeMeters>
            <DistanceMeters>43180.829956884</DistanceMeters>
          </Trackpoint>
          <Trackpoint>
            <Time>2022-04-23T11:59:32.000Z</Time>
            <Position>
              <LatitudeDegrees>41.64580869488418102264404296875</LatitudeDegrees>
              <LongitudeDegrees>-0.03498396836221218109130859375</LongitudeDegrees>
            </Position>
            <AltitudeMeters>545.5999755859375</AltitudeMeters>
            <DistanceMeters>43203.034916555</DistanceMeters>
          </Trackpoint>
          <Trackpoint>
            <Time>2022-04-23T11:59:33.000Z</Time>
            <Position>
              <LatitudeDegrees>41.64569637738168239593505859375</LatitudeDegrees>
              <LongitudeDegrees>-0.0349208526313304901123046875</LongitudeDegrees>
            </Position>
            <AltitudeMeters>545.20001220703125</AltitudeMeters>
            <DistanceMeters>43216.593467224</DistanceMeters>
          </Trackpoint>
          <Trackpoint>
            <Time>2022-04-23T11:59:36.000Z</Time>
            <Position>
              <LatitudeDegrees>41.64542245678603649139404296875</LatitudeDegrees>
              <LongitudeDegrees>-0.03471189178526401519775390625</LongitudeDegrees>
            </Position>
            <AltitudeMeters>544</AltitudeMeters>
            <DistanceMeters>43251.687284427</DistanceMeters>
          </Trackpoint>
          <Trackpoint>
            <Time>2022-04-23T11:59:38.000Z</Time>
            <Position>
              <LatitudeDegrees>41.64524652063846588134765625</LatitudeDegrees>
              <LongitudeDegrees>-0.03462019376456737518310546875</LongitudeDegrees>
            </Position>
            <AltitudeMeters>543</AltitudeMeters>
            <DistanceMeters>43272.702158173</DistanceMeters>
          </Trackpoint>
          <Trackpoint>
            <Time>2022-04-23T11:59:40.000Z</Time>
            <Position>
              <LatitudeDegrees>41.6450433433055877685546875</LatitudeDegrees>
              <LongitudeDegrees>-0.0345332734286785125732421875</LongitudeDegrees>
            </Position>
            <AltitudeMeters>541.5999755859375</AltitudeMeters>
            <DistanceMeters>43296.44400797</DistanceMeters>
          </Trackpoint>
          <Trackpoint>
            <Time>2022-04-23T11:59:42.000Z</Time>
            <Position>
              <LatitudeDegrees>41.6448252461850643157958984375</LatitudeDegrees>
              <LongitudeDegrees>-0.03441751934587955474853515625</LongitudeDegrees>
            </Position>
            <AltitudeMeters>540.4000244140625</AltitudeMeters>
            <DistanceMeters>43322.558206657</DistanceMeters>
          </Trackpoint>
          <Trackpoint>
            <Time>2022-04-23T11:59:44.000Z</Time>
            <Position>
              <LatitudeDegrees>41.6446572728455066680908203125</LatitudeDegrees>
              <LongitudeDegrees>-0.03433353267610073089599609375</LongitudeDegrees>
            </Position>
            <AltitudeMeters>539.79998779296875</AltitudeMeters>
            <DistanceMeters>43342.516531539</DistanceMeters>
          </Trackpoint>
          <Trackpoint>
            <Time>2022-04-23T11:59:45.000Z</Time>
            <Position>
              <LatitudeDegrees>41.644550152122974395751953125</LatitudeDegrees>
              <LongitudeDegrees>-0.0342791341245174407958984375</LongitudeDegrees>
            </Position>
            <AltitudeMeters>539.20001220703125</AltitudeMeters>
            <DistanceMeters>43355.268890014</DistanceMeters>
          </Trackpoint>
          <Trackpoint>
            <Time>2022-04-23T11:59:47.000Z</Time>
            <Position>
              <LatitudeDegrees>41.64439148269593715667724609375</LatitudeDegrees>
              <LongitudeDegrees>-0.03421518020331859588623046875</LongitudeDegrees>
            </Position>
            <AltitudeMeters>537.4000244140625</AltitudeMeters>
            <DistanceMeters>43373.712397806</DistanceMeters>
          </Trackpoint>
          <Trackpoint>
            <Time>2022-04-23T11:59:48.000Z</Time>
            <Position>
              <LatitudeDegrees>41.644299365580081939697265625</LatitudeDegrees>
              <LongitudeDegrees>-0.03419816493988037109375</LongitudeDegrees>
            </Position>
            <AltitudeMeters>536.5999755859375</AltitudeMeters>
            <DistanceMeters>43384.062024213</DistanceMeters>
          </Trackpoint>
          <Trackpoint>
            <Time>2022-04-23T11:59:49.000Z</Time>
            <Position>
              <LatitudeDegrees>41.644205152988433837890625</LatitudeDegrees>
              <LongitudeDegrees>-0.03420227207243442535400390625</LongitudeDegrees>
            </Position>
            <AltitudeMeters>536.20001220703125</AltitudeMeters>
            <DistanceMeters>43394.553765339</DistanceMeters>
          </Trackpoint>
          <Trackpoint>
            <Time>2022-04-23T11:59:50.000Z</Time>
            <Position>
              <LatitudeDegrees>41.64411219768226146697998046875</LatitudeDegrees>
              <LongitudeDegrees>-0.034224651753902435302734375</LongitudeDegrees>
            </Position>
            <AltitudeMeters>535.79998779296875</AltitudeMeters>
            <DistanceMeters>43405.066142593</DistanceMeters>
          </Trackpoint>
          <Trackpoint>
            <Time>2022-04-23T11:59:51.000Z</Time>
            <Position>
              <LatitudeDegrees>41.6440053284168243408203125</LatitudeDegrees>
              <LongitudeDegrees>-0.03426630981266498565673828125</LongitudeDegrees>
            </Position>
            <AltitudeMeters>535.79998779296875</AltitudeMeters>
            <DistanceMeters>43417.455381447</DistanceMeters>
          </Trackpoint>
          <Trackpoint>
            <Time>2022-04-23T11:59:54.000Z</Time>
            <Position>
              <LatitudeDegrees>41.64375093765556812286376953125</LatitudeDegrees>
              <LongitudeDegrees>-0.0343766994774341583251953125</LongitudeDegrees>
            </Position>
            <AltitudeMeters>534.79998779296875</AltitudeMeters>
            <DistanceMeters>43447.220745887</DistanceMeters>
          </Trackpoint>
          <Trackpoint>
            <Time>2022-04-23T11:59:56.000Z</Time>
            <Position>
              <LatitudeDegrees>41.64356972090899944305419921875</LatitudeDegrees>
              <LongitudeDegrees>-0.03444702364504337310791015625</LongitudeDegrees>
            </Position>
            <AltitudeMeters>533.79998779296875</AltitudeMeters>
            <DistanceMeters>43468.221434769</DistanceMeters>
          </Trackpoint>
          <Trackpoint>
            <Time>2022-04-23T11:59:58.000Z</Time>
            <Position>
              <LatitudeDegrees>41.64337995462119579315185546875</LatitudeDegrees>
              <LongitudeDegrees>-0.0344994105398654937744140625</LongitudeDegrees>
            </Position>
            <AltitudeMeters>532.5999755859375</AltitudeMeters>
            <DistanceMeters>43489.787684265</DistanceMeters>
          </Trackpoint>
          <Trackpoint>
            <Time>2022-04-23T11:59:59.000Z</Time>
            <Position>
              <LatitudeDegrees>41.64328373037278652191162109375</LatitudeDegrees>
              <LongitudeDegrees>-0.03449982963502407073974609375</LongitudeDegrees>
            </Position>
            <AltitudeMeters>531.20001220703125</AltitudeMeters>
            <DistanceMeters>43500.497915871</DistanceMeters>
          </Trackpoint>
          <Trackpoint>
            <Time>2022-04-23T12:00:00.000Z</Time>
            <Position>
              <LatitudeDegrees>41.64317090995609760284423828125</LatitudeDegrees>
              <LongitudeDegrees>-0.034474432468414306640625</LongitudeDegrees>
            </Position>
            <AltitudeMeters>530.79998779296875</AltitudeMeters>
            <DistanceMeters>43513.231495597</DistanceMeters>
          </Trackpoint>
          <Trackpoint>
            <Time>2022-04-23T12:00:01.000Z</Time>
            <Position>
              <LatitudeDegrees>41.64308130741119384765625</LatitudeDegrees>
              <LongitudeDegrees>-0.03444492816925048828125</LongitudeDegrees>
            </Position>
            <AltitudeMeters>530.20001220703125</AltitudeMeters>
            <DistanceMeters>43523.502296589</DistanceMeters>
          </Trackpoint>
          <Trackpoint>
            <Time>2022-04-23T12:00:02.000Z</Time>
            <Position>
              <LatitudeDegrees>41.6430100612342357635498046875</LatitudeDegrees>
              <LongitudeDegrees>-0.03442774526774883270263671875</LongitudeDegrees>
            </Position>
            <AltitudeMeters>530</AltitudeMeters>
            <DistanceMeters>43531.559979236</DistanceMeters>
          </Trackpoint>
          <Trackpoint>
            <Time>2022-04-23T12:00:03.000Z</Time>
            <Position>
              <LatitudeDegrees>41.64291827939450740814208984375</LatitudeDegrees>
              <LongitudeDegrees>-0.03441609442234039306640625</LongitudeDegrees>
            </Position>
            <AltitudeMeters>529.79998779296875</AltitudeMeters>
            <DistanceMeters>43541.821104483</DistanceMeters>
          </Trackpoint>
          <Trackpoint>
            <Time>2022-04-23T12:00:05.000Z</Time>
            <Position>
              <LatitudeDegrees>41.64273253642022609710693359375</LatitudeDegrees>
              <LongitudeDegrees>-0.0344041921198368072509765625</LongitudeDegrees>
            </Position>
            <AltitudeMeters>529.20001220703125</AltitudeMeters>
            <DistanceMeters>43562.518175927</DistanceMeters>
          </Trackpoint>
          <Trackpoint>
            <Time>2022-04-23T12:00:07.000Z</Time>
            <Position>
              <LatitudeDegrees>41.64254151284694671630859375</LatitudeDegrees>
              <LongitudeDegrees>-0.0343793816864490509033203125</LongitudeDegrees>
            </Position>
            <AltitudeMeters>528.79998779296875</AltitudeMeters>
            <DistanceMeters>43583.879327412</DistanceMeters>
          </Trackpoint>
          <Trackpoint>
            <Time>2022-04-23T12:00:11.000Z</Time>
            <Position>
              <LatitudeDegrees>41.64217178709805011749267578125</LatitudeDegrees>
              <LongitudeDegrees>-0.0343753583729267120361328125</LongitudeDegrees>
            </Position>
            <AltitudeMeters>528.79998779296875</AltitudeMeters>
            <DistanceMeters>43625.031929476</DistanceMeters>
          </Trackpoint>
          <Trackpoint>
            <Time>2022-04-23T12:00:12.000Z</Time>
            <Position>
              <LatitudeDegrees>41.64208277128636837005615234375</LatitudeDegrees>
              <LongitudeDegrees>-0.03440042026340961456298828125</LongitudeDegrees>
            </Position>
            <AltitudeMeters>528.5999755859375</AltitudeMeters>
            <DistanceMeters>43635.156177483</DistanceMeters>
          </Trackpoint>
          <Trackpoint>
            <Time>2022-04-23T12:00:16.000Z</Time>
            <Position>
              <LatitudeDegrees>41.64174665696918964385986328125</LatitudeDegrees>
              <LongitudeDegrees>-0.0345171801745891571044921875</LongitudeDegrees>
            </Position>
            <AltitudeMeters>528.20001220703125</AltitudeMeters>
            <DistanceMeters>43673.806358803</DistanceMeters>
          </Trackpoint>
          <Trackpoint>
            <Time>2022-04-23T12:00:17.000Z</Time>
            <Position>
              <LatitudeDegrees>41.6416639275848865509033203125</LatitudeDegrees>
              <LongitudeDegrees>-0.03454148769378662109375</LongitudeDegrees>
            </Position>
            <AltitudeMeters>528</AltitudeMeters>
            <DistanceMeters>43683.233660239</DistanceMeters>
          </Trackpoint>
          <Trackpoint>
            <Time>2022-04-23T12:00:18.000Z</Time>
            <Position>
              <LatitudeDegrees>41.64156116545200347900390625</LatitudeDegrees>
              <LongitudeDegrees>-0.03455766476690769195556640625</LongitudeDegrees>
            </Position>
            <AltitudeMeters>528</AltitudeMeters>
            <DistanceMeters>43694.749549377</DistanceMeters>
          </Trackpoint>
          <Trackpoint>
            <Time>2022-04-23T12:00:19.000Z</Time>
            <Position>
              <LatitudeDegrees>41.6414738260209560394287109375</LatitudeDegrees>
              <LongitudeDegrees>-0.0345597602427005767822265625</LongitudeDegrees>
            </Position>
            <AltitudeMeters>527.79998779296875</AltitudeMeters>
            <DistanceMeters>43704.472040839</DistanceMeters>
          </Trackpoint>
          <Trackpoint>
            <Time>2022-04-23T12:00:24.000Z</Time>
            <Position>
              <LatitudeDegrees>41.64110359735786914825439453125</LatitudeDegrees>
              <LongitudeDegrees>-0.0345815531909465789794921875</LongitudeDegrees>
            </Position>
            <AltitudeMeters>527</AltitudeMeters>
            <DistanceMeters>43745.719108401</DistanceMeters>
          </Trackpoint>
          <Trackpoint>
            <Time>2022-04-23T12:00:26.000Z</Time>
            <Position>
              <LatitudeDegrees>41.64095004089176654815673828125</LatitudeDegrees>
              <LongitudeDegrees>-0.03460275940597057342529296875</LongitudeDegrees>
            </Position>
            <AltitudeMeters>526.4000244140625</AltitudeMeters>
            <DistanceMeters>43762.901346883</DistanceMeters>
          </Trackpoint>
          <Trackpoint>
            <Time>2022-04-23T12:00:30.000Z</Time>
            <Position>
              <LatitudeDegrees>41.6406336240470409393310546875</LatitudeDegrees>
              <LongitudeDegrees>-0.0346405617892742156982421875</LongitudeDegrees>
            </Position>
            <AltitudeMeters>526</AltitudeMeters>
            <DistanceMeters>43798.259202635</DistanceMeters>
          </Trackpoint>
          <Trackpoint>
            <Time>2022-04-23T12:00:34.000Z</Time>
            <Position>
              <LatitudeDegrees>41.64032609201967716217041015625</LatitudeDegrees>
              <LongitudeDegrees>-0.0345575809478759765625</LongitudeDegrees>
            </Position>
            <AltitudeMeters>525.4000244140625</AltitudeMeters>
            <DistanceMeters>43833.17709177</DistanceMeters>
          </Trackpoint>
          <Trackpoint>
            <Time>2022-04-23T12:00:35.000Z</Time>
            <Position>
              <LatitudeDegrees>41.64025132544338703155517578125</LatitudeDegrees>
              <LongitudeDegrees>-0.0345426611602306365966796875</LongitudeDegrees>
            </Position>
            <AltitudeMeters>525.20001220703125</AltitudeMeters>
            <DistanceMeters>43841.590042451</DistanceMeters>
          </Trackpoint>
          <Trackpoint>
            <Time>2022-04-23T12:00:40.000Z</Time>
            <Position>
              <LatitudeDegrees>41.6398554481565952301025390625</LatitudeDegrees>
              <LongitudeDegrees>-0.03452011384069919586181640625</LongitudeDegrees>
            </Position>
            <AltitudeMeters>524.4000244140625</AltitudeMeters>
            <DistanceMeters>43885.691755287</DistanceMeters>
          </Trackpoint>
          <Trackpoint>
            <Time>2022-04-23T12:00:41.000Z</Time>
            <Position>
              <LatitudeDegrees>41.6397706232964992523193359375</LatitudeDegrees>
              <LongitudeDegrees>-0.03452816046774387359619140625</LongitudeDegrees>
            </Position>
            <AltitudeMeters>524.20001220703125</AltitudeMeters>
            <DistanceMeters>43895.157293754</DistanceMeters>
          </Trackpoint>
          <Trackpoint>
            <Time>2022-04-23T12:00:43.000Z</Time>
            <Position>
              <LatitudeDegrees>41.63961379788815975189208984375</LatitudeDegrees>
              <LongitudeDegrees>-0.03457526676356792449951171875</LongitudeDegrees>
            </Position>
            <AltitudeMeters>523.79998779296875</AltitudeMeters>
            <DistanceMeters>43913.046561743</DistanceMeters>
          </Trackpoint>
          <Trackpoint>
            <Time>2022-04-23T12:00:44.000Z</Time>
            <Position>
              <LatitudeDegrees>41.63951070047914981842041015625</LatitudeDegrees>
              <LongitudeDegrees>-0.03463528119027614593505859375</LongitudeDegrees>
            </Position>
            <AltitudeMeters>523.5999755859375</AltitudeMeters>
            <DistanceMeters>43925.560176553</DistanceMeters>
          </Trackpoint>
          <Trackpoint>
            <Time>2022-04-23T12:00:45.000Z</Time>
            <Position>
              <LatitudeDegrees>41.63944297470152378082275390625</LatitudeDegrees>
              <LongitudeDegrees>-0.034685321152210235595703125</LongitudeDegrees>
            </Position>
            <AltitudeMeters>523.20001220703125</AltitudeMeters>
            <DistanceMeters>43934.170456897</DistanceMeters>
          </Trackpoint>
          <Trackpoint>
            <Time>2022-04-23T12:00:48.000Z</Time>
            <Position>
              <LatitudeDegrees>41.63917609490454196929931640625</LatitudeDegrees>
              <LongitudeDegrees>-0.03484985791146755218505859375</LongitudeDegrees>
            </Position>
            <AltitudeMeters>522</AltitudeMeters>
            <DistanceMeters>43966.875940766</DistanceMeters>
          </Trackpoint>
          <Trackpoint>
            <Time>2022-04-23T12:00:49.000Z</Time>
            <Position>
              <LatitudeDegrees>41.63907668553292751312255859375</LatitudeDegrees>
              <LongitudeDegrees>-0.03487198613584041595458984375</LongitudeDegrees>
            </Position>
            <AltitudeMeters>521.4000244140625</AltitudeMeters>
            <DistanceMeters>43978.092313844</DistanceMeters>
          </Trackpoint>
          <Trackpoint>
            <Time>2022-04-23T12:00:50.000Z</Time>
            <Position>
              <LatitudeDegrees>41.638955734670162200927734375</LatitudeDegrees>
              <LongitudeDegrees>-0.03487835638225078582763671875</LongitudeDegrees>
            </Position>
            <AltitudeMeters>521</AltitudeMeters>
            <DistanceMeters>43991.564675794</DistanceMeters>
          </Trackpoint>
          <Trackpoint>
            <Time>2022-04-23T12:00:51.000Z</Time>
            <Position>
              <LatitudeDegrees>41.63887602277100086212158203125</LatitudeDegrees>
              <LongitudeDegrees>-0.0348621793091297149658203125</LongitudeDegrees>
            </Position>
            <AltitudeMeters>520.20001220703125</AltitudeMeters>
            <DistanceMeters>44000.53853905</DistanceMeters>
          </Trackpoint>
          <Trackpoint>
            <Time>2022-04-23T12:00:52.000Z</Time>
            <Position>
              <LatitudeDegrees>41.63877896033227443695068359375</LatitudeDegrees>
              <LongitudeDegrees>-0.0348325073719024658203125</LongitudeDegrees>
            </Position>
            <AltitudeMeters>519.4000244140625</AltitudeMeters>
            <DistanceMeters>44011.620463054</DistanceMeters>
          </Trackpoint>
          <Trackpoint>
            <Time>2022-04-23T12:00:53.000Z</Time>
            <Position>
              <LatitudeDegrees>41.6386833228170871734619140625</LatitudeDegrees>
              <LongitudeDegrees>-0.034797973930835723876953125</LongitudeDegrees>
            </Position>
            <AltitudeMeters>519</AltitudeMeters>
            <DistanceMeters>44022.646019234</DistanceMeters>
          </Trackpoint>
          <Trackpoint>
            <Time>2022-04-23T12:00:56.000Z</Time>
            <Position>
              <LatitudeDegrees>41.63840797729790210723876953125</LatitudeDegrees>
              <LongitudeDegrees>-0.03469948656857013702392578125</LongitudeDegrees>
            </Position>
            <AltitudeMeters>517.79998779296875</AltitudeMeters>
            <DistanceMeters>44054.368578226</DistanceMeters>
          </Trackpoint>
          <Trackpoint>
            <Time>2022-04-23T12:00:58.000Z</Time>
            <Position>
              <LatitudeDegrees>41.6382085718214511871337890625</LatitudeDegrees>
              <LongitudeDegrees>-0.0346455909311771392822265625</LongitudeDegrees>
            </Position>
            <AltitudeMeters>517.4000244140625</AltitudeMeters>
            <DistanceMeters>44077.011073453</DistanceMeters>
          </Trackpoint>
          <Trackpoint>
            <Time>2022-04-23T12:00:59.000Z</Time>
            <Position>
              <LatitudeDegrees>41.638117544353008270263671875</LatitudeDegrees>
              <LongitudeDegrees>-0.03463678993284702301025390625</LongitudeDegrees>
            </Position>
            <AltitudeMeters>517</AltitudeMeters>
            <DistanceMeters>44087.168713605</DistanceMeters>
          </Trackpoint>
          <Trackpoint>
            <Time>2022-04-23T12:01:01.000Z</Time>
            <Position>
              <LatitudeDegrees>41.63795401342213153839111328125</LatitudeDegrees>
              <LongitudeDegrees>-0.03463343717157840728759765625</LongitudeDegrees>
            </Position>
            <AltitudeMeters>516.5999755859375</AltitudeMeters>
            <DistanceMeters>44105.371725033</DistanceMeters>
          </Trackpoint>
          <Trackpoint>
            <Time>2022-04-23T12:01:04.000Z</Time>
            <Position>
              <LatitudeDegrees>41.6376697830855846405029296875</LatitudeDegrees>
              <LongitudeDegrees>-0.03463025204837322235107421875</LongitudeDegrees>
            </Position>
            <AltitudeMeters>516.20001220703125</AltitudeMeters>
            <DistanceMeters>44137.00834326</DistanceMeters>
          </Trackpoint>
          <Trackpoint>
            <Time>2022-04-23T12:01:07.000Z</Time>
            <Position>
              <LatitudeDegrees>41.63738538511097431182861328125</LatitudeDegrees>
              <LongitudeDegrees>-0.03456839360296726226806640625</LongitudeDegrees>
            </Position>
            <AltitudeMeters>515.5999755859375</AltitudeMeters>
            <DistanceMeters>44169.077853178</DistanceMeters>
          </Trackpoint>
          <Trackpoint>
            <Time>2022-04-23T12:01:09.000Z</Time>
            <Position>
              <LatitudeDegrees>41.63721875287592411041259765625</LatitudeDegrees>
              <LongitudeDegrees>-0.034511648118495941162109375</LongitudeDegrees>
            </Position>
            <AltitudeMeters>515</AltitudeMeters>
            <DistanceMeters>44188.215771052</DistanceMeters>
          </Trackpoint>
          <Trackpoint>
            <Time>2022-04-23T12:01:12.000Z</Time>
            <Position>
              <LatitudeDegrees>41.6369429044425487518310546875</LatitudeDegrees>
              <LongitudeDegrees>-0.03441282548010349273681640625</LongitudeDegrees>
            </Position>
            <AltitudeMeters>514.4000244140625</AltitudeMeters>
            <DistanceMeters>44219.999756674</DistanceMeters>
          </Trackpoint>
          <Trackpoint>
            <Time>2022-04-23T12:01:16.000Z</Time>
            <Position>
              <LatitudeDegrees>41.6365791298449039459228515625</LatitudeDegrees>
              <LongitudeDegrees>-0.03427452407777309417724609375</LongitudeDegrees>
            </Position>
            <AltitudeMeters>513.79998779296875</AltitudeMeters>
            <DistanceMeters>44262.091228117</DistanceMeters>
          </Trackpoint>
          <Trackpoint>
            <Time>2022-04-23T12:01:19.000Z</Time>
            <Position>
              <LatitudeDegrees>41.63635432720184326171875</LatitudeDegrees>
              <LongitudeDegrees>-0.0341728515923023223876953125</LongitudeDegrees>
            </Position>
            <AltitudeMeters>513.5999755859375</AltitudeMeters>
            <DistanceMeters>44288.502843087</DistanceMeters>
          </Trackpoint>
          <Trackpoint>
            <Time>2022-04-23T12:01:21.000Z</Time>
            <Position>
              <LatitudeDegrees>41.63617939688265323638916015625</LatitudeDegrees>
              <LongitudeDegrees>-0.03410085104405879974365234375</LongitudeDegrees>
            </Position>
            <AltitudeMeters>513.20001220703125</AltitudeMeters>
            <DistanceMeters>44308.873609712</DistanceMeters>
          </Trackpoint>
          <Trackpoint>
            <Time>2022-04-23T12:01:26.000Z</Time>
            <Position>
              <LatitudeDegrees>41.6357744671404361724853515625</LatitudeDegrees>
              <LongitudeDegrees>-0.03398333676159381866455078125</LongitudeDegrees>
            </Position>
            <AltitudeMeters>512.4000244140625</AltitudeMeters>
            <DistanceMeters>44354.991044426</DistanceMeters>
          </Trackpoint>
          <Trackpoint>
            <Time>2022-04-23T12:01:28.000Z</Time>
            <Position>
              <LatitudeDegrees>41.63562434725463390350341796875</LatitudeDegrees>
              <LongitudeDegrees>-0.03397428430616855621337890625</LongitudeDegrees>
            </Position>
            <AltitudeMeters>512.4000244140625</AltitudeMeters>
            <DistanceMeters>44371.716556022</DistanceMeters>
          </Trackpoint>
          <Trackpoint>
            <Time>2022-04-23T12:01:29.000Z</Time>
            <Position>
              <LatitudeDegrees>41.6355367563664913177490234375</LatitudeDegrees>
              <LongitudeDegrees>-0.0339810736477375030517578125</LongitudeDegrees>
            </Position>
            <AltitudeMeters>512.4000244140625</AltitudeMeters>
            <DistanceMeters>44381.481678</DistanceMeters>
          </Trackpoint>
          <Trackpoint>
            <Time>2022-04-23T12:01:32.000Z</Time>
            <Position>
              <LatitudeDegrees>41.63525671698153018951416015625</LatitudeDegrees>
              <LongitudeDegrees>-0.034057684242725372314453125</LongitudeDegrees>
            </Position>
            <AltitudeMeters>511.79998779296875</AltitudeMeters>
            <DistanceMeters>44413.295480949</DistanceMeters>
          </Trackpoint>
          <Trackpoint>
            <Time>2022-04-23T12:01:34.000Z</Time>
            <Position>
              <LatitudeDegrees>41.63510148413479328155517578125</LatitudeDegrees>
              <LongitudeDegrees>-0.034105293452739715576171875</LongitudeDegrees>
            </Position>
            <AltitudeMeters>511.20001220703125</AltitudeMeters>
            <DistanceMeters>44431.021211114</DistanceMeters>
          </Trackpoint>
          <Trackpoint>
            <Time>2022-04-23T12:01:37.000Z</Time>
            <Position>
              <LatitudeDegrees>41.6348430700600147247314453125</LatitudeDegrees>
              <LongitudeDegrees>-0.03414493985474109649658203125</LongitudeDegrees>
            </Position>
            <AltitudeMeters>511</AltitudeMeters>
            <DistanceMeters>44459.97147044</DistanceMeters>
          </Trackpoint>
          <Trackpoint>
            <Time>2022-04-23T12:01:38.000Z</Time>
            <Position>
              <LatitudeDegrees>41.63475732319056987762451171875</LatitudeDegrees>
              <LongitudeDegrees>-0.03414787352085113525390625</LongitudeDegrees>
            </Position>
            <AltitudeMeters>510.399993896484375</AltitudeMeters>
            <DistanceMeters>44469.518699966</DistanceMeters>
          </Trackpoint>
          <Trackpoint>
            <Time>2022-04-23T12:01:41.000Z</Time>
            <Position>
              <LatitudeDegrees>41.63450184278190135955810546875</LatitudeDegrees>
              <LongitudeDegrees>-0.03413069061934947967529296875</LongitudeDegrees>
            </Position>
            <AltitudeMeters>509</AltitudeMeters>
            <DistanceMeters>44497.989946905</DistanceMeters>
          </Trackpoint>
          <Trackpoint>
            <Time>2022-04-23T12:01:42.000Z</Time>
            <Position>
              <LatitudeDegrees>41.63443830795586109161376953125</LatitudeDegrees>
              <LongitudeDegrees>-0.0341255776584148406982421875</LongitudeDegrees>
            </Position>
            <AltitudeMeters>509</AltitudeMeters>
            <DistanceMeters>44505.074378066</DistanceMeters>
          </Trackpoint>
          <Trackpoint>
            <Time>2022-04-23T12:01:48.000Z</Time>
            <Position>
              <LatitudeDegrees>41.63397981785237789154052734375</LatitudeDegrees>
              <LongitudeDegrees>-0.03405994735658168792724609375</LongitudeDegrees>
            </Position>
            <AltitudeMeters>508.399993896484375</AltitudeMeters>
            <DistanceMeters>44556.396458184</DistanceMeters>
          </Trackpoint>
          <Trackpoint>
            <Time>2022-04-23T12:01:51.000Z</Time>
            <Position>
              <LatitudeDegrees>41.63374948315322399139404296875</LatitudeDegrees>
              <LongitudeDegrees>-0.03405005671083927154541015625</LongitudeDegrees>
            </Position>
            <AltitudeMeters>508.20001220703125</AltitudeMeters>
            <DistanceMeters>44582.046279033</DistanceMeters>
          </Trackpoint>
          <Trackpoint>
            <Time>2022-04-23T12:01:55.000Z</Time>
            <Position>
              <LatitudeDegrees>41.633457876741886138916015625</LatitudeDegrees>
              <LongitudeDegrees>-0.03401267342269420623779296875</LongitudeDegrees>
            </Position>
            <AltitudeMeters>507.399993896484375</AltitudeMeters>
            <DistanceMeters>44614.651245058</DistanceMeters>
          </Trackpoint>
          <Trackpoint>
            <Time>2022-04-23T12:01:56.000Z</Time>
            <Position>
              <LatitudeDegrees>41.63337816484272480010986328125</LatitudeDegrees>
              <LongitudeDegrees>-0.03398668952286243438720703125</LongitudeDegrees>
            </Position>
            <AltitudeMeters>506.79998779296875</AltitudeMeters>
            <DistanceMeters>44623.782714047</DistanceMeters>
          </Trackpoint>
          <Trackpoint>
            <Time>2022-04-23T12:01:57.000Z</Time>
            <Position>
              <LatitudeDegrees>41.6332947649061679840087890625</LatitudeDegrees>
              <LongitudeDegrees>-0.03395701758563518524169921875</LongitudeDegrees>
            </Position>
            <AltitudeMeters>506.600006103515625</AltitudeMeters>
            <DistanceMeters>44633.388406167</DistanceMeters>
          </Trackpoint>
          <Trackpoint>
            <Time>2022-04-23T12:02:00.000Z</Time>
            <Position>
              <LatitudeDegrees>41.63303651846945285797119140625</LatitudeDegrees>
              <LongitudeDegrees>-0.03388057462871074676513671875</LongitudeDegrees>
            </Position>
            <AltitudeMeters>505.79998779296875</AltitudeMeters>
            <DistanceMeters>44662.826755922</DistanceMeters>
          </Trackpoint>
          <Trackpoint>
            <Time>2022-04-23T12:02:01.000Z</Time>
            <Position>
              <LatitudeDegrees>41.632946245372295379638671875</LatitudeDegrees>
              <LongitudeDegrees>-0.03385894931852817535400390625</LongitudeDegrees>
            </Position>
            <AltitudeMeters>505.399993896484375</AltitudeMeters>
            <DistanceMeters>44673.034058309</DistanceMeters>
          </Trackpoint>
          <Trackpoint>
            <Time>2022-04-23T12:02:05.000Z</Time>
            <Position>
              <LatitudeDegrees>41.63253419101238250732421875</LatitudeDegrees>
              <LongitudeDegrees>-0.03378820605576038360595703125</LongitudeDegrees>
            </Position>
            <AltitudeMeters>503.399993896484375</AltitudeMeters>
            <DistanceMeters>44719.272635809</DistanceMeters>
          </Trackpoint>
          <Trackpoint>
            <Time>2022-04-23T12:02:06.000Z</Time>
            <Position>
              <LatitudeDegrees>41.632425896823406219482421875</LatitudeDegrees>
              <LongitudeDegrees>-0.03377881832420825958251953125</LongitudeDegrees>
            </Position>
            <AltitudeMeters>502.399993896484375</AltitudeMeters>
            <DistanceMeters>44731.351873168</DistanceMeters>
          </Trackpoint>
          <Trackpoint>
            <Time>2022-04-23T12:02:07.000Z</Time>
            <Position>
              <LatitudeDegrees>41.63231718353927135467529296875</LatitudeDegrees>
              <LongitudeDegrees>-0.03376205451786518096923828125</LongitudeDegrees>
            </Position>
            <AltitudeMeters>500.79998779296875</AltitudeMeters>
            <DistanceMeters>44743.532355752</DistanceMeters>
          </Trackpoint>
          <Trackpoint>
            <Time>2022-04-23T12:02:09.000Z</Time>
            <Position>
              <LatitudeDegrees>41.63210294209420680999755859375</LatitudeDegrees>
              <LongitudeDegrees>-0.03371779806911945343017578125</LongitudeDegrees>
            </Position>
            <AltitudeMeters>498.399993896484375</AltitudeMeters>
            <DistanceMeters>44767.660347759</DistanceMeters>
          </Trackpoint>
          <Trackpoint>
            <Time>2022-04-23T12:02:11.000Z</Time>
            <Position>
              <LatitudeDegrees>41.6318798996508121490478515625</LatitudeDegrees>
              <LongitudeDegrees>-0.03367639146745204925537109375</LongitudeDegrees>
            </Position>
            <AltitudeMeters>496.20001220703125</AltitudeMeters>
            <DistanceMeters>44792.723091972</DistanceMeters>
          </Trackpoint>
          <Trackpoint>
            <Time>2022-04-23T12:02:13.000Z</Time>
            <Position>
              <LatitudeDegrees>41.6316307894885540008544921875</LatitudeDegrees>
              <LongitudeDegrees>-0.033623836934566497802734375</LongitudeDegrees>
            </Position>
            <AltitudeMeters>495</AltitudeMeters>
            <DistanceMeters>44820.792188319</DistanceMeters>
          </Trackpoint>
          <Trackpoint>
            <Time>2022-04-23T12:02:15.000Z</Time>
            <Position>
              <LatitudeDegrees>41.6314296238124370574951171875</LatitudeDegrees>
              <LongitudeDegrees>-0.03356608562171459197998046875</LongitudeDegrees>
            </Position>
            <AltitudeMeters>493.600006103515625</AltitudeMeters>
            <DistanceMeters>44843.691852056</DistanceMeters>
          </Trackpoint>
          <Trackpoint>
            <Time>2022-04-23T12:02:16.000Z</Time>
            <Position>
              <LatitudeDegrees>41.631317138671875</LatitudeDegrees>
              <LongitudeDegrees>-0.0335311330854892730712890625</LongitudeDegrees>
            </Position>
            <AltitudeMeters>492.79998779296875</AltitudeMeters>
            <DistanceMeters>44856.544720159</DistanceMeters>
          </Trackpoint>
          <Trackpoint>
            <Time>2022-04-23T12:02:17.000Z</Time>
            <Position>
              <LatitudeDegrees>41.63120306096971035003662109375</LatitudeDegrees>
              <LongitudeDegrees>-0.033495426177978515625</LongitudeDegrees>
            </Position>
            <AltitudeMeters>492.399993896484375</AltitudeMeters>
            <DistanceMeters>44869.584518448</DistanceMeters>
          </Trackpoint>
          <Trackpoint>
            <Time>2022-04-23T12:02:19.000Z</Time>
            <Position>
              <LatitudeDegrees>41.63097121752798557281494140625</LatitudeDegrees>
              <LongitudeDegrees>-0.0334350764751434326171875</LongitudeDegrees>
            </Position>
            <AltitudeMeters>491.20001220703125</AltitudeMeters>
            <DistanceMeters>44895.872762023</DistanceMeters>
          </Trackpoint>
          <Trackpoint>
            <Time>2022-04-23T12:02:21.000Z</Time>
            <Position>
              <LatitudeDegrees>41.63074792362749576568603515625</LatitudeDegrees>
              <LongitudeDegrees>-0.033369027078151702880859375</LongitudeDegrees>
            </Position>
            <AltitudeMeters>490</AltitudeMeters>
            <DistanceMeters>44921.326089204</DistanceMeters>
          </Trackpoint>
          <Trackpoint>
            <Time>2022-04-23T12:02:22.000Z</Time>
            <Position>
              <LatitudeDegrees>41.63064046762883663177490234375</LatitudeDegrees>
              <LongitudeDegrees>-0.03332845866680145263671875</LongitudeDegrees>
            </Position>
            <AltitudeMeters>489.600006103515625</AltitudeMeters>
            <DistanceMeters>44933.753171216</DistanceMeters>
          </Trackpoint>
          <Trackpoint>
            <Time>2022-04-23T12:02:24.000Z</Time>
            <Position>
              <LatitudeDegrees>41.6304412297904491424560546875</LatitudeDegrees>
              <LongitudeDegrees>-0.03321069292724132537841796875</LongitudeDegrees>
            </Position>
            <AltitudeMeters>488.399993896484375</AltitudeMeters>
            <DistanceMeters>44957.996346657</DistanceMeters>
          </Trackpoint>
          <Trackpoint>
            <Time>2022-04-23T12:02:25.000Z</Time>
            <Position>
              <LatitudeDegrees>41.63034458644688129425048828125</LatitudeDegrees>
              <LongitudeDegrees>-0.03313609398901462554931640625</LongitudeDegrees>
            </Position>
            <AltitudeMeters>487.399993896484375</AltitudeMeters>
            <DistanceMeters>44970.415069441</DistanceMeters>
          </Trackpoint>
          <Trackpoint>
            <Time>2022-04-23T12:02:27.000Z</Time>
            <Position>
              <LatitudeDegrees>41.6301445104181766510009765625</LatitudeDegrees>
              <LongitudeDegrees>-0.03300097770988941192626953125</LongitudeDegrees>
            </Position>
            <AltitudeMeters>486.399993896484375</AltitudeMeters>
            <DistanceMeters>44995.360260716</DistanceMeters>
          </Trackpoint>
          <Trackpoint>
            <Time>2022-04-23T12:02:28.000Z</Time>
            <Position>
              <LatitudeDegrees>41.63003831170499324798583984375</LatitudeDegrees>
              <LongitudeDegrees>-0.0329594872891902923583984375</LongitudeDegrees>
            </Position>
            <AltitudeMeters>485.79998779296875</AltitudeMeters>
            <DistanceMeters>45007.674197684</DistanceMeters>
          </Trackpoint>
          <Trackpoint>
            <Time>2022-04-23T12:02:29.000Z</Time>
            <Position>
              <LatitudeDegrees>41.6299331188201904296875</LatitudeDegrees>
              <LongitudeDegrees>-0.032935850322246551513671875</LongitudeDegrees>
            </Position>
            <AltitudeMeters>485.600006103515625</AltitudeMeters>
            <DistanceMeters>45019.546073405</DistanceMeters>
          </Trackpoint>
          <Trackpoint>
            <Time>2022-04-23T12:02:30.000Z</Time>
            <Position>
              <LatitudeDegrees>41.629811413586139678955078125</LatitudeDegrees>
              <LongitudeDegrees>-0.0329212658107280731201171875</LongitudeDegrees>
            </Position>
            <AltitudeMeters>484.600006103515625</AltitudeMeters>
            <DistanceMeters>45033.146517731</DistanceMeters>
          </Trackpoint>
          <Trackpoint>
            <Time>2022-04-23T12:02:31.000Z</Time>
            <Position>
              <LatitudeDegrees>41.62971644662320613861083984375</LatitudeDegrees>
              <LongitudeDegrees>-0.03292051143944263458251953125</LongitudeDegrees>
            </Position>
            <AltitudeMeters>484.20001220703125</AltitudeMeters>
            <DistanceMeters>45043.7167181</DistanceMeters>
          </Trackpoint>
          <Trackpoint>
            <Time>2022-04-23T12:02:32.000Z</Time>
            <Position>
              <LatitudeDegrees>41.62964486517012119293212890625</LatitudeDegrees>
              <LongitudeDegrees>-0.03292344510555267333984375</LongitudeDegrees>
            </Position>
            <AltitudeMeters>483.600006103515625</AltitudeMeters>
            <DistanceMeters>45051.687641375</DistanceMeters>
          </Trackpoint>
          <Trackpoint>
            <Time>2022-04-23T12:02:34.000Z</Time>
            <Position>
              <LatitudeDegrees>41.62947513163089752197265625</LatitudeDegrees>
              <LongitudeDegrees>-0.03293241374194622039794921875</LongitudeDegrees>
            </Position>
            <AltitudeMeters>482.20001220703125</AltitudeMeters>
            <DistanceMeters>45070.593898169</DistanceMeters>
          </Trackpoint>
          <Trackpoint>
            <Time>2022-04-23T12:02:36.000Z</Time>
            <Position>
              <LatitudeDegrees>41.62931059487164020538330078125</LatitudeDegrees>
              <LongitudeDegrees>-0.03293543122708797454833984375</LongitudeDegrees>
            </Position>
            <AltitudeMeters>481</AltitudeMeters>
            <DistanceMeters>45088.908926143</DistanceMeters>
          </Trackpoint>
          <Trackpoint>
            <Time>2022-04-23T12:02:38.000Z</Time>
            <Position>
              <LatitudeDegrees>41.62914446555078029632568359375</LatitudeDegrees>
              <LongitudeDegrees>-0.03293660469353199005126953125</LongitudeDegrees>
            </Position>
            <AltitudeMeters>479.79998779296875</AltitudeMeters>
            <DistanceMeters>45107.399620678</DistanceMeters>
          </Trackpoint>
          <Trackpoint>
            <Time>2022-04-23T12:02:39.000Z</Time>
            <Position>
              <LatitudeDegrees>41.62906207144260406494140625</LatitudeDegrees>
              <LongitudeDegrees>-0.03293157555162906646728515625</LongitudeDegrees>
            </Position>
            <AltitudeMeters>478.600006103515625</AltitudeMeters>
            <DistanceMeters>45116.5794177</DistanceMeters>
          </Trackpoint>
          <Trackpoint>
            <Time>2022-04-23T12:02:41.000Z</Time>
            <Position>
              <LatitudeDegrees>41.62889636121690273284912109375</LatitudeDegrees>
              <LongitudeDegrees>-0.03291112370789051055908203125</LongitudeDegrees>
            </Position>
            <AltitudeMeters>477.79998779296875</AltitudeMeters>
            <DistanceMeters>45135.101584535</DistanceMeters>
          </Trackpoint>
          <Trackpoint>
            <Time>2022-04-23T12:02:42.000Z</Time>
            <Position>
              <LatitudeDegrees>41.6288141347467899322509765625</LatitudeDegrees>
              <LongitudeDegrees>-0.03289620392024517059326171875</LongitudeDegrees>
            </Position>
            <AltitudeMeters>477.399993896484375</AltitudeMeters>
            <DistanceMeters>45144.337281698</DistanceMeters>
          </Trackpoint>
          <Trackpoint>
            <Time>2022-04-23T12:02:45.000Z</Time>
            <Position>
              <LatitudeDegrees>41.62857382558286190032958984375</LatitudeDegrees>
              <LongitudeDegrees>-0.03286519087851047515869140625</LongitudeDegrees>
            </Position>
            <AltitudeMeters>476.79998779296875</AltitudeMeters>
            <DistanceMeters>45171.208511157</DistanceMeters>
          </Trackpoint>
          <Trackpoint>
            <Time>2022-04-23T12:02:47.000Z</Time>
            <Position>
              <LatitudeDegrees>41.62841456942260265350341796875</LatitudeDegrees>
              <LongitudeDegrees>-0.03289067186415195465087890625</LongitudeDegrees>
            </Position>
            <AltitudeMeters>476.600006103515625</AltitudeMeters>
            <DistanceMeters>45189.060386629</DistanceMeters>
          </Trackpoint>
          <Trackpoint>
            <Time>2022-04-23T12:02:48.000Z</Time>
            <Position>
              <LatitudeDegrees>41.6283413954079151153564453125</LatitudeDegrees>
              <LongitudeDegrees>-0.032915063202381134033203125</LongitudeDegrees>
            </Position>
            <AltitudeMeters>476.600006103515625</AltitudeMeters>
            <DistanceMeters>45197.453994698</DistanceMeters>
          </Trackpoint>
          <Trackpoint>
            <Time>2022-04-23T12:02:51.000Z</Time>
            <Position>
              <LatitudeDegrees>41.628142409026622772216796875</LatitudeDegrees>
              <LongitudeDegrees>-0.0330148078501224517822265625</LongitudeDegrees>
            </Position>
            <AltitudeMeters>476.79998779296875</AltitudeMeters>
            <DistanceMeters>45221.105149329</DistanceMeters>
          </Trackpoint>
          <Trackpoint>
            <Time>2022-04-23T12:02:53.000Z</Time>
            <Position>
              <LatitudeDegrees>41.6280178539454936981201171875</LatitudeDegrees>
              <LongitudeDegrees>-0.03307524137198925018310546875</LongitudeDegrees>
            </Position>
            <AltitudeMeters>477</AltitudeMeters>
            <DistanceMeters>45235.851752359</DistanceMeters>
          </Trackpoint>
          <Trackpoint>
            <Time>2022-04-23T12:02:56.000Z</Time>
            <Position>
              <LatitudeDegrees>41.62782263942062854766845703125</LatitudeDegrees>
              <LongitudeDegrees>-0.03314011730253696441650390625</LongitudeDegrees>
            </Position>
            <AltitudeMeters>477</AltitudeMeters>
            <DistanceMeters>45258.239973664</DistanceMeters>
          </Trackpoint>
          <Trackpoint>
            <Time>2022-04-23T12:03:02.000Z</Time>
            <Position>
              <LatitudeDegrees>41.62742097862064838409423828125</LatitudeDegrees>
              <LongitudeDegrees>-0.0332500040531158447265625</LongitudeDegrees>
            </Position>
            <AltitudeMeters>476.20001220703125</AltitudeMeters>
            <DistanceMeters>45303.870808486</DistanceMeters>
          </Trackpoint>
          <Trackpoint>
            <Time>2022-04-23T12:03:04.000Z</Time>
            <Position>
              <LatitudeDegrees>41.62728016264736652374267578125</LatitudeDegrees>
              <LongitudeDegrees>-0.0332890637218952178955078125</LongitudeDegrees>
            </Position>
            <AltitudeMeters>476.20001220703125</AltitudeMeters>
            <DistanceMeters>45319.877098777</DistanceMeters>
          </Trackpoint>
          <Trackpoint>
            <Time>2022-04-23T12:03:11.000Z</Time>
            <Position>
              <LatitudeDegrees>41.62678797729313373565673828125</LatitudeDegrees>
              <LongitudeDegrees>-0.03335100598633289337158203125</LongitudeDegrees>
            </Position>
            <AltitudeMeters>476</AltitudeMeters>
            <DistanceMeters>45374.900274346</DistanceMeters>
          </Trackpoint>
          <Trackpoint>
            <Time>2022-04-23T12:03:16.000Z</Time>
            <Position>
              <LatitudeDegrees>41.626378856599330902099609375</LatitudeDegrees>
              <LongitudeDegrees>-0.0334137864410877227783203125</LongitudeDegrees>
            </Position>
            <AltitudeMeters>474.79998779296875</AltitudeMeters>
            <DistanceMeters>45420.734683955</DistanceMeters>
          </Trackpoint>
          <Trackpoint>
            <Time>2022-04-23T12:03:18.000Z</Time>
            <Position>
              <LatitudeDegrees>41.62620258517563343048095703125</LatitudeDegrees>
              <LongitudeDegrees>-0.03345586359500885009765625</LongitudeDegrees>
            </Position>
            <AltitudeMeters>473.600006103515625</AltitudeMeters>
            <DistanceMeters>45440.663804664</DistanceMeters>
          </Trackpoint>
          <Trackpoint>
            <Time>2022-04-23T12:03:20.000Z</Time>
            <Position>
              <LatitudeDegrees>41.6260246373713016510009765625</LatitudeDegrees>
              <LongitudeDegrees>-0.03349877893924713134765625</LongitudeDegrees>
            </Position>
            <AltitudeMeters>473</AltitudeMeters>
            <DistanceMeters>45460.788838544</DistanceMeters>
          </Trackpoint>
          <Trackpoint>
            <Time>2022-04-23T12:03:21.000Z</Time>
            <Position>
              <LatitudeDegrees>41.62592229433357715606689453125</LatitudeDegrees>
              <LongitudeDegrees>-0.0335250981152057647705078125</LongitudeDegrees>
            </Position>
            <AltitudeMeters>472.600006103515625</AltitudeMeters>
            <DistanceMeters>45472.388327283</DistanceMeters>
          </Trackpoint>
          <Trackpoint>
            <Time>2022-04-23T12:03:23.000Z</Time>
            <Position>
              <LatitudeDegrees>41.62577561102807521820068359375</LatitudeDegrees>
              <LongitudeDegrees>-0.033560134470462799072265625</LongitudeDegrees>
            </Position>
            <AltitudeMeters>471</AltitudeMeters>
            <DistanceMeters>45488.972598999</DistanceMeters>
          </Trackpoint>
          <Trackpoint>
            <Time>2022-04-23T12:03:27.000Z</Time>
            <Position>
              <LatitudeDegrees>41.6254828311502933502197265625</LatitudeDegrees>
              <LongitudeDegrees>-0.0336243398487567901611328125</LongitudeDegrees>
            </Position>
            <AltitudeMeters>469.79998779296875</AltitudeMeters>
            <DistanceMeters>45521.994621517</DistanceMeters>
          </Trackpoint>
          <Trackpoint>
            <Time>2022-04-23T12:03:28.000Z</Time>
            <Position>
              <LatitudeDegrees>41.6254130937159061431884765625</LatitudeDegrees>
              <LongitudeDegrees>-0.033639930188655853271484375</LongitudeDegrees>
            </Position>
            <AltitudeMeters>469.79998779296875</AltitudeMeters>
            <DistanceMeters>45529.864072848</DistanceMeters>
          </Trackpoint>
          <Trackpoint>
            <Time>2022-04-23T12:03:32.000Z</Time>
            <Position>
              <LatitudeDegrees>41.62513037212193012237548828125</LatitudeDegrees>
              <LongitudeDegrees>-0.03366583026945590972900390625</LongitudeDegrees>
            </Position>
            <AltitudeMeters>469.20001220703125</AltitudeMeters>
            <DistanceMeters>45561.405212996</DistanceMeters>
          </Trackpoint>
          <Trackpoint>
            <Time>2022-04-23T12:03:34.000Z</Time>
            <Position>
              <LatitudeDegrees>41.6249738819897174835205078125</LatitudeDegrees>
              <LongitudeDegrees>-0.0336414389312267303466796875</LongitudeDegrees>
            </Position>
            <AltitudeMeters>468.79998779296875</AltitudeMeters>
            <DistanceMeters>45578.940667455</DistanceMeters>
          </Trackpoint>
          <Trackpoint>
            <Time>2022-04-23T12:03:40.000Z</Time>
            <Position>
              <LatitudeDegrees>41.62452117539942264556884765625</LatitudeDegrees>
              <LongitudeDegrees>-0.0334972701966762542724609375</LongitudeDegrees>
            </Position>
            <AltitudeMeters>467.79998779296875</AltitudeMeters>
            <DistanceMeters>45630.735718865</DistanceMeters>
          </Trackpoint>
          <Trackpoint>
            <Time>2022-04-23T12:03:44.000Z</Time>
            <Position>
              <LatitudeDegrees>41.62421263754367828369140625</LatitudeDegrees>
              <LongitudeDegrees>-0.03352023661136627197265625</LongitudeDegrees>
            </Position>
            <AltitudeMeters>467</AltitudeMeters>
            <DistanceMeters>45665.129876426</DistanceMeters>
          </Trackpoint>
          <Trackpoint>
            <Time>2022-04-23T12:03:47.000Z</Time>
            <Position>
              <LatitudeDegrees>41.62396696396172046661376953125</LatitudeDegrees>
              <LongitudeDegrees>-0.03357178531587123870849609375</LongitudeDegrees>
            </Position>
            <AltitudeMeters>466.600006103515625</AltitudeMeters>
            <DistanceMeters>45692.808272791</DistanceMeters>
          </Trackpoint>
          <Trackpoint>
            <Time>2022-04-23T12:03:50.000Z</Time>
            <Position>
              <LatitudeDegrees>41.62370167672634124755859375</LatitudeDegrees>
              <LongitudeDegrees>-0.0336203165352344512939453125</LongitudeDegrees>
            </Position>
            <AltitudeMeters>465.399993896484375</AltitudeMeters>
            <DistanceMeters>45722.609868529</DistanceMeters>
          </Trackpoint>
          <Trackpoint>
            <Time>2022-04-23T12:03:54.000Z</Time>
            <Position>
              <LatitudeDegrees>41.62337386049330234527587890625</LatitudeDegrees>
              <LongitudeDegrees>-0.0336880423128604888916015625</LongitudeDegrees>
            </Position>
            <AltitudeMeters>464.600006103515625</AltitudeMeters>
            <DistanceMeters>45759.528939462</DistanceMeters>
          </Trackpoint>
          <Trackpoint>
            <Time>2022-04-23T12:03:55.000Z</Time>
            <Position>
              <LatitudeDegrees>41.62328668870031833648681640625</LatitudeDegrees>
              <LongitudeDegrees>-0.03370933234691619873046875</LongitudeDegrees>
            </Position>
            <AltitudeMeters>464.399993896484375</AltitudeMeters>
            <DistanceMeters>45769.391595466</DistanceMeters>
          </Trackpoint>
          <Trackpoint>
            <Time>2022-04-23T12:04:00.000Z</Time>
            <Position>
              <LatitudeDegrees>41.62284797988831996917724609375</LatitudeDegrees>
              <LongitudeDegrees>-0.03383514471352100372314453125</LongitudeDegrees>
            </Position>
            <AltitudeMeters>463.20001220703125</AltitudeMeters>
            <DistanceMeters>45819.330100367</DistanceMeters>
          </Trackpoint>
          <Trackpoint>
            <Time>2022-04-23T12:04:04.000Z</Time>
            <Position>
              <LatitudeDegrees>41.62246995605528354644775390625</LatitudeDegrees>
              <LongitudeDegrees>-0.0339042954146862030029296875</LongitudeDegrees>
            </Position>
            <AltitudeMeters>462</AltitudeMeters>
            <DistanceMeters>45861.796517294</DistanceMeters>
          </Trackpoint>
          <Trackpoint>
            <Time>2022-04-23T12:04:05.000Z</Time>
            <Position>
              <LatitudeDegrees>41.6223654337227344512939453125</LatitudeDegrees>
              <LongitudeDegrees>-0.03391494043171405792236328125</LongitudeDegrees>
            </Position>
            <AltitudeMeters>461.600006103515625</AltitudeMeters>
            <DistanceMeters>45873.463538007</DistanceMeters>
          </Trackpoint>
          <Trackpoint>
            <Time>2022-04-23T12:04:07.000Z</Time>
            <Position>
              <LatitudeDegrees>41.62216150201857089996337890625</LatitudeDegrees>
              <LongitudeDegrees>-0.03393606282770633697509765625</LongitudeDegrees>
            </Position>
            <AltitudeMeters>460.79998779296875</AltitudeMeters>
            <DistanceMeters>45896.22952728</DistanceMeters>
          </Trackpoint>
          <Trackpoint>
            <Time>2022-04-23T12:04:09.000Z</Time>
            <Position>
              <LatitudeDegrees>41.62196452729403972625732421875</LatitudeDegrees>
              <LongitudeDegrees>-0.03397679887712001800537109375</LongitudeDegrees>
            </Position>
            <AltitudeMeters>459.600006103515625</AltitudeMeters>
            <DistanceMeters>45918.413737119</DistanceMeters>
          </Trackpoint>
          <Trackpoint>
            <Time>2022-04-23T12:04:11.000Z</Time>
            <Position>
              <LatitudeDegrees>41.621780209243297576904296875</LatitudeDegrees>
              <LongitudeDegrees>-0.0340260006487369537353515625</LongitudeDegrees>
            </Position>
            <AltitudeMeters>458.399993896484375</AltitudeMeters>
            <DistanceMeters>45939.333000123</DistanceMeters>
          </Trackpoint>
          <Trackpoint>
            <Time>2022-04-23T12:04:15.000Z</Time>
            <Position>
              <LatitudeDegrees>41.62145624868571758270263671875</LatitudeDegrees>
              <LongitudeDegrees>-0.03410923294723033905029296875</LongitudeDegrees>
            </Position>
            <AltitudeMeters>456.79998779296875</AltitudeMeters>
            <DistanceMeters>45976.049482966</DistanceMeters>
          </Trackpoint>
          <Trackpoint>
            <Time>2022-04-23T12:04:17.000Z</Time>
            <Position>
              <LatitudeDegrees>41.621305458247661590576171875</LatitudeDegrees>
              <LongitudeDegrees>-0.03414091654121875762939453125</LongitudeDegrees>
            </Position>
            <AltitudeMeters>455.79998779296875</AltitudeMeters>
            <DistanceMeters>45993.038813837</DistanceMeters>
          </Trackpoint>
          <Trackpoint>
            <Time>2022-04-23T12:04:18.000Z</Time>
            <Position>
              <LatitudeDegrees>41.62123513408005237579345703125</LatitudeDegrees>
              <LongitudeDegrees>-0.03414510749280452728271484375</LongitudeDegrees>
            </Position>
            <AltitudeMeters>455.600006103515625</AltitudeMeters>
            <DistanceMeters>46000.873188706</DistanceMeters>
          </Trackpoint>
          <Trackpoint>
            <Time>2022-04-23T12:04:22.000Z</Time>
            <Position>
              <LatitudeDegrees>41.6209797374904155731201171875</LatitudeDegrees>
              <LongitudeDegrees>-0.0341244041919708251953125</LongitudeDegrees>
            </Position>
            <AltitudeMeters>455.79998779296875</AltitudeMeters>
            <DistanceMeters>46029.351412415</DistanceMeters>
          </Trackpoint>
          <Trackpoint>
            <Time>2022-04-23T12:04:25.000Z</Time>
            <Position>
              <LatitudeDegrees>41.62080765701830387115478515625</LatitudeDegrees>
              <LongitudeDegrees>-0.0340967439115047454833984375</LongitudeDegrees>
            </Position>
            <AltitudeMeters>456</AltitudeMeters>
            <DistanceMeters>46048.642069486</DistanceMeters>
          </Trackpoint>
          <Trackpoint>
            <Time>2022-04-23T12:04:28.000Z</Time>
            <Position>
              <LatitudeDegrees>41.62063448689877986907958984375</LatitudeDegrees>
              <LongitudeDegrees>-0.03409557044506072998046875</LongitudeDegrees>
            </Position>
            <AltitudeMeters>456.79998779296875</AltitudeMeters>
            <DistanceMeters>46067.916570128</DistanceMeters>
          </Trackpoint>
          <Trackpoint>
            <Time>2022-04-23T12:04:30.000Z</Time>
            <Position>
              <LatitudeDegrees>41.62052300758659839630126953125</LatitudeDegrees>
              <LongitudeDegrees>-0.03411325626075267791748046875</LongitudeDegrees>
            </Position>
            <AltitudeMeters>457.399993896484375</AltitudeMeters>
            <DistanceMeters>46080.411408728</DistanceMeters>
          </Trackpoint>
          <Trackpoint>
            <Time>2022-04-23T12:04:31.000Z</Time>
            <Position>
              <LatitudeDegrees>41.6204711236059665679931640625</LatitudeDegrees>
              <LongitudeDegrees>-0.0341228954493999481201171875</LongitudeDegrees>
            </Position>
            <AltitudeMeters>457.79998779296875</AltitudeMeters>
            <DistanceMeters>46086.24143512</DistanceMeters>
          </Trackpoint>
          <Trackpoint>
            <Time>2022-04-23T12:04:32.000Z</Time>
            <Position>
              <LatitudeDegrees>41.62041974253952503204345703125</LatitudeDegrees>
              <LongitudeDegrees>-0.03414041362702846527099609375</LongitudeDegrees>
            </Position>
            <AltitudeMeters>458.20001220703125</AltitudeMeters>
            <DistanceMeters>46092.142280379</DistanceMeters>
          </Trackpoint>
          <Trackpoint>
            <Time>2022-04-23T12:04:34.000Z</Time>
            <Position>
              <LatitudeDegrees>41.62032569758594036102294921875</LatitudeDegrees>
              <LongitudeDegrees>-0.03417075611650943756103515625</LongitudeDegrees>
            </Position>
            <AltitudeMeters>459</AltitudeMeters>
            <DistanceMeters>46102.909691928</DistanceMeters>
          </Trackpoint>
          <Trackpoint>
            <Time>2022-04-23T12:04:35.000Z</Time>
            <Position>
              <LatitudeDegrees>41.620280854403972625732421875</LatitudeDegrees>
              <LongitudeDegrees>-0.034186430275440216064453125</LongitudeDegrees>
            </Position>
            <AltitudeMeters>459.399993896484375</AltitudeMeters>
            <DistanceMeters>46108.067463268</DistanceMeters>
          </Trackpoint>
          <Trackpoint>
            <Time>2022-04-23T12:04:37.000Z</Time>
            <Position>
              <LatitudeDegrees>41.620195694267749786376953125</LatitudeDegrees>
              <LongitudeDegrees>-0.034223981201648712158203125</LongitudeDegrees>
            </Position>
            <AltitudeMeters>460.399993896484375</AltitudeMeters>
            <DistanceMeters>46118.047530562</DistanceMeters>
          </Trackpoint>
          <Trackpoint>
            <Time>2022-04-23T12:04:40.000Z</Time>
            <Position>
              <LatitudeDegrees>41.62005814723670482635498046875</LatitudeDegrees>
              <LongitudeDegrees>-0.03427083604037761688232421875</LongitudeDegrees>
            </Position>
            <AltitudeMeters>461.600006103515625</AltitudeMeters>
            <DistanceMeters>46133.845418166</DistanceMeters>
          </Trackpoint>
          <Trackpoint>
            <Time>2022-04-23T12:04:47.000Z</Time>
            <Position>
              <LatitudeDegrees>41.6196942888200283050537109375</LatitudeDegrees>
              <LongitudeDegrees>-0.0344196148216724395751953125</LongitudeDegrees>
            </Position>
            <AltitudeMeters>462.20001220703125</AltitudeMeters>
            <DistanceMeters>46176.19333537</DistanceMeters>
          </Trackpoint>
          <Trackpoint>
            <Time>2022-04-23T12:04:52.000Z</Time>
            <Position>
              <LatitudeDegrees>41.6193928755819797515869140625</LatitudeDegrees>
              <LongitudeDegrees>-0.0346549786627292633056640625</LongitudeDegrees>
            </Position>
            <AltitudeMeters>461.399993896484375</AltitudeMeters>
            <DistanceMeters>46215.038926552</DistanceMeters>
          </Trackpoint>
          <Trackpoint>
            <Time>2022-04-23T12:04:54.000Z</Time>
            <Position>
              <LatitudeDegrees>41.61927611567080020904541015625</LatitudeDegrees>
              <LongitudeDegrees>-0.03476134501397609710693359375</LongitudeDegrees>
            </Position>
            <AltitudeMeters>460.399993896484375</AltitudeMeters>
            <DistanceMeters>46230.761756219</DistanceMeters>
          </Trackpoint>
          <Trackpoint>
            <Time>2022-04-23T12:04:58.000Z</Time>
            <Position>
              <LatitudeDegrees>41.61906841211020946502685546875</LatitudeDegrees>
              <LongitudeDegrees>-0.034997127950191497802734375</LongitudeDegrees>
            </Position>
            <AltitudeMeters>459.79998779296875</AltitudeMeters>
            <DistanceMeters>46261.081979873</DistanceMeters>
          </Trackpoint>
          <Trackpoint>
            <Time>2022-04-23T12:04:59.000Z</Time>
            <Position>
              <LatitudeDegrees>41.6190150193870067596435546875</LatitudeDegrees>
              <LongitudeDegrees>-0.03505018539726734161376953125</LongitudeDegrees>
            </Position>
            <AltitudeMeters>459.399993896484375</AltitudeMeters>
            <DistanceMeters>46268.484920771</DistanceMeters>
          </Trackpoint>
          <Trackpoint>
            <Time>2022-04-23T12:05:01.000Z</Time>
            <Position>
              <LatitudeDegrees>41.618890464305877685546875</LatitudeDegrees>
              <LongitudeDegrees>-0.035125203430652618408203125</LongitudeDegrees>
            </Position>
            <AltitudeMeters>459</AltitudeMeters>
            <DistanceMeters>46283.688601142</DistanceMeters>
          </Trackpoint>
          <Trackpoint>
            <Time>2022-04-23T12:05:02.000Z</Time>
            <Position>
              <LatitudeDegrees>41.61882064305245876312255859375</LatitudeDegrees>
              <LongitudeDegrees>-0.03514523617923259735107421875</LongitudeDegrees>
            </Position>
            <AltitudeMeters>458.79998779296875</AltitudeMeters>
            <DistanceMeters>46291.636834581</DistanceMeters>
          </Trackpoint>
          <Trackpoint>
            <Time>2022-04-23T12:05:03.000Z</Time>
            <Position>
              <LatitudeDegrees>41.6187501512467861175537109375</LatitudeDegrees>
              <LongitudeDegrees>-0.03514657728374004364013671875</LongitudeDegrees>
            </Position>
            <AltitudeMeters>458.600006103515625</AltitudeMeters>
            <DistanceMeters>46299.483302652</DistanceMeters>
          </Trackpoint>
          <Trackpoint>
            <Time>2022-04-23T12:05:04.000Z</Time>
            <Position>
              <LatitudeDegrees>41.6186780668795108795166015625</LatitudeDegrees>
              <LongitudeDegrees>-0.0351344235241413116455078125</LongitudeDegrees>
            </Position>
            <AltitudeMeters>458.399993896484375</AltitudeMeters>
            <DistanceMeters>46307.570070462</DistanceMeters>
          </Trackpoint>
          <Trackpoint>
            <Time>2022-04-23T12:05:06.000Z</Time>
            <Position>
              <LatitudeDegrees>41.618542782962322235107421875</LatitudeDegrees>
              <LongitudeDegrees>-0.03509075380861759185791015625</LongitudeDegrees>
            </Position>
            <AltitudeMeters>458</AltitudeMeters>
            <DistanceMeters>46323.059716394</DistanceMeters>
          </Trackpoint>
          <Trackpoint>
            <Time>2022-04-23T12:05:12.000Z</Time>
            <Position>
              <LatitudeDegrees>41.6181402839720249176025390625</LatitudeDegrees>
              <LongitudeDegrees>-0.03499587066471576690673828125</LongitudeDegrees>
            </Position>
            <AltitudeMeters>457.399993896484375</AltitudeMeters>
            <DistanceMeters>46368.549035332</DistanceMeters>
          </Trackpoint>
          <Trackpoint>
            <Time>2022-04-23T12:05:13.000Z</Time>
            <Position>
              <LatitudeDegrees>41.61806761287152767181396484375</LatitudeDegrees>
              <LongitudeDegrees>-0.03498530946671962738037109375</LongitudeDegrees>
            </Position>
            <AltitudeMeters>457.20001220703125</AltitudeMeters>
            <DistanceMeters>46376.685342259</DistanceMeters>
          </Trackpoint>
          <Trackpoint>
            <Time>2022-04-23T12:05:17.000Z</Time>
            <Position>
              <LatitudeDegrees>41.61777793429791927337646484375</LatitudeDegrees>
              <LongitudeDegrees>-0.0349282287061214447021484375</LongitudeDegrees>
            </Position>
            <AltitudeMeters>456.20001220703125</AltitudeMeters>
            <DistanceMeters>46409.275072254</DistanceMeters>
          </Trackpoint>
          <Trackpoint>
            <Time>2022-04-23T12:05:20.000Z</Time>
            <Position>
              <LatitudeDegrees>41.61755514331161975860595703125</LatitudeDegrees>
              <LongitudeDegrees>-0.03488556481897830963134765625</LongitudeDegrees>
            </Position>
            <AltitudeMeters>455.20001220703125</AltitudeMeters>
            <DistanceMeters>46434.325022595</DistanceMeters>
          </Trackpoint>
          <Trackpoint>
            <Time>2022-04-23T12:05:21.000Z</Time>
            <Position>
              <LatitudeDegrees>41.61748272366821765899658203125</LatitudeDegrees>
              <LongitudeDegrees>-0.0348732434213161468505859375</LongitudeDegrees>
            </Position>
            <AltitudeMeters>455.20001220703125</AltitudeMeters>
            <DistanceMeters>46442.450223447</DistanceMeters>
          </Trackpoint>
          <Trackpoint>
            <Time>2022-04-23T12:05:26.000Z</Time>
            <Position>
              <LatitudeDegrees>41.617101095616817474365234375</LatitudeDegrees>
              <LongitudeDegrees>-0.03485471941530704498291015625</LongitudeDegrees>
            </Position>
            <AltitudeMeters>454.79998779296875</AltitudeMeters>
            <DistanceMeters>46484.954261063</DistanceMeters>
          </Trackpoint>
          <Trackpoint>
            <Time>2022-04-23T12:05:27.000Z</Time>
            <Position>
              <LatitudeDegrees>41.61702104844152927398681640625</LatitudeDegrees>
              <LongitudeDegrees>-0.034871399402618408203125</LongitudeDegrees>
            </Position>
            <AltitudeMeters>454.600006103515625</AltitudeMeters>
            <DistanceMeters>46493.971790568</DistanceMeters>
          </Trackpoint>
          <Trackpoint>
            <Time>2022-04-23T12:05:30.000Z</Time>
            <Position>
              <LatitudeDegrees>41.616763807833194732666015625</LatitudeDegrees>
              <LongitudeDegrees>-0.03492630086839199066162109375</LongitudeDegrees>
            </Position>
            <AltitudeMeters>454.20001220703125</AltitudeMeters>
            <DistanceMeters>46522.965373933</DistanceMeters>
          </Trackpoint>
          <Trackpoint>
            <Time>2022-04-23T12:05:32.000Z</Time>
            <Position>
              <LatitudeDegrees>41.61657697521150112152099609375</LatitudeDegrees>
              <LongitudeDegrees>-0.03497173078358173370361328125</LongitudeDegrees>
            </Position>
            <AltitudeMeters>453.20001220703125</AltitudeMeters>
            <DistanceMeters>46544.1008619</DistanceMeters>
          </Trackpoint>
          <Trackpoint>
            <Time>2022-04-23T12:05:33.000Z</Time>
            <Position>
              <LatitudeDegrees>41.616480834782123565673828125</LatitudeDegrees>
              <LongitudeDegrees>-0.03499411046504974365234375</LongitudeDegrees>
            </Position>
            <AltitudeMeters>451.600006103515625</AltitudeMeters>
            <DistanceMeters>46554.962211662</DistanceMeters>
          </Trackpoint>
          <Trackpoint>
            <Time>2022-04-23T12:05:34.000Z</Time>
            <Position>
              <LatitudeDegrees>41.61638586781919002532958984375</LatitudeDegrees>
              <LongitudeDegrees>-0.03501397557556629180908203125</LongitudeDegrees>
            </Position>
            <AltitudeMeters>450.399993896484375</AltitudeMeters>
            <DistanceMeters>46565.660210954</DistanceMeters>
          </Trackpoint>
          <Trackpoint>
            <Time>2022-04-23T12:05:36.000Z</Time>
            <Position>
              <LatitudeDegrees>41.61619576625525951385498046875</LatitudeDegrees>
              <LongitudeDegrees>-0.03505135886371135711669921875</LongitudeDegrees>
            </Position>
            <AltitudeMeters>449.399993896484375</AltitudeMeters>
            <DistanceMeters>46587.046289179</DistanceMeters>
          </Trackpoint>
          <Trackpoint>
            <Time>2022-04-23T12:05:38.000Z</Time>
            <Position>
              <LatitudeDegrees>41.61601052619516849517822265625</LatitudeDegrees>
              <LongitudeDegrees>-0.0350854732096195220947265625</LongitudeDegrees>
            </Position>
            <AltitudeMeters>448.20001220703125</AltitudeMeters>
            <DistanceMeters>46607.858441321</DistanceMeters>
          </Trackpoint>
          <Trackpoint>
            <Time>2022-04-23T12:05:40.000Z</Time>
            <Position>
              <LatitudeDegrees>41.61582696251571178436279296875</LatitudeDegrees>
              <LongitudeDegrees>-0.03511992283165454864501953125</LongitudeDegrees>
            </Position>
            <AltitudeMeters>446.79998779296875</AltitudeMeters>
            <DistanceMeters>46628.489526684</DistanceMeters>
          </Trackpoint>
          <Trackpoint>
            <Time>2022-04-23T12:05:44.000Z</Time>
            <Position>
              <LatitudeDegrees>41.6154746711254119873046875</LatitudeDegrees>
              <LongitudeDegrees>-0.03518496640026569366455078125</LongitudeDegrees>
            </Position>
            <AltitudeMeters>445.600006103515625</AltitudeMeters>
            <DistanceMeters>46668.07211722</DistanceMeters>
          </Trackpoint>
          <Trackpoint>
            <Time>2022-04-23T12:05:47.000Z</Time>
            <Position>
              <LatitudeDegrees>41.61522262729704380035400390625</LatitudeDegrees>
              <LongitudeDegrees>-0.035227127373218536376953125</LongitudeDegrees>
            </Position>
            <AltitudeMeters>445.20001220703125</AltitudeMeters>
            <DistanceMeters>46696.343483056</DistanceMeters>
          </Trackpoint>
          <Trackpoint>
            <Time>2022-04-23T12:05:50.000Z</Time>
            <Position>
              <LatitudeDegrees>41.61498676054179668426513671875</LatitudeDegrees>
              <LongitudeDegrees>-0.03527331165969371795654296875</LongitudeDegrees>
            </Position>
            <AltitudeMeters>444.399993896484375</AltitudeMeters>
            <DistanceMeters>46722.875513496</DistanceMeters>
          </Trackpoint>
          <Trackpoint>
            <Time>2022-04-23T12:05:53.000Z</Time>
            <Position>
              <LatitudeDegrees>41.6147451102733612060546875</LatitudeDegrees>
              <LongitudeDegrees>-0.035332404077053070068359375</LongitudeDegrees>
            </Position>
            <AltitudeMeters>444</AltitudeMeters>
            <DistanceMeters>46750.21745872</DistanceMeters>
          </Trackpoint>
          <Trackpoint>
            <Time>2022-04-23T12:05:56.000Z</Time>
            <Position>
              <LatitudeDegrees>41.61448895931243896484375</LatitudeDegrees>
              <LongitudeDegrees>-0.03539116121828556060791015625</LongitudeDegrees>
            </Position>
            <AltitudeMeters>443.20001220703125</AltitudeMeters>
            <DistanceMeters>46779.143690471</DistanceMeters>
          </Trackpoint>
          <Trackpoint>
            <Time>2022-04-23T12:05:58.000Z</Time>
            <Position>
              <LatitudeDegrees>41.61431469954550266265869140625</LatitudeDegrees>
              <LongitudeDegrees>-0.0354220904409885406494140625</LongitudeDegrees>
            </Position>
            <AltitudeMeters>442.20001220703125</AltitudeMeters>
            <DistanceMeters>46798.708580975</DistanceMeters>
          </Trackpoint>
          <Trackpoint>
            <Time>2022-04-23T12:06:01.000Z</Time>
            <Position>
              <LatitudeDegrees>41.6140745580196380615234375</LatitudeDegrees>
              <LongitudeDegrees>-0.03547615371644496917724609375</LongitudeDegrees>
            </Position>
            <AltitudeMeters>441.20001220703125</AltitudeMeters>
            <DistanceMeters>46825.812525503</DistanceMeters>
          </Trackpoint>
          <Trackpoint>
            <Time>2022-04-23T12:06:02.000Z</Time>
            <Position>
              <LatitudeDegrees>41.6139996238052845001220703125</LatitudeDegrees>
              <LongitudeDegrees>-0.03549526445567607879638671875</LongitudeDegrees>
            </Position>
            <AltitudeMeters>441.20001220703125</AltitudeMeters>
            <DistanceMeters>46834.302937757</DistanceMeters>
          </Trackpoint>
          <Trackpoint>
            <Time>2022-04-23T12:06:07.000Z</Time>
            <Position>
              <LatitudeDegrees>41.61363040097057819366455078125</LatitudeDegrees>
              <LongitudeDegrees>-0.03560255281627178192138671875</LongitudeDegrees>
            </Position>
            <AltitudeMeters>440.399993896484375</AltitudeMeters>
            <DistanceMeters>46876.356741526</DistanceMeters>
          </Trackpoint>
          <Trackpoint>
            <Time>2022-04-23T12:06:10.000Z</Time>
            <Position>
              <LatitudeDegrees>41.6134584881365299224853515625</LatitudeDegrees>
              <LongitudeDegrees>-0.035665333271026611328125</LongitudeDegrees>
            </Position>
            <AltitudeMeters>440.20001220703125</AltitudeMeters>
            <DistanceMeters>46896.191163886</DistanceMeters>
          </Trackpoint>
          <Trackpoint>
            <Time>2022-04-23T12:06:12.000Z</Time>
            <Position>
              <LatitudeDegrees>41.6133557260036468505859375</LatitudeDegrees>
              <LongitudeDegrees>-0.03568352200090885162353515625</LongitudeDegrees>
            </Position>
            <AltitudeMeters>440.399993896484375</AltitudeMeters>
            <DistanceMeters>46907.72859674</DistanceMeters>
          </Trackpoint>
          <Trackpoint>
            <Time>2022-04-23T12:06:18.000Z</Time>
            <Position>
              <LatitudeDegrees>41.61303092725574970245361328125</LatitudeDegrees>
              <LongitudeDegrees>-0.035768263041973114013671875</LongitudeDegrees>
            </Position>
            <AltitudeMeters>441.20001220703125</AltitudeMeters>
            <DistanceMeters>46944.560490313</DistanceMeters>
          </Trackpoint>
          <Trackpoint>
            <Time>2022-04-23T12:06:22.000Z</Time>
            <Position>
              <LatitudeDegrees>41.612834036350250244140625</LatitudeDegrees>
              <LongitudeDegrees>-0.03582484088838100433349609375</LongitudeDegrees>
            </Position>
            <AltitudeMeters>441.600006103515625</AltitudeMeters>
            <DistanceMeters>46966.974711982</DistanceMeters>
          </Trackpoint>
          <Trackpoint>
            <Time>2022-04-23T12:06:26.000Z</Time>
            <Position>
              <LatitudeDegrees>41.612621136009693145751953125</LatitudeDegrees>
              <LongitudeDegrees>-0.035874545574188232421875</LongitudeDegrees>
            </Position>
            <AltitudeMeters>442.20001220703125</AltitudeMeters>
            <DistanceMeters>46991.029050016</DistanceMeters>
          </Trackpoint>
          <Trackpoint>
            <Time>2022-04-23T12:06:29.000Z</Time>
            <Position>
              <LatitudeDegrees>41.61242575384676456451416015625</LatitudeDegrees>
              <LongitudeDegrees>-0.035902373492717742919921875</LongitudeDegrees>
            </Position>
            <AltitudeMeters>442.600006103515625</AltitudeMeters>
            <DistanceMeters>47012.898411432</DistanceMeters>
          </Trackpoint>
          <Trackpoint>
            <Time>2022-04-23T12:06:35.000Z</Time>
            <Position>
              <LatitudeDegrees>41.61196642555296421051025390625</LatitudeDegrees>
              <LongitudeDegrees>-0.035945959389209747314453125</LongitudeDegrees>
            </Position>
            <AltitudeMeters>441.79998779296875</AltitudeMeters>
            <DistanceMeters>47064.151032608</DistanceMeters>
          </Trackpoint>
          <Trackpoint>
            <Time>2022-04-23T12:06:37.000Z</Time>
            <Position>
              <LatitudeDegrees>41.61181421019136905670166015625</LatitudeDegrees>
              <LongitudeDegrees>-0.035957358777523040771484375</LongitudeDegrees>
            </Position>
            <AltitudeMeters>441</AltitudeMeters>
            <DistanceMeters>47081.119621751</DistanceMeters>
          </Trackpoint>
          <Trackpoint>
            <Time>2022-04-23T12:06:39.000Z</Time>
            <Position>
              <LatitudeDegrees>41.61164757795631885528564453125</LatitudeDegrees>
              <LongitudeDegrees>-0.0359585322439670562744140625</LongitudeDegrees>
            </Position>
            <AltitudeMeters>440</AltitudeMeters>
            <DistanceMeters>47099.666635852</DistanceMeters>
          </Trackpoint>
          <Trackpoint>
            <Time>2022-04-23T12:06:42.000Z</Time>
            <Position>
              <LatitudeDegrees>41.6114458255469799041748046875</LatitudeDegrees>
              <LongitudeDegrees>-0.0359605439007282257080078125</LongitudeDegrees>
            </Position>
            <AltitudeMeters>439.20001220703125</AltitudeMeters>
            <DistanceMeters>47122.122717187</DistanceMeters>
          </Trackpoint>
          <Trackpoint>
            <Time>2022-04-23T12:06:47.000Z</Time>
            <Position>
              <LatitudeDegrees>41.6111310012638568878173828125</LatitudeDegrees>
              <LongitudeDegrees>-0.0360111705958843231201171875</LongitudeDegrees>
            </Position>
            <AltitudeMeters>439.399993896484375</AltitudeMeters>
            <DistanceMeters>47157.415644021</DistanceMeters>
          </Trackpoint>
          <Trackpoint>
            <Time>2022-04-23T12:06:52.000Z</Time>
            <Position>
              <LatitudeDegrees>41.61088700406253337860107421875</LatitudeDegrees>
              <LongitudeDegrees>-0.03606858663260936737060546875</LongitudeDegrees>
            </Position>
            <AltitudeMeters>440.79998779296875</AltitudeMeters>
            <DistanceMeters>47184.990097719</DistanceMeters>
          </Trackpoint>
          <Trackpoint>
            <Time>2022-04-23T12:06:54.000Z</Time>
            <Position>
              <LatitudeDegrees>41.610799916088581085205078125</LatitudeDegrees>
              <LongitudeDegrees>-0.0360886193811893463134765625</LongitudeDegrees>
            </Position>
            <AltitudeMeters>441.600006103515625</AltitudeMeters>
            <DistanceMeters>47194.825247889</DistanceMeters>
          </Trackpoint>
          <Trackpoint>
            <Time>2022-04-23T12:06:57.000Z</Time>
            <Position>
              <LatitudeDegrees>41.61067930050194263458251953125</LatitudeDegrees>
              <LongitudeDegrees>-0.03612600266933441162109375</LongitudeDegrees>
            </Position>
            <AltitudeMeters>442.600006103515625</AltitudeMeters>
            <DistanceMeters>47208.605759767</DistanceMeters>
          </Trackpoint>
          <Trackpoint>
            <Time>2022-04-23T12:06:59.000Z</Time>
            <Position>
              <LatitudeDegrees>41.6105796396732330322265625</LatitudeDegrees>
              <LongitudeDegrees>-0.03614637069404125213623046875</LongitudeDegrees>
            </Position>
            <AltitudeMeters>443.600006103515625</AltitudeMeters>
            <DistanceMeters>47219.826962285</DistanceMeters>
          </Trackpoint>
          <Trackpoint>
            <Time>2022-04-23T12:07:03.000Z</Time>
            <Position>
              <LatitudeDegrees>41.6103850118815898895263671875</LatitudeDegrees>
              <LongitudeDegrees>-0.03619196824729442596435546875</LongitudeDegrees>
            </Position>
            <AltitudeMeters>445</AltitudeMeters>
            <DistanceMeters>47241.819231936</DistanceMeters>
          </Trackpoint>
          <Trackpoint>
            <Time>2022-04-23T12:07:05.000Z</Time>
            <Position>
              <LatitudeDegrees>41.61029239185154438018798828125</LatitudeDegrees>
              <LongitudeDegrees>-0.03620370291173458099365234375</LongitudeDegrees>
            </Position>
            <AltitudeMeters>445.20001220703125</AltitudeMeters>
            <DistanceMeters>47252.174092036</DistanceMeters>
          </Trackpoint>
          <Trackpoint>
            <Time>2022-04-23T12:07:09.000Z</Time>
            <Position>
              <LatitudeDegrees>41.61006708629429340362548828125</LatitudeDegrees>
              <LongitudeDegrees>-0.03624980337917804718017578125</LongitudeDegrees>
            </Position>
            <AltitudeMeters>446</AltitudeMeters>
            <DistanceMeters>47277.542843447</DistanceMeters>
          </Trackpoint>
          <Trackpoint>
            <Time>2022-04-23T12:07:11.000Z</Time>
            <Position>
              <LatitudeDegrees>41.6099377535283565521240234375</LatitudeDegrees>
              <LongitudeDegrees>-0.03627218306064605712890625</LongitudeDegrees>
            </Position>
            <AltitudeMeters>446.20001220703125</AltitudeMeters>
            <DistanceMeters>47292.057376972</DistanceMeters>
          </Trackpoint>
          <Trackpoint>
            <Time>2022-04-23T12:07:15.000Z</Time>
            <Position>
              <LatitudeDegrees>41.609702892601490020751953125</LatitudeDegrees>
              <LongitudeDegrees>-0.0362981669604778289794921875</LongitudeDegrees>
            </Position>
            <AltitudeMeters>445.600006103515625</AltitudeMeters>
            <DistanceMeters>47318.287160125</DistanceMeters>
          </Trackpoint>
          <Trackpoint>
            <Time>2022-04-23T12:07:17.000Z</Time>
            <Position>
              <LatitudeDegrees>41.60958361811935901641845703125</LatitudeDegrees>
              <LongitudeDegrees>-0.0363270007073879241943359375</LongitudeDegrees>
            </Position>
            <AltitudeMeters>445.79998779296875</AltitudeMeters>
            <DistanceMeters>47331.77794182</DistanceMeters>
          </Trackpoint>
          <Trackpoint>
            <Time>2022-04-23T12:07:21.000Z</Time>
            <Position>
              <LatitudeDegrees>41.60934188403189182281494140625</LatitudeDegrees>
              <LongitudeDegrees>-0.03636279143393039703369140625</LongitudeDegrees>
            </Position>
            <AltitudeMeters>445.399993896484375</AltitudeMeters>
            <DistanceMeters>47358.847715429</DistanceMeters>
          </Trackpoint>
          <Trackpoint>
            <Time>2022-04-23T12:07:24.000Z</Time>
            <Position>
              <LatitudeDegrees>41.60915312357246875762939453125</LatitudeDegrees>
              <LongitudeDegrees>-0.03636203706264495849609375</LongitudeDegrees>
            </Position>
            <AltitudeMeters>445.20001220703125</AltitudeMeters>
            <DistanceMeters>47379.857432151</DistanceMeters>
          </Trackpoint>
          <Trackpoint>
            <Time>2022-04-23T12:07:31.000Z</Time>
            <Position>
              <LatitudeDegrees>41.60865180194377899169921875</LatitudeDegrees>
              <LongitudeDegrees>-0.03638156689703464508056640625</LongitudeDegrees>
            </Position>
            <AltitudeMeters>445</AltitudeMeters>
            <DistanceMeters>47435.679136344</DistanceMeters>
          </Trackpoint>
          <Trackpoint>
            <Time>2022-04-23T12:07:37.000Z</Time>
            <Position>
              <LatitudeDegrees>41.60815902985632419586181640625</LatitudeDegrees>
              <LongitudeDegrees>-0.03646521829068660736083984375</LongitudeDegrees>
            </Position>
            <AltitudeMeters>443.399993896484375</AltitudeMeters>
            <DistanceMeters>47490.965659165</DistanceMeters>
          </Trackpoint>
          <Trackpoint>
            <Time>2022-04-23T12:07:39.000Z</Time>
            <Position>
              <LatitudeDegrees>41.60796775482594966888427734375</LatitudeDegrees>
              <LongitudeDegrees>-0.0364617817103862762451171875</LongitudeDegrees>
            </Position>
            <AltitudeMeters>441.79998779296875</AltitudeMeters>
            <DistanceMeters>47512.256733292</DistanceMeters>
          </Trackpoint>
          <Trackpoint>
            <Time>2022-04-23T12:07:41.000Z</Time>
            <Position>
              <LatitudeDegrees>41.607811264693737030029296875</LatitudeDegrees>
              <LongitudeDegrees>-0.03643152303993701934814453125</LongitudeDegrees>
            </Position>
            <AltitudeMeters>440.79998779296875</AltitudeMeters>
            <DistanceMeters>47529.855413977</DistanceMeters>
          </Trackpoint>
          <Trackpoint>
            <Time>2022-04-23T12:07:42.000Z</Time>
            <Position>
              <LatitudeDegrees>41.60772350616753101348876953125</LatitudeDegrees>
              <LongitudeDegrees>-0.0364084728062152862548828125</LongitudeDegrees>
            </Position>
            <AltitudeMeters>440.399993896484375</AltitudeMeters>
            <DistanceMeters>47539.80966075</DistanceMeters>
          </Trackpoint>
          <Trackpoint>
            <Time>2022-04-23T12:07:45.000Z</Time>
            <Position>
              <LatitudeDegrees>41.607461236417293548583984375</LatitudeDegrees>
              <LongitudeDegrees>-0.0363313592970371246337890625</LongitudeDegrees>
            </Position>
            <AltitudeMeters>439.79998779296875</AltitudeMeters>
            <DistanceMeters>47569.69794177</DistanceMeters>
          </Trackpoint>
          <Trackpoint>
            <Time>2022-04-23T12:07:48.000Z</Time>
            <Position>
              <LatitudeDegrees>41.607181616127490997314453125</LatitudeDegrees>
              <LongitudeDegrees>-0.0362324528396129608154296875</LongitudeDegrees>
            </Position>
            <AltitudeMeters>438.399993896484375</AltitudeMeters>
            <DistanceMeters>47601.890266215</DistanceMeters>
          </Trackpoint>
          <Trackpoint>
            <Time>2022-04-23T12:07:49.000Z</Time>
            <Position>
              <LatitudeDegrees>41.6070962883532047271728515625</LatitudeDegrees>
              <LongitudeDegrees>-0.036206804215908050537109375</LongitudeDegrees>
            </Position>
            <AltitudeMeters>437.79998779296875</AltitudeMeters>
            <DistanceMeters>47611.623896681</DistanceMeters>
          </Trackpoint>
          <Trackpoint>
            <Time>2022-04-23T12:07:51.000Z</Time>
            <Position>
              <LatitudeDegrees>41.6069464199244976043701171875</LatitudeDegrees>
              <LongitudeDegrees>-0.03617939539253711700439453125</LongitudeDegrees>
            </Position>
            <AltitudeMeters>437.20001220703125</AltitudeMeters>
            <DistanceMeters>47628.459455461</DistanceMeters>
          </Trackpoint>
          <Trackpoint>
            <Time>2022-04-23T12:07:53.000Z</Time>
            <Position>
              <LatitudeDegrees>41.606773249804973602294921875</LatitudeDegrees>
              <LongitudeDegrees>-0.0361771322786808013916015625</LongitudeDegrees>
            </Position>
            <AltitudeMeters>436.79998779296875</AltitudeMeters>
            <DistanceMeters>47647.734658837</DistanceMeters>
          </Trackpoint>
          <Trackpoint>
            <Time>2022-04-23T12:07:54.000Z</Time>
            <Position>
              <LatitudeDegrees>41.60669471137225627899169921875</LatitudeDegrees>
              <LongitudeDegrees>-0.03619045950472354888916015625</LongitudeDegrees>
            </Position>
            <AltitudeMeters>436.79998779296875</AltitudeMeters>
            <DistanceMeters>47656.546049038</DistanceMeters>
          </Trackpoint>
          <Trackpoint>
            <Time>2022-04-23T12:07:57.000Z</Time>
            <Position>
              <LatitudeDegrees>41.60647275857627391815185546875</LatitudeDegrees>
              <LongitudeDegrees>-0.03624846227467060089111328125</LongitudeDegrees>
            </Position>
            <AltitudeMeters>436.20001220703125</AltitudeMeters>
            <DistanceMeters>47681.717009558</DistanceMeters>
          </Trackpoint>
          <Trackpoint>
            <Time>2022-04-23T12:07:58.000Z</Time>
            <Position>
              <LatitudeDegrees>41.60640603862702846527099609375</LatitudeDegrees>
              <LongitudeDegrees>-0.03628165461122989654541015625</LongitudeDegrees>
            </Position>
            <AltitudeMeters>436</AltitudeMeters>
            <DistanceMeters>47689.640209129</DistanceMeters>
          </Trackpoint>
          <Trackpoint>
            <Time>2022-04-23T12:08:04.000Z</Time>
            <Position>
              <LatitudeDegrees>41.6060555912554264068603515625</LatitudeDegrees>
              <LongitudeDegrees>-0.03651634790003299713134765625</LongitudeDegrees>
            </Position>
            <AltitudeMeters>436.600006103515625</AltitudeMeters>
            <DistanceMeters>47733.262646465</DistanceMeters>
          </Trackpoint>
          <Trackpoint>
            <Time>2022-04-23T12:08:07.000Z</Time>
            <Position>
              <LatitudeDegrees>41.60590714775025844573974609375</LatitudeDegrees>
              <LongitudeDegrees>-0.03661684691905975341796875</LongitudeDegrees>
            </Position>
            <AltitudeMeters>437.20001220703125</AltitudeMeters>
            <DistanceMeters>47751.781156478</DistanceMeters>
          </Trackpoint>
          <Trackpoint>
            <Time>2022-04-23T12:08:08.000Z</Time>
            <Position>
              <LatitudeDegrees>41.605856604874134063720703125</LatitudeDegrees>
              <LongitudeDegrees>-0.0366435013711452484130859375</LongitudeDegrees>
            </Position>
            <AltitudeMeters>437.20001220703125</AltitudeMeters>
            <DistanceMeters>47757.827872903</DistanceMeters>
          </Trackpoint>
          <Trackpoint>
            <Time>2022-04-23T12:08:09.000Z</Time>
            <Position>
              <LatitudeDegrees>41.605813689529895782470703125</LatitudeDegrees>
              <LongitudeDegrees>-0.03666169010102748870849609375</LongitudeDegrees>
            </Position>
            <AltitudeMeters>437.399993896484375</AltitudeMeters>
            <DistanceMeters>47762.838223441</DistanceMeters>
          </Trackpoint>
          <Trackpoint>
            <Time>2022-04-23T12:08:13.000Z</Time>
            <Position>
              <LatitudeDegrees>41.60559383220970630645751953125</LatitudeDegrees>
              <LongitudeDegrees>-0.03673209808766841888427734375</LongitudeDegrees>
            </Position>
            <AltitudeMeters>438.20001220703125</AltitudeMeters>
            <DistanceMeters>47788.000393057</DistanceMeters>
          </Trackpoint>
          <Trackpoint>
            <Time>2022-04-23T12:08:16.000Z</Time>
            <Position>
              <LatitudeDegrees>41.60543382167816162109375</LatitudeDegrees>
              <LongitudeDegrees>-0.03675942309200763702392578125</LongitudeDegrees>
            </Position>
            <AltitudeMeters>438.600006103515625</AltitudeMeters>
            <DistanceMeters>47805.954407617</DistanceMeters>
          </Trackpoint>
          <Trackpoint>
            <Time>2022-04-23T12:08:21.000Z</Time>
            <Position>
              <LatitudeDegrees>41.60516249947249889373779296875</LatitudeDegrees>
              <LongitudeDegrees>-0.036743581295013427734375</LongitudeDegrees>
            </Position>
            <AltitudeMeters>439.399993896484375</AltitudeMeters>
            <DistanceMeters>47836.181567503</DistanceMeters>
          </Trackpoint>
          <Trackpoint>
            <Time>2022-04-23T12:08:25.000Z</Time>
            <Position>
              <LatitudeDegrees>41.60495446063578128814697265625</LatitudeDegrees>
              <LongitudeDegrees>-0.03670477308332920074462890625</LongitudeDegrees>
            </Position>
            <AltitudeMeters>439.600006103515625</AltitudeMeters>
            <DistanceMeters>47859.560843094</DistanceMeters>
          </Trackpoint>
          <Trackpoint>
            <Time>2022-04-23T12:08:32.000Z</Time>
            <Position>
              <LatitudeDegrees>41.60455740988254547119140625</LatitudeDegrees>
              <LongitudeDegrees>-0.03667443059384822845458984375</LongitudeDegrees>
            </Position>
            <AltitudeMeters>440.20001220703125</AltitudeMeters>
            <DistanceMeters>47903.825547396</DistanceMeters>
          </Trackpoint>
          <Trackpoint>
            <Time>2022-04-23T12:08:34.000Z</Time>
            <Position>
              <LatitudeDegrees>41.60445640794932842254638671875</LatitudeDegrees>
              <LongitudeDegrees>-0.03667208366096019744873046875</LongitudeDegrees>
            </Position>
            <AltitudeMeters>440.600006103515625</AltitudeMeters>
            <DistanceMeters>47915.069259871</DistanceMeters>
          </Trackpoint>
          <Trackpoint>
            <Time>2022-04-23T12:08:35.000Z</Time>
            <Position>
              <LatitudeDegrees>41.6043996624648571014404296875</LatitudeDegrees>
              <LongitudeDegrees>-0.0366726703941822052001953125</LongitudeDegrees>
            </Position>
            <AltitudeMeters>440.79998779296875</AltitudeMeters>
            <DistanceMeters>47921.385499079</DistanceMeters>
          </Trackpoint>
          <Trackpoint>
            <Time>2022-04-23T12:08:41.000Z</Time>
            <Position>
              <LatitudeDegrees>41.60405122675001621246337890625</LatitudeDegrees>
              <LongitudeDegrees>-0.03669354133307933807373046875</LongitudeDegrees>
            </Position>
            <AltitudeMeters>441.600006103515625</AltitudeMeters>
            <DistanceMeters>47960.205976378</DistanceMeters>
          </Trackpoint>
          <Trackpoint>
            <Time>2022-04-23T12:08:44.000Z</Time>
            <Position>
              <LatitudeDegrees>41.60391041077673435211181640625</LatitudeDegrees>
              <LongitudeDegrees>-0.0367105565965175628662109375</LongitudeDegrees>
            </Position>
            <AltitudeMeters>442.20001220703125</AltitudeMeters>
            <DistanceMeters>47975.943157719</DistanceMeters>
          </Trackpoint>
          <Trackpoint>
            <Time>2022-04-23T12:08:46.000Z</Time>
            <Position>
              <LatitudeDegrees>41.6038022004067897796630859375</LatitudeDegrees>
              <LongitudeDegrees>-0.0367112271487712860107421875</LongitudeDegrees>
            </Position>
            <AltitudeMeters>442.600006103515625</AltitudeMeters>
            <DistanceMeters>47987.987208034</DistanceMeters>
          </Trackpoint>
          <Trackpoint>
            <Time>2022-04-23T12:08:50.000Z</Time>
            <Position>
              <LatitudeDegrees>41.60363095812499523162841796875</LatitudeDegrees>
              <LongitudeDegrees>-0.03672505728900432586669921875</LongitudeDegrees>
            </Position>
            <AltitudeMeters>443.20001220703125</AltitudeMeters>
            <DistanceMeters>48007.081194164</DistanceMeters>
          </Trackpoint>
          <Trackpoint>
            <Time>2022-04-23T12:08:56.000Z</Time>
            <Position>
              <LatitudeDegrees>41.60338100977241992950439453125</LatitudeDegrees>
              <LongitudeDegrees>-0.036716423928737640380859375</LongitudeDegrees>
            </Position>
            <AltitudeMeters>443.600006103515625</AltitudeMeters>
            <DistanceMeters>48034.910234323</DistanceMeters>
          </Trackpoint>
          <Trackpoint>
            <Time>2022-04-23T12:08:57.000Z</Time>
            <Position>
              <LatitudeDegrees>41.60333298146724700927734375</LatitudeDegrees>
              <LongitudeDegrees>-0.036707706749439239501953125</LongitudeDegrees>
            </Position>
            <AltitudeMeters>443.79998779296875</AltitudeMeters>
            <DistanceMeters>48040.304203761</DistanceMeters>
          </Trackpoint>
          <Trackpoint>
            <Time>2022-04-23T12:09:09.000Z</Time>
            <Position>
              <LatitudeDegrees>41.60278983414173126220703125</LatitudeDegrees>
              <LongitudeDegrees>-0.036683566868305206298828125</LongitudeDegrees>
            </Position>
            <AltitudeMeters>444.399993896484375</AltitudeMeters>
            <DistanceMeters>48100.791002836</DistanceMeters>
          </Trackpoint>
          <Trackpoint>
            <Time>2022-04-23T12:09:11.000Z</Time>
            <Position>
              <LatitudeDegrees>41.6026858985424041748046875</LatitudeDegrees>
              <LongitudeDegrees>-0.03668390214443206787109375</LongitudeDegrees>
            </Position>
            <AltitudeMeters>444.79998779296875</AltitudeMeters>
            <DistanceMeters>48112.359310097</DistanceMeters>
          </Trackpoint>
          <Trackpoint>
            <Time>2022-04-23T12:09:17.000Z</Time>
            <Position>
              <LatitudeDegrees>41.6023963876068592071533203125</LatitudeDegrees>
              <LongitudeDegrees>-0.0366575829684734344482421875</LongitudeDegrees>
            </Position>
            <AltitudeMeters>445.399993896484375</AltitudeMeters>
            <DistanceMeters>48144.656931847</DistanceMeters>
          </Trackpoint>
          <Trackpoint>
            <Time>2022-04-23T12:09:20.000Z</Time>
            <Position>
              <LatitudeDegrees>41.60226001404225826263427734375</LatitudeDegrees>
              <LongitudeDegrees>-0.0366269052028656005859375</LongitudeDegrees>
            </Position>
            <AltitudeMeters>445.79998779296875</AltitudeMeters>
            <DistanceMeters>48160.048913057</DistanceMeters>
          </Trackpoint>
          <Trackpoint>
            <Time>2022-04-23T12:09:26.000Z</Time>
            <Position>
              <LatitudeDegrees>41.601985506713390350341796875</LatitudeDegrees>
              <LongitudeDegrees>-0.0365630351006984710693359375</LongitudeDegrees>
            </Position>
            <AltitudeMeters>446.79998779296875</AltitudeMeters>
            <DistanceMeters>48191.061125518</DistanceMeters>
          </Trackpoint>
          <Trackpoint>
            <Time>2022-04-23T12:09:28.000Z</Time>
            <Position>
              <LatitudeDegrees>41.601902358233928680419921875</LatitudeDegrees>
              <LongitudeDegrees>-0.03653847612440586090087890625</LongitudeDegrees>
            </Position>
            <AltitudeMeters>446.79998779296875</AltitudeMeters>
            <DistanceMeters>48200.538105011</DistanceMeters>
          </Trackpoint>
          <Trackpoint>
            <Time>2022-04-23T12:09:34.000Z</Time>
            <Position>
              <LatitudeDegrees>41.6016195528209209442138671875</LatitudeDegrees>
              <LongitudeDegrees>-0.0364668108522891998291015625</LongitudeDegrees>
            </Position>
            <AltitudeMeters>447.79998779296875</AltitudeMeters>
            <DistanceMeters>48232.575076134</DistanceMeters>
          </Trackpoint>
          <Trackpoint>
            <Time>2022-04-23T12:09:35.000Z</Time>
            <Position>
              <LatitudeDegrees>41.60157185979187488555908203125</LatitudeDegrees>
              <LongitudeDegrees>-0.03646127879619598388671875</LongitudeDegrees>
            </Position>
            <AltitudeMeters>448</AltitudeMeters>
            <DistanceMeters>48237.903355438</DistanceMeters>
          </Trackpoint>
          <Trackpoint>
            <Time>2022-04-23T12:09:39.000Z</Time>
            <Position>
              <LatitudeDegrees>41.6013949178159236907958984375</LatitudeDegrees>
              <LongitudeDegrees>-0.03643001429736614227294921875</LongitudeDegrees>
            </Position>
            <AltitudeMeters>448.600006103515625</AltitudeMeters>
            <DistanceMeters>48257.768484953</DistanceMeters>
          </Trackpoint>
          <Trackpoint>
            <Time>2022-04-23T12:09:43.000Z</Time>
            <Position>
              <LatitudeDegrees>41.60120339132845401763916015625</LatitudeDegrees>
              <LongitudeDegrees>-0.036370754241943359375</LongitudeDegrees>
            </Position>
            <AltitudeMeters>448.79998779296875</AltitudeMeters>
            <DistanceMeters>48279.648785747</DistanceMeters>
          </Trackpoint>
          <Trackpoint>
            <Time>2022-04-23T12:09:48.000Z</Time>
            <Position>
              <LatitudeDegrees>41.600978337228298187255859375</LatitudeDegrees>
              <LongitudeDegrees>-0.03628483973443508148193359375</LongitudeDegrees>
            </Position>
            <AltitudeMeters>449</AltitudeMeters>
            <DistanceMeters>48305.698241105</DistanceMeters>
          </Trackpoint>
          <Trackpoint>
            <Time>2022-04-23T12:09:50.000Z</Time>
            <Position>
              <LatitudeDegrees>41.600885801017284393310546875</LatitudeDegrees>
              <LongitudeDegrees>-0.03625449724495410919189453125</LongitudeDegrees>
            </Position>
            <AltitudeMeters>449.20001220703125</AltitudeMeters>
            <DistanceMeters>48316.302132461</DistanceMeters>
          </Trackpoint>
          <Trackpoint>
            <Time>2022-04-23T12:09:54.000Z</Time>
            <Position>
              <LatitudeDegrees>41.6006822884082794189453125</LatitudeDegrees>
              <LongitudeDegrees>-0.0361965782940387725830078125</LongitudeDegrees>
            </Position>
            <AltitudeMeters>449.399993896484375</AltitudeMeters>
            <DistanceMeters>48339.460593121</DistanceMeters>
          </Trackpoint>
          <Trackpoint>
            <Time>2022-04-23T12:09:59.000Z</Time>
            <Position>
              <LatitudeDegrees>41.6004460863769054412841796875</LatitudeDegrees>
              <LongitudeDegrees>-0.03615726716816425323486328125</LongitudeDegrees>
            </Position>
            <AltitudeMeters>450</AltitudeMeters>
            <DistanceMeters>48365.953113982</DistanceMeters>
          </Trackpoint>
          <Trackpoint>
            <Time>2022-04-23T12:10:00.000Z</Time>
            <Position>
              <LatitudeDegrees>41.600405685603618621826171875</LatitudeDegrees>
              <LongitudeDegrees>-0.03615307621657848358154296875</LongitudeDegrees>
            </Position>
            <AltitudeMeters>450</AltitudeMeters>
            <DistanceMeters>48370.463630829</DistanceMeters>
          </Trackpoint>
          <Trackpoint>
            <Time>2022-04-23T12:10:01.000Z</Time>
            <Position>
              <LatitudeDegrees>41.6003773547708988189697265625</LatitudeDegrees>
              <LongitudeDegrees>-0.0361476279795169830322265625</LongitudeDegrees>
            </Position>
            <AltitudeMeters>450.20001220703125</AltitudeMeters>
            <DistanceMeters>48373.649506834</DistanceMeters>
          </Trackpoint>
          <Trackpoint>
            <Time>2022-04-23T12:10:06.000Z</Time>
            <Position>
              <LatitudeDegrees>41.60021516494452953338623046875</LatitudeDegrees>
              <LongitudeDegrees>-0.0361325405538082122802734375</LongitudeDegrees>
            </Position>
            <AltitudeMeters>451.20001220703125</AltitudeMeters>
            <DistanceMeters>48391.745048606</DistanceMeters>
          </Trackpoint>
          <Trackpoint>
            <Time>2022-04-23T12:10:07.000Z</Time>
            <Position>
              <LatitudeDegrees>41.60018599592149257659912109375</LatitudeDegrees>
              <LongitudeDegrees>-0.03613212145864963531494140625</LongitudeDegrees>
            </Position>
            <AltitudeMeters>451.20001220703125</AltitudeMeters>
            <DistanceMeters>48394.99268302</DistanceMeters>
          </Trackpoint>
          <Trackpoint>
            <Time>2022-04-23T12:10:14.000Z</Time>
            <Position>
              <LatitudeDegrees>41.59997292794287204742431640625</LatitudeDegrees>
              <LongitudeDegrees>-0.036127679049968719482421875</LongitudeDegrees>
            </Position>
            <AltitudeMeters>452.20001220703125</AltitudeMeters>
            <DistanceMeters>48418.710559024</DistanceMeters>
          </Trackpoint>
          <Trackpoint>
            <Time>2022-04-23T12:10:15.000Z</Time>
            <Position>
              <LatitudeDegrees>41.59994090907275676727294921875</LatitudeDegrees>
              <LongitudeDegrees>-0.03612742759287357330322265625</LongitudeDegrees>
            </Position>
            <AltitudeMeters>452.20001220703125</AltitudeMeters>
            <DistanceMeters>48422.275010953</DistanceMeters>
          </Trackpoint>
          <Trackpoint>
            <Time>2022-04-23T12:10:22.000Z</Time>
            <Position>
              <LatitudeDegrees>41.599716357886791229248046875</LatitudeDegrees>
              <LongitudeDegrees>-0.03613346256315708160400390625</LongitudeDegrees>
            </Position>
            <AltitudeMeters>452.600006103515625</AltitudeMeters>
            <DistanceMeters>48447.273178489</DistanceMeters>
          </Trackpoint>
          <Trackpoint>
            <Time>2022-04-23T12:10:28.000Z</Time>
            <Position>
              <LatitudeDegrees>41.59952558577060699462890625</LatitudeDegrees>
              <LongitudeDegrees>-0.03613832406699657440185546875</LongitudeDegrees>
            </Position>
            <AltitudeMeters>453.20001220703125</AltitudeMeters>
            <DistanceMeters>48468.510320436</DistanceMeters>
          </Trackpoint>
          <Trackpoint>
            <Time>2022-04-23T12:10:30.000Z</Time>
            <Position>
              <LatitudeDegrees>41.59945693798363208770751953125</LatitudeDegrees>
              <LongitudeDegrees>-0.03614134155213832855224609375</LongitudeDegrees>
            </Position>
            <AltitudeMeters>453.20001220703125</AltitudeMeters>
            <DistanceMeters>48476.155690592</DistanceMeters>
          </Trackpoint>
          <Trackpoint>
            <Time>2022-04-23T12:10:39.000Z</Time>
            <Position>
              <LatitudeDegrees>41.59912786446511745452880859375</LatitudeDegrees>
              <LongitudeDegrees>-0.03616682253777980804443359375</LongitudeDegrees>
            </Position>
            <AltitudeMeters>454</AltitudeMeters>
            <DistanceMeters>48512.843510158</DistanceMeters>
          </Trackpoint>
          <Trackpoint>
            <Time>2022-04-23T12:10:40.000Z</Time>
            <Position>
              <LatitudeDegrees>41.59908897243440151214599609375</LatitudeDegrees>
              <LongitudeDegrees>-0.03617227077484130859375</LongitudeDegrees>
            </Position>
            <AltitudeMeters>454.20001220703125</AltitudeMeters>
            <DistanceMeters>48517.196107128</DistanceMeters>
          </Trackpoint>
          <Trackpoint>
            <Time>2022-04-23T12:10:44.000Z</Time>
            <Position>
              <LatitudeDegrees>41.598945222795009613037109375</LatitudeDegrees>
              <LongitudeDegrees>-0.0361952371895313262939453125</LongitudeDegrees>
            </Position>
            <AltitudeMeters>455</AltitudeMeters>
            <DistanceMeters>48533.309791314</DistanceMeters>
          </Trackpoint>
          <Trackpoint>
            <Time>2022-04-23T12:10:47.000Z</Time>
            <Position>
              <LatitudeDegrees>41.5988263674080371856689453125</LatitudeDegrees>
              <LongitudeDegrees>-0.0362166948616504669189453125</LongitudeDegrees>
            </Position>
            <AltitudeMeters>455.399993896484375</AltitudeMeters>
            <DistanceMeters>48546.658592701</DistanceMeters>
          </Trackpoint>
          <Trackpoint>
            <Time>2022-04-23T12:10:48.000Z</Time>
            <Position>
              <LatitudeDegrees>41.59877716563642024993896484375</LatitudeDegrees>
              <LongitudeDegrees>-0.03622381947934627532958984375</LongitudeDegrees>
            </Position>
            <AltitudeMeters>455.399993896484375</AltitudeMeters>
            <DistanceMeters>48552.166864377</DistanceMeters>
          </Trackpoint>
          <Trackpoint>
            <Time>2022-04-23T12:10:57.000Z</Time>
            <Position>
              <LatitudeDegrees>41.59841808490455150604248046875</LatitudeDegrees>
              <LongitudeDegrees>-0.0362612865865230560302734375</LongitudeDegrees>
            </Position>
            <AltitudeMeters>456</AltitudeMeters>
            <DistanceMeters>48592.254737286</DistanceMeters>
          </Trackpoint>
          <Trackpoint>
            <Time>2022-04-23T12:11:00.000Z</Time>
            <Position>
              <LatitudeDegrees>41.598294787108898162841796875</LatitudeDegrees>
              <LongitudeDegrees>-0.03627461381256580352783203125</LongitudeDegrees>
            </Position>
            <AltitudeMeters>456.399993896484375</AltitudeMeters>
            <DistanceMeters>48606.02312117</DistanceMeters>
          </Trackpoint>
          <Trackpoint>
            <Time>2022-04-23T12:11:06.000Z</Time>
            <Position>
              <LatitudeDegrees>41.59801307134330272674560546875</LatitudeDegrees>
              <LongitudeDegrees>-0.0362817384302616119384765625</LongitudeDegrees>
            </Position>
            <AltitudeMeters>457</AltitudeMeters>
            <DistanceMeters>48637.384240506</DistanceMeters>
          </Trackpoint>
          <Trackpoint>
            <Time>2022-04-23T12:11:13.000Z</Time>
            <Position>
              <LatitudeDegrees>41.59770478494465351104736328125</LatitudeDegrees>
              <LongitudeDegrees>-0.036253742873668670654296875</LongitudeDegrees>
            </Position>
            <AltitudeMeters>457.20001220703125</AltitudeMeters>
            <DistanceMeters>48671.776035064</DistanceMeters>
          </Trackpoint>
          <Trackpoint>
            <Time>2022-04-23T12:11:15.000Z</Time>
            <Position>
              <LatitudeDegrees>41.5976143442094326019287109375</LatitudeDegrees>
              <LongitudeDegrees>-0.03624678589403629302978515625</LongitudeDegrees>
            </Position>
            <AltitudeMeters>457.399993896484375</AltitudeMeters>
            <DistanceMeters>48681.858723228</DistanceMeters>
          </Trackpoint>
          <Trackpoint>
            <Time>2022-04-23T12:11:22.000Z</Time>
            <Position>
              <LatitudeDegrees>41.5972834266722202301025390625</LatitudeDegrees>
              <LongitudeDegrees>-0.03624611534178256988525390625</LongitudeDegrees>
            </Position>
            <AltitudeMeters>458.399993896484375</AltitudeMeters>
            <DistanceMeters>48718.690616801</DistanceMeters>
          </Trackpoint>
          <Trackpoint>
            <Time>2022-04-23T12:11:23.000Z</Time>
            <Position>
              <LatitudeDegrees>41.59724663011729717254638671875</LatitudeDegrees>
              <LongitudeDegrees>-0.03625399433076381683349609375</LongitudeDegrees>
            </Position>
            <AltitudeMeters>458.600006103515625</AltitudeMeters>
            <DistanceMeters>48722.839270281</DistanceMeters>
          </Trackpoint>
          <Trackpoint>
            <Time>2022-04-23T12:11:24.000Z</Time>
            <Position>
              <LatitudeDegrees>41.5972009487450122833251953125</LatitudeDegrees>
              <LongitudeDegrees>-0.03626103512942790985107421875</LongitudeDegrees>
            </Position>
            <AltitudeMeters>458.600006103515625</AltitudeMeters>
            <DistanceMeters>48727.957497686</DistanceMeters>
          </Trackpoint>
          <Trackpoint>
            <Time>2022-04-23T12:11:27.000Z</Time>
            <Position>
              <LatitudeDegrees>41.59706055186688899993896484375</LatitudeDegrees>
              <LongitudeDegrees>-0.0362649746239185333251953125</LongitudeDegrees>
            </Position>
            <AltitudeMeters>459</AltitudeMeters>
            <DistanceMeters>48743.587586877</DistanceMeters>
          </Trackpoint>
          <Trackpoint>
            <Time>2022-04-23T12:11:28.000Z</Time>
            <Position>
              <LatitudeDegrees>41.59702585078775882720947265625</LatitudeDegrees>
              <LongitudeDegrees>-0.0362619571387767791748046875</LongitudeDegrees>
            </Position>
            <AltitudeMeters>459</AltitudeMeters>
            <DistanceMeters>48747.456936531</DistanceMeters>
          </Trackpoint>
          <Trackpoint>
            <Time>2022-04-23T12:11:32.000Z</Time>
            <Position>
              <LatitudeDegrees>41.59684580750763416290283203125</LatitudeDegrees>
              <LongitudeDegrees>-0.0362639687955379486083984375</LongitudeDegrees>
            </Position>
            <AltitudeMeters>459.399993896484375</AltitudeMeters>
            <DistanceMeters>48767.496986924</DistanceMeters>
          </Trackpoint>
          <Trackpoint>
            <Time>2022-04-23T12:11:36.000Z</Time>
            <Position>
              <LatitudeDegrees>41.59666509367525577545166015625</LatitudeDegrees>
              <LongitudeDegrees>-0.0362579338252544403076171875</LongitudeDegrees>
            </Position>
            <AltitudeMeters>459.600006103515625</AltitudeMeters>
            <DistanceMeters>48787.617084513</DistanceMeters>
          </Trackpoint>
          <Trackpoint>
            <Time>2022-04-23T12:11:42.000Z</Time>
            <Position>
              <LatitudeDegrees>41.5964148938655853271484375</LatitudeDegrees>
              <LongitudeDegrees>-0.0362565927207469940185546875</LongitudeDegrees>
            </Position>
            <AltitudeMeters>460.600006103515625</AltitudeMeters>
            <DistanceMeters>48815.465100512</DistanceMeters>
          </Trackpoint>
          <Trackpoint>
            <Time>2022-04-23T12:11:44.000Z</Time>
            <Position>
              <LatitudeDegrees>41.59631757996976375579833984375</LatitudeDegrees>
              <LongitudeDegrees>-0.03625902347266674041748046875</LongitudeDegrees>
            </Position>
            <AltitudeMeters>460.79998779296875</AltitudeMeters>
            <DistanceMeters>48826.29814595</DistanceMeters>
          </Trackpoint>
          <Trackpoint>
            <Time>2022-04-23T12:11:45.000Z</Time>
            <Position>
              <LatitudeDegrees>41.59627332352101802825927734375</LatitudeDegrees>
              <LongitudeDegrees>-0.0362656451761722564697265625</LongitudeDegrees>
            </Position>
            <AltitudeMeters>460.79998779296875</AltitudeMeters>
            <DistanceMeters>48831.255043972</DistanceMeters>
          </Trackpoint>
          <Trackpoint>
            <Time>2022-04-23T12:11:46.000Z</Time>
            <Position>
              <LatitudeDegrees>41.5962373651564121246337890625</LatitudeDegrees>
              <LongitudeDegrees>-0.03626941703259944915771484375</LongitudeDegrees>
            </Position>
            <AltitudeMeters>461</AltitudeMeters>
            <DistanceMeters>48835.269852368</DistanceMeters>
          </Trackpoint>
          <Trackpoint>
            <Time>2022-04-23T12:11:52.000Z</Time>
            <Position>
              <LatitudeDegrees>41.59595950506627559661865234375</LatitudeDegrees>
              <LongitudeDegrees>-0.03626472316682338714599609375</LongitudeDegrees>
            </Position>
            <AltitudeMeters>461</AltitudeMeters>
            <DistanceMeters>48866.198675786</DistanceMeters>
          </Trackpoint>
          <Trackpoint>
            <Time>2022-04-23T12:12:01.000Z</Time>
            <Position>
              <LatitudeDegrees>41.59551627002656459808349609375</LatitudeDegrees>
              <LongitudeDegrees>-0.036276541650295257568359375</LongitudeDegrees>
            </Position>
            <AltitudeMeters>461.600006103515625</AltitudeMeters>
            <DistanceMeters>48915.541428759</DistanceMeters>
          </Trackpoint>
          <Trackpoint>
            <Time>2022-04-23T12:12:06.000Z</Time>
            <Position>
              <LatitudeDegrees>41.595267914235591888427734375</LatitudeDegrees>
              <LongitudeDegrees>-0.03627025522291660308837890625</LongitudeDegrees>
            </Position>
            <AltitudeMeters>461.600006103515625</AltitudeMeters>
            <DistanceMeters>48943.188814003</DistanceMeters>
          </Trackpoint>
          <Trackpoint>
            <Time>2022-04-23T12:12:08.000Z</Time>
            <Position>
              <LatitudeDegrees>41.5951691754162311553955078125</LatitudeDegrees>
              <LongitudeDegrees>-0.03627344034612178802490234375</LongitudeDegrees>
            </Position>
            <AltitudeMeters>461.79998779296875</AltitudeMeters>
            <DistanceMeters>48954.182382265</DistanceMeters>
          </Trackpoint>
          <Trackpoint>
            <Time>2022-04-23T12:12:14.000Z</Time>
            <Position>
              <LatitudeDegrees>41.59487455151975154876708984375</LatitudeDegrees>
              <LongitudeDegrees>-0.0362069718539714813232421875</LongitudeDegrees>
            </Position>
            <AltitudeMeters>462</AltitudeMeters>
            <DistanceMeters>48987.438202543</DistanceMeters>
          </Trackpoint>
          <Trackpoint>
            <Time>2022-04-23T12:12:18.000Z</Time>
            <Position>
              <LatitudeDegrees>41.594674475491046905517578125</LatitudeDegrees>
              <LongitudeDegrees>-0.0361754558980464935302734375</LongitudeDegrees>
            </Position>
            <AltitudeMeters>462.20001220703125</AltitudeMeters>
            <DistanceMeters>49009.861285659</DistanceMeters>
          </Trackpoint>
          <Trackpoint>
            <Time>2022-04-23T12:12:22.000Z</Time>
            <Position>
              <LatitudeDegrees>41.59445445053279399871826171875</LatitudeDegrees>
              <LongitudeDegrees>-0.036172606050968170166015625</LongitudeDegrees>
            </Position>
            <AltitudeMeters>462.20001220703125</AltitudeMeters>
            <DistanceMeters>49034.351644525</DistanceMeters>
          </Trackpoint>
          <Trackpoint>
            <Time>2022-04-23T12:12:27.000Z</Time>
            <Position>
              <LatitudeDegrees>41.5941626764833927154541015625</LatitudeDegrees>
              <LongitudeDegrees>-0.03615282475948333740234375</LongitudeDegrees>
            </Position>
            <AltitudeMeters>461.600006103515625</AltitudeMeters>
            <DistanceMeters>49066.868281049</DistanceMeters>
          </Trackpoint>
          <Trackpoint>
            <Time>2022-04-23T12:12:30.000Z</Time>
            <Position>
              <LatitudeDegrees>41.59395958296954631805419921875</LatitudeDegrees>
              <LongitudeDegrees>-0.036148130893707275390625</LongitudeDegrees>
            </Position>
            <AltitudeMeters>461.20001220703125</AltitudeMeters>
            <DistanceMeters>49089.476252804</DistanceMeters>
          </Trackpoint>
          <Trackpoint>
            <Time>2022-04-23T12:12:34.000Z</Time>
            <Position>
              <LatitudeDegrees>41.59370829351246356964111328125</LatitudeDegrees>
              <LongitudeDegrees>-0.036176629364490509033203125</LongitudeDegrees>
            </Position>
            <AltitudeMeters>460.399993896484375</AltitudeMeters>
            <DistanceMeters>49117.545670858</DistanceMeters>
          </Trackpoint>
          <Trackpoint>
            <Time>2022-04-23T12:12:36.000Z</Time>
            <Position>
              <LatitudeDegrees>41.593592874705791473388671875</LatitudeDegrees>
              <LongitudeDegrees>-0.03621024079620838165283203125</LongitudeDegrees>
            </Position>
            <AltitudeMeters>459.79998779296875</AltitudeMeters>
            <DistanceMeters>49130.693398927</DistanceMeters>
          </Trackpoint>
          <Trackpoint>
            <Time>2022-04-23T12:12:39.000Z</Time>
            <Position>
              <LatitudeDegrees>41.59338223747909069061279296875</LatitudeDegrees>
              <LongitudeDegrees>-0.036260783672332763671875</LongitudeDegrees>
            </Position>
            <AltitudeMeters>459</AltitudeMeters>
            <DistanceMeters>49154.512143914</DistanceMeters>
          </Trackpoint>
          <Trackpoint>
            <Time>2022-04-23T12:12:42.000Z</Time>
            <Position>
              <LatitudeDegrees>41.59319397993385791778564453125</LatitudeDegrees>
              <LongitudeDegrees>-0.03626338206231594085693359375</LongitudeDegrees>
            </Position>
            <AltitudeMeters>458.600006103515625</AltitudeMeters>
            <DistanceMeters>49175.466342467</DistanceMeters>
          </Trackpoint>
          <Trackpoint>
            <Time>2022-04-23T12:12:50.000Z</Time>
            <Position>
              <LatitudeDegrees>41.59267564304172992706298828125</LatitudeDegrees>
              <LongitudeDegrees>-0.036265812814235687255859375</LongitudeDegrees>
            </Position>
            <AltitudeMeters>458.399993896484375</AltitudeMeters>
            <DistanceMeters>49233.158593909</DistanceMeters>
          </Trackpoint>
          <Trackpoint>
            <Time>2022-04-23T12:12:57.000Z</Time>
            <Position>
              <LatitudeDegrees>41.59222318790853023529052734375</LatitudeDegrees>
              <LongitudeDegrees>-0.0362109951674938201904296875</LongitudeDegrees>
            </Position>
            <AltitudeMeters>458.600006103515625</AltitudeMeters>
            <DistanceMeters>49283.724057866</DistanceMeters>
          </Trackpoint>
          <Trackpoint>
            <Time>2022-04-23T12:13:05.000Z</Time>
            <Position>
              <LatitudeDegrees>41.5917188487946987152099609375</LatitudeDegrees>
              <LongitudeDegrees>-0.03617763519287109375</LongitudeDegrees>
            </Position>
            <AltitudeMeters>458.399993896484375</AltitudeMeters>
            <DistanceMeters>49339.926635833</DistanceMeters>
          </Trackpoint>
          <Trackpoint>
            <Time>2022-04-23T12:13:07.000Z</Time>
            <Position>
              <LatitudeDegrees>41.59156906418502330780029296875</LatitudeDegrees>
              <LongitudeDegrees>-0.03616061992943286895751953125</LongitudeDegrees>
            </Position>
            <AltitudeMeters>457.79998779296875</AltitudeMeters>
            <DistanceMeters>49356.658085257</DistanceMeters>
          </Trackpoint>
          <Trackpoint>
            <Time>2022-04-23T12:13:13.000Z</Time>
            <Position>
              <LatitudeDegrees>41.59117159433662891387939453125</LatitudeDegrees>
              <LongitudeDegrees>-0.0361335463821887969970703125</LongitudeDegrees>
            </Position>
            <AltitudeMeters>457</AltitudeMeters>
            <DistanceMeters>49400.954704326</DistanceMeters>
          </Trackpoint>
          <Trackpoint>
            <Time>2022-04-23T12:13:14.000Z</Time>
            <Position>
              <LatitudeDegrees>41.5911009348928928375244140625</LatitudeDegrees>
              <LongitudeDegrees>-0.0361301936209201812744140625</LongitudeDegrees>
            </Position>
            <AltitudeMeters>456.79998779296875</AltitudeMeters>
            <DistanceMeters>49408.824155657</DistanceMeters>
          </Trackpoint>
          <Trackpoint>
            <Time>2022-04-23T12:13:20.000Z</Time>
            <Position>
              <LatitudeDegrees>41.5906620584428310394287109375</LatitudeDegrees>
              <LongitudeDegrees>-0.03611099906265735626220703125</LongitudeDegrees>
            </Position>
            <AltitudeMeters>456.20001220703125</AltitudeMeters>
            <DistanceMeters>49457.698012484</DistanceMeters>
          </Trackpoint>
          <Trackpoint>
            <Time>2022-04-23T12:13:21.000Z</Time>
            <Position>
              <LatitudeDegrees>41.5905862860381603240966796875</LatitudeDegrees>
              <LongitudeDegrees>-0.0361231528222560882568359375</LongitudeDegrees>
            </Position>
            <AltitudeMeters>456</AltitudeMeters>
            <DistanceMeters>49466.192146388</DistanceMeters>
          </Trackpoint>
          <Trackpoint>
            <Time>2022-04-23T12:13:23.000Z</Time>
            <Position>
              <LatitudeDegrees>41.5904106013476848602294921875</LatitudeDegrees>
              <LongitudeDegrees>-0.03617604263126850128173828125</LongitudeDegrees>
            </Position>
            <AltitudeMeters>455.79998779296875</AltitudeMeters>
            <DistanceMeters>49486.235801269</DistanceMeters>
          </Trackpoint>
          <Trackpoint>
            <Time>2022-04-23T12:13:25.000Z</Time>
            <Position>
              <LatitudeDegrees>41.59025612287223339080810546875</LatitudeDegrees>
              <LongitudeDegrees>-0.0362569279968738555908203125</LongitudeDegrees>
            </Position>
            <AltitudeMeters>455.399993896484375</AltitudeMeters>
            <DistanceMeters>49504.700839216</DistanceMeters>
          </Trackpoint>
          <Trackpoint>
            <Time>2022-04-23T12:13:28.000Z</Time>
            <Position>
              <LatitudeDegrees>41.59002654254436492919921875</LatitudeDegrees>
              <LongitudeDegrees>-0.0363814830780029296875</LongitudeDegrees>
            </Position>
            <AltitudeMeters>455.20001220703125</AltitudeMeters>
            <DistanceMeters>49532.276930264</DistanceMeters>
          </Trackpoint>
          <Trackpoint>
            <Time>2022-04-23T12:13:29.000Z</Time>
            <Position>
              <LatitudeDegrees>41.58995009958744049072265625</LatitudeDegrees>
              <LongitudeDegrees>-0.03640771843492984771728515625</LongitudeDegrees>
            </Position>
            <AltitudeMeters>454.600006103515625</AltitudeMeters>
            <DistanceMeters>49541.06060678</DistanceMeters>
          </Trackpoint>
          <Trackpoint>
            <Time>2022-04-23T12:13:30.000Z</Time>
            <Position>
              <LatitudeDegrees>41.58988631330430507659912109375</LatitudeDegrees>
              <LongitudeDegrees>-0.036428086459636688232421875</LongitudeDegrees>
            </Position>
            <AltitudeMeters>454.20001220703125</AltitudeMeters>
            <DistanceMeters>49548.35974721</DistanceMeters>
          </Trackpoint>
          <Trackpoint>
            <Time>2022-04-23T12:13:32.000Z</Time>
            <Position>
              <LatitudeDegrees>41.58970677293837070465087890625</LatitudeDegrees>
              <LongitudeDegrees>-0.036473013460636138916015625</LongitudeDegrees>
            </Position>
            <AltitudeMeters>453.600006103515625</AltitudeMeters>
            <DistanceMeters>49568.690134786</DistanceMeters>
          </Trackpoint>
          <Trackpoint>
            <Time>2022-04-23T12:13:34.000Z</Time>
            <Position>
              <LatitudeDegrees>41.589544750750064849853515625</LatitudeDegrees>
              <LongitudeDegrees>-0.0365285016596317291259765625</LongitudeDegrees>
            </Position>
            <AltitudeMeters>452.399993896484375</AltitudeMeters>
            <DistanceMeters>49587.305671674</DistanceMeters>
          </Trackpoint>
          <Trackpoint>
            <Time>2022-04-23T12:13:36.000Z</Time>
            <Position>
              <LatitudeDegrees>41.58940016292035579681396484375</LatitudeDegrees>
              <LongitudeDegrees>-0.0365928746759891510009765625</LongitudeDegrees>
            </Position>
            <AltitudeMeters>452</AltitudeMeters>
            <DistanceMeters>49604.267075078</DistanceMeters>
          </Trackpoint>
          <Trackpoint>
            <Time>2022-04-23T12:13:39.000Z</Time>
            <Position>
              <LatitudeDegrees>41.5891650505363941192626953125</LatitudeDegrees>
              <LongitudeDegrees>-0.03673075698316097259521484375</LongitudeDegrees>
            </Position>
            <AltitudeMeters>451.399993896484375</AltitudeMeters>
            <DistanceMeters>49632.842162696</DistanceMeters>
          </Trackpoint>
          <Trackpoint>
            <Time>2022-04-23T12:13:44.000Z</Time>
            <Position>
              <LatitudeDegrees>41.58878040499985218048095703125</LatitudeDegrees>
              <LongitudeDegrees>-0.036971904337406158447265625</LongitudeDegrees>
            </Position>
            <AltitudeMeters>450.399993896484375</AltitudeMeters>
            <DistanceMeters>49680.126810283</DistanceMeters>
          </Trackpoint>
          <Trackpoint>
            <Time>2022-04-23T12:13:48.000Z</Time>
            <Position>
              <LatitudeDegrees>41.58851419575512409210205078125</LatitudeDegrees>
              <LongitudeDegrees>-0.03714867867529392242431640625</LongitudeDegrees>
            </Position>
            <AltitudeMeters>448.79998779296875</AltitudeMeters>
            <DistanceMeters>49713.209484376</DistanceMeters>
          </Trackpoint>
          <Trackpoint>
            <Time>2022-04-23T12:13:50.000Z</Time>
            <Position>
              <LatitudeDegrees>41.58837522380053997039794921875</LatitudeDegrees>
              <LongitudeDegrees>-0.03721766173839569091796875</LongitudeDegrees>
            </Position>
            <AltitudeMeters>448.20001220703125</AltitudeMeters>
            <DistanceMeters>49729.708869654</DistanceMeters>
          </Trackpoint>
          <Trackpoint>
            <Time>2022-04-23T12:13:51.000Z</Time>
            <Position>
              <LatitudeDegrees>41.58830531872808933258056640625</LatitudeDegrees>
              <LongitudeDegrees>-0.037235431373119354248046875</LongitudeDegrees>
            </Position>
            <AltitudeMeters>448</AltitudeMeters>
            <DistanceMeters>49737.628649385</DistanceMeters>
          </Trackpoint>
          <Trackpoint>
            <Time>2022-04-23T12:13:52.000Z</Time>
            <Position>
              <LatitudeDegrees>41.58823390491306781768798828125</LatitudeDegrees>
              <LongitudeDegrees>-0.03723316825926303863525390625</LongitudeDegrees>
            </Position>
            <AltitudeMeters>447.600006103515625</AltitudeMeters>
            <DistanceMeters>49745.579154722</DistanceMeters>
          </Trackpoint>
          <Trackpoint>
            <Time>2022-04-23T12:13:54.000Z</Time>
            <Position>
              <LatitudeDegrees>41.5880812704563140869140625</LatitudeDegrees>
              <LongitudeDegrees>-0.0371883250772953033447265625</LongitudeDegrees>
            </Position>
            <AltitudeMeters>447.399993896484375</AltitudeMeters>
            <DistanceMeters>49762.972937553</DistanceMeters>
          </Trackpoint>
          <Trackpoint>
            <Time>2022-04-23T12:13:55.000Z</Time>
            <Position>
              <LatitudeDegrees>41.58798663876950740814208984375</LatitudeDegrees>
              <LongitudeDegrees>-0.03714851103723049163818359375</LongitudeDegrees>
            </Position>
            <AltitudeMeters>447.20001220703125</AltitudeMeters>
            <DistanceMeters>49774.014861848</DistanceMeters>
          </Trackpoint>
          <Trackpoint>
            <Time>2022-04-23T12:13:58.000Z</Time>
            <Position>
              <LatitudeDegrees>41.5877592377364635467529296875</LatitudeDegrees>
              <LongitudeDegrees>-0.03702320158481597900390625</LongitudeDegrees>
            </Position>
            <AltitudeMeters>446.600006103515625</AltitudeMeters>
            <DistanceMeters>49801.390473334</DistanceMeters>
          </Trackpoint>
          <Trackpoint>
            <Time>2022-04-23T12:14:00.000Z</Time>
            <Position>
              <LatitudeDegrees>41.58757139928638935089111328125</LatitudeDegrees>
              <LongitudeDegrees>-0.0370109640061855316162109375</LongitudeDegrees>
            </Position>
            <AltitudeMeters>446.399993896484375</AltitudeMeters>
            <DistanceMeters>49822.322250828</DistanceMeters>
          </Trackpoint>
          <Trackpoint>
            <Time>2022-04-23T12:14:01.000Z</Time>
            <Position>
              <LatitudeDegrees>41.58750266768038272857666015625</LatitudeDegrees>
              <LongitudeDegrees>-0.037041641771793365478515625</LongitudeDegrees>
            </Position>
            <AltitudeMeters>445.600006103515625</AltitudeMeters>
            <DistanceMeters>49830.387774413</DistanceMeters>
          </Trackpoint>
          <Trackpoint>
            <Time>2022-04-23T12:14:02.000Z</Time>
            <Position>
              <LatitudeDegrees>41.58742203377187252044677734375</LatitudeDegrees>
              <LongitudeDegrees>-0.0370927713811397552490234375</LongitudeDegrees>
            </Position>
            <AltitudeMeters>445</AltitudeMeters>
            <DistanceMeters>49840.320680092</DistanceMeters>
          </Trackpoint>
          <Trackpoint>
            <Time>2022-04-23T12:14:03.000Z</Time>
            <Position>
              <LatitudeDegrees>41.58734810538589954376220703125</LatitudeDegrees>
              <LongitudeDegrees>-0.0371504388749599456787109375</LongitudeDegrees>
            </Position>
            <AltitudeMeters>444</AltitudeMeters>
            <DistanceMeters>49849.847078586</DistanceMeters>
          </Trackpoint>
          <Trackpoint>
            <Time>2022-04-23T12:14:05.000Z</Time>
            <Position>
              <LatitudeDegrees>41.58719488419592380523681640625</LatitudeDegrees>
              <LongitudeDegrees>-0.03725915215909481048583984375</LongitudeDegrees>
            </Position>
            <AltitudeMeters>442.79998779296875</AltitudeMeters>
            <DistanceMeters>49869.153176983</DistanceMeters>
          </Trackpoint>
          <Trackpoint>
            <Time>2022-04-23T12:14:06.000Z</Time>
            <Position>
              <LatitudeDegrees>41.58709396608173847198486328125</LatitudeDegrees>
              <LongitudeDegrees>-0.03731153905391693115234375</LongitudeDegrees>
            </Position>
            <AltitudeMeters>442.399993896484375</AltitudeMeters>
            <DistanceMeters>49881.202474434</DistanceMeters>
          </Trackpoint>
          <Trackpoint>
            <Time>2022-04-23T12:14:09.000Z</Time>
            <Position>
              <LatitudeDegrees>41.58682356588542461395263671875</LatitudeDegrees>
              <LongitudeDegrees>-0.0374246947467327117919921875</LongitudeDegrees>
            </Position>
            <AltitudeMeters>441.79998779296875</AltitudeMeters>
            <DistanceMeters>49912.738460848</DistanceMeters>
          </Trackpoint>
          <Trackpoint>
            <Time>2022-04-23T12:14:10.000Z</Time>
            <Position>
              <LatitudeDegrees>41.58674092032015323638916015625</LatitudeDegrees>
              <LongitudeDegrees>-0.03747523762285709381103515625</LongitudeDegrees>
            </Position>
            <AltitudeMeters>441.20001220703125</AltitudeMeters>
            <DistanceMeters>49922.853785666</DistanceMeters>
          </Trackpoint>
          <Trackpoint>
            <Time>2022-04-23T12:14:12.000Z</Time>
            <Position>
              <LatitudeDegrees>41.58659960143268108367919921875</LatitudeDegrees>
              <LongitudeDegrees>-0.03757707774639129638671875</LongitudeDegrees>
            </Position>
            <AltitudeMeters>440.399993896484375</AltitudeMeters>
            <DistanceMeters>49940.722345846</DistanceMeters>
          </Trackpoint>
          <Trackpoint>
            <Time>2022-04-23T12:14:16.000Z</Time>
            <Position>
              <LatitudeDegrees>41.58629986457526683807373046875</LatitudeDegrees>
              <LongitudeDegrees>-0.03781369887292385101318359375</LongitudeDegrees>
            </Position>
            <AltitudeMeters>439.600006103515625</AltitudeMeters>
            <DistanceMeters>49979.465169656</DistanceMeters>
          </Trackpoint>
          <Trackpoint>
            <Time>2022-04-23T12:14:17.000Z</Time>
            <Position>
              <LatitudeDegrees>41.58624957315623760223388671875</LatitudeDegrees>
              <LongitudeDegrees>-0.03786063753068447113037109375</LongitudeDegrees>
            </Position>
            <AltitudeMeters>439.600006103515625</AltitudeMeters>
            <DistanceMeters>49986.291236931</DistanceMeters>
          </Trackpoint>
          <Trackpoint>
            <Time>2022-04-23T12:14:18.000Z</Time>
            <Position>
              <LatitudeDegrees>41.5861784107983112335205078125</LatitudeDegrees>
              <LongitudeDegrees>-0.03793758340179920196533203125</LongitudeDegrees>
            </Position>
            <AltitudeMeters>439.600006103515625</AltitudeMeters>
            <DistanceMeters>49996.477285152</DistanceMeters>
          </Trackpoint>
          <Trackpoint>
            <Time>2022-04-23T12:14:21.000Z</Time>
            <Position>
              <LatitudeDegrees>41.586026363074779510498046875</LatitudeDegrees>
              <LongitudeDegrees>-0.038120560348033905029296875</LongitudeDegrees>
            </Position>
            <AltitudeMeters>439.79998779296875</AltitudeMeters>
            <DistanceMeters>50019.246447385</DistanceMeters>
          </Trackpoint>
          <Trackpoint>
            <Time>2022-04-23T12:14:26.000Z</Time>
            <Position>
              <LatitudeDegrees>41.58571514301002025604248046875</LatitudeDegrees>
              <LongitudeDegrees>-0.0384077243506908416748046875</LongitudeDegrees>
            </Position>
            <AltitudeMeters>440.600006103515625</AltitudeMeters>
            <DistanceMeters>50061.334378858</DistanceMeters>
          </Trackpoint>
          <Trackpoint>
            <Time>2022-04-23T12:14:28.000Z</Time>
            <Position>
              <LatitudeDegrees>41.58556737005710601806640625</LatitudeDegrees>
              <LongitudeDegrees>-0.0385391525924205780029296875</LongitudeDegrees>
            </Position>
            <AltitudeMeters>440.600006103515625</AltitudeMeters>
            <DistanceMeters>50081.088739226</DistanceMeters>
          </Trackpoint>
          <Trackpoint>
            <Time>2022-04-23T12:14:33.000Z</Time>
            <Position>
              <LatitudeDegrees>41.58524282276630401611328125</LatitudeDegrees>
              <LongitudeDegrees>-0.03885791637003421783447265625</LongitudeDegrees>
            </Position>
            <AltitudeMeters>440.399993896484375</AltitudeMeters>
            <DistanceMeters>50125.911541992</DistanceMeters>
          </Trackpoint>
          <Trackpoint>
            <Time>2022-04-23T12:14:35.000Z</Time>
            <Position>
              <LatitudeDegrees>41.58513092435896396636962890625</LatitudeDegrees>
              <LongitudeDegrees>-0.03898951224982738494873046875</LongitudeDegrees>
            </Position>
            <AltitudeMeters>439.79998779296875</AltitudeMeters>
            <DistanceMeters>50142.499080364</DistanceMeters>
          </Trackpoint>
          <Trackpoint>
            <Time>2022-04-23T12:14:37.000Z</Time>
            <Position>
              <LatitudeDegrees>41.584997735917568206787109375</LatitudeDegrees>
              <LongitudeDegrees>-0.03911959938704967498779296875</LongitudeDegrees>
            </Position>
            <AltitudeMeters>439.399993896484375</AltitudeMeters>
            <DistanceMeters>50160.857444756</DistanceMeters>
          </Trackpoint>
          <Trackpoint>
            <Time>2022-04-23T12:14:40.000Z</Time>
            <Position>
              <LatitudeDegrees>41.5848044492304325103759765625</LatitudeDegrees>
              <LongitudeDegrees>-0.0393223576247692108154296875</LongitudeDegrees>
            </Position>
            <AltitudeMeters>438.20001220703125</AltitudeMeters>
            <DistanceMeters>50188.202197085</DistanceMeters>
          </Trackpoint>
          <Trackpoint>
            <Time>2022-04-23T12:14:41.000Z</Time>
            <Position>
              <LatitudeDegrees>41.58472674898803234100341796875</LatitudeDegrees>
              <LongitudeDegrees>-0.0394056737422943115234375</LongitudeDegrees>
            </Position>
            <AltitudeMeters>437.79998779296875</AltitudeMeters>
            <DistanceMeters>50199.288194577</DistanceMeters>
          </Trackpoint>
          <Trackpoint>
            <Time>2022-04-23T12:14:44.000Z</Time>
            <Position>
              <LatitudeDegrees>41.58454469405114650726318359375</LatitudeDegrees>
              <LongitudeDegrees>-0.0396016426384449005126953125</LongitudeDegrees>
            </Position>
            <AltitudeMeters>437</AltitudeMeters>
            <DistanceMeters>50225.302961714</DistanceMeters>
          </Trackpoint>
          <Trackpoint>
            <Time>2022-04-23T12:14:49.000Z</Time>
            <Position>
              <LatitudeDegrees>41.5842083282768726348876953125</LatitudeDegrees>
              <LongitudeDegrees>-0.0399796664714813232421875</LongitudeDegrees>
            </Position>
            <AltitudeMeters>436.20001220703125</AltitudeMeters>
            <DistanceMeters>50274.211541634</DistanceMeters>
          </Trackpoint>
          <Trackpoint>
            <Time>2022-04-23T12:14:51.000Z</Time>
            <Position>
              <LatitudeDegrees>41.584063656628131866455078125</LatitudeDegrees>
              <LongitudeDegrees>-0.0401164591312408447265625</LongitudeDegrees>
            </Position>
            <AltitudeMeters>435.79998779296875</AltitudeMeters>
            <DistanceMeters>50293.933648843</DistanceMeters>
          </Trackpoint>
          <Trackpoint>
            <Time>2022-04-23T12:14:52.000Z</Time>
            <Position>
              <LatitudeDegrees>41.5839736349880695343017578125</LatitudeDegrees>
              <LongitudeDegrees>-0.0401866994798183441162109375</LongitudeDegrees>
            </Position>
            <AltitudeMeters>435.79998779296875</AltitudeMeters>
            <DistanceMeters>50305.534694456</DistanceMeters>
          </Trackpoint>
          <Trackpoint>
            <Time>2022-04-23T12:14:54.000Z</Time>
            <Position>
              <LatitudeDegrees>41.58383826725184917449951171875</LatitudeDegrees>
              <LongitudeDegrees>-0.04027378745377063751220703125</LongitudeDegrees>
            </Position>
            <AltitudeMeters>436</AltitudeMeters>
            <DistanceMeters>50322.255076231</DistanceMeters>
          </Trackpoint>
          <Trackpoint>
            <Time>2022-04-23T12:15:01.000Z</Time>
            <Position>
              <LatitudeDegrees>41.58328288234770298004150390625</LatitudeDegrees>
              <LongitudeDegrees>-0.04061526618897914886474609375</LongitudeDegrees>
            </Position>
            <AltitudeMeters>435.600006103515625</AltitudeMeters>
            <DistanceMeters>50390.294469158</DistanceMeters>
          </Trackpoint>
          <Trackpoint>
            <Time>2022-04-23T12:15:05.000Z</Time>
            <Position>
              <LatitudeDegrees>41.58298046328127384185791015625</LatitudeDegrees>
              <LongitudeDegrees>-0.04076949320733547210693359375</LongitudeDegrees>
            </Position>
            <AltitudeMeters>434.399993896484375</AltitudeMeters>
            <DistanceMeters>50426.320248358</DistanceMeters>
          </Trackpoint>
          <Trackpoint>
            <Time>2022-04-23T12:15:07.000Z</Time>
            <Position>
              <LatitudeDegrees>41.5828266553580760955810546875</LatitudeDegrees>
              <LongitudeDegrees>-0.04083805717527866363525390625</LongitudeDegrees>
            </Position>
            <AltitudeMeters>433.20001220703125</AltitudeMeters>
            <DistanceMeters>50444.365818915</DistanceMeters>
          </Trackpoint>
          <Trackpoint>
            <Time>2022-04-23T12:15:09.000Z</Time>
            <Position>
              <LatitudeDegrees>41.58267301507294178009033203125</LatitudeDegrees>
              <LongitudeDegrees>-0.040893293917179107666015625</LongitudeDegrees>
            </Position>
            <AltitudeMeters>432.600006103515625</AltitudeMeters>
            <DistanceMeters>50462.07396491</DistanceMeters>
          </Trackpoint>
          <Trackpoint>
            <Time>2022-04-23T12:15:10.000Z</Time>
            <Position>
              <LatitudeDegrees>41.5825778804719448089599609375</LatitudeDegrees>
              <LongitudeDegrees>-0.04091969691216945648193359375</LongitudeDegrees>
            </Position>
            <AltitudeMeters>432.399993896484375</AltitudeMeters>
            <DistanceMeters>50472.888656312</DistanceMeters>
          </Trackpoint>
          <Trackpoint>
            <Time>2022-04-23T12:15:12.000Z</Time>
            <Position>
              <LatitudeDegrees>41.58242977224290370941162109375</LatitudeDegrees>
              <LongitudeDegrees>-0.04094786010682582855224609375</LongitudeDegrees>
            </Position>
            <AltitudeMeters>432.20001220703125</AltitudeMeters>
            <DistanceMeters>50489.539224079</DistanceMeters>
          </Trackpoint>
          <Trackpoint>
            <Time>2022-04-23T12:15:14.000Z</Time>
            <Position>
              <LatitudeDegrees>41.58225324936211109161376953125</LatitudeDegrees>
              <LongitudeDegrees>-0.04099831916391849517822265625</LongitudeDegrees>
            </Position>
            <AltitudeMeters>431.79998779296875</AltitudeMeters>
            <DistanceMeters>50509.630577373</DistanceMeters>
          </Trackpoint>
          <Trackpoint>
            <Time>2022-04-23T12:15:16.000Z</Time>
            <Position>
              <LatitudeDegrees>41.5821138583123683929443359375</LatitudeDegrees>
              <LongitudeDegrees>-0.0410768575966358184814453125</LongitudeDegrees>
            </Position>
            <AltitudeMeters>431</AltitudeMeters>
            <DistanceMeters>50526.466940688</DistanceMeters>
          </Trackpoint>
          <Trackpoint>
            <Time>2022-04-23T12:15:19.000Z</Time>
            <Position>
              <LatitudeDegrees>41.5818449668586254119873046875</LatitudeDegrees>
              <LongitudeDegrees>-0.0412215292453765869140625</LongitudeDegrees>
            </Position>
            <AltitudeMeters>430.20001220703125</AltitudeMeters>
            <DistanceMeters>50558.727915419</DistanceMeters>
          </Trackpoint>
          <Trackpoint>
            <Time>2022-04-23T12:15:23.000Z</Time>
            <Position>
              <LatitudeDegrees>41.58148881979286670684814453125</LatitudeDegrees>
              <LongitudeDegrees>-0.0413403846323490142822265625</LongitudeDegrees>
            </Position>
            <AltitudeMeters>429.79998779296875</AltitudeMeters>
            <DistanceMeters>50599.584098438</DistanceMeters>
          </Trackpoint>
          <Trackpoint>
            <Time>2022-04-23T12:15:24.000Z</Time>
            <Position>
              <LatitudeDegrees>41.58140818588435649871826171875</LatitudeDegrees>
              <LongitudeDegrees>-0.04137785173952579498291015625</LongitudeDegrees>
            </Position>
            <AltitudeMeters>429.600006103515625</AltitudeMeters>
            <DistanceMeters>50609.08581956</DistanceMeters>
          </Trackpoint>
          <Trackpoint>
            <Time>2022-04-23T12:15:27.000Z</Time>
            <Position>
              <LatitudeDegrees>41.581188999116420745849609375</LatitudeDegrees>
              <LongitudeDegrees>-0.041517578065395355224609375</LongitudeDegrees>
            </Position>
            <AltitudeMeters>428.600006103515625</AltitudeMeters>
            <DistanceMeters>50636.113194643</DistanceMeters>
          </Trackpoint>
          <Trackpoint>
            <Time>2022-04-23T12:15:29.000Z</Time>
            <Position>
              <LatitudeDegrees>41.581030748784542083740234375</LatitudeDegrees>
              <LongitudeDegrees>-0.041638948023319244384765625</LongitudeDegrees>
            </Position>
            <AltitudeMeters>427</AltitudeMeters>
            <DistanceMeters>50656.419583064</DistanceMeters>
          </Trackpoint>
          <Trackpoint>
            <Time>2022-04-23T12:15:30.000Z</Time>
            <Position>
              <LatitudeDegrees>41.58095304854214191436767578125</LatitudeDegrees>
              <LongitudeDegrees>-0.041701309382915496826171875</LongitudeDegrees>
            </Position>
            <AltitudeMeters>425.600006103515625</AltitudeMeters>
            <DistanceMeters>50666.506748244</DistanceMeters>
          </Trackpoint>
          <Trackpoint>
            <Time>2022-04-23T12:15:32.000Z</Time>
            <Position>
              <LatitudeDegrees>41.58080804161727428436279296875</LatitudeDegrees>
              <LongitudeDegrees>-0.0418342463672161102294921875</LongitudeDegrees>
            </Position>
            <AltitudeMeters>424.600006103515625</AltitudeMeters>
            <DistanceMeters>50686.076715085</DistanceMeters>
          </Trackpoint>
          <Trackpoint>
            <Time>2022-04-23T12:15:34.000Z</Time>
            <Position>
              <LatitudeDegrees>41.580670662224292755126953125</LatitudeDegrees>
              <LongitudeDegrees>-0.04195754416286945343017578125</LongitudeDegrees>
            </Position>
            <AltitudeMeters>423.79998779296875</AltitudeMeters>
            <DistanceMeters>50704.493765104</DistanceMeters>
          </Trackpoint>
          <Trackpoint>
            <Time>2022-04-23T12:15:35.000Z</Time>
            <Position>
              <LatitudeDegrees>41.58060117624700069427490234375</LatitudeDegrees>
              <LongitudeDegrees>-0.04201051779091358184814453125</LongitudeDegrees>
            </Position>
            <AltitudeMeters>423.600006103515625</AltitudeMeters>
            <DistanceMeters>50713.396911234</DistanceMeters>
          </Trackpoint>
          <Trackpoint>
            <Time>2022-04-23T12:15:36.000Z</Time>
            <Position>
              <LatitudeDegrees>41.5805286727845668792724609375</LatitudeDegrees>
              <LongitudeDegrees>-0.0420652516186237335205078125</LongitudeDegrees>
            </Position>
            <AltitudeMeters>423.600006103515625</AltitudeMeters>
            <DistanceMeters>50722.66433035</DistanceMeters>
          </Trackpoint>
          <Trackpoint>
            <Time>2022-04-23T12:15:41.000Z</Time>
            <Position>
              <LatitudeDegrees>41.580144949257373809814453125</LatitudeDegrees>
              <LongitudeDegrees>-0.0423019565641880035400390625</LongitudeDegrees>
            </Position>
            <AltitudeMeters>422.79998779296875</AltitudeMeters>
            <DistanceMeters>50769.701018153</DistanceMeters>
          </Trackpoint>
          <Trackpoint>
            <Time>2022-04-23T12:15:43.000Z</Time>
            <Position>
              <LatitudeDegrees>41.579980663955211639404296875</LatitudeDegrees>
              <LongitudeDegrees>-0.04237353801727294921875</LongitudeDegrees>
            </Position>
            <AltitudeMeters>422.399993896484375</AltitudeMeters>
            <DistanceMeters>50788.933072935</DistanceMeters>
          </Trackpoint>
          <Trackpoint>
            <Time>2022-04-23T12:15:45.000Z</Time>
            <Position>
              <LatitudeDegrees>41.5798121877014636993408203125</LatitudeDegrees>
              <LongitudeDegrees>-0.04245593212544918060302734375</LongitudeDegrees>
            </Position>
            <AltitudeMeters>421.20001220703125</AltitudeMeters>
            <DistanceMeters>50808.900444699</DistanceMeters>
          </Trackpoint>
          <Trackpoint>
            <Time>2022-04-23T12:15:47.000Z</Time>
            <Position>
              <LatitudeDegrees>41.5796432085335254669189453125</LatitudeDegrees>
              <LongitudeDegrees>-0.04252416081726551055908203125</LongitudeDegrees>
            </Position>
            <AltitudeMeters>420</AltitudeMeters>
            <DistanceMeters>50828.547318436</DistanceMeters>
          </Trackpoint>
          <Trackpoint>
            <Time>2022-04-23T12:15:48.000Z</Time>
            <Position>
              <LatitudeDegrees>41.5795540250837802886962890625</LatitudeDegrees>
              <LongitudeDegrees>-0.04255165345966815948486328125</LongitudeDegrees>
            </Position>
            <AltitudeMeters>419.79998779296875</AltitudeMeters>
            <DistanceMeters>50838.733809904</DistanceMeters>
          </Trackpoint>
          <Trackpoint>
            <Time>2022-04-23T12:15:51.000Z</Time>
            <Position>
              <LatitudeDegrees>41.579285301268100738525390625</LatitudeDegrees>
              <LongitudeDegrees>-0.04262826405465602874755859375</LongitudeDegrees>
            </Position>
            <AltitudeMeters>418.20001220703125</AltitudeMeters>
            <DistanceMeters>50869.315881081</DistanceMeters>
          </Trackpoint>
          <Trackpoint>
            <Time>2022-04-23T12:15:54.000Z</Time>
            <Position>
              <LatitudeDegrees>41.579045243561267852783203125</LatitudeDegrees>
              <LongitudeDegrees>-0.04274141974747180938720703125</LongitudeDegrees>
            </Position>
            <AltitudeMeters>417.20001220703125</AltitudeMeters>
            <DistanceMeters>50897.647231824</DistanceMeters>
          </Trackpoint>
          <Trackpoint>
            <Time>2022-04-23T12:16:00.000Z</Time>
            <Position>
              <LatitudeDegrees>41.57859186641871929168701171875</LatitudeDegrees>
              <LongitudeDegrees>-0.04295297898352146148681640625</LongitudeDegrees>
            </Position>
            <AltitudeMeters>415.79998779296875</AltitudeMeters>
            <DistanceMeters>50951.094838159</DistanceMeters>
          </Trackpoint>
          <Trackpoint>
            <Time>2022-04-23T12:16:02.000Z</Time>
            <Position>
              <LatitudeDegrees>41.57843613065779209136962890625</LatitudeDegrees>
              <LongitudeDegrees>-0.043026320636272430419921875</LongitudeDegrees>
            </Position>
            <AltitudeMeters>414.20001220703125</AltitudeMeters>
            <DistanceMeters>50969.472621463</DistanceMeters>
          </Trackpoint>
          <Trackpoint>
            <Time>2022-04-23T12:16:03.000Z</Time>
            <Position>
              <LatitudeDegrees>41.57836019061505794525146484375</LatitudeDegrees>
              <LongitudeDegrees>-0.04306915216147899627685546875</LongitudeDegrees>
            </Position>
            <AltitudeMeters>413</AltitudeMeters>
            <DistanceMeters>50978.646514445</DistanceMeters>
          </Trackpoint>
          <Trackpoint>
            <Time>2022-04-23T12:16:06.000Z</Time>
            <Position>
              <LatitudeDegrees>41.57815097831189632415771484375</LatitudeDegrees>
              <LongitudeDegrees>-0.0432139076292514801025390625</LongitudeDegrees>
            </Position>
            <AltitudeMeters>412.399993896484375</AltitudeMeters>
            <DistanceMeters>51004.866484123</DistanceMeters>
          </Trackpoint>
          <Trackpoint>
            <Time>2022-04-23T12:16:07.000Z</Time>
            <Position>
              <LatitudeDegrees>41.5780885331332683563232421875</LatitudeDegrees>
              <LongitudeDegrees>-0.04326872527599334716796875</LongitudeDegrees>
            </Position>
            <AltitudeMeters>412.399993896484375</AltitudeMeters>
            <DistanceMeters>51013.182271843</DistanceMeters>
          </Trackpoint>
          <Trackpoint>
            <Time>2022-04-23T12:16:11.000Z</Time>
            <Position>
              <LatitudeDegrees>41.5778548456728458404541015625</LatitudeDegrees>
              <LongitudeDegrees>-0.04344063811004161834716796875</LongitudeDegrees>
            </Position>
            <AltitudeMeters>413</AltitudeMeters>
            <DistanceMeters>51042.870478953</DistanceMeters>
          </Trackpoint>
          <Trackpoint>
            <Time>2022-04-23T12:16:18.000Z</Time>
            <Position>
              <LatitudeDegrees>41.5774434618651866912841796875</LatitudeDegrees>
              <LongitudeDegrees>-0.04374775104224681854248046875</LongitudeDegrees>
            </Position>
            <AltitudeMeters>413.20001220703125</AltitudeMeters>
            <DistanceMeters>51095.314378724</DistanceMeters>
          </Trackpoint>
          <Trackpoint>
            <Time>2022-04-23T12:16:22.000Z</Time>
            <Position>
              <LatitudeDegrees>41.5772010572254657745361328125</LatitudeDegrees>
              <LongitudeDegrees>-0.043959058821201324462890625</LongitudeDegrees>
            </Position>
            <AltitudeMeters>413</AltitudeMeters>
            <DistanceMeters>51127.524089723</DistanceMeters>
          </Trackpoint>
          <Trackpoint>
            <Time>2022-04-23T12:16:25.000Z</Time>
            <Position>
              <LatitudeDegrees>41.57704859040677547454833984375</LatitudeDegrees>
              <LongitudeDegrees>-0.04412510432302951812744140625</LongitudeDegrees>
            </Position>
            <AltitudeMeters>412.600006103515625</AltitudeMeters>
            <DistanceMeters>51149.412436755</DistanceMeters>
          </Trackpoint>
          <Trackpoint>
            <Time>2022-04-23T12:16:28.000Z</Time>
            <Position>
              <LatitudeDegrees>41.57684943638741970062255859375</LatitudeDegrees>
              <LongitudeDegrees>-0.04430514760315418243408203125</LongitudeDegrees>
            </Position>
            <AltitudeMeters>412</AltitudeMeters>
            <DistanceMeters>51176.171527579</DistanceMeters>
          </Trackpoint>
          <Trackpoint>
            <Time>2022-04-23T12:16:30.000Z</Time>
            <Position>
              <LatitudeDegrees>41.57670929096639156341552734375</LatitudeDegrees>
              <LongitudeDegrees>-0.0444306246936321258544921875</LongitudeDegrees>
            </Position>
            <AltitudeMeters>411.600006103515625</AltitudeMeters>
            <DistanceMeters>51194.945497424</DistanceMeters>
          </Trackpoint>
          <Trackpoint>
            <Time>2022-04-23T12:16:32.000Z</Time>
            <Position>
              <LatitudeDegrees>41.576573587954044342041015625</LatitudeDegrees>
              <LongitudeDegrees>-0.044563896954059600830078125</LongitudeDegrees>
            </Position>
            <AltitudeMeters>410</AltitudeMeters>
            <DistanceMeters>51213.687695099</DistanceMeters>
          </Trackpoint>
          <Trackpoint>
            <Time>2022-04-23T12:16:34.000Z</Time>
            <Position>
              <LatitudeDegrees>41.57643578946590423583984375</LatitudeDegrees>
              <LongitudeDegrees>-0.0446991808712482452392578125</LongitudeDegrees>
            </Position>
            <AltitudeMeters>408.600006103515625</AltitudeMeters>
            <DistanceMeters>51232.717017091</DistanceMeters>
          </Trackpoint>
          <Trackpoint>
            <Time>2022-04-23T12:16:35.000Z</Time>
            <Position>
              <LatitudeDegrees>41.57636395655572414398193359375</LatitudeDegrees>
              <LongitudeDegrees>-0.04475827328860759735107421875</LongitudeDegrees>
            </Position>
            <AltitudeMeters>407.600006103515625</AltitudeMeters>
            <DistanceMeters>51242.104963943</DistanceMeters>
          </Trackpoint>
          <Trackpoint>
            <Time>2022-04-23T12:16:36.000Z</Time>
            <Position>
              <LatitudeDegrees>41.576289273798465728759765625</LatitudeDegrees>
              <LongitudeDegrees>-0.044811666011810302734375</LongitudeDegrees>
            </Position>
            <AltitudeMeters>407.399993896484375</AltitudeMeters>
            <DistanceMeters>51251.532265379</DistanceMeters>
          </Trackpoint>
          <Trackpoint>
            <Time>2022-04-23T12:16:39.000Z</Time>
            <Position>
              <LatitudeDegrees>41.5760607831180095672607421875</LatitudeDegrees>
              <LongitudeDegrees>-0.04492859356105327606201171875</LongitudeDegrees>
            </Position>
            <AltitudeMeters>406.600006103515625</AltitudeMeters>
            <DistanceMeters>51278.763347205</DistanceMeters>
          </Trackpoint>
          <Trackpoint>
            <Time>2022-04-23T12:16:40.000Z</Time>
            <Position>
              <LatitudeDegrees>41.57598358578979969024658203125</LatitudeDegrees>
              <LongitudeDegrees>-0.04496195353567600250244140625</LongitudeDegrees>
            </Position>
            <AltitudeMeters>406.20001220703125</AltitudeMeters>
            <DistanceMeters>51287.793385427</DistanceMeters>
          </Trackpoint>
          <Trackpoint>
            <Time>2022-04-23T12:16:44.000Z</Time>
            <Position>
              <LatitudeDegrees>41.5756584517657756805419921875</LatitudeDegrees>
              <LongitudeDegrees>-0.04508315585553646087646484375</LongitudeDegrees>
            </Position>
            <AltitudeMeters>404.600006103515625</AltitudeMeters>
            <DistanceMeters>51325.362242321</DistanceMeters>
          </Trackpoint>
          <Trackpoint>
            <Time>2022-04-23T12:16:46.000Z</Time>
            <Position>
              <LatitudeDegrees>41.5754975192248821258544921875</LatitudeDegrees>
              <LongitudeDegrees>-0.04515104927122592926025390625</LongitudeDegrees>
            </Position>
            <AltitudeMeters>402.79998779296875</AltitudeMeters>
            <DistanceMeters>51344.145348738</DistanceMeters>
          </Trackpoint>
          <Trackpoint>
            <Time>2022-04-23T12:16:47.000Z</Time>
            <Position>
              <LatitudeDegrees>41.57542015425860881805419921875</LatitudeDegrees>
              <LongitudeDegrees>-0.045188851654529571533203125</LongitudeDegrees>
            </Position>
            <AltitudeMeters>402.399993896484375</AltitudeMeters>
            <DistanceMeters>51353.313826344</DistanceMeters>
          </Trackpoint>
          <Trackpoint>
            <Time>2022-04-23T12:16:48.000Z</Time>
            <Position>
              <LatitudeDegrees>41.57534538768231868743896484375</LatitudeDegrees>
              <LongitudeDegrees>-0.04523537121713161468505859375</LongitudeDegrees>
            </Position>
            <AltitudeMeters>402</AltitudeMeters>
            <DistanceMeters>51362.493131508</DistanceMeters>
          </Trackpoint>
          <Trackpoint>
            <Time>2022-04-23T12:16:49.000Z</Time>
            <Position>
              <LatitudeDegrees>41.5752742253243923187255859375</LatitudeDegrees>
              <LongitudeDegrees>-0.0452896021306514739990234375</LongitudeDegrees>
            </Position>
            <AltitudeMeters>401.399993896484375</AltitudeMeters>
            <DistanceMeters>51371.610745437</DistanceMeters>
          </Trackpoint>
          <Trackpoint>
            <Time>2022-04-23T12:16:54.000Z</Time>
            <Position>
              <LatitudeDegrees>41.57494087703526020050048828125</LatitudeDegrees>
              <LongitudeDegrees>-0.045522116124629974365234375</LongitudeDegrees>
            </Position>
            <AltitudeMeters>400.600006103515625</AltitudeMeters>
            <DistanceMeters>51413.460277409</DistanceMeters>
          </Trackpoint>
          <Trackpoint>
            <Time>2022-04-23T12:16:59.000Z</Time>
            <Position>
              <LatitudeDegrees>41.57459889538586139678955078125</LatitudeDegrees>
              <LongitudeDegrees>-0.045714564621448516845703125</LongitudeDegrees>
            </Position>
            <AltitudeMeters>400.399993896484375</AltitudeMeters>
            <DistanceMeters>51454.758979308</DistanceMeters>
          </Trackpoint>
          <Trackpoint>
            <Time>2022-04-23T12:17:02.000Z</Time>
            <Position>
              <LatitudeDegrees>41.57441399060189723968505859375</LatitudeDegrees>
              <LongitudeDegrees>-0.0458257086575031280517578125</LongitudeDegrees>
            </Position>
            <AltitudeMeters>400</AltitudeMeters>
            <DistanceMeters>51477.32417265</DistanceMeters>
          </Trackpoint>
          <Trackpoint>
            <Time>2022-04-23T12:17:05.000Z</Time>
            <Position>
              <LatitudeDegrees>41.57419119961559772491455078125</LatitudeDegrees>
              <LongitudeDegrees>-0.0459574721753597259521484375</LongitudeDegrees>
            </Position>
            <AltitudeMeters>399.399993896484375</AltitudeMeters>
            <DistanceMeters>51504.439941943</DistanceMeters>
          </Trackpoint>
          <Trackpoint>
            <Time>2022-04-23T12:17:07.000Z</Time>
            <Position>
              <LatitudeDegrees>41.574053652584552764892578125</LatitudeDegrees>
              <LongitudeDegrees>-0.046021007001399993896484375</LongitudeDegrees>
            </Position>
            <AltitudeMeters>398.600006103515625</AltitudeMeters>
            <DistanceMeters>51520.63718896</DistanceMeters>
          </Trackpoint>
          <Trackpoint>
            <Time>2022-04-23T12:17:08.000Z</Time>
            <Position>
              <LatitudeDegrees>41.57396086491644382476806640625</LatitudeDegrees>
              <LongitudeDegrees>-0.04606300033628940582275390625</LongitudeDegrees>
            </Position>
            <AltitudeMeters>398.20001220703125</AltitudeMeters>
            <DistanceMeters>51531.540029246</DistanceMeters>
          </Trackpoint>
          <Trackpoint>
            <Time>2022-04-23T12:17:10.000Z</Time>
            <Position>
              <LatitudeDegrees>41.5738172829151153564453125</LatitudeDegrees>
              <LongitudeDegrees>-0.04612527787685394287109375</LongitudeDegrees>
            </Position>
            <AltitudeMeters>397</AltitudeMeters>
            <DistanceMeters>51548.341225324</DistanceMeters>
          </Trackpoint>
          <Trackpoint>
            <Time>2022-04-23T12:17:12.000Z</Time>
            <Position>
              <LatitudeDegrees>41.573648639023303985595703125</LatitudeDegrees>
              <LongitudeDegrees>-0.04620532505214214324951171875</LongitudeDegrees>
            </Position>
            <AltitudeMeters>395.600006103515625</AltitudeMeters>
            <DistanceMeters>51568.25969511</DistanceMeters>
          </Trackpoint>
          <Trackpoint>
            <Time>2022-04-23T12:17:16.000Z</Time>
            <Position>
              <LatitudeDegrees>41.57335954718291759490966796875</LatitudeDegrees>
              <LongitudeDegrees>-0.0463359989225864410400390625</LongitudeDegrees>
            </Position>
            <AltitudeMeters>394.600006103515625</AltitudeMeters>
            <DistanceMeters>51602.226262745</DistanceMeters>
          </Trackpoint>
          <Trackpoint>
            <Time>2022-04-23T12:17:17.000Z</Time>
            <Position>
              <LatitudeDegrees>41.573260724544525146484375</LatitudeDegrees>
              <LongitudeDegrees>-0.0463655032217502593994140625</LongitudeDegrees>
            </Position>
            <AltitudeMeters>394.399993896484375</AltitudeMeters>
            <DistanceMeters>51613.496447094</DistanceMeters>
          </Trackpoint>
          <Trackpoint>
            <Time>2022-04-23T12:17:20.000Z</Time>
            <Position>
              <LatitudeDegrees>41.57302158884704113006591796875</LatitudeDegrees>
              <LongitudeDegrees>-0.04642761312425136566162109375</LongitudeDegrees>
            </Position>
            <AltitudeMeters>393</AltitudeMeters>
            <DistanceMeters>51640.610551239</DistanceMeters>
          </Trackpoint>
          <Trackpoint>
            <Time>2022-04-23T12:17:22.000Z</Time>
            <Position>
              <LatitudeDegrees>41.57282955944538116455078125</LatitudeDegrees>
              <LongitudeDegrees>-0.04649198614060878753662109375</LongitudeDegrees>
            </Position>
            <AltitudeMeters>392</AltitudeMeters>
            <DistanceMeters>51662.645687054</DistanceMeters>
          </Trackpoint>
          <Trackpoint>
            <Time>2022-04-23T12:17:23.000Z</Time>
            <Position>
              <LatitudeDegrees>41.57274532131850719451904296875</LatitudeDegrees>
              <LongitudeDegrees>-0.04653456620872020721435546875</LongitudeDegrees>
            </Position>
            <AltitudeMeters>390.79998779296875</AltitudeMeters>
            <DistanceMeters>51672.669992051</DistanceMeters>
          </Trackpoint>
          <Trackpoint>
            <Time>2022-04-23T12:17:25.000Z</Time>
            <Position>
              <LatitudeDegrees>41.57260023057460784912109375</LatitudeDegrees>
              <LongitudeDegrees>-0.0466236658394336700439453125</LongitudeDegrees>
            </Position>
            <AltitudeMeters>389.79998779296875</AltitudeMeters>
            <DistanceMeters>51690.441512066</DistanceMeters>
          </Trackpoint>
          <Trackpoint>
            <Time>2022-04-23T12:17:27.000Z</Time>
            <Position>
              <LatitudeDegrees>41.57242865301668643951416015625</LatitudeDegrees>
              <LongitudeDegrees>-0.04672466777265071868896484375</LongitudeDegrees>
            </Position>
            <AltitudeMeters>388.79998779296875</AltitudeMeters>
            <DistanceMeters>51711.308262078</DistanceMeters>
          </Trackpoint>
          <Trackpoint>
            <Time>2022-04-23T12:17:28.000Z</Time>
            <Position>
              <LatitudeDegrees>41.57235137186944484710693359375</LatitudeDegrees>
              <LongitudeDegrees>-0.04676691256463527679443359375</LongitudeDegrees>
            </Position>
            <AltitudeMeters>388.399993896484375</AltitudeMeters>
            <DistanceMeters>51720.601466644</DistanceMeters>
          </Trackpoint>
          <Trackpoint>
            <Time>2022-04-23T12:17:32.000Z</Time>
            <Position>
              <LatitudeDegrees>41.57205582596361637115478515625</LatitudeDegrees>
              <LongitudeDegrees>-0.0469364784657955169677734375</LongitudeDegrees>
            </Position>
            <AltitudeMeters>387.20001220703125</AltitudeMeters>
            <DistanceMeters>51756.39854834</DistanceMeters>
          </Trackpoint>
          <Trackpoint>
            <Time>2022-04-23T12:17:34.000Z</Time>
            <Position>
              <LatitudeDegrees>41.57192766666412353515625</LatitudeDegrees>
              <LongitudeDegrees>-0.04703127779066562652587890625</LongitudeDegrees>
            </Position>
            <AltitudeMeters>386.79998779296875</AltitudeMeters>
            <DistanceMeters>51772.701654487</DistanceMeters>
          </Trackpoint>
          <Trackpoint>
            <Time>2022-04-23T12:17:37.000Z</Time>
            <Position>
              <LatitudeDegrees>41.57169976271688938140869140625</LatitudeDegrees>
              <LongitudeDegrees>-0.0472077168524265289306640625</LongitudeDegrees>
            </Position>
            <AltitudeMeters>386</AltitudeMeters>
            <DistanceMeters>51802.015201087</DistanceMeters>
          </Trackpoint>
          <Trackpoint>
            <Time>2022-04-23T12:17:40.000Z</Time>
            <Position>
              <LatitudeDegrees>41.57141737639904022216796875</LatitudeDegrees>
              <LongitudeDegrees>-0.04738767631351947784423828125</LongitudeDegrees>
            </Position>
            <AltitudeMeters>385.399993896484375</AltitudeMeters>
            <DistanceMeters>51836.834809838</DistanceMeters>
          </Trackpoint>
          <Trackpoint>
            <Time>2022-04-23T12:17:42.000Z</Time>
            <Position>
              <LatitudeDegrees>41.5712408535182476043701171875</LatitudeDegrees>
              <LongitudeDegrees>-0.0475121475756168365478515625</LongitudeDegrees>
            </Position>
            <AltitudeMeters>384.399993896484375</AltitudeMeters>
            <DistanceMeters>51859.048307924</DistanceMeters>
          </Trackpoint>
          <Trackpoint>
            <Time>2022-04-23T12:17:44.000Z</Time>
            <Position>
              <LatitudeDegrees>41.57110582105815410614013671875</LatitudeDegrees>
              <LongitudeDegrees>-0.04763712175190448760986328125</LongitudeDegrees>
            </Position>
            <AltitudeMeters>382.79998779296875</AltitudeMeters>
            <DistanceMeters>51877.328790383</DistanceMeters>
          </Trackpoint>
          <Trackpoint>
            <Time>2022-04-23T12:17:45.000Z</Time>
            <Position>
              <LatitudeDegrees>41.57102518714964389801025390625</LatitudeDegrees>
              <LongitudeDegrees>-0.04772110842168331146240234375</LongitudeDegrees>
            </Position>
            <AltitudeMeters>382.20001220703125</AltitudeMeters>
            <DistanceMeters>51888.706230598</DistanceMeters>
          </Trackpoint>
          <Trackpoint>
            <Time>2022-04-23T12:17:46.000Z</Time>
            <Position>
              <LatitudeDegrees>41.57096483744680881500244140625</LatitudeDegrees>
              <LongitudeDegrees>-0.047793276607990264892578125</LongitudeDegrees>
            </Position>
            <AltitudeMeters>381</AltitudeMeters>
            <DistanceMeters>51897.719252715</DistanceMeters>
          </Trackpoint>
          <Trackpoint>
            <Time>2022-04-23T12:17:48.000Z</Time>
            <Position>
              <LatitudeDegrees>41.5708616562187671661376953125</LatitudeDegrees>
              <LongitudeDegrees>-0.04791473038494586944580078125</LongitudeDegrees>
            </Position>
            <AltitudeMeters>379.79998779296875</AltitudeMeters>
            <DistanceMeters>51913.022094687</DistanceMeters>
          </Trackpoint>
          <Trackpoint>
            <Time>2022-04-23T12:17:50.000Z</Time>
            <Position>
              <LatitudeDegrees>41.57073349691927433013916015625</LatitudeDegrees>
              <LongitudeDegrees>-0.0480375252664089202880859375</LongitudeDegrees>
            </Position>
            <AltitudeMeters>379</AltitudeMeters>
            <DistanceMeters>51930.572733923</DistanceMeters>
          </Trackpoint>
          <Trackpoint>
            <Time>2022-04-23T12:17:51.000Z</Time>
            <Position>
              <LatitudeDegrees>41.57067180611193180084228515625</LatitudeDegrees>
              <LongitudeDegrees>-0.0480878166854381561279296875</LongitudeDegrees>
            </Position>
            <AltitudeMeters>378.399993896484375</AltitudeMeters>
            <DistanceMeters>51938.615834546</DistanceMeters>
          </Trackpoint>
          <Trackpoint>
            <Time>2022-04-23T12:17:55.000Z</Time>
            <Position>
              <LatitudeDegrees>41.57041448168456554412841796875</LatitudeDegrees>
              <LongitudeDegrees>-0.0482676923274993896484375</LongitudeDegrees>
            </Position>
            <AltitudeMeters>377.20001220703125</AltitudeMeters>
            <DistanceMeters>51970.936653895</DistanceMeters>
          </Trackpoint>
          <Trackpoint>
            <Time>2022-04-23T12:17:57.000Z</Time>
            <Position>
              <LatitudeDegrees>41.57029948197305202484130859375</LatitudeDegrees>
              <LongitudeDegrees>-0.04833868704736232757568359375</LongitudeDegrees>
            </Position>
            <AltitudeMeters>376.79998779296875</AltitudeMeters>
            <DistanceMeters>51985.035557141</DistanceMeters>
          </Trackpoint>
          <Trackpoint>
            <Time>2022-04-23T12:17:59.000Z</Time>
            <Position>
              <LatitudeDegrees>41.57015866599977016448974609375</LatitudeDegrees>
              <LongitudeDegrees>-0.0484408624470233917236328125</LongitudeDegrees>
            </Position>
            <AltitudeMeters>376</AltitudeMeters>
            <DistanceMeters>52002.868960134</DistanceMeters>
          </Trackpoint>
          <Trackpoint>
            <Time>2022-04-23T12:18:03.000Z</Time>
            <Position>
              <LatitudeDegrees>41.56992346979677677154541015625</LatitudeDegrees>
              <LongitudeDegrees>-0.048679411411285400390625</LongitudeDegrees>
            </Position>
            <AltitudeMeters>375</AltitudeMeters>
            <DistanceMeters>52035.730071823</DistanceMeters>
          </Trackpoint>
          <Trackpoint>
            <Time>2022-04-23T12:18:04.000Z</Time>
            <Position>
              <LatitudeDegrees>41.56987376511096954345703125</LatitudeDegrees>
              <LongitudeDegrees>-0.04874906502664089202880859375</LongitudeDegrees>
            </Position>
            <AltitudeMeters>374.79998779296875</AltitudeMeters>
            <DistanceMeters>52043.7461821</DistanceMeters>
          </Trackpoint>
          <Trackpoint>
            <Time>2022-04-23T12:18:08.000Z</Time>
            <Position>
              <LatitudeDegrees>41.5697230584919452667236328125</LatitudeDegrees>
              <LongitudeDegrees>-0.04900731146335601806640625</LongitudeDegrees>
            </Position>
            <AltitudeMeters>374.20001220703125</AltitudeMeters>
            <DistanceMeters>52071.018683572</DistanceMeters>
          </Trackpoint>
          <Trackpoint>
            <Time>2022-04-23T12:18:14.000Z</Time>
            <Position>
              <LatitudeDegrees>41.569467075169086456298828125</LatitudeDegrees>
              <LongitudeDegrees>-0.0493548251688480377197265625</LongitudeDegrees>
            </Position>
            <AltitudeMeters>374.399993896484375</AltitudeMeters>
            <DistanceMeters>52111.628458638</DistanceMeters>
          </Trackpoint>
          <Trackpoint>
            <Time>2022-04-23T12:18:20.000Z</Time>
            <Position>
              <LatitudeDegrees>41.56917295418679714202880859375</LatitudeDegrees>
              <LongitudeDegrees>-0.04970409907400608062744140625</LongitudeDegrees>
            </Position>
            <AltitudeMeters>373.600006103515625</AltitudeMeters>
            <DistanceMeters>52155.418558583</DistanceMeters>
          </Trackpoint>
          <Trackpoint>
            <Time>2022-04-23T12:18:22.000Z</Time>
            <Position>
              <LatitudeDegrees>41.56906818039715290069580078125</LatitudeDegrees>
              <LongitudeDegrees>-0.04984910599887371063232421875</LongitudeDegrees>
            </Position>
            <AltitudeMeters>373.20001220703125</AltitudeMeters>
            <DistanceMeters>52172.205505762</DistanceMeters>
          </Trackpoint>
          <Trackpoint>
            <Time>2022-04-23T12:18:24.000Z</Time>
            <Position>
              <LatitudeDegrees>41.5689810924232006072998046875</LatitudeDegrees>
              <LongitudeDegrees>-0.04998958669602870941162109375</LongitudeDegrees>
            </Position>
            <AltitudeMeters>372.79998779296875</AltitudeMeters>
            <DistanceMeters>52187.397897078</DistanceMeters>
          </Trackpoint>
          <Trackpoint>
            <Time>2022-04-23T12:18:26.000Z</Time>
            <Position>
              <LatitudeDegrees>41.56890942715108394622802734375</LatitudeDegrees>
              <LongitudeDegrees>-0.050127804279327392578125</LongitudeDegrees>
            </Position>
            <AltitudeMeters>372.600006103515625</AltitudeMeters>
            <DistanceMeters>52201.401365936</DistanceMeters>
          </Trackpoint>
          <Trackpoint>
            <Time>2022-04-23T12:18:28.000Z</Time>
            <Position>
              <LatitudeDegrees>41.56884756870567798614501953125</LatitudeDegrees>
              <LongitudeDegrees>-0.050240121781826019287109375</LongitudeDegrees>
            </Position>
            <AltitudeMeters>372.399993896484375</AltitudeMeters>
            <DistanceMeters>52213.014859027</DistanceMeters>
          </Trackpoint>
          <Trackpoint>
            <Time>2022-04-23T12:18:33.000Z</Time>
            <Position>
              <LatitudeDegrees>41.5686619095504283905029296875</LatitudeDegrees>
              <LongitudeDegrees>-0.050484873354434967041015625</LongitudeDegrees>
            </Position>
            <AltitudeMeters>372.600006103515625</AltitudeMeters>
            <DistanceMeters>52242.038948527</DistanceMeters>
          </Trackpoint>
          <Trackpoint>
            <Time>2022-04-23T12:18:35.000Z</Time>
            <Position>
              <LatitudeDegrees>41.5685754083096981048583984375</LatitudeDegrees>
              <LongitudeDegrees>-0.050544552505016326904296875</LongitudeDegrees>
            </Position>
            <AltitudeMeters>373</AltitudeMeters>
            <DistanceMeters>52252.874077684</DistanceMeters>
          </Trackpoint>
          <Trackpoint>
            <Time>2022-04-23T12:18:37.000Z</Time>
            <Position>
              <LatitudeDegrees>41.56845479272305965423583984375</LatitudeDegrees>
              <LongitudeDegrees>-0.0505675189197063446044921875</LongitudeDegrees>
            </Position>
            <AltitudeMeters>373.79998779296875</AltitudeMeters>
            <DistanceMeters>52266.434293266</DistanceMeters>
          </Trackpoint>
          <Trackpoint>
            <Time>2022-04-23T12:18:39.000Z</Time>
            <Position>
              <LatitudeDegrees>41.568370722234249114990234375</LatitudeDegrees>
              <LongitudeDegrees>-0.05052267573773860931396484375</LongitudeDegrees>
            </Position>
            <AltitudeMeters>374.399993896484375</AltitudeMeters>
            <DistanceMeters>52276.508917786</DistanceMeters>
          </Trackpoint>
          <Trackpoint>
            <Time>2022-04-23T12:18:41.000Z</Time>
            <Position>
              <LatitudeDegrees>41.56828748993575572967529296875</LatitudeDegrees>
              <LongitudeDegrees>-0.05045025609433650970458984375</LongitudeDegrees>
            </Position>
            <AltitudeMeters>374.79998779296875</AltitudeMeters>
            <DistanceMeters>52287.56228534</DistanceMeters>
          </Trackpoint>
          <Trackpoint>
            <Time>2022-04-23T12:18:48.000Z</Time>
            <Position>
              <LatitudeDegrees>41.56806017272174358367919921875</LatitudeDegrees>
              <LongitudeDegrees>-0.050173737108707427978515625</LongitudeDegrees>
            </Position>
            <AltitudeMeters>375</AltitudeMeters>
            <DistanceMeters>52321.772562415</DistanceMeters>
          </Trackpoint>
          <Trackpoint>
            <Time>2022-04-23T12:18:53.000Z</Time>
            <Position>
              <LatitudeDegrees>41.56790460459887981414794921875</LatitudeDegrees>
              <LongitudeDegrees>-0.04999034106731414794921875</LongitudeDegrees>
            </Position>
            <AltitudeMeters>376</AltitudeMeters>
            <DistanceMeters>52344.859947549</DistanceMeters>
          </Trackpoint>
          <Trackpoint>
            <Time>2022-04-23T12:18:54.000Z</Time>
            <Position>
              <LatitudeDegrees>41.56786805950105190277099609375</LatitudeDegrees>
              <LongitudeDegrees>-0.04994474351406097412109375</LongitudeDegrees>
            </Position>
            <AltitudeMeters>376</AltitudeMeters>
            <DistanceMeters>52350.423678496</DistanceMeters>
          </Trackpoint>
          <Trackpoint>
            <Time>2022-04-23T12:18:57.000Z</Time>
            <Position>
              <LatitudeDegrees>41.5677814744412899017333984375</LatitudeDegrees>
              <LongitudeDegrees>-0.04984944127500057220458984375</LongitudeDegrees>
            </Position>
            <AltitudeMeters>376.600006103515625</AltitudeMeters>
            <DistanceMeters>52362.908033482</DistanceMeters>
          </Trackpoint>
          <Trackpoint>
            <Time>2022-04-23T12:19:00.000Z</Time>
            <Position>
              <LatitudeDegrees>41.56768508255481719970703125</LatitudeDegrees>
              <LongitudeDegrees>-0.04973343573510646820068359375</LongitudeDegrees>
            </Position>
            <AltitudeMeters>377</AltitudeMeters>
            <DistanceMeters>52377.345215495</DistanceMeters>
          </Trackpoint>
          <Trackpoint>
            <Time>2022-04-23T12:19:01.000Z</Time>
            <Position>
              <LatitudeDegrees>41.567661277949810028076171875</LatitudeDegrees>
              <LongitudeDegrees>-0.0497095473110675811767578125</LongitudeDegrees>
            </Position>
            <AltitudeMeters>377.20001220703125</AltitudeMeters>
            <DistanceMeters>52380.658910254</DistanceMeters>
          </Trackpoint>
          <Trackpoint>
            <Time>2022-04-23T12:19:05.000Z</Time>
            <Position>
              <LatitudeDegrees>41.56753160990774631500244140625</LatitudeDegrees>
              <LongitudeDegrees>-0.0495620258152484893798828125</LongitudeDegrees>
            </Position>
            <AltitudeMeters>377.600006103515625</AltitudeMeters>
            <DistanceMeters>52399.611439922</DistanceMeters>
          </Trackpoint>
          <Trackpoint>
            <Time>2022-04-23T12:19:07.000Z</Time>
            <Position>
              <LatitudeDegrees>41.56746589578688144683837890625</LatitudeDegrees>
              <LongitudeDegrees>-0.04949455149471759796142578125</LongitudeDegrees>
            </Position>
            <AltitudeMeters>378</AltitudeMeters>
            <DistanceMeters>52408.834417754</DistanceMeters>
          </Trackpoint>
          <Trackpoint>
            <Time>2022-04-23T12:19:08.000Z</Time>
            <Position>
              <LatitudeDegrees>41.567435972392559051513671875</LatitudeDegrees>
              <LongitudeDegrees>-0.04945599474012851715087890625</LongitudeDegrees>
            </Position>
            <AltitudeMeters>378</AltitudeMeters>
            <DistanceMeters>52413.459593545</DistanceMeters>
          </Trackpoint>
          <Trackpoint>
            <Time>2022-04-23T12:19:09.000Z</Time>
            <Position>
              <LatitudeDegrees>41.5674006007611751556396484375</LatitudeDegrees>
              <LongitudeDegrees>-0.0494074635207653045654296875</LongitudeDegrees>
            </Position>
            <AltitudeMeters>378.20001220703125</AltitudeMeters>
            <DistanceMeters>52419.101492114</DistanceMeters>
          </Trackpoint>
          <Trackpoint>
            <Time>2022-04-23T12:19:14.000Z</Time>
            <Position>
              <LatitudeDegrees>41.5672490559518337249755859375</LatitudeDegrees>
              <LongitudeDegrees>-0.04922934807837009429931640625</LongitudeDegrees>
            </Position>
            <AltitudeMeters>378.20001220703125</AltitudeMeters>
            <DistanceMeters>52441.562599408</DistanceMeters>
          </Trackpoint>
          <Trackpoint>
            <Time>2022-04-23T12:19:16.000Z</Time>
            <Position>
              <LatitudeDegrees>41.56717219389975070953369140625</LatitudeDegrees>
              <LongitudeDegrees>-0.04915575496852397918701171875</LongitudeDegrees>
            </Position>
            <AltitudeMeters>378.20001220703125</AltitudeMeters>
            <DistanceMeters>52452.086137668</DistanceMeters>
          </Trackpoint>
          <Trackpoint>
            <Time>2022-04-23T12:19:18.000Z</Time>
            <Position>
              <LatitudeDegrees>41.567085273563861846923828125</LatitudeDegrees>
              <LongitudeDegrees>-0.0490812398493289947509765625</LongitudeDegrees>
            </Position>
            <AltitudeMeters>378</AltitudeMeters>
            <DistanceMeters>52463.579264232</DistanceMeters>
          </Trackpoint>
          <Trackpoint>
            <Time>2022-04-23T12:19:20.000Z</Time>
            <Position>
              <LatitudeDegrees>41.56697689555585384368896484375</LatitudeDegrees>
              <LongitudeDegrees>-0.049031116068363189697265625</LongitudeDegrees>
            </Position>
            <AltitudeMeters>377.600006103515625</AltitudeMeters>
            <DistanceMeters>52476.344008622</DistanceMeters>
          </Trackpoint>
          <Trackpoint>
            <Time>2022-04-23T12:19:22.000Z</Time>
            <Position>
              <LatitudeDegrees>41.566846556961536407470703125</LatitudeDegrees>
              <LongitudeDegrees>-0.0490188784897327423095703125</LongitudeDegrees>
            </Position>
            <AltitudeMeters>377.399993896484375</AltitudeMeters>
            <DistanceMeters>52490.886511513</DistanceMeters>
          </Trackpoint>
          <Trackpoint>
            <Time>2022-04-23T12:19:23.000Z</Time>
            <Position>
              <LatitudeDegrees>41.56677774153649806976318359375</LatitudeDegrees>
              <LongitudeDegrees>-0.04902767948806285858154296875</LongitudeDegrees>
            </Position>
            <AltitudeMeters>377.399993896484375</AltitudeMeters>
            <DistanceMeters>52498.580741895</DistanceMeters>
          </Trackpoint>
          <Trackpoint>
            <Time>2022-04-23T12:19:27.000Z</Time>
            <Position>
              <LatitudeDegrees>41.56649694778025150299072265625</LatitudeDegrees>
              <LongitudeDegrees>-0.04910177551209926605224609375</LongitudeDegrees>
            </Position>
            <AltitudeMeters>377.20001220703125</AltitudeMeters>
            <DistanceMeters>52530.43695088</DistanceMeters>
          </Trackpoint>
          <Trackpoint>
            <Time>2022-04-23T12:19:28.000Z</Time>
            <Position>
              <LatitudeDegrees>41.56642721034586429595947265625</LatitudeDegrees>
              <LongitudeDegrees>-0.04912239499390125274658203125</LongitudeDegrees>
            </Position>
            <AltitudeMeters>377</AltitudeMeters>
            <DistanceMeters>52538.386320349</DistanceMeters>
          </Trackpoint>
          <Trackpoint>
            <Time>2022-04-23T12:19:33.000Z</Time>
            <Position>
              <LatitudeDegrees>41.56606527976691722869873046875</LatitudeDegrees>
              <LongitudeDegrees>-0.049212165176868438720703125</LongitudeDegrees>
            </Position>
            <AltitudeMeters>376.399993896484375</AltitudeMeters>
            <DistanceMeters>52579.357713914</DistanceMeters>
          </Trackpoint>
          <Trackpoint>
            <Time>2022-04-23T12:19:34.000Z</Time>
            <Position>
              <LatitudeDegrees>41.565990261733531951904296875</LatitudeDegrees>
              <LongitudeDegrees>-0.04923756234347820281982421875</LongitudeDegrees>
            </Position>
            <AltitudeMeters>376</AltitudeMeters>
            <DistanceMeters>52587.971139949</DistanceMeters>
          </Trackpoint>
          <Trackpoint>
            <Time>2022-04-23T12:19:37.000Z</Time>
            <Position>
              <LatitudeDegrees>41.56576286070048809051513671875</LatitudeDegrees>
              <LongitudeDegrees>-0.04932523705065250396728515625</LongitudeDegrees>
            </Position>
            <AltitudeMeters>375.20001220703125</AltitudeMeters>
            <DistanceMeters>52614.313429605</DistanceMeters>
          </Trackpoint>
          <Trackpoint>
            <Time>2022-04-23T12:19:38.000Z</Time>
            <Position>
              <LatitudeDegrees>41.565689183771610260009765625</LatitudeDegrees>
              <LongitudeDegrees>-0.04935239441692829132080078125</LongitudeDegrees>
            </Position>
            <AltitudeMeters>374.600006103515625</AltitudeMeters>
            <DistanceMeters>52622.820311092</DistanceMeters>
          </Trackpoint>
          <Trackpoint>
            <Time>2022-04-23T12:19:41.000Z</Time>
            <Position>
              <LatitudeDegrees>41.56547351740300655364990234375</LatitudeDegrees>
              <LongitudeDegrees>-0.049425065517425537109375</LongitudeDegrees>
            </Position>
            <AltitudeMeters>374.20001220703125</AltitudeMeters>
            <DistanceMeters>52647.575636536</DistanceMeters>
          </Trackpoint>
          <Trackpoint>
            <Time>2022-04-23T12:19:44.000Z</Time>
            <Position>
              <LatitudeDegrees>41.56526799313724040985107421875</LatitudeDegrees>
              <LongitudeDegrees>-0.04949488677084445953369140625</LongitudeDegrees>
            </Position>
            <AltitudeMeters>373.79998779296875</AltitudeMeters>
            <DistanceMeters>52671.178252408</DistanceMeters>
          </Trackpoint>
          <Trackpoint>
            <Time>2022-04-23T12:19:48.000Z</Time>
            <Position>
              <LatitudeDegrees>41.56497538089752197265625</LatitudeDegrees>
              <LongitudeDegrees>-0.049623884260654449462890625</LongitudeDegrees>
            </Position>
            <AltitudeMeters>373.600006103515625</AltitudeMeters>
            <DistanceMeters>52705.472497059</DistanceMeters>
          </Trackpoint>
          <Trackpoint>
            <Time>2022-04-23T12:19:50.000Z</Time>
            <Position>
              <LatitudeDegrees>41.56482274644076824188232421875</LatitudeDegrees>
              <LongitudeDegrees>-0.04969085566699504852294921875</LongitudeDegrees>
            </Position>
            <AltitudeMeters>373</AltitudeMeters>
            <DistanceMeters>52723.353181794</DistanceMeters>
          </Trackpoint>
          <Trackpoint>
            <Time>2022-04-23T12:19:52.000Z</Time>
            <Position>
              <LatitudeDegrees>41.56468561850488185882568359375</LatitudeDegrees>
              <LongitudeDegrees>-0.04973460920155048370361328125</LongitudeDegrees>
            </Position>
            <AltitudeMeters>372</AltitudeMeters>
            <DistanceMeters>52739.044967048</DistanceMeters>
          </Trackpoint>
          <Trackpoint>
            <Time>2022-04-23T12:19:55.000Z</Time>
            <Position>
              <LatitudeDegrees>41.5645068325102329254150390625</LatitudeDegrees>
              <LongitudeDegrees>-0.04981524311006069183349609375</LongitudeDegrees>
            </Position>
            <AltitudeMeters>371</AltitudeMeters>
            <DistanceMeters>52760.046945859</DistanceMeters>
          </Trackpoint>
          <Trackpoint>
            <Time>2022-04-23T12:19:59.000Z</Time>
            <Position>
              <LatitudeDegrees>41.5642707981169223785400390625</LatitudeDegrees>
              <LongitudeDegrees>-0.04996494390070438385009765625</LongitudeDegrees>
            </Position>
            <AltitudeMeters>370</AltitudeMeters>
            <DistanceMeters>52789.126052076</DistanceMeters>
          </Trackpoint>
          <Trackpoint>
            <Time>2022-04-23T12:20:01.000Z</Time>
            <Position>
              <LatitudeDegrees>41.56413383781909942626953125</LatitudeDegrees>
              <LongitudeDegrees>-0.0500193424522876739501953125</LongitudeDegrees>
            </Position>
            <AltitudeMeters>369.79998779296875</AltitudeMeters>
            <DistanceMeters>52805.028766338</DistanceMeters>
          </Trackpoint>
          <Trackpoint>
            <Time>2022-04-23T12:20:04.000Z</Time>
            <Position>
              <LatitudeDegrees>41.56392403878271579742431640625</LatitudeDegrees>
              <LongitudeDegrees>-0.05005027167499065399169921875</LongitudeDegrees>
            </Position>
            <AltitudeMeters>369.20001220703125</AltitudeMeters>
            <DistanceMeters>52828.521322863</DistanceMeters>
          </Trackpoint>
          <Trackpoint>
            <Time>2022-04-23T12:20:06.000Z</Time>
            <Position>
              <LatitudeDegrees>41.5637755952775478363037109375</LatitudeDegrees>
              <LongitudeDegrees>-0.0500277243554592132568359375</LongitudeDegrees>
            </Position>
            <AltitudeMeters>368.79998779296875</AltitudeMeters>
            <DistanceMeters>52845.149640298</DistanceMeters>
          </Trackpoint>
          <Trackpoint>
            <Time>2022-04-23T12:20:09.000Z</Time>
            <Position>
              <LatitudeDegrees>41.5635626949369907379150390625</LatitudeDegrees>
              <LongitudeDegrees>-0.04993761889636516571044921875</LongitudeDegrees>
            </Position>
            <AltitudeMeters>367.79998779296875</AltitudeMeters>
            <DistanceMeters>52870.00543922</DistanceMeters>
          </Trackpoint>
          <Trackpoint>
            <Time>2022-04-23T12:20:11.000Z</Time>
            <Position>
              <LatitudeDegrees>41.56340318731963634490966796875</LatitudeDegrees>
              <LongitudeDegrees>-0.0498932786285877227783203125</LongitudeDegrees>
            </Position>
            <AltitudeMeters>367</AltitudeMeters>
            <DistanceMeters>52888.138867016</DistanceMeters>
          </Trackpoint>
          <Trackpoint>
            <Time>2022-04-23T12:20:13.000Z</Time>
            <Position>
              <LatitudeDegrees>41.56325147487223148345947265625</LatitudeDegrees>
              <LongitudeDegrees>-0.049881041049957275390625</LongitudeDegrees>
            </Position>
            <AltitudeMeters>367</AltitudeMeters>
            <DistanceMeters>52905.055223672</DistanceMeters>
          </Trackpoint>
          <Trackpoint>
            <Time>2022-04-23T12:20:15.000Z</Time>
            <Position>
              <LatitudeDegrees>41.5631013549864292144775390625</LatitudeDegrees>
              <LongitudeDegrees>-0.04989780485630035400390625</LongitudeDegrees>
            </Position>
            <AltitudeMeters>367</AltitudeMeters>
            <DistanceMeters>52921.821986623</DistanceMeters>
          </Trackpoint>
          <Trackpoint>
            <Time>2022-04-23T12:20:16.000Z</Time>
            <Position>
              <LatitudeDegrees>41.5630165301263332366943359375</LatitudeDegrees>
              <LongitudeDegrees>-0.0499133951961994171142578125</LongitudeDegrees>
            </Position>
            <AltitudeMeters>366.600006103515625</AltitudeMeters>
            <DistanceMeters>52931.351702191</DistanceMeters>
          </Trackpoint>
          <Trackpoint>
            <Time>2022-04-23T12:20:19.000Z</Time>
            <Position>
              <LatitudeDegrees>41.56273280270397663116455078125</LatitudeDegrees>
              <LongitudeDegrees>-0.04992957226932048797607421875</LongitudeDegrees>
            </Position>
            <AltitudeMeters>366</AltitudeMeters>
            <DistanceMeters>52962.95990726</DistanceMeters>
          </Trackpoint>
          <Trackpoint>
            <Time>2022-04-23T12:20:20.000Z</Time>
            <Position>
              <LatitudeDegrees>41.5626420266926288604736328125</LatitudeDegrees>
              <LongitudeDegrees>-0.0499157421290874481201171875</LongitudeDegrees>
            </Position>
            <AltitudeMeters>365.79998779296875</AltitudeMeters>
            <DistanceMeters>52973.12909776</DistanceMeters>
          </Trackpoint>
          <Trackpoint>
            <Time>2022-04-23T12:20:22.000Z</Time>
            <Position>
              <LatitudeDegrees>41.562485955655574798583984375</LatitudeDegrees>
              <LongitudeDegrees>-0.04987190477550029754638671875</LongitudeDegrees>
            </Position>
            <AltitudeMeters>365.399993896484375</AltitudeMeters>
            <DistanceMeters>52990.879518242</DistanceMeters>
          </Trackpoint>
          <Trackpoint>
            <Time>2022-04-23T12:20:24.000Z</Time>
            <Position>
              <LatitudeDegrees>41.5623044036328792572021484375</LatitudeDegrees>
              <LongitudeDegrees>-0.04981038160622119903564453125</LongitudeDegrees>
            </Position>
            <AltitudeMeters>364.20001220703125</AltitudeMeters>
            <DistanceMeters>53011.726135688</DistanceMeters>
          </Trackpoint>
          <Trackpoint>
            <Time>2022-04-23T12:20:25.000Z</Time>
            <Position>
              <LatitudeDegrees>41.56223843805491924285888671875</LatitudeDegrees>
              <LongitudeDegrees>-0.04979797638952732086181640625</LongitudeDegrees>
            </Position>
            <AltitudeMeters>364</AltitudeMeters>
            <DistanceMeters>53019.140655591</DistanceMeters>
          </Trackpoint>
          <Trackpoint>
            <Time>2022-04-23T12:20:31.000Z</Time>
            <Position>
              <LatitudeDegrees>41.561767123639583587646484375</LatitudeDegrees>
              <LongitudeDegrees>-0.04973142407834529876708984375</LongitudeDegrees>
            </Position>
            <AltitudeMeters>363.399993896484375</AltitudeMeters>
            <DistanceMeters>53071.891011003</DistanceMeters>
          </Trackpoint>
          <Trackpoint>
            <Time>2022-04-23T12:20:35.000Z</Time>
            <Position>
              <LatitudeDegrees>41.56148113310337066650390625</LatitudeDegrees>
              <LongitudeDegrees>-0.0497004948556423187255859375</LongitudeDegrees>
            </Position>
            <AltitudeMeters>363.399993896484375</AltitudeMeters>
            <DistanceMeters>53103.826491174</DistanceMeters>
          </Trackpoint>
          <Trackpoint>
            <Time>2022-04-23T12:20:37.000Z</Time>
            <Position>
              <LatitudeDegrees>41.5613357909023761749267578125</LatitudeDegrees>
              <LongitudeDegrees>-0.049725472927093505859375</LongitudeDegrees>
            </Position>
            <AltitudeMeters>363.399993896484375</AltitudeMeters>
            <DistanceMeters>53120.136796261</DistanceMeters>
          </Trackpoint>
          <Trackpoint>
            <Time>2022-04-23T12:20:38.000Z</Time>
            <Position>
              <LatitudeDegrees>41.5612385608255863189697265625</LatitudeDegrees>
              <LongitudeDegrees>-0.04975656978785991668701171875</LongitudeDegrees>
            </Position>
            <AltitudeMeters>363</AltitudeMeters>
            <DistanceMeters>53131.264663904</DistanceMeters>
          </Trackpoint>
          <Trackpoint>
            <Time>2022-04-23T12:20:40.000Z</Time>
            <Position>
              <LatitudeDegrees>41.5610833279788494110107421875</LatitudeDegrees>
              <LongitudeDegrees>-0.04979579709470272064208984375</LongitudeDegrees>
            </Position>
            <AltitudeMeters>362.79998779296875</AltitudeMeters>
            <DistanceMeters>53148.848714845</DistanceMeters>
          </Trackpoint>
          <Trackpoint>
            <Time>2022-04-23T12:20:41.000Z</Time>
            <Position>
              <LatitudeDegrees>41.560978554189205169677734375</LatitudeDegrees>
              <LongitudeDegrees>-0.049803592264652252197265625</LongitudeDegrees>
            </Position>
            <AltitudeMeters>362</AltitudeMeters>
            <DistanceMeters>53160.528112722</DistanceMeters>
          </Trackpoint>
          <Trackpoint>
            <Time>2022-04-23T12:20:44.000Z</Time>
            <Position>
              <LatitudeDegrees>41.56072667799890041351318359375</LatitudeDegrees>
              <LongitudeDegrees>-0.049769394099712371826171875</LongitudeDegrees>
            </Position>
            <AltitudeMeters>360.79998779296875</AltitudeMeters>
            <DistanceMeters>53188.706377781</DistanceMeters>
          </Trackpoint>
          <Trackpoint>
            <Time>2022-04-23T12:20:46.000Z</Time>
            <Position>
              <LatitudeDegrees>41.56054294668138027191162109375</LatitudeDegrees>
              <LongitudeDegrees>-0.04971600137650966644287109375</LongitudeDegrees>
            </Position>
            <AltitudeMeters>359.600006103515625</AltitudeMeters>
            <DistanceMeters>53209.633840779</DistanceMeters>
          </Trackpoint>
          <Trackpoint>
            <Time>2022-04-23T12:20:48.000Z</Time>
            <Position>
              <LatitudeDegrees>41.56036323867738246917724609375</LatitudeDegrees>
              <LongitudeDegrees>-0.0496545620262622833251953125</LongitudeDegrees>
            </Position>
            <AltitudeMeters>358.20001220703125</AltitudeMeters>
            <DistanceMeters>53230.279802332</DistanceMeters>
          </Trackpoint>
          <Trackpoint>
            <Time>2022-04-23T12:20:49.000Z</Time>
            <Position>
              <LatitudeDegrees>41.56027137301862239837646484375</LatitudeDegrees>
              <LongitudeDegrees>-0.0496213696897029876708984375</LongitudeDegrees>
            </Position>
            <AltitudeMeters>357.20001220703125</AltitudeMeters>
            <DistanceMeters>53240.871764838</DistanceMeters>
          </Trackpoint>
          <Trackpoint>
            <Time>2022-04-23T12:20:51.000Z</Time>
            <Position>
              <LatitudeDegrees>41.56009443104267120361328125</LatitudeDegrees>
              <LongitudeDegrees>-0.0495459325611591339111328125</LongitudeDegrees>
            </Position>
            <AltitudeMeters>356.20001220703125</AltitudeMeters>
            <DistanceMeters>53261.54351555</DistanceMeters>
          </Trackpoint>
          <Trackpoint>
            <Time>2022-04-23T12:20:52.000Z</Time>
            <Position>
              <LatitudeDegrees>41.5600070916116237640380859375</LatitudeDegrees>
              <LongitudeDegrees>-0.04950444214046001434326171875</LongitudeDegrees>
            </Position>
            <AltitudeMeters>355.600006103515625</AltitudeMeters>
            <DistanceMeters>53271.85993358</DistanceMeters>
          </Trackpoint>
          <Trackpoint>
            <Time>2022-04-23T12:20:54.000Z</Time>
            <Position>
              <LatitudeDegrees>41.559829898178577423095703125</LatitudeDegrees>
              <LongitudeDegrees>-0.04943487234413623809814453125</LongitudeDegrees>
            </Position>
            <AltitudeMeters>355</AltitudeMeters>
            <DistanceMeters>53292.415378282</DistanceMeters>
          </Trackpoint>
          <Trackpoint>
            <Time>2022-04-23T12:20:57.000Z</Time>
            <Position>
              <LatitudeDegrees>41.55956595204770565032958984375</LatitudeDegrees>
              <LongitudeDegrees>-0.0493541546165943145751953125</LongitudeDegrees>
            </Position>
            <AltitudeMeters>353.600006103515625</AltitudeMeters>
            <DistanceMeters>53322.552333315</DistanceMeters>
          </Trackpoint>
          <Trackpoint>
            <Time>2022-04-23T12:20:58.000Z</Time>
            <Position>
              <LatitudeDegrees>41.55947945080697536468505859375</LatitudeDegrees>
              <LongitudeDegrees>-0.0493325293064117431640625</LongitudeDegrees>
            </Position>
            <AltitudeMeters>353.399993896484375</AltitudeMeters>
            <DistanceMeters>53332.34746283</DistanceMeters>
          </Trackpoint>
          <Trackpoint>
            <Time>2022-04-23T12:21:02.000Z</Time>
            <Position>
              <LatitudeDegrees>41.55914761126041412353515625</LatitudeDegrees>
              <LongitudeDegrees>-0.0492981635034084320068359375</LongitudeDegrees>
            </Position>
            <AltitudeMeters>352.79998779296875</AltitudeMeters>
            <DistanceMeters>53369.392527785</DistanceMeters>
          </Trackpoint>
          <Trackpoint>
            <Time>2022-04-23T12:21:05.000Z</Time>
            <Position>
              <LatitudeDegrees>41.55890487134456634521484375</LatitudeDegrees>
              <LongitudeDegrees>-0.049242675304412841796875</LongitudeDegrees>
            </Position>
            <AltitudeMeters>352.399993896484375</AltitudeMeters>
            <DistanceMeters>53396.802423081</DistanceMeters>
          </Trackpoint>
          <Trackpoint>
            <Time>2022-04-23T12:21:07.000Z</Time>
            <Position>
              <LatitudeDegrees>41.55873379670083522796630859375</LatitudeDegrees>
              <LongitudeDegrees>-0.04921250045299530029296875</LongitudeDegrees>
            </Position>
            <AltitudeMeters>352.20001220703125</AltitudeMeters>
            <DistanceMeters>53416.008166039</DistanceMeters>
          </Trackpoint>
          <Trackpoint>
            <Time>2022-04-23T12:21:11.000Z</Time>
            <Position>
              <LatitudeDegrees>41.558378823101520538330078125</LatitudeDegrees>
              <LongitudeDegrees>-0.049237310886383056640625</LongitudeDegrees>
            </Position>
            <AltitudeMeters>351.399993896484375</AltitudeMeters>
            <DistanceMeters>53455.57147468</DistanceMeters>
          </Trackpoint>
          <Trackpoint>
            <Time>2022-04-23T12:21:12.000Z</Time>
            <Position>
              <LatitudeDegrees>41.55828771181404590606689453125</LatitudeDegrees>
              <LongitudeDegrees>-0.04926371388137340545654296875</LongitudeDegrees>
            </Position>
            <AltitudeMeters>351.20001220703125</AltitudeMeters>
            <DistanceMeters>53465.948113419</DistanceMeters>
          </Trackpoint>
          <Trackpoint>
            <Time>2022-04-23T12:21:14.000Z</Time>
            <Position>
              <LatitudeDegrees>41.55810548923909664154052734375</LatitudeDegrees>
              <LongitudeDegrees>-0.04930369555950164794921875</LongitudeDegrees>
            </Position>
            <AltitudeMeters>350.600006103515625</AltitudeMeters>
            <DistanceMeters>53486.501361487</DistanceMeters>
          </Trackpoint>
          <Trackpoint>
            <Time>2022-04-23T12:21:16.000Z</Time>
            <Position>
              <LatitudeDegrees>41.5579278767108917236328125</LatitudeDegrees>
              <LongitudeDegrees>-0.0493083894252777099609375</LongitudeDegrees>
            </Position>
            <AltitudeMeters>350.20001220703125</AltitudeMeters>
            <DistanceMeters>53506.273998125</DistanceMeters>
          </Trackpoint>
          <Trackpoint>
            <Time>2022-04-23T12:21:17.000Z</Time>
            <Position>
              <LatitudeDegrees>41.5578420460224151611328125</LatitudeDegrees>
              <LongitudeDegrees>-0.0493011809885501861572265625</LongitudeDegrees>
            </Position>
            <AltitudeMeters>349.79998779296875</AltitudeMeters>
            <DistanceMeters>53515.846731055</DistanceMeters>
          </Trackpoint>
          <Trackpoint>
            <Time>2022-04-23T12:21:23.000Z</Time>
            <Position>
              <LatitudeDegrees>41.55734575353562831878662109375</LatitudeDegrees>
              <LongitudeDegrees>-0.04921459592878818511962890625</LongitudeDegrees>
            </Position>
            <AltitudeMeters>349</AltitudeMeters>
            <DistanceMeters>53571.553786899</DistanceMeters>
          </Trackpoint>
          <Trackpoint>
            <Time>2022-04-23T12:21:24.000Z</Time>
            <Position>
              <LatitudeDegrees>41.55726964585483074188232421875</LatitudeDegrees>
              <LongitudeDegrees>-0.04918090067803859710693359375</LongitudeDegrees>
            </Position>
            <AltitudeMeters>348.79998779296875</AltitudeMeters>
            <DistanceMeters>53580.477195109</DistanceMeters>
          </Trackpoint>
          <Trackpoint>
            <Time>2022-04-23T12:21:28.000Z</Time>
            <Position>
              <LatitudeDegrees>41.55696957372128963470458984375</LatitudeDegrees>
              <LongitudeDegrees>-0.04903270862996578216552734375</LongitudeDegrees>
            </Position>
            <AltitudeMeters>347.79998779296875</AltitudeMeters>
            <DistanceMeters>53616.083439963</DistanceMeters>
          </Trackpoint>
          <Trackpoint>
            <Time>2022-04-23T12:21:30.000Z</Time>
            <Position>
              <LatitudeDegrees>41.55681417323648929595947265625</LatitudeDegrees>
              <LongitudeDegrees>-0.0489521585404872894287109375</LongitudeDegrees>
            </Position>
            <AltitudeMeters>347.399993896484375</AltitudeMeters>
            <DistanceMeters>53634.635322174</DistanceMeters>
          </Trackpoint>
          <Trackpoint>
            <Time>2022-04-23T12:21:32.000Z</Time>
            <Position>
              <LatitudeDegrees>41.5566570125520229339599609375</LatitudeDegrees>
              <LongitudeDegrees>-0.0488685071468353271484375</LongitudeDegrees>
            </Position>
            <AltitudeMeters>346.600006103515625</AltitudeMeters>
            <DistanceMeters>53653.464044945</DistanceMeters>
          </Trackpoint>
          <Trackpoint>
            <Time>2022-04-23T12:21:36.000Z</Time>
            <Position>
              <LatitudeDegrees>41.55635534785687923431396484375</LatitudeDegrees>
              <LongitudeDegrees>-0.0486872904002666473388671875</LongitudeDegrees>
            </Position>
            <AltitudeMeters>345.79998779296875</AltitudeMeters>
            <DistanceMeters>53690.276319691</DistanceMeters>
          </Trackpoint>
          <Trackpoint>
            <Time>2022-04-23T12:21:38.000Z</Time>
            <Position>
              <LatitudeDegrees>41.55620330013334751129150390625</LatitudeDegrees>
              <LongitudeDegrees>-0.04860808141529560089111328125</LongitudeDegrees>
            </Position>
            <AltitudeMeters>345.600006103515625</AltitudeMeters>
            <DistanceMeters>53708.440098839</DistanceMeters>
          </Trackpoint>
          <Trackpoint>
            <Time>2022-04-23T12:21:44.000Z</Time>
            <Position>
              <LatitudeDegrees>41.55573718249797821044921875</LatitudeDegrees>
              <LongitudeDegrees>-0.04835260100662708282470703125</LongitudeDegrees>
            </Position>
            <AltitudeMeters>345</AltitudeMeters>
            <DistanceMeters>53764.51407389</DistanceMeters>
          </Trackpoint>
          <Trackpoint>
            <Time>2022-04-23T12:21:47.000Z</Time>
            <Position>
              <LatitudeDegrees>41.55550626106560230255126953125</LatitudeDegrees>
              <LongitudeDegrees>-0.04823810420930385589599609375</LongitudeDegrees>
            </Position>
            <AltitudeMeters>344.399993896484375</AltitudeMeters>
            <DistanceMeters>53791.928251647</DistanceMeters>
          </Trackpoint>
          <Trackpoint>
            <Time>2022-04-23T12:21:51.000Z</Time>
            <Position>
              <LatitudeDegrees>41.5552295744419097900390625</LatitudeDegrees>
              <LongitudeDegrees>-0.0481052510440349578857421875</LongitudeDegrees>
            </Position>
            <AltitudeMeters>343.79998779296875</AltitudeMeters>
            <DistanceMeters>53824.651677278</DistanceMeters>
          </Trackpoint>
          <Trackpoint>
            <Time>2022-04-23T12:21:52.000Z</Time>
            <Position>
              <LatitudeDegrees>41.55516444705426692962646484375</LatitudeDegrees>
              <LongitudeDegrees>-0.0480638444423675537109375</LongitudeDegrees>
            </Position>
            <AltitudeMeters>343.399993896484375</AltitudeMeters>
            <DistanceMeters>53832.679044562</DistanceMeters>
          </Trackpoint>
          <Trackpoint>
            <Time>2022-04-23T12:21:55.000Z</Time>
            <Position>
              <LatitudeDegrees>41.554969735443592071533203125</LatitudeDegrees>
              <LongitudeDegrees>-0.047917328774929046630859375</LongitudeDegrees>
            </Position>
            <AltitudeMeters>342.399993896484375</AltitudeMeters>
            <DistanceMeters>53857.550460417</DistanceMeters>
          </Trackpoint>
          <Trackpoint>
            <Time>2022-04-23T12:21:57.000Z</Time>
            <Position>
              <LatitudeDegrees>41.5548337809741497039794921875</LatitudeDegrees>
              <LongitudeDegrees>-0.047827474772930145263671875</LongitudeDegrees>
            </Position>
            <AltitudeMeters>342</AltitudeMeters>
            <DistanceMeters>53874.431816479</DistanceMeters>
          </Trackpoint>
          <Trackpoint>
            <Time>2022-04-23T12:22:04.000Z</Time>
            <Position>
              <LatitudeDegrees>41.55437252484261989593505859375</LatitudeDegrees>
              <LongitudeDegrees>-0.0475394725799560546875</LongitudeDegrees>
            </Position>
            <AltitudeMeters>341.79998779296875</AltitudeMeters>
            <DistanceMeters>53931.098023898</DistanceMeters>
          </Trackpoint>
          <Trackpoint>
            <Time>2022-04-23T12:22:10.000Z</Time>
            <Position>
              <LatitudeDegrees>41.55397228896617889404296875</LatitudeDegrees>
              <LongitudeDegrees>-0.04728508181869983673095703125</LongitudeDegrees>
            </Position>
            <AltitudeMeters>341.20001220703125</AltitudeMeters>
            <DistanceMeters>53980.427232483</DistanceMeters>
          </Trackpoint>
          <Trackpoint>
            <Time>2022-04-23T12:22:11.000Z</Time>
            <Position>
              <LatitudeDegrees>41.553920991718769073486328125</LatitudeDegrees>
              <LongitudeDegrees>-0.04725993610918521881103515625</LongitudeDegrees>
            </Position>
            <AltitudeMeters>341</AltitudeMeters>
            <DistanceMeters>53986.508199761</DistanceMeters>
          </Trackpoint>
          <Trackpoint>
            <Time>2022-04-23T12:22:16.000Z</Time>
            <Position>
              <LatitudeDegrees>41.55357724986970424652099609375</LatitudeDegrees>
              <LongitudeDegrees>-0.04711191169917583465576171875</LongitudeDegrees>
            </Position>
            <AltitudeMeters>340.600006103515625</AltitudeMeters>
            <DistanceMeters>54026.704836913</DistanceMeters>
          </Trackpoint>
          <Trackpoint>
            <Time>2022-04-23T12:22:17.000Z</Time>
            <Position>
              <LatitudeDegrees>41.5535057522356510162353515625</LatitudeDegrees>
              <LongitudeDegrees>-0.04708014428615570068359375</LongitudeDegrees>
            </Position>
            <AltitudeMeters>340.399993896484375</AltitudeMeters>
            <DistanceMeters>54035.090910806</DistanceMeters>
          </Trackpoint>
          <Trackpoint>
            <Time>2022-04-23T12:22:18.000Z</Time>
            <Position>
              <LatitudeDegrees>41.55343458987772464752197265625</LatitudeDegrees>
              <LongitudeDegrees>-0.04704929888248443603515625</LongitudeDegrees>
            </Position>
            <AltitudeMeters>340.20001220703125</AltitudeMeters>
            <DistanceMeters>54043.4175504</DistanceMeters>
          </Trackpoint>
          <Trackpoint>
            <Time>2022-04-23T12:22:22.000Z</Time>
            <Position>
              <LatitudeDegrees>41.55316620133817195892333984375</LatitudeDegrees>
              <LongitudeDegrees>-0.0468814931809902191162109375</LongitudeDegrees>
            </Position>
            <AltitudeMeters>339.600006103515625</AltitudeMeters>
            <DistanceMeters>54076.397707584</DistanceMeters>
          </Trackpoint>
          <Trackpoint>
            <Time>2022-04-23T12:22:23.000Z</Time>
            <Position>
              <LatitudeDegrees>41.553094871342182159423828125</LatitudeDegrees>
              <LongitudeDegrees>-0.04682541824877262115478515625</LongitudeDegrees>
            </Position>
            <AltitudeMeters>339</AltitudeMeters>
            <DistanceMeters>54085.608928907</DistanceMeters>
          </Trackpoint>
          <Trackpoint>
            <Time>2022-04-23T12:22:26.000Z</Time>
            <Position>
              <LatitudeDegrees>41.55285791493952274322509765625</LatitudeDegrees>
              <LongitudeDegrees>-0.04660815931856632232666015625</LongitudeDegrees>
            </Position>
            <AltitudeMeters>337.399993896484375</AltitudeMeters>
            <DistanceMeters>54117.593853801</DistanceMeters>
          </Trackpoint>
          <Trackpoint>
            <Time>2022-04-23T12:22:29.000Z</Time>
            <Position>
              <LatitudeDegrees>41.55262875370681285858154296875</LatitudeDegrees>
              <LongitudeDegrees>-0.0464439578354358673095703125</LongitudeDegrees>
            </Position>
            <AltitudeMeters>336.79998779296875</AltitudeMeters>
            <DistanceMeters>54146.535534141</DistanceMeters>
          </Trackpoint>
          <Trackpoint>
            <Time>2022-04-23T12:22:30.000Z</Time>
            <Position>
              <LatitudeDegrees>41.5525394864380359649658203125</LatitudeDegrees>
              <LongitudeDegrees>-0.0464062392711639404296875</LongitudeDegrees>
            </Position>
            <AltitudeMeters>336.399993896484375</AltitudeMeters>
            <DistanceMeters>54156.956026895</DistanceMeters>
          </Trackpoint>
          <Trackpoint>
            <Time>2022-04-23T12:22:32.000Z</Time>
            <Position>
              <LatitudeDegrees>41.55235148034989833831787109375</LatitudeDegrees>
              <LongitudeDegrees>-0.04636173136532306671142578125</LongitudeDegrees>
            </Position>
            <AltitudeMeters>335.399993896484375</AltitudeMeters>
            <DistanceMeters>54178.207408337</DistanceMeters>
          </Trackpoint>
          <Trackpoint>
            <Time>2022-04-23T12:22:33.000Z</Time>
            <Position>
              <LatitudeDegrees>41.5522603690624237060546875</LatitudeDegrees>
              <LongitudeDegrees>-0.046356618404388427734375</LongitudeDegrees>
            </Position>
            <AltitudeMeters>334.600006103515625</AltitudeMeters>
            <DistanceMeters>54188.357044393</DistanceMeters>
          </Trackpoint>
          <Trackpoint>
            <Time>2022-04-23T12:22:34.000Z</Time>
            <Position>
              <LatitudeDegrees>41.5521726943552494049072265625</LatitudeDegrees>
              <LongitudeDegrees>-0.04636139608919620513916015625</LongitudeDegrees>
            </Position>
            <AltitudeMeters>334.20001220703125</AltitudeMeters>
            <DistanceMeters>54198.123091055</DistanceMeters>
          </Trackpoint>
          <Trackpoint>
            <Time>2022-04-23T12:22:36.000Z</Time>
            <Position>
              <LatitudeDegrees>41.55199684202671051025390625</LatitudeDegrees>
              <LongitudeDegrees>-0.04640464670956134796142578125</LongitudeDegrees>
            </Position>
            <AltitudeMeters>333.600006103515625</AltitudeMeters>
            <DistanceMeters>54218.024326012</DistanceMeters>
          </Trackpoint>
          <Trackpoint>
            <Time>2022-04-23T12:22:38.000Z</Time>
            <Position>
              <LatitudeDegrees>41.5518240071833133697509765625</LatitudeDegrees>
              <LongitudeDegrees>-0.04647488705813884735107421875</LongitudeDegrees>
            </Position>
            <AltitudeMeters>332.79998779296875</AltitudeMeters>
            <DistanceMeters>54238.130954829</DistanceMeters>
          </Trackpoint>
          <Trackpoint>
            <Time>2022-04-23T12:22:40.000Z</Time>
            <Position>
              <LatitudeDegrees>41.55165863223373889923095703125</LatitudeDegrees>
              <LongitudeDegrees>-0.04652970470488071441650390625</LongitudeDegrees>
            </Position>
            <AltitudeMeters>332.399993896484375</AltitudeMeters>
            <DistanceMeters>54257.094916031</DistanceMeters>
          </Trackpoint>
          <Trackpoint>
            <Time>2022-04-23T12:22:42.000Z</Time>
            <Position>
              <LatitudeDegrees>41.55148764140903949737548828125</LatitudeDegrees>
              <LongitudeDegrees>-0.0465054810047149658203125</LongitudeDegrees>
            </Position>
            <AltitudeMeters>332.20001220703125</AltitudeMeters>
            <DistanceMeters>54276.232833905</DistanceMeters>
          </Trackpoint>
          <Trackpoint>
            <Time>2022-04-23T12:22:44.000Z</Time>
            <Position>
              <LatitudeDegrees>41.5513834543526172637939453125</LatitudeDegrees>
              <LongitudeDegrees>-0.046398527920246124267578125</LongitudeDegrees>
            </Position>
            <AltitudeMeters>331.79998779296875</AltitudeMeters>
            <DistanceMeters>54290.855836682</DistanceMeters>
          </Trackpoint>
          <Trackpoint>
            <Time>2022-04-23T12:22:45.000Z</Time>
            <Position>
              <LatitudeDegrees>41.551338024437427520751953125</LatitudeDegrees>
              <LongitudeDegrees>-0.046319067478179931640625</LongitudeDegrees>
            </Position>
            <AltitudeMeters>331.399993896484375</AltitudeMeters>
            <DistanceMeters>54299.184644954</DistanceMeters>
          </Trackpoint>
          <Trackpoint>
            <Time>2022-04-23T12:22:47.000Z</Time>
            <Position>
              <LatitudeDegrees>41.55125462450087070465087890625</LatitudeDegrees>
              <LongitudeDegrees>-0.0461479090154170989990234375</LongitudeDegrees>
            </Position>
            <AltitudeMeters>330</AltitudeMeters>
            <DistanceMeters>54316.196815599</DistanceMeters>
          </Trackpoint>
          <Trackpoint>
            <Time>2022-04-23T12:22:48.000Z</Time>
            <Position>
              <LatitudeDegrees>41.55121707357466220855712890625</LatitudeDegrees>
              <LongitudeDegrees>-0.04605847410857677459716796875</LongitudeDegrees>
            </Position>
            <AltitudeMeters>328.79998779296875</AltitudeMeters>
            <DistanceMeters>54324.738126247</DistanceMeters>
          </Trackpoint>
          <Trackpoint>
            <Time>2022-04-23T12:22:50.000Z</Time>
            <Position>
              <LatitudeDegrees>41.5511311590671539306640625</LatitudeDegrees>
              <LongitudeDegrees>-0.0458974577486515045166015625</LongitudeDegrees>
            </Position>
            <AltitudeMeters>327.79998779296875</AltitudeMeters>
            <DistanceMeters>54341.209849801</DistanceMeters>
          </Trackpoint>
          <Trackpoint>
            <Time>2022-04-23T12:22:51.000Z</Time>
            <Position>
              <LatitudeDegrees>41.551074497401714324951171875</LatitudeDegrees>
              <LongitudeDegrees>-0.04581280052661895751953125</LongitudeDegrees>
            </Position>
            <AltitudeMeters>327.399993896484375</AltitudeMeters>
            <DistanceMeters>54350.669662566</DistanceMeters>
          </Trackpoint>
          <Trackpoint>
            <Time>2022-04-23T12:22:53.000Z</Time>
            <Position>
              <LatitudeDegrees>41.550971567630767822265625</LatitudeDegrees>
              <LongitudeDegrees>-0.04569855518639087677001953125</LongitudeDegrees>
            </Position>
            <AltitudeMeters>326.79998779296875</AltitudeMeters>
            <DistanceMeters>54365.562807556</DistanceMeters>
          </Trackpoint>
          <Trackpoint>
            <Time>2022-04-23T12:22:56.000Z</Time>
            <Position>
              <LatitudeDegrees>41.5507829748094081878662109375</LatitudeDegrees>
              <LongitudeDegrees>-0.04554131068289279937744140625</LongitudeDegrees>
            </Position>
            <AltitudeMeters>326.600006103515625</AltitudeMeters>
            <DistanceMeters>54390.304815201</DistanceMeters>
          </Trackpoint>
          <Trackpoint>
            <Time>2022-04-23T12:23:00.000Z</Time>
            <Position>
              <LatitudeDegrees>41.55049136839807033538818359375</LatitudeDegrees>
              <LongitudeDegrees>-0.04540937952697277069091796875</LongitudeDegrees>
            </Position>
            <AltitudeMeters>326.600006103515625</AltitudeMeters>
            <DistanceMeters>54424.571269206</DistanceMeters>
          </Trackpoint>
          <Trackpoint>
            <Time>2022-04-23T12:23:02.000Z</Time>
            <Position>
              <LatitudeDegrees>41.55035759322345256805419921875</LatitudeDegrees>
              <LongitudeDegrees>-0.04540837369859218597412109375</LongitudeDegrees>
            </Position>
            <AltitudeMeters>326.79998779296875</AltitudeMeters>
            <DistanceMeters>54439.461079039</DistanceMeters>
          </Trackpoint>
          <Trackpoint>
            <Time>2022-04-23T12:23:04.000Z</Time>
            <Position>
              <LatitudeDegrees>41.55021191574633121490478515625</LatitudeDegrees>
              <LongitudeDegrees>-0.045445002615451812744140625</LongitudeDegrees>
            </Position>
            <AltitudeMeters>327</AltitudeMeters>
            <DistanceMeters>54455.95991701</DistanceMeters>
          </Trackpoint>
          <Trackpoint>
            <Time>2022-04-23T12:23:09.000Z</Time>
            <Position>
              <LatitudeDegrees>41.54986842535436153411865234375</LatitudeDegrees>
              <LongitudeDegrees>-0.04559780471026897430419921875</LongitudeDegrees>
            </Position>
            <AltitudeMeters>327.600006103515625</AltitudeMeters>
            <DistanceMeters>54496.254157353</DistanceMeters>
          </Trackpoint>
          <Trackpoint>
            <Time>2022-04-23T12:23:11.000Z</Time>
            <Position>
              <LatitudeDegrees>41.54974001459777355194091796875</LatitudeDegrees>
              <LongitudeDegrees>-0.04566217772662639617919921875</LongitudeDegrees>
            </Position>
            <AltitudeMeters>327.79998779296875</AltitudeMeters>
            <DistanceMeters>54511.519186754</DistanceMeters>
          </Trackpoint>
          <Trackpoint>
            <Time>2022-04-23T12:23:12.000Z</Time>
            <Position>
              <LatitudeDegrees>41.54967673122882843017578125</LatitudeDegrees>
              <LongitudeDegrees>-0.04569746553897857666015625</LongitudeDegrees>
            </Position>
            <AltitudeMeters>328</AltitudeMeters>
            <DistanceMeters>54519.151553565</DistanceMeters>
          </Trackpoint>
          <Trackpoint>
            <Time>2022-04-23T12:23:14.000Z</Time>
            <Position>
              <LatitudeDegrees>41.54953633435070514678955078125</LatitudeDegrees>
              <LongitudeDegrees>-0.045774243772029876708984375</LongitudeDegrees>
            </Position>
            <AltitudeMeters>328</AltitudeMeters>
            <DistanceMeters>54536.036118807</DistanceMeters>
          </Trackpoint>
          <Trackpoint>
            <Time>2022-04-23T12:23:20.000Z</Time>
            <Position>
              <LatitudeDegrees>41.549188904464244842529296875</LatitudeDegrees>
              <LongitudeDegrees>-0.04599921405315399169921875</LongitudeDegrees>
            </Position>
            <AltitudeMeters>328.20001220703125</AltitudeMeters>
            <DistanceMeters>54579.007110785</DistanceMeters>
          </Trackpoint>
          <Trackpoint>
            <Time>2022-04-23T12:23:26.000Z</Time>
            <Position>
              <LatitudeDegrees>41.54887684620916843414306640625</LatitudeDegrees>
              <LongitudeDegrees>-0.04628495313227176666259765625</LongitudeDegrees>
            </Position>
            <AltitudeMeters>328.399993896484375</AltitudeMeters>
            <DistanceMeters>54621.112524667</DistanceMeters>
          </Trackpoint>
          <Trackpoint>
            <Time>2022-04-23T12:23:27.000Z</Time>
            <Position>
              <LatitudeDegrees>41.54883007518947124481201171875</LatitudeDegrees>
              <LongitudeDegrees>-0.04633792676031589508056640625</LongitudeDegrees>
            </Position>
            <AltitudeMeters>328.399993896484375</AltitudeMeters>
            <DistanceMeters>54627.937268934</DistanceMeters>
          </Trackpoint>
          <Trackpoint>
            <Time>2022-04-23T12:23:30.000Z</Time>
            <Position>
              <LatitudeDegrees>41.5486918576061725616455078125</LatitudeDegrees>
              <LongitudeDegrees>-0.046494416892528533935546875</LongitudeDegrees>
            </Position>
            <AltitudeMeters>329</AltitudeMeters>
            <DistanceMeters>54648.101301813</DistanceMeters>
          </Trackpoint>
          <Trackpoint>
            <Time>2022-04-23T12:23:35.000Z</Time>
            <Position>
              <LatitudeDegrees>41.5484729222953319549560546875</LatitudeDegrees>
              <LongitudeDegrees>-0.04674620926380157470703125</LongitudeDegrees>
            </Position>
            <AltitudeMeters>329</AltitudeMeters>
            <DistanceMeters>54680.252506157</DistanceMeters>
          </Trackpoint>
          <Trackpoint>
            <Time>2022-04-23T12:23:45.000Z</Time>
            <Position>
              <LatitudeDegrees>41.54802859760820865631103515625</LatitudeDegrees>
              <LongitudeDegrees>-0.0472653843462467193603515625</LongitudeDegrees>
            </Position>
            <AltitudeMeters>328.600006103515625</AltitudeMeters>
            <DistanceMeters>54745.948481351</DistanceMeters>
          </Trackpoint>
          <Trackpoint>
            <Time>2022-04-23T12:23:53.000Z</Time>
            <Position>
              <LatitudeDegrees>41.54766373336315155029296875</LatitudeDegrees>
              <LongitudeDegrees>-0.0476522929966449737548828125</LongitudeDegrees>
            </Position>
            <AltitudeMeters>328</AltitudeMeters>
            <DistanceMeters>54797.793370727</DistanceMeters>
          </Trackpoint>
          <Trackpoint>
            <Time>2022-04-23T12:23:54.000Z</Time>
            <Position>
              <LatitudeDegrees>41.54761235229671001434326171875</LatitudeDegrees>
              <LongitudeDegrees>-0.0476925261318683624267578125</LongitudeDegrees>
            </Position>
            <AltitudeMeters>327.600006103515625</AltitudeMeters>
            <DistanceMeters>54804.422122643</DistanceMeters>
          </Trackpoint>
          <Trackpoint>
            <Time>2022-04-23T12:23:56.000Z</Time>
            <Position>
              <LatitudeDegrees>41.54750254936516284942626953125</LatitudeDegrees>
              <LongitudeDegrees>-0.047761090099811553955078125</LongitudeDegrees>
            </Position>
            <AltitudeMeters>327</AltitudeMeters>
            <DistanceMeters>54817.911900273</DistanceMeters>
          </Trackpoint>
          <Trackpoint>
            <Time>2022-04-23T12:23:57.000Z</Time>
            <Position>
              <LatitudeDegrees>41.5474429540336132049560546875</LatitudeDegrees>
              <LongitudeDegrees>-0.0477813743054866790771484375</LongitudeDegrees>
            </Position>
            <AltitudeMeters>326.79998779296875</AltitudeMeters>
            <DistanceMeters>54824.75646283</DistanceMeters>
          </Trackpoint>
          <Trackpoint>
            <Time>2022-04-23T12:23:58.000Z</Time>
            <Position>
              <LatitudeDegrees>41.54738302342593669891357421875</LatitudeDegrees>
              <LongitudeDegrees>-0.0477921031415462493896484375</LongitudeDegrees>
            </Position>
            <AltitudeMeters>326.600006103515625</AltitudeMeters>
            <DistanceMeters>54831.486608701</DistanceMeters>
          </Trackpoint>
          <Trackpoint>
            <Time>2022-04-23T12:23:59.000Z</Time>
            <Position>
              <LatitudeDegrees>41.5473209135234355926513671875</LatitudeDegrees>
              <LongitudeDegrees>-0.0477991439402103424072265625</LongitudeDegrees>
            </Position>
            <AltitudeMeters>326.399993896484375</AltitudeMeters>
            <DistanceMeters>54838.424209687</DistanceMeters>
          </Trackpoint>
          <Trackpoint>
            <Time>2022-04-23T12:24:01.000Z</Time>
            <Position>
              <LatitudeDegrees>41.54719376005232334136962890625</LatitudeDegrees>
              <LongitudeDegrees>-0.04779419861733913421630859375</LongitudeDegrees>
            </Position>
            <AltitudeMeters>326.20001220703125</AltitudeMeters>
            <DistanceMeters>54852.582552351</DistanceMeters>
          </Trackpoint>
          <Trackpoint>
            <Time>2022-04-23T12:24:03.000Z</Time>
            <Position>
              <LatitudeDegrees>41.547063924372196197509765625</LatitudeDegrees>
              <LongitudeDegrees>-0.04775446839630603790283203125</LongitudeDegrees>
            </Position>
            <AltitudeMeters>326.20001220703125</AltitudeMeters>
            <DistanceMeters>54867.407633483</DistanceMeters>
          </Trackpoint>
          <Trackpoint>
            <Time>2022-04-23T12:24:10.000Z</Time>
            <Position>
              <LatitudeDegrees>41.5466062724590301513671875</LatitudeDegrees>
              <LongitudeDegrees>-0.04760317504405975341796875</LongitudeDegrees>
            </Position>
            <AltitudeMeters>325.79998779296875</AltitudeMeters>
            <DistanceMeters>54919.881140793</DistanceMeters>
          </Trackpoint>
          <Trackpoint>
            <Time>2022-04-23T12:24:13.000Z</Time>
            <Position>
              <LatitudeDegrees>41.54640334658324718475341796875</LatitudeDegrees>
              <LongitudeDegrees>-0.04753218032419681549072265625</LongitudeDegrees>
            </Position>
            <AltitudeMeters>325.399993896484375</AltitudeMeters>
            <DistanceMeters>54943.228722994</DistanceMeters>
          </Trackpoint>
          <Trackpoint>
            <Time>2022-04-23T12:24:17.000Z</Time>
            <Position>
              <LatitudeDegrees>41.54611987061798572540283203125</LatitudeDegrees>
              <LongitudeDegrees>-0.04743562079966068267822265625</LongitudeDegrees>
            </Position>
            <AltitudeMeters>324.600006103515625</AltitudeMeters>
            <DistanceMeters>54975.789207557</DistanceMeters>
          </Trackpoint>
          <Trackpoint>
            <Time>2022-04-23T12:24:22.000Z</Time>
            <Position>
              <LatitudeDegrees>41.5457538329064846038818359375</LatitudeDegrees>
              <LongitudeDegrees>-0.04731827415525913238525390625</LongitudeDegrees>
            </Position>
            <AltitudeMeters>323.399993896484375</AltitudeMeters>
            <DistanceMeters>55017.686183103</DistanceMeters>
          </Trackpoint>
          <Trackpoint>
            <Time>2022-04-23T12:24:29.000Z</Time>
            <Position>
              <LatitudeDegrees>41.54524932615458965301513671875</LatitudeDegrees>
              <LongitudeDegrees>-0.047151558101177215576171875</LongitudeDegrees>
            </Position>
            <AltitudeMeters>322.20001220703125</AltitudeMeters>
            <DistanceMeters>55075.530607513</DistanceMeters>
          </Trackpoint>
          <Trackpoint>
            <Time>2022-04-23T12:24:35.000Z</Time>
            <Position>
              <LatitudeDegrees>41.54482218436896800994873046875</LatitudeDegrees>
              <LongitudeDegrees>-0.0470129214227199554443359375</LongitudeDegrees>
            </Position>
            <AltitudeMeters>321.600006103515625</AltitudeMeters>
            <DistanceMeters>55124.454878615</DistanceMeters>
          </Trackpoint>
          <Trackpoint>
            <Time>2022-04-23T12:24:41.000Z</Time>
            <Position>
              <LatitudeDegrees>41.544408537447452545166015625</LatitudeDegrees>
              <LongitudeDegrees>-0.04686959087848663330078125</LongitudeDegrees>
            </Position>
            <AltitudeMeters>321.20001220703125</AltitudeMeters>
            <DistanceMeters>55172.017624023</DistanceMeters>
          </Trackpoint>
          <Trackpoint>
            <Time>2022-04-23T12:24:42.000Z</Time>
            <Position>
              <LatitudeDegrees>41.54432865791022777557373046875</LatitudeDegrees>
              <LongitudeDegrees>-0.04684452898800373077392578125</LongitudeDegrees>
            </Position>
            <AltitudeMeters>321.20001220703125</AltitudeMeters>
            <DistanceMeters>55181.150576236</DistanceMeters>
          </Trackpoint>
          <Trackpoint>
            <Time>2022-04-23T12:24:48.000Z</Time>
            <Position>
              <LatitudeDegrees>41.54397628270089626312255859375</LatitudeDegrees>
              <LongitudeDegrees>-0.046739168465137481689453125</LongitudeDegrees>
            </Position>
            <AltitudeMeters>321.79998779296875</AltitudeMeters>
            <DistanceMeters>55221.34069808</DistanceMeters>
          </Trackpoint>
          <Trackpoint>
            <Time>2022-04-23T12:24:51.000Z</Time>
            <Position>
              <LatitudeDegrees>41.543810404837131500244140625</LatitudeDegrees>
              <LongitudeDegrees>-0.04669348709285259246826171875</LongitudeDegrees>
            </Position>
            <AltitudeMeters>322.20001220703125</AltitudeMeters>
            <DistanceMeters>55240.191469104</DistanceMeters>
          </Trackpoint>
          <Trackpoint>
            <Time>2022-04-23T12:24:54.000Z</Time>
            <Position>
              <LatitudeDegrees>41.5436422638595104217529296875</LatitudeDegrees>
              <LongitudeDegrees>-0.046671442687511444091796875</LongitudeDegrees>
            </Position>
            <AltitudeMeters>322.399993896484375</AltitudeMeters>
            <DistanceMeters>55258.996197062</DistanceMeters>
          </Trackpoint>
          <Trackpoint>
            <Time>2022-04-23T12:24:55.000Z</Time>
            <Position>
              <LatitudeDegrees>41.54358811676502227783203125</LatitudeDegrees>
              <LongitudeDegrees>-0.04667454399168491363525390625</LongitudeDegrees>
            </Position>
            <AltitudeMeters>322.399993896484375</AltitudeMeters>
            <DistanceMeters>55265.027961148</DistanceMeters>
          </Trackpoint>
          <Trackpoint>
            <Time>2022-04-23T12:24:59.000Z</Time>
            <Position>
              <LatitudeDegrees>41.54337781481444835662841796875</LatitudeDegrees>
              <LongitudeDegrees>-0.04674495197832584381103515625</LongitudeDegrees>
            </Position>
            <AltitudeMeters>323.399993896484375</AltitudeMeters>
            <DistanceMeters>55289.158759921</DistanceMeters>
          </Trackpoint>
          <Trackpoint>
            <Time>2022-04-23T12:25:03.000Z</Time>
            <Position>
              <LatitudeDegrees>41.5431690216064453125</LatitudeDegrees>
              <LongitudeDegrees>-0.04684620536863803863525390625</LongitudeDegrees>
            </Position>
            <AltitudeMeters>324.600006103515625</AltitudeMeters>
            <DistanceMeters>55313.881416618</DistanceMeters>
          </Trackpoint>
          <Trackpoint>
            <Time>2022-04-23T12:25:08.000Z</Time>
            <Position>
              <LatitudeDegrees>41.54291848652064800262451171875</LatitudeDegrees>
              <LongitudeDegrees>-0.04696757532656192779541015625</LongitudeDegrees>
            </Position>
            <AltitudeMeters>325.20001220703125</AltitudeMeters>
            <DistanceMeters>55343.543149678</DistanceMeters>
          </Trackpoint>
          <Trackpoint>
            <Time>2022-04-23T12:25:16.000Z</Time>
            <Position>
              <LatitudeDegrees>41.5424926020205020904541015625</LatitudeDegrees>
              <LongitudeDegrees>-0.0471010990440845489501953125</LongitudeDegrees>
            </Position>
            <AltitudeMeters>325.20001220703125</AltitudeMeters>
            <DistanceMeters>55392.232634876</DistanceMeters>
          </Trackpoint>
          <Trackpoint>
            <Time>2022-04-23T12:25:18.000Z</Time>
            <Position>
              <LatitudeDegrees>41.54237550683319568634033203125</LatitudeDegrees>
              <LongitudeDegrees>-0.047078467905521392822265625</LongitudeDegrees>
            </Position>
            <AltitudeMeters>325.20001220703125</AltitudeMeters>
            <DistanceMeters>55405.401294186</DistanceMeters>
          </Trackpoint>
          <Trackpoint>
            <Time>2022-04-23T12:25:20.000Z</Time>
            <Position>
              <LatitudeDegrees>41.54226184822618961334228515625</LatitudeDegrees>
              <LongitudeDegrees>-0.04702876321971416473388671875</LongitudeDegrees>
            </Position>
            <AltitudeMeters>325</AltitudeMeters>
            <DistanceMeters>55418.711820089</DistanceMeters>
          </Trackpoint>
          <Trackpoint>
            <Time>2022-04-23T12:25:21.000Z</Time>
            <Position>
              <LatitudeDegrees>41.54220853932201862335205078125</LatitudeDegrees>
              <LongitudeDegrees>-0.0469938106834888458251953125</LongitudeDegrees>
            </Position>
            <AltitudeMeters>324.79998779296875</AltitudeMeters>
            <DistanceMeters>55425.320789734</DistanceMeters>
          </Trackpoint>
          <Trackpoint>
            <Time>2022-04-23T12:25:26.000Z</Time>
            <Position>
              <LatitudeDegrees>41.5419387258589267730712890625</LatitudeDegrees>
              <LongitudeDegrees>-0.04678736440837383270263671875</LongitudeDegrees>
            </Position>
            <AltitudeMeters>324</AltitudeMeters>
            <DistanceMeters>55459.92747866</DistanceMeters>
          </Trackpoint>
          <Trackpoint>
            <Time>2022-04-23T12:25:35.000Z</Time>
            <Position>
              <LatitudeDegrees>41.5414274297654628753662109375</LatitudeDegrees>
              <LongitudeDegrees>-0.046426355838775634765625</LongitudeDegrees>
            </Position>
            <AltitudeMeters>323.600006103515625</AltitudeMeters>
            <DistanceMeters>55524.293822061</DistanceMeters>
          </Trackpoint>
          <Trackpoint>
            <Time>2022-04-23T12:25:40.000Z</Time>
            <Position>
              <LatitudeDegrees>41.5411198139190673828125</LatitudeDegrees>
              <LongitudeDegrees>-0.046250335872173309326171875</LongitudeDegrees>
            </Position>
            <AltitudeMeters>323.399993896484375</AltitudeMeters>
            <DistanceMeters>55561.540172809</DistanceMeters>
          </Trackpoint>
          <Trackpoint>
            <Time>2022-04-23T12:25:43.000Z</Time>
            <Position>
              <LatitudeDegrees>41.5409225039184093475341796875</LatitudeDegrees>
              <LongitudeDegrees>-0.0461344979703426361083984375</LongitudeDegrees>
            </Position>
            <AltitudeMeters>323.399993896484375</AltitudeMeters>
            <DistanceMeters>55585.527972441</DistanceMeters>
          </Trackpoint>
          <Trackpoint>
            <Time>2022-04-23T12:25:49.000Z</Time>
            <Position>
              <LatitudeDegrees>41.540503911674022674560546875</LatitudeDegrees>
              <LongitudeDegrees>-0.0458656065165996551513671875</LongitudeDegrees>
            </Position>
            <AltitudeMeters>322.600006103515625</AltitudeMeters>
            <DistanceMeters>55637.223553137</DistanceMeters>
          </Trackpoint>
          <Trackpoint>
            <Time>2022-04-23T12:25:50.000Z</Time>
            <Position>
              <LatitudeDegrees>41.5404299832880496978759765625</LatitudeDegrees>
              <LongitudeDegrees>-0.04582076333463191986083984375</LongitudeDegrees>
            </Position>
            <AltitudeMeters>322.399993896484375</AltitudeMeters>
            <DistanceMeters>55646.260588677</DistanceMeters>
          </Trackpoint>
          <Trackpoint>
            <Time>2022-04-23T12:25:51.000Z</Time>
            <Position>
              <LatitudeDegrees>41.54035446234047412872314453125</LatitudeDegrees>
              <LongitudeDegrees>-0.0457787699997425079345703125</LongitudeDegrees>
            </Position>
            <AltitudeMeters>322.20001220703125</AltitudeMeters>
            <DistanceMeters>55655.3648224</DistanceMeters>
          </Trackpoint>
          <Trackpoint>
            <Time>2022-04-23T12:25:54.000Z</Time>
            <Position>
              <LatitudeDegrees>41.5401198528707027435302734375</LatitudeDegrees>
              <LongitudeDegrees>-0.04566016606986522674560546875</LongitudeDegrees>
            </Position>
            <AltitudeMeters>321</AltitudeMeters>
            <DistanceMeters>55683.284085082</DistanceMeters>
          </Trackpoint>
          <Trackpoint>
            <Time>2022-04-23T12:25:56.000Z</Time>
            <Position>
              <LatitudeDegrees>41.5399543941020965576171875</LatitudeDegrees>
              <LongitudeDegrees>-0.04558439366519451141357421875</LongitudeDegrees>
            </Position>
            <AltitudeMeters>320.20001220703125</AltitudeMeters>
            <DistanceMeters>55702.751809868</DistanceMeters>
          </Trackpoint>
          <Trackpoint>
            <Time>2022-04-23T12:25:57.000Z</Time>
            <Position>
              <LatitudeDegrees>41.5398677252233028411865234375</LatitudeDegrees>
              <LongitudeDegrees>-0.045550949871540069580078125</LongitudeDegrees>
            </Position>
            <AltitudeMeters>319.79998779296875</AltitudeMeters>
            <DistanceMeters>55712.7923165</DistanceMeters>
          </Trackpoint>
          <Trackpoint>
            <Time>2022-04-23T12:25:59.000Z</Time>
            <Position>
              <LatitudeDegrees>41.53969178907573223114013671875</LatitudeDegrees>
              <LongitudeDegrees>-0.04549562931060791015625</LongitudeDegrees>
            </Position>
            <AltitudeMeters>318.600006103515625</AltitudeMeters>
            <DistanceMeters>55732.909721056</DistanceMeters>
          </Trackpoint>
          <Trackpoint>
            <Time>2022-04-23T12:26:01.000Z</Time>
            <Position>
              <LatitudeDegrees>41.53950571082532405853271484375</LatitudeDegrees>
              <LongitudeDegrees>-0.04544525407254695892333984375</LongitudeDegrees>
            </Position>
            <AltitudeMeters>317.600006103515625</AltitudeMeters>
            <DistanceMeters>55754.04157711</DistanceMeters>
          </Trackpoint>
          <Trackpoint>
            <Time>2022-04-23T12:26:02.000Z</Time>
            <Position>
              <LatitudeDegrees>41.53938911855220794677734375</LatitudeDegrees>
              <LongitudeDegrees>-0.04541977308690547943115234375</LongitudeDegrees>
            </Position>
            <AltitudeMeters>317.399993896484375</AltitudeMeters>
            <DistanceMeters>55767.19067874</DistanceMeters>
          </Trackpoint>
          <Trackpoint>
            <Time>2022-04-23T12:26:04.000Z</Time>
            <Position>
              <LatitudeDegrees>41.539203710854053497314453125</LatitudeDegrees>
              <LongitudeDegrees>-0.0454032607376575469970703125</LongitudeDegrees>
            </Position>
            <AltitudeMeters>316.79998779296875</AltitudeMeters>
            <DistanceMeters>55787.872692449</DistanceMeters>
          </Trackpoint>
          <Trackpoint>
            <Time>2022-04-23T12:26:05.000Z</Time>
            <Position>
              <LatitudeDegrees>41.53910078108310699462890625</LatitudeDegrees>
              <LongitudeDegrees>-0.04540250636637210845947265625</LongitudeDegrees>
            </Position>
            <AltitudeMeters>316.600006103515625</AltitudeMeters>
            <DistanceMeters>55799.329226005</DistanceMeters>
          </Trackpoint>
          <Trackpoint>
            <Time>2022-04-23T12:26:07.000Z</Time>
            <Position>
              <LatitudeDegrees>41.53889802284538745880126953125</LatitudeDegrees>
              <LongitudeDegrees>-0.04541340284049510955810546875</LongitudeDegrees>
            </Position>
            <AltitudeMeters>316.20001220703125</AltitudeMeters>
            <DistanceMeters>55821.914819164</DistanceMeters>
          </Trackpoint>
          <Trackpoint>
            <Time>2022-04-23T12:26:10.000Z</Time>
            <Position>
              <LatitudeDegrees>41.5385839529335498809814453125</LatitudeDegrees>
              <LongitudeDegrees>-0.04545330069959163665771484375</LongitudeDegrees>
            </Position>
            <AltitudeMeters>315</AltitudeMeters>
            <DistanceMeters>55857.02921533</DistanceMeters>
          </Trackpoint>
          <Trackpoint>
            <Time>2022-04-23T12:26:11.000Z</Time>
            <Position>
              <LatitudeDegrees>41.53847825713455677032470703125</LatitudeDegrees>
              <LongitudeDegrees>-0.045467801392078399658203125</LongitudeDegrees>
            </Position>
            <AltitudeMeters>314.79998779296875</AltitudeMeters>
            <DistanceMeters>55868.854983545</DistanceMeters>
          </Trackpoint>
          <Trackpoint>
            <Time>2022-04-23T12:26:14.000Z</Time>
            <Position>
              <LatitudeDegrees>41.5381685458123683929443359375</LatitudeDegrees>
              <LongitudeDegrees>-0.04552320577204227447509765625</LongitudeDegrees>
            </Position>
            <AltitudeMeters>313</AltitudeMeters>
            <DistanceMeters>55903.634111909</DistanceMeters>
          </Trackpoint>
          <Trackpoint>
            <Time>2022-04-23T12:26:16.000Z</Time>
            <Position>
              <LatitudeDegrees>41.5379683859646320343017578125</LatitudeDegrees>
              <LongitudeDegrees>-0.0455605052411556243896484375</LongitudeDegrees>
            </Position>
            <AltitudeMeters>311.20001220703125</AltitudeMeters>
            <DistanceMeters>55926.12796092</DistanceMeters>
          </Trackpoint>
          <Trackpoint>
            <Time>2022-04-23T12:26:17.000Z</Time>
            <Position>
              <LatitudeDegrees>41.53787107206881046295166015625</LatitudeDegrees>
              <LongitudeDegrees>-0.04558154381811618804931640625</LongitudeDegrees>
            </Position>
            <AltitudeMeters>310</AltitudeMeters>
            <DistanceMeters>55937.100152093</DistanceMeters>
          </Trackpoint>
          <Trackpoint>
            <Time>2022-04-23T12:26:19.000Z</Time>
            <Position>
              <LatitudeDegrees>41.53768189251422882080078125</LatitudeDegrees>
              <LongitudeDegrees>-0.0456257164478302001953125</LongitudeDegrees>
            </Position>
            <AltitudeMeters>309.20001220703125</AltitudeMeters>
            <DistanceMeters>55958.475460463</DistanceMeters>
          </Trackpoint>
          <Trackpoint>
            <Time>2022-04-23T12:26:20.000Z</Time>
            <Position>
              <LatitudeDegrees>41.53757192194461822509765625</LatitudeDegrees>
              <LongitudeDegrees>-0.04565496928989887237548828125</LongitudeDegrees>
            </Position>
            <AltitudeMeters>309</AltitudeMeters>
            <DistanceMeters>55970.955474827</DistanceMeters>
          </Trackpoint>
          <Trackpoint>
            <Time>2022-04-23T12:26:23.000Z</Time>
            <Position>
              <LatitudeDegrees>41.53730646707117557525634765625</LatitudeDegrees>
              <LongitudeDegrees>-0.0457442365586757659912109375</LongitudeDegrees>
            </Position>
            <AltitudeMeters>307.79998779296875</AltitudeMeters>
            <DistanceMeters>56001.422764469</DistanceMeters>
          </Trackpoint>
          <Trackpoint>
            <Time>2022-04-23T12:26:25.000Z</Time>
            <Position>
              <LatitudeDegrees>41.53713874518871307373046875</LatitudeDegrees>
              <LongitudeDegrees>-0.04581707529723644256591796875</LongitudeDegrees>
            </Position>
            <AltitudeMeters>307.20001220703125</AltitudeMeters>
            <DistanceMeters>56021.052164914</DistanceMeters>
          </Trackpoint>
          <Trackpoint>
            <Time>2022-04-23T12:26:27.000Z</Time>
            <Position>
              <LatitudeDegrees>41.5369907207787036895751953125</LatitudeDegrees>
              <LongitudeDegrees>-0.04588044248521327972412109375</LongitudeDegrees>
            </Position>
            <AltitudeMeters>306.79998779296875</AltitudeMeters>
            <DistanceMeters>56038.353291293</DistanceMeters>
          </Trackpoint>
          <Trackpoint>
            <Time>2022-04-23T12:26:31.000Z</Time>
            <Position>
              <LatitudeDegrees>41.5366655029356479644775390625</LatitudeDegrees>
              <LongitudeDegrees>-0.04601891152560710906982421875</LongitudeDegrees>
            </Position>
            <AltitudeMeters>306.399993896484375</AltitudeMeters>
            <DistanceMeters>56076.344610414</DistanceMeters>
          </Trackpoint>
          <Trackpoint>
            <Time>2022-04-23T12:26:33.000Z</Time>
            <Position>
              <LatitudeDegrees>41.53650146909058094024658203125</LatitudeDegrees>
              <LongitudeDegrees>-0.046094767749309539794921875</LongitudeDegrees>
            </Position>
            <AltitudeMeters>306.20001220703125</AltitudeMeters>
            <DistanceMeters>56095.66473567</DistanceMeters>
          </Trackpoint>
          <Trackpoint>
            <Time>2022-04-23T12:26:37.000Z</Time>
            <Position>
              <LatitudeDegrees>41.536157391965389251708984375</LatitudeDegrees>
              <LongitudeDegrees>-0.04629048518836498260498046875</LongitudeDegrees>
            </Position>
            <AltitudeMeters>305.20001220703125</AltitudeMeters>
            <DistanceMeters>56137.288063702</DistanceMeters>
          </Trackpoint>
          <Trackpoint>
            <Time>2022-04-23T12:26:40.000Z</Time>
            <Position>
              <LatitudeDegrees>41.53592932038009166717529296875</LatitudeDegrees>
              <LongitudeDegrees>-0.04644320346415042877197265625</LongitudeDegrees>
            </Position>
            <AltitudeMeters>304.399993896484375</AltitudeMeters>
            <DistanceMeters>56165.683089068</DistanceMeters>
          </Trackpoint>
          <Trackpoint>
            <Time>2022-04-23T12:26:41.000Z</Time>
            <Position>
              <LatitudeDegrees>41.5358507819473743438720703125</LatitudeDegrees>
              <LongitudeDegrees>-0.0465066544711589813232421875</LongitudeDegrees>
            </Position>
            <AltitudeMeters>304</AltitudeMeters>
            <DistanceMeters>56175.898350366</DistanceMeters>
          </Trackpoint>
          <Trackpoint>
            <Time>2022-04-23T12:26:43.000Z</Time>
            <Position>
              <LatitudeDegrees>41.53571256436407566070556640625</LatitudeDegrees>
              <LongitudeDegrees>-0.04666708409786224365234375</LongitudeDegrees>
            </Position>
            <AltitudeMeters>303.600006103515625</AltitudeMeters>
            <DistanceMeters>56196.277537685</DistanceMeters>
          </Trackpoint>
          <Trackpoint>
            <Time>2022-04-23T12:26:44.000Z</Time>
            <Position>
              <LatitudeDegrees>41.53565187938511371612548828125</LatitudeDegrees>
              <LongitudeDegrees>-0.04675987176597118377685546875</LongitudeDegrees>
            </Position>
            <AltitudeMeters>303.399993896484375</AltitudeMeters>
            <DistanceMeters>56206.543062129</DistanceMeters>
          </Trackpoint>
          <Trackpoint>
            <Time>2022-04-23T12:26:46.000Z</Time>
            <Position>
              <LatitudeDegrees>41.53553939424455165863037109375</LatitudeDegrees>
              <LongitudeDegrees>-0.04696019925177097320556640625</LongitudeDegrees>
            </Position>
            <AltitudeMeters>302.79998779296875</AltitudeMeters>
            <DistanceMeters>56227.406999079</DistanceMeters>
          </Trackpoint>
          <Trackpoint>
            <Time>2022-04-23T12:26:49.000Z</Time>
            <Position>
              <LatitudeDegrees>41.5353803895413875579833984375</LatitudeDegrees>
              <LongitudeDegrees>-0.04726647399365901947021484375</LongitudeDegrees>
            </Position>
            <AltitudeMeters>301.20001220703125</AltitudeMeters>
            <DistanceMeters>56258.46082209</DistanceMeters>
          </Trackpoint>
          <Trackpoint>
            <Time>2022-04-23T12:26:50.000Z</Time>
            <Position>
              <LatitudeDegrees>41.53532154858112335205078125</LatitudeDegrees>
              <LongitudeDegrees>-0.047361440956592559814453125</LongitudeDegrees>
            </Position>
            <AltitudeMeters>300.79998779296875</AltitudeMeters>
            <DistanceMeters>56268.732062672</DistanceMeters>
          </Trackpoint>
          <Trackpoint>
            <Time>2022-04-23T12:26:51.000Z</Time>
            <Position>
              <LatitudeDegrees>41.5352395735681056976318359375</LatitudeDegrees>
              <LongitudeDegrees>-0.04746244288980960845947265625</LongitudeDegrees>
            </Position>
            <AltitudeMeters>300</AltitudeMeters>
            <DistanceMeters>56281.144239524</DistanceMeters>
          </Trackpoint>
          <Trackpoint>
            <Time>2022-04-23T12:26:52.000Z</Time>
            <Position>
              <LatitudeDegrees>41.53517629019916057586669921875</LatitudeDegrees>
              <LongitudeDegrees>-0.0475180149078369140625</LongitudeDegrees>
            </Position>
            <AltitudeMeters>299.600006103515625</AltitudeMeters>
            <DistanceMeters>56289.573275143</DistanceMeters>
          </Trackpoint>
          <Trackpoint>
            <Time>2022-04-23T12:26:53.000Z</Time>
            <Position>
              <LatitudeDegrees>41.5350712649524211883544921875</LatitudeDegrees>
              <LongitudeDegrees>-0.0475802086293697357177734375</LongitudeDegrees>
            </Position>
            <AltitudeMeters>299</AltitudeMeters>
            <DistanceMeters>56302.359577737</DistanceMeters>
          </Trackpoint>
          <Trackpoint>
            <Time>2022-04-23T12:26:54.000Z</Time>
            <Position>
              <LatitudeDegrees>41.534992642700672149658203125</LatitudeDegrees>
              <LongitudeDegrees>-0.04760242067277431488037109375</LongitudeDegrees>
            </Position>
            <AltitudeMeters>298.79998779296875</AltitudeMeters>
            <DistanceMeters>56311.303706941</DistanceMeters>
          </Trackpoint>
          <Trackpoint>
            <Time>2022-04-23T12:26:56.000Z</Time>
            <Position>
              <LatitudeDegrees>41.53477529995143413543701171875</LatitudeDegrees>
              <LongitudeDegrees>-0.0476378761231899261474609375</LongitudeDegrees>
            </Position>
            <AltitudeMeters>297</AltitudeMeters>
            <DistanceMeters>56335.674122567</DistanceMeters>
          </Trackpoint>
          <Trackpoint>
            <Time>2022-04-23T12:26:57.000Z</Time>
            <Position>
              <LatitudeDegrees>41.53467555530369281768798828125</LatitudeDegrees>
              <LongitudeDegrees>-0.047660507261753082275390625</LongitudeDegrees>
            </Position>
            <AltitudeMeters>296.600006103515625</AltitudeMeters>
            <DistanceMeters>56346.935088933</DistanceMeters>
          </Trackpoint>
          <Trackpoint>
            <Time>2022-04-23T12:26:59.000Z</Time>
            <Position>
              <LatitudeDegrees>41.53450473211705684661865234375</LatitudeDegrees>
              <LongitudeDegrees>-0.04775111563503742218017578125</LongitudeDegrees>
            </Position>
            <AltitudeMeters>295.20001220703125</AltitudeMeters>
            <DistanceMeters>56367.39211371</DistanceMeters>
          </Trackpoint>
          <Trackpoint>
            <Time>2022-04-23T12:27:00.000Z</Time>
            <Position>
              <LatitudeDegrees>41.5344298817217350006103515625</LatitudeDegrees>
              <LongitudeDegrees>-0.0478313304483890533447265625</LongitudeDegrees>
            </Position>
            <AltitudeMeters>293.79998779296875</AltitudeMeters>
            <DistanceMeters>56378.072795136</DistanceMeters>
          </Trackpoint>
          <Trackpoint>
            <Time>2022-04-23T12:27:01.000Z</Time>
            <Position>
              <LatitudeDegrees>41.5343725495040416717529296875</LatitudeDegrees>
              <LongitudeDegrees>-0.04792981781065464019775390625</LongitudeDegrees>
            </Position>
            <AltitudeMeters>293</AltitudeMeters>
            <DistanceMeters>56388.467692669</DistanceMeters>
          </Trackpoint>
          <Trackpoint>
            <Time>2022-04-23T12:27:02.000Z</Time>
            <Position>
              <LatitudeDegrees>41.53431748040020465850830078125</LatitudeDegrees>
              <LongitudeDegrees>-0.04804733209311962127685546875</LongitudeDegrees>
            </Position>
            <AltitudeMeters>291.399993896484375</AltitudeMeters>
            <DistanceMeters>56400.01881424</DistanceMeters>
          </Trackpoint>
          <Trackpoint>
            <Time>2022-04-23T12:27:03.000Z</Time>
            <Position>
              <LatitudeDegrees>41.53428143821656703948974609375</LatitudeDegrees>
              <LongitudeDegrees>-0.04811338149011135101318359375</LongitudeDegrees>
            </Position>
            <AltitudeMeters>290.79998779296875</AltitudeMeters>
            <DistanceMeters>56406.828988438</DistanceMeters>
          </Trackpoint>
          <Trackpoint>
            <Time>2022-04-23T12:27:04.000Z</Time>
            <Position>
              <LatitudeDegrees>41.53422829695045948028564453125</LatitudeDegrees>
              <LongitudeDegrees>-0.04817741923034191131591796875</LongitudeDegrees>
            </Position>
            <AltitudeMeters>290.20001220703125</AltitudeMeters>
            <DistanceMeters>56414.794245314</DistanceMeters>
          </Trackpoint>
          <Trackpoint>
            <Time>2022-04-23T12:27:05.000Z</Time>
            <Position>
              <LatitudeDegrees>41.5341666899621486663818359375</LatitudeDegrees>
              <LongitudeDegrees>-0.04821161739528179168701171875</LongitudeDegrees>
            </Position>
            <AltitudeMeters>289.600006103515625</AltitudeMeters>
            <DistanceMeters>56422.219718145</DistanceMeters>
          </Trackpoint>
          <Trackpoint>
            <Time>2022-04-23T12:27:06.000Z</Time>
            <Position>
              <LatitudeDegrees>41.5340830385684967041015625</LatitudeDegrees>
              <LongitudeDegrees>-0.0482179038226604461669921875</LongitudeDegrees>
            </Position>
            <AltitudeMeters>289.399993896484375</AltitudeMeters>
            <DistanceMeters>56431.544933218</DistanceMeters>
          </Trackpoint>
          <Trackpoint>
            <Time>2022-04-23T12:27:07.000Z</Time>
            <Position>
              <LatitudeDegrees>41.53403584845364093780517578125</LatitudeDegrees>
              <LongitudeDegrees>-0.048184879124164581298828125</LongitudeDegrees>
            </Position>
            <AltitudeMeters>288.20001220703125</AltitudeMeters>
            <DistanceMeters>56437.474021478</DistanceMeters>
          </Trackpoint>
          <Trackpoint>
            <Time>2022-04-23T12:27:08.000Z</Time>
            <Position>
              <LatitudeDegrees>41.53397910296916961669921875</LatitudeDegrees>
              <LongitudeDegrees>-0.0481334142386913299560546875</LongitudeDegrees>
            </Position>
            <AltitudeMeters>287.79998779296875</AltitudeMeters>
            <DistanceMeters>56445.108162777</DistanceMeters>
          </Trackpoint>
          <Trackpoint>
            <Time>2022-04-23T12:27:09.000Z</Time>
            <Position>
              <LatitudeDegrees>41.533922441303730010986328125</LatitudeDegrees>
              <LongitudeDegrees>-0.04807834513485431671142578125</LongitudeDegrees>
            </Position>
            <AltitudeMeters>286.600006103515625</AltitudeMeters>
            <DistanceMeters>56452.90730343</DistanceMeters>
          </Trackpoint>
          <Trackpoint>
            <Time>2022-04-23T12:27:11.000Z</Time>
            <Position>
              <LatitudeDegrees>41.5337918512523174285888671875</LatitudeDegrees>
              <LongitudeDegrees>-0.0479563884437084197998046875</LongitudeDegrees>
            </Position>
            <AltitudeMeters>284.79998779296875</AltitudeMeters>
            <DistanceMeters>56470.641691845</DistanceMeters>
          </Trackpoint>
          <Trackpoint>
            <Time>2022-04-23T12:27:12.000Z</Time>
            <Position>
              <LatitudeDegrees>41.53372957371175289154052734375</LatitudeDegrees>
              <LongitudeDegrees>-0.04790349863469600677490234375</LongitudeDegrees>
            </Position>
            <AltitudeMeters>283.79998779296875</AltitudeMeters>
            <DistanceMeters>56478.855870513</DistanceMeters>
          </Trackpoint>
          <Trackpoint>
            <Time>2022-04-23T12:27:14.000Z</Time>
            <Position>
              <LatitudeDegrees>41.53361725620925426483154296875</LatitudeDegrees>
              <LongitudeDegrees>-0.0478076934814453125</LongitudeDegrees>
            </Position>
            <AltitudeMeters>282.79998779296875</AltitudeMeters>
            <DistanceMeters>56493.687954734</DistanceMeters>
          </Trackpoint>
          <Trackpoint>
            <Time>2022-04-23T12:27:16.000Z</Time>
            <Position>
              <LatitudeDegrees>41.53347962535917758941650390625</LatitudeDegrees>
              <LongitudeDegrees>-0.047694034874439239501953125</LongitudeDegrees>
            </Position>
            <AltitudeMeters>282.20001220703125</AltitudeMeters>
            <DistanceMeters>56511.697460161</DistanceMeters>
          </Trackpoint>
          <Trackpoint>
            <Time>2022-04-23T12:27:18.000Z</Time>
            <Position>
              <LatitudeDegrees>41.5333613567054271697998046875</LatitudeDegrees>
              <LongitudeDegrees>-0.0476006604731082916259765625</LongitudeDegrees>
            </Position>
            <AltitudeMeters>281.600006103515625</AltitudeMeters>
            <DistanceMeters>56526.987609903</DistanceMeters>
          </Trackpoint>
          <Trackpoint>
            <Time>2022-04-23T12:27:24.000Z</Time>
            <Position>
              <LatitudeDegrees>41.53295659460127353668212890625</LatitudeDegrees>
              <LongitudeDegrees>-0.0472811423242092132568359375</LongitudeDegrees>
            </Position>
            <AltitudeMeters>281</AltitudeMeters>
            <DistanceMeters>56579.316104538</DistanceMeters>
          </Trackpoint>
          <Trackpoint>
            <Time>2022-04-23T12:27:28.000Z</Time>
            <Position>
              <LatitudeDegrees>41.53267026878893375396728515625</LatitudeDegrees>
              <LongitudeDegrees>-0.04708425141870975494384765625</LongitudeDegrees>
            </Position>
            <AltitudeMeters>280.399993896484375</AltitudeMeters>
            <DistanceMeters>56615.159193632</DistanceMeters>
          </Trackpoint>
          <Trackpoint>
            <Time>2022-04-23T12:27:30.000Z</Time>
            <Position>
              <LatitudeDegrees>41.53250128962099552154541015625</LatitudeDegrees>
              <LongitudeDegrees>-0.04699590615928173065185546875</LongitudeDegrees>
            </Position>
            <AltitudeMeters>280.399993896484375</AltitudeMeters>
            <DistanceMeters>56635.356115259</DistanceMeters>
          </Trackpoint>
          <Trackpoint>
            <Time>2022-04-23T12:27:35.000Z</Time>
            <Position>
              <LatitudeDegrees>41.5320963598787784576416015625</LatitudeDegrees>
              <LongitudeDegrees>-0.04688677377998828887939453125</LongitudeDegrees>
            </Position>
            <AltitudeMeters>280.399993896484375</AltitudeMeters>
            <DistanceMeters>56681.333630041</DistanceMeters>
          </Trackpoint>
          <Trackpoint>
            <Time>2022-04-23T12:27:42.000Z</Time>
            <Position>
              <LatitudeDegrees>41.531514488160610198974609375</LatitudeDegrees>
              <LongitudeDegrees>-0.04678216762840747833251953125</LongitudeDegrees>
            </Position>
            <AltitudeMeters>280</AltitudeMeters>
            <DistanceMeters>56746.680925087</DistanceMeters>
          </Trackpoint>
          <Trackpoint>
            <Time>2022-04-23T12:27:43.000Z</Time>
            <Position>
              <LatitudeDegrees>41.5314209461212158203125</LatitudeDegrees>
              <LongitudeDegrees>-0.04674796946346759796142578125</LongitudeDegrees>
            </Position>
            <AltitudeMeters>279.79998779296875</AltitudeMeters>
            <DistanceMeters>56757.475140036</DistanceMeters>
          </Trackpoint>
          <Trackpoint>
            <Time>2022-04-23T12:27:45.000Z</Time>
            <Position>
              <LatitudeDegrees>41.53128524310886859893798828125</LatitudeDegrees>
              <LongitudeDegrees>-0.04667521454393863677978515625</LongitudeDegrees>
            </Position>
            <AltitudeMeters>279.20001220703125</AltitudeMeters>
            <DistanceMeters>56773.750528277</DistanceMeters>
          </Trackpoint>
          <Trackpoint>
            <Time>2022-04-23T12:27:48.000Z</Time>
            <Position>
              <LatitudeDegrees>41.531056500971317291259765625</LatitudeDegrees>
              <LongitudeDegrees>-0.04651797004044055938720703125</LongitudeDegrees>
            </Position>
            <AltitudeMeters>278.399993896484375</AltitudeMeters>
            <DistanceMeters>56802.383387728</DistanceMeters>
          </Trackpoint>
          <Trackpoint>
            <Time>2022-04-23T12:27:50.000Z</Time>
            <Position>
              <LatitudeDegrees>41.53093219734728336334228515625</LatitudeDegrees>
              <LongitudeDegrees>-0.0464248470962047576904296875</LongitudeDegrees>
            </Position>
            <AltitudeMeters>278.20001220703125</AltitudeMeters>
            <DistanceMeters>56818.246019292</DistanceMeters>
          </Trackpoint>
          <Trackpoint>
            <Time>2022-04-23T12:27:56.000Z</Time>
            <Position>
              <LatitudeDegrees>41.5304820053279399871826171875</LatitudeDegrees>
              <LongitudeDegrees>-0.04614832811057567596435546875</LongitudeDegrees>
            </Position>
            <AltitudeMeters>277.600006103515625</AltitudeMeters>
            <DistanceMeters>56873.396482195</DistanceMeters>
          </Trackpoint>
          <Trackpoint>
            <Time>2022-04-23T12:28:02.000Z</Time>
            <Position>
              <LatitudeDegrees>41.5300267003476619720458984375</LatitudeDegrees>
              <LongitudeDegrees>-0.04599460400640964508056640625</LongitudeDegrees>
            </Position>
            <AltitudeMeters>278.600006103515625</AltitudeMeters>
            <DistanceMeters>56925.666530875</DistanceMeters>
          </Trackpoint>
          <Trackpoint>
            <Time>2022-04-23T12:28:09.000Z</Time>
            <Position>
              <LatitudeDegrees>41.5294674597680568695068359375</LatitudeDegrees>
              <LongitudeDegrees>-0.04595520906150341033935546875</LongitudeDegrees>
            </Position>
            <AltitudeMeters>277.79998779296875</AltitudeMeters>
            <DistanceMeters>56987.997608997</DistanceMeters>
          </Trackpoint>
          <Trackpoint>
            <Time>2022-04-23T12:28:11.000Z</Time>
            <Position>
              <LatitudeDegrees>41.52931096963584423065185546875</LatitudeDegrees>
              <LongitudeDegrees>-0.04594649188220500946044921875</LongitudeDegrees>
            </Position>
            <AltitudeMeters>277</AltitudeMeters>
            <DistanceMeters>57005.430285</DistanceMeters>
          </Trackpoint>
          <Trackpoint>
            <Time>2022-04-23T12:28:12.000Z</Time>
            <Position>
              <LatitudeDegrees>41.52923100627958774566650390625</LatitudeDegrees>
              <LongitudeDegrees>-0.04594213329255580902099609375</LongitudeDegrees>
            </Position>
            <AltitudeMeters>276.600006103515625</AltitudeMeters>
            <DistanceMeters>57014.337994117</DistanceMeters>
          </Trackpoint>
          <Trackpoint>
            <Time>2022-04-23T12:28:16.000Z</Time>
            <Position>
              <LatitudeDegrees>41.52890570461750030517578125</LatitudeDegrees>
              <LongitudeDegrees>-0.04592436365783214569091796875</LongitudeDegrees>
            </Position>
            <AltitudeMeters>275.600006103515625</AltitudeMeters>
            <DistanceMeters>57050.574958617</DistanceMeters>
          </Trackpoint>
          <Trackpoint>
            <Time>2022-04-23T12:28:20.000Z</Time>
            <Position>
              <LatitudeDegrees>41.528574116528034210205078125</LatitudeDegrees>
              <LongitudeDegrees>-0.045912377536296844482421875</LongitudeDegrees>
            </Position>
            <AltitudeMeters>275.20001220703125</AltitudeMeters>
            <DistanceMeters>57087.494763317</DistanceMeters>
          </Trackpoint>
          <Trackpoint>
            <Time>2022-04-23T12:28:24.000Z</Time>
            <Position>
              <LatitudeDegrees>41.52824856340885162353515625</LatitudeDegrees>
              <LongitudeDegrees>-0.0459008105099201202392578125</LongitudeDegrees>
            </Position>
            <AltitudeMeters>274.600006103515625</AltitudeMeters>
            <DistanceMeters>57123.742441625</DistanceMeters>
          </Trackpoint>
          <Trackpoint>
            <Time>2022-04-23T12:28:27.000Z</Time>
            <Position>
              <LatitudeDegrees>41.5279892273247241973876953125</LatitudeDegrees>
              <LongitudeDegrees>-0.04590533673763275146484375</LongitudeDegrees>
            </Position>
            <AltitudeMeters>274.20001220703125</AltitudeMeters>
            <DistanceMeters>57152.609611809</DistanceMeters>
          </Trackpoint>
          <Trackpoint>
            <Time>2022-04-23T12:28:35.000Z</Time>
            <Position>
              <LatitudeDegrees>41.52738279663026332855224609375</LatitudeDegrees>
              <LongitudeDegrees>-0.045937187969684600830078125</LongitudeDegrees>
            </Position>
            <AltitudeMeters>274.600006103515625</AltitudeMeters>
            <DistanceMeters>57220.158701862</DistanceMeters>
          </Trackpoint>
          <Trackpoint>
            <Time>2022-04-23T12:28:42.000Z</Time>
            <Position>
              <LatitudeDegrees>41.5268821455538272857666015625</LatitudeDegrees>
              <LongitudeDegrees>-0.0460225157439708709716796875</LongitudeDegrees>
            </Position>
            <AltitudeMeters>274.399993896484375</AltitudeMeters>
            <DistanceMeters>57276.33387889</DistanceMeters>
          </Trackpoint>
          <Trackpoint>
            <Time>2022-04-23T12:28:48.000Z</Time>
            <Position>
              <LatitudeDegrees>41.5264362283051013946533203125</LatitudeDegrees>
              <LongitudeDegrees>-0.0460630841553211212158203125</LongitudeDegrees>
            </Position>
            <AltitudeMeters>273.600006103515625</AltitudeMeters>
            <DistanceMeters>57326.080431934</DistanceMeters>
          </Trackpoint>
          <Trackpoint>
            <Time>2022-04-23T12:28:51.000Z</Time>
            <Position>
              <LatitudeDegrees>41.52623849920928478240966796875</LatitudeDegrees>
              <LongitudeDegrees>-0.0460422970354557037353515625</LongitudeDegrees>
            </Position>
            <AltitudeMeters>273.79998779296875</AltitudeMeters>
            <DistanceMeters>57348.156101018</DistanceMeters>
          </Trackpoint>
          <Trackpoint>
            <Time>2022-04-23T12:28:54.000Z</Time>
            <Position>
              <LatitudeDegrees>41.5260198153555393218994140625</LatitudeDegrees>
              <LongitudeDegrees>-0.04598773084580898284912109375</LongitudeDegrees>
            </Position>
            <AltitudeMeters>274.20001220703125</AltitudeMeters>
            <DistanceMeters>57372.917262144</DistanceMeters>
          </Trackpoint>
          <Trackpoint>
            <Time>2022-04-23T12:28:59.000Z</Time>
            <Position>
              <LatitudeDegrees>41.52573038823902606964111328125</LatitudeDegrees>
              <LongitudeDegrees>-0.04585328511893749237060546875</LongitudeDegrees>
            </Position>
            <AltitudeMeters>275.79998779296875</AltitudeMeters>
            <DistanceMeters>57407.023513585</DistanceMeters>
          </Trackpoint>
          <Trackpoint>
            <Time>2022-04-23T12:29:00.000Z</Time>
            <Position>
              <LatitudeDegrees>41.52567892335355281829833984375</LatitudeDegrees>
              <LongitudeDegrees>-0.04581925459206104278564453125</LongitudeDegrees>
            </Position>
            <AltitudeMeters>276</AltitudeMeters>
            <DistanceMeters>57413.415075666</DistanceMeters>
          </Trackpoint>
          <Trackpoint>
            <Time>2022-04-23T12:29:05.000Z</Time>
            <Position>
              <LatitudeDegrees>41.525439284741878509521484375</LatitudeDegrees>
              <LongitudeDegrees>-0.04562881775200366973876953125</LongitudeDegrees>
            </Position>
            <AltitudeMeters>276.600006103515625</AltitudeMeters>
            <DistanceMeters>57444.45086459</DistanceMeters>
          </Trackpoint>
          <Trackpoint>
            <Time>2022-04-23T12:29:06.000Z</Time>
            <Position>
              <LatitudeDegrees>41.52538706548511981964111328125</LatitudeDegrees>
              <LongitudeDegrees>-0.0455776043236255645751953125</LongitudeDegrees>
            </Position>
            <AltitudeMeters>277</AltitudeMeters>
            <DistanceMeters>57451.661632938</DistanceMeters>
          </Trackpoint>
          <Trackpoint>
            <Time>2022-04-23T12:29:10.000Z</Time>
            <Position>
              <LatitudeDegrees>41.52521900832653045654296875</LatitudeDegrees>
              <LongitudeDegrees>-0.04540937952697277069091796875</LongitudeDegrees>
            </Position>
            <AltitudeMeters>278</AltitudeMeters>
            <DistanceMeters>57475.036273156</DistanceMeters>
          </Trackpoint>
          <Trackpoint>
            <Time>2022-04-23T12:29:15.000Z</Time>
            <Position>
              <LatitudeDegrees>41.52501541189849376678466796875</LatitudeDegrees>
              <LongitudeDegrees>-0.04519882611930370330810546875</LongitudeDegrees>
            </Position>
            <AltitudeMeters>279</AltitudeMeters>
            <DistanceMeters>57503.6951392</DistanceMeters>
          </Trackpoint>
          <Trackpoint>
            <Time>2022-04-23T12:29:19.000Z</Time>
            <Position>
              <LatitudeDegrees>41.52484475634992122650146484375</LatitudeDegrees>
              <LongitudeDegrees>-0.045022554695606231689453125</LongitudeDegrees>
            </Position>
            <AltitudeMeters>280.20001220703125</AltitudeMeters>
            <DistanceMeters>57527.70607901</DistanceMeters>
          </Trackpoint>
          <Trackpoint>
            <Time>2022-04-23T12:29:22.000Z</Time>
            <Position>
              <LatitudeDegrees>41.524714417755603790283203125</LatitudeDegrees>
              <LongitudeDegrees>-0.0448916293680667877197265625</LongitudeDegrees>
            </Position>
            <AltitudeMeters>280.79998779296875</AltitudeMeters>
            <DistanceMeters>57545.857425218</DistanceMeters>
          </Trackpoint>
          <Trackpoint>
            <Time>2022-04-23T12:29:24.000Z</Time>
            <Position>
              <LatitudeDegrees>41.52463026344776153564453125</LatitudeDegrees>
              <LongitudeDegrees>-0.0448068045079708099365234375</LongitudeDegrees>
            </Position>
            <AltitudeMeters>281.20001220703125</AltitudeMeters>
            <DistanceMeters>57557.591589253</DistanceMeters>
          </Trackpoint>
          <Trackpoint>
            <Time>2022-04-23T12:29:31.000Z</Time>
            <Position>
              <LatitudeDegrees>41.524315439164638519287109375</LatitudeDegrees>
              <LongitudeDegrees>-0.04450346343219280242919921875</LongitudeDegrees>
            </Position>
            <AltitudeMeters>282.20001220703125</AltitudeMeters>
            <DistanceMeters>57600.797927946</DistanceMeters>
          </Trackpoint>
          <Trackpoint>
            <Time>2022-04-23T12:29:37.000Z</Time>
            <Position>
              <LatitudeDegrees>41.52403975836932659149169921875</LatitudeDegrees>
              <LongitudeDegrees>-0.0442237593233585357666015625</LongitudeDegrees>
            </Position>
            <AltitudeMeters>282.20001220703125</AltitudeMeters>
            <DistanceMeters>57639.33029394</DistanceMeters>
          </Trackpoint>
          <Trackpoint>
            <Time>2022-04-23T12:29:40.000Z</Time>
            <Position>
              <LatitudeDegrees>41.52388636954128742218017578125</LatitudeDegrees>
              <LongitudeDegrees>-0.044071711599826812744140625</LongitudeDegrees>
            </Position>
            <AltitudeMeters>282.600006103515625</AltitudeMeters>
            <DistanceMeters>57660.590384399</DistanceMeters>
          </Trackpoint>
          <Trackpoint>
            <Time>2022-04-23T12:29:47.000Z</Time>
            <Position>
              <LatitudeDegrees>41.52349258773028850555419921875</LatitudeDegrees>
              <LongitudeDegrees>-0.0436752475798130035400390625</LongitudeDegrees>
            </Position>
            <AltitudeMeters>282.399993896484375</AltitudeMeters>
            <DistanceMeters>57715.475695562</DistanceMeters>
          </Trackpoint>
          <Trackpoint>
            <Time>2022-04-23T12:29:54.000Z</Time>
            <Position>
              <LatitudeDegrees>41.52305186726152896881103515625</LatitudeDegrees>
              <LongitudeDegrees>-0.04323519766330718994140625</LongitudeDegrees>
            </Position>
            <AltitudeMeters>281.600006103515625</AltitudeMeters>
            <DistanceMeters>57776.71980477</DistanceMeters>
          </Trackpoint>
          <Trackpoint>
            <Time>2022-04-23T12:29:56.000Z</Time>
            <Position>
              <LatitudeDegrees>41.522926054894924163818359375</LatitudeDegrees>
              <LongitudeDegrees>-0.04309932701289653778076171875</LongitudeDegrees>
            </Position>
            <AltitudeMeters>281</AltitudeMeters>
            <DistanceMeters>57794.72730446</DistanceMeters>
          </Trackpoint>
          <Trackpoint>
            <Time>2022-04-23T12:30:01.000Z</Time>
            <Position>
              <LatitudeDegrees>41.52259253896772861480712890625</LatitudeDegrees>
              <LongitudeDegrees>-0.04276924766600131988525390625</LongitudeDegrees>
            </Position>
            <AltitudeMeters>279.79998779296875</AltitudeMeters>
            <DistanceMeters>57840.928272739</DistanceMeters>
          </Trackpoint>
          <Trackpoint>
            <Time>2022-04-23T12:30:05.000Z</Time>
            <Position>
              <LatitudeDegrees>41.5223244018852710723876953125</LatitudeDegrees>
              <LongitudeDegrees>-0.0425047986209392547607421875</LongitudeDegrees>
            </Position>
            <AltitudeMeters>279.20001220703125</AltitudeMeters>
            <DistanceMeters>57878.02680426</DistanceMeters>
          </Trackpoint>
          <Trackpoint>
            <Time>2022-04-23T12:30:12.000Z</Time>
            <Position>
              <LatitudeDegrees>41.52187789790332317352294921875</LatitudeDegrees>
              <LongitudeDegrees>-0.04204991273581981658935546875</LongitudeDegrees>
            </Position>
            <AltitudeMeters>279.399993896484375</AltitudeMeters>
            <DistanceMeters>57940.53025994</DistanceMeters>
          </Trackpoint>
          <Trackpoint>
            <Time>2022-04-23T12:30:19.000Z</Time>
            <Position>
              <LatitudeDegrees>41.521459557116031646728515625</LatitudeDegrees>
              <LongitudeDegrees>-0.0415385328233242034912109375</LongitudeDegrees>
            </Position>
            <AltitudeMeters>278.79998779296875</AltitudeMeters>
            <DistanceMeters>58003.64946151</DistanceMeters>
          </Trackpoint>
          <Trackpoint>
            <Time>2022-04-23T12:30:20.000Z</Time>
            <Position>
              <LatitudeDegrees>41.52140758931636810302734375</LatitudeDegrees>
              <LongitudeDegrees>-0.04145999439060688018798828125</LongitudeDegrees>
            </Position>
            <AltitudeMeters>278.79998779296875</AltitudeMeters>
            <DistanceMeters>58012.383652131</DistanceMeters>
          </Trackpoint>
          <Trackpoint>
            <Time>2022-04-23T12:30:25.000Z</Time>
            <Position>
              <LatitudeDegrees>41.52118421159684658050537109375</LatitudeDegrees>
              <LongitudeDegrees>-0.04103737883269786834716796875</LongitudeDegrees>
            </Position>
            <AltitudeMeters>278.600006103515625</AltitudeMeters>
            <DistanceMeters>58055.493115738</DistanceMeters>
          </Trackpoint>
          <Trackpoint>
            <Time>2022-04-23T12:30:32.000Z</Time>
            <Position>
              <LatitudeDegrees>41.52087408117949962615966796875</LatitudeDegrees>
              <LongitudeDegrees>-0.04040454514324665069580078125</LongitudeDegrees>
            </Position>
            <AltitudeMeters>279</AltitudeMeters>
            <DistanceMeters>58118.521549558</DistanceMeters>
          </Trackpoint>
          <Trackpoint>
            <Time>2022-04-23T12:30:34.000Z</Time>
            <Position>
              <LatitudeDegrees>41.52079713530838489532470703125</LatitudeDegrees>
              <LongitudeDegrees>-0.04024679772555828094482421875</LongitudeDegrees>
            </Position>
            <AltitudeMeters>279</AltitudeMeters>
            <DistanceMeters>58134.210745006</DistanceMeters>
          </Trackpoint>
          <Trackpoint>
            <Time>2022-04-23T12:30:37.000Z</Time>
            <Position>
              <LatitudeDegrees>41.52067475952208042144775390625</LatitudeDegrees>
              <LongitudeDegrees>-0.03997958265244960784912109375</LongitudeDegrees>
            </Position>
            <AltitudeMeters>279</AltitudeMeters>
            <DistanceMeters>58160.313876009</DistanceMeters>
          </Trackpoint>
          <Trackpoint>
            <Time>2022-04-23T12:30:40.000Z</Time>
            <Position>
              <LatitudeDegrees>41.52054064907133579254150390625</LatitudeDegrees>
              <LongitudeDegrees>-0.03970532678067684173583984375</LongitudeDegrees>
            </Position>
            <AltitudeMeters>279</AltitudeMeters>
            <DistanceMeters>58187.611199101</DistanceMeters>
          </Trackpoint>
          <Trackpoint>
            <Time>2022-04-23T12:30:47.000Z</Time>
            <Position>
              <LatitudeDegrees>41.52020461857318878173828125</LatitudeDegrees>
              <LongitudeDegrees>-0.03911306150257587432861328125</LongitudeDegrees>
            </Position>
            <AltitudeMeters>279.20001220703125</AltitudeMeters>
            <DistanceMeters>58249.537127625</DistanceMeters>
          </Trackpoint>
          <Trackpoint>
            <Time>2022-04-23T12:30:48.000Z</Time>
            <Position>
              <LatitudeDegrees>41.5201477892696857452392578125</LatitudeDegrees>
              <LongitudeDegrees>-0.0390383787453174591064453125</LongitudeDegrees>
            </Position>
            <AltitudeMeters>279.600006103515625</AltitudeMeters>
            <DistanceMeters>58258.410811561</DistanceMeters>
          </Trackpoint>
          <Trackpoint>
            <Time>2022-04-23T12:30:49.000Z</Time>
            <Position>
              <LatitudeDegrees>41.5200938098132610321044921875</LatitudeDegrees>
              <LongitudeDegrees>-0.0389716587960720062255859375</LongitudeDegrees>
            </Position>
            <AltitudeMeters>279.79998779296875</AltitudeMeters>
            <DistanceMeters>58266.596357799</DistanceMeters>
          </Trackpoint>
          <Trackpoint>
            <Time>2022-04-23T12:30:55.000Z</Time>
            <Position>
              <LatitudeDegrees>41.519719474017620086669921875</LatitudeDegrees>
              <LongitudeDegrees>-0.03858785144984722137451171875</LongitudeDegrees>
            </Position>
            <AltitudeMeters>280.399993896484375</AltitudeMeters>
            <DistanceMeters>58319.121810064</DistanceMeters>
          </Trackpoint>
          <Trackpoint>
            <Time>2022-04-23T12:30:59.000Z</Time>
            <Position>
              <LatitudeDegrees>41.51945116929709911346435546875</LatitudeDegrees>
              <LongitudeDegrees>-0.0383480452001094818115234375</LongitudeDegrees>
            </Position>
            <AltitudeMeters>280.79998779296875</AltitudeMeters>
            <DistanceMeters>58355.054475569</DistanceMeters>
          </Trackpoint>
          <Trackpoint>
            <Time>2022-04-23T12:31:01.000Z</Time>
            <Position>
              <LatitudeDegrees>41.51933868415653705596923828125</LatitudeDegrees>
              <LongitudeDegrees>-0.03823564387857913970947265625</LongitudeDegrees>
            </Position>
            <AltitudeMeters>281</AltitudeMeters>
            <DistanceMeters>58370.690341059</DistanceMeters>
          </Trackpoint>
          <Trackpoint>
            <Time>2022-04-23T12:31:06.000Z</Time>
            <Position>
              <LatitudeDegrees>41.51900491677224636077880859375</LatitudeDegrees>
              <LongitudeDegrees>-0.0379577837884426116943359375</LongitudeDegrees>
            </Position>
            <AltitudeMeters>281.20001220703125</AltitudeMeters>
            <DistanceMeters>58414.465075459</DistanceMeters>
          </Trackpoint>
          <Trackpoint>
            <Time>2022-04-23T12:31:07.000Z</Time>
            <Position>
              <LatitudeDegrees>41.51893015019595623016357421875</LatitudeDegrees>
              <LongitudeDegrees>-0.0379242561757564544677734375</LongitudeDegrees>
            </Position>
            <AltitudeMeters>281.399993896484375</AltitudeMeters>
            <DistanceMeters>58423.242581496</DistanceMeters>
          </Trackpoint>
          <Trackpoint>
            <Time>2022-04-23T12:31:09.000Z</Time>
            <Position>
              <LatitudeDegrees>41.51875295676290988922119140625</LatitudeDegrees>
              <LongitudeDegrees>-0.037880837917327880859375</LongitudeDegrees>
            </Position>
            <AltitudeMeters>281.600006103515625</AltitudeMeters>
            <DistanceMeters>58443.293668586</DistanceMeters>
          </Trackpoint>
          <Trackpoint>
            <Time>2022-04-23T12:31:11.000Z</Time>
            <Position>
              <LatitudeDegrees>41.51861230842769145965576171875</LatitudeDegrees>
              <LongitudeDegrees>-0.03789030946791172027587890625</LongitudeDegrees>
            </Position>
            <AltitudeMeters>282</AltitudeMeters>
            <DistanceMeters>58458.967892325</DistanceMeters>
          </Trackpoint>
          <Trackpoint>
            <Time>2022-04-23T12:31:12.000Z</Time>
            <Position>
              <LatitudeDegrees>41.51852848939597606658935546875</LatitudeDegrees>
              <LongitudeDegrees>-0.03791646100580692291259765625</LongitudeDegrees>
            </Position>
            <AltitudeMeters>282.20001220703125</AltitudeMeters>
            <DistanceMeters>58468.548168781</DistanceMeters>
          </Trackpoint>
          <Trackpoint>
            <Time>2022-04-23T12:31:15.000Z</Time>
            <Position>
              <LatitudeDegrees>41.51835833676159381866455078125</LatitudeDegrees>
              <LongitudeDegrees>-0.03799826838076114654541015625</LongitudeDegrees>
            </Position>
            <AltitudeMeters>282.600006103515625</AltitudeMeters>
            <DistanceMeters>58488.676118991</DistanceMeters>
          </Trackpoint>
          <Trackpoint>
            <Time>2022-04-23T12:31:19.000Z</Time>
            <Position>
              <LatitudeDegrees>41.51811257936060428619384765625</LatitudeDegrees>
              <LongitudeDegrees>-0.038114525377750396728515625</LongitudeDegrees>
            </Position>
            <AltitudeMeters>283</AltitudeMeters>
            <DistanceMeters>58517.694452136</DistanceMeters>
          </Trackpoint>
          <Trackpoint>
            <Time>2022-04-23T12:31:22.000Z</Time>
            <Position>
              <LatitudeDegrees>41.5179205499589443206787109375</LatitudeDegrees>
              <LongitudeDegrees>-0.03820043988525867462158203125</LongitudeDegrees>
            </Position>
            <AltitudeMeters>283.600006103515625</AltitudeMeters>
            <DistanceMeters>58540.235221448</DistanceMeters>
          </Trackpoint>
          <Trackpoint>
            <Time>2022-04-23T12:31:29.000Z</Time>
            <Position>
              <LatitudeDegrees>41.51748812757432460784912109375</LatitudeDegrees>
              <LongitudeDegrees>-0.0383440218865871429443359375</LongitudeDegrees>
            </Position>
            <AltitudeMeters>283.600006103515625</AltitudeMeters>
            <DistanceMeters>58589.829881261</DistanceMeters>
          </Trackpoint>
          <Trackpoint>
            <Time>2022-04-23T12:31:33.000Z</Time>
            <Position>
              <LatitudeDegrees>41.51722024194896221160888671875</LatitudeDegrees>
              <LongitudeDegrees>-0.03841903991997241973876953125</LongitudeDegrees>
            </Position>
            <AltitudeMeters>282</AltitudeMeters>
            <DistanceMeters>58620.294503313</DistanceMeters>
          </Trackpoint>
          <Trackpoint>
            <Time>2022-04-23T12:31:37.000Z</Time>
            <Position>
              <LatitudeDegrees>41.5169437229633331298828125</LatitudeDegrees>
              <LongitudeDegrees>-0.0384989194571971893310546875</LongitudeDegrees>
            </Position>
            <AltitudeMeters>281</AltitudeMeters>
            <DistanceMeters>58651.783494628</DistanceMeters>
          </Trackpoint>
          <Trackpoint>
            <Time>2022-04-23T12:31:38.000Z</Time>
            <Position>
              <LatitudeDegrees>41.51687339879572391510009765625</LatitudeDegrees>
              <LongitudeDegrees>-0.038519203662872314453125</LongitudeDegrees>
            </Position>
            <AltitudeMeters>280.79998779296875</AltitudeMeters>
            <DistanceMeters>58659.791151765</DistanceMeters>
          </Trackpoint>
          <Trackpoint>
            <Time>2022-04-23T12:31:41.000Z</Time>
            <Position>
              <LatitudeDegrees>41.5166518650949001312255859375</LatitudeDegrees>
              <LongitudeDegrees>-0.03856413066387176513671875</LongitudeDegrees>
            </Position>
            <AltitudeMeters>279.399993896484375</AltitudeMeters>
            <DistanceMeters>58684.730912499</DistanceMeters>
          </Trackpoint>
          <Trackpoint>
            <Time>2022-04-23T12:31:43.000Z</Time>
            <Position>
              <LatitudeDegrees>41.5164962969720363616943359375</LatitudeDegrees>
              <LongitudeDegrees>-0.038571842014789581298828125</LongitudeDegrees>
            </Position>
            <AltitudeMeters>278.399993896484375</AltitudeMeters>
            <DistanceMeters>58702.058116012</DistanceMeters>
          </Trackpoint>
          <Trackpoint>
            <Time>2022-04-23T12:31:44.000Z</Time>
            <Position>
              <LatitudeDegrees>41.51641608215868473052978515625</LatitudeDegrees>
              <LongitudeDegrees>-0.03856689669191837310791015625</LongitudeDegrees>
            </Position>
            <AltitudeMeters>277.79998779296875</AltitudeMeters>
            <DistanceMeters>58710.995680346</DistanceMeters>
          </Trackpoint>
          <Trackpoint>
            <Time>2022-04-23T12:31:48.000Z</Time>
            <Position>
              <LatitudeDegrees>41.51607829146087169647216796875</LatitudeDegrees>
              <LongitudeDegrees>-0.03850973211228847503662109375</LongitudeDegrees>
            </Position>
            <AltitudeMeters>276.20001220703125</AltitudeMeters>
            <DistanceMeters>58748.892996454</DistanceMeters>
          </Trackpoint>
          <Trackpoint>
            <Time>2022-04-23T12:31:50.000Z</Time>
            <Position>
              <LatitudeDegrees>41.51587913744151592254638671875</LatitudeDegrees>
              <LongitudeDegrees>-0.038459859788417816162109375</LongitudeDegrees>
            </Position>
            <AltitudeMeters>275</AltitudeMeters>
            <DistanceMeters>58771.445380489</DistanceMeters>
          </Trackpoint>
          <Trackpoint>
            <Time>2022-04-23T12:31:52.000Z</Time>
            <Position>
              <LatitudeDegrees>41.5157152712345123291015625</LatitudeDegrees>
              <LongitudeDegrees>-0.03839858807623386383056640625</LongitudeDegrees>
            </Position>
            <AltitudeMeters>273.79998779296875</AltitudeMeters>
            <DistanceMeters>58790.385041432</DistanceMeters>
          </Trackpoint>
          <Trackpoint>
            <Time>2022-04-23T12:31:53.000Z</Time>
            <Position>
              <LatitudeDegrees>41.515627093613147735595703125</LatitudeDegrees>
              <LongitudeDegrees>-0.0383550859987735748291015625</LongitudeDegrees>
            </Position>
            <AltitudeMeters>273.20001220703125</AltitudeMeters>
            <DistanceMeters>58800.847478369</DistanceMeters>
          </Trackpoint>
          <Trackpoint>
            <Time>2022-04-23T12:31:54.000Z</Time>
            <Position>
              <LatitudeDegrees>41.5155384130775928497314453125</LatitudeDegrees>
              <LongitudeDegrees>-0.0383054651319980621337890625</LongitudeDegrees>
            </Position>
            <AltitudeMeters>272.79998779296875</AltitudeMeters>
            <DistanceMeters>58811.548853489</DistanceMeters>
          </Trackpoint>
          <Trackpoint>
            <Time>2022-04-23T12:31:57.000Z</Time>
            <Position>
              <LatitudeDegrees>41.51528670452535152435302734375</LatitudeDegrees>
              <LongitudeDegrees>-0.038122572004795074462890625</LongitudeDegrees>
            </Position>
            <AltitudeMeters>271.600006103515625</AltitudeMeters>
            <DistanceMeters>58843.442457724</DistanceMeters>
          </Trackpoint>
          <Trackpoint>
            <Time>2022-04-23T12:31:58.000Z</Time>
            <Position>
              <LatitudeDegrees>41.5152061544358730316162109375</LatitudeDegrees>
              <LongitudeDegrees>-0.03805023618042469024658203125</LongitudeDegrees>
            </Position>
            <AltitudeMeters>271.399993896484375</AltitudeMeters>
            <DistanceMeters>58854.245870983</DistanceMeters>
          </Trackpoint>
          <Trackpoint>
            <Time>2022-04-23T12:32:02.000Z</Time>
            <Position>
              <LatitudeDegrees>41.5148970298469066619873046875</LatitudeDegrees>
              <LongitudeDegrees>-0.0377556122839450836181640625</LongitudeDegrees>
            </Position>
            <AltitudeMeters>270.600006103515625</AltitudeMeters>
            <DistanceMeters>58896.515137894</DistanceMeters>
          </Trackpoint>
          <Trackpoint>
            <Time>2022-04-23T12:32:06.000Z</Time>
            <Position>
              <LatitudeDegrees>41.514581032097339630126953125</LatitudeDegrees>
              <LongitudeDegrees>-0.0374917499721050262451171875</LongitudeDegrees>
            </Position>
            <AltitudeMeters>270</AltitudeMeters>
            <DistanceMeters>58937.995142301</DistanceMeters>
          </Trackpoint>
          <Trackpoint>
            <Time>2022-04-23T12:32:08.000Z</Time>
            <Position>
              <LatitudeDegrees>41.51441213674843311309814453125</LatitudeDegrees>
              <LongitudeDegrees>-0.037365518510341644287109375</LongitudeDegrees>
            </Position>
            <AltitudeMeters>269.399993896484375</AltitudeMeters>
            <DistanceMeters>58959.537092734</DistanceMeters>
          </Trackpoint>
          <Trackpoint>
            <Time>2022-04-23T12:32:12.000Z</Time>
            <Position>
              <LatitudeDegrees>41.514049284160137176513671875</LatitudeDegrees>
              <LongitudeDegrees>-0.03711783327162265777587890625</LongitudeDegrees>
            </Position>
            <AltitudeMeters>268.79998779296875</AltitudeMeters>
            <DistanceMeters>59004.893015995</DistanceMeters>
          </Trackpoint>
          <Trackpoint>
            <Time>2022-04-23T12:32:14.000Z</Time>
            <Position>
              <LatitudeDegrees>41.5138523094356060028076171875</LatitudeDegrees>
              <LongitudeDegrees>-0.0369871594011783599853515625</LongitudeDegrees>
            </Position>
            <AltitudeMeters>268.399993896484375</AltitudeMeters>
            <DistanceMeters>59029.372679657</DistanceMeters>
          </Trackpoint>
          <Trackpoint>
            <Time>2022-04-23T12:32:18.000Z</Time>
            <Position>
              <LatitudeDegrees>41.5135240741074085235595703125</LatitudeDegrees>
              <LongitudeDegrees>-0.03679714165627956390380859375</LongitudeDegrees>
            </Position>
            <AltitudeMeters>267.79998779296875</AltitudeMeters>
            <DistanceMeters>59069.190687289</DistanceMeters>
          </Trackpoint>
          <Trackpoint>
            <Time>2022-04-23T12:32:20.000Z</Time>
            <Position>
              <LatitudeDegrees>41.5133949927985668182373046875</LatitudeDegrees>
              <LongitudeDegrees>-0.03680619411170482635498046875</LongitudeDegrees>
            </Position>
            <AltitudeMeters>267</AltitudeMeters>
            <DistanceMeters>59083.577744398</DistanceMeters>
          </Trackpoint>
          <Trackpoint>
            <Time>2022-04-23T12:32:21.000Z</Time>
            <Position>
              <LatitudeDegrees>41.51333690620958805084228515625</LatitudeDegrees>
              <LongitudeDegrees>-0.03684910945594310760498046875</LongitudeDegrees>
            </Position>
            <AltitudeMeters>266.600006103515625</AltitudeMeters>
            <DistanceMeters>59090.966644328</DistanceMeters>
          </Trackpoint>
          <Trackpoint>
            <Time>2022-04-23T12:32:22.000Z</Time>
            <Position>
              <LatitudeDegrees>41.51330237276852130889892578125</LatitudeDegrees>
              <LongitudeDegrees>-0.036916919052600860595703125</LongitudeDegrees>
            </Position>
            <AltitudeMeters>266.20001220703125</AltitudeMeters>
            <DistanceMeters>59097.8019655</DistanceMeters>
          </Trackpoint>
          <Trackpoint>
            <Time>2022-04-23T12:32:23.000Z</Time>
            <Position>
              <LatitudeDegrees>41.51328611187636852264404296875</LatitudeDegrees>
              <LongitudeDegrees>-0.03699981607496738433837890625</LongitudeDegrees>
            </Position>
            <AltitudeMeters>266</AltitudeMeters>
            <DistanceMeters>59104.944157168</DistanceMeters>
          </Trackpoint>
          <Trackpoint>
            <Time>2022-04-23T12:32:24.000Z</Time>
            <Position>
              <LatitudeDegrees>41.513282172381877899169921875</LatitudeDegrees>
              <LongitudeDegrees>-0.03709084354341030120849609375</LongitudeDegrees>
            </Position>
            <AltitudeMeters>265.600006103515625</AltitudeMeters>
            <DistanceMeters>59112.543918279</DistanceMeters>
          </Trackpoint>
          <Trackpoint>
            <Time>2022-04-23T12:32:27.000Z</Time>
            <Position>
              <LatitudeDegrees>41.51329516433179378509521484375</LatitudeDegrees>
              <LongitudeDegrees>-0.0373972021043300628662109375</LongitudeDegrees>
            </Position>
            <AltitudeMeters>264.399993896484375</AltitudeMeters>
            <DistanceMeters>59138.11758279</DistanceMeters>
          </Trackpoint>
          <Trackpoint>
            <Time>2022-04-23T12:32:28.000Z</Time>
            <Position>
              <LatitudeDegrees>41.51330002583563327789306640625</LatitudeDegrees>
              <LongitudeDegrees>-0.03752687014639377593994140625</LongitudeDegrees>
            </Position>
            <AltitudeMeters>264.20001220703125</AltitudeMeters>
            <DistanceMeters>59148.937282925</DistanceMeters>
          </Trackpoint>
          <Trackpoint>
            <Time>2022-04-23T12:32:31.000Z</Time>
            <Position>
              <LatitudeDegrees>41.51331092230975627899169921875</LatitudeDegrees>
              <LongitudeDegrees>-0.03782778047025203704833984375</LongitudeDegrees>
            </Position>
            <AltitudeMeters>263</AltitudeMeters>
            <DistanceMeters>59174.045203921</DistanceMeters>
          </Trackpoint>
          <Trackpoint>
            <Time>2022-04-23T12:32:33.000Z</Time>
            <Position>
              <LatitudeDegrees>41.51331393979489803314208984375</LatitudeDegrees>
              <LongitudeDegrees>-0.03802634775638580322265625</LongitudeDegrees>
            </Position>
            <AltitudeMeters>262.600006103515625</AltitudeMeters>
            <DistanceMeters>59190.597864718</DistanceMeters>
          </Trackpoint>
          <Trackpoint>
            <Time>2022-04-23T12:32:35.000Z</Time>
            <Position>
              <LatitudeDegrees>41.513268761336803436279296875</LatitudeDegrees>
              <LongitudeDegrees>-0.038197338581085205078125</LongitudeDegrees>
            </Position>
            <AltitudeMeters>261.79998779296875</AltitudeMeters>
            <DistanceMeters>59205.709502723</DistanceMeters>
          </Trackpoint>
          <Trackpoint>
            <Time>2022-04-23T12:32:36.000Z</Time>
            <Position>
              <LatitudeDegrees>41.513217128813266754150390625</LatitudeDegrees>
              <LongitudeDegrees>-0.03825089894235134124755859375</LongitudeDegrees>
            </Position>
            <AltitudeMeters>261.399993896484375</AltitudeMeters>
            <DistanceMeters>59212.986960956</DistanceMeters>
          </Trackpoint>
          <Trackpoint>
            <Time>2022-04-23T12:32:37.000Z</Time>
            <Position>
              <LatitudeDegrees>41.513152085244655609130859375</LatitudeDegrees>
              <LongitudeDegrees>-0.03828643821179866790771484375</LongitudeDegrees>
            </Position>
            <AltitudeMeters>261.20001220703125</AltitudeMeters>
            <DistanceMeters>59220.809223927</DistanceMeters>
          </Trackpoint>
          <Trackpoint>
            <Time>2022-04-23T12:32:39.000Z</Time>
            <Position>
              <LatitudeDegrees>41.513012610375881195068359375</LatitudeDegrees>
              <LongitudeDegrees>-0.03830932080745697021484375</LongitudeDegrees>
            </Position>
            <AltitudeMeters>261</AltitudeMeters>
            <DistanceMeters>59236.449997596</DistanceMeters>
          </Trackpoint>
          <Trackpoint>
            <Time>2022-04-23T12:32:41.000Z</Time>
            <Position>
              <LatitudeDegrees>41.51286743581295013427734375</LatitudeDegrees>
              <LongitudeDegrees>-0.03829800523817539215087890625</LongitudeDegrees>
            </Position>
            <AltitudeMeters>260.79998779296875</AltitudeMeters>
            <DistanceMeters>59252.635811687</DistanceMeters>
          </Trackpoint>
          <Trackpoint>
            <Time>2022-04-23T12:32:43.000Z</Time>
            <Position>
              <LatitudeDegrees>41.51271698065102100372314453125</LatitudeDegrees>
              <LongitudeDegrees>-0.03826816566288471221923828125</LongitudeDegrees>
            </Position>
            <AltitudeMeters>260.20001220703125</AltitudeMeters>
            <DistanceMeters>59269.565508268</DistanceMeters>
          </Trackpoint>
          <Trackpoint>
            <Time>2022-04-23T12:32:44.000Z</Time>
            <Position>
              <LatitudeDegrees>41.512642465531826019287109375</LatitudeDegrees>
              <LongitudeDegrees>-0.0382253341376781463623046875</LongitudeDegrees>
            </Position>
            <AltitudeMeters>260</AltitudeMeters>
            <DistanceMeters>59278.59454643</DistanceMeters>
          </Trackpoint>
          <Trackpoint>
            <Time>2022-04-23T12:32:45.000Z</Time>
            <Position>
              <LatitudeDegrees>41.5125806070864200592041015625</LatitudeDegrees>
              <LongitudeDegrees>-0.03816179931163787841796875</LongitudeDegrees>
            </Position>
            <AltitudeMeters>259.20001220703125</AltitudeMeters>
            <DistanceMeters>59287.281048532</DistanceMeters>
          </Trackpoint>
          <Trackpoint>
            <Time>2022-04-23T12:32:47.000Z</Time>
            <Position>
              <LatitudeDegrees>41.51246921159327030181884765625</LatitudeDegrees>
              <LongitudeDegrees>-0.03797463141381740570068359375</LongitudeDegrees>
            </Position>
            <AltitudeMeters>258.20001220703125</AltitudeMeters>
            <DistanceMeters>59307.207676982</DistanceMeters>
          </Trackpoint>
          <Trackpoint>
            <Time>2022-04-23T12:32:48.000Z</Time>
            <Position>
              <LatitudeDegrees>41.51243434287607669830322265625</LatitudeDegrees>
              <LongitudeDegrees>-0.03789366222918033599853515625</LongitudeDegrees>
            </Position>
            <AltitudeMeters>257.79998779296875</AltitudeMeters>
            <DistanceMeters>59314.992331311</DistanceMeters>
          </Trackpoint>
          <Trackpoint>
            <Time>2022-04-23T12:32:50.000Z</Time>
            <Position>
              <LatitudeDegrees>41.51237466372549533843994140625</LatitudeDegrees>
              <LongitudeDegrees>-0.0376563705503940582275390625</LongitudeDegrees>
            </Position>
            <AltitudeMeters>256.79998779296875</AltitudeMeters>
            <DistanceMeters>59335.854969797</DistanceMeters>
          </Trackpoint>
          <Trackpoint>
            <Time>2022-04-23T12:32:51.000Z</Time>
            <Position>
              <LatitudeDegrees>41.51236108504235744476318359375</LatitudeDegrees>
              <LongitudeDegrees>-0.03756500780582427978515625</LongitudeDegrees>
            </Position>
            <AltitudeMeters>256.600006103515625</AltitudeMeters>
            <DistanceMeters>59343.618134756</DistanceMeters>
          </Trackpoint>
          <Trackpoint>
            <Time>2022-04-23T12:32:56.000Z</Time>
            <Position>
              <LatitudeDegrees>41.51230861432850360870361328125</LatitudeDegrees>
              <LongitudeDegrees>-0.03697953186929225921630859375</LongitudeDegrees>
            </Position>
            <AltitudeMeters>256.399993896484375</AltitudeMeters>
            <DistanceMeters>59392.762475077</DistanceMeters>
          </Trackpoint>
          <Trackpoint>
            <Time>2022-04-23T12:32:58.000Z</Time>
            <Position>
              <LatitudeDegrees>41.512270979583263397216796875</LatitudeDegrees>
              <LongitudeDegrees>-0.03678046166896820068359375</LongitudeDegrees>
            </Position>
            <AltitudeMeters>256.399993896484375</AltitudeMeters>
            <DistanceMeters>59409.874409183</DistanceMeters>
          </Trackpoint>
          <Trackpoint>
            <Time>2022-04-23T12:33:01.000Z</Time>
            <Position>
              <LatitudeDegrees>41.512169055640697479248046875</LatitudeDegrees>
              <LongitudeDegrees>-0.03646706230938434600830078125</LongitudeDegrees>
            </Position>
            <AltitudeMeters>256.600006103515625</AltitudeMeters>
            <DistanceMeters>59438.351681614</DistanceMeters>
          </Trackpoint>
          <Trackpoint>
            <Time>2022-04-23T12:33:02.000Z</Time>
            <Position>
              <LatitudeDegrees>41.51212857104837894439697265625</LatitudeDegrees>
              <LongitudeDegrees>-0.03637100569903850555419921875</LongitudeDegrees>
            </Position>
            <AltitudeMeters>256.600006103515625</AltitudeMeters>
            <DistanceMeters>59447.538361888</DistanceMeters>
          </Trackpoint>
          <Trackpoint>
            <Time>2022-04-23T12:33:05.000Z</Time>
            <Position>
              <LatitudeDegrees>41.5119677223265171051025390625</LatitudeDegrees>
              <LongitudeDegrees>-0.03611661493778228759765625</LongitudeDegrees>
            </Position>
            <AltitudeMeters>256.79998779296875</AltitudeMeters>
            <DistanceMeters>59475.287789606</DistanceMeters>
          </Trackpoint>
          <Trackpoint>
            <Time>2022-04-23T12:33:07.000Z</Time>
            <Position>
              <LatitudeDegrees>41.511830426752567291259765625</LatitudeDegrees>
              <LongitudeDegrees>-0.0359977595508098602294921875</LongitudeDegrees>
            </Position>
            <AltitudeMeters>257.20001220703125</AltitudeMeters>
            <DistanceMeters>59493.498736519</DistanceMeters>
          </Trackpoint>
          <Trackpoint>
            <Time>2022-04-23T12:33:08.000Z</Time>
            <Position>
              <LatitudeDegrees>41.5117407403886318206787109375</LatitudeDegrees>
              <LongitudeDegrees>-0.0359474681317806243896484375</LongitudeDegrees>
            </Position>
            <AltitudeMeters>257.399993896484375</AltitudeMeters>
            <DistanceMeters>59504.325528395</DistanceMeters>
          </Trackpoint>
          <Trackpoint>
            <Time>2022-04-23T12:33:11.000Z</Time>
            <Position>
              <LatitudeDegrees>41.5115201286971569061279296875</LatitudeDegrees>
              <LongitudeDegrees>-0.03587496466934680938720703125</LongitudeDegrees>
            </Position>
            <AltitudeMeters>257.600006103515625</AltitudeMeters>
            <DistanceMeters>59529.612635251</DistanceMeters>
          </Trackpoint>
          <Trackpoint>
            <Time>2022-04-23T12:33:12.000Z</Time>
            <Position>
              <LatitudeDegrees>41.51143890805542469024658203125</LatitudeDegrees>
              <LongitudeDegrees>-0.03586574457585811614990234375</LongitudeDegrees>
            </Position>
            <AltitudeMeters>258</AltitudeMeters>
            <DistanceMeters>59538.685571758</DistanceMeters>
          </Trackpoint>
          <Trackpoint>
            <Time>2022-04-23T12:33:13.000Z</Time>
            <Position>
              <LatitudeDegrees>41.511355675756931304931640625</LatitudeDegrees>
              <LongitudeDegrees>-0.0358606316149234771728515625</LongitudeDegrees>
            </Position>
            <AltitudeMeters>258.20001220703125</AltitudeMeters>
            <DistanceMeters>59547.959322243</DistanceMeters>
          </Trackpoint>
          <Trackpoint>
            <Time>2022-04-23T12:33:17.000Z</Time>
            <Position>
              <LatitudeDegrees>41.51101679541170597076416015625</LatitudeDegrees>
              <LongitudeDegrees>-0.0357825122773647308349609375</LongitudeDegrees>
            </Position>
            <AltitudeMeters>258.399993896484375</AltitudeMeters>
            <DistanceMeters>59586.235393912</DistanceMeters>
          </Trackpoint>
          <Trackpoint>
            <Time>2022-04-23T12:33:18.000Z</Time>
            <Position>
              <LatitudeDegrees>41.51092492975294589996337890625</LatitudeDegrees>
              <LongitudeDegrees>-0.035726688802242279052734375</LongitudeDegrees>
            </Position>
            <AltitudeMeters>258.20001220703125</AltitudeMeters>
            <DistanceMeters>59597.468660945</DistanceMeters>
          </Trackpoint>
          <Trackpoint>
            <Time>2022-04-23T12:33:24.000Z</Time>
            <Position>
              <LatitudeDegrees>41.51049636304378509521484375</LatitudeDegrees>
              <LongitudeDegrees>-0.035373978316783905029296875</LongitudeDegrees>
            </Position>
            <AltitudeMeters>257</AltitudeMeters>
            <DistanceMeters>59653.500105666</DistanceMeters>
          </Trackpoint>
          <Trackpoint>
            <Time>2022-04-23T12:33:25.000Z</Time>
            <Position>
              <LatitudeDegrees>41.5104388631880283355712890625</LatitudeDegrees>
              <LongitudeDegrees>-0.03533483482897281646728515625</LongitudeDegrees>
            </Position>
            <AltitudeMeters>256.79998779296875</AltitudeMeters>
            <DistanceMeters>59660.683899015</DistanceMeters>
          </Trackpoint>
          <Trackpoint>
            <Time>2022-04-23T12:33:26.000Z</Time>
            <Position>
              <LatitudeDegrees>41.510365940630435943603515625</LatitudeDegrees>
              <LongitudeDegrees>-0.035288818180561065673828125</LongitudeDegrees>
            </Position>
            <AltitudeMeters>256.600006103515625</AltitudeMeters>
            <DistanceMeters>59669.660780555</DistanceMeters>
          </Trackpoint>
          <Trackpoint>
            <Time>2022-04-23T12:33:28.000Z</Time>
            <Position>
              <LatitudeDegrees>41.5102095343172550201416015625</LatitudeDegrees>
              <LongitudeDegrees>-0.035227127373218536376953125</LongitudeDegrees>
            </Position>
            <AltitudeMeters>256.20001220703125</AltitudeMeters>
            <DistanceMeters>59687.812624244</DistanceMeters>
          </Trackpoint>
          <Trackpoint>
            <Time>2022-04-23T12:33:29.000Z</Time>
            <Position>
              <LatitudeDegrees>41.5101243741810321807861328125</LatitudeDegrees>
              <LongitudeDegrees>-0.03521312959492206573486328125</LongitudeDegrees>
            </Position>
            <AltitudeMeters>256.20001220703125</AltitudeMeters>
            <DistanceMeters>59697.362690845</DistanceMeters>
          </Trackpoint>
          <Trackpoint>
            <Time>2022-04-23T12:33:30.000Z</Time>
            <Position>
              <LatitudeDegrees>41.51004600338637828826904296875</LatitudeDegrees>
              <LongitudeDegrees>-0.035207010805606842041015625</LongitudeDegrees>
            </Position>
            <AltitudeMeters>256</AltitudeMeters>
            <DistanceMeters>59706.101015994</DistanceMeters>
          </Trackpoint>
          <Trackpoint>
            <Time>2022-04-23T12:33:34.000Z</Time>
            <Position>
              <LatitudeDegrees>41.50972531177103519439697265625</LatitudeDegrees>
              <LongitudeDegrees>-0.035200975835323333740234375</LongitudeDegrees>
            </Position>
            <AltitudeMeters>256</AltitudeMeters>
            <DistanceMeters>59741.798316978</DistanceMeters>
          </Trackpoint>
          <Trackpoint>
            <Time>2022-04-23T12:33:39.000Z</Time>
            <Position>
              <LatitudeDegrees>41.50934569537639617919921875</LatitudeDegrees>
              <LongitudeDegrees>-0.03510869108140468597412109375</LongitudeDegrees>
            </Position>
            <AltitudeMeters>256.20001220703125</AltitudeMeters>
            <DistanceMeters>59784.744925387</DistanceMeters>
          </Trackpoint>
          <Trackpoint>
            <Time>2022-04-23T12:33:45.000Z</Time>
            <Position>
              <LatitudeDegrees>41.50891654193401336669921875</LatitudeDegrees>
              <LongitudeDegrees>-0.03491624258458614349365234375</LongitudeDegrees>
            </Position>
            <AltitudeMeters>256.399993896484375</AltitudeMeters>
            <DistanceMeters>59835.131759803</DistanceMeters>
          </Trackpoint>
          <Trackpoint>
            <Time>2022-04-23T12:33:52.000Z</Time>
            <Position>
              <LatitudeDegrees>41.5084483288228511810302734375</LatitudeDegrees>
              <LongitudeDegrees>-0.0347064435482025146484375</LongitudeDegrees>
            </Position>
            <AltitudeMeters>256.600006103515625</AltitudeMeters>
            <DistanceMeters>59890.100422502</DistanceMeters>
          </Trackpoint>
          <Trackpoint>
            <Time>2022-04-23T12:33:56.000Z</Time>
            <Position>
              <LatitudeDegrees>41.50817985646426677703857421875</LatitudeDegrees>
              <LongitudeDegrees>-0.0346083752810955047607421875</LongitudeDegrees>
            </Position>
            <AltitudeMeters>256.20001220703125</AltitudeMeters>
            <DistanceMeters>59921.07986011</DistanceMeters>
          </Trackpoint>
          <Trackpoint>
            <Time>2022-04-23T12:33:59.000Z</Time>
            <Position>
              <LatitudeDegrees>41.5079829655587673187255859375</LatitudeDegrees>
              <LongitudeDegrees>-0.03455154597759246826171875</LongitudeDegrees>
            </Position>
            <AltitudeMeters>255.600006103515625</AltitudeMeters>
            <DistanceMeters>59943.500526815</DistanceMeters>
          </Trackpoint>
          <Trackpoint>
            <Time>2022-04-23T12:34:02.000Z</Time>
            <Position>
              <LatitudeDegrees>41.5077747590839862823486328125</LatitudeDegrees>
              <LongitudeDegrees>-0.03449178300797939300537109375</LongitudeDegrees>
            </Position>
            <AltitudeMeters>254.600006103515625</AltitudeMeters>
            <DistanceMeters>59967.203930713</DistanceMeters>
          </Trackpoint>
          <Trackpoint>
            <Time>2022-04-23T12:34:06.000Z</Time>
            <Position>
              <LatitudeDegrees>41.50745867751538753509521484375</LatitudeDegrees>
              <LongitudeDegrees>-0.0344484485685825347900390625</LongitudeDegrees>
            </Position>
            <AltitudeMeters>253.600006103515625</AltitudeMeters>
            <DistanceMeters>60002.569447363</DistanceMeters>
          </Trackpoint>
          <Trackpoint>
            <Time>2022-04-23T12:34:07.000Z</Time>
            <Position>
              <LatitudeDegrees>41.50739598087966442108154296875</LatitudeDegrees>
              <LongitudeDegrees>-0.0344477780163288116455078125</LongitudeDegrees>
            </Position>
            <AltitudeMeters>253.399993896484375</AltitudeMeters>
            <DistanceMeters>60009.5485757</DistanceMeters>
          </Trackpoint>
          <Trackpoint>
            <Time>2022-04-23T12:34:13.000Z</Time>
            <Position>
              <LatitudeDegrees>41.50692324154078960418701171875</LatitudeDegrees>
              <LongitudeDegrees>-0.0344497896730899810791015625</LongitudeDegrees>
            </Position>
            <AltitudeMeters>252.8000030517578125</AltitudeMeters>
            <DistanceMeters>60062.165666338</DistanceMeters>
          </Trackpoint>
          <Trackpoint>
            <Time>2022-04-23T12:34:18.000Z</Time>
            <Position>
              <LatitudeDegrees>41.50651135481894016265869140625</LatitudeDegrees>
              <LongitudeDegrees>-0.03448692150413990020751953125</LongitudeDegrees>
            </Position>
            <AltitudeMeters>252.1999969482421875</AltitudeMeters>
            <DistanceMeters>60108.1139079</DistanceMeters>
          </Trackpoint>
          <Trackpoint>
            <Time>2022-04-23T12:34:20.000Z</Time>
            <Position>
              <LatitudeDegrees>41.50636785663664340972900390625</LatitudeDegrees>
              <LongitudeDegrees>-0.03450787626206874847412109375</LongitudeDegrees>
            </Position>
            <AltitudeMeters>252</AltitudeMeters>
            <DistanceMeters>60124.181011727</DistanceMeters>
          </Trackpoint>
          <Trackpoint>
            <Time>2022-04-23T12:34:22.000Z</Time>
            <Position>
              <LatitudeDegrees>41.5062019787728786468505859375</LatitudeDegrees>
              <LongitudeDegrees>-0.03452849574387073516845703125</LongitudeDegrees>
            </Position>
            <AltitudeMeters>251</AltitudeMeters>
            <DistanceMeters>60142.723643435</DistanceMeters>
          </Trackpoint>
          <Trackpoint>
            <Time>2022-04-23T12:34:27.000Z</Time>
            <Position>
              <LatitudeDegrees>41.50579520501196384429931640625</LatitudeDegrees>
              <LongitudeDegrees>-0.0345859117805957794189453125</LongitudeDegrees>
            </Position>
            <AltitudeMeters>250</AltitudeMeters>
            <DistanceMeters>60188.250663616</DistanceMeters>
          </Trackpoint>
          <Trackpoint>
            <Time>2022-04-23T12:34:28.000Z</Time>
            <Position>
              <LatitudeDegrees>41.50569898076355457305908203125</LatitudeDegrees>
              <LongitudeDegrees>-0.034602172672748565673828125</LongitudeDegrees>
            </Position>
            <AltitudeMeters>249.399993896484375</AltitudeMeters>
            <DistanceMeters>60199.046133341</DistanceMeters>
          </Trackpoint>
          <Trackpoint>
            <Time>2022-04-23T12:34:31.000Z</Time>
            <Position>
              <LatitudeDegrees>41.50547317229211330413818359375</LatitudeDegrees>
              <LongitudeDegrees>-0.0346579961478710174560546875</LongitudeDegrees>
            </Position>
            <AltitudeMeters>248.8000030517578125</AltitudeMeters>
            <DistanceMeters>60224.606023219</DistanceMeters>
          </Trackpoint>
          <Trackpoint>
            <Time>2022-04-23T12:34:36.000Z</Time>
            <Position>
              <LatitudeDegrees>41.50507754646241664886474609375</LatitudeDegrees>
              <LongitudeDegrees>-0.03477157093584537506103515625</LongitudeDegrees>
            </Position>
            <AltitudeMeters>248.8000030517578125</AltitudeMeters>
            <DistanceMeters>60269.646079537</DistanceMeters>
          </Trackpoint>
          <Trackpoint>
            <Time>2022-04-23T12:34:42.000Z</Time>
            <Position>
              <LatitudeDegrees>41.5046053938567638397216796875</LatitudeDegrees>
              <LongitudeDegrees>-0.034926049411296844482421875</LongitudeDegrees>
            </Position>
            <AltitudeMeters>249</AltitudeMeters>
            <DistanceMeters>60323.752091055</DistanceMeters>
          </Trackpoint>
          <Trackpoint>
            <Time>2022-04-23T12:34:44.000Z</Time>
            <Position>
              <LatitudeDegrees>41.50445200502872467041015625</LatitudeDegrees>
              <LongitudeDegrees>-0.0349922664463520050048828125</LongitudeDegrees>
            </Position>
            <AltitudeMeters>249</AltitudeMeters>
            <DistanceMeters>60341.69478554</DistanceMeters>
          </Trackpoint>
          <Trackpoint>
            <Time>2022-04-23T12:34:50.000Z</Time>
            <Position>
              <LatitudeDegrees>41.5039861388504505157470703125</LatitudeDegrees>
              <LongitudeDegrees>-0.03518052399158477783203125</LongitudeDegrees>
            </Position>
            <AltitudeMeters>248.399993896484375</AltitudeMeters>
            <DistanceMeters>60395.869014514</DistanceMeters>
          </Trackpoint>
          <Trackpoint>
            <Time>2022-04-23T12:34:51.000Z</Time>
            <Position>
              <LatitudeDegrees>41.5039063431322574615478515625</LatitudeDegrees>
              <LongitudeDegrees>-0.035209022462368011474609375</LongitudeDegrees>
            </Position>
            <AltitudeMeters>248.1999969482421875</AltitudeMeters>
            <DistanceMeters>60405.062572884</DistanceMeters>
          </Trackpoint>
          <Trackpoint>
            <Time>2022-04-23T12:34:56.000Z</Time>
            <Position>
              <LatitudeDegrees>41.50351298041641712188720703125</LatitudeDegrees>
              <LongitudeDegrees>-0.03535327501595020294189453125</LongitudeDegrees>
            </Position>
            <AltitudeMeters>248.1999969482421875</AltitudeMeters>
            <DistanceMeters>60450.465756266</DistanceMeters>
          </Trackpoint>
          <Trackpoint>
            <Time>2022-04-23T12:34:59.000Z</Time>
            <Position>
              <LatitudeDegrees>41.503288932144641876220703125</LatitudeDegrees>
              <LongitudeDegrees>-0.03544094972312450408935546875</LongitudeDegrees>
            </Position>
            <AltitudeMeters>248.1999969482421875</AltitudeMeters>
            <DistanceMeters>60476.451349511</DistanceMeters>
          </Trackpoint>
          <Trackpoint>
            <Time>2022-04-23T12:35:05.000Z</Time>
            <Position>
              <LatitudeDegrees>41.502865143120288848876953125</LatitudeDegrees>
              <LongitudeDegrees>-0.0356363318860530853271484375</LongitudeDegrees>
            </Position>
            <AltitudeMeters>248.399993896484375</AltitudeMeters>
            <DistanceMeters>60526.352319341</DistanceMeters>
          </Trackpoint>
          <Trackpoint>
            <Time>2022-04-23T12:35:06.000Z</Time>
            <Position>
              <LatitudeDegrees>41.5027985908091068267822265625</LatitudeDegrees>
              <LongitudeDegrees>-0.0356946699321269989013671875</LongitudeDegrees>
            </Position>
            <AltitudeMeters>248.399993896484375</AltitudeMeters>
            <DistanceMeters>60535.212764285</DistanceMeters>
          </Trackpoint>
          <Trackpoint>
            <Time>2022-04-23T12:35:07.000Z</Time>
            <Position>
              <LatitudeDegrees>41.50276766158640384674072265625</LatitudeDegrees>
              <LongitudeDegrees>-0.03574705682694911956787109375</LongitudeDegrees>
            </Position>
            <AltitudeMeters>248.399993896484375</AltitudeMeters>
            <DistanceMeters>60540.773248234</DistanceMeters>
          </Trackpoint>
          <Trackpoint>
            <Time>2022-04-23T12:35:09.000Z</Time>
            <Position>
              <LatitudeDegrees>41.502698175609111785888671875</LatitudeDegrees>
              <LongitudeDegrees>-0.0358861126005649566650390625</LongitudeDegrees>
            </Position>
            <AltitudeMeters>248.8000030517578125</AltitudeMeters>
            <DistanceMeters>60554.707547775</DistanceMeters>
          </Trackpoint>
          <Trackpoint>
            <Time>2022-04-23T12:35:10.000Z</Time>
            <Position>
              <LatitudeDegrees>41.50265760719776153564453125</LatitudeDegrees>
              <LongitudeDegrees>-0.0359523296356201171875</LongitudeDegrees>
            </Position>
            <AltitudeMeters>248.8000030517578125</AltitudeMeters>
            <DistanceMeters>60561.838984554</DistanceMeters>
          </Trackpoint>
          <Trackpoint>
            <Time>2022-04-23T12:35:13.000Z</Time>
            <Position>
              <LatitudeDegrees>41.5025092475116252899169921875</LatitudeDegrees>
              <LongitudeDegrees>-0.03612323664128780364990234375</LongitudeDegrees>
            </Position>
            <AltitudeMeters>249</AltitudeMeters>
            <DistanceMeters>60583.647563744</DistanceMeters>
          </Trackpoint>
          <Trackpoint>
            <Time>2022-04-23T12:35:16.000Z</Time>
            <Position>
              <LatitudeDegrees>41.50234521366655826568603515625</LatitudeDegrees>
              <LongitudeDegrees>-0.0363286770880222320556640625</LongitudeDegrees>
            </Position>
            <AltitudeMeters>248.8000030517578125</AltitudeMeters>
            <DistanceMeters>60608.679303084</DistanceMeters>
          </Trackpoint>
          <Trackpoint>
            <Time>2022-04-23T12:35:18.000Z</Time>
            <Position>
              <LatitudeDegrees>41.50227983482182025909423828125</LatitudeDegrees>
              <LongitudeDegrees>-0.03647510893642902374267578125</LongitudeDegrees>
            </Position>
            <AltitudeMeters>248.1999969482421875</AltitudeMeters>
            <DistanceMeters>60622.889848447</DistanceMeters>
          </Trackpoint>
          <Trackpoint>
            <Time>2022-04-23T12:35:20.000Z</Time>
            <Position>
              <LatitudeDegrees>41.502236165106296539306640625</LatitudeDegrees>
              <LongitudeDegrees>-0.03665196709334850311279296875</LongitudeDegrees>
            </Position>
            <AltitudeMeters>247.600006103515625</AltitudeMeters>
            <DistanceMeters>60638.412979249</DistanceMeters>
          </Trackpoint>
          <Trackpoint>
            <Time>2022-04-23T12:35:23.000Z</Time>
            <Position>
              <LatitudeDegrees>41.5021996200084686279296875</LatitudeDegrees>
              <LongitudeDegrees>-0.036920607089996337890625</LongitudeDegrees>
            </Position>
            <AltitudeMeters>247.399993896484375</AltitudeMeters>
            <DistanceMeters>60661.172621275</DistanceMeters>
          </Trackpoint>
          <Trackpoint>
            <Time>2022-04-23T12:35:26.000Z</Time>
            <Position>
              <LatitudeDegrees>41.502179168164730072021484375</LatitudeDegrees>
              <LongitudeDegrees>-0.03719075582921504974365234375</LongitudeDegrees>
            </Position>
            <AltitudeMeters>247.1999969482421875</AltitudeMeters>
            <DistanceMeters>60683.806141476</DistanceMeters>
          </Trackpoint>
          <Trackpoint>
            <Time>2022-04-23T12:35:28.000Z</Time>
            <Position>
              <LatitudeDegrees>41.50218612514436244964599609375</LatitudeDegrees>
              <LongitudeDegrees>-0.03738236613571643829345703125</LongitudeDegrees>
            </Position>
            <AltitudeMeters>247</AltitudeMeters>
            <DistanceMeters>60699.796909896</DistanceMeters>
          </Trackpoint>
          <Trackpoint>
            <Time>2022-04-23T12:35:33.000Z</Time>
            <Position>
              <LatitudeDegrees>41.5022215805947780609130859375</LatitudeDegrees>
              <LongitudeDegrees>-0.037840269505977630615234375</LongitudeDegrees>
            </Position>
            <AltitudeMeters>246.600006103515625</AltitudeMeters>
            <DistanceMeters>60738.169939687</DistanceMeters>
          </Trackpoint>
          <Trackpoint>
            <Time>2022-04-23T12:35:35.000Z</Time>
            <Position>
              <LatitudeDegrees>41.5022235922515392303466796875</LatitudeDegrees>
              <LongitudeDegrees>-0.0380191393196582794189453125</LongitudeDegrees>
            </Position>
            <AltitudeMeters>246.399993896484375</AltitudeMeters>
            <DistanceMeters>60753.081566102</DistanceMeters>
          </Trackpoint>
          <Trackpoint>
            <Time>2022-04-23T12:35:37.000Z</Time>
            <Position>
              <LatitudeDegrees>41.50220540352165699005126953125</LatitudeDegrees>
              <LongitudeDegrees>-0.03819021396338939666748046875</LongitudeDegrees>
            </Position>
            <AltitudeMeters>246.1999969482421875</AltitudeMeters>
            <DistanceMeters>60767.484932938</DistanceMeters>
          </Trackpoint>
          <Trackpoint>
            <Time>2022-04-23T12:35:39.000Z</Time>
            <Position>
              <LatitudeDegrees>41.50216014124453067779541015625</LatitudeDegrees>
              <LongitudeDegrees>-0.038349218666553497314453125</LongitudeDegrees>
            </Position>
            <AltitudeMeters>246.1999969482421875</AltitudeMeters>
            <DistanceMeters>60781.663988688</DistanceMeters>
          </Trackpoint>
          <Trackpoint>
            <Time>2022-04-23T12:35:43.000Z</Time>
            <Position>
              <LatitudeDegrees>41.50203307159245014190673828125</LatitudeDegrees>
              <LongitudeDegrees>-0.0385837443172931671142578125</LongitudeDegrees>
            </Position>
            <AltitudeMeters>246.1999969482421875</AltitudeMeters>
            <DistanceMeters>60805.792916319</DistanceMeters>
          </Trackpoint>
          <Trackpoint>
            <Time>2022-04-23T12:35:45.000Z</Time>
            <Position>
              <LatitudeDegrees>41.50198839604854583740234375</LatitudeDegrees>
              <LongitudeDegrees>-0.03865398466587066650390625</LongitudeDegrees>
            </Position>
            <AltitudeMeters>246.1999969482421875</AltitudeMeters>
            <DistanceMeters>60813.474813843</DistanceMeters>
          </Trackpoint>
          <Trackpoint>
            <Time>2022-04-23T12:35:46.000Z</Time>
            <Position>
              <LatitudeDegrees>41.50198646821081638336181640625</LatitudeDegrees>
              <LongitudeDegrees>-0.03868256695568561553955078125</LongitudeDegrees>
            </Position>
            <AltitudeMeters>246.1999969482421875</AltitudeMeters>
            <DistanceMeters>60815.867525373</DistanceMeters>
          </Trackpoint>
          <Trackpoint>
            <Time>2022-04-23T12:35:48.000Z</Time>
            <Position>
              <LatitudeDegrees>41.5019915811717510223388671875</LatitudeDegrees>
              <LongitudeDegrees>-0.03872715868055820465087890625</LongitudeDegrees>
            </Position>
            <AltitudeMeters>246</AltitudeMeters>
            <DistanceMeters>60819.627990731</DistanceMeters>
          </Trackpoint>
          <Trackpoint>
            <Time>2022-04-23T12:35:50.000Z</Time>
            <Position>
              <LatitudeDegrees>41.5019850432872772216796875</LatitudeDegrees>
              <LongitudeDegrees>-0.038742832839488983154296875</LongitudeDegrees>
            </Position>
            <AltitudeMeters>245.8000030517578125</AltitudeMeters>
            <DistanceMeters>60821.121452777</DistanceMeters>
          </Trackpoint>
          <Trackpoint>
            <Time>2022-04-23T12:35:52.000Z</Time>
            <Position>
              <LatitudeDegrees>41.50198680348694324493408203125</LatitudeDegrees>
              <LongitudeDegrees>-0.03874693997204303741455078125</LongitudeDegrees>
            </Position>
            <AltitudeMeters>245.8000030517578125</AltitudeMeters>
            <DistanceMeters>60821.524616982</DistanceMeters>
          </Trackpoint>
          <Trackpoint>
            <Time>2022-04-23T12:44:35.000Z</Time>
            <Position>
              <LatitudeDegrees>41.50212250649929046630859375</LatitudeDegrees>
              <LongitudeDegrees>-0.03865934908390045166015625</LongitudeDegrees>
            </Position>
            <AltitudeMeters>245.600006103515625</AltitudeMeters>
            <DistanceMeters>60838.300533125</DistanceMeters>
          </Trackpoint>
          <Trackpoint>
            <Time>2022-04-23T12:44:36.000Z</Time>
            <Position>
              <LatitudeDegrees>41.5021424554288387298583984375</LatitudeDegrees>
              <LongitudeDegrees>-0.038648284971714019775390625</LongitudeDegrees>
            </Position>
            <AltitudeMeters>245.600006103515625</AltitudeMeters>
            <DistanceMeters>60840.704539973</DistanceMeters>
          </Trackpoint>
          <Trackpoint>
            <Time>2022-04-23T12:44:38.000Z</Time>
            <Position>
              <LatitudeDegrees>41.5021793358027935028076171875</LatitudeDegrees>
              <LongitudeDegrees>-0.038620121777057647705078125</LongitudeDegrees>
            </Position>
            <AltitudeMeters>246</AltitudeMeters>
            <DistanceMeters>60845.43301428</DistanceMeters>
          </Trackpoint>
          <Trackpoint>
            <Time>2022-04-23T12:44:41.000Z</Time>
            <Position>
              <LatitudeDegrees>41.502255611121654510498046875</LatitudeDegrees>
              <LongitudeDegrees>-0.0385911203920841217041015625</LongitudeDegrees>
            </Position>
            <AltitudeMeters>246.600006103515625</AltitudeMeters>
            <DistanceMeters>60854.260274876</DistanceMeters>
          </Trackpoint>
          <Trackpoint>
            <Time>2022-04-23T12:44:42.000Z</Time>
            <Position>
              <LatitudeDegrees>41.5022805891931056976318359375</LatitudeDegrees>
              <LongitudeDegrees>-0.03857041709125041961669921875</LongitudeDegrees>
            </Position>
            <AltitudeMeters>246.8000030517578125</AltitudeMeters>
            <DistanceMeters>60857.532838193</DistanceMeters>
          </Trackpoint>
          <Trackpoint>
            <Time>2022-04-23T12:44:45.000Z</Time>
            <Position>
              <LatitudeDegrees>41.50234789587557315826416015625</LatitudeDegrees>
              <LongitudeDegrees>-0.038524903357028961181640625</LongitudeDegrees>
            </Position>
            <AltitudeMeters>247.600006103515625</AltitudeMeters>
            <DistanceMeters>60865.929673125</DistanceMeters>
          </Trackpoint>
          <Trackpoint>
            <Time>2022-04-23T12:44:46.000Z</Time>
            <Position>
              <LatitudeDegrees>41.50236968882381916046142578125</LatitudeDegrees>
              <LongitudeDegrees>-0.03851191140711307525634765625</LongitudeDegrees>
            </Position>
            <AltitudeMeters>248</AltitudeMeters>
            <DistanceMeters>60868.583624825</DistanceMeters>
          </Trackpoint>
          <Trackpoint>
            <Time>2022-04-23T12:44:48.000Z</Time>
            <Position>
              <LatitudeDegrees>41.50239919312298297882080078125</LatitudeDegrees>
              <LongitudeDegrees>-0.03848768770694732666015625</LongitudeDegrees>
            </Position>
            <AltitudeMeters>248.600006103515625</AltitudeMeters>
            <DistanceMeters>60872.438946579</DistanceMeters>
          </Trackpoint>
          <Trackpoint>
            <Time>2022-04-23T12:44:49.000Z</Time>
            <Position>
              <LatitudeDegrees>41.5024237520992755889892578125</LatitudeDegrees>
              <LongitudeDegrees>-0.03848659805953502655029296875</LongitudeDegrees>
            </Position>
            <AltitudeMeters>249.600006103515625</AltitudeMeters>
            <DistanceMeters>60875.173339253</DistanceMeters>
          </Trackpoint>
          <Trackpoint>
            <Time>2022-04-23T12:44:50.000Z</Time>
            <Position>
              <LatitudeDegrees>41.50244529359042644500732421875</LatitudeDegrees>
              <LongitudeDegrees>-0.038483999669551849365234375</LongitudeDegrees>
            </Position>
            <AltitudeMeters>250</AltitudeMeters>
            <DistanceMeters>60877.579223498</DistanceMeters>
          </Trackpoint>
          <Trackpoint>
            <Time>2022-04-23T12:44:51.000Z</Time>
            <Position>
              <LatitudeDegrees>41.50246918201446533203125</LatitudeDegrees>
              <LongitudeDegrees>-0.03847771324217319488525390625</LongitudeDegrees>
            </Position>
            <AltitudeMeters>250.8000030517578125</AltitudeMeters>
            <DistanceMeters>60880.290400775</DistanceMeters>
          </Trackpoint>
          <Trackpoint>
            <Time>2022-04-23T12:44:55.000Z</Time>
            <Position>
              <LatitudeDegrees>41.50255844928324222564697265625</LatitudeDegrees>
              <LongitudeDegrees>-0.0384164415299892425537109375</LongitudeDegrees>
            </Position>
            <AltitudeMeters>251.8000030517578125</AltitudeMeters>
            <DistanceMeters>60891.46240671</DistanceMeters>
          </Trackpoint>
          <Trackpoint>
            <Time>2022-04-23T12:44:56.000Z</Time>
            <Position>
              <LatitudeDegrees>41.50259901769459247589111328125</LatitudeDegrees>
              <LongitudeDegrees>-0.0383822433650493621826171875</LongitudeDegrees>
            </Position>
            <AltitudeMeters>252</AltitudeMeters>
            <DistanceMeters>60896.802536054</DistanceMeters>
          </Trackpoint>
          <Trackpoint>
            <Time>2022-04-23T12:44:57.000Z</Time>
            <Position>
              <LatitudeDegrees>41.5026272647082805633544921875</LatitudeDegrees>
              <LongitudeDegrees>-0.03835483454167842864990234375</LongitudeDegrees>
            </Position>
            <AltitudeMeters>252</AltitudeMeters>
            <DistanceMeters>60900.689349387</DistanceMeters>
          </Trackpoint>
          <Trackpoint>
            <Time>2022-04-23T12:44:59.000Z</Time>
            <Position>
              <LatitudeDegrees>41.50271234102547168731689453125</LatitudeDegrees>
              <LongitudeDegrees>-0.0383141823112964630126953125</LongitudeDegrees>
            </Position>
            <AltitudeMeters>252</AltitudeMeters>
            <DistanceMeters>60910.746929431</DistanceMeters>
          </Trackpoint>
          <Trackpoint>
            <Time>2022-04-23T12:45:00.000Z</Time>
            <Position>
              <LatitudeDegrees>41.50275550782680511474609375</LatitudeDegrees>
              <LongitudeDegrees>-0.0383032858371734619140625</LongitudeDegrees>
            </Position>
            <AltitudeMeters>252</AltitudeMeters>
            <DistanceMeters>60915.635959227</DistanceMeters>
          </Trackpoint>
          <Trackpoint>
            <Time>2022-04-23T12:45:02.000Z</Time>
            <Position>
              <LatitudeDegrees>41.50284125469624996185302734375</LatitudeDegrees>
              <LongitudeDegrees>-0.03827604465186595916748046875</LongitudeDegrees>
            </Position>
            <AltitudeMeters>252</AltitudeMeters>
            <DistanceMeters>60925.445827965</DistanceMeters>
          </Trackpoint>
          <Trackpoint>
            <Time>2022-04-23T12:45:06.000Z</Time>
            <Position>
              <LatitudeDegrees>41.50302800349891185760498046875</LatitudeDegrees>
              <LongitudeDegrees>-0.038217119872570037841796875</LongitudeDegrees>
            </Position>
            <AltitudeMeters>252.399993896484375</AltitudeMeters>
            <DistanceMeters>60946.803597314</DistanceMeters>
          </Trackpoint>
          <Trackpoint>
            <Time>2022-04-23T12:45:09.000Z</Time>
            <Position>
              <LatitudeDegrees>41.50316990911960601806640625</LatitudeDegrees>
              <LongitudeDegrees>-0.03818484954535961151123046875</LongitudeDegrees>
            </Position>
            <AltitudeMeters>252.600006103515625</AltitudeMeters>
            <DistanceMeters>60962.825112629</DistanceMeters>
          </Trackpoint>
          <Trackpoint>
            <Time>2022-04-23T12:45:10.000Z</Time>
            <Position>
              <LatitudeDegrees>41.50321307592093944549560546875</LatitudeDegrees>
              <LongitudeDegrees>-0.03817663528025150299072265625</LongitudeDegrees>
            </Position>
            <AltitudeMeters>252.600006103515625</AltitudeMeters>
            <DistanceMeters>60967.677992121</DistanceMeters>
          </Trackpoint>
          <Trackpoint>
            <Time>2022-04-23T12:45:13.000Z</Time>
            <Position>
              <LatitudeDegrees>41.50334467180073261260986328125</LatitudeDegrees>
              <LongitudeDegrees>-0.0381458736956119537353515625</LongitudeDegrees>
            </Position>
            <AltitudeMeters>252.8000030517578125</AltitudeMeters>
            <DistanceMeters>60982.547471659</DistanceMeters>
          </Trackpoint>
          <Trackpoint>
            <Time>2022-04-23T12:45:19.000Z</Time>
            <Position>
              <LatitudeDegrees>41.503626890480518341064453125</LatitudeDegrees>
              <LongitudeDegrees>-0.038091726601123809814453125</LongitudeDegrees>
            </Position>
            <AltitudeMeters>253</AltitudeMeters>
            <DistanceMeters>61014.281557201</DistanceMeters>
          </Trackpoint>
          <Trackpoint>
            <Time>2022-04-23T12:45:27.000Z</Time>
            <Position>
              <LatitudeDegrees>41.504006423056125640869140625</LatitudeDegrees>
              <LongitudeDegrees>-0.038106478750705718994140625</LongitudeDegrees>
            </Position>
            <AltitudeMeters>253.8000030517578125</AltitudeMeters>
            <DistanceMeters>61056.542277961</DistanceMeters>
          </Trackpoint>
          <Trackpoint>
            <Time>2022-04-23T12:45:28.000Z</Time>
            <Position>
              <LatitudeDegrees>41.5040525235235691070556640625</LatitudeDegrees>
              <LongitudeDegrees>-0.03810605965554714202880859375</LongitudeDegrees>
            </Position>
            <AltitudeMeters>253.8000030517578125</AltitudeMeters>
            <DistanceMeters>61061.674600338</DistanceMeters>
          </Trackpoint>
          <Trackpoint>
            <Time>2022-04-23T12:45:35.000Z</Time>
            <Position>
              <LatitudeDegrees>41.5043636597692966461181640625</LatitudeDegrees>
              <LongitudeDegrees>-0.03811393864452838897705078125</LongitudeDegrees>
            </Position>
            <AltitudeMeters>254.600006103515625</AltitudeMeters>
            <DistanceMeters>61096.311023016</DistanceMeters>
          </Trackpoint>
          <Trackpoint>
            <Time>2022-04-23T12:45:36.000Z</Time>
            <Position>
              <LatitudeDegrees>41.5044032223522663116455078125</LatitudeDegrees>
              <LongitudeDegrees>-0.03810656256973743438720703125</LongitudeDegrees>
            </Position>
            <AltitudeMeters>254.600006103515625</AltitudeMeters>
            <DistanceMeters>61100.757014169</DistanceMeters>
          </Trackpoint>
          <Trackpoint>
            <Time>2022-04-23T12:45:38.000Z</Time>
            <Position>
              <LatitudeDegrees>41.50448243133723735809326171875</LatitudeDegrees>
              <LongitudeDegrees>-0.0380932353436946868896484375</LongitudeDegrees>
            </Position>
            <AltitudeMeters>254.8000030517578125</AltitudeMeters>
            <DistanceMeters>61109.642901206</DistanceMeters>
          </Trackpoint>
          <Trackpoint>
            <Time>2022-04-23T12:45:44.000Z</Time>
            <Position>
              <LatitudeDegrees>41.5047468803822994232177734375</LatitudeDegrees>
              <LongitudeDegrees>-0.03806398250162601470947265625</LongitudeDegrees>
            </Position>
            <AltitudeMeters>255</AltitudeMeters>
            <DistanceMeters>61139.17741194</DistanceMeters>
          </Trackpoint>
          <Trackpoint>
            <Time>2022-04-23T12:45:50.000Z</Time>
            <Position>
              <LatitudeDegrees>41.5049852617084980010986328125</LatitudeDegrees>
              <LongitudeDegrees>-0.03807638771831989288330078125</LongitudeDegrees>
            </Position>
            <AltitudeMeters>255.8000030517578125</AltitudeMeters>
            <DistanceMeters>61165.729855301</DistanceMeters>
          </Trackpoint>
          <Trackpoint>
            <Time>2022-04-23T12:45:51.000Z</Time>
            <Position>
              <LatitudeDegrees>41.50502457283437252044677734375</LatitudeDegrees>
              <LongitudeDegrees>-0.03808208741247653961181640625</LongitudeDegrees>
            </Position>
            <AltitudeMeters>256</AltitudeMeters>
            <DistanceMeters>61170.130936302</DistanceMeters>
          </Trackpoint>
          <Trackpoint>
            <Time>2022-04-23T12:45:54.000Z</Time>
            <Position>
              <LatitudeDegrees>41.505128256976604461669921875</LatitudeDegrees>
              <LongitudeDegrees>-0.03809281624853610992431640625</LongitudeDegrees>
            </Position>
            <AltitudeMeters>256.399993896484375</AltitudeMeters>
            <DistanceMeters>61181.705486579</DistanceMeters>
          </Trackpoint>
          <Trackpoint>
            <Time>2022-04-23T12:45:56.000Z</Time>
            <Position>
              <LatitudeDegrees>41.50519103743135929107666015625</LatitudeDegrees>
              <LongitudeDegrees>-0.03811025060713291168212890625</LongitudeDegrees>
            </Position>
            <AltitudeMeters>257.20001220703125</AltitudeMeters>
            <DistanceMeters>61188.841986501</DistanceMeters>
          </Trackpoint>
          <Trackpoint>
            <Time>2022-04-23T12:45:58.000Z</Time>
            <Position>
              <LatitudeDegrees>41.50525859557092189788818359375</LatitudeDegrees>
              <LongitudeDegrees>-0.0381203927099704742431640625</LongitudeDegrees>
            </Position>
            <AltitudeMeters>258</AltitudeMeters>
            <DistanceMeters>61196.40840472</DistanceMeters>
          </Trackpoint>
          <Trackpoint>
            <Time>2022-04-23T12:45:59.000Z</Time>
            <Position>
              <LatitudeDegrees>41.50529044680297374725341796875</LatitudeDegrees>
              <LongitudeDegrees>-0.03812667913734912872314453125</LongitudeDegrees>
            </Position>
            <AltitudeMeters>258.600006103515625</AltitudeMeters>
            <DistanceMeters>61199.991806554</DistanceMeters>
          </Trackpoint>
          <Trackpoint>
            <Time>2022-04-23T12:46:02.000Z</Time>
            <Position>
              <LatitudeDegrees>41.50537594221532344818115234375</LatitudeDegrees>
              <LongitudeDegrees>-0.03815182484686374664306640625</LongitudeDegrees>
            </Position>
            <AltitudeMeters>259.600006103515625</AltitudeMeters>
            <DistanceMeters>61209.735636588</DistanceMeters>
          </Trackpoint>
          <Trackpoint>
            <Time>2022-04-23T12:46:04.000Z</Time>
            <Position>
              <LatitudeDegrees>41.50542254559695720672607421875</LatitudeDegrees>
              <LongitudeDegrees>-0.03815216012299060821533203125</LongitudeDegrees>
            </Position>
            <AltitudeMeters>260.20001220703125</AltitudeMeters>
            <DistanceMeters>61214.923085653</DistanceMeters>
          </Trackpoint>
          <Trackpoint>
            <Time>2022-04-23T12:46:06.000Z</Time>
            <Position>
              <LatitudeDegrees>41.50547686032950878143310546875</LatitudeDegrees>
              <LongitudeDegrees>-0.03814436495304107666015625</LongitudeDegrees>
            </Position>
            <AltitudeMeters>260.79998779296875</AltitudeMeters>
            <DistanceMeters>61221.003310399</DistanceMeters>
          </Trackpoint>
          <Trackpoint>
            <Time>2022-04-23T12:46:10.000Z</Time>
            <Position>
              <LatitudeDegrees>41.50562144815921783447265625</LatitudeDegrees>
              <LongitudeDegrees>-0.03817110322415828704833984375</LongitudeDegrees>
            </Position>
            <AltitudeMeters>261.20001220703125</AltitudeMeters>
            <DistanceMeters>61237.249821854</DistanceMeters>
          </Trackpoint>
          <Trackpoint>
            <Time>2022-04-23T12:46:12.000Z</Time>
            <Position>
              <LatitudeDegrees>41.505700908601284027099609375</LatitudeDegrees>
              <LongitudeDegrees>-0.03818786703050136566162109375</LongitudeDegrees>
            </Position>
            <AltitudeMeters>261.399993896484375</AltitudeMeters>
            <DistanceMeters>61246.203032931</DistanceMeters>
          </Trackpoint>
          <Trackpoint>
            <Time>2022-04-23T12:46:17.000Z</Time>
            <Position>
              <LatitudeDegrees>41.50590903125703334808349609375</LatitudeDegrees>
              <LongitudeDegrees>-0.03822483122348785400390625</LongitudeDegrees>
            </Position>
            <AltitudeMeters>261.399993896484375</AltitudeMeters>
            <DistanceMeters>61269.571491221</DistanceMeters>
          </Trackpoint>
          <Trackpoint>
            <Time>2022-04-23T12:46:24.000Z</Time>
            <Position>
              <LatitudeDegrees>41.5061734803020954132080078125</LatitudeDegrees>
              <LongitudeDegrees>-0.03825173713266849517822265625</LongitudeDegrees>
            </Position>
            <AltitudeMeters>261.399993896484375</AltitudeMeters>
            <DistanceMeters>61299.090557714</DistanceMeters>
          </Trackpoint>
          <Trackpoint>
            <Time>2022-04-23T12:46:29.000Z</Time>
            <Position>
              <LatitudeDegrees>41.506404317915439605712890625</LatitudeDegrees>
              <LongitudeDegrees>-0.03825877793133258819580078125</LongitudeDegrees>
            </Position>
            <AltitudeMeters>262</AltitudeMeters>
            <DistanceMeters>61324.789969986</DistanceMeters>
          </Trackpoint>
          <Trackpoint>
            <Time>2022-04-23T12:46:30.000Z</Time>
            <Position>
              <LatitudeDegrees>41.50645519606769084930419921875</LatitudeDegrees>
              <LongitudeDegrees>-0.03826313652098178863525390625</LongitudeDegrees>
            </Position>
            <AltitudeMeters>262</AltitudeMeters>
            <DistanceMeters>61330.465380339</DistanceMeters>
          </Trackpoint>
          <Trackpoint>
            <Time>2022-04-23T12:46:31.000Z</Time>
            <Position>
              <LatitudeDegrees>41.50650531984865665435791015625</LatitudeDegrees>
              <LongitudeDegrees>-0.03826531581580638885498046875</LongitudeDegrees>
            </Position>
            <AltitudeMeters>262.20001220703125</AltitudeMeters>
            <DistanceMeters>61336.04855362</DistanceMeters>
          </Trackpoint>
          <Trackpoint>
            <Time>2022-04-23T12:46:36.000Z</Time>
            <Position>
              <LatitudeDegrees>41.5067303739488124847412109375</LatitudeDegrees>
              <LongitudeDegrees>-0.038247294723987579345703125</LongitudeDegrees>
            </Position>
            <AltitudeMeters>262.399993896484375</AltitudeMeters>
            <DistanceMeters>61361.142624251</DistanceMeters>
          </Trackpoint>
          <Trackpoint>
            <Time>2022-04-23T12:46:37.000Z</Time>
            <Position>
              <LatitudeDegrees>41.50677052326500415802001953125</LatitudeDegrees>
              <LongitudeDegrees>-0.03823882900178432464599609375</LongitudeDegrees>
            </Position>
            <AltitudeMeters>262.399993896484375</AltitudeMeters>
            <DistanceMeters>61365.666135412</DistanceMeters>
          </Trackpoint>
          <Trackpoint>
            <Time>2022-04-23T12:46:44.000Z</Time>
            <Position>
              <LatitudeDegrees>41.507055424153804779052734375</LatitudeDegrees>
              <LongitudeDegrees>-0.03822273574769496917724609375</LongitudeDegrees>
            </Position>
            <AltitudeMeters>262.600006103515625</AltitudeMeters>
            <DistanceMeters>61397.404488984</DistanceMeters>
          </Trackpoint>
          <Trackpoint>
            <Time>2022-04-23T12:46:48.000Z</Time>
            <Position>
              <LatitudeDegrees>41.5072178654372692108154296875</LatitudeDegrees>
              <LongitudeDegrees>-0.03825861029326915740966796875</LongitudeDegrees>
            </Position>
            <AltitudeMeters>262.79998779296875</AltitudeMeters>
            <DistanceMeters>61415.730114292</DistanceMeters>
          </Trackpoint>
          <Trackpoint>
            <Time>2022-04-23T12:46:51.000Z</Time>
            <Position>
              <LatitudeDegrees>41.50734468363225460052490234375</LatitudeDegrees>
              <LongitudeDegrees>-0.0383001007139682769775390625</LongitudeDegrees>
            </Position>
            <AltitudeMeters>262.79998779296875</AltitudeMeters>
            <DistanceMeters>61430.262989367</DistanceMeters>
          </Trackpoint>
          <Trackpoint>
            <Time>2022-04-23T12:46:52.000Z</Time>
            <Position>
              <LatitudeDegrees>41.50738860480487346649169921875</LatitudeDegrees>
              <LongitudeDegrees>-0.0383138470351696014404296875</LongitudeDegrees>
            </Position>
            <AltitudeMeters>263</AltitudeMeters>
            <DistanceMeters>61435.284141967</DistanceMeters>
          </Trackpoint>
          <Trackpoint>
            <Time>2022-04-23T12:46:59.000Z</Time>
            <Position>
              <LatitudeDegrees>41.5076879225671291351318359375</LatitudeDegrees>
              <LongitudeDegrees>-0.03845952451229095458984375</LongitudeDegrees>
            </Position>
            <AltitudeMeters>262.79998779296875</AltitudeMeters>
            <DistanceMeters>61470.742606312</DistanceMeters>
          </Trackpoint>
          <Trackpoint>
            <Time>2022-04-23T12:47:01.000Z</Time>
            <Position>
              <LatitudeDegrees>41.50775648653507232666015625</LatitudeDegrees>
              <LongitudeDegrees>-0.0385153479874134063720703125</LongitudeDegrees>
            </Position>
            <AltitudeMeters>263</AltitudeMeters>
            <DistanceMeters>61479.680170646</DistanceMeters>
          </Trackpoint>
          <Trackpoint>
            <Time>2022-04-23T12:47:05.000Z</Time>
            <Position>
              <LatitudeDegrees>41.50787492282688617706298828125</LatitudeDegrees>
              <LongitudeDegrees>-0.038627497851848602294921875</LongitudeDegrees>
            </Position>
            <AltitudeMeters>263.600006103515625</AltitudeMeters>
            <DistanceMeters>61495.84058032</DistanceMeters>
          </Trackpoint>
          <Trackpoint>
            <Time>2022-04-23T12:47:06.000Z</Time>
            <Position>
              <LatitudeDegrees>41.5079048462212085723876953125</LatitudeDegrees>
              <LongitudeDegrees>-0.0386573374271392822265625</LongitudeDegrees>
            </Position>
            <AltitudeMeters>264</AltitudeMeters>
            <DistanceMeters>61499.997931197</DistanceMeters>
          </Trackpoint>
          <Trackpoint>
            <Time>2022-04-23T12:47:12.000Z</Time>
            <Position>
              <LatitudeDegrees>41.508114226162433624267578125</LatitudeDegrees>
              <LongitudeDegrees>-0.0388182699680328369140625</LongitudeDegrees>
            </Position>
            <AltitudeMeters>264.600006103515625</AltitudeMeters>
            <DistanceMeters>61526.886965406</DistanceMeters>
          </Trackpoint>
          <Trackpoint>
            <Time>2022-04-23T12:47:13.000Z</Time>
            <Position>
              <LatitudeDegrees>41.508153118193149566650390625</LatitudeDegrees>
              <LongitudeDegrees>-0.038825310766696929931640625</LongitudeDegrees>
            </Position>
            <AltitudeMeters>264.600006103515625</AltitudeMeters>
            <DistanceMeters>61531.256127981</DistanceMeters>
          </Trackpoint>
          <Trackpoint>
            <Time>2022-04-23T12:47:16.000Z</Time>
            <Position>
              <LatitudeDegrees>41.50827683508396148681640625</LatitudeDegrees>
              <LongitudeDegrees>-0.03882321529090404510498046875</LongitudeDegrees>
            </Position>
            <AltitudeMeters>265</AltitudeMeters>
            <DistanceMeters>61545.02680717</DistanceMeters>
          </Trackpoint>
          <Trackpoint>
            <Time>2022-04-23T12:47:18.000Z</Time>
            <Position>
              <LatitudeDegrees>41.50837079621851444244384765625</LatitudeDegrees>
              <LongitudeDegrees>-0.0388298369944095611572265625</LongitudeDegrees>
            </Position>
            <AltitudeMeters>265.20001220703125</AltitudeMeters>
            <DistanceMeters>61555.499596124</DistanceMeters>
          </Trackpoint>
          <Trackpoint>
            <Time>2022-04-23T12:47:19.000Z</Time>
            <Position>
              <LatitudeDegrees>41.50841790251433849334716796875</LatitudeDegrees>
              <LongitudeDegrees>-0.03884232603013515472412109375</LongitudeDegrees>
            </Position>
            <AltitudeMeters>265.20001220703125</AltitudeMeters>
            <DistanceMeters>61560.844796015</DistanceMeters>
          </Trackpoint>
          <Trackpoint>
            <Time>2022-04-23T12:47:20.000Z</Time>
            <Position>
              <LatitudeDegrees>41.50846551172435283660888671875</LatitudeDegrees>
              <LongitudeDegrees>-0.03885858692228794097900390625</LongitudeDegrees>
            </Position>
            <AltitudeMeters>265.20001220703125</AltitudeMeters>
            <DistanceMeters>61566.314406902</DistanceMeters>
          </Trackpoint>
          <Trackpoint>
            <Time>2022-04-23T12:47:23.000Z</Time>
            <Position>
              <LatitudeDegrees>41.50860867463052272796630859375</LatitudeDegrees>
              <LongitudeDegrees>-0.0389143265783786773681640625</LongitudeDegrees>
            </Position>
            <AltitudeMeters>264.79998779296875</AltitudeMeters>
            <DistanceMeters>61582.912013419</DistanceMeters>
          </Trackpoint>
          <Trackpoint>
            <Time>2022-04-23T12:47:25.000Z</Time>
            <Position>
              <LatitudeDegrees>41.5087066590785980224609375</LatitudeDegrees>
              <LongitudeDegrees>-0.038950704038143157958984375</LongitudeDegrees>
            </Position>
            <AltitudeMeters>264.600006103515625</AltitudeMeters>
            <DistanceMeters>61594.231765392</DistanceMeters>
          </Trackpoint>
          <Trackpoint>
            <Time>2022-04-23T12:47:31.000Z</Time>
            <Position>
              <LatitudeDegrees>41.50900245644152164459228515625</LatitudeDegrees>
              <LongitudeDegrees>-0.03908188082277774810791015625</LongitudeDegrees>
            </Position>
            <AltitudeMeters>264.399993896484375</AltitudeMeters>
            <DistanceMeters>61628.922633756</DistanceMeters>
          </Trackpoint>
          <Trackpoint>
            <Time>2022-04-23T12:47:33.000Z</Time>
            <Position>
              <LatitudeDegrees>41.50909465737640857696533203125</LatitudeDegrees>
              <LongitudeDegrees>-0.03912647254765033721923828125</LongitudeDegrees>
            </Position>
            <AltitudeMeters>264.399993896484375</AltitudeMeters>
            <DistanceMeters>61639.837063125</DistanceMeters>
          </Trackpoint>
          <Trackpoint>
            <Time>2022-04-23T12:47:40.000Z</Time>
            <Position>
              <LatitudeDegrees>41.5093887783586978912353515625</LatitudeDegrees>
              <LongitudeDegrees>-0.0392858125269412994384765625</LongitudeDegrees>
            </Position>
            <AltitudeMeters>264.79998779296875</AltitudeMeters>
            <DistanceMeters>61675.164514281</DistanceMeters>
          </Trackpoint>
          <Trackpoint>
            <Time>2022-04-23T12:47:42.000Z</Time>
            <Position>
              <LatitudeDegrees>41.50947301648557186126708984375</LatitudeDegrees>
              <LongitudeDegrees>-0.0393495149910449981689453125</LongitudeDegrees>
            </Position>
            <AltitudeMeters>264.79998779296875</AltitudeMeters>
            <DistanceMeters>61685.939051986</DistanceMeters>
          </Trackpoint>
          <Trackpoint>
            <Time>2022-04-23T12:47:48.000Z</Time>
            <Position>
              <LatitudeDegrees>41.5096797980368137359619140625</LatitudeDegrees>
              <LongitudeDegrees>-0.03957792185246944427490234375</LongitudeDegrees>
            </Position>
            <AltitudeMeters>265.399993896484375</AltitudeMeters>
            <DistanceMeters>61715.807234759</DistanceMeters>
          </Trackpoint>
          <Trackpoint>
            <Time>2022-04-23T12:47:50.000Z</Time>
            <Position>
              <LatitudeDegrees>41.50974023155868053436279296875</LatitudeDegrees>
              <LongitudeDegrees>-0.03964237868785858154296875</LongitudeDegrees>
            </Position>
            <AltitudeMeters>266.20001220703125</AltitudeMeters>
            <DistanceMeters>61724.415417337</DistanceMeters>
          </Trackpoint>
          <Trackpoint>
            <Time>2022-04-23T12:47:52.000Z</Time>
            <Position>
              <LatitudeDegrees>41.509809382259845733642578125</LatitudeDegrees>
              <LongitudeDegrees>-0.03971320576965808868408203125</LongitudeDegrees>
            </Position>
            <AltitudeMeters>266.600006103515625</AltitudeMeters>
            <DistanceMeters>61734.115592415</DistanceMeters>
          </Trackpoint>
          <Trackpoint>
            <Time>2022-04-23T12:47:53.000Z</Time>
            <Position>
              <LatitudeDegrees>41.50984014384448528289794921875</LatitudeDegrees>
              <LongitudeDegrees>-0.03974497318267822265625</LongitudeDegrees>
            </Position>
            <AltitudeMeters>266.600006103515625</AltitudeMeters>
            <DistanceMeters>61738.444265262</DistanceMeters>
          </Trackpoint>
          <Trackpoint>
            <Time>2022-04-23T12:47:57.000Z</Time>
            <Position>
              <LatitudeDegrees>41.509972997009754180908203125</LatitudeDegrees>
              <LongitudeDegrees>-0.039876401424407958984375</LongitudeDegrees>
            </Position>
            <AltitudeMeters>266.79998779296875</AltitudeMeters>
            <DistanceMeters>61756.846600082</DistanceMeters>
          </Trackpoint>
          <Trackpoint>
            <Time>2022-04-23T12:47:58.000Z</Time>
            <Position>
              <LatitudeDegrees>41.51000711135566234588623046875</LatitudeDegrees>
              <LongitudeDegrees>-0.039911605417728424072265625</LongitudeDegrees>
            </Position>
            <AltitudeMeters>266.79998779296875</AltitudeMeters>
            <DistanceMeters>61761.645213937</DistanceMeters>
          </Trackpoint>
          <Trackpoint>
            <Time>2022-04-23T12:48:02.000Z</Time>
            <Position>
              <LatitudeDegrees>41.51014071889221668243408203125</LatitudeDegrees>
              <LongitudeDegrees>-0.04003758542239665985107421875</LongitudeDegrees>
            </Position>
            <AltitudeMeters>267.20001220703125</AltitudeMeters>
            <DistanceMeters>61779.849217489</DistanceMeters>
          </Trackpoint>
          <Trackpoint>
            <Time>2022-04-23T12:48:05.000Z</Time>
            <Position>
              <LatitudeDegrees>41.5102444030344486236572265625</LatitudeDegrees>
              <LongitudeDegrees>-0.04013246856629848480224609375</LongitudeDegrees>
            </Position>
            <AltitudeMeters>267.600006103515625</AltitudeMeters>
            <DistanceMeters>61793.839138034</DistanceMeters>
          </Trackpoint>
          <Trackpoint>
            <Time>2022-04-23T12:48:06.000Z</Time>
            <Position>
              <LatitudeDegrees>41.51028178632259368896484375</LatitudeDegrees>
              <LongitudeDegrees>-0.040169097483158111572265625</LongitudeDegrees>
            </Position>
            <AltitudeMeters>267.600006103515625</AltitudeMeters>
            <DistanceMeters>61798.999534863</DistanceMeters>
          </Trackpoint>
          <Trackpoint>
            <Time>2022-04-23T12:48:09.000Z</Time>
            <Position>
              <LatitudeDegrees>41.51039351709187030792236328125</LatitudeDegrees>
              <LongitudeDegrees>-0.0403030402958393096923828125</LongitudeDegrees>
            </Position>
            <AltitudeMeters>268.20001220703125</AltitudeMeters>
            <DistanceMeters>61815.711003206</DistanceMeters>
          </Trackpoint>
          <Trackpoint>
            <Time>2022-04-23T12:48:10.000Z</Time>
            <Position>
              <LatitudeDegrees>41.510433666408061981201171875</LatitudeDegrees>
              <LongitudeDegrees>-0.040351487696170806884765625</LongitudeDegrees>
            </Position>
            <AltitudeMeters>268.20001220703125</AltitudeMeters>
            <DistanceMeters>61821.734527685</DistanceMeters>
          </Trackpoint>
          <Trackpoint>
            <Time>2022-04-23T12:48:16.000Z</Time>
            <Position>
              <LatitudeDegrees>41.5106802619993686676025390625</LatitudeDegrees>
              <LongitudeDegrees>-0.0405866838991641998291015625</LongitudeDegrees>
            </Position>
            <AltitudeMeters>268.20001220703125</AltitudeMeters>
            <DistanceMeters>61855.462720199</DistanceMeters>
          </Trackpoint>
          <Trackpoint>
            <Time>2022-04-23T12:48:17.000Z</Time>
            <Position>
              <LatitudeDegrees>41.51071974076330661773681640625</LatitudeDegrees>
              <LongitudeDegrees>-0.04062213934957981109619140625</LongitudeDegrees>
            </Position>
            <AltitudeMeters>268</AltitudeMeters>
            <DistanceMeters>61860.757848844</DistanceMeters>
          </Trackpoint>
          <Trackpoint>
            <Time>2022-04-23T12:48:22.000Z</Time>
            <Position>
              <LatitudeDegrees>41.51094102300703525543212890625</LatitudeDegrees>
              <LongitudeDegrees>-0.040770582854747772216796875</LongitudeDegrees>
            </Position>
            <AltitudeMeters>267.79998779296875</AltitudeMeters>
            <DistanceMeters>61888.319691686</DistanceMeters>
          </Trackpoint>
          <Trackpoint>
            <Time>2022-04-23T12:48:31.000Z</Time>
            <Position>
              <LatitudeDegrees>41.5113984234631061553955078125</LatitudeDegrees>
              <LongitudeDegrees>-0.04100804217159748077392578125</LongitudeDegrees>
            </Position>
            <AltitudeMeters>267.399993896484375</AltitudeMeters>
            <DistanceMeters>61942.940961139</DistanceMeters>
          </Trackpoint>
          <Trackpoint>
            <Time>2022-04-23T12:48:37.000Z</Time>
            <Position>
              <LatitudeDegrees>41.5116807259619235992431640625</LatitudeDegrees>
              <LongitudeDegrees>-0.04117794334888458251953125</LongitudeDegrees>
            </Position>
            <AltitudeMeters>267.79998779296875</AltitudeMeters>
            <DistanceMeters>61977.405409419</DistanceMeters>
          </Trackpoint>
          <Trackpoint>
            <Time>2022-04-23T12:48:39.000Z</Time>
            <Position>
              <LatitudeDegrees>41.51178407482802867889404296875</LatitudeDegrees>
              <LongitudeDegrees>-0.0412227027118206024169921875</LongitudeDegrees>
            </Position>
            <AltitudeMeters>267.79998779296875</AltitudeMeters>
            <DistanceMeters>61989.498095553</DistanceMeters>
          </Trackpoint>
          <Trackpoint>
            <Time>2022-04-23T12:48:40.000Z</Time>
            <Position>
              <LatitudeDegrees>41.511835791170597076416015625</LatitudeDegrees>
              <LongitudeDegrees>-0.04123602993786334991455078125</LongitudeDegrees>
            </Position>
            <AltitudeMeters>267.79998779296875</AltitudeMeters>
            <DistanceMeters>61995.360558427</DistanceMeters>
          </Trackpoint>
          <Trackpoint>
            <Time>2022-04-23T12:48:44.000Z</Time>
            <Position>
              <LatitudeDegrees>41.5120310895144939422607421875</LatitudeDegrees>
              <LongitudeDegrees>-0.0412213616073131561279296875</LongitudeDegrees>
            </Position>
            <AltitudeMeters>267.79998779296875</AltitudeMeters>
            <DistanceMeters>62017.132047641</DistanceMeters>
          </Trackpoint>
          <Trackpoint>
            <Time>2022-04-23T12:48:46.000Z</Time>
            <Position>
              <LatitudeDegrees>41.51214131154119968414306640625</LatitudeDegrees>
              <LongitudeDegrees>-0.04117148928344249725341796875</LongitudeDegrees>
            </Position>
            <AltitudeMeters>267.600006103515625</AltitudeMeters>
            <DistanceMeters>62030.084994037</DistanceMeters>
          </Trackpoint>
          <Trackpoint>
            <Time>2022-04-23T12:48:48.000Z</Time>
            <Position>
              <LatitudeDegrees>41.51223736815154552459716796875</LatitudeDegrees>
              <LongitudeDegrees>-0.04109303466975688934326171875</LongitudeDegrees>
            </Position>
            <AltitudeMeters>267.399993896484375</AltitudeMeters>
            <DistanceMeters>62042.617717191</DistanceMeters>
          </Trackpoint>
          <Trackpoint>
            <Time>2022-04-23T12:48:49.000Z</Time>
            <Position>
              <LatitudeDegrees>41.51229470036923885345458984375</LatitudeDegrees>
              <LongitudeDegrees>-0.04102782346308231353759765625</LongitudeDegrees>
            </Position>
            <AltitudeMeters>267.399993896484375</AltitudeMeters>
            <DistanceMeters>62050.999482801</DistanceMeters>
          </Trackpoint>
          <Trackpoint>
            <Time>2022-04-23T12:48:51.000Z</Time>
            <Position>
              <LatitudeDegrees>41.51237768121063709259033203125</LatitudeDegrees>
              <LongitudeDegrees>-0.04089136607944965362548828125</LongitudeDegrees>
            </Position>
            <AltitudeMeters>267.20001220703125</AltitudeMeters>
            <DistanceMeters>62065.650247869</DistanceMeters>
          </Trackpoint>
          <Trackpoint>
            <Time>2022-04-23T12:48:52.000Z</Time>
            <Position>
              <LatitudeDegrees>41.512410454452037811279296875</LatitudeDegrees>
              <LongitudeDegrees>-0.04080955870449542999267578125</LongitudeDegrees>
            </Position>
            <AltitudeMeters>267</AltitudeMeters>
            <DistanceMeters>62073.383110613</DistanceMeters>
          </Trackpoint>
          <Trackpoint>
            <Time>2022-04-23T12:48:53.000Z</Time>
            <Position>
              <LatitudeDegrees>41.51243467815220355987548828125</LatitudeDegrees>
              <LongitudeDegrees>-0.0407226383686065673828125</LongitudeDegrees>
            </Position>
            <AltitudeMeters>266.79998779296875</AltitudeMeters>
            <DistanceMeters>62081.113053421</DistanceMeters>
          </Trackpoint>
          <Trackpoint>
            <Time>2022-04-23T12:48:55.000Z</Time>
            <Position>
              <LatitudeDegrees>41.5124552138149738311767578125</LatitudeDegrees>
              <LongitudeDegrees>-0.04053563810884952545166015625</LongitudeDegrees>
            </Position>
            <AltitudeMeters>266</AltitudeMeters>
            <DistanceMeters>62096.86457336</DistanceMeters>
          </Trackpoint>
          <Trackpoint>
            <Time>2022-04-23T12:48:56.000Z</Time>
            <Position>
              <LatitudeDegrees>41.5124525316059589385986328125</LatitudeDegrees>
              <LongitudeDegrees>-0.0404351390898227691650390625</LongitudeDegrees>
            </Position>
            <AltitudeMeters>265.79998779296875</AltitudeMeters>
            <DistanceMeters>62105.245261553</DistanceMeters>
          </Trackpoint>
          <Trackpoint>
            <Time>2022-04-23T12:48:57.000Z</Time>
            <Position>
              <LatitudeDegrees>41.5124451555311679840087890625</LatitudeDegrees>
              <LongitudeDegrees>-0.04033078439533710479736328125</LongitudeDegrees>
            </Position>
            <AltitudeMeters>265</AltitudeMeters>
            <DistanceMeters>62113.981519682</DistanceMeters>
          </Trackpoint>
          <Trackpoint>
            <Time>2022-04-23T12:49:00.000Z</Time>
            <Position>
              <LatitudeDegrees>41.51240919716656208038330078125</LatitudeDegrees>
              <LongitudeDegrees>-0.0400093384087085723876953125</LongitudeDegrees>
            </Position>
            <AltitudeMeters>262.600006103515625</AltitudeMeters>
            <DistanceMeters>62141.069300904</DistanceMeters>
          </Trackpoint>
          <Trackpoint>
            <Time>2022-04-23T12:49:02.000Z</Time>
            <Position>
              <LatitudeDegrees>41.51238706894218921661376953125</LatitudeDegrees>
              <LongitudeDegrees>-0.03979300148785114288330078125</LongitudeDegrees>
            </Position>
            <AltitudeMeters>261.20001220703125</AltitudeMeters>
            <DistanceMeters>62159.267350896</DistanceMeters>
          </Trackpoint>
          <Trackpoint>
            <Time>2022-04-23T12:49:05.000Z</Time>
            <Position>
              <LatitudeDegrees>41.51235873810946941375732421875</LatitudeDegrees>
              <LongitudeDegrees>-0.03947163932025432586669921875</LongitudeDegrees>
            </Position>
            <AltitudeMeters>260</AltitudeMeters>
            <DistanceMeters>62186.236193606</DistanceMeters>
          </Trackpoint>
          <Trackpoint>
            <Time>2022-04-23T12:49:08.000Z</Time>
            <Position>
              <LatitudeDegrees>41.51235756464302539825439453125</LatitudeDegrees>
              <LongitudeDegrees>-0.03913946449756622314453125</LongitudeDegrees>
            </Position>
            <AltitudeMeters>259.399993896484375</AltitudeMeters>
            <DistanceMeters>62213.921277288</DistanceMeters>
          </Trackpoint>
          <Trackpoint>
            <Time>2022-04-23T12:49:09.000Z</Time>
            <Position>
              <LatitudeDegrees>41.512378938496112823486328125</LatitudeDegrees>
              <LongitudeDegrees>-0.03903360106050968170166015625</LongitudeDegrees>
            </Position>
            <AltitudeMeters>259.20001220703125</AltitudeMeters>
            <DistanceMeters>62223.059665929</DistanceMeters>
          </Trackpoint>
          <Trackpoint>
            <Time>2022-04-23T12:49:10.000Z</Time>
            <Position>
              <LatitudeDegrees>41.5124119631946086883544921875</LatitudeDegrees>
              <LongitudeDegrees>-0.03893469460308551788330078125</LongitudeDegrees>
            </Position>
            <AltitudeMeters>259</AltitudeMeters>
            <DistanceMeters>62232.085703247</DistanceMeters>
          </Trackpoint>
          <Trackpoint>
            <Time>2022-04-23T12:49:11.000Z</Time>
            <Position>
              <LatitudeDegrees>41.5124558843672275543212890625</LatitudeDegrees>
              <LongitudeDegrees>-0.03884836100041866302490234375</LongitudeDegrees>
            </Position>
            <AltitudeMeters>258.79998779296875</AltitudeMeters>
            <DistanceMeters>62240.784671037</DistanceMeters>
          </Trackpoint>
          <Trackpoint>
            <Time>2022-04-23T12:49:12.000Z</Time>
            <Position>
              <LatitudeDegrees>41.51251472532749176025390625</LatitudeDegrees>
              <LongitudeDegrees>-0.0387885980308055877685546875</LongitudeDegrees>
            </Position>
            <AltitudeMeters>258.79998779296875</AltitudeMeters>
            <DistanceMeters>62249.013128558</DistanceMeters>
          </Trackpoint>
          <Trackpoint>
            <Time>2022-04-23T12:49:14.000Z</Time>
            <Position>
              <LatitudeDegrees>41.51266367174685001373291015625</LatitudeDegrees>
              <LongitudeDegrees>-0.03874392248690128326416015625</LongitudeDegrees>
            </Position>
            <AltitudeMeters>257.79998779296875</AltitudeMeters>
            <DistanceMeters>62266.004053898</DistanceMeters>
          </Trackpoint>
          <Trackpoint>
            <Time>2022-04-23T12:49:15.000Z</Time>
            <Position>
              <LatitudeDegrees>41.5127271227538585662841796875</LatitudeDegrees>
              <LongitudeDegrees>-0.03874719142913818359375</LongitudeDegrees>
            </Position>
            <AltitudeMeters>257.600006103515625</AltitudeMeters>
            <DistanceMeters>62273.070617613</DistanceMeters>
          </Trackpoint>
          <Trackpoint>
            <Time>2022-04-23T12:49:18.000Z</Time>
            <Position>
              <LatitudeDegrees>41.512965001165866851806640625</LatitudeDegrees>
              <LongitudeDegrees>-0.03879748284816741943359375</LongitudeDegrees>
            </Position>
            <AltitudeMeters>257.399993896484375</AltitudeMeters>
            <DistanceMeters>62299.876574095</DistanceMeters>
          </Trackpoint>
          <Trackpoint>
            <Time>2022-04-23T12:49:20.000Z</Time>
            <Position>
              <LatitudeDegrees>41.5131022967398166656494140625</LatitudeDegrees>
              <LongitudeDegrees>-0.0388284958899021148681640625</LongitudeDegrees>
            </Position>
            <AltitudeMeters>257.399993896484375</AltitudeMeters>
            <DistanceMeters>62315.374962186</DistanceMeters>
          </Trackpoint>
          <Trackpoint>
            <Time>2022-04-23T12:49:21.000Z</Time>
            <Position>
              <LatitudeDegrees>41.51317412964999675750732421875</LatitudeDegrees>
              <LongitudeDegrees>-0.0388626940548419952392578125</LongitudeDegrees>
            </Position>
            <AltitudeMeters>257.399993896484375</AltitudeMeters>
            <DistanceMeters>62323.86271512</DistanceMeters>
          </Trackpoint>
          <Trackpoint>
            <Time>2022-04-23T12:49:22.000Z</Time>
            <Position>
              <LatitudeDegrees>41.513228528201580047607421875</LatitudeDegrees>
              <LongitudeDegrees>-0.03890879452228546142578125</LongitudeDegrees>
            </Position>
            <AltitudeMeters>257.600006103515625</AltitudeMeters>
            <DistanceMeters>62331.033297751</DistanceMeters>
          </Trackpoint>
          <Trackpoint>
            <Time>2022-04-23T12:49:24.000Z</Time>
            <Position>
              <LatitudeDegrees>41.51331913657486438751220703125</LatitudeDegrees>
              <LongitudeDegrees>-0.03902957774698734283447265625</LongitudeDegrees>
            </Position>
            <AltitudeMeters>258</AltitudeMeters>
            <DistanceMeters>62345.282869637</DistanceMeters>
          </Trackpoint>
          <Trackpoint>
            <Time>2022-04-23T12:49:26.000Z</Time>
            <Position>
              <LatitudeDegrees>41.51337261311709880828857421875</LatitudeDegrees>
              <LongitudeDegrees>-0.03916838206350803375244140625</LongitudeDegrees>
            </Position>
            <AltitudeMeters>258</AltitudeMeters>
            <DistanceMeters>62358.292162189</DistanceMeters>
          </Trackpoint>
          <Trackpoint>
            <Time>2022-04-23T12:49:28.000Z</Time>
            <Position>
              <LatitudeDegrees>41.513385772705078125</LatitudeDegrees>
              <LongitudeDegrees>-0.0393079407513141632080078125</LongitudeDegrees>
            </Position>
            <AltitudeMeters>258</AltitudeMeters>
            <DistanceMeters>62370.015162377</DistanceMeters>
          </Trackpoint>
          <Trackpoint>
            <Time>2022-04-23T12:49:31.000Z</Time>
            <Position>
              <LatitudeDegrees>41.51340329088270664215087890625</LatitudeDegrees>
              <LongitudeDegrees>-0.039511620998382568359375</LongitudeDegrees>
            </Position>
            <AltitudeMeters>258.20001220703125</AltitudeMeters>
            <DistanceMeters>62387.102012045</DistanceMeters>
          </Trackpoint>
          <Trackpoint>
            <Time>2022-04-23T12:49:34.000Z</Time>
            <Position>
              <LatitudeDegrees>41.51341653428971767425537109375</LatitudeDegrees>
              <LongitudeDegrees>-0.0396982021629810333251953125</LongitudeDegrees>
            </Position>
            <AltitudeMeters>258.399993896484375</AltitudeMeters>
            <DistanceMeters>62402.721698513</DistanceMeters>
          </Trackpoint>
          <Trackpoint>
            <Time>2022-04-23T12:49:36.000Z</Time>
            <Position>
              <LatitudeDegrees>41.513424329459667205810546875</LatitudeDegrees>
              <LongitudeDegrees>-0.03983893431723117828369140625</LongitudeDegrees>
            </Position>
            <AltitudeMeters>258.399993896484375</AltitudeMeters>
            <DistanceMeters>62414.482766108</DistanceMeters>
          </Trackpoint>
          <Trackpoint>
            <Time>2022-04-23T12:49:39.000Z</Time>
            <Position>
              <LatitudeDegrees>41.5134375728666782379150390625</LatitudeDegrees>
              <LongitudeDegrees>-0.0400187261402606964111328125</LongitudeDegrees>
            </Position>
            <AltitudeMeters>258.79998779296875</AltitudeMeters>
            <DistanceMeters>62429.539628305</DistanceMeters>
          </Trackpoint>
          <Trackpoint>
            <Time>2022-04-23T12:49:40.000Z</Time>
            <Position>
              <LatitudeDegrees>41.5134422667324542999267578125</LatitudeDegrees>
              <LongitudeDegrees>-0.0400950014591217041015625</LongitudeDegrees>
            </Position>
            <AltitudeMeters>258.79998779296875</AltitudeMeters>
            <DistanceMeters>62435.918462403</DistanceMeters>
          </Trackpoint>
          <Trackpoint>
            <Time>2022-04-23T12:49:42.000Z</Time>
            <Position>
              <LatitudeDegrees>41.51344922371208667755126953125</LatitudeDegrees>
              <LongitudeDegrees>-0.0402224063873291015625</LongitudeDegrees>
            </Position>
            <AltitudeMeters>259</AltitudeMeters>
            <DistanceMeters>62446.565271766</DistanceMeters>
          </Trackpoint>
          <Trackpoint>
            <Time>2022-04-23T12:49:47.000Z</Time>
            <Position>
              <LatitudeDegrees>41.51345911435782909393310546875</LatitudeDegrees>
              <LongitudeDegrees>-0.04055039025843143463134765625</LongitudeDegrees>
            </Position>
            <AltitudeMeters>259.600006103515625</AltitudeMeters>
            <DistanceMeters>62473.922569983</DistanceMeters>
          </Trackpoint>
          <Trackpoint>
            <Time>2022-04-23T12:49:48.000Z</Time>
            <Position>
              <LatitudeDegrees>41.51346045546233654022216796875</LatitudeDegrees>
              <LongitudeDegrees>-0.04061426036059856414794921875</LongitudeDegrees>
            </Position>
            <AltitudeMeters>259.79998779296875</AltitudeMeters>
            <DistanceMeters>62479.247458717</DistanceMeters>
          </Trackpoint>
          <Trackpoint>
            <Time>2022-04-23T12:49:50.000Z</Time>
            <Position>
              <LatitudeDegrees>41.513467244803905487060546875</LatitudeDegrees>
              <LongitudeDegrees>-0.04074518568813800811767578125</LongitudeDegrees>
            </Position>
            <AltitudeMeters>260</AltitudeMeters>
            <DistanceMeters>62490.185029413</DistanceMeters>
          </Trackpoint>
          <Trackpoint>
            <Time>2022-04-23T12:49:54.000Z</Time>
            <Position>
              <LatitudeDegrees>41.51347805745899677276611328125</LatitudeDegrees>
              <LongitudeDegrees>-0.0410024262964725494384765625</LongitudeDegrees>
            </Position>
            <AltitudeMeters>261.20001220703125</AltitudeMeters>
            <DistanceMeters>62511.657913088</DistanceMeters>
          </Trackpoint>
          <Trackpoint>
            <Time>2022-04-23T12:49:56.000Z</Time>
            <Position>
              <LatitudeDegrees>41.51348610408604145050048828125</LatitudeDegrees>
              <LongitudeDegrees>-0.0411331839859485626220703125</LongitudeDegrees>
            </Position>
            <AltitudeMeters>262</AltitudeMeters>
            <DistanceMeters>62522.592593796</DistanceMeters>
          </Trackpoint>
          <Trackpoint>
            <Time>2022-04-23T12:49:57.000Z</Time>
            <Position>
              <LatitudeDegrees>41.51348845101892948150634765625</LatitudeDegrees>
              <LongitudeDegrees>-0.04118456505239009857177734375</LongitudeDegrees>
            </Position>
            <AltitudeMeters>262.399993896484375</AltitudeMeters>
            <DistanceMeters>62526.882500065</DistanceMeters>
          </Trackpoint>
          <Trackpoint>
            <Time>2022-04-23T12:50:02.000Z</Time>
            <Position>
              <LatitudeDegrees>41.513497419655323028564453125</LatitudeDegrees>
              <LongitudeDegrees>-0.04151858389377593994140625</LongitudeDegrees>
            </Position>
            <AltitudeMeters>262.79998779296875</AltitudeMeters>
            <DistanceMeters>62554.73845937</DistanceMeters>
          </Trackpoint>
          <Trackpoint>
            <Time>2022-04-23T12:50:06.000Z</Time>
            <Position>
              <LatitudeDegrees>41.5135078132152557373046875</LatitudeDegrees>
              <LongitudeDegrees>-0.04176710732281208038330078125</LongitudeDegrees>
            </Position>
            <AltitudeMeters>263.20001220703125</AltitudeMeters>
            <DistanceMeters>62575.483250357</DistanceMeters>
          </Trackpoint>
          <Trackpoint>
            <Time>2022-04-23T12:50:08.000Z</Time>
            <Position>
              <LatitudeDegrees>41.51350588537752628326416015625</LatitudeDegrees>
              <LongitudeDegrees>-0.04188604652881622314453125</LongitudeDegrees>
            </Position>
            <AltitudeMeters>263.399993896484375</AltitudeMeters>
            <DistanceMeters>62585.39795722</DistanceMeters>
          </Trackpoint>
          <Trackpoint>
            <Time>2022-04-23T12:50:13.000Z</Time>
            <Position>
              <LatitudeDegrees>41.51352382265031337738037109375</LatitudeDegrees>
              <LongitudeDegrees>-0.04217815585434436798095703125</LongitudeDegrees>
            </Position>
            <AltitudeMeters>263.399993896484375</AltitudeMeters>
            <DistanceMeters>62609.824998817</DistanceMeters>
          </Trackpoint>
          <Trackpoint>
            <Time>2022-04-23T12:50:18.000Z</Time>
            <Position>
              <LatitudeDegrees>41.51354226283729076385498046875</LatitudeDegrees>
              <LongitudeDegrees>-0.0423566065728664398193359375</LongitudeDegrees>
            </Position>
            <AltitudeMeters>263.20001220703125</AltitudeMeters>
            <DistanceMeters>62624.83861824</DistanceMeters>
          </Trackpoint>
          <Trackpoint>
            <Time>2022-04-23T12:50:20.000Z</Time>
            <Position>
              <LatitudeDegrees>41.51354427449405193328857421875</LatitudeDegrees>
              <LongitudeDegrees>-0.0423592887818813323974609375</LongitudeDegrees>
            </Position>
            <AltitudeMeters>263</AltitudeMeters>
            <DistanceMeters>62625.153786197</DistanceMeters>
          </Trackpoint>
          <Trackpoint>
            <Time>2022-04-23T12:50:53.000Z</Time>
            <Position>
              <LatitudeDegrees>41.513544358313083648681640625</LatitudeDegrees>
              <LongitudeDegrees>-0.04243833012878894805908203125</LongitudeDegrees>
            </Position>
            <AltitudeMeters>261.79998779296875</AltitudeMeters>
            <DistanceMeters>62631.741543584</DistanceMeters>
          </Trackpoint>
          <Trackpoint>
            <Time>2022-04-23T12:50:54.000Z</Time>
            <Position>
              <LatitudeDegrees>41.51354494504630565643310546875</LatitudeDegrees>
              <LongitudeDegrees>-0.042478144168853759765625</LongitudeDegrees>
            </Position>
            <AltitudeMeters>261.79998779296875</AltitudeMeters>
            <DistanceMeters>62635.060684024</DistanceMeters>
          </Trackpoint>
          <Trackpoint>
            <Time>2022-04-23T12:50:57.000Z</Time>
            <Position>
              <LatitudeDegrees>41.51355349458754062652587890625</LatitudeDegrees>
              <LongitudeDegrees>-0.04263178445398807525634765625</LongitudeDegrees>
            </Position>
            <AltitudeMeters>262.20001220703125</AltitudeMeters>
            <DistanceMeters>62647.900899588</DistanceMeters>
          </Trackpoint>
          <Trackpoint>
            <Time>2022-04-23T12:50:59.000Z</Time>
            <Position>
              <LatitudeDegrees>41.513558439910411834716796875</LatitudeDegrees>
              <LongitudeDegrees>-0.04275114275515079498291015625</LongitudeDegrees>
            </Position>
            <AltitudeMeters>262.399993896484375</AltitudeMeters>
            <DistanceMeters>62657.863760636</DistanceMeters>
          </Trackpoint>
          <Trackpoint>
            <Time>2022-04-23T12:51:04.000Z</Time>
            <Position>
              <LatitudeDegrees>41.513585262000560760498046875</LatitudeDegrees>
              <LongitudeDegrees>-0.043077282607555389404296875</LongitudeDegrees>
            </Position>
            <AltitudeMeters>262.79998779296875</AltitudeMeters>
            <DistanceMeters>62685.208347849</DistanceMeters>
          </Trackpoint>
          <Trackpoint>
            <Time>2022-04-23T12:51:06.000Z</Time>
            <Position>
              <LatitudeDegrees>41.51361837051808834075927734375</LatitudeDegrees>
              <LongitudeDegrees>-0.04320309497416019439697265625</LongitudeDegrees>
            </Position>
            <AltitudeMeters>262.79998779296875</AltitudeMeters>
            <DistanceMeters>62696.322817956</DistanceMeters>
          </Trackpoint>
          <Trackpoint>
            <Time>2022-04-23T12:51:07.000Z</Time>
            <Position>
              <LatitudeDegrees>41.51364452205598354339599609375</LatitudeDegrees>
              <LongitudeDegrees>-0.043263696134090423583984375</LongitudeDegrees>
            </Position>
            <AltitudeMeters>262.79998779296875</AltitudeMeters>
            <DistanceMeters>62702.152844348</DistanceMeters>
          </Trackpoint>
          <Trackpoint>
            <Time>2022-04-23T12:51:09.000Z</Time>
            <Position>
              <LatitudeDegrees>41.5137128345668315887451171875</LatitudeDegrees>
              <LongitudeDegrees>-0.043374001979827880859375</LongitudeDegrees>
            </Position>
            <AltitudeMeters>262.79998779296875</AltitudeMeters>
            <DistanceMeters>62714.083144634</DistanceMeters>
          </Trackpoint>
          <Trackpoint>
            <Time>2022-04-23T12:51:10.000Z</Time>
            <Position>
              <LatitudeDegrees>41.5137456916272640228271484375</LatitudeDegrees>
              <LongitudeDegrees>-0.0434133969247341156005859375</LongitudeDegrees>
            </Position>
            <AltitudeMeters>262.600006103515625</AltitudeMeters>
            <DistanceMeters>62718.99888309</DistanceMeters>
          </Trackpoint>
          <Trackpoint>
            <Time>2022-04-23T12:51:15.000Z</Time>
            <Position>
              <LatitudeDegrees>41.513970158994197845458984375</LatitudeDegrees>
              <LongitudeDegrees>-0.04365420900285243988037109375</LongitudeDegrees>
            </Position>
            <AltitudeMeters>262.399993896484375</AltitudeMeters>
            <DistanceMeters>62751.045577053</DistanceMeters>
          </Trackpoint>
          <Trackpoint>
            <Time>2022-04-23T12:51:19.000Z</Time>
            <Position>
              <LatitudeDegrees>41.514134109020233154296875</LatitudeDegrees>
              <LongitudeDegrees>-0.0438345037400722503662109375</LongitudeDegrees>
            </Position>
            <AltitudeMeters>262.399993896484375</AltitudeMeters>
            <DistanceMeters>62774.683746826</DistanceMeters>
          </Trackpoint>
          <Trackpoint>
            <Time>2022-04-23T12:51:20.000Z</Time>
            <Position>
              <LatitudeDegrees>41.51417911984026432037353515625</LatitudeDegrees>
              <LongitudeDegrees>-0.0438822805881500244140625</LongitudeDegrees>
            </Position>
            <AltitudeMeters>262.600006103515625</AltitudeMeters>
            <DistanceMeters>62781.082369068</DistanceMeters>
          </Trackpoint>
          <Trackpoint>
            <Time>2022-04-23T12:51:30.000Z</Time>
            <Position>
              <LatitudeDegrees>41.514623276889324188232421875</LatitudeDegrees>
              <LongitudeDegrees>-0.04435242153704166412353515625</LongitudeDegrees>
            </Position>
            <AltitudeMeters>263.600006103515625</AltitudeMeters>
            <DistanceMeters>62844.162788418</DistanceMeters>
          </Trackpoint>
          <Trackpoint>
            <Time>2022-04-23T12:51:32.000Z</Time>
            <Position>
              <LatitudeDegrees>41.51470801793038845062255859375</LatitudeDegrees>
              <LongitudeDegrees>-0.04444261081516742706298828125</LongitudeDegrees>
            </Position>
            <AltitudeMeters>264</AltitudeMeters>
            <DistanceMeters>62856.223696403</DistanceMeters>
          </Trackpoint>
          <Trackpoint>
            <Time>2022-04-23T12:51:38.000Z</Time>
            <Position>
              <LatitudeDegrees>41.51496400125324726104736328125</LatitudeDegrees>
              <LongitudeDegrees>-0.044728852808475494384765625</LongitudeDegrees>
            </Position>
            <AltitudeMeters>264.79998779296875</AltitudeMeters>
            <DistanceMeters>62893.383637599</DistanceMeters>
          </Trackpoint>
          <Trackpoint>
            <Time>2022-04-23T12:51:46.000Z</Time>
            <Position>
              <LatitudeDegrees>41.51529156602919101715087890625</LatitudeDegrees>
              <LongitudeDegrees>-0.04509204067289829254150390625</LongitudeDegrees>
            </Position>
            <AltitudeMeters>264.20001220703125</AltitudeMeters>
            <DistanceMeters>62940.769392615</DistanceMeters>
          </Trackpoint>
          <Trackpoint>
            <Time>2022-04-23T12:51:47.000Z</Time>
            <Position>
              <LatitudeDegrees>41.51533096097409725189208984375</LatitudeDegrees>
              <LongitudeDegrees>-0.045139230787754058837890625</LongitudeDegrees>
            </Position>
            <AltitudeMeters>264.20001220703125</AltitudeMeters>
            <DistanceMeters>62946.659516018</DistanceMeters>
          </Trackpoint>
          <Trackpoint>
            <Time>2022-04-23T12:51:51.000Z</Time>
            <Position>
              <LatitudeDegrees>41.51549876667559146881103515625</LatitudeDegrees>
              <LongitudeDegrees>-0.04532103426754474639892578125</LongitudeDegrees>
            </Position>
            <AltitudeMeters>264.20001220703125</AltitudeMeters>
            <DistanceMeters>62970.709536527</DistanceMeters>
          </Trackpoint>
          <Trackpoint>
            <Time>2022-04-23T12:51:57.000Z</Time>
            <Position>
              <LatitudeDegrees>41.5157664008438587188720703125</LatitudeDegrees>
              <LongitudeDegrees>-0.04556209780275821685791015625</LongitudeDegrees>
            </Position>
            <AltitudeMeters>264.600006103515625</AltitudeMeters>
            <DistanceMeters>63006.639186239</DistanceMeters>
          </Trackpoint>
          <Trackpoint>
            <Time>2022-04-23T12:52:05.000Z</Time>
            <Position>
              <LatitudeDegrees>41.51616521179676055908203125</LatitudeDegrees>
              <LongitudeDegrees>-0.04580819047987461090087890625</LongitudeDegrees>
            </Position>
            <AltitudeMeters>264.600006103515625</AltitudeMeters>
            <DistanceMeters>63055.536687</DistanceMeters>
          </Trackpoint>
          <Trackpoint>
            <Time>2022-04-23T12:52:10.000Z</Time>
            <Position>
              <LatitudeDegrees>41.51642664335668087005615234375</LatitudeDegrees>
              <LongitudeDegrees>-0.0459661893546581268310546875</LongitudeDegrees>
            </Position>
            <AltitudeMeters>264.600006103515625</AltitudeMeters>
            <DistanceMeters>63087.475277379</DistanceMeters>
          </Trackpoint>
          <Trackpoint>
            <Time>2022-04-23T12:52:12.000Z</Time>
            <Position>
              <LatitudeDegrees>41.51653879322111606597900390625</LatitudeDegrees>
              <LongitudeDegrees>-0.046024359762668609619140625</LongitudeDegrees>
            </Position>
            <AltitudeMeters>264.600006103515625</AltitudeMeters>
            <DistanceMeters>63100.866291457</DistanceMeters>
          </Trackpoint>
          <Trackpoint>
            <Time>2022-04-23T12:52:20.000Z</Time>
            <Position>
              <LatitudeDegrees>41.5169985406100749969482421875</LatitudeDegrees>
              <LongitudeDegrees>-0.04624891094863414764404296875</LongitudeDegrees>
            </Position>
            <AltitudeMeters>264.79998779296875</AltitudeMeters>
            <DistanceMeters>63155.351662806</DistanceMeters>
          </Trackpoint>
          <Trackpoint>
            <Time>2022-04-23T12:52:22.000Z</Time>
            <Position>
              <LatitudeDegrees>41.5171185694634914398193359375</LatitudeDegrees>
              <LongitudeDegrees>-0.04631035029888153076171875</LongitudeDegrees>
            </Position>
            <AltitudeMeters>264.79998779296875</AltitudeMeters>
            <DistanceMeters>63169.658785957</DistanceMeters>
          </Trackpoint>
          <Trackpoint>
            <Time>2022-04-23T12:52:26.000Z</Time>
            <Position>
              <LatitudeDegrees>41.51735669933259487152099609375</LatitudeDegrees>
              <LongitudeDegrees>-0.046428032219409942626953125</LongitudeDegrees>
            </Position>
            <AltitudeMeters>265</AltitudeMeters>
            <DistanceMeters>63197.919449627</DistanceMeters>
          </Trackpoint>
          <Trackpoint>
            <Time>2022-04-23T12:52:27.000Z</Time>
            <Position>
              <LatitudeDegrees>41.51741352863609790802001953125</LatitudeDegrees>
              <LongitudeDegrees>-0.04645912908017635345458984375</LongitudeDegrees>
            </Position>
            <AltitudeMeters>265</AltitudeMeters>
            <DistanceMeters>63204.754770799</DistanceMeters>
          </Trackpoint>
          <Trackpoint>
            <Time>2022-04-23T12:52:36.000Z</Time>
            <Position>
              <LatitudeDegrees>41.5179513953626155853271484375</LatitudeDegrees>
              <LongitudeDegrees>-0.046741180121898651123046875</LongitudeDegrees>
            </Position>
            <AltitudeMeters>264.79998779296875</AltitudeMeters>
            <DistanceMeters>63269.069676666</DistanceMeters>
          </Trackpoint>
          <Trackpoint>
            <Time>2022-04-23T12:52:38.000Z</Time>
            <Position>
              <LatitudeDegrees>41.51806882582604885101318359375</LatitudeDegrees>
              <LongitudeDegrees>-0.04680798389017581939697265625</LongitudeDegrees>
            </Position>
            <AltitudeMeters>264.79998779296875</AltitudeMeters>
            <DistanceMeters>63283.27609101</DistanceMeters>
          </Trackpoint>
          <Trackpoint>
            <Time>2022-04-23T12:52:47.000Z</Time>
            <Position>
              <LatitudeDegrees>41.518605686724185943603515625</LatitudeDegrees>
              <LongitudeDegrees>-0.04708995111286640167236328125</LongitudeDegrees>
            </Position>
            <AltitudeMeters>265.399993896484375</AltitudeMeters>
            <DistanceMeters>63347.484130775</DistanceMeters>
          </Trackpoint>
          <Trackpoint>
            <Time>2022-04-23T12:52:49.000Z</Time>
            <Position>
              <LatitudeDegrees>41.5187195129692554473876953125</LatitudeDegrees>
              <LongitudeDegrees>-0.047144182026386260986328125</LongitudeDegrees>
            </Position>
            <AltitudeMeters>265.79998779296875</AltitudeMeters>
            <DistanceMeters>63360.935698408</DistanceMeters>
          </Trackpoint>
          <Trackpoint>
            <Time>2022-04-23T12:52:50.000Z</Time>
            <Position>
              <LatitudeDegrees>41.5187758393585681915283203125</LatitudeDegrees>
              <LongitudeDegrees>-0.0471762008965015411376953125</LongitudeDegrees>
            </Position>
            <AltitudeMeters>266.399993896484375</AltitudeMeters>
            <DistanceMeters>63367.749186722</DistanceMeters>
          </Trackpoint>
          <Trackpoint>
            <Time>2022-04-23T12:52:56.000Z</Time>
            <Position>
              <LatitudeDegrees>41.51911036111414432525634765625</LatitudeDegrees>
              <LongitudeDegrees>-0.04736655391752719879150390625</LongitudeDegrees>
            </Position>
            <AltitudeMeters>266.79998779296875</AltitudeMeters>
            <DistanceMeters>63408.220527765</DistanceMeters>
          </Trackpoint>
          <Trackpoint>
            <Time>2022-04-23T12:52:59.000Z</Time>
            <Position>
              <LatitudeDegrees>41.51927665807306766510009765625</LatitudeDegrees>
              <LongitudeDegrees>-0.04744534380733966827392578125</LongitudeDegrees>
            </Position>
            <AltitudeMeters>266.79998779296875</AltitudeMeters>
            <DistanceMeters>63427.859586426</DistanceMeters>
          </Trackpoint>
          <Trackpoint>
            <Time>2022-04-23T12:53:02.000Z</Time>
            <Position>
              <LatitudeDegrees>41.519442535936832427978515625</LatitudeDegrees>
              <LongitudeDegrees>-0.04752094857394695281982421875</LongitudeDegrees>
            </Position>
            <AltitudeMeters>267</AltitudeMeters>
            <DistanceMeters>63447.367624299</DistanceMeters>
          </Trackpoint>
          <Trackpoint>
            <Time>2022-04-23T12:53:03.000Z</Time>
            <Position>
              <LatitudeDegrees>41.51949559338390827178955078125</LatitudeDegrees>
              <LongitudeDegrees>-0.04754676483571529388427734375</LongitudeDegrees>
            </Position>
            <AltitudeMeters>267.20001220703125</AltitudeMeters>
            <DistanceMeters>63453.652332277</DistanceMeters>
          </Trackpoint>
          <Trackpoint>
            <Time>2022-04-23T12:53:09.000Z</Time>
            <Position>
              <LatitudeDegrees>41.51979901827871799468994140625</LatitudeDegrees>
              <LongitudeDegrees>-0.047697722911834716796875</LongitudeDegrees>
            </Position>
            <AltitudeMeters>267.399993896484375</AltitudeMeters>
            <DistanceMeters>63489.69114323</DistanceMeters>
          </Trackpoint>
          <Trackpoint>
            <Time>2022-04-23T12:53:17.000Z</Time>
            <Position>
              <LatitudeDegrees>41.5201826579868793487548828125</LatitudeDegrees>
              <LongitudeDegrees>-0.04794624634087085723876953125</LongitudeDegrees>
            </Position>
            <AltitudeMeters>268.20001220703125</AltitudeMeters>
            <DistanceMeters>63537.148591813</DistanceMeters>
          </Trackpoint>
          <Trackpoint>
            <Time>2022-04-23T12:53:18.000Z</Time>
            <Position>
              <LatitudeDegrees>41.5202292613685131072998046875</LatitudeDegrees>
              <LongitudeDegrees>-0.0479852221906185150146484375</LongitudeDegrees>
            </Position>
            <AltitudeMeters>268.399993896484375</AltitudeMeters>
            <DistanceMeters>63543.26804661</DistanceMeters>
          </Trackpoint>
          <Trackpoint>
            <Time>2022-04-23T12:53:19.000Z</Time>
            <Position>
              <LatitudeDegrees>41.52026605792343616485595703125</LatitudeDegrees>
              <LongitudeDegrees>-0.04802118055522441864013671875</LongitudeDegrees>
            </Position>
            <AltitudeMeters>268.399993896484375</AltitudeMeters>
            <DistanceMeters>63548.341974866</DistanceMeters>
          </Trackpoint>
          <Trackpoint>
            <Time>2022-04-23T12:53:23.000Z</Time>
            <Position>
              <LatitudeDegrees>41.52046806178987026214599609375</LatitudeDegrees>
              <LongitudeDegrees>-0.04818613640964031219482421875</LongitudeDegrees>
            </Position>
            <AltitudeMeters>268.79998779296875</AltitudeMeters>
            <DistanceMeters>63574.694717778</DistanceMeters>
          </Trackpoint>
          <Trackpoint>
            <Time>2022-04-23T12:53:25.000Z</Time>
            <Position>
              <LatitudeDegrees>41.52056529186666011810302734375</LatitudeDegrees>
              <LongitudeDegrees>-0.04825989715754985809326171875</LongitudeDegrees>
            </Position>
            <AltitudeMeters>268.79998779296875</AltitudeMeters>
            <DistanceMeters>63587.139952656</DistanceMeters>
          </Trackpoint>
          <Trackpoint>
            <Time>2022-04-23T12:53:29.000Z</Time>
            <Position>
              <LatitudeDegrees>41.5207633562386035919189453125</LatitudeDegrees>
              <LongitudeDegrees>-0.0483862124383449554443359375</LongitudeDegrees>
            </Position>
            <AltitudeMeters>269.399993896484375</AltitudeMeters>
            <DistanceMeters>63611.569027383</DistanceMeters>
          </Trackpoint>
          <Trackpoint>
            <Time>2022-04-23T12:53:37.000Z</Time>
            <Position>
              <LatitudeDegrees>41.5211576409637928009033203125</LatitudeDegrees>
              <LongitudeDegrees>-0.04860657267272472381591796875</LongitudeDegrees>
            </Position>
            <AltitudeMeters>270</AltitudeMeters>
            <DistanceMeters>63659.14088501</DistanceMeters>
          </Trackpoint>
          <Trackpoint>
            <Time>2022-04-23T12:53:41.000Z</Time>
            <Position>
              <LatitudeDegrees>41.52138588018715381622314453125</LatitudeDegrees>
              <LongitudeDegrees>-0.04869173280894756317138671875</LongitudeDegrees>
            </Position>
            <AltitudeMeters>270.399993896484375</AltitudeMeters>
            <DistanceMeters>63685.517089807</DistanceMeters>
          </Trackpoint>
          <Trackpoint>
            <Time>2022-04-23T12:53:42.000Z</Time>
            <Position>
              <LatitudeDegrees>41.52143885381519794464111328125</LatitudeDegrees>
              <LongitudeDegrees>-0.04870899952948093414306640625</LongitudeDegrees>
            </Position>
            <AltitudeMeters>270.399993896484375</AltitudeMeters>
            <DistanceMeters>63691.585421681</DistanceMeters>
          </Trackpoint>
          <Trackpoint>
            <Time>2022-04-23T12:53:44.000Z</Time>
            <Position>
              <LatitudeDegrees>41.5215428732335567474365234375</LatitudeDegrees>
              <LongitudeDegrees>-0.04874923266470432281494140625</LongitudeDegrees>
            </Position>
            <AltitudeMeters>270.79998779296875</AltitudeMeters>
            <DistanceMeters>63703.638465688</DistanceMeters>
          </Trackpoint>
          <Trackpoint>
            <Time>2022-04-23T12:53:50.000Z</Time>
            <Position>
              <LatitudeDegrees>41.521860547363758087158203125</LatitudeDegrees>
              <LongitudeDegrees>-0.04886205308139324188232421875</LongitudeDegrees>
            </Position>
            <AltitudeMeters>270.79998779296875</AltitudeMeters>
            <DistanceMeters>63740.224737998</DistanceMeters>
          </Trackpoint>
          <Trackpoint>
            <Time>2022-04-23T12:53:59.000Z</Time>
            <Position>
              <LatitudeDegrees>41.522321887314319610595703125</LatitudeDegrees>
              <LongitudeDegrees>-0.04912306554615497589111328125</LongitudeDegrees>
            </Position>
            <AltitudeMeters>270</AltitudeMeters>
            <DistanceMeters>63795.989471344</DistanceMeters>
          </Trackpoint>
          <Trackpoint>
            <Time>2022-04-23T12:54:09.000Z</Time>
            <Position>
              <LatitudeDegrees>41.5228316746652126312255859375</LatitudeDegrees>
              <LongitudeDegrees>-0.04944459535181522369384765625</LongitudeDegrees>
            </Position>
            <AltitudeMeters>270.600006103515625</AltitudeMeters>
            <DistanceMeters>63858.737906956</DistanceMeters>
          </Trackpoint>
          <Trackpoint>
            <Time>2022-04-23T12:54:15.000Z</Time>
            <Position>
              <LatitudeDegrees>41.52313518337905406951904296875</LatitudeDegrees>
              <LongitudeDegrees>-0.04963067360222339630126953125</LongitudeDegrees>
            </Position>
            <AltitudeMeters>271.399993896484375</AltitudeMeters>
            <DistanceMeters>63895.907810049</DistanceMeters>
          </Trackpoint>
          <Trackpoint>
            <Time>2022-04-23T12:54:19.000Z</Time>
            <Position>
              <LatitudeDegrees>41.5233355946838855743408203125</LatitudeDegrees>
              <LongitudeDegrees>-0.04975430667400360107421875</LongitudeDegrees>
            </Position>
            <AltitudeMeters>272</AltitudeMeters>
            <DistanceMeters>63920.4780508</DistanceMeters>
          </Trackpoint>
          <Trackpoint>
            <Time>2022-04-23T12:54:23.000Z</Time>
            <Position>
              <LatitudeDegrees>41.523537598550319671630859375</LatitudeDegrees>
              <LongitudeDegrees>-0.04986268468201160430908203125</LongitudeDegrees>
            </Position>
            <AltitudeMeters>272.600006103515625</AltitudeMeters>
            <DistanceMeters>63944.707254248</DistanceMeters>
          </Trackpoint>
          <Trackpoint>
            <Time>2022-04-23T12:54:27.000Z</Time>
            <Position>
              <LatitudeDegrees>41.523754857480525970458984375</LatitudeDegrees>
              <LongitudeDegrees>-0.04993443377315998077392578125</LongitudeDegrees>
            </Position>
            <AltitudeMeters>273</AltitudeMeters>
            <DistanceMeters>63969.616582071</DistanceMeters>
          </Trackpoint>
          <Trackpoint>
            <Time>2022-04-23T12:54:29.000Z</Time>
            <Position>
              <LatitudeDegrees>41.5238680131733417510986328125</LatitudeDegrees>
              <LongitudeDegrees>-0.04995471797883510589599609375</LongitudeDegrees>
            </Position>
            <AltitudeMeters>273.20001220703125</AltitudeMeters>
            <DistanceMeters>63982.323895988</DistanceMeters>
          </Trackpoint>
          <Trackpoint>
            <Time>2022-04-23T12:54:34.000Z</Time>
            <Position>
              <LatitudeDegrees>41.52414872311055660247802734375</LatitudeDegrees>
              <LongitudeDegrees>-0.04999645985662937164306640625</LongitudeDegrees>
            </Position>
            <AltitudeMeters>273.600006103515625</AltitudeMeters>
            <DistanceMeters>64013.760651962</DistanceMeters>
          </Trackpoint>
          <Trackpoint>
            <Time>2022-04-23T12:54:37.000Z</Time>
            <Position>
              <LatitudeDegrees>41.52432273142039775848388671875</LatitudeDegrees>
              <LongitudeDegrees>-0.05001691170036792755126953125</LongitudeDegrees>
            </Position>
            <AltitudeMeters>273.600006103515625</AltitudeMeters>
            <DistanceMeters>64033.203080566</DistanceMeters>
          </Trackpoint>
          <Trackpoint>
            <Time>2022-04-23T12:54:44.000Z</Time>
            <Position>
              <LatitudeDegrees>41.52473730035126209259033203125</LatitudeDegrees>
              <LongitudeDegrees>-0.05006502382457256317138671875</LongitudeDegrees>
            </Position>
            <AltitudeMeters>273.79998779296875</AltitudeMeters>
            <DistanceMeters>64079.519319512</DistanceMeters>
          </Trackpoint>
          <Trackpoint>
            <Time>2022-04-23T12:54:52.000Z</Time>
            <Position>
              <LatitudeDegrees>41.52522931806743144989013671875</LatitudeDegrees>
              <LongitudeDegrees>-0.050131492316722869873046875</LongitudeDegrees>
            </Position>
            <AltitudeMeters>274.20001220703125</AltitudeMeters>
            <DistanceMeters>64134.561200904</DistanceMeters>
          </Trackpoint>
          <Trackpoint>
            <Time>2022-04-23T12:54:53.000Z</Time>
            <Position>
              <LatitudeDegrees>41.525291092693805694580078125</LatitudeDegrees>
              <LongitudeDegrees>-0.05014188587665557861328125</LongitudeDegrees>
            </Position>
            <AltitudeMeters>274.20001220703125</AltitudeMeters>
            <DistanceMeters>64141.490987807</DistanceMeters>
          </Trackpoint>
          <Trackpoint>
            <Time>2022-04-23T12:54:57.000Z</Time>
            <Position>
              <LatitudeDegrees>41.52554481290280818939208984375</LatitudeDegrees>
              <LongitudeDegrees>-0.05017901770770549774169921875</LongitudeDegrees>
            </Position>
            <AltitudeMeters>274.600006103515625</AltitudeMeters>
            <DistanceMeters>64169.899525644</DistanceMeters>
          </Trackpoint>
          <Trackpoint>
            <Time>2022-04-23T12:54:59.000Z</Time>
            <Position>
              <LatitudeDegrees>41.52566886506974697113037109375</LatitudeDegrees>
              <LongitudeDegrees>-0.0501936860382556915283203125</LongitudeDegrees>
            </Position>
            <AltitudeMeters>274.600006103515625</AltitudeMeters>
            <DistanceMeters>64183.760728207</DistanceMeters>
          </Trackpoint>
          <Trackpoint>
            <Time>2022-04-23T12:55:08.000Z</Time>
            <Position>
              <LatitudeDegrees>41.52619801461696624755859375</LatitudeDegrees>
              <LongitudeDegrees>-0.05023852922022342681884765625</LongitudeDegrees>
            </Position>
            <AltitudeMeters>275.399993896484375</AltitudeMeters>
            <DistanceMeters>64242.77453661</DistanceMeters>
          </Trackpoint>
          <Trackpoint>
            <Time>2022-04-23T12:55:10.000Z</Time>
            <Position>
              <LatitudeDegrees>41.5263225696980953216552734375</LatitudeDegrees>
              <LongitudeDegrees>-0.0502469949424266815185546875</LongitudeDegrees>
            </Position>
            <AltitudeMeters>275.600006103515625</AltitudeMeters>
            <DistanceMeters>64256.655594608</DistanceMeters>
          </Trackpoint>
          <Trackpoint>
            <Time>2022-04-23T12:55:15.000Z</Time>
            <Position>
              <LatitudeDegrees>41.5266058780252933502197265625</LatitudeDegrees>
              <LongitudeDegrees>-0.05022712983191013336181640625</LongitudeDegrees>
            </Position>
            <AltitudeMeters>276.20001220703125</AltitudeMeters>
            <DistanceMeters>64288.23164345</DistanceMeters>
          </Trackpoint>
          <Trackpoint>
            <Time>2022-04-23T12:55:17.000Z</Time>
            <Position>
              <LatitudeDegrees>41.526701264083385467529296875</LatitudeDegrees>
              <LongitudeDegrees>-0.0502248667180538177490234375</LongitudeDegrees>
            </Position>
            <AltitudeMeters>276.399993896484375</AltitudeMeters>
            <DistanceMeters>64298.850001821</DistanceMeters>
          </Trackpoint>
          <Trackpoint>
            <Time>2022-04-23T12:55:20.000Z</Time>
            <Position>
              <LatitudeDegrees>41.5268405713140964508056640625</LatitudeDegrees>
              <LongitudeDegrees>-0.05021698772907257080078125</LongitudeDegrees>
            </Position>
            <AltitudeMeters>276.600006103515625</AltitudeMeters>
            <DistanceMeters>64314.369060067</DistanceMeters>
          </Trackpoint>
          <Trackpoint>
            <Time>2022-04-23T12:55:22.000Z</Time>
            <Position>
              <LatitudeDegrees>41.526950038969516754150390625</LatitudeDegrees>
              <LongitudeDegrees>-0.0502117909491062164306640625</LongitudeDegrees>
            </Position>
            <AltitudeMeters>276.79998779296875</AltitudeMeters>
            <DistanceMeters>64326.560657922</DistanceMeters>
          </Trackpoint>
          <Trackpoint>
            <Time>2022-04-23T12:55:31.000Z</Time>
            <Position>
              <LatitudeDegrees>41.527426131069660186767578125</LatitudeDegrees>
              <LongitudeDegrees>-0.05018748342990875244140625</LongitudeDegrees>
            </Position>
            <AltitudeMeters>277</AltitudeMeters>
            <DistanceMeters>64379.589310981</DistanceMeters>
          </Trackpoint>
          <Trackpoint>
            <Time>2022-04-23T12:55:39.000Z</Time>
            <Position>
              <LatitudeDegrees>41.52786978520452976226806640625</LatitudeDegrees>
              <LongitudeDegrees>-0.050179101526737213134765625</LongitudeDegrees>
            </Position>
            <AltitudeMeters>277.20001220703125</AltitudeMeters>
            <DistanceMeters>64428.973771957</DistanceMeters>
          </Trackpoint>
          <Trackpoint>
            <Time>2022-04-23T12:55:43.000Z</Time>
            <Position>
              <LatitudeDegrees>41.5281035564839839935302734375</LatitudeDegrees>
              <LongitudeDegrees>-0.05017113871872425079345703125</LongitudeDegrees>
            </Position>
            <AltitudeMeters>277.399993896484375</AltitudeMeters>
            <DistanceMeters>64455.001552594</DistanceMeters>
          </Trackpoint>
          <Trackpoint>
            <Time>2022-04-23T12:55:46.000Z</Time>
            <Position>
              <LatitudeDegrees>41.52828871272504329681396484375</LatitudeDegrees>
              <LongitudeDegrees>-0.05017097108066082000732421875</LongitudeDegrees>
            </Position>
            <AltitudeMeters>277.79998779296875</AltitudeMeters>
            <DistanceMeters>64475.609865366</DistanceMeters>
          </Trackpoint>
          <Trackpoint>
            <Time>2022-04-23T12:55:48.000Z</Time>
            <Position>
              <LatitudeDegrees>41.52840773575007915496826171875</LatitudeDegrees>
              <LongitudeDegrees>-0.05017482675611972808837890625</LongitudeDegrees>
            </Position>
            <AltitudeMeters>278</AltitudeMeters>
            <DistanceMeters>64488.861578335</DistanceMeters>
          </Trackpoint>
          <Trackpoint>
            <Time>2022-04-23T12:55:57.000Z</Time>
            <Position>
              <LatitudeDegrees>41.52900754474103450775146484375</LatitudeDegrees>
              <LongitudeDegrees>-0.05018002353608608245849609375</LongitudeDegrees>
            </Position>
            <AltitudeMeters>277.79998779296875</AltitudeMeters>
            <DistanceMeters>64555.62296831</DistanceMeters>
          </Trackpoint>
          <Trackpoint>
            <Time>2022-04-23T12:56:00.000Z</Time>
            <Position>
              <LatitudeDegrees>41.5292175114154815673828125</LatitudeDegrees>
              <LongitudeDegrees>-0.05018086172640323638916015625</LongitudeDegrees>
            </Position>
            <AltitudeMeters>277.399993896484375</AltitudeMeters>
            <DistanceMeters>64578.992779037</DistanceMeters>
          </Trackpoint>
          <Trackpoint>
            <Time>2022-04-23T12:56:02.000Z</Time>
            <Position>
              <LatitudeDegrees>41.52935095131397247314453125</LatitudeDegrees>
              <LongitudeDegrees>-0.05018337629735469818115234375</LongitudeDegrees>
            </Position>
            <AltitudeMeters>277</AltitudeMeters>
            <DistanceMeters>64593.846764624</DistanceMeters>
          </Trackpoint>
          <Trackpoint>
            <Time>2022-04-23T12:56:03.000Z</Time>
            <Position>
              <LatitudeDegrees>41.52941976673901081085205078125</LatitudeDegrees>
              <LongitudeDegrees>-0.05018589086830615997314453125</LongitudeDegrees>
            </Position>
            <AltitudeMeters>277</AltitudeMeters>
            <DistanceMeters>64601.509241837</DistanceMeters>
          </Trackpoint>
          <Trackpoint>
            <Time>2022-04-23T12:56:08.000Z</Time>
            <Position>
              <LatitudeDegrees>41.5297485888004302978515625</LatitudeDegrees>
              <LongitudeDegrees>-0.05019594915211200714111328125</LongitudeDegrees>
            </Position>
            <AltitudeMeters>276.79998779296875</AltitudeMeters>
            <DistanceMeters>64638.117350844</DistanceMeters>
          </Trackpoint>
          <Trackpoint>
            <Time>2022-04-23T12:56:15.000Z</Time>
            <Position>
              <LatitudeDegrees>41.5301589667797088623046875</LatitudeDegrees>
              <LongitudeDegrees>-0.0502064265310764312744140625</LongitudeDegrees>
            </Position>
            <AltitudeMeters>276.600006103515625</AltitudeMeters>
            <DistanceMeters>64683.801585848</DistanceMeters>
          </Trackpoint>
          <Trackpoint>
            <Time>2022-04-23T12:56:20.000Z</Time>
            <Position>
              <LatitudeDegrees>41.53041084297001361846923828125</LatitudeDegrees>
              <LongitudeDegrees>-0.0502178259193897247314453125</LongitudeDegrees>
            </Position>
            <AltitudeMeters>275.399993896484375</AltitudeMeters>
            <DistanceMeters>64711.852016876</DistanceMeters>
          </Trackpoint>
          <Trackpoint>
            <Time>2022-04-23T12:56:21.000Z</Time>
            <Position>
              <LatitudeDegrees>41.5304531715810298919677734375</LatitudeDegrees>
              <LongitudeDegrees>-0.05022210069000720977783203125</LongitudeDegrees>
            </Position>
            <AltitudeMeters>275.20001220703125</AltitudeMeters>
            <DistanceMeters>64716.576670193</DistanceMeters>
          </Trackpoint>
          <Trackpoint>
            <Time>2022-04-23T12:56:23.000Z</Time>
            <Position>
              <LatitudeDegrees>41.53053523041307926177978515625</LatitudeDegrees>
              <LongitudeDegrees>-0.0502278842031955718994140625</LongitudeDegrees>
            </Position>
            <AltitudeMeters>275</AltitudeMeters>
            <DistanceMeters>64725.722960598</DistanceMeters>
          </Trackpoint>
          <Trackpoint>
            <Time>2022-04-23T12:56:26.000Z</Time>
            <Position>
              <LatitudeDegrees>41.5306593663990497589111328125</LatitudeDegrees>
              <LongitudeDegrees>-0.05025051534175872802734375</LongitudeDegrees>
            </Position>
            <AltitudeMeters>274.79998779296875</AltitudeMeters>
            <DistanceMeters>64739.667625031</DistanceMeters>
          </Trackpoint>
          <Trackpoint>
            <Time>2022-04-23T12:56:28.000Z</Time>
            <Position>
              <LatitudeDegrees>41.530730612576007843017578125</LatitudeDegrees>
              <LongitudeDegrees>-0.0502647645771503448486328125</LongitudeDegrees>
            </Position>
            <AltitudeMeters>275.20001220703125</AltitudeMeters>
            <DistanceMeters>64747.68486172</DistanceMeters>
          </Trackpoint>
          <Trackpoint>
            <Time>2022-04-23T12:56:33.000Z</Time>
            <Position>
              <LatitudeDegrees>41.53093102388083934783935546875</LatitudeDegrees>
              <LongitudeDegrees>-0.050317905843257904052734375</LongitudeDegrees>
            </Position>
            <AltitudeMeters>276.600006103515625</AltitudeMeters>
            <DistanceMeters>64770.426245541</DistanceMeters>
          </Trackpoint>
          <Trackpoint>
            <Time>2022-04-23T12:56:34.000Z</Time>
            <Position>
              <LatitudeDegrees>41.53097930364310741424560546875</LatitudeDegrees>
              <LongitudeDegrees>-0.050331987440586090087890625</LongitudeDegrees>
            </Position>
            <AltitudeMeters>276.79998779296875</AltitudeMeters>
            <DistanceMeters>64775.926314276</DistanceMeters>
          </Trackpoint>
          <Trackpoint>
            <Time>2022-04-23T12:56:39.000Z</Time>
            <Position>
              <LatitudeDegrees>41.5311793796718120574951171875</LatitudeDegrees>
              <LongitudeDegrees>-0.0504080951213836669921875</LongitudeDegrees>
            </Position>
            <AltitudeMeters>277.600006103515625</AltitudeMeters>
            <DistanceMeters>64799.080485358</DistanceMeters>
          </Trackpoint>
          <Trackpoint>
            <Time>2022-04-23T12:56:45.000Z</Time>
            <Position>
              <LatitudeDegrees>41.5314294956624507904052734375</LatitudeDegrees>
              <LongitudeDegrees>-0.05049753002822399139404296875</LongitudeDegrees>
            </Position>
            <AltitudeMeters>278.20001220703125</AltitudeMeters>
            <DistanceMeters>64827.898815125</DistanceMeters>
          </Trackpoint>
          <Trackpoint>
            <Time>2022-04-23T12:56:53.000Z</Time>
            <Position>
              <LatitudeDegrees>41.53176887892186641693115234375</LatitudeDegrees>
              <LongitudeDegrees>-0.05062711425125598907470703125</LongitudeDegrees>
            </Position>
            <AltitudeMeters>278</AltitudeMeters>
            <DistanceMeters>64867.185667711</DistanceMeters>
          </Trackpoint>
          <Trackpoint>
            <Time>2022-04-23T12:56:54.000Z</Time>
            <Position>
              <LatitudeDegrees>41.5318100340664386749267578125</LatitudeDegrees>
              <LongitudeDegrees>-0.050648152828216552734375</LongitudeDegrees>
            </Position>
            <AltitudeMeters>278</AltitudeMeters>
            <DistanceMeters>64872.090371947</DistanceMeters>
          </Trackpoint>
          <Trackpoint>
            <Time>2022-04-23T12:57:01.000Z</Time>
            <Position>
              <LatitudeDegrees>41.53211069293320178985595703125</LatitudeDegrees>
              <LongitudeDegrees>-0.0508347339928150177001953125</LongitudeDegrees>
            </Position>
            <AltitudeMeters>277.600006103515625</AltitudeMeters>
            <DistanceMeters>64908.989136234</DistanceMeters>
          </Trackpoint>
          <Trackpoint>
            <Time>2022-04-23T12:57:10.000Z</Time>
            <Position>
              <LatitudeDegrees>41.532496847212314605712890625</LatitudeDegrees>
              <LongitudeDegrees>-0.051154084503650665283203125</LongitudeDegrees>
            </Position>
            <AltitudeMeters>277.600006103515625</AltitudeMeters>
            <DistanceMeters>64959.538435945</DistanceMeters>
          </Trackpoint>
          <Trackpoint>
            <Time>2022-04-23T12:57:19.000Z</Time>
            <Position>
              <LatitudeDegrees>41.53290395624935626983642578125</LatitudeDegrees>
              <LongitudeDegrees>-0.0514801405370235443115234375</LongitudeDegrees>
            </Position>
            <AltitudeMeters>277.20001220703125</AltitudeMeters>
            <DistanceMeters>65012.37012718</DistanceMeters>
          </Trackpoint>
          <Trackpoint>
            <Time>2022-04-23T12:57:21.000Z</Time>
            <Position>
              <LatitudeDegrees>41.5329972468316555023193359375</LatitudeDegrees>
              <LongitudeDegrees>-0.05155750550329685211181640625</LongitudeDegrees>
            </Position>
            <AltitudeMeters>276.79998779296875</AltitudeMeters>
            <DistanceMeters>65024.591685774</DistanceMeters>
          </Trackpoint>
          <Trackpoint>
            <Time>2022-04-23T12:57:24.000Z</Time>
            <Position>
              <LatitudeDegrees>41.533136554062366485595703125</LatitudeDegrees>
              <LongitudeDegrees>-0.0516732595860958099365234375</LongitudeDegrees>
            </Position>
            <AltitudeMeters>276.399993896484375</AltitudeMeters>
            <DistanceMeters>65042.851656821</DistanceMeters>
          </Trackpoint>
          <Trackpoint>
            <Time>2022-04-23T12:57:30.000Z</Time>
            <Position>
              <LatitudeDegrees>41.5333764441311359405517578125</LatitudeDegrees>
              <LongitudeDegrees>-0.05194659344851970672607421875</LongitudeDegrees>
            </Position>
            <AltitudeMeters>276</AltitudeMeters>
            <DistanceMeters>65077.944959395</DistanceMeters>
          </Trackpoint>
          <Trackpoint>
            <Time>2022-04-23T12:57:34.000Z</Time>
            <Position>
              <LatitudeDegrees>41.5335129015147686004638671875</LatitudeDegrees>
              <LongitudeDegrees>-0.05214524455368518829345703125</LongitudeDegrees>
            </Position>
            <AltitudeMeters>276</AltitudeMeters>
            <DistanceMeters>65100.408679742</DistanceMeters>
          </Trackpoint>
          <Trackpoint>
            <Time>2022-04-23T12:57:37.000Z</Time>
            <Position>
              <LatitudeDegrees>41.5336014144122600555419921875</LatitudeDegrees>
              <LongitudeDegrees>-0.05229544825851917266845703125</LongitudeDegrees>
            </Position>
            <AltitudeMeters>276.20001220703125</AltitudeMeters>
            <DistanceMeters>65116.335508598</DistanceMeters>
          </Trackpoint>
          <Trackpoint>
            <Time>2022-04-23T12:57:45.000Z</Time>
            <Position>
              <LatitudeDegrees>41.53381808660924434661865234375</LatitudeDegrees>
              <LongitudeDegrees>-0.052719153463840484619140625</LongitudeDegrees>
            </Position>
            <AltitudeMeters>277.399993896484375</AltitudeMeters>
            <DistanceMeters>65159.088237554</DistanceMeters>
          </Trackpoint>
          <Trackpoint>
            <Time>2022-04-23T12:57:47.000Z</Time>
            <Position>
              <LatitudeDegrees>41.53388363309204578399658203125</LatitudeDegrees>
              <LongitudeDegrees>-0.0528400205075740814208984375</LongitudeDegrees>
            </Position>
            <AltitudeMeters>277.399993896484375</AltitudeMeters>
            <DistanceMeters>65171.523310092</DistanceMeters>
          </Trackpoint>
          <Trackpoint>
            <Time>2022-04-23T12:57:53.000Z</Time>
            <Position>
              <LatitudeDegrees>41.5340583957731723785400390625</LatitudeDegrees>
              <LongitudeDegrees>-0.05317370407283306121826171875</LongitudeDegrees>
            </Position>
            <AltitudeMeters>278</AltitudeMeters>
            <DistanceMeters>65205.453702604</DistanceMeters>
          </Trackpoint>
          <Trackpoint>
            <Time>2022-04-23T12:57:58.000Z</Time>
            <Position>
              <LatitudeDegrees>41.5342092700302600860595703125</LatitudeDegrees>
              <LongitudeDegrees>-0.0534451939165592193603515625</LongitudeDegrees>
            </Position>
            <AltitudeMeters>278.399993896484375</AltitudeMeters>
            <DistanceMeters>65233.625237147</DistanceMeters>
          </Trackpoint>
          <Trackpoint>
            <Time>2022-04-23T12:57:59.000Z</Time>
            <Position>
              <LatitudeDegrees>41.53422854840755462646484375</LatitudeDegrees>
              <LongitudeDegrees>-0.05350495688617229461669921875</LongitudeDegrees>
            </Position>
            <AltitudeMeters>278.399993896484375</AltitudeMeters>
            <DistanceMeters>65239.046758966</DistanceMeters>
          </Trackpoint>
          <Trackpoint>
            <Time>2022-04-23T12:58:01.000Z</Time>
            <Position>
              <LatitudeDegrees>41.53426341712474822998046875</LatitudeDegrees>
              <LongitudeDegrees>-0.05362917669117450714111328125</LongitudeDegrees>
            </Position>
            <AltitudeMeters>278.20001220703125</AltitudeMeters>
            <DistanceMeters>65250.10012652</DistanceMeters>
          </Trackpoint>
          <Trackpoint>
            <Time>2022-04-23T12:58:09.000Z</Time>
            <Position>
              <LatitudeDegrees>41.5343700349330902099609375</LatitudeDegrees>
              <LongitudeDegrees>-0.05412337370216846466064453125</LongitudeDegrees>
            </Position>
            <AltitudeMeters>278</AltitudeMeters>
            <DistanceMeters>65292.950642433</DistanceMeters>
          </Trackpoint>
          <Trackpoint>
            <Time>2022-04-23T12:58:16.000Z</Time>
            <Position>
              <LatitudeDegrees>41.5344593860208988189697265625</LatitudeDegrees>
              <LongitudeDegrees>-0.0545422174036502838134765625</LongitudeDegrees>
            </Position>
            <AltitudeMeters>278.600006103515625</AltitudeMeters>
            <DistanceMeters>65329.236416314</DistanceMeters>
          </Trackpoint>
          <Trackpoint>
            <Time>2022-04-23T12:58:18.000Z</Time>
            <Position>
              <LatitudeDegrees>41.53448461554944515228271484375</LatitudeDegrees>
              <LongitudeDegrees>-0.0546609051525592803955078125</LongitudeDegrees>
            </Position>
            <AltitudeMeters>279.20001220703125</AltitudeMeters>
            <DistanceMeters>65339.516444749</DistanceMeters>
          </Trackpoint>
          <Trackpoint>
            <Time>2022-04-23T12:58:20.000Z</Time>
            <Position>
              <LatitudeDegrees>41.534507162868976593017578125</LatitudeDegrees>
              <LongitudeDegrees>-0.05478235892951488494873046875</LongitudeDegrees>
            </Position>
            <AltitudeMeters>279.399993896484375</AltitudeMeters>
            <DistanceMeters>65349.942568681</DistanceMeters>
          </Trackpoint>
          <Trackpoint>
            <Time>2022-04-23T12:58:26.000Z</Time>
            <Position>
              <LatitudeDegrees>41.53457648120820522308349609375</LatitudeDegrees>
              <LongitudeDegrees>-0.05514018237590789794921875</LongitudeDegrees>
            </Position>
            <AltitudeMeters>280</AltitudeMeters>
            <DistanceMeters>65380.737089424</DistanceMeters>
          </Trackpoint>
          <Trackpoint>
            <Time>2022-04-23T12:58:27.000Z</Time>
            <Position>
              <LatitudeDegrees>41.534586288034915924072265625</LatitudeDegrees>
              <LongitudeDegrees>-0.05519961006939411163330078125</LongitudeDegrees>
            </Position>
            <AltitudeMeters>280</AltitudeMeters>
            <DistanceMeters>65385.806566474</DistanceMeters>
          </Trackpoint>
          <Trackpoint>
            <Time>2022-04-23T12:58:30.000Z</Time>
            <Position>
              <LatitudeDegrees>41.53462023474276065826416015625</LatitudeDegrees>
              <LongitudeDegrees>-0.055369175970554351806640625</LongitudeDegrees>
            </Position>
            <AltitudeMeters>280.600006103515625</AltitudeMeters>
            <DistanceMeters>65400.430186763</DistanceMeters>
          </Trackpoint>
          <Trackpoint>
            <Time>2022-04-23T12:58:34.000Z</Time>
            <Position>
              <LatitudeDegrees>41.53467454947531223297119140625</LatitudeDegrees>
              <LongitudeDegrees>-0.055630691349506378173828125</LongitudeDegrees>
            </Position>
            <AltitudeMeters>280.79998779296875</AltitudeMeters>
            <DistanceMeters>65423.041353652</DistanceMeters>
          </Trackpoint>
          <Trackpoint>
            <Time>2022-04-23T12:58:42.000Z</Time>
            <Position>
              <LatitudeDegrees>41.53479985892772674560546875</LatitudeDegrees>
              <LongitudeDegrees>-0.05614106543362140655517578125</LongitudeDegrees>
            </Position>
            <AltitudeMeters>281.20001220703125</AltitudeMeters>
            <DistanceMeters>65467.792378595</DistanceMeters>
          </Trackpoint>
          <Trackpoint>
            <Time>2022-04-23T12:58:48.000Z</Time>
            <Position>
              <LatitudeDegrees>41.5349203906953334808349609375</LatitudeDegrees>
              <LongitudeDegrees>-0.05649528466165065765380859375</LongitudeDegrees>
            </Position>
            <AltitudeMeters>281.20001220703125</AltitudeMeters>
            <DistanceMeters>65500.210418737</DistanceMeters>
          </Trackpoint>
          <Trackpoint>
            <Time>2022-04-23T12:58:50.000Z</Time>
            <Position>
              <LatitudeDegrees>41.53497696854174137115478515625</LatitudeDegrees>
              <LongitudeDegrees>-0.0566254556179046630859375</LongitudeDegrees>
            </Position>
            <AltitudeMeters>281.20001220703125</AltitudeMeters>
            <DistanceMeters>65512.751065106</DistanceMeters>
          </Trackpoint>
          <Trackpoint>
            <Time>2022-04-23T12:58:56.000Z</Time>
            <Position>
              <LatitudeDegrees>41.535137481987476348876953125</LatitudeDegrees>
              <LongitudeDegrees>-0.05699216388165950775146484375</LongitudeDegrees>
            </Position>
            <AltitudeMeters>281.399993896484375</AltitudeMeters>
            <DistanceMeters>65548.143381843</DistanceMeters>
          </Trackpoint>
          <Trackpoint>
            <Time>2022-04-23T12:58:57.000Z</Time>
            <Position>
              <LatitudeDegrees>41.53516908176243305206298828125</LatitudeDegrees>
              <LongitudeDegrees>-0.0570572912693023681640625</LongitudeDegrees>
            </Position>
            <AltitudeMeters>281.399993896484375</AltitudeMeters>
            <DistanceMeters>65554.610087651</DistanceMeters>
          </Trackpoint>
          <Trackpoint>
            <Time>2022-04-23T12:59:02.000Z</Time>
            <Position>
              <LatitudeDegrees>41.53532129712402820587158203125</LatitudeDegrees>
              <LongitudeDegrees>-0.0573925673961639404296875</LongitudeDegrees>
            </Position>
            <AltitudeMeters>281.600006103515625</AltitudeMeters>
            <DistanceMeters>65587.279796638</DistanceMeters>
          </Trackpoint>
          <Trackpoint>
            <Time>2022-04-23T12:59:05.000Z</Time>
            <Position>
              <LatitudeDegrees>41.535415090620517730712890625</LatitudeDegrees>
              <LongitudeDegrees>-0.0576093234121799468994140625</LongitudeDegrees>
            </Position>
            <AltitudeMeters>281.79998779296875</AltitudeMeters>
            <DistanceMeters>65608.138972158</DistanceMeters>
          </Trackpoint>
          <Trackpoint>
            <Time>2022-04-23T12:59:13.000Z</Time>
            <Position>
              <LatitudeDegrees>41.5356700681149959564208984375</LatitudeDegrees>
              <LongitudeDegrees>-0.05815909244120121002197265625</LongitudeDegrees>
            </Position>
            <AltitudeMeters>281.20001220703125</AltitudeMeters>
            <DistanceMeters>65662.021884463</DistanceMeters>
          </Trackpoint>
          <Trackpoint>
            <Time>2022-04-23T12:59:17.000Z</Time>
            <Position>
              <LatitudeDegrees>41.5358001552522182464599609375</LatitudeDegrees>
              <LongitudeDegrees>-0.0584253855049610137939453125</LongitudeDegrees>
            </Position>
            <AltitudeMeters>280.600006103515625</AltitudeMeters>
            <DistanceMeters>65688.514405323</DistanceMeters>
          </Trackpoint>
          <Trackpoint>
            <Time>2022-04-23T12:59:20.000Z</Time>
            <Position>
              <LatitudeDegrees>41.535904593765735626220703125</LatitudeDegrees>
              <LongitudeDegrees>-0.0586215220391750335693359375</LongitudeDegrees>
            </Position>
            <AltitudeMeters>280.399993896484375</AltitudeMeters>
            <DistanceMeters>65708.568194352</DistanceMeters>
          </Trackpoint>
          <Trackpoint>
            <Time>2022-04-23T12:59:22.000Z</Time>
            <Position>
              <LatitudeDegrees>41.53598296456038951873779296875</LatitudeDegrees>
              <LongitudeDegrees>-0.05875043570995330810546875</LongitudeDegrees>
            </Position>
            <AltitudeMeters>280.399993896484375</AltitudeMeters>
            <DistanceMeters>65722.404619132</DistanceMeters>
          </Trackpoint>
          <Trackpoint>
            <Time>2022-04-23T12:59:31.000Z</Time>
            <Position>
              <LatitudeDegrees>41.536329723894596099853515625</LatitudeDegrees>
              <LongitudeDegrees>-0.05934328772127628326416015625</LongitudeDegrees>
            </Position>
            <AltitudeMeters>280.600006103515625</AltitudeMeters>
            <DistanceMeters>65785.08804607</DistanceMeters>
          </Trackpoint>
          <Trackpoint>
            <Time>2022-04-23T12:59:32.000Z</Time>
            <Position>
              <LatitudeDegrees>41.53636618517339229583740234375</LatitudeDegrees>
              <LongitudeDegrees>-0.05940489470958709716796875</LongitudeDegrees>
            </Position>
            <AltitudeMeters>280.79998779296875</AltitudeMeters>
            <DistanceMeters>65791.632482835</DistanceMeters>
          </Trackpoint>
          <Trackpoint>
            <Time>2022-04-23T12:59:40.000Z</Time>
            <Position>
              <LatitudeDegrees>41.53664345853030681610107421875</LatitudeDegrees>
              <LongitudeDegrees>-0.05988727323710918426513671875</LongitudeDegrees>
            </Position>
            <AltitudeMeters>281.399993896484375</AltitudeMeters>
            <DistanceMeters>65842.303200566</DistanceMeters>
          </Trackpoint>
          <Trackpoint>
            <Time>2022-04-23T12:59:47.000Z</Time>
            <Position>
              <LatitudeDegrees>41.5368830971419811248779296875</LatitudeDegrees>
              <LongitudeDegrees>-0.06030268035829067230224609375</LongitudeDegrees>
            </Position>
            <AltitudeMeters>282</AltitudeMeters>
            <DistanceMeters>65885.997306371</DistanceMeters>
          </Trackpoint>
          <Trackpoint>
            <Time>2022-04-23T12:59:52.000Z</Time>
            <Position>
              <LatitudeDegrees>41.53704830445349216461181640625</LatitudeDegrees>
              <LongitudeDegrees>-0.0605832226574420928955078125</LongitudeDegrees>
            </Position>
            <AltitudeMeters>282.399993896484375</AltitudeMeters>
            <DistanceMeters>65915.735961801</DistanceMeters>
          </Trackpoint>
          <Trackpoint>
            <Time>2022-04-23T12:59:57.000Z</Time>
            <Position>
              <LatitudeDegrees>41.5372173674404621124267578125</LatitudeDegrees>
              <LongitudeDegrees>-0.06088421680033206939697265625</LongitudeDegrees>
            </Position>
            <AltitudeMeters>282.399993896484375</AltitudeMeters>
            <DistanceMeters>65947.087577723</DistanceMeters>
          </Trackpoint>
          <Trackpoint>
            <Time>2022-04-23T13:00:04.000Z</Time>
            <Position>
              <LatitudeDegrees>41.53747058473527431488037109375</LatitudeDegrees>
              <LongitudeDegrees>-0.06132108159363269805908203125</LongitudeDegrees>
            </Position>
            <AltitudeMeters>282.600006103515625</AltitudeMeters>
            <DistanceMeters>65993.120150303</DistanceMeters>
          </Trackpoint>
          <Trackpoint>
            <Time>2022-04-23T13:00:10.000Z</Time>
            <Position>
              <LatitudeDegrees>41.5376917831599712371826171875</LatitudeDegrees>
              <LongitudeDegrees>-0.061704218387603759765625</LongitudeDegrees>
            </Position>
            <AltitudeMeters>283.20001220703125</AltitudeMeters>
            <DistanceMeters>66033.431642914</DistanceMeters>
          </Trackpoint>
          <Trackpoint>
            <Time>2022-04-23T13:00:11.000Z</Time>
            <Position>
              <LatitudeDegrees>41.537725813686847686767578125</LatitudeDegrees>
              <LongitudeDegrees>-0.06176733411848545074462890625</LongitudeDegrees>
            </Position>
            <AltitudeMeters>283.20001220703125</AltitudeMeters>
            <DistanceMeters>66039.911600897</DistanceMeters>
          </Trackpoint>
          <Trackpoint>
            <Time>2022-04-23T13:00:18.000Z</Time>
            <Position>
              <LatitudeDegrees>41.53797157108783721923828125</LatitudeDegrees>
              <LongitudeDegrees>-0.06219447590410709381103515625</LongitudeDegrees>
            </Position>
            <AltitudeMeters>283.20001220703125</AltitudeMeters>
            <DistanceMeters>66084.795405039</DistanceMeters>
          </Trackpoint>
          <Trackpoint>
            <Time>2022-04-23T13:00:22.000Z</Time>
            <Position>
              <LatitudeDegrees>41.5381115488708019256591796875</LatitudeDegrees>
              <LongitudeDegrees>-0.06244040094316005706787109375</LongitudeDegrees>
            </Position>
            <AltitudeMeters>283.399993896484375</AltitudeMeters>
            <DistanceMeters>66110.534667236</DistanceMeters>
          </Trackpoint>
          <Trackpoint>
            <Time>2022-04-23T13:00:30.000Z</Time>
            <Position>
              <LatitudeDegrees>41.53839359991252422332763671875</LatitudeDegrees>
              <LongitudeDegrees>-0.06292202509939670562744140625</LongitudeDegrees>
            </Position>
            <AltitudeMeters>284.20001220703125</AltitudeMeters>
            <DistanceMeters>66161.480685845</DistanceMeters>
          </Trackpoint>
          <Trackpoint>
            <Time>2022-04-23T13:00:33.000Z</Time>
            <Position>
              <LatitudeDegrees>41.53849770314991474151611328125</LatitudeDegrees>
              <LongitudeDegrees>-0.06309963762760162353515625</LongitudeDegrees>
            </Position>
            <AltitudeMeters>284.20001220703125</AltitudeMeters>
            <DistanceMeters>66180.27484638</DistanceMeters>
          </Trackpoint>
          <Trackpoint>
            <Time>2022-04-23T13:00:38.000Z</Time>
            <Position>
              <LatitudeDegrees>41.5386642515659332275390625</LatitudeDegrees>
              <LongitudeDegrees>-0.06338688544929027557373046875</LongitudeDegrees>
            </Position>
            <AltitudeMeters>284.79998779296875</AltitudeMeters>
            <DistanceMeters>66210.545292642</DistanceMeters>
          </Trackpoint>
          <Trackpoint>
            <Time>2022-04-23T13:00:43.000Z</Time>
            <Position>
              <LatitudeDegrees>41.53882141225039958953857421875</LatitudeDegrees>
              <LongitudeDegrees>-0.063663907349109649658203125</LongitudeDegrees>
            </Position>
            <AltitudeMeters>285.20001220703125</AltitudeMeters>
            <DistanceMeters>66239.504128414</DistanceMeters>
          </Trackpoint>
          <Trackpoint>
            <Time>2022-04-23T13:00:44.000Z</Time>
            <Position>
              <LatitudeDegrees>41.538855694234371185302734375</LatitudeDegrees>
              <LongitudeDegrees>-0.06372048519551753997802734375</LongitudeDegrees>
            </Position>
            <AltitudeMeters>285.399993896484375</AltitudeMeters>
            <DistanceMeters>66245.567994448</DistanceMeters>
          </Trackpoint>
          <Trackpoint>
            <Time>2022-04-23T13:00:46.000Z</Time>
            <Position>
              <LatitudeDegrees>41.53892685659229755401611328125</LatitudeDegrees>
              <LongitudeDegrees>-0.06384319625794887542724609375</LongitudeDegrees>
            </Position>
            <AltitudeMeters>285.600006103515625</AltitudeMeters>
            <DistanceMeters>66258.500707848</DistanceMeters>
          </Trackpoint>
          <Trackpoint>
            <Time>2022-04-23T13:00:52.000Z</Time>
            <Position>
              <LatitudeDegrees>41.5391497313976287841796875</LatitudeDegrees>
              <LongitudeDegrees>-0.064205043017864227294921875</LongitudeDegrees>
            </Position>
            <AltitudeMeters>286.399993896484375</AltitudeMeters>
            <DistanceMeters>66297.540615153</DistanceMeters>
          </Trackpoint>
          <Trackpoint>
            <Time>2022-04-23T13:00:53.000Z</Time>
            <Position>
              <LatitudeDegrees>41.539188958704471588134765625</LatitudeDegrees>
              <LongitudeDegrees>-0.0642658956348896026611328125</LongitudeDegrees>
            </Position>
            <AltitudeMeters>286.399993896484375</AltitudeMeters>
            <DistanceMeters>66304.231062742</DistanceMeters>
          </Trackpoint>
          <Trackpoint>
            <Time>2022-04-23T13:01:01.000Z</Time>
            <Position>
              <LatitudeDegrees>41.53950051404535770416259765625</LatitudeDegrees>
              <LongitudeDegrees>-0.064736120402812957763671875</LongitudeDegrees>
            </Position>
            <AltitudeMeters>287</AltitudeMeters>
            <DistanceMeters>66356.548339437</DistanceMeters>
          </Trackpoint>
          <Trackpoint>
            <Time>2022-04-23T13:01:05.000Z</Time>
            <Position>
              <LatitudeDegrees>41.5396645478904247283935546875</LatitudeDegrees>
              <LongitudeDegrees>-0.0649552233517169952392578125</LongitudeDegrees>
            </Position>
            <AltitudeMeters>287.399993896484375</AltitudeMeters>
            <DistanceMeters>66382.36519328</DistanceMeters>
          </Trackpoint>
          <Trackpoint>
            <Time>2022-04-23T13:01:09.000Z</Time>
            <Position>
              <LatitudeDegrees>41.539835371077060699462890625</LatitudeDegrees>
              <LongitudeDegrees>-0.06517541594803333282470703125</LongitudeDegrees>
            </Position>
            <AltitudeMeters>287.600006103515625</AltitudeMeters>
            <DistanceMeters>66408.784670732</DistanceMeters>
          </Trackpoint>
          <Trackpoint>
            <Time>2022-04-23T13:01:16.000Z</Time>
            <Position>
              <LatitudeDegrees>41.54014809988439083099365234375</LatitudeDegrees>
              <LongitudeDegrees>-0.065536089241504669189453125</LongitudeDegrees>
            </Position>
            <AltitudeMeters>287.79998779296875</AltitudeMeters>
            <DistanceMeters>66454.767095301</DistanceMeters>
          </Trackpoint>
          <Trackpoint>
            <Time>2022-04-23T13:01:18.000Z</Time>
            <Position>
              <LatitudeDegrees>41.540237031877040863037109375</LatitudeDegrees>
              <LongitudeDegrees>-0.065644048154354095458984375</LongitudeDegrees>
            </Position>
            <AltitudeMeters>287.79998779296875</AltitudeMeters>
            <DistanceMeters>66468.141240291</DistanceMeters>
          </Trackpoint>
          <Trackpoint>
            <Time>2022-04-23T13:01:26.000Z</Time>
            <Position>
              <LatitudeDegrees>41.54060021974146366119384765625</LatitudeDegrees>
              <LongitudeDegrees>-0.066096000373363494873046875</LongitudeDegrees>
            </Position>
            <AltitudeMeters>287.600006103515625</AltitudeMeters>
            <DistanceMeters>66523.383318854</DistanceMeters>
          </Trackpoint>
          <Trackpoint>
            <Time>2022-04-23T13:01:34.000Z</Time>
            <Position>
              <LatitudeDegrees>41.5409754775464534759521484375</LatitudeDegrees>
              <LongitudeDegrees>-0.066554658114910125732421875</LongitudeDegrees>
            </Position>
            <AltitudeMeters>287.399993896484375</AltitudeMeters>
            <DistanceMeters>66579.991331603</DistanceMeters>
          </Trackpoint>
          <Trackpoint>
            <Time>2022-04-23T13:01:42.000Z</Time>
            <Position>
              <LatitudeDegrees>41.54135425575077533721923828125</LatitudeDegrees>
              <LongitudeDegrees>-0.06708129309117794036865234375</LongitudeDegrees>
            </Position>
            <AltitudeMeters>287.79998779296875</AltitudeMeters>
            <DistanceMeters>66640.836781726</DistanceMeters>
          </Trackpoint>
          <Trackpoint>
            <Time>2022-04-23T13:01:49.000Z</Time>
            <Position>
              <LatitudeDegrees>41.5416114963591098785400390625</LatitudeDegrees>
              <LongitudeDegrees>-0.06761739961802959442138671875</LongitudeDegrees>
            </Position>
            <AltitudeMeters>288</AltitudeMeters>
            <DistanceMeters>66693.887567443</DistanceMeters>
          </Trackpoint>
          <Trackpoint>
            <Time>2022-04-23T13:01:57.000Z</Time>
            <Position>
              <LatitudeDegrees>41.54186136089265346527099609375</LatitudeDegrees>
              <LongitudeDegrees>-0.06821469403803348541259765625</LongitudeDegrees>
            </Position>
            <AltitudeMeters>288</AltitudeMeters>
            <DistanceMeters>66750.890449187</DistanceMeters>
          </Trackpoint>
          <Trackpoint>
            <Time>2022-04-23T13:02:02.000Z</Time>
            <Position>
              <LatitudeDegrees>41.5420215390622615814208984375</LatitudeDegrees>
              <LongitudeDegrees>-0.06854527629911899566650390625</LongitudeDegrees>
            </Position>
            <AltitudeMeters>288</AltitudeMeters>
            <DistanceMeters>66783.697106304</DistanceMeters>
          </Trackpoint>
          <Trackpoint>
            <Time>2022-04-23T13:02:04.000Z</Time>
            <Position>
              <LatitudeDegrees>41.54210812412202358245849609375</LatitudeDegrees>
              <LongitudeDegrees>-0.06866916082799434661865234375</LongitudeDegrees>
            </Position>
            <AltitudeMeters>288.20001220703125</AltitudeMeters>
            <DistanceMeters>66797.817449355</DistanceMeters>
          </Trackpoint>
          <Trackpoint>
            <Time>2022-04-23T13:02:05.000Z</Time>
            <Position>
              <LatitudeDegrees>41.54215539805591106414794921875</LatitudeDegrees>
              <LongitudeDegrees>-0.06872967816889286041259765625</LongitudeDegrees>
            </Position>
            <AltitudeMeters>288.20001220703125</AltitudeMeters>
            <DistanceMeters>66805.104207859</DistanceMeters>
          </Trackpoint>
          <Trackpoint>
            <Time>2022-04-23T13:02:08.000Z</Time>
            <Position>
              <LatitudeDegrees>41.542316414415836334228515625</LatitudeDegrees>
              <LongitudeDegrees>-0.06888524629175662994384765625</LongitudeDegrees>
            </Position>
            <AltitudeMeters>288.600006103515625</AltitudeMeters>
            <DistanceMeters>66827.220540076</DistanceMeters>
          </Trackpoint>
          <Trackpoint>
            <Time>2022-04-23T13:02:09.000Z</Time>
            <Position>
              <LatitudeDegrees>41.54237349517643451690673828125</LatitudeDegrees>
              <LongitudeDegrees>-0.0689289160072803497314453125</LongitudeDegrees>
            </Position>
            <AltitudeMeters>288.79998779296875</AltitudeMeters>
            <DistanceMeters>66834.540681715</DistanceMeters>
          </Trackpoint>
          <Trackpoint>
            <Time>2022-04-23T13:02:10.000Z</Time>
            <Position>
              <LatitudeDegrees>41.54243409633636474609375</LatitudeDegrees>
              <LongitudeDegrees>-0.06897007115185260772705078125</LongitudeDegrees>
            </Position>
            <AltitudeMeters>288.79998779296875</AltitudeMeters>
            <DistanceMeters>66842.107099934</DistanceMeters>
          </Trackpoint>
          <Trackpoint>
            <Time>2022-04-23T13:02:14.000Z</Time>
            <Position>
              <LatitudeDegrees>41.5426840446889400482177734375</LatitudeDegrees>
              <LongitudeDegrees>-0.06909345276653766632080078125</LongitudeDegrees>
            </Position>
            <AltitudeMeters>289</AltitudeMeters>
            <DistanceMeters>66871.764875071</DistanceMeters>
          </Trackpoint>
          <Trackpoint>
            <Time>2022-04-23T13:02:21.000Z</Time>
            <Position>
              <LatitudeDegrees>41.54311068356037139892578125</LatitudeDegrees>
              <LongitudeDegrees>-0.0693061016499996185302734375</LongitudeDegrees>
            </Position>
            <AltitudeMeters>290.20001220703125</AltitudeMeters>
            <DistanceMeters>66922.447353359</DistanceMeters>
          </Trackpoint>
          <Trackpoint>
            <Time>2022-04-23T13:02:22.000Z</Time>
            <Position>
              <LatitudeDegrees>41.54317094944417476654052734375</LatitudeDegrees>
              <LongitudeDegrees>-0.06933711469173431396484375</LongitudeDegrees>
            </Position>
            <AltitudeMeters>290.20001220703125</AltitudeMeters>
            <DistanceMeters>66929.634916739</DistanceMeters>
          </Trackpoint>
          <Trackpoint>
            <Time>2022-04-23T13:02:28.000Z</Time>
            <Position>
              <LatitudeDegrees>41.5435426868498325347900390625</LatitudeDegrees>
              <LongitudeDegrees>-0.0695049203932285308837890625</LongitudeDegrees>
            </Position>
            <AltitudeMeters>290.20001220703125</AltitudeMeters>
            <DistanceMeters>66973.307730781</DistanceMeters>
          </Trackpoint>
          <Trackpoint>
            <Time>2022-04-23T13:02:30.000Z</Time>
            <Position>
              <LatitudeDegrees>41.54365944676101207733154296875</LatitudeDegrees>
              <LongitudeDegrees>-0.06955839693546295166015625</LongitudeDegrees>
            </Position>
            <AltitudeMeters>290.20001220703125</AltitudeMeters>
            <DistanceMeters>66987.045583513</DistanceMeters>
          </Trackpoint>
          <Trackpoint>
            <Time>2022-04-23T13:02:37.000Z</Time>
            <Position>
              <LatitudeDegrees>41.54403696767985820770263671875</LatitudeDegrees>
              <LongitudeDegrees>-0.0697329081594944000244140625</LongitudeDegrees>
            </Position>
            <AltitudeMeters>290.600006103515625</AltitudeMeters>
            <DistanceMeters>67031.508135346</DistanceMeters>
          </Trackpoint>
          <Trackpoint>
            <Time>2022-04-23T13:02:42.000Z</Time>
            <Position>
              <LatitudeDegrees>41.54428306035697460174560546875</LatitudeDegrees>
              <LongitudeDegrees>-0.069869868457317352294921875</LongitudeDegrees>
            </Position>
            <AltitudeMeters>291.20001220703125</AltitudeMeters>
            <DistanceMeters>67061.179913068</DistanceMeters>
          </Trackpoint>
          <Trackpoint>
            <Time>2022-04-23T13:02:45.000Z</Time>
            <Position>
              <LatitudeDegrees>41.54441381804645061492919921875</LatitudeDegrees>
              <LongitudeDegrees>-0.0699494965374469757080078125</LongitudeDegrees>
            </Position>
            <AltitudeMeters>291.399993896484375</AltitudeMeters>
            <DistanceMeters>67077.174069362</DistanceMeters>
          </Trackpoint>
          <Trackpoint>
            <Time>2022-04-23T13:02:52.000Z</Time>
            <Position>
              <LatitudeDegrees>41.5447272174060344696044921875</LatitudeDegrees>
              <LongitudeDegrees>-0.0701503269374370574951171875</LongitudeDegrees>
            </Position>
            <AltitudeMeters>291.79998779296875</AltitudeMeters>
            <DistanceMeters>67115.860447323</DistanceMeters>
          </Trackpoint>
          <Trackpoint>
            <Time>2022-04-23T13:02:55.000Z</Time>
            <Position>
              <LatitudeDegrees>41.54485403560101985931396484375</LatitudeDegrees>
              <LongitudeDegrees>-0.07024730555713176727294921875</LongitudeDegrees>
            </Position>
            <AltitudeMeters>292.20001220703125</AltitudeMeters>
            <DistanceMeters>67132.12362472</DistanceMeters>
          </Trackpoint>
          <Trackpoint>
            <Time>2022-04-23T13:03:00.000Z</Time>
            <Position>
              <LatitudeDegrees>41.5450547821819782257080078125</LatitudeDegrees>
              <LongitudeDegrees>-0.07040337659418582916259765625</LongitudeDegrees>
            </Position>
            <AltitudeMeters>293</AltitudeMeters>
            <DistanceMeters>67157.974384422</DistanceMeters>
          </Trackpoint>
          <Trackpoint>
            <Time>2022-04-23T13:03:02.000Z</Time>
            <Position>
              <LatitudeDegrees>41.5451312251389026641845703125</LatitudeDegrees>
              <LongitudeDegrees>-0.07045970298349857330322265625</LongitudeDegrees>
            </Position>
            <AltitudeMeters>293</AltitudeMeters>
            <DistanceMeters>67167.690836924</DistanceMeters>
          </Trackpoint>
          <Trackpoint>
            <Time>2022-04-23T13:03:06.000Z</Time>
            <Position>
              <LatitudeDegrees>41.5452877990901470184326171875</LatitudeDegrees>
              <LongitudeDegrees>-0.07057956419885158538818359375</LongitudeDegrees>
            </Position>
            <AltitudeMeters>293.79998779296875</AltitudeMeters>
            <DistanceMeters>67187.775447324</DistanceMeters>
          </Trackpoint>
          <Trackpoint>
            <Time>2022-04-23T13:03:09.000Z</Time>
            <Position>
              <LatitudeDegrees>41.54540757648646831512451171875</LatitudeDegrees>
              <LongitudeDegrees>-0.0706733576953411102294921875</LongitudeDegrees>
            </Position>
            <AltitudeMeters>294.20001220703125</AltitudeMeters>
            <DistanceMeters>67203.228030001</DistanceMeters>
          </Trackpoint>
          <Trackpoint>
            <Time>2022-04-23T13:03:15.000Z</Time>
            <Position>
              <LatitudeDegrees>41.54565266333520412445068359375</LatitudeDegrees>
              <LongitudeDegrees>-0.07089539431035518646240234375</LongitudeDegrees>
            </Position>
            <AltitudeMeters>294.79998779296875</AltitudeMeters>
            <DistanceMeters>67236.186138647</DistanceMeters>
          </Trackpoint>
          <Trackpoint>
            <Time>2022-04-23T13:03:17.000Z</Time>
            <Position>
              <LatitudeDegrees>41.54572357423603534698486328125</LatitudeDegrees>
              <LongitudeDegrees>-0.070956833660602569580078125</LongitudeDegrees>
            </Position>
            <AltitudeMeters>295</AltitudeMeters>
            <DistanceMeters>67245.593303425</DistanceMeters>
          </Trackpoint>
          <Trackpoint>
            <Time>2022-04-23T13:03:23.000Z</Time>
            <Position>
              <LatitudeDegrees>41.54596815817058086395263671875</LatitudeDegrees>
              <LongitudeDegrees>-0.07117719389498233795166015625</LongitudeDegrees>
            </Position>
            <AltitudeMeters>295.20001220703125</AltitudeMeters>
            <DistanceMeters>67278.426649066</DistanceMeters>
          </Trackpoint>
          <Trackpoint>
            <Time>2022-04-23T13:03:25.000Z</Time>
            <Position>
              <LatitudeDegrees>41.546053402125835418701171875</LatitudeDegrees>
              <LongitudeDegrees>-0.07125221192836761474609375</LongitudeDegrees>
            </Position>
            <AltitudeMeters>295.600006103515625</AltitudeMeters>
            <DistanceMeters>67289.787807136</DistanceMeters>
          </Trackpoint>
          <Trackpoint>
            <Time>2022-04-23T13:03:34.000Z</Time>
            <Position>
              <LatitudeDegrees>41.54644735157489776611328125</LatitudeDegrees>
              <LongitudeDegrees>-0.07161322049796581268310546875</LongitudeDegrees>
            </Position>
            <AltitudeMeters>296</AltitudeMeters>
            <DistanceMeters>67342.956761155</DistanceMeters>
          </Trackpoint>
          <Trackpoint>
            <Time>2022-04-23T13:03:35.000Z</Time>
            <Position>
              <LatitudeDegrees>41.546491272747516632080078125</LatitudeDegrees>
              <LongitudeDegrees>-0.07164909504354000091552734375</LongitudeDegrees>
            </Position>
            <AltitudeMeters>296</AltitudeMeters>
            <DistanceMeters>67348.686801115</DistanceMeters>
          </Trackpoint>
          <Trackpoint>
            <Time>2022-04-23T13:03:41.000Z</Time>
            <Position>
              <LatitudeDegrees>41.54671959578990936279296875</LatitudeDegrees>
              <LongitudeDegrees>-0.07190021686255931854248046875</LongitudeDegrees>
            </Position>
            <AltitudeMeters>296.399993896484375</AltitudeMeters>
            <DistanceMeters>67381.601728602</DistanceMeters>
          </Trackpoint>
          <Trackpoint>
            <Time>2022-04-23T13:03:42.000Z</Time>
            <Position>
              <LatitudeDegrees>41.54676125384867191314697265625</LatitudeDegrees>
              <LongitudeDegrees>-0.071944892406463623046875</LongitudeDegrees>
            </Position>
            <AltitudeMeters>296.399993896484375</AltitudeMeters>
            <DistanceMeters>67387.546786987</DistanceMeters>
          </Trackpoint>
          <Trackpoint>
            <Time>2022-04-23T13:03:47.000Z</Time>
            <Position>
              <LatitudeDegrees>41.54699376784265041351318359375</LatitudeDegrees>
              <LongitudeDegrees>-0.0721861235797405242919921875</LongitudeDegrees>
            </Position>
            <AltitudeMeters>296.79998779296875</AltitudeMeters>
            <DistanceMeters>67420.311441386</DistanceMeters>
          </Trackpoint>
          <Trackpoint>
            <Time>2022-04-23T13:03:54.000Z</Time>
            <Position>
              <LatitudeDegrees>41.5473138727247714996337890625</LatitudeDegrees>
              <LongitudeDegrees>-0.07250673137605190277099609375</LongitudeDegrees>
            </Position>
            <AltitudeMeters>296.600006103515625</AltitudeMeters>
            <DistanceMeters>67464.837921864</DistanceMeters>
          </Trackpoint>
          <Trackpoint>
            <Time>2022-04-23T13:03:59.000Z</Time>
            <Position>
              <LatitudeDegrees>41.5475284494459629058837890625</LatitudeDegrees>
              <LongitudeDegrees>-0.07273019291460514068603515625</LongitudeDegrees>
            </Position>
            <AltitudeMeters>296.399993896484375</AltitudeMeters>
            <DistanceMeters>67495.118210865</DistanceMeters>
          </Trackpoint>
          <Trackpoint>
            <Time>2022-04-23T13:04:03.000Z</Time>
            <Position>
              <LatitudeDegrees>41.54769298620522022247314453125</LatitudeDegrees>
              <LongitudeDegrees>-0.07289129309356212615966796875</LongitudeDegrees>
            </Position>
            <AltitudeMeters>296.399993896484375</AltitudeMeters>
            <DistanceMeters>67517.822039917</DistanceMeters>
          </Trackpoint>
          <Trackpoint>
            <Time>2022-04-23T13:04:11.000Z</Time>
            <Position>
              <LatitudeDegrees>41.548000015318393707275390625</LatitudeDegrees>
              <LongitudeDegrees>-0.073227994143962860107421875</LongitudeDegrees>
            </Position>
            <AltitudeMeters>296.79998779296875</AltitudeMeters>
            <DistanceMeters>67562.030812407</DistanceMeters>
          </Trackpoint>
          <Trackpoint>
            <Time>2022-04-23T13:04:15.000Z</Time>
            <Position>
              <LatitudeDegrees>41.5481252409517765045166015625</LatitudeDegrees>
              <LongitudeDegrees>-0.07342270575463771820068359375</LongitudeDegrees>
            </Position>
            <AltitudeMeters>296.79998779296875</AltitudeMeters>
            <DistanceMeters>67583.415835003</DistanceMeters>
          </Trackpoint>
          <Trackpoint>
            <Time>2022-04-23T13:04:17.000Z</Time>
            <Position>
              <LatitudeDegrees>41.54816974885761737823486328125</LatitudeDegrees>
              <LongitudeDegrees>-0.0735252164304256439208984375</LongitudeDegrees>
            </Position>
            <AltitudeMeters>296.79998779296875</AltitudeMeters>
            <DistanceMeters>67593.287642588</DistanceMeters>
          </Trackpoint>
          <Trackpoint>
            <Time>2022-04-23T13:04:18.000Z</Time>
            <Position>
              <LatitudeDegrees>41.5481852553784847259521484375</LatitudeDegrees>
              <LongitudeDegrees>-0.073576010763645172119140625</LongitudeDegrees>
            </Position>
            <AltitudeMeters>296.600006103515625</AltitudeMeters>
            <DistanceMeters>67597.858812776</DistanceMeters>
          </Trackpoint>
          <Trackpoint>
            <Time>2022-04-23T13:04:19.000Z</Time>
            <Position>
              <LatitudeDegrees>41.54819942079484462738037109375</LatitudeDegrees>
              <LongitudeDegrees>-0.07362856529653072357177734375</LongitudeDegrees>
            </Position>
            <AltitudeMeters>296.79998779296875</AltitudeMeters>
            <DistanceMeters>67602.51221189</DistanceMeters>
          </Trackpoint>
          <Trackpoint>
            <Time>2022-04-23T13:04:23.000Z</Time>
            <Position>
              <LatitudeDegrees>41.54822339303791522979736328125</LatitudeDegrees>
              <LongitudeDegrees>-0.07384045980870723724365234375</LongitudeDegrees>
            </Position>
            <AltitudeMeters>296.79998779296875</AltitudeMeters>
            <DistanceMeters>67620.363328595</DistanceMeters>
          </Trackpoint>
          <Trackpoint>
            <Time>2022-04-23T13:04:26.000Z</Time>
            <Position>
              <LatitudeDegrees>41.54822775162756443023681640625</LatitudeDegrees>
              <LongitudeDegrees>-0.0739862211048603057861328125</LongitudeDegrees>
            </Position>
            <AltitudeMeters>297.399993896484375</AltitudeMeters>
            <DistanceMeters>67632.514492323</DistanceMeters>
          </Trackpoint>
          <Trackpoint>
            <Time>2022-04-23T13:04:30.000Z</Time>
            <Position>
              <LatitudeDegrees>41.54821869917213916778564453125</LatitudeDegrees>
              <LongitudeDegrees>-0.07418009452521800994873046875</LongitudeDegrees>
            </Position>
            <AltitudeMeters>298.20001220703125</AltitudeMeters>
            <DistanceMeters>67648.695284529</DistanceMeters>
          </Trackpoint>
          <Trackpoint>
            <Time>2022-04-23T13:04:32.000Z</Time>
            <Position>
              <LatitudeDegrees>41.54821232892572879791259765625</LatitudeDegrees>
              <LongitudeDegrees>-0.0742789171636104583740234375</LongitudeDegrees>
            </Position>
            <AltitudeMeters>298.399993896484375</AltitudeMeters>
            <DistanceMeters>67656.957692042</DistanceMeters>
          </Trackpoint>
          <Trackpoint>
            <Time>2022-04-23T13:04:36.000Z</Time>
            <Position>
              <LatitudeDegrees>41.548205204308032989501953125</LatitudeDegrees>
              <LongitudeDegrees>-0.07448636926710605621337890625</LongitudeDegrees>
            </Position>
            <AltitudeMeters>299.600006103515625</AltitudeMeters>
            <DistanceMeters>67674.256730552</DistanceMeters>
          </Trackpoint>
          <Trackpoint>
            <Time>2022-04-23T13:04:40.000Z</Time>
            <Position>
              <LatitudeDegrees>41.54820419847965240478515625</LatitudeDegrees>
              <LongitudeDegrees>-0.07468636147677898406982421875</LongitudeDegrees>
            </Position>
            <AltitudeMeters>300.20001220703125</AltitudeMeters>
            <DistanceMeters>67690.916515352</DistanceMeters>
          </Trackpoint>
          <Trackpoint>
            <Time>2022-04-23T13:04:42.000Z</Time>
            <Position>
              <LatitudeDegrees>41.5482048690319061279296875</LatitudeDegrees>
              <LongitudeDegrees>-0.074789710342884063720703125</LongitudeDegrees>
            </Position>
            <AltitudeMeters>300.79998779296875</AltitudeMeters>
            <DistanceMeters>67699.525746877</DistanceMeters>
          </Trackpoint>
          <Trackpoint>
            <Time>2022-04-23T13:04:49.000Z</Time>
            <Position>
              <LatitudeDegrees>41.54820461757481098175048828125</LatitudeDegrees>
              <LongitudeDegrees>-0.07515071891248226165771484375</LongitudeDegrees>
            </Position>
            <AltitudeMeters>302</AltitudeMeters>
            <DistanceMeters>67729.597160466</DistanceMeters>
          </Trackpoint>
          <Trackpoint>
            <Time>2022-04-23T13:04:50.000Z</Time>
            <Position>
              <LatitudeDegrees>41.548203527927398681640625</LatitudeDegrees>
              <LongitudeDegrees>-0.075200758874416351318359375</LongitudeDegrees>
            </Position>
            <AltitudeMeters>302.399993896484375</AltitudeMeters>
            <DistanceMeters>67733.767523427</DistanceMeters>
          </Trackpoint>
          <Trackpoint>
            <Time>2022-04-23T13:04:52.000Z</Time>
            <Position>
              <LatitudeDegrees>41.54820017516613006591796875</LatitudeDegrees>
              <LongitudeDegrees>-0.0752989947795867919921875</LongitudeDegrees>
            </Position>
            <AltitudeMeters>303.20001220703125</AltitudeMeters>
            <DistanceMeters>67741.958583675</DistanceMeters>
          </Trackpoint>
          <Trackpoint>
            <Time>2022-04-23T13:05:00.000Z</Time>
            <Position>
              <LatitudeDegrees>41.5482008457183837890625</LatitudeDegrees>
              <LongitudeDegrees>-0.0756880827248096466064453125</LongitudeDegrees>
            </Position>
            <AltitudeMeters>304.20001220703125</AltitudeMeters>
            <DistanceMeters>67774.36896276</DistanceMeters>
          </Trackpoint>
          <Trackpoint>
            <Time>2022-04-23T13:05:02.000Z</Time>
            <Position>
              <LatitudeDegrees>41.5481963194906711578369140625</LatitudeDegrees>
              <LongitudeDegrees>-0.0757799483835697174072265625</LongitudeDegrees>
            </Position>
            <AltitudeMeters>304.399993896484375</AltitudeMeters>
            <DistanceMeters>67782.038507593</DistanceMeters>
          </Trackpoint>
          <Trackpoint>
            <Time>2022-04-23T13:05:07.000Z</Time>
            <Position>
              <LatitudeDegrees>41.54819137416779994964599609375</LatitudeDegrees>
              <LongitudeDegrees>-0.0760019011795520782470703125</LongitudeDegrees>
            </Position>
            <AltitudeMeters>305.399993896484375</AltitudeMeters>
            <DistanceMeters>67800.534817392</DistanceMeters>
          </Trackpoint>
          <Trackpoint>
            <Time>2022-04-23T13:05:09.000Z</Time>
            <Position>
              <LatitudeDegrees>41.5481939725577831268310546875</LatitudeDegrees>
              <LongitudeDegrees>-0.0760974548757076263427734375</LongitudeDegrees>
            </Position>
            <AltitudeMeters>305.399993896484375</AltitudeMeters>
            <DistanceMeters>67808.500074267</DistanceMeters>
          </Trackpoint>
          <Trackpoint>
            <Time>2022-04-23T13:05:13.000Z</Time>
            <Position>
              <LatitudeDegrees>41.54820763505995273590087890625</LatitudeDegrees>
              <LongitudeDegrees>-0.07628546096384525299072265625</LongitudeDegrees>
            </Position>
            <AltitudeMeters>306.399993896484375</AltitudeMeters>
            <DistanceMeters>67824.234386321</DistanceMeters>
          </Trackpoint>
          <Trackpoint>
            <Time>2022-04-23T13:05:18.000Z</Time>
            <Position>
              <LatitudeDegrees>41.548232026398181915283203125</LatitudeDegrees>
              <LongitudeDegrees>-0.07653255946934223175048828125</LongitudeDegrees>
            </Position>
            <AltitudeMeters>307.399993896484375</AltitudeMeters>
            <DistanceMeters>67844.995711878</DistanceMeters>
          </Trackpoint>
          <Trackpoint>
            <Time>2022-04-23T13:05:25.000Z</Time>
            <Position>
              <LatitudeDegrees>41.5482871793210506439208984375</LatitudeDegrees>
              <LongitudeDegrees>-0.07688744924962520599365234375</LongitudeDegrees>
            </Position>
            <AltitudeMeters>308</AltitudeMeters>
            <DistanceMeters>67875.18819798</DistanceMeters>
          </Trackpoint>
          <Trackpoint>
            <Time>2022-04-23T13:05:33.000Z</Time>
            <Position>
              <LatitudeDegrees>41.54835046268999576568603515625</LatitudeDegrees>
              <LongitudeDegrees>-0.07734141312539577484130859375</LongitudeDegrees>
            </Position>
            <AltitudeMeters>308.20001220703125</AltitudeMeters>
            <DistanceMeters>67913.652894456</DistanceMeters>
          </Trackpoint>
          <Trackpoint>
            <Time>2022-04-23T13:05:37.000Z</Time>
            <Position>
              <LatitudeDegrees>41.5483792126178741455078125</LatitudeDegrees>
              <LongitudeDegrees>-0.07756437174975872039794921875</LongitudeDegrees>
            </Position>
            <AltitudeMeters>308.399993896484375</AltitudeMeters>
            <DistanceMeters>67932.498634999</DistanceMeters>
          </Trackpoint>
          <Trackpoint>
            <Time>2022-04-23T13:05:41.000Z</Time>
            <Position>
              <LatitudeDegrees>41.54840041883289813995361328125</LatitudeDegrees>
              <LongitudeDegrees>-0.07776905782520771026611328125</LongitudeDegrees>
            </Position>
            <AltitudeMeters>308.600006103515625</AltitudeMeters>
            <DistanceMeters>67949.711328226</DistanceMeters>
          </Trackpoint>
          <Trackpoint>
            <Time>2022-04-23T13:05:46.000Z</Time>
            <Position>
              <LatitudeDegrees>41.5484380535781383514404296875</LatitudeDegrees>
              <LongitudeDegrees>-0.077998638153076171875</LongitudeDegrees>
            </Position>
            <AltitudeMeters>309.399993896484375</AltitudeMeters>
            <DistanceMeters>67969.288215221</DistanceMeters>
          </Trackpoint>
          <Trackpoint>
            <Time>2022-04-23T13:05:47.000Z</Time>
            <Position>
              <LatitudeDegrees>41.5484484471380710601806640625</LatitudeDegrees>
              <LongitudeDegrees>-0.07804381661117076873779296875</LongitudeDegrees>
            </Position>
            <AltitudeMeters>309.79998779296875</AltitudeMeters>
            <DistanceMeters>67973.224661738</DistanceMeters>
          </Trackpoint>
          <Trackpoint>
            <Time>2022-04-23T13:05:51.000Z</Time>
            <Position>
              <LatitudeDegrees>41.5484796278178691864013671875</LatitudeDegrees>
              <LongitudeDegrees>-0.078212879598140716552734375</LongitudeDegrees>
            </Position>
            <AltitudeMeters>310.79998779296875</AltitudeMeters>
            <DistanceMeters>67987.728615021</DistanceMeters>
          </Trackpoint>
          <Trackpoint>
            <Time>2022-04-23T13:05:55.000Z</Time>
            <Position>
              <LatitudeDegrees>41.548504941165447235107421875</LatitudeDegrees>
              <LongitudeDegrees>-0.078382529318332672119140625</LongitudeDegrees>
            </Position>
            <AltitudeMeters>312.20001220703125</AltitudeMeters>
            <DistanceMeters>68002.138249914</DistanceMeters>
          </Trackpoint>
          <Trackpoint>
            <Time>2022-04-23T13:05:56.000Z</Time>
            <Position>
              <LatitudeDegrees>41.5485124848783016204833984375</LatitudeDegrees>
              <LongitudeDegrees>-0.07842334918677806854248046875</LongitudeDegrees>
            </Position>
            <AltitudeMeters>312.20001220703125</AltitudeMeters>
            <DistanceMeters>68005.640084264</DistanceMeters>
          </Trackpoint>
          <Trackpoint>
            <Time>2022-04-23T13:06:00.000Z</Time>
            <Position>
              <LatitudeDegrees>41.5485507063567638397216796875</LatitudeDegrees>
              <LongitudeDegrees>-0.07859802804887294769287109375</LongitudeDegrees>
            </Position>
            <AltitudeMeters>313.20001220703125</AltitudeMeters>
            <DistanceMeters>68020.799749349</DistanceMeters>
          </Trackpoint>
          <Trackpoint>
            <Time>2022-04-23T13:06:02.000Z</Time>
            <Position>
              <LatitudeDegrees>41.54857258312404155731201171875</LatitudeDegrees>
              <LongitudeDegrees>-0.0786961801350116729736328125</LongitudeDegrees>
            </Position>
            <AltitudeMeters>313.600006103515625</AltitudeMeters>
            <DistanceMeters>68029.329951925</DistanceMeters>
          </Trackpoint>
          <Trackpoint>
            <Time>2022-04-23T13:06:10.000Z</Time>
            <Position>
              <LatitudeDegrees>41.5486787818372249603271484375</LatitudeDegrees>
              <LongitudeDegrees>-0.07912608794867992401123046875</LongitudeDegrees>
            </Position>
            <AltitudeMeters>313.399993896484375</AltitudeMeters>
            <DistanceMeters>68067.040594437</DistanceMeters>
          </Trackpoint>
          <Trackpoint>
            <Time>2022-04-23T13:06:16.000Z</Time>
            <Position>
              <LatitudeDegrees>41.54876654036343097686767578125</LatitudeDegrees>
              <LongitudeDegrees>-0.079505704343318939208984375</LongitudeDegrees>
            </Position>
            <AltitudeMeters>313.20001220703125</AltitudeMeters>
            <DistanceMeters>68100.135958497</DistanceMeters>
          </Trackpoint>
          <Trackpoint>
            <Time>2022-04-23T13:06:17.000Z</Time>
            <Position>
              <LatitudeDegrees>41.54878246597945690155029296875</LatitudeDegrees>
              <LongitudeDegrees>-0.07957368157804012298583984375</LongitudeDegrees>
            </Position>
            <AltitudeMeters>313</AltitudeMeters>
            <DistanceMeters>68106.068853067</DistanceMeters>
          </Trackpoint>
          <Trackpoint>
            <Time>2022-04-23T13:06:21.000Z</Time>
            <Position>
              <LatitudeDegrees>41.54885505326092243194580078125</LatitudeDegrees>
              <LongitudeDegrees>-0.0798465125262737274169921875</LongitudeDegrees>
            </Position>
            <AltitudeMeters>312.20001220703125</AltitudeMeters>
            <DistanceMeters>68130.188048424</DistanceMeters>
          </Trackpoint>
          <Trackpoint>
            <Time>2022-04-23T13:06:25.000Z</Time>
            <Position>
              <LatitudeDegrees>41.54892579652369022369384765625</LatitudeDegrees>
              <LongitudeDegrees>-0.0801194272935390472412109375</LongitudeDegrees>
            </Position>
            <AltitudeMeters>311.20001220703125</AltitudeMeters>
            <DistanceMeters>68154.246140197</DistanceMeters>
          </Trackpoint>
          <Trackpoint>
            <Time>2022-04-23T13:06:26.000Z</Time>
            <Position>
              <LatitudeDegrees>41.5489436499774456024169921875</LatitudeDegrees>
              <LongitudeDegrees>-0.0801854766905307769775390625</LongitudeDegrees>
            </Position>
            <AltitudeMeters>311.20001220703125</AltitudeMeters>
            <DistanceMeters>68160.09472375</DistanceMeters>
          </Trackpoint>
          <Trackpoint>
            <Time>2022-04-23T13:06:31.000Z</Time>
            <Position>
              <LatitudeDegrees>41.54901531524956226348876953125</LatitudeDegrees>
              <LongitudeDegrees>-0.0805023126304149627685546875</LongitudeDegrees>
            </Position>
            <AltitudeMeters>310.600006103515625</AltitudeMeters>
            <DistanceMeters>68187.66524741</DistanceMeters>
          </Trackpoint>
          <Trackpoint>
            <Time>2022-04-23T13:06:34.000Z</Time>
            <Position>
              <LatitudeDegrees>41.54905320145189762115478515625</LatitudeDegrees>
              <LongitudeDegrees>-0.08068663068115711212158203125</LongitudeDegrees>
            </Position>
            <AltitudeMeters>310.20001220703125</AltitudeMeters>
            <DistanceMeters>68203.586972694</DistanceMeters>
          </Trackpoint>
          <Trackpoint>
            <Time>2022-04-23T13:06:43.000Z</Time>
            <Position>
              <LatitudeDegrees>41.5491555444896221160888671875</LatitudeDegrees>
              <LongitudeDegrees>-0.081220977008342742919921875</LongitudeDegrees>
            </Position>
            <AltitudeMeters>311.20001220703125</AltitudeMeters>
            <DistanceMeters>68249.530890456</DistanceMeters>
          </Trackpoint>
          <Trackpoint>
            <Time>2022-04-23T13:06:44.000Z</Time>
            <Position>
              <LatitudeDegrees>41.54916635714471340179443359375</LatitudeDegrees>
              <LongitudeDegrees>-0.0812747888267040252685546875</LongitudeDegrees>
            </Position>
            <AltitudeMeters>311.20001220703125</AltitudeMeters>
            <DistanceMeters>68254.172631766</DistanceMeters>
          </Trackpoint>
          <Trackpoint>
            <Time>2022-04-23T13:06:49.000Z</Time>
            <Position>
              <LatitudeDegrees>41.5492179058492183685302734375</LatitudeDegrees>
              <LongitudeDegrees>-0.08154175244271755218505859375</LongitudeDegrees>
            </Position>
            <AltitudeMeters>312</AltitudeMeters>
            <DistanceMeters>68277.138054575</DistanceMeters>
          </Trackpoint>
          <Trackpoint>
            <Time>2022-04-23T13:06:51.000Z</Time>
            <Position>
              <LatitudeDegrees>41.5492380224168300628662109375</LatitudeDegrees>
              <LongitudeDegrees>-0.08164552040398120880126953125</LongitudeDegrees>
            </Position>
            <AltitudeMeters>312.399993896484375</AltitudeMeters>
            <DistanceMeters>68286.06652112</DistanceMeters>
          </Trackpoint>
          <Trackpoint>
            <Time>2022-04-23T13:06:54.000Z</Time>
            <Position>
              <LatitudeDegrees>41.54927096329629421234130859375</LatitudeDegrees>
              <LongitudeDegrees>-0.08181919343769550323486328125</LongitudeDegrees>
            </Position>
            <AltitudeMeters>312.79998779296875</AltitudeMeters>
            <DistanceMeters>68300.990254079</DistanceMeters>
          </Trackpoint>
          <Trackpoint>
            <Time>2022-04-23T13:07:02.000Z</Time>
            <Position>
              <LatitudeDegrees>41.5493543632328510284423828125</LatitudeDegrees>
              <LongitudeDegrees>-0.08224147371947765350341796875</LongitudeDegrees>
            </Position>
            <AltitudeMeters>313.20001220703125</AltitudeMeters>
            <DistanceMeters>68337.369106636</DistanceMeters>
          </Trackpoint>
          <Trackpoint>
            <Time>2022-04-23T13:07:05.000Z</Time>
            <Position>
              <LatitudeDegrees>41.54938512481749057769775390625</LatitudeDegrees>
              <LongitudeDegrees>-0.08240190334618091583251953125</LongitudeDegrees>
            </Position>
            <AltitudeMeters>313.600006103515625</AltitudeMeters>
            <DistanceMeters>68351.164027114</DistanceMeters>
          </Trackpoint>
          <Trackpoint>
            <Time>2022-04-23T13:07:08.000Z</Time>
            <Position>
              <LatitudeDegrees>41.5494173951447010040283203125</LatitudeDegrees>
              <LongitudeDegrees>-0.08255529217422008514404296875</LongitudeDegrees>
            </Position>
            <AltitudeMeters>314</AltitudeMeters>
            <DistanceMeters>68364.435826958</DistanceMeters>
          </Trackpoint>
          <Trackpoint>
            <Time>2022-04-23T13:07:10.000Z</Time>
            <Position>
              <LatitudeDegrees>41.54943524859845638275146484375</LatitudeDegrees>
              <LongitudeDegrees>-0.08265805430710315704345703125</LongitudeDegrees>
            </Position>
            <AltitudeMeters>314.79998779296875</AltitudeMeters>
            <DistanceMeters>68373.222587089</DistanceMeters>
          </Trackpoint>
          <Trackpoint>
            <Time>2022-04-23T13:07:12.000Z</Time>
            <Position>
              <LatitudeDegrees>41.54945201240479946136474609375</LatitudeDegrees>
              <LongitudeDegrees>-0.08275394327938556671142578125</LongitudeDegrees>
            </Position>
            <AltitudeMeters>315.399993896484375</AltitudeMeters>
            <DistanceMeters>68381.424664235</DistanceMeters>
          </Trackpoint>
          <Trackpoint>
            <Time>2022-04-23T13:07:14.000Z</Time>
            <Position>
              <LatitudeDegrees>41.54947162605822086334228515625</LatitudeDegrees>
              <LongitudeDegrees>-0.0828425399959087371826171875</LongitudeDegrees>
            </Position>
            <AltitudeMeters>316</AltitudeMeters>
            <DistanceMeters>68389.12065484</DistanceMeters>
          </Trackpoint>
          <Trackpoint>
            <Time>2022-04-23T13:07:21.000Z</Time>
            <Position>
              <LatitudeDegrees>41.54954404570162296295166015625</LatitudeDegrees>
              <LongitudeDegrees>-0.08318594656884670257568359375</LongitudeDegrees>
            </Position>
            <AltitudeMeters>317</AltitudeMeters>
            <DistanceMeters>68418.83926276</DistanceMeters>
          </Trackpoint>
          <Trackpoint>
            <Time>2022-04-23T13:07:29.000Z</Time>
            <Position>
              <LatitudeDegrees>41.54962585307657718658447265625</LatitudeDegrees>
              <LongitudeDegrees>-0.08363664150238037109375</LongitudeDegrees>
            </Position>
            <AltitudeMeters>317.20001220703125</AltitudeMeters>
            <DistanceMeters>68457.468761754</DistanceMeters>
          </Trackpoint>
          <Trackpoint>
            <Time>2022-04-23T13:07:30.000Z</Time>
            <Position>
              <LatitudeDegrees>41.54963674955070018768310546875</LatitudeDegrees>
              <LongitudeDegrees>-0.08369623683393001556396484375</LongitudeDegrees>
            </Position>
            <AltitudeMeters>317</AltitudeMeters>
            <DistanceMeters>68462.579043652</DistanceMeters>
          </Trackpoint>
          <Trackpoint>
            <Time>2022-04-23T13:07:36.000Z</Time>
            <Position>
              <LatitudeDegrees>41.5497077442705631256103515625</LatitudeDegrees>
              <LongitudeDegrees>-0.08406252600252628326416015625</LongitudeDegrees>
            </Position>
            <AltitudeMeters>317</AltitudeMeters>
            <DistanceMeters>68494.096125829</DistanceMeters>
          </Trackpoint>
          <Trackpoint>
            <Time>2022-04-23T13:07:43.000Z</Time>
            <Position>
              <LatitudeDegrees>41.54978343285620212554931640625</LatitudeDegrees>
              <LongitudeDegrees>-0.0844662822782993316650390625</LongitudeDegrees>
            </Position>
            <AltitudeMeters>316.79998779296875</AltitudeMeters>
            <DistanceMeters>68528.76668475</DistanceMeters>
          </Trackpoint>
          <Trackpoint>
            <Time>2022-04-23T13:07:45.000Z</Time>
            <Position>
              <LatitudeDegrees>41.54980539344251155853271484375</LatitudeDegrees>
              <LongitudeDegrees>-0.0845812819898128509521484375</LongitudeDegrees>
            </Position>
            <AltitudeMeters>316.600006103515625</AltitudeMeters>
            <DistanceMeters>68538.653117243</DistanceMeters>
          </Trackpoint>
          <Trackpoint>
            <Time>2022-04-23T13:07:51.000Z</Time>
            <Position>
              <LatitudeDegrees>41.5498609654605388641357421875</LatitudeDegrees>
              <LongitudeDegrees>-0.08491915650665760040283203125</LongitudeDegrees>
            </Position>
            <AltitudeMeters>316.600006103515625</AltitudeMeters>
            <DistanceMeters>68567.468626768</DistanceMeters>
          </Trackpoint>
          <Trackpoint>
            <Time>2022-04-23T13:07:54.000Z</Time>
            <Position>
              <LatitudeDegrees>41.54989222995936870574951171875</LatitudeDegrees>
              <LongitudeDegrees>-0.08508897386491298675537109375</LongitudeDegrees>
            </Position>
            <AltitudeMeters>316.600006103515625</AltitudeMeters>
            <DistanceMeters>68582.035946234</DistanceMeters>
          </Trackpoint>
          <Trackpoint>
            <Time>2022-04-23T13:08:04.000Z</Time>
            <Position>
              <LatitudeDegrees>41.549992896616458892822265625</LatitudeDegrees>
              <LongitudeDegrees>-0.0856746174395084381103515625</LongitudeDegrees>
            </Position>
            <AltitudeMeters>317</AltitudeMeters>
            <DistanceMeters>68632.087969947</DistanceMeters>
          </Trackpoint>
          <Trackpoint>
            <Time>2022-04-23T13:08:14.000Z</Time>
            <Position>
              <LatitudeDegrees>41.5500879473984241485595703125</LatitudeDegrees>
              <LongitudeDegrees>-0.086235702037811279296875</LongitudeDegrees>
            </Position>
            <AltitudeMeters>318</AltitudeMeters>
            <DistanceMeters>68680.006409699</DistanceMeters>
          </Trackpoint>
          <Trackpoint>
            <Time>2022-04-23T13:08:15.000Z</Time>
            <Position>
              <LatitudeDegrees>41.55009423382580280303955078125</LatitudeDegrees>
              <LongitudeDegrees>-0.08629177697002887725830078125</LongitudeDegrees>
            </Position>
            <AltitudeMeters>318.20001220703125</AltitudeMeters>
            <DistanceMeters>68684.729151362</DistanceMeters>
          </Trackpoint>
          <Trackpoint>
            <Time>2022-04-23T13:08:16.000Z</Time>
            <Position>
              <LatitudeDegrees>41.55010328628122806549072265625</LatitudeDegrees>
              <LongitudeDegrees>-0.086346678435802459716796875</LongitudeDegrees>
            </Position>
            <AltitudeMeters>318.399993896484375</AltitudeMeters>
            <DistanceMeters>68689.411568004</DistanceMeters>
          </Trackpoint>
          <Trackpoint>
            <Time>2022-04-23T13:08:19.000Z</Time>
            <Position>
              <LatitudeDegrees>41.55013413168489933013916015625</LatitudeDegrees>
              <LongitudeDegrees>-0.0865017436444759368896484375</LongitudeDegrees>
            </Position>
            <AltitudeMeters>319</AltitudeMeters>
            <DistanceMeters>68702.776594833</DistanceMeters>
          </Trackpoint>
          <Trackpoint>
            <Time>2022-04-23T13:08:22.000Z</Time>
            <Position>
              <LatitudeDegrees>41.550163216888904571533203125</LatitudeDegrees>
              <LongitudeDegrees>-0.086654126644134521484375</LongitudeDegrees>
            </Position>
            <AltitudeMeters>319.600006103515625</AltitudeMeters>
            <DistanceMeters>68715.875812847</DistanceMeters>
          </Trackpoint>
          <Trackpoint>
            <Time>2022-04-23T13:08:25.000Z</Time>
            <Position>
              <LatitudeDegrees>41.55019037425518035888671875</LatitudeDegrees>
              <LongitudeDegrees>-0.086803995072841644287109375</LongitudeDegrees>
            </Position>
            <AltitudeMeters>320.399993896484375</AltitudeMeters>
            <DistanceMeters>68728.719895787</DistanceMeters>
          </Trackpoint>
          <Trackpoint>
            <Time>2022-04-23T13:08:31.000Z</Time>
            <Position>
              <LatitudeDegrees>41.55025566928088665008544921875</LatitudeDegrees>
              <LongitudeDegrees>-0.087104402482509613037109375</LongitudeDegrees>
            </Position>
            <AltitudeMeters>321.20001220703125</AltitudeMeters>
            <DistanceMeters>68754.776456527</DistanceMeters>
          </Trackpoint>
          <Trackpoint>
            <Time>2022-04-23T13:08:32.000Z</Time>
            <Position>
              <LatitudeDegrees>41.5502674877643585205078125</LatitudeDegrees>
              <LongitudeDegrees>-0.08716600947082042694091796875</LongitudeDegrees>
            </Position>
            <AltitudeMeters>321.600006103515625</AltitudeMeters>
            <DistanceMeters>68760.074142586</DistanceMeters>
          </Trackpoint>
          <Trackpoint>
            <Time>2022-04-23T13:08:40.000Z</Time>
            <Position>
              <LatitudeDegrees>41.55034334398806095123291015625</LatitudeDegrees>
              <LongitudeDegrees>-0.08757940493524074554443359375</LongitudeDegrees>
            </Position>
            <AltitudeMeters>322.600006103515625</AltitudeMeters>
            <DistanceMeters>68795.528277339</DistanceMeters>
          </Trackpoint>
          <Trackpoint>
            <Time>2022-04-23T13:08:41.000Z</Time>
            <Position>
              <LatitudeDegrees>41.55035591684281826019287109375</LatitudeDegrees>
              <LongitudeDegrees>-0.08763288147747516632080078125</LongitudeDegrees>
            </Position>
            <AltitudeMeters>322.79998779296875</AltitudeMeters>
            <DistanceMeters>68800.197174911</DistanceMeters>
          </Trackpoint>
          <Trackpoint>
            <Time>2022-04-23T13:08:50.000Z</Time>
            <Position>
              <LatitudeDegrees>41.55044962652027606964111328125</LatitudeDegrees>
              <LongitudeDegrees>-0.08814099244773387908935546875</LongitudeDegrees>
            </Position>
            <AltitudeMeters>323.600006103515625</AltitudeMeters>
            <DistanceMeters>68843.786582394</DistanceMeters>
          </Trackpoint>
          <Trackpoint>
            <Time>2022-04-23T13:09:00.000Z</Time>
            <Position>
              <LatitudeDegrees>41.5505598485469818115234375</LatitudeDegrees>
              <LongitudeDegrees>-0.088751278817653656005859375</LongitudeDegrees>
            </Position>
            <AltitudeMeters>323.20001220703125</AltitudeMeters>
            <DistanceMeters>68896.079948223</DistanceMeters>
          </Trackpoint>
          <Trackpoint>
            <Time>2022-04-23T13:09:07.000Z</Time>
            <Position>
              <LatitudeDegrees>41.55063754878938198089599609375</LatitudeDegrees>
              <LongitudeDegrees>-0.08915520273149013519287109375</LongitudeDegrees>
            </Position>
            <AltitudeMeters>323.399993896484375</AltitudeMeters>
            <DistanceMeters>68930.818679</DistanceMeters>
          </Trackpoint>
          <Trackpoint>
            <Time>2022-04-23T13:09:10.000Z</Time>
            <Position>
              <LatitudeDegrees>41.55067157931625843048095703125</LatitudeDegrees>
              <LongitudeDegrees>-0.0893284566700458526611328125</LongitudeDegrees>
            </Position>
            <AltitudeMeters>323.600006103515625</AltitudeMeters>
            <DistanceMeters>68945.738781027</DistanceMeters>
          </Trackpoint>
          <Trackpoint>
            <Time>2022-04-23T13:09:16.000Z</Time>
            <Position>
              <LatitudeDegrees>41.55074022710323333740234375</LatitudeDegrees>
              <LongitudeDegrees>-0.0896788202226161956787109375</LongitudeDegrees>
            </Position>
            <AltitudeMeters>324.399993896484375</AltitudeMeters>
            <DistanceMeters>68975.906133648</DistanceMeters>
          </Trackpoint>
          <Trackpoint>
            <Time>2022-04-23T13:09:25.000Z</Time>
            <Position>
              <LatitudeDegrees>41.55083100311458110809326171875</LatitudeDegrees>
              <LongitudeDegrees>-0.0902340374886989593505859375</LongitudeDegrees>
            </Position>
            <AltitudeMeters>324.600006103515625</AltitudeMeters>
            <DistanceMeters>69023.243746493</DistanceMeters>
          </Trackpoint>
          <Trackpoint>
            <Time>2022-04-23T13:09:33.000Z</Time>
            <Position>
              <LatitudeDegrees>41.550915576517581939697265625</LatitudeDegrees>
              <LongitudeDegrees>-0.09073317982256412506103515625</LongitudeDegrees>
            </Position>
            <AltitudeMeters>324.399993896484375</AltitudeMeters>
            <DistanceMeters>69065.871993386</DistanceMeters>
          </Trackpoint>
          <Trackpoint>
            <Time>2022-04-23T13:09:39.000Z</Time>
            <Position>
              <LatitudeDegrees>41.55098824761807918548583984375</LatitudeDegrees>
              <LongitudeDegrees>-0.09112067520618438720703125</LongitudeDegrees>
            </Position>
            <AltitudeMeters>324.20001220703125</AltitudeMeters>
            <DistanceMeters>69099.146408526</DistanceMeters>
          </Trackpoint>
          <Trackpoint>
            <Time>2022-04-23T13:09:43.000Z</Time>
            <Position>
              <LatitudeDegrees>41.551031582057476043701171875</LatitudeDegrees>
              <LongitudeDegrees>-0.091387219727039337158203125</LongitudeDegrees>
            </Position>
            <AltitudeMeters>323.399993896484375</AltitudeMeters>
            <DistanceMeters>69121.865743895</DistanceMeters>
          </Trackpoint>
          <Trackpoint>
            <Time>2022-04-23T13:09:49.000Z</Time>
            <Position>
              <LatitudeDegrees>41.551117412745952606201171875</LatitudeDegrees>
              <LongitudeDegrees>-0.09178058244287967681884765625</LongitudeDegrees>
            </Position>
            <AltitudeMeters>322.79998779296875</AltitudeMeters>
            <DistanceMeters>69155.994889659</DistanceMeters>
          </Trackpoint>
          <Trackpoint>
            <Time>2022-04-23T13:09:51.000Z</Time>
            <Position>
              <LatitudeDegrees>41.55116292648017406463623046875</LatitudeDegrees>
              <LongitudeDegrees>-0.0918980129063129425048828125</LongitudeDegrees>
            </Position>
            <AltitudeMeters>322.600006103515625</AltitudeMeters>
            <DistanceMeters>69167.010203417</DistanceMeters>
          </Trackpoint>
          <Trackpoint>
            <Time>2022-04-23T13:09:57.000Z</Time>
            <Position>
              <LatitudeDegrees>41.551279686391353607177734375</LatitudeDegrees>
              <LongitudeDegrees>-0.092230774462223052978515625</LongitudeDegrees>
            </Position>
            <AltitudeMeters>322</AltitudeMeters>
            <DistanceMeters>69197.62282015</DistanceMeters>
          </Trackpoint>
          <Trackpoint>
            <Time>2022-04-23T13:10:04.000Z</Time>
            <Position>
              <LatitudeDegrees>41.551384963095188140869140625</LatitudeDegrees>
              <LongitudeDegrees>-0.09259186685085296630859375</LongitudeDegrees>
            </Position>
            <AltitudeMeters>323</AltitudeMeters>
            <DistanceMeters>69229.90156409</DistanceMeters>
          </Trackpoint>
          <Trackpoint>
            <Time>2022-04-23T13:10:06.000Z</Time>
            <Position>
              <LatitudeDegrees>41.55140952207148075103759765625</LatitudeDegrees>
              <LongitudeDegrees>-0.09269303642213344573974609375</LongitudeDegrees>
            </Position>
            <AltitudeMeters>323.20001220703125</AltitudeMeters>
            <DistanceMeters>69238.760989831</DistanceMeters>
          </Trackpoint>
          <Trackpoint>
            <Time>2022-04-23T13:10:09.000Z</Time>
            <Position>
              <LatitudeDegrees>41.55145076103508472442626953125</LatitudeDegrees>
              <LongitudeDegrees>-0.09283184073865413665771484375</LongitudeDegrees>
            </Position>
            <AltitudeMeters>323.600006103515625</AltitudeMeters>
            <DistanceMeters>69251.200418674</DistanceMeters>
          </Trackpoint>
          <Trackpoint>
            <Time>2022-04-23T13:10:10.000Z</Time>
            <Position>
              <LatitudeDegrees>41.5514655970036983489990234375</LatitudeDegrees>
              <LongitudeDegrees>-0.092878527939319610595703125</LongitudeDegrees>
            </Position>
            <AltitudeMeters>324</AltitudeMeters>
            <DistanceMeters>69255.424567233</DistanceMeters>
          </Trackpoint>
          <Trackpoint>
            <Time>2022-04-23T13:10:13.000Z</Time>
            <Position>
              <LatitudeDegrees>41.55150976963341236114501953125</LatitudeDegrees>
              <LongitudeDegrees>-0.093017332255840301513671875</LongitudeDegrees>
            </Position>
            <AltitudeMeters>324.600006103515625</AltitudeMeters>
            <DistanceMeters>69267.987515776</DistanceMeters>
          </Trackpoint>
          <Trackpoint>
            <Time>2022-04-23T13:10:17.000Z</Time>
            <Position>
              <LatitudeDegrees>41.5515691973268985748291015625</LatitudeDegrees>
              <LongitudeDegrees>-0.09320097975432872772216796875</LongitudeDegrees>
            </Position>
            <AltitudeMeters>326.20001220703125</AltitudeMeters>
            <DistanceMeters>69284.653261822</DistanceMeters>
          </Trackpoint>
          <Trackpoint>
            <Time>2022-04-23T13:10:20.000Z</Time>
            <Position>
              <LatitudeDegrees>41.5516114421188831329345703125</LatitudeDegrees>
              <LongitudeDegrees>-0.09334179572761058807373046875</LongitudeDegrees>
            </Position>
            <AltitudeMeters>326.79998779296875</AltitudeMeters>
            <DistanceMeters>69297.29002849</DistanceMeters>
          </Trackpoint>
          <Trackpoint>
            <Time>2022-04-23T13:10:23.000Z</Time>
            <Position>
              <LatitudeDegrees>41.55165913514792919158935546875</LatitudeDegrees>
              <LongitudeDegrees>-0.09347431361675262451171875</LongitudeDegrees>
            </Position>
            <AltitudeMeters>327.399993896484375</AltitudeMeters>
            <DistanceMeters>69309.538157325</DistanceMeters>
          </Trackpoint>
          <Trackpoint>
            <Time>2022-04-23T13:10:28.000Z</Time>
            <Position>
              <LatitudeDegrees>41.55173004604876041412353515625</LatitudeDegrees>
              <LongitudeDegrees>-0.093705654144287109375</LongitudeDegrees>
            </Position>
            <AltitudeMeters>328.600006103515625</AltitudeMeters>
            <DistanceMeters>69330.361370591</DistanceMeters>
          </Trackpoint>
          <Trackpoint>
            <Time>2022-04-23T13:10:33.000Z</Time>
            <Position>
              <LatitudeDegrees>41.5518052317202091217041015625</LatitudeDegrees>
              <LongitudeDegrees>-0.0939408503472805023193359375</LongitudeDegrees>
            </Position>
            <AltitudeMeters>329.600006103515625</AltitudeMeters>
            <DistanceMeters>69351.663893014</DistanceMeters>
          </Trackpoint>
          <Trackpoint>
            <Time>2022-04-23T13:10:37.000Z</Time>
            <Position>
              <LatitudeDegrees>41.55187077820301055908203125</LatitudeDegrees>
              <LongitudeDegrees>-0.0941457040607929229736328125</LongitudeDegrees>
            </Position>
            <AltitudeMeters>330.20001220703125</AltitudeMeters>
            <DistanceMeters>69370.221128672</DistanceMeters>
          </Trackpoint>
          <Trackpoint>
            <Time>2022-04-23T13:10:46.000Z</Time>
            <Position>
              <LatitudeDegrees>41.55203095637261867523193359375</LatitudeDegrees>
              <LongitudeDegrees>-0.09466144256293773651123046875</LongitudeDegrees>
            </Position>
            <AltitudeMeters>329.600006103515625</AltitudeMeters>
            <DistanceMeters>69416.731439278</DistanceMeters>
          </Trackpoint>
          <Trackpoint>
            <Time>2022-04-23T13:10:54.000Z</Time>
            <Position>
              <LatitudeDegrees>41.552197001874446868896484375</LatitudeDegrees>
              <LongitudeDegrees>-0.09512546472251415252685546875</LongitudeDegrees>
            </Position>
            <AltitudeMeters>329</AltitudeMeters>
            <DistanceMeters>69459.572681876</DistanceMeters>
          </Trackpoint>
          <Trackpoint>
            <Time>2022-04-23T13:10:55.000Z</Time>
            <Position>
              <LatitudeDegrees>41.55221502296626567840576171875</LatitudeDegrees>
              <LongitudeDegrees>-0.09518179111182689666748046875</LongitudeDegrees>
            </Position>
            <AltitudeMeters>329</AltitudeMeters>
            <DistanceMeters>69464.675890716</DistanceMeters>
          </Trackpoint>
          <Trackpoint>
            <Time>2022-04-23T13:10:56.000Z</Time>
            <Position>
              <LatitudeDegrees>41.55223094858229160308837890625</LatitudeDegrees>
              <LongitudeDegrees>-0.0952387042343616485595703125</LongitudeDegrees>
            </Position>
            <AltitudeMeters>328.79998779296875</AltitudeMeters>
            <DistanceMeters>69469.738237696</DistanceMeters>
          </Trackpoint>
          <Trackpoint>
            <Time>2022-04-23T13:10:57.000Z</Time>
            <Position>
              <LatitudeDegrees>41.552245952188968658447265625</LatitudeDegrees>
              <LongitudeDegrees>-0.0952946953475475311279296875</LongitudeDegrees>
            </Position>
            <AltitudeMeters>328.600006103515625</AltitudeMeters>
            <DistanceMeters>69474.692402386</DistanceMeters>
          </Trackpoint>
          <Trackpoint>
            <Time>2022-04-23T13:11:01.000Z</Time>
            <Position>
              <LatitudeDegrees>41.552309654653072357177734375</LatitudeDegrees>
              <LongitudeDegrees>-0.095513798296451568603515625</LongitudeDegrees>
            </Position>
            <AltitudeMeters>328.399993896484375</AltitudeMeters>
            <DistanceMeters>69494.270673119</DistanceMeters>
          </Trackpoint>
          <Trackpoint>
            <Time>2022-04-23T13:11:08.000Z</Time>
            <Position>
              <LatitudeDegrees>41.55242591165006160736083984375</LatitudeDegrees>
              <LongitudeDegrees>-0.0958395190536975860595703125</LongitudeDegrees>
            </Position>
            <AltitudeMeters>329.79998779296875</AltitudeMeters>
            <DistanceMeters>69524.328720934</DistanceMeters>
          </Trackpoint>
          <Trackpoint>
            <Time>2022-04-23T13:11:12.000Z</Time>
            <Position>
              <LatitudeDegrees>41.55246346257627010345458984375</LatitudeDegrees>
              <LongitudeDegrees>-0.09602417238056659698486328125</LongitudeDegrees>
            </Position>
            <AltitudeMeters>331.20001220703125</AltitudeMeters>
            <DistanceMeters>69540.266601921</DistanceMeters>
          </Trackpoint>
          <Trackpoint>
            <Time>2022-04-23T13:11:15.000Z</Time>
            <Position>
              <LatitudeDegrees>41.55250855721533298492431640625</LatitudeDegrees>
              <LongitudeDegrees>-0.0961607135832309722900390625</LongitudeDegrees>
            </Position>
            <AltitudeMeters>331.79998779296875</AltitudeMeters>
            <DistanceMeters>69552.698043039</DistanceMeters>
          </Trackpoint>
          <Trackpoint>
            <Time>2022-04-23T13:11:18.000Z</Time>
            <Position>
              <LatitudeDegrees>41.55254535377025604248046875</LatitudeDegrees>
              <LongitudeDegrees>-0.09630211628973484039306640625</LongitudeDegrees>
            </Position>
            <AltitudeMeters>332.399993896484375</AltitudeMeters>
            <DistanceMeters>69565.167199234</DistanceMeters>
          </Trackpoint>
          <Trackpoint>
            <Time>2022-04-23T13:11:21.000Z</Time>
            <Position>
              <LatitudeDegrees>41.55258533544838428497314453125</LatitudeDegrees>
              <LongitudeDegrees>-0.096450559794902801513671875</LongitudeDegrees>
            </Position>
            <AltitudeMeters>332.600006103515625</AltitudeMeters>
            <DistanceMeters>69578.308057342</DistanceMeters>
          </Trackpoint>
          <Trackpoint>
            <Time>2022-04-23T13:11:30.000Z</Time>
            <Position>
              <LatitudeDegrees>41.55272581614553928375244140625</LatitudeDegrees>
              <LongitudeDegrees>-0.0969224609434604644775390625</LongitudeDegrees>
            </Position>
            <AltitudeMeters>332.399993896484375</AltitudeMeters>
            <DistanceMeters>69620.60967715</DistanceMeters>
          </Trackpoint>
          <Trackpoint>
            <Time>2022-04-23T13:11:36.000Z</Time>
            <Position>
              <LatitudeDegrees>41.55282187275588512420654296875</LatitudeDegrees>
              <LongitudeDegrees>-0.09723250754177570343017578125</LongitudeDegrees>
            </Position>
            <AltitudeMeters>332.399993896484375</AltitudeMeters>
            <DistanceMeters>69648.559810841</DistanceMeters>
          </Trackpoint>
          <Trackpoint>
            <Time>2022-04-23T13:11:39.000Z</Time>
            <Position>
              <LatitudeDegrees>41.55286931432783603668212890625</LatitudeDegrees>
              <LongitudeDegrees>-0.0973762571811676025390625</LongitudeDegrees>
            </Position>
            <AltitudeMeters>332.20001220703125</AltitudeMeters>
            <DistanceMeters>69661.645234393</DistanceMeters>
          </Trackpoint>
          <Trackpoint>
            <Time>2022-04-23T13:11:43.000Z</Time>
            <Position>
              <LatitudeDegrees>41.55292899347841739654541015625</LatitudeDegrees>
              <LongitudeDegrees>-0.0975933484733104705810546875</LongitudeDegrees>
            </Position>
            <AltitudeMeters>332</AltitudeMeters>
            <DistanceMeters>69680.908722171</DistanceMeters>
          </Trackpoint>
          <Trackpoint>
            <Time>2022-04-23T13:11:46.000Z</Time>
            <Position>
              <LatitudeDegrees>41.55297358520328998565673828125</LatitudeDegrees>
              <LongitudeDegrees>-0.09776609949767589569091796875</LongitudeDegrees>
            </Position>
            <AltitudeMeters>331.600006103515625</AltitudeMeters>
            <DistanceMeters>69696.129913692</DistanceMeters>
          </Trackpoint>
          <Trackpoint>
            <Time>2022-04-23T13:11:47.000Z</Time>
            <Position>
              <LatitudeDegrees>41.552988588809967041015625</LatitudeDegrees>
              <LongitudeDegrees>-0.09782485663890838623046875</LongitudeDegrees>
            </Position>
            <AltitudeMeters>331.399993896484375</AltitudeMeters>
            <DistanceMeters>69701.301672235</DistanceMeters>
          </Trackpoint>
          <Trackpoint>
            <Time>2022-04-23T13:11:48.000Z</Time>
            <Position>
              <LatitudeDegrees>41.55300007201731204986572265625</LatitudeDegrees>
              <LongitudeDegrees>-0.0978853739798069000244140625</LongitudeDegrees>
            </Position>
            <AltitudeMeters>331.20001220703125</AltitudeMeters>
            <DistanceMeters>69706.503028695</DistanceMeters>
          </Trackpoint>
          <Trackpoint>
            <Time>2022-04-23T13:11:51.000Z</Time>
            <Position>
              <LatitudeDegrees>41.55302370898425579071044921875</LatitudeDegrees>
              <LongitudeDegrees>-0.09806114248931407928466796875</LongitudeDegrees>
            </Position>
            <AltitudeMeters>330.600006103515625</AltitudeMeters>
            <DistanceMeters>69721.377669297</DistanceMeters>
          </Trackpoint>
          <Trackpoint>
            <Time>2022-04-23T13:11:52.000Z</Time>
            <Position>
              <LatitudeDegrees>41.5530350245535373687744140625</LatitudeDegrees>
              <LongitudeDegrees>-0.09812752716243267059326171875</LongitudeDegrees>
            </Position>
            <AltitudeMeters>330.20001220703125</AltitudeMeters>
            <DistanceMeters>69727.049100536</DistanceMeters>
          </Trackpoint>
          <Trackpoint>
            <Time>2022-04-23T13:11:54.000Z</Time>
            <Position>
              <LatitudeDegrees>41.5530504472553730010986328125</LatitudeDegrees>
              <LongitudeDegrees>-0.09822509251534938812255859375</LongitudeDegrees>
            </Position>
            <AltitudeMeters>329.79998779296875</AltitudeMeters>
            <DistanceMeters>69735.354565842</DistanceMeters>
          </Trackpoint>
          <Trackpoint>
            <Time>2022-04-23T13:12:02.000Z</Time>
            <Position>
              <LatitudeDegrees>41.55312144197523593902587890625</LatitudeDegrees>
              <LongitudeDegrees>-0.09870068170130252838134765625</LongitudeDegrees>
            </Position>
            <AltitudeMeters>329.399993896484375</AltitudeMeters>
            <DistanceMeters>69775.747738438</DistanceMeters>
          </Trackpoint>
          <Trackpoint>
            <Time>2022-04-23T13:12:07.000Z</Time>
            <Position>
              <LatitudeDegrees>41.5531647764146327972412109375</LatitudeDegrees>
              <LongitudeDegrees>-0.09900142438709735870361328125</LongitudeDegrees>
            </Position>
            <AltitudeMeters>330.20001220703125</AltitudeMeters>
            <DistanceMeters>69801.257411679</DistanceMeters>
          </Trackpoint>
          <Trackpoint>
            <Time>2022-04-23T13:12:08.000Z</Time>
            <Position>
              <LatitudeDegrees>41.55317659489810466766357421875</LatitudeDegrees>
              <LongitudeDegrees>-0.09905858896672725677490234375</LongitudeDegrees>
            </Position>
            <AltitudeMeters>330.600006103515625</AltitudeMeters>
            <DistanceMeters>69806.197887023</DistanceMeters>
          </Trackpoint>
          <Trackpoint>
            <Time>2022-04-23T13:12:09.000Z</Time>
            <Position>
              <LatitudeDegrees>41.55318916775286197662353515625</LatitudeDegrees>
              <LongitudeDegrees>-0.09911499917507171630859375</LongitudeDegrees>
            </Position>
            <AltitudeMeters>330.600006103515625</AltitudeMeters>
            <DistanceMeters>69811.098907666</DistanceMeters>
          </Trackpoint>
          <Trackpoint>
            <Time>2022-04-23T13:12:11.000Z</Time>
            <Position>
              <LatitudeDegrees>41.55321632511913776397705078125</LatitudeDegrees>
              <LongitudeDegrees>-0.09922153316438198089599609375</LongitudeDegrees>
            </Position>
            <AltitudeMeters>331</AltitudeMeters>
            <DistanceMeters>69820.472415216</DistanceMeters>
          </Trackpoint>
          <Trackpoint>
            <Time>2022-04-23T13:12:13.000Z</Time>
            <Position>
              <LatitudeDegrees>41.553235016763210296630859375</LatitudeDegrees>
              <LongitudeDegrees>-0.09932949207723140716552734375</LongitudeDegrees>
            </Position>
            <AltitudeMeters>331.20001220703125</AltitudeMeters>
            <DistanceMeters>69829.701265688</DistanceMeters>
          </Trackpoint>
          <Trackpoint>
            <Time>2022-04-23T13:12:16.000Z</Time>
            <Position>
              <LatitudeDegrees>41.553255803883075714111328125</LatitudeDegrees>
              <LongitudeDegrees>-0.09948112070560455322265625</LongitudeDegrees>
            </Position>
            <AltitudeMeters>331.399993896484375</AltitudeMeters>
            <DistanceMeters>69842.540777966</DistanceMeters>
          </Trackpoint>
          <Trackpoint>
            <Time>2022-04-23T13:12:17.000Z</Time>
            <Position>
              <LatitudeDegrees>41.5532648563385009765625</LatitudeDegrees>
              <LongitudeDegrees>-0.0995295681059360504150390625</LongitudeDegrees>
            </Position>
            <AltitudeMeters>331.399993896484375</AltitudeMeters>
            <DistanceMeters>69846.700300351</DistanceMeters>
          </Trackpoint>
          <Trackpoint>
            <Time>2022-04-23T13:12:21.000Z</Time>
            <Position>
              <LatitudeDegrees>41.55329109169542789459228515625</LatitudeDegrees>
              <LongitudeDegrees>-0.09972595609724521636962890625</LongitudeDegrees>
            </Position>
            <AltitudeMeters>332</AltitudeMeters>
            <DistanceMeters>69863.3166663</DistanceMeters>
          </Trackpoint>
          <Trackpoint>
            <Time>2022-04-23T13:12:24.000Z</Time>
            <Position>
              <LatitudeDegrees>41.55331472866237163543701171875</LatitudeDegrees>
              <LongitudeDegrees>-0.09986945427954196929931640625</LongitudeDegrees>
            </Position>
            <AltitudeMeters>332.20001220703125</AltitudeMeters>
            <DistanceMeters>69875.554838055</DistanceMeters>
          </Trackpoint>
          <Trackpoint>
            <Time>2022-04-23T13:12:30.000Z</Time>
            <Position>
              <LatitudeDegrees>41.55335730873048305511474609375</LatitudeDegrees>
              <LongitudeDegrees>-0.100149326026439666748046875</LongitudeDegrees>
            </Position>
            <AltitudeMeters>333.399993896484375</AltitudeMeters>
            <DistanceMeters>69899.34266499</DistanceMeters>
          </Trackpoint>
          <Trackpoint>
            <Time>2022-04-23T13:12:33.000Z</Time>
            <Position>
              <LatitudeDegrees>41.553382538259029388427734375</LatitudeDegrees>
              <LongitudeDegrees>-0.100292153656482696533203125</LongitudeDegrees>
            </Position>
            <AltitudeMeters>333.399993896484375</AltitudeMeters>
            <DistanceMeters>69911.565701223</DistanceMeters>
          </Trackpoint>
          <Trackpoint>
            <Time>2022-04-23T13:12:44.000Z</Time>
            <Position>
              <LatitudeDegrees>41.55347432009875774383544921875</LatitudeDegrees>
              <LongitudeDegrees>-0.10082088410854339599609375</LongitudeDegrees>
            </Position>
            <AltitudeMeters>333.600006103515625</AltitudeMeters>
            <DistanceMeters>69956.773655627</DistanceMeters>
          </Trackpoint>
          <Trackpoint>
            <Time>2022-04-23T13:12:48.000Z</Time>
            <Position>
              <LatitudeDegrees>41.55350399203598499298095703125</LatitudeDegrees>
              <LongitudeDegrees>-0.101012997329235076904296875</LongitudeDegrees>
            </Position>
            <AltitudeMeters>334.600006103515625</AltitudeMeters>
            <DistanceMeters>69973.112172079</DistanceMeters>
          </Trackpoint>
          <Trackpoint>
            <Time>2022-04-23T13:12:52.000Z</Time>
            <Position>
              <LatitudeDegrees>41.5535369329154491424560546875</LatitudeDegrees>
              <LongitudeDegrees>-0.10119094513356685638427734375</LongitudeDegrees>
            </Position>
            <AltitudeMeters>335.79998779296875</AltitudeMeters>
            <DistanceMeters>69988.380454676</DistanceMeters>
          </Trackpoint>
          <Trackpoint>
            <Time>2022-04-23T13:12:57.000Z</Time>
            <Position>
              <LatitudeDegrees>41.5535746514797210693359375</LatitudeDegrees>
              <LongitudeDegrees>-0.10141440667212009429931640625</LongitudeDegrees>
            </Position>
            <AltitudeMeters>336.79998779296875</AltitudeMeters>
            <DistanceMeters>70007.460484337</DistanceMeters>
          </Trackpoint>
          <Trackpoint>
            <Time>2022-04-23T13:13:03.000Z</Time>
            <Position>
              <LatitudeDegrees>41.55363692902028560638427734375</LatitudeDegrees>
              <LongitudeDegrees>-0.1016790233552455902099609375</LongitudeDegrees>
            </Position>
            <AltitudeMeters>337.79998779296875</AltitudeMeters>
            <DistanceMeters>70030.565072605</DistanceMeters>
          </Trackpoint>
          <Trackpoint>
            <Time>2022-04-23T13:13:04.000Z</Time>
            <Position>
              <LatitudeDegrees>41.55364899896085262298583984375</LatitudeDegrees>
              <LongitudeDegrees>-0.10172554291784763336181640625</LongitudeDegrees>
            </Position>
            <AltitudeMeters>338</AltitudeMeters>
            <DistanceMeters>70034.666661616</DistanceMeters>
          </Trackpoint>
          <Trackpoint>
            <Time>2022-04-23T13:13:12.000Z</Time>
            <Position>
              <LatitudeDegrees>41.5537582151591777801513671875</LatitudeDegrees>
              <LongitudeDegrees>-0.10210557840764522552490234375</LongitudeDegrees>
            </Position>
            <AltitudeMeters>338.600006103515625</AltitudeMeters>
            <DistanceMeters>70068.574025608</DistanceMeters>
          </Trackpoint>
          <Trackpoint>
            <Time>2022-04-23T13:13:18.000Z</Time>
            <Position>
              <LatitudeDegrees>41.55385519377887248992919921875</LatitudeDegrees>
              <LongitudeDegrees>-0.10238989256322383880615234375</LongitudeDegrees>
            </Position>
            <AltitudeMeters>338.399993896484375</AltitudeMeters>
            <DistanceMeters>70094.598683598</DistanceMeters>
          </Trackpoint>
          <Trackpoint>
            <Time>2022-04-23T13:13:27.000Z</Time>
            <Position>
              <LatitudeDegrees>41.55400271527469158172607421875</LatitudeDegrees>
              <LongitudeDegrees>-0.10286682285368442535400390625</LongitudeDegrees>
            </Position>
            <AltitudeMeters>337.600006103515625</AltitudeMeters>
            <DistanceMeters>70137.582282339</DistanceMeters>
          </Trackpoint>
          <Trackpoint>
            <Time>2022-04-23T13:13:30.000Z</Time>
            <Position>
              <LatitudeDegrees>41.55404177494347095489501953125</LatitudeDegrees>
              <LongitudeDegrees>-0.1030308566987514495849609375</LongitudeDegrees>
            </Position>
            <AltitudeMeters>337.600006103515625</AltitudeMeters>
            <DistanceMeters>70151.919669137</DistanceMeters>
          </Trackpoint>
          <Trackpoint>
            <Time>2022-04-23T13:13:33.000Z</Time>
            <Position>
              <LatitudeDegrees>41.55408318154513835906982421875</LatitudeDegrees>
              <LongitudeDegrees>-0.10316035710275173187255859375</LongitudeDegrees>
            </Position>
            <AltitudeMeters>337.79998779296875</AltitudeMeters>
            <DistanceMeters>70163.649214938</DistanceMeters>
          </Trackpoint>
          <Trackpoint>
            <Time>2022-04-23T13:13:35.000Z</Time>
            <Position>
              <LatitudeDegrees>41.55410799197852611541748046875</LatitudeDegrees>
              <LongitudeDegrees>-0.1032476127147674560546875</LongitudeDegrees>
            </Position>
            <AltitudeMeters>337.79998779296875</AltitudeMeters>
            <DistanceMeters>70171.423422398</DistanceMeters>
          </Trackpoint>
          <Trackpoint>
            <Time>2022-04-23T13:13:44.000Z</Time>
            <Position>
              <LatitudeDegrees>41.55420958064496517181396484375</LatitudeDegrees>
              <LongitudeDegrees>-0.10361951775848865509033203125</LongitudeDegrees>
            </Position>
            <AltitudeMeters>339.20001220703125</AltitudeMeters>
            <DistanceMeters>70204.398787675</DistanceMeters>
          </Trackpoint>
          <Trackpoint>
            <Time>2022-04-23T13:13:49.000Z</Time>
            <Position>
              <LatitudeDegrees>41.554264314472675323486328125</LatitudeDegrees>
              <LongitudeDegrees>-0.10381347499787807464599609375</LongitudeDegrees>
            </Position>
            <AltitudeMeters>340.600006103515625</AltitudeMeters>
            <DistanceMeters>70221.663862926</DistanceMeters>
          </Trackpoint>
          <Trackpoint>
            <Time>2022-04-23T13:13:52.000Z</Time>
            <Position>
              <LatitudeDegrees>41.5543117560446262359619140625</LatitudeDegrees>
              <LongitudeDegrees>-0.1039342582225799560546875</LongitudeDegrees>
            </Position>
            <AltitudeMeters>341.600006103515625</AltitudeMeters>
            <DistanceMeters>70233.025815788</DistanceMeters>
          </Trackpoint>
          <Trackpoint>
            <Time>2022-04-23T13:13:55.000Z</Time>
            <Position>
              <LatitudeDegrees>41.55434645712375640869140625</LatitudeDegrees>
              <LongitudeDegrees>-0.1040531136095523834228515625</LongitudeDegrees>
            </Position>
            <AltitudeMeters>342.600006103515625</AltitudeMeters>
            <DistanceMeters>70243.652250088</DistanceMeters>
          </Trackpoint>
          <Trackpoint>
            <Time>2022-04-23T13:13:56.000Z</Time>
            <Position>
              <LatitudeDegrees>41.55435693450272083282470703125</LatitudeDegrees>
              <LongitudeDegrees>-0.10409460403025150299072265625</LongitudeDegrees>
            </Position>
            <AltitudeMeters>342.79998779296875</AltitudeMeters>
            <DistanceMeters>70247.300582951</DistanceMeters>
          </Trackpoint>
          <Trackpoint>
            <Time>2022-04-23T13:13:57.000Z</Time>
            <Position>
              <LatitudeDegrees>41.5543704293668270111083984375</LatitudeDegrees>
              <LongitudeDegrees>-0.10413450188934803009033203125</LongitudeDegrees>
            </Position>
            <AltitudeMeters>343</AltitudeMeters>
            <DistanceMeters>70250.948915814</DistanceMeters>
          </Trackpoint>
          <Trackpoint>
            <Time>2022-04-23T13:14:03.000Z</Time>
            <Position>
              <LatitudeDegrees>41.55445114709436893463134765625</LatitudeDegrees>
              <LongitudeDegrees>-0.1043813489377498626708984375</LongitudeDegrees>
            </Position>
            <AltitudeMeters>343.79998779296875</AltitudeMeters>
            <DistanceMeters>70273.385888241</DistanceMeters>
          </Trackpoint>
          <Trackpoint>
            <Time>2022-04-23T13:14:05.000Z</Time>
            <Position>
              <LatitudeDegrees>41.55447863973677158355712890625</LatitudeDegrees>
              <LongitudeDegrees>-0.10445871390402317047119140625</LongitudeDegrees>
            </Position>
            <AltitudeMeters>344</AltitudeMeters>
            <DistanceMeters>70280.518591142</DistanceMeters>
          </Trackpoint>
          <Trackpoint>
            <Time>2022-04-23T13:14:07.000Z</Time>
            <Position>
              <LatitudeDegrees>41.5544995106756687164306640625</LatitudeDegrees>
              <LongitudeDegrees>-0.104528032243251800537109375</LongitudeDegrees>
            </Position>
            <AltitudeMeters>344</AltitudeMeters>
            <DistanceMeters>70286.741208581</DistanceMeters>
          </Trackpoint>
          <Trackpoint>
            <Time>2022-04-23T13:14:10.000Z</Time>
            <Position>
              <LatitudeDegrees>41.5545481257140636444091796875</LatitudeDegrees>
              <LongitudeDegrees>-0.10463741607964038848876953125</LongitudeDegrees>
            </Position>
            <AltitudeMeters>344.600006103515625</AltitudeMeters>
            <DistanceMeters>70297.337432933</DistanceMeters>
          </Trackpoint>
          <Trackpoint>
            <Time>2022-04-23T13:14:14.000Z</Time>
            <Position>
              <LatitudeDegrees>41.5546171925961971282958984375</LatitudeDegrees>
              <LongitudeDegrees>-0.10479683987796306610107421875</LongitudeDegrees>
            </Position>
            <AltitudeMeters>345</AltitudeMeters>
            <DistanceMeters>70312.680642926</DistanceMeters>
          </Trackpoint>
          <Trackpoint>
            <Time>2022-04-23T13:14:18.000Z</Time>
            <Position>
              <LatitudeDegrees>41.55469690449535846710205078125</LatitudeDegrees>
              <LongitudeDegrees>-0.1049610413610935211181640625</LongitudeDegrees>
            </Position>
            <AltitudeMeters>345.399993896484375</AltitudeMeters>
            <DistanceMeters>70328.982641262</DistanceMeters>
          </Trackpoint>
          <Trackpoint>
            <Time>2022-04-23T13:14:24.000Z</Time>
            <Position>
              <LatitudeDegrees>41.55486621893942356109619140625</LatitudeDegrees>
              <LongitudeDegrees>-0.10519154369831085205078125</LongitudeDegrees>
            </Position>
            <AltitudeMeters>345.600006103515625</AltitudeMeters>
            <DistanceMeters>70355.884769555</DistanceMeters>
          </Trackpoint>
          <Trackpoint>
            <Time>2022-04-23T13:14:27.000Z</Time>
            <Position>
              <LatitudeDegrees>41.55497283674776554107666015625</LatitudeDegrees>
              <LongitudeDegrees>-0.1052929647266864776611328125</LongitudeDegrees>
            </Position>
            <AltitudeMeters>345.399993896484375</AltitudeMeters>
            <DistanceMeters>70370.450849196</DistanceMeters>
          </Trackpoint>
          <Trackpoint>
            <Time>2022-04-23T13:14:30.000Z</Time>
            <Position>
              <LatitudeDegrees>41.5551093779504299163818359375</LatitudeDegrees>
              <LongitudeDegrees>-0.1053844951093196868896484375</LongitudeDegrees>
            </Position>
            <AltitudeMeters>345</AltitudeMeters>
            <DistanceMeters>70387.453197187</DistanceMeters>
          </Trackpoint>
          <Trackpoint>
            <Time>2022-04-23T13:14:35.000Z</Time>
            <Position>
              <LatitudeDegrees>41.55538380146026611328125</LatitudeDegrees>
              <LongitudeDegrees>-0.10556034743785858154296875</LongitudeDegrees>
            </Position>
            <AltitudeMeters>344</AltitudeMeters>
            <DistanceMeters>70421.32725531</DistanceMeters>
          </Trackpoint>
          <Trackpoint>
            <Time>2022-04-23T13:14:36.000Z</Time>
            <Position>
              <LatitudeDegrees>41.5554386191070079803466796875</LatitudeDegrees>
              <LongitudeDegrees>-0.10559521615505218505859375</LongitudeDegrees>
            </Position>
            <AltitudeMeters>344</AltitudeMeters>
            <DistanceMeters>70428.084182608</DistanceMeters>
          </Trackpoint>
          <Trackpoint>
            <Time>2022-04-23T13:14:40.000Z</Time>
            <Position>
              <LatitudeDegrees>41.5556468255817890167236328125</LatitudeDegrees>
              <LongitudeDegrees>-0.10575925000011920928955078125</LongitudeDegrees>
            </Position>
            <AltitudeMeters>343</AltitudeMeters>
            <DistanceMeters>70454.985303889</DistanceMeters>
          </Trackpoint>
          <Trackpoint>
            <Time>2022-04-23T13:14:43.000Z</Time>
            <Position>
              <LatitudeDegrees>41.55578521080315113067626953125</LatitudeDegrees>
              <LongitudeDegrees>-0.10589838959276676177978515625</LongitudeDegrees>
            </Position>
            <AltitudeMeters>342.20001220703125</AltitudeMeters>
            <DistanceMeters>70474.260507266</DistanceMeters>
          </Trackpoint>
          <Trackpoint>
            <Time>2022-04-23T13:14:44.000Z</Time>
            <Position>
              <LatitudeDegrees>41.55582343228161334991455078125</LatitudeDegrees>
              <LongitudeDegrees>-0.10594499297440052032470703125</LongitudeDegrees>
            </Position>
            <AltitudeMeters>341.79998779296875</AltitudeMeters>
            <DistanceMeters>70480.020411853</DistanceMeters>
          </Trackpoint>
          <Trackpoint>
            <Time>2022-04-23T13:14:47.000Z</Time>
            <Position>
              <LatitudeDegrees>41.5559281222522258758544921875</LatitudeDegrees>
              <LongitudeDegrees>-0.1060895808041095733642578125</LongitudeDegrees>
            </Position>
            <AltitudeMeters>340.79998779296875</AltitudeMeters>
            <DistanceMeters>70496.777477739</DistanceMeters>
          </Trackpoint>
          <Trackpoint>
            <Time>2022-04-23T13:14:48.000Z</Time>
            <Position>
              <LatitudeDegrees>41.55596290715038776397705078125</LatitudeDegrees>
              <LongitudeDegrees>-0.1061422191560268402099609375</LongitudeDegrees>
            </Position>
            <AltitudeMeters>340.600006103515625</AltitudeMeters>
            <DistanceMeters>70502.626061292</DistanceMeters>
          </Trackpoint>
          <Trackpoint>
            <Time>2022-04-23T13:14:49.000Z</Time>
            <Position>
              <LatitudeDegrees>41.5559955127537250518798828125</LatitudeDegrees>
              <LongitudeDegrees>-0.10619477368891239166259765625</LongitudeDegrees>
            </Position>
            <AltitudeMeters>340.20001220703125</AltitudeMeters>
            <DistanceMeters>70508.31180431</DistanceMeters>
          </Trackpoint>
          <Trackpoint>
            <Time>2022-04-23T13:14:52.000Z</Time>
            <Position>
              <LatitudeDegrees>41.55608125962316989898681640625</LatitudeDegrees>
              <LongitudeDegrees>-0.10635570622980594635009765625</LongitudeDegrees>
            </Position>
            <AltitudeMeters>339.600006103515625</AltitudeMeters>
            <DistanceMeters>70524.765975572</DistanceMeters>
          </Trackpoint>
          <Trackpoint>
            <Time>2022-04-23T13:14:55.000Z</Time>
            <Position>
              <LatitudeDegrees>41.5561551041901111602783203125</LatitudeDegrees>
              <LongitudeDegrees>-0.106496103107929229736328125</LongitudeDegrees>
            </Position>
            <AltitudeMeters>339.600006103515625</AltitudeMeters>
            <DistanceMeters>70539.058574682</DistanceMeters>
          </Trackpoint>
          <Trackpoint>
            <Time>2022-04-23T13:15:00.000Z</Time>
            <Position>
              <LatitudeDegrees>41.55625761486589908599853515625</LatitudeDegrees>
              <LongitudeDegrees>-0.1067028008401393890380859375</LongitudeDegrees>
            </Position>
            <AltitudeMeters>340.20001220703125</AltitudeMeters>
            <DistanceMeters>70559.711533088</DistanceMeters>
          </Trackpoint>
          <Trackpoint>
            <Time>2022-04-23T13:15:01.000Z</Time>
            <Position>
              <LatitudeDegrees>41.5562771447002887725830078125</LatitudeDegrees>
              <LongitudeDegrees>-0.10674244724214076995849609375</LongitudeDegrees>
            </Position>
            <AltitudeMeters>340.399993896484375</AltitudeMeters>
            <DistanceMeters>70563.664004751</DistanceMeters>
          </Trackpoint>
          <Trackpoint>
            <Time>2022-04-23T13:15:04.000Z</Time>
            <Position>
              <LatitudeDegrees>41.55633506365120410919189453125</LatitudeDegrees>
              <LongitudeDegrees>-0.1068610511720180511474609375</LongitudeDegrees>
            </Position>
            <AltitudeMeters>340.79998779296875</AltitudeMeters>
            <DistanceMeters>70575.459572472</DistanceMeters>
          </Trackpoint>
          <Trackpoint>
            <Time>2022-04-23T13:15:07.000Z</Time>
            <Position>
              <LatitudeDegrees>41.55640178360044956207275390625</LatitudeDegrees>
              <LongitudeDegrees>-0.106969512999057769775390625</LongitudeDegrees>
            </Position>
            <AltitudeMeters>341.20001220703125</AltitudeMeters>
            <DistanceMeters>70587.153651216</DistanceMeters>
          </Trackpoint>
          <Trackpoint>
            <Time>2022-04-23T13:15:08.000Z</Time>
            <Position>
              <LatitudeDegrees>41.556421481072902679443359375</LatitudeDegrees>
              <LongitudeDegrees>-0.10700664483010768890380859375</LongitudeDegrees>
            </Position>
            <AltitudeMeters>341.79998779296875</AltitudeMeters>
            <DistanceMeters>70590.944014209</DistanceMeters>
          </Trackpoint>
          <Trackpoint>
            <Time>2022-04-23T13:15:11.000Z</Time>
            <Position>
              <LatitudeDegrees>41.5564746223390102386474609375</LatitudeDegrees>
              <LongitudeDegrees>-0.10712734423577785491943359375</LongitudeDegrees>
            </Position>
            <AltitudeMeters>342.399993896484375</AltitudeMeters>
            <DistanceMeters>70602.607938579</DistanceMeters>
          </Trackpoint>
          <Trackpoint>
            <Time>2022-04-23T13:15:12.000Z</Time>
            <Position>
              <LatitudeDegrees>41.55648887157440185546875</LatitudeDegrees>
              <LongitudeDegrees>-0.1071658171713352203369140625</LongitudeDegrees>
            </Position>
            <AltitudeMeters>342.79998779296875</AltitudeMeters>
            <DistanceMeters>70606.183772502</DistanceMeters>
          </Trackpoint>
          <Trackpoint>
            <Time>2022-04-23T13:15:14.000Z</Time>
            <Position>
              <LatitudeDegrees>41.55652265064418315887451171875</LatitudeDegrees>
              <LongitudeDegrees>-0.1072387397289276123046875</LongitudeDegrees>
            </Position>
            <AltitudeMeters>343.20001220703125</AltitudeMeters>
            <DistanceMeters>70613.326596307</DistanceMeters>
          </Trackpoint>
          <Trackpoint>
            <Time>2022-04-23T13:15:15.000Z</Time>
            <Position>
              <LatitudeDegrees>41.55654159374535083770751953125</LatitudeDegrees>
              <LongitudeDegrees>-0.10727318935096263885498046875</LongitudeDegrees>
            </Position>
            <AltitudeMeters>344</AltitudeMeters>
            <DistanceMeters>70616.887246153</DistanceMeters>
          </Trackpoint>
          <Trackpoint>
            <Time>2022-04-23T13:15:17.000Z</Time>
            <Position>
              <LatitudeDegrees>41.5565812401473522186279296875</LatitudeDegrees>
              <LongitudeDegrees>-0.1073448546230792999267578125</LongitudeDegrees>
            </Position>
            <AltitudeMeters>345</AltitudeMeters>
            <DistanceMeters>70624.310286397</DistanceMeters>
          </Trackpoint>
          <Trackpoint>
            <Time>2022-04-23T13:15:20.000Z</Time>
            <Position>
              <LatitudeDegrees>41.55662189237773418426513671875</LatitudeDegrees>
              <LongitudeDegrees>-0.10747100226581096649169921875</LongitudeDegrees>
            </Position>
            <AltitudeMeters>346.20001220703125</AltitudeMeters>
            <DistanceMeters>70635.749861032</DistanceMeters>
          </Trackpoint>
          <Trackpoint>
            <Time>2022-04-23T13:15:22.000Z</Time>
            <Position>
              <LatitudeDegrees>41.5566375665366649627685546875</LatitudeDegrees>
              <LongitudeDegrees>-0.10755716823041439056396484375</LongitudeDegrees>
            </Position>
            <AltitudeMeters>347</AltitudeMeters>
            <DistanceMeters>70643.13509371</DistanceMeters>
          </Trackpoint>
          <Trackpoint>
            <Time>2022-04-23T13:15:24.000Z</Time>
            <Position>
              <LatitudeDegrees>41.55665944330394268035888671875</LatitudeDegrees>
              <LongitudeDegrees>-0.107640735805034637451171875</LongitudeDegrees>
            </Position>
            <AltitudeMeters>347.399993896484375</AltitudeMeters>
            <DistanceMeters>70650.509313693</DistanceMeters>
          </Trackpoint>
          <Trackpoint>
            <Time>2022-04-23T13:15:27.000Z</Time>
            <Position>
              <LatitudeDegrees>41.5566871874034404754638671875</LatitudeDegrees>
              <LongitudeDegrees>-0.10777719318866729736328125</LongitudeDegrees>
            </Position>
            <AltitudeMeters>348.399993896484375</AltitudeMeters>
            <DistanceMeters>70662.286493923</DistanceMeters>
          </Trackpoint>
          <Trackpoint>
            <Time>2022-04-23T13:15:31.000Z</Time>
            <Position>
              <LatitudeDegrees>41.5567133389413356781005859375</LatitudeDegrees>
              <LongitudeDegrees>-0.107981376349925994873046875</LongitudeDegrees>
            </Position>
            <AltitudeMeters>349</AltitudeMeters>
            <DistanceMeters>70679.539535391</DistanceMeters>
          </Trackpoint>
          <Trackpoint>
            <Time>2022-04-23T13:15:33.000Z</Time>
            <Position>
              <LatitudeDegrees>41.556719876825809478759765625</LatitudeDegrees>
              <LongitudeDegrees>-0.10808958671987056732177734375</LongitudeDegrees>
            </Position>
            <AltitudeMeters>349.399993896484375</AltitudeMeters>
            <DistanceMeters>70688.580566968</DistanceMeters>
          </Trackpoint>
          <Trackpoint>
            <Time>2022-04-23T13:15:37.000Z</Time>
            <Position>
              <LatitudeDegrees>41.5567233972251415252685546875</LatitudeDegrees>
              <LongitudeDegrees>-0.108318328857421875</LongitudeDegrees>
            </Position>
            <AltitudeMeters>349.79998779296875</AltitudeMeters>
            <DistanceMeters>70707.635733559</DistanceMeters>
          </Trackpoint>
          <Trackpoint>
            <Time>2022-04-23T13:15:38.000Z</Time>
            <Position>
              <LatitudeDegrees>41.55672314576804637908935546875</LatitudeDegrees>
              <LongitudeDegrees>-0.1083808578550815582275390625</LongitudeDegrees>
            </Position>
            <AltitudeMeters>349.600006103515625</AltitudeMeters>
            <DistanceMeters>70712.844029791</DistanceMeters>
          </Trackpoint>
          <Trackpoint>
            <Time>2022-04-23T13:15:44.000Z</Time>
            <Position>
              <LatitudeDegrees>41.5567074716091156005859375</LatitudeDegrees>
              <LongitudeDegrees>-0.1087971031665802001953125</LongitudeDegrees>
            </Position>
            <AltitudeMeters>348.79998779296875</AltitudeMeters>
            <DistanceMeters>70747.555716008</DistanceMeters>
          </Trackpoint>
          <Trackpoint>
            <Time>2022-04-23T13:15:47.000Z</Time>
            <Position>
              <LatitudeDegrees>41.5566940605640411376953125</LatitudeDegrees>
              <LongitudeDegrees>-0.10905367322266101837158203125</LongitudeDegrees>
            </Position>
            <AltitudeMeters>348.399993896484375</AltitudeMeters>
            <DistanceMeters>70768.97660078</DistanceMeters>
          </Trackpoint>
          <Trackpoint>
            <Time>2022-04-23T13:15:48.000Z</Time>
            <Position>
              <LatitudeDegrees>41.556686349213123321533203125</LatitudeDegrees>
              <LongitudeDegrees>-0.10914654470980167388916015625</LongitudeDegrees>
            </Position>
            <AltitudeMeters>348.20001220703125</AltitudeMeters>
            <DistanceMeters>70776.759514938</DistanceMeters>
          </Trackpoint>
          <Trackpoint>
            <Time>2022-04-23T13:15:49.000Z</Time>
            <Position>
              <LatitudeDegrees>41.5566791407763957977294921875</LatitudeDegrees>
              <LongitudeDegrees>-0.10924427770078182220458984375</LongitudeDegrees>
            </Position>
            <AltitudeMeters>347.600006103515625</AltitudeMeters>
            <DistanceMeters>70784.93954345</DistanceMeters>
          </Trackpoint>
          <Trackpoint>
            <Time>2022-04-23T13:15:50.000Z</Time>
            <Position>
              <LatitudeDegrees>41.5566720999777317047119140625</LatitudeDegrees>
              <LongitudeDegrees>-0.1093444414436817169189453125</LongitudeDegrees>
            </Position>
            <AltitudeMeters>347</AltitudeMeters>
            <DistanceMeters>70793.318076393</DistanceMeters>
          </Trackpoint>
          <Trackpoint>
            <Time>2022-04-23T13:15:52.000Z</Time>
            <Position>
              <LatitudeDegrees>41.55666053295135498046875</LatitudeDegrees>
              <LongitudeDegrees>-0.1095415838062763214111328125</LongitudeDegrees>
            </Position>
            <AltitudeMeters>345.79998779296875</AltitudeMeters>
            <DistanceMeters>70809.787881076</DistanceMeters>
          </Trackpoint>
          <Trackpoint>
            <Time>2022-04-23T13:15:55.000Z</Time>
            <Position>
              <LatitudeDegrees>41.55664335004985332489013671875</LatitudeDegrees>
              <LongitudeDegrees>-0.109840817749500274658203125</LongitudeDegrees>
            </Position>
            <AltitudeMeters>344.600006103515625</AltitudeMeters>
            <DistanceMeters>70834.783339243</DistanceMeters>
          </Trackpoint>
          <Trackpoint>
            <Time>2022-04-23T13:15:57.000Z</Time>
            <Position>
              <LatitudeDegrees>41.5566332079470157623291015625</LatitudeDegrees>
              <LongitudeDegrees>-0.11004039086401462554931640625</LongitudeDegrees>
            </Position>
            <AltitudeMeters>343.399993896484375</AltitudeMeters>
            <DistanceMeters>70851.443124043</DistanceMeters>
          </Trackpoint>
          <Trackpoint>
            <Time>2022-04-23T13:16:00.000Z</Time>
            <Position>
              <LatitudeDegrees>41.55662524513900279998779296875</LatitudeDegrees>
              <LongitudeDegrees>-0.11033643968403339385986328125</LongitudeDegrees>
            </Position>
            <AltitudeMeters>342.20001220703125</AltitudeMeters>
            <DistanceMeters>70876.116056042</DistanceMeters>
          </Trackpoint>
          <Trackpoint>
            <Time>2022-04-23T13:16:04.000Z</Time>
            <Position>
              <LatitudeDegrees>41.55663178302347660064697265625</LatitudeDegrees>
              <LongitudeDegrees>-0.11068898253142833709716796875</LongitudeDegrees>
            </Position>
            <AltitudeMeters>341.399993896484375</AltitudeMeters>
            <DistanceMeters>70905.487459191</DistanceMeters>
          </Trackpoint>
          <Trackpoint>
            <Time>2022-04-23T13:16:11.000Z</Time>
            <Position>
              <LatitudeDegrees>41.5566620416939258575439453125</LatitudeDegrees>
              <LongitudeDegrees>-0.11120731942355632781982421875</LongitudeDegrees>
            </Position>
            <AltitudeMeters>341.600006103515625</AltitudeMeters>
            <DistanceMeters>70948.789517842</DistanceMeters>
          </Trackpoint>
          <Trackpoint>
            <Time>2022-04-23T13:16:17.000Z</Time>
            <Position>
              <LatitudeDegrees>41.55673186294734477996826171875</LatitudeDegrees>
              <LongitudeDegrees>-0.111601017415523529052734375</LongitudeDegrees>
            </Position>
            <AltitudeMeters>342</AltitudeMeters>
            <DistanceMeters>70982.487711163</DistanceMeters>
          </Trackpoint>
          <Trackpoint>
            <Time>2022-04-23T13:16:26.000Z</Time>
            <Position>
              <LatitudeDegrees>41.55686362646520137786865234375</LatitudeDegrees>
              <LongitudeDegrees>-0.11217861436307430267333984375</LongitudeDegrees>
            </Position>
            <AltitudeMeters>341.399993896484375</AltitudeMeters>
            <DistanceMeters>71032.779831041</DistanceMeters>
          </Trackpoint>
          <Trackpoint>
            <Time>2022-04-23T13:16:27.000Z</Time>
            <Position>
              <LatitudeDegrees>41.55687971971929073333740234375</LatitudeDegrees>
              <LongitudeDegrees>-0.1122402213513851165771484375</LongitudeDegrees>
            </Position>
            <AltitudeMeters>341.399993896484375</AltitudeMeters>
            <DistanceMeters>71038.215492005</DistanceMeters>
          </Trackpoint>
          <Trackpoint>
            <Time>2022-04-23T13:16:34.000Z</Time>
            <Position>
              <LatitudeDegrees>41.556985415518283843994140625</LatitudeDegrees>
              <LongitudeDegrees>-0.1126630045473575592041015625</LongitudeDegrees>
            </Position>
            <AltitudeMeters>340.600006103515625</AltitudeMeters>
            <DistanceMeters>71075.341031975</DistanceMeters>
          </Trackpoint>
          <Trackpoint>
            <Time>2022-04-23T13:16:43.000Z</Time>
            <Position>
              <LatitudeDegrees>41.55711449682712554931640625</LatitudeDegrees>
              <LongitudeDegrees>-0.1132031343877315521240234375</LongitudeDegrees>
            </Position>
            <AltitudeMeters>341</AltitudeMeters>
            <DistanceMeters>71122.565198024</DistanceMeters>
          </Trackpoint>
          <Trackpoint>
            <Time>2022-04-23T13:16:44.000Z</Time>
            <Position>
              <LatitudeDegrees>41.557127572596073150634765625</LatitudeDegrees>
              <LongitudeDegrees>-0.11325954459607601165771484375</LongitudeDegrees>
            </Position>
            <AltitudeMeters>341</AltitudeMeters>
            <DistanceMeters>71127.483691167</DistanceMeters>
          </Trackpoint>
          <Trackpoint>
            <Time>2022-04-23T13:16:53.000Z</Time>
            <Position>
              <LatitudeDegrees>41.557242907583713531494140625</LatitudeDegrees>
              <LongitudeDegrees>-0.11378173716366291046142578125</LongitudeDegrees>
            </Position>
            <AltitudeMeters>341.399993896484375</AltitudeMeters>
            <DistanceMeters>71172.830256061</DistanceMeters>
          </Trackpoint>
          <Trackpoint>
            <Time>2022-04-23T13:17:02.000Z</Time>
            <Position>
              <LatitudeDegrees>41.55734625644981861114501953125</LatitudeDegrees>
              <LongitudeDegrees>-0.11430644430220127105712890625</LongitudeDegrees>
            </Position>
            <AltitudeMeters>341</AltitudeMeters>
            <DistanceMeters>71218.019830161</DistanceMeters>
          </Trackpoint>
          <Trackpoint>
            <Time>2022-04-23T13:17:04.000Z</Time>
            <Position>
              <LatitudeDegrees>41.55736721120774745941162109375</LatitudeDegrees>
              <LongitudeDegrees>-0.11440937407314777374267578125</LongitudeDegrees>
            </Position>
            <AltitudeMeters>341.20001220703125</AltitudeMeters>
            <DistanceMeters>71226.903684511</DistanceMeters>
          </Trackpoint>
          <Trackpoint>
            <Time>2022-04-23T13:17:12.000Z</Time>
            <Position>
              <LatitudeDegrees>41.55746159143745899200439453125</LatitudeDegrees>
              <LongitudeDegrees>-0.1148684509098529815673828125</LongitudeDegrees>
            </Position>
            <AltitudeMeters>341.600006103515625</AltitudeMeters>
            <DistanceMeters>71266.555338952</DistanceMeters>
          </Trackpoint>
          <Trackpoint>
            <Time>2022-04-23T13:17:22.000Z</Time>
            <Position>
              <LatitudeDegrees>41.5575880743563175201416015625</LatitudeDegrees>
              <LongitudeDegrees>-0.1154330559074878692626953125</LongitudeDegrees>
            </Position>
            <AltitudeMeters>342</AltitudeMeters>
            <DistanceMeters>71315.641213264</DistanceMeters>
          </Trackpoint>
          <Trackpoint>
            <Time>2022-04-23T13:17:25.000Z</Time>
            <Position>
              <LatitudeDegrees>41.55762813985347747802734375</LatitudeDegrees>
              <LongitudeDegrees>-0.11559641920030117034912109375</LongitudeDegrees>
            </Position>
            <AltitudeMeters>342.20001220703125</AltitudeMeters>
            <DistanceMeters>71329.959062105</DistanceMeters>
          </Trackpoint>
          <Trackpoint>
            <Time>2022-04-23T13:17:29.000Z</Time>
            <Position>
              <LatitudeDegrees>41.55765906907618045806884765625</LatitudeDegrees>
              <LongitudeDegrees>-0.11582708917558193206787109375</LongitudeDegrees>
            </Position>
            <AltitudeMeters>342.399993896484375</AltitudeMeters>
            <DistanceMeters>71349.476818248</DistanceMeters>
          </Trackpoint>
          <Trackpoint>
            <Time>2022-04-23T13:17:30.000Z</Time>
            <Position>
              <LatitudeDegrees>41.55766493640840053558349609375</LatitudeDegrees>
              <LongitudeDegrees>-0.1158829964697360992431640625</LongitudeDegrees>
            </Position>
            <AltitudeMeters>342.600006103515625</AltitudeMeters>
            <DistanceMeters>71354.178480415</DistanceMeters>
          </Trackpoint>
          <Trackpoint>
            <Time>2022-04-23T13:17:36.000Z</Time>
            <Position>
              <LatitudeDegrees>41.55770726501941680908203125</LatitudeDegrees>
              <LongitudeDegrees>-0.11621676385402679443359375</LongitudeDegrees>
            </Position>
            <AltitudeMeters>343.399993896484375</AltitudeMeters>
            <DistanceMeters>71382.372924184</DistanceMeters>
          </Trackpoint>
          <Trackpoint>
            <Time>2022-04-23T13:17:39.000Z</Time>
            <Position>
              <LatitudeDegrees>41.5577144734561443328857421875</LatitudeDegrees>
              <LongitudeDegrees>-0.1163916103541851043701171875</LongitudeDegrees>
            </Position>
            <AltitudeMeters>343.79998779296875</AltitudeMeters>
            <DistanceMeters>71396.956970967</DistanceMeters>
          </Trackpoint>
          <Trackpoint>
            <Time>2022-04-23T13:17:49.000Z</Time>
            <Position>
              <LatitudeDegrees>41.557733081281185150146484375</LatitudeDegrees>
              <LongitudeDegrees>-0.1169739849865436553955078125</LongitudeDegrees>
            </Position>
            <AltitudeMeters>344.20001220703125</AltitudeMeters>
            <DistanceMeters>71445.504741999</DistanceMeters>
          </Trackpoint>
          <Trackpoint>
            <Time>2022-04-23T13:17:57.000Z</Time>
            <Position>
              <LatitudeDegrees>41.557789742946624755859375</LatitudeDegrees>
              <LongitudeDegrees>-0.1174346543848514556884765625</LongitudeDegrees>
            </Position>
            <AltitudeMeters>344.20001220703125</AltitudeMeters>
            <DistanceMeters>71484.386812395</DistanceMeters>
          </Trackpoint>
          <Trackpoint>
            <Time>2022-04-23T13:17:58.000Z</Time>
            <Position>
              <LatitudeDegrees>41.5578036569058895111083984375</LatitudeDegrees>
              <LongitudeDegrees>-0.11749307624995708465576171875</LongitudeDegrees>
            </Position>
            <AltitudeMeters>344.20001220703125</AltitudeMeters>
            <DistanceMeters>71489.492674779</DistanceMeters>
          </Trackpoint>
          <Trackpoint>
            <Time>2022-04-23T13:18:07.000Z</Time>
            <Position>
              <LatitudeDegrees>41.55788621865212917327880859375</LatitudeDegrees>
              <LongitudeDegrees>-0.1180180348455905914306640625</LongitudeDegrees>
            </Position>
            <AltitudeMeters>344.600006103515625</AltitudeMeters>
            <DistanceMeters>71534.169583327</DistanceMeters>
          </Trackpoint>
          <Trackpoint>
            <Time>2022-04-23T13:18:16.000Z</Time>
            <Position>
              <LatitudeDegrees>41.55788001604378223419189453125</LatitudeDegrees>
              <LongitudeDegrees>-0.11860937811434268951416015625</LongitudeDegrees>
            </Position>
            <AltitudeMeters>345.20001220703125</AltitudeMeters>
            <DistanceMeters>71583.42487287</DistanceMeters>
          </Trackpoint>
          <Trackpoint>
            <Time>2022-04-23T13:18:23.000Z</Time>
            <Position>
              <LatitudeDegrees>41.5578405372798442840576171875</LatitudeDegrees>
              <LongitudeDegrees>-0.11905496008694171905517578125</LongitudeDegrees>
            </Position>
            <AltitudeMeters>345.600006103515625</AltitudeMeters>
            <DistanceMeters>71620.794664441</DistanceMeters>
          </Trackpoint>
          <Trackpoint>
            <Time>2022-04-23T13:18:25.000Z</Time>
            <Position>
              <LatitudeDegrees>41.5578277967870235443115234375</LatitudeDegrees>
              <LongitudeDegrees>-0.119183957576751708984375</LongitudeDegrees>
            </Position>
            <AltitudeMeters>345.600006103515625</AltitudeMeters>
            <DistanceMeters>71631.631460284</DistanceMeters>
          </Trackpoint>
          <Trackpoint>
            <Time>2022-04-23T13:18:34.000Z</Time>
            <Position>
              <LatitudeDegrees>41.55777323059737682342529296875</LatitudeDegrees>
              <LongitudeDegrees>-0.11974428780376911163330078125</LongitudeDegrees>
            </Position>
            <AltitudeMeters>346</AltitudeMeters>
            <DistanceMeters>71678.692619099</DistanceMeters>
          </Trackpoint>
          <Trackpoint>
            <Time>2022-04-23T13:18:43.000Z</Time>
            <Position>
              <LatitudeDegrees>41.55771908350288867950439453125</LatitudeDegrees>
              <LongitudeDegrees>-0.1203103177249431610107421875</LongitudeDegrees>
            </Position>
            <AltitudeMeters>346</AltitudeMeters>
            <DistanceMeters>71726.218613156</DistanceMeters>
          </Trackpoint>
          <Trackpoint>
            <Time>2022-04-23T13:18:48.000Z</Time>
            <Position>
              <LatitudeDegrees>41.5576956979930400848388671875</LatitudeDegrees>
              <LongitudeDegrees>-0.1206363737583160400390625</LongitudeDegrees>
            </Position>
            <AltitudeMeters>346.20001220703125</AltitudeMeters>
            <DistanceMeters>71753.498894499</DistanceMeters>
          </Trackpoint>
          <Trackpoint>
            <Time>2022-04-23T13:18:52.000Z</Time>
            <Position>
              <LatitudeDegrees>41.55767667107284069061279296875</LatitudeDegrees>
              <LongitudeDegrees>-0.120886154472827911376953125</LongitudeDegrees>
            </Position>
            <AltitudeMeters>346.399993896484375</AltitudeMeters>
            <DistanceMeters>71774.409738376</DistanceMeters>
          </Trackpoint>
          <Trackpoint>
            <Time>2022-04-23T13:18:55.000Z</Time>
            <Position>
              <LatitudeDegrees>41.5576675347983837127685546875</LatitudeDegrees>
              <LongitudeDegrees>-0.1210640184581279754638671875</LongitudeDegrees>
            </Position>
            <AltitudeMeters>346.600006103515625</AltitudeMeters>
            <DistanceMeters>71789.257947574</DistanceMeters>
          </Trackpoint>
          <Trackpoint>
            <Time>2022-04-23T13:19:00.000Z</Time>
            <Position>
              <LatitudeDegrees>41.5576460771262645721435546875</LatitudeDegrees>
              <LongitudeDegrees>-0.12135964818298816680908203125</LongitudeDegrees>
            </Position>
            <AltitudeMeters>347</AltitudeMeters>
            <DistanceMeters>71813.995210161</DistanceMeters>
          </Trackpoint>
          <Trackpoint>
            <Time>2022-04-23T13:19:05.000Z</Time>
            <Position>
              <LatitudeDegrees>41.55762135051190853118896484375</LatitudeDegrees>
              <LongitudeDegrees>-0.12166508473455905914306640625</LongitudeDegrees>
            </Position>
            <AltitudeMeters>347.600006103515625</AltitudeMeters>
            <DistanceMeters>71839.582288977</DistanceMeters>
          </Trackpoint>
          <Trackpoint>
            <Time>2022-04-23T13:19:08.000Z</Time>
            <Position>
              <LatitudeDegrees>41.55761246569454669952392578125</LatitudeDegrees>
              <LongitudeDegrees>-0.12184848077595233917236328125</LongitudeDegrees>
            </Position>
            <AltitudeMeters>347.79998779296875</AltitudeMeters>
            <DistanceMeters>71854.888966063</DistanceMeters>
          </Trackpoint>
          <Trackpoint>
            <Time>2022-04-23T13:19:17.000Z</Time>
            <Position>
              <LatitudeDegrees>41.55763107351958751678466796875</LatitudeDegrees>
              <LongitudeDegrees>-0.12241543270647525787353515625</LongitudeDegrees>
            </Position>
            <AltitudeMeters>348.79998779296875</AltitudeMeters>
            <DistanceMeters>71902.153557264</DistanceMeters>
          </Trackpoint>
          <Trackpoint>
            <Time>2022-04-23T13:19:23.000Z</Time>
            <Position>
              <LatitudeDegrees>41.55765496194362640380859375</LatitudeDegrees>
              <LongitudeDegrees>-0.12279488146305084228515625</LongitudeDegrees>
            </Position>
            <AltitudeMeters>348.79998779296875</AltitudeMeters>
            <DistanceMeters>71933.868002469</DistanceMeters>
          </Trackpoint>
          <Trackpoint>
            <Time>2022-04-23T13:19:31.000Z</Time>
            <Position>
              <LatitudeDegrees>41.55766879208385944366455078125</LatitudeDegrees>
              <LongitudeDegrees>-0.123310200870037078857421875</LongitudeDegrees>
            </Position>
            <AltitudeMeters>348.79998779296875</AltitudeMeters>
            <DistanceMeters>71976.814610878</DistanceMeters>
          </Trackpoint>
          <Trackpoint>
            <Time>2022-04-23T13:19:34.000Z</Time>
            <Position>
              <LatitudeDegrees>41.5576792694628238677978515625</LatitudeDegrees>
              <LongitudeDegrees>-0.1234954409301280975341796875</LongitudeDegrees>
            </Position>
            <AltitudeMeters>349</AltitudeMeters>
            <DistanceMeters>71992.286465855</DistanceMeters>
          </Trackpoint>
          <Trackpoint>
            <Time>2022-04-23T13:19:43.000Z</Time>
            <Position>
              <LatitudeDegrees>41.55770114623010158538818359375</LatitudeDegrees>
              <LongitudeDegrees>-0.12405107729136943817138671875</LongitudeDegrees>
            </Position>
            <AltitudeMeters>349.600006103515625</AltitudeMeters>
            <DistanceMeters>72038.627166533</DistanceMeters>
          </Trackpoint>
          <Trackpoint>
            <Time>2022-04-23T13:19:45.000Z</Time>
            <Position>
              <LatitudeDegrees>41.55770584009587764739990234375</LatitudeDegrees>
              <LongitudeDegrees>-0.1241723634302616119384765625</LongitudeDegrees>
            </Position>
            <AltitudeMeters>349.79998779296875</AltitudeMeters>
            <DistanceMeters>72048.742044986</DistanceMeters>
          </Trackpoint>
          <Trackpoint>
            <Time>2022-04-23T13:19:52.000Z</Time>
            <Position>
              <LatitudeDegrees>41.55771355144679546356201171875</LatitudeDegrees>
              <LongitudeDegrees>-0.124578885734081268310546875</LongitudeDegrees>
            </Position>
            <AltitudeMeters>350.600006103515625</AltitudeMeters>
            <DistanceMeters>72082.610504509</DistanceMeters>
          </Trackpoint>
          <Trackpoint>
            <Time>2022-04-23T13:19:54.000Z</Time>
            <Position>
              <LatitudeDegrees>41.557716317474842071533203125</LatitudeDegrees>
              <LongitudeDegrees>-0.124685503542423248291015625</LongitudeDegrees>
            </Position>
            <AltitudeMeters>351.20001220703125</AltitudeMeters>
            <DistanceMeters>72091.495375261</DistanceMeters>
          </Trackpoint>
          <Trackpoint>
            <Time>2022-04-23T13:20:02.000Z</Time>
            <Position>
              <LatitudeDegrees>41.5577312372624874114990234375</LatitudeDegrees>
              <LongitudeDegrees>-0.1251317560672760009765625</LongitudeDegrees>
            </Position>
            <AltitudeMeters>352</AltitudeMeters>
            <DistanceMeters>72128.699031764</DistanceMeters>
          </Trackpoint>
          <Trackpoint>
            <Time>2022-04-23T13:20:12.000Z</Time>
            <Position>
              <LatitudeDegrees>41.55774347484111785888671875</LatitudeDegrees>
              <LongitudeDegrees>-0.12570298276841640472412109375</LongitudeDegrees>
            </Position>
            <AltitudeMeters>352</AltitudeMeters>
            <DistanceMeters>72176.29375717</DistanceMeters>
          </Trackpoint>
          <Trackpoint>
            <Time>2022-04-23T13:20:22.000Z</Time>
            <Position>
              <LatitudeDegrees>41.557761915028095245361328125</LatitudeDegrees>
              <LongitudeDegrees>-0.12631301768124103546142578125</LongitudeDegrees>
            </Position>
            <AltitudeMeters>352.20001220703125</AltitudeMeters>
            <DistanceMeters>72227.142551142</DistanceMeters>
          </Trackpoint>
          <Trackpoint>
            <Time>2022-04-23T13:20:23.000Z</Time>
            <Position>
              <LatitudeDegrees>41.55776250176131725311279296875</LatitudeDegrees>
              <LongitudeDegrees>-0.12637521140277385711669921875</LongitudeDegrees>
            </Position>
            <AltitudeMeters>352.20001220703125</AltitudeMeters>
            <DistanceMeters>72232.323032509</DistanceMeters>
          </Trackpoint>
          <Trackpoint>
            <Time>2022-04-23T13:20:31.000Z</Time>
            <Position>
              <LatitudeDegrees>41.55778010375797748565673828125</LatitudeDegrees>
              <LongitudeDegrees>-0.12686655856668949127197265625</LongitudeDegrees>
            </Position>
            <AltitudeMeters>352.600006103515625</AltitudeMeters>
            <DistanceMeters>72273.292442429</DistanceMeters>
          </Trackpoint>
          <Trackpoint>
            <Time>2022-04-23T13:20:33.000Z</Time>
            <Position>
              <LatitudeDegrees>41.55778530053794384002685546875</LatitudeDegrees>
              <LongitudeDegrees>-0.126985497772693634033203125</LongitudeDegrees>
            </Position>
            <AltitudeMeters>352.600006103515625</AltitudeMeters>
            <DistanceMeters>72283.215797891</DistanceMeters>
          </Trackpoint>
          <Trackpoint>
            <Time>2022-04-23T13:20:37.000Z</Time>
            <Position>
              <LatitudeDegrees>41.55779334716498851776123046875</LatitudeDegrees>
              <LongitudeDegrees>-0.1272260583937168121337890625</LongitudeDegrees>
            </Position>
            <AltitudeMeters>352.79998779296875</AltitudeMeters>
            <DistanceMeters>72303.271162883</DistanceMeters>
          </Trackpoint>
          <Trackpoint>
            <Time>2022-04-23T13:20:44.000Z</Time>
            <Position>
              <LatitudeDegrees>41.55781379900872707366943359375</LatitudeDegrees>
              <LongitudeDegrees>-0.12764372862875461578369140625</LongitudeDegrees>
            </Position>
            <AltitudeMeters>353.20001220703125</AltitudeMeters>
            <DistanceMeters>72338.13159357</DistanceMeters>
          </Trackpoint>
          <Trackpoint>
            <Time>2022-04-23T13:20:47.000Z</Time>
            <Position>
              <LatitudeDegrees>41.557824946939945220947265625</LatitudeDegrees>
              <LongitudeDegrees>-0.1278246939182281494140625</LongitudeDegrees>
            </Position>
            <AltitudeMeters>353.600006103515625</AltitudeMeters>
            <DistanceMeters>72353.254282353</DistanceMeters>
          </Trackpoint>
          <Trackpoint>
            <Time>2022-04-23T13:20:55.000Z</Time>
            <Position>
              <LatitudeDegrees>41.5578526072204113006591796875</LatitudeDegrees>
              <LongitudeDegrees>-0.12829567305743694305419921875</LongitudeDegrees>
            </Position>
            <AltitudeMeters>354.399993896484375</AltitudeMeters>
            <DistanceMeters>72392.600735761</DistanceMeters>
          </Trackpoint>
          <Trackpoint>
            <Time>2022-04-23T13:20:58.000Z</Time>
            <Position>
              <LatitudeDegrees>41.5578650124371051788330078125</LatitudeDegrees>
              <LongitudeDegrees>-0.128473453223705291748046875</LongitudeDegrees>
            </Position>
            <AltitudeMeters>354.79998779296875</AltitudeMeters>
            <DistanceMeters>72407.471733445</DistanceMeters>
          </Trackpoint>
          <Trackpoint>
            <Time>2022-04-23T13:21:01.000Z</Time>
            <Position>
              <LatitudeDegrees>41.55788504518568515777587890625</LatitudeDegrees>
              <LongitudeDegrees>-0.1286493055522441864013671875</LongitudeDegrees>
            </Position>
            <AltitudeMeters>355</AltitudeMeters>
            <DistanceMeters>72422.286760885</DistanceMeters>
          </Trackpoint>
          <Trackpoint>
            <Time>2022-04-23T13:21:10.000Z</Time>
            <Position>
              <LatitudeDegrees>41.5579602308571338653564453125</LatitudeDegrees>
              <LongitudeDegrees>-0.12920075096189975738525390625</LongitudeDegrees>
            </Position>
            <AltitudeMeters>354.79998779296875</AltitudeMeters>
            <DistanceMeters>72468.970320832</DistanceMeters>
          </Trackpoint>
          <Trackpoint>
            <Time>2022-04-23T13:21:16.000Z</Time>
            <Position>
              <LatitudeDegrees>41.55801328830420970916748046875</LatitudeDegrees>
              <LongitudeDegrees>-0.12957416474819183349609375</LongitudeDegrees>
            </Position>
            <AltitudeMeters>354.600006103515625</AltitudeMeters>
            <DistanceMeters>72500.62605717</DistanceMeters>
          </Trackpoint>
          <Trackpoint>
            <Time>2022-04-23T13:21:19.000Z</Time>
            <Position>
              <LatitudeDegrees>41.5580403618514537811279296875</LatitudeDegrees>
              <LongitudeDegrees>-0.12977189384400844573974609375</LongitudeDegrees>
            </Position>
            <AltitudeMeters>354.399993896484375</AltitudeMeters>
            <DistanceMeters>72517.367488192</DistanceMeters>
          </Trackpoint>
          <Trackpoint>
            <Time>2022-04-23T13:21:21.000Z</Time>
            <Position>
              <LatitudeDegrees>41.55806056223809719085693359375</LatitudeDegrees>
              <LongitudeDegrees>-0.1299029029905796051025390625</LongitudeDegrees>
            </Position>
            <AltitudeMeters>354</AltitudeMeters>
            <DistanceMeters>72528.507926722</DistanceMeters>
          </Trackpoint>
          <Trackpoint>
            <Time>2022-04-23T13:21:24.000Z</Time>
            <Position>
              <LatitudeDegrees>41.5581057406961917877197265625</LatitudeDegrees>
              <LongitudeDegrees>-0.13009585440158843994140625</LongitudeDegrees>
            </Position>
            <AltitudeMeters>353.79998779296875</AltitudeMeters>
            <DistanceMeters>72545.346167135</DistanceMeters>
          </Trackpoint>
          <Trackpoint>
            <Time>2022-04-23T13:21:25.000Z</Time>
            <Position>
              <LatitudeDegrees>41.5581261925399303436279296875</LatitudeDegrees>
              <LongitudeDegrees>-0.1301553659141063690185546875</LongitudeDegrees>
            </Position>
            <AltitudeMeters>353.79998779296875</AltitudeMeters>
            <DistanceMeters>72550.800899198</DistanceMeters>
          </Trackpoint>
          <Trackpoint>
            <Time>2022-04-23T13:21:31.000Z</Time>
            <Position>
              <LatitudeDegrees>41.55828452669084072113037109375</LatitudeDegrees>
              <LongitudeDegrees>-0.1304990239441394805908203125</LongitudeDegrees>
            </Position>
            <AltitudeMeters>353.79998779296875</AltitudeMeters>
            <DistanceMeters>72584.412695697</DistanceMeters>
          </Trackpoint>
          <Trackpoint>
            <Time>2022-04-23T13:21:32.000Z</Time>
            <Position>
              <LatitudeDegrees>41.558318473398685455322265625</LatitudeDegrees>
              <LongitudeDegrees>-0.13054923154413700103759765625</LongitudeDegrees>
            </Position>
            <AltitudeMeters>353.79998779296875</AltitudeMeters>
            <DistanceMeters>72590.048188476</DistanceMeters>
          </Trackpoint>
          <Trackpoint>
            <Time>2022-04-23T13:21:38.000Z</Time>
            <Position>
              <LatitudeDegrees>41.5585419349372386932373046875</LatitudeDegrees>
              <LongitudeDegrees>-0.13083203695714473724365234375</LongitudeDegrees>
            </Position>
            <AltitudeMeters>354</AltitudeMeters>
            <DistanceMeters>72624.302649983</DistanceMeters>
          </Trackpoint>
          <Trackpoint>
            <Time>2022-04-23T13:21:42.000Z</Time>
            <Position>
              <LatitudeDegrees>41.5586864389479160308837890625</LatitudeDegrees>
              <LongitudeDegrees>-0.13099514879286289215087890625</LongitudeDegrees>
            </Position>
            <AltitudeMeters>354</AltitudeMeters>
            <DistanceMeters>72645.355303308</DistanceMeters>
          </Trackpoint>
          <Trackpoint>
            <Time>2022-04-23T13:21:48.000Z</Time>
            <Position>
              <LatitudeDegrees>41.55888785608112812042236328125</LatitudeDegrees>
              <LongitudeDegrees>-0.13121726922690868377685546875</LongitudeDegrees>
            </Position>
            <AltitudeMeters>354.399993896484375</AltitudeMeters>
            <DistanceMeters>72674.420587438</DistanceMeters>
          </Trackpoint>
          <Trackpoint>
            <Time>2022-04-23T13:21:50.000Z</Time>
            <Position>
              <LatitudeDegrees>41.55895390547811985015869140625</LatitudeDegrees>
              <LongitudeDegrees>-0.131260268390178680419921875</LongitudeDegrees>
            </Position>
            <AltitudeMeters>355</AltitudeMeters>
            <DistanceMeters>72682.598407816</DistanceMeters>
          </Trackpoint>
          <Trackpoint>
            <Time>2022-04-23T13:21:53.000Z</Time>
            <Position>
              <LatitudeDegrees>41.55906069092452526092529296875</LatitudeDegrees>
              <LongitudeDegrees>-0.131238140165805816650390625</LongitudeDegrees>
            </Position>
            <AltitudeMeters>355.399993896484375</AltitudeMeters>
            <DistanceMeters>72694.62595223</DistanceMeters>
          </Trackpoint>
          <Trackpoint>
            <Time>2022-04-23T13:21:54.000Z</Time>
            <Position>
              <LatitudeDegrees>41.5590824000537395477294921875</LatitudeDegrees>
              <LongitudeDegrees>-0.1312014274299144744873046875</LongitudeDegrees>
            </Position>
            <AltitudeMeters>355.600006103515625</AltitudeMeters>
            <DistanceMeters>72698.52320621</DistanceMeters>
          </Trackpoint>
          <Trackpoint>
            <Time>2022-04-23T13:21:56.000Z</Time>
            <Position>
              <LatitudeDegrees>41.5591008402407169342041015625</LatitudeDegrees>
              <LongitudeDegrees>-0.13109941966831684112548828125</LongitudeDegrees>
            </Position>
            <AltitudeMeters>355.79998779296875</AltitudeMeters>
            <DistanceMeters>72707.263597889</DistanceMeters>
          </Trackpoint>
          <Trackpoint>
            <Time>2022-04-23T13:22:03.000Z</Time>
            <Position>
              <LatitudeDegrees>41.5591373853385448455810546875</LatitudeDegrees>
              <LongitudeDegrees>-0.1306961663067340850830078125</LongitudeDegrees>
            </Position>
            <AltitudeMeters>356.399993896484375</AltitudeMeters>
            <DistanceMeters>72741.093642059</DistanceMeters>
          </Trackpoint>
          <Trackpoint>
            <Time>2022-04-23T13:22:04.000Z</Time>
            <Position>
              <LatitudeDegrees>41.55914316885173320770263671875</LatitudeDegrees>
              <LongitudeDegrees>-0.13063891790807247161865234375</LongitudeDegrees>
            </Position>
            <AltitudeMeters>356.399993896484375</AltitudeMeters>
            <DistanceMeters>72745.904472125</DistanceMeters>
          </Trackpoint>
          <Trackpoint>
            <Time>2022-04-23T13:22:06.000Z</Time>
            <Position>
              <LatitudeDegrees>41.5591628663241863250732421875</LatitudeDegrees>
              <LongitudeDegrees>-0.130528695881366729736328125</LongitudeDegrees>
            </Position>
            <AltitudeMeters>356.600006103515625</AltitudeMeters>
            <DistanceMeters>72755.342782573</DistanceMeters>
          </Trackpoint>
          <Trackpoint>
            <Time>2022-04-23T13:22:11.000Z</Time>
            <Position>
              <LatitudeDegrees>41.55922950245440006256103515625</LatitudeDegrees>
              <LongitudeDegrees>-0.13027489185333251953125</LongitudeDegrees>
            </Position>
            <AltitudeMeters>357.399993896484375</AltitudeMeters>
            <DistanceMeters>72777.744108609</DistanceMeters>
          </Trackpoint>
          <Trackpoint>
            <Time>2022-04-23T13:22:15.000Z</Time>
            <Position>
              <LatitudeDegrees>41.55929471366107463836669921875</LatitudeDegrees>
              <LongitudeDegrees>-0.1300792582333087921142578125</LongitudeDegrees>
            </Position>
            <AltitudeMeters>358.600006103515625</AltitudeMeters>
            <DistanceMeters>72795.580802621</DistanceMeters>
          </Trackpoint>
          <Trackpoint>
            <Time>2022-04-23T13:22:23.000Z</Time>
            <Position>
              <LatitudeDegrees>41.55948800034821033477783203125</LatitudeDegrees>
              <LongitudeDegrees>-0.1296698860824108123779296875</LongitudeDegrees>
            </Position>
            <AltitudeMeters>359.20001220703125</AltitudeMeters>
            <DistanceMeters>72835.894871236</DistanceMeters>
          </Trackpoint>
          <Trackpoint>
            <Time>2022-04-23T13:22:26.000Z</Time>
            <Position>
              <LatitudeDegrees>41.55956477858126163482666015625</LatitudeDegrees>
              <LongitudeDegrees>-0.12952010147273540496826171875</LongitudeDegrees>
            </Position>
            <AltitudeMeters>359.600006103515625</AltitudeMeters>
            <DistanceMeters>72851.015768549</DistanceMeters>
          </Trackpoint>
          <Trackpoint>
            <Time>2022-04-23T13:22:33.000Z</Time>
            <Position>
              <LatitudeDegrees>41.559776253998279571533203125</LatitudeDegrees>
              <LongitudeDegrees>-0.12914928607642650604248046875</LongitudeDegrees>
            </Position>
            <AltitudeMeters>360.20001220703125</AltitudeMeters>
            <DistanceMeters>72889.845781735</DistanceMeters>
          </Trackpoint>
          <Trackpoint>
            <Time>2022-04-23T13:22:36.000Z</Time>
            <Position>
              <LatitudeDegrees>41.55986786819994449615478515625</LatitudeDegrees>
              <LongitudeDegrees>-0.1289839111268520355224609375</LongitudeDegrees>
            </Position>
            <AltitudeMeters>360.600006103515625</AltitudeMeters>
            <DistanceMeters>72906.982763561</DistanceMeters>
          </Trackpoint>
          <Trackpoint>
            <Time>2022-04-23T13:22:38.000Z</Time>
            <Position>
              <LatitudeDegrees>41.5599314868450164794921875</LatitudeDegrees>
              <LongitudeDegrees>-0.12887201271951198577880859375</LongitudeDegrees>
            </Position>
            <AltitudeMeters>360.79998779296875</AltitudeMeters>
            <DistanceMeters>72918.686876499</DistanceMeters>
          </Trackpoint>
          <Trackpoint>
            <Time>2022-04-23T13:22:43.000Z</Time>
            <Position>
              <LatitudeDegrees>41.56008747406303882598876953125</LatitudeDegrees>
              <LongitudeDegrees>-0.12859675101935863494873046875</LongitudeDegrees>
            </Position>
            <AltitudeMeters>361</AltitudeMeters>
            <DistanceMeters>72947.444039098</DistanceMeters>
          </Trackpoint>
          <Trackpoint>
            <Time>2022-04-23T13:22:51.000Z</Time>
            <Position>
              <LatitudeDegrees>41.560326106846332550048828125</LatitudeDegrees>
              <LongitudeDegrees>-0.12814077548682689666748046875</LongitudeDegrees>
            </Position>
            <AltitudeMeters>361.399993896484375</AltitudeMeters>
            <DistanceMeters>72993.785714079</DistanceMeters>
          </Trackpoint>
          <Trackpoint>
            <Time>2022-04-23T13:22:52.000Z</Time>
            <Position>
              <LatitudeDegrees>41.5603561140596866607666015625</LatitudeDegrees>
              <LongitudeDegrees>-0.12808327563107013702392578125</LongitudeDegrees>
            </Position>
            <AltitudeMeters>361.600006103515625</AltitudeMeters>
            <DistanceMeters>72999.624253158</DistanceMeters>
          </Trackpoint>
          <Trackpoint>
            <Time>2022-04-23T13:22:58.000Z</Time>
            <Position>
              <LatitudeDegrees>41.56053322367370128631591796875</LatitudeDegrees>
              <LongitudeDegrees>-0.1277551241219043731689453125</LongitudeDegrees>
            </Position>
            <AltitudeMeters>362.20001220703125</AltitudeMeters>
            <DistanceMeters>73033.321106607</DistanceMeters>
          </Trackpoint>
          <Trackpoint>
            <Time>2022-04-23T13:23:01.000Z</Time>
            <Position>
              <LatitudeDegrees>41.5606233291327953338623046875</LatitudeDegrees>
              <LongitudeDegrees>-0.1275915093719959259033203125</LongitudeDegrees>
            </Position>
            <AltitudeMeters>362.79998779296875</AltitudeMeters>
            <DistanceMeters>73050.240132089</DistanceMeters>
          </Trackpoint>
          <Trackpoint>
            <Time>2022-04-23T13:23:05.000Z</Time>
            <Position>
              <LatitudeDegrees>41.560734808444976806640625</LatitudeDegrees>
              <LongitudeDegrees>-0.1273762620985507965087890625</LongitudeDegrees>
            </Position>
            <AltitudeMeters>363.79998779296875</AltitudeMeters>
            <DistanceMeters>73072.041671111</DistanceMeters>
          </Trackpoint>
          <Trackpoint>
            <Time>2022-04-23T13:23:10.000Z</Time>
            <Position>
              <LatitudeDegrees>41.56087654642760753631591796875</LatitudeDegrees>
              <LongitudeDegrees>-0.12710058130323886871337890625</LongitudeDegrees>
            </Position>
            <AltitudeMeters>364.600006103515625</AltitudeMeters>
            <DistanceMeters>73099.89844083</DistanceMeters>
          </Trackpoint>
          <Trackpoint>
            <Time>2022-04-23T13:23:12.000Z</Time>
            <Position>
              <LatitudeDegrees>41.5609344653785228729248046875</LatitudeDegrees>
              <LongitudeDegrees>-0.12698985636234283447265625</LongitudeDegrees>
            </Position>
            <AltitudeMeters>364.79998779296875</AltitudeMeters>
            <DistanceMeters>73111.150181662</DistanceMeters>
          </Trackpoint>
          <Trackpoint>
            <Time>2022-04-23T13:23:19.000Z</Time>
            <Position>
              <LatitudeDegrees>41.561142168939113616943359375</LatitudeDegrees>
              <LongitudeDegrees>-0.12661107815802097320556640625</LongitudeDegrees>
            </Position>
            <AltitudeMeters>365.79998779296875</AltitudeMeters>
            <DistanceMeters>73150.259649421</DistanceMeters>
          </Trackpoint>
          <Trackpoint>
            <Time>2022-04-23T13:23:21.000Z</Time>
            <Position>
              <LatitudeDegrees>41.56120327301323413848876953125</LatitudeDegrees>
              <LongitudeDegrees>-0.12651133351027965545654296875</LongitudeDegrees>
            </Position>
            <AltitudeMeters>366</AltitudeMeters>
            <DistanceMeters>73160.995986124</DistanceMeters>
          </Trackpoint>
          <Trackpoint>
            <Time>2022-04-23T13:23:22.000Z</Time>
            <Position>
              <LatitudeDegrees>41.56123328022658824920654296875</LatitudeDegrees>
              <LongitudeDegrees>-0.12646322138607501983642578125</LongitudeDegrees>
            </Position>
            <AltitudeMeters>366.20001220703125</AltitudeMeters>
            <DistanceMeters>73166.212944089</DistanceMeters>
          </Trackpoint>
          <Trackpoint>
            <Time>2022-04-23T13:23:25.000Z</Time>
            <Position>
              <LatitudeDegrees>41.56134123913943767547607421875</LatitudeDegrees>
              <LongitudeDegrees>-0.12633548118174076080322265625</LongitudeDegrees>
            </Position>
            <AltitudeMeters>366.399993896484375</AltitudeMeters>
            <DistanceMeters>73182.261490451</DistanceMeters>
          </Trackpoint>
          <Trackpoint>
            <Time>2022-04-23T13:23:26.000Z</Time>
            <Position>
              <LatitudeDegrees>41.561383903026580810546875</LatitudeDegrees>
              <LongitudeDegrees>-0.1262986846268177032470703125</LongitudeDegrees>
            </Position>
            <AltitudeMeters>366.399993896484375</AltitudeMeters>
            <DistanceMeters>73187.912185125</DistanceMeters>
          </Trackpoint>
          <Trackpoint>
            <Time>2022-04-23T13:23:29.000Z</Time>
            <Position>
              <LatitudeDegrees>41.561524383723735809326171875</LatitudeDegrees>
              <LongitudeDegrees>-0.12620639987289905548095703125</LongitudeDegrees>
            </Position>
            <AltitudeMeters>367</AltitudeMeters>
            <DistanceMeters>73205.335016403</DistanceMeters>
          </Trackpoint>
          <Trackpoint>
            <Time>2022-04-23T13:23:30.000Z</Time>
            <Position>
              <LatitudeDegrees>41.56157593242824077606201171875</LatitudeDegrees>
              <LongitudeDegrees>-0.1261831820011138916015625</LongitudeDegrees>
            </Position>
            <AltitudeMeters>367.20001220703125</AltitudeMeters>
            <DistanceMeters>73211.389940875</DistanceMeters>
          </Trackpoint>
          <Trackpoint>
            <Time>2022-04-23T13:23:32.000Z</Time>
            <Position>
              <LatitudeDegrees>41.56168439425528049468994140625</LatitudeDegrees>
              <LongitudeDegrees>-0.12615166604518890380859375</LongitudeDegrees>
            </Position>
            <AltitudeMeters>367.600006103515625</AltitudeMeters>
            <DistanceMeters>73223.744144697</DistanceMeters>
          </Trackpoint>
          <Trackpoint>
            <Time>2022-04-23T13:23:38.000Z</Time>
            <Position>
              <LatitudeDegrees>41.56204112805426120758056640625</LatitudeDegrees>
              <LongitudeDegrees>-0.12606793083250522613525390625</LongitudeDegrees>
            </Position>
            <AltitudeMeters>368</AltitudeMeters>
            <DistanceMeters>73264.05698133</DistanceMeters>
          </Trackpoint>
          <Trackpoint>
            <Time>2022-04-23T13:23:47.000Z</Time>
            <Position>
              <LatitudeDegrees>41.56259500421583652496337890625</LatitudeDegrees>
              <LongitudeDegrees>-0.12593935243785381317138671875</LongitudeDegrees>
            </Position>
            <AltitudeMeters>368.20001220703125</AltitudeMeters>
            <DistanceMeters>73326.627581001</DistanceMeters>
          </Trackpoint>
          <Trackpoint>
            <Time>2022-04-23T13:23:51.000Z</Time>
            <Position>
              <LatitudeDegrees>41.56284159980714321136474609375</LatitudeDegrees>
              <LongitudeDegrees>-0.1258886419236660003662109375</LongitudeDegrees>
            </Position>
            <AltitudeMeters>368.399993896484375</AltitudeMeters>
            <DistanceMeters>73354.397177111</DistanceMeters>
          </Trackpoint>
          <Trackpoint>
            <Time>2022-04-23T13:23:53.000Z</Time>
            <Position>
              <LatitudeDegrees>41.5629689209163188934326171875</LatitudeDegrees>
              <LongitudeDegrees>-0.1258678548038005828857421875</LongitudeDegrees>
            </Position>
            <AltitudeMeters>368.79998779296875</AltitudeMeters>
            <DistanceMeters>73368.673339948</DistanceMeters>
          </Trackpoint>
          <Trackpoint>
            <Time>2022-04-23T13:23:56.000Z</Time>
            <Position>
              <LatitudeDegrees>41.5631546638906002044677734375</LatitudeDegrees>
              <LongitudeDegrees>-0.12582804076373577117919921875</LongitudeDegrees>
            </Position>
            <AltitudeMeters>369.20001220703125</AltitudeMeters>
            <DistanceMeters>73389.611156243</DistanceMeters>
          </Trackpoint>
          <Trackpoint>
            <Time>2022-04-23T13:24:02.000Z</Time>
            <Position>
              <LatitudeDegrees>41.563514582812786102294921875</LatitudeDegrees>
              <LongitudeDegrees>-0.125728212296962738037109375</LongitudeDegrees>
            </Position>
            <AltitudeMeters>369.399993896484375</AltitudeMeters>
            <DistanceMeters>73430.52443331</DistanceMeters>
          </Trackpoint>
          <Trackpoint>
            <Time>2022-04-23T13:24:09.000Z</Time>
            <Position>
              <LatitudeDegrees>41.56390911899507045745849609375</LatitudeDegrees>
              <LongitudeDegrees>-0.12553970329463481903076171875</LongitudeDegrees>
            </Position>
            <AltitudeMeters>369</AltitudeMeters>
            <DistanceMeters>73477.158835745</DistanceMeters>
          </Trackpoint>
          <Trackpoint>
            <Time>2022-04-23T13:24:15.000Z</Time>
            <Position>
              <LatitudeDegrees>41.56424473039805889129638671875</LatitudeDegrees>
              <LongitudeDegrees>-0.12534457258880138397216796875</LongitudeDegrees>
            </Position>
            <AltitudeMeters>368.20001220703125</AltitudeMeters>
            <DistanceMeters>73517.89460587</DistanceMeters>
          </Trackpoint>
          <Trackpoint>
            <Time>2022-04-23T13:24:21.000Z</Time>
            <Position>
              <LatitudeDegrees>41.56459408812224864959716796875</LatitudeDegrees>
              <LongitudeDegrees>-0.1251443289220333099365234375</LongitudeDegrees>
            </Position>
            <AltitudeMeters>367.600006103515625</AltitudeMeters>
            <DistanceMeters>73560.203803142</DistanceMeters>
          </Trackpoint>
          <Trackpoint>
            <Time>2022-04-23T13:24:28.000Z</Time>
            <Position>
              <LatitudeDegrees>41.5649966709315776824951171875</LatitudeDegrees>
              <LongitudeDegrees>-0.12489999644458293914794921875</LongitudeDegrees>
            </Position>
            <AltitudeMeters>368.399993896484375</AltitudeMeters>
            <DistanceMeters>73609.415532045</DistanceMeters>
          </Trackpoint>
          <Trackpoint>
            <Time>2022-04-23T13:24:32.000Z</Time>
            <Position>
              <LatitudeDegrees>41.56522340141236782073974609375</LatitudeDegrees>
              <LongitudeDegrees>-0.12476739473640918731689453125</LongitudeDegrees>
            </Position>
            <AltitudeMeters>368.600006103515625</AltitudeMeters>
            <DistanceMeters>73636.961480267</DistanceMeters>
          </Trackpoint>
          <Trackpoint>
            <Time>2022-04-23T13:24:34.000Z</Time>
            <Position>
              <LatitudeDegrees>41.56533471308648586273193359375</LatitudeDegrees>
              <LongitudeDegrees>-0.12470805086195468902587890625</LongitudeDegrees>
            </Position>
            <AltitudeMeters>368.600006103515625</AltitudeMeters>
            <DistanceMeters>73650.299792233</DistanceMeters>
          </Trackpoint>
          <Trackpoint>
            <Time>2022-04-23T13:24:36.000Z</Time>
            <Position>
              <LatitudeDegrees>41.56544116325676441192626953125</LatitudeDegrees>
              <LongitudeDegrees>-0.1246424205601215362548828125</LongitudeDegrees>
            </Position>
            <AltitudeMeters>368.20001220703125</AltitudeMeters>
            <DistanceMeters>73663.347551856</DistanceMeters>
          </Trackpoint>
          <Trackpoint>
            <Time>2022-04-23T13:24:43.000Z</Time>
            <Position>
              <LatitudeDegrees>41.5658403933048248291015625</LatitudeDegrees>
              <LongitudeDegrees>-0.1244156062602996826171875</LongitudeDegrees>
            </Position>
            <AltitudeMeters>367</AltitudeMeters>
            <DistanceMeters>73711.630474874</DistanceMeters>
          </Trackpoint>
          <Trackpoint>
            <Time>2022-04-23T13:24:44.000Z</Time>
            <Position>
              <LatitudeDegrees>41.56590451486408710479736328125</LatitudeDegrees>
              <LongitudeDegrees>-0.1243795640766620635986328125</LongitudeDegrees>
            </Position>
            <AltitudeMeters>367</AltitudeMeters>
            <DistanceMeters>73719.373840265</DistanceMeters>
          </Trackpoint>
          <Trackpoint>
            <Time>2022-04-23T13:24:49.000Z</Time>
            <Position>
              <LatitudeDegrees>41.56622805632650852203369140625</LatitudeDegrees>
              <LongitudeDegrees>-0.12418233789503574371337890625</LongitudeDegrees>
            </Position>
            <AltitudeMeters>366.79998779296875</AltitudeMeters>
            <DistanceMeters>73758.953236817</DistanceMeters>
          </Trackpoint>
          <Trackpoint>
            <Time>2022-04-23T13:24:55.000Z</Time>
            <Position>
              <LatitudeDegrees>41.5666311420500278472900390625</LatitudeDegrees>
              <LongitudeDegrees>-0.123921744525432586669921875</LongitudeDegrees>
            </Position>
            <AltitudeMeters>367.20001220703125</AltitudeMeters>
            <DistanceMeters>73808.790196254</DistanceMeters>
          </Trackpoint>
          <Trackpoint>
            <Time>2022-04-23T13:24:59.000Z</Time>
            <Position>
              <LatitudeDegrees>41.56691394746303558349609375</LatitudeDegrees>
              <LongitudeDegrees>-0.1237395219504833221435546875</LongitudeDegrees>
            </Position>
            <AltitudeMeters>366.600006103515625</AltitudeMeters>
            <DistanceMeters>73843.73367829</DistanceMeters>
          </Trackpoint>
          <Trackpoint>
            <Time>2022-04-23T13:25:02.000Z</Time>
            <Position>
              <LatitudeDegrees>41.5671330504119396209716796875</LatitudeDegrees>
              <LongitudeDegrees>-0.12360113672912120819091796875</LongitudeDegrees>
            </Position>
            <AltitudeMeters>366</AltitudeMeters>
            <DistanceMeters>73870.706036524</DistanceMeters>
          </Trackpoint>
          <Trackpoint>
            <Time>2022-04-23T13:25:07.000Z</Time>
            <Position>
              <LatitudeDegrees>41.5675248205661773681640625</LatitudeDegrees>
              <LongitudeDegrees>-0.12333978898823261260986328125</LongitudeDegrees>
            </Position>
            <AltitudeMeters>364.79998779296875</AltitudeMeters>
            <DistanceMeters>73919.440290347</DistanceMeters>
          </Trackpoint>
          <Trackpoint>
            <Time>2022-04-23T13:25:08.000Z</Time>
            <Position>
              <LatitudeDegrees>41.567608974874019622802734375</LatitudeDegrees>
              <LongitudeDegrees>-0.12328329496085643768310546875</LongitudeDegrees>
            </Position>
            <AltitudeMeters>364.399993896484375</AltitudeMeters>
            <DistanceMeters>73929.922128931</DistanceMeters>
          </Trackpoint>
          <Trackpoint>
            <Time>2022-04-23T13:25:11.000Z</Time>
            <Position>
              <LatitudeDegrees>41.56787191517651081085205078125</LatitudeDegrees>
              <LongitudeDegrees>-0.1231142319738864898681640625</LongitudeDegrees>
            </Position>
            <AltitudeMeters>363.600006103515625</AltitudeMeters>
            <DistanceMeters>73962.398195018</DistanceMeters>
          </Trackpoint>
          <Trackpoint>
            <Time>2022-04-23T13:25:14.000Z</Time>
            <Position>
              <LatitudeDegrees>41.5681429021060466766357421875</LatitudeDegrees>
              <LongitudeDegrees>-0.12293879874050617218017578125</LongitudeDegrees>
            </Position>
            <AltitudeMeters>362.600006103515625</AltitudeMeters>
            <DistanceMeters>73995.911249009</DistanceMeters>
          </Trackpoint>
          <Trackpoint>
            <Time>2022-04-23T13:25:15.000Z</Time>
            <Position>
              <LatitudeDegrees>41.5682340972125530242919921875</LatitudeDegrees>
              <LongitudeDegrees>-0.12287543155252933502197265625</LongitudeDegrees>
            </Position>
            <AltitudeMeters>362.20001220703125</AltitudeMeters>
            <DistanceMeters>74007.351218323</DistanceMeters>
          </Trackpoint>
          <Trackpoint>
            <Time>2022-04-23T13:25:19.000Z</Time>
            <Position>
              <LatitudeDegrees>41.56860549934208393096923828125</LatitudeDegrees>
              <LongitudeDegrees>-0.12261710129678249359130859375</LongitudeDegrees>
            </Position>
            <AltitudeMeters>360.600006103515625</AltitudeMeters>
            <DistanceMeters>74053.951334668</DistanceMeters>
          </Trackpoint>
          <Trackpoint>
            <Time>2022-04-23T13:25:20.000Z</Time>
            <Position>
              <LatitudeDegrees>41.5687018074095249176025390625</LatitudeDegrees>
              <LongitudeDegrees>-0.1225546561181545257568359375</LongitudeDegrees>
            </Position>
            <AltitudeMeters>360</AltitudeMeters>
            <DistanceMeters>74065.865350432</DistanceMeters>
          </Trackpoint>
          <Trackpoint>
            <Time>2022-04-23T13:25:21.000Z</Time>
            <Position>
              <LatitudeDegrees>41.5688000433146953582763671875</LatitudeDegrees>
              <LongitudeDegrees>-0.12249355204403400421142578125</LongitudeDegrees>
            </Position>
            <AltitudeMeters>358.399993896484375</AltitudeMeters>
            <DistanceMeters>74077.925135306</DistanceMeters>
          </Trackpoint>
          <Trackpoint>
            <Time>2022-04-23T13:25:23.000Z</Time>
            <Position>
              <LatitudeDegrees>41.5689931623637676239013671875</LatitudeDegrees>
              <LongitudeDegrees>-0.12236832641065120697021484375</LongitudeDegrees>
            </Position>
            <AltitudeMeters>356.399993896484375</AltitudeMeters>
            <DistanceMeters>74101.815425837</DistanceMeters>
          </Trackpoint>
          <Trackpoint>
            <Time>2022-04-23T13:25:24.000Z</Time>
            <Position>
              <LatitudeDegrees>41.56908812932670116424560546875</LatitudeDegrees>
              <LongitudeDegrees>-0.12230697087943553924560546875</LongitudeDegrees>
            </Position>
            <AltitudeMeters>354.79998779296875</AltitudeMeters>
            <DistanceMeters>74113.554975517</DistanceMeters>
          </Trackpoint>
          <Trackpoint>
            <Time>2022-04-23T13:25:26.000Z</Time>
            <Position>
              <LatitudeDegrees>41.56927420757710933685302734375</LatitudeDegrees>
              <LongitudeDegrees>-0.12218375690281391143798828125</LongitudeDegrees>
            </Position>
            <AltitudeMeters>353.399993896484375</AltitudeMeters>
            <DistanceMeters>74136.667965206</DistanceMeters>
          </Trackpoint>
          <Trackpoint>
            <Time>2022-04-23T13:25:29.000Z</Time>
            <Position>
              <LatitudeDegrees>41.569545529782772064208984375</LatitudeDegrees>
              <LongitudeDegrees>-0.12200631201267242431640625</LongitudeDegrees>
            </Position>
            <AltitudeMeters>352.600006103515625</AltitudeMeters>
            <DistanceMeters>74170.287820477</DistanceMeters>
          </Trackpoint>
          <Trackpoint>
            <Time>2022-04-23T13:25:31.000Z</Time>
            <Position>
              <LatitudeDegrees>41.569719873368740081787109375</LatitudeDegrees>
              <LongitudeDegrees>-0.12189357541501522064208984375</LongitudeDegrees>
            </Position>
            <AltitudeMeters>352.20001220703125</AltitudeMeters>
            <DistanceMeters>74191.844018511</DistanceMeters>
          </Trackpoint>
          <Trackpoint>
            <Time>2022-04-23T13:25:34.000Z</Time>
            <Position>
              <LatitudeDegrees>41.5699570812284946441650390625</LatitudeDegrees>
              <LongitudeDegrees>-0.12170456349849700927734375</LongitudeDegrees>
            </Position>
            <AltitudeMeters>351.79998779296875</AltitudeMeters>
            <DistanceMeters>74222.581304956</DistanceMeters>
          </Trackpoint>
          <Trackpoint>
            <Time>2022-04-23T13:25:35.000Z</Time>
            <Position>
              <LatitudeDegrees>41.5700352005660533905029296875</LatitudeDegrees>
              <LongitudeDegrees>-0.12162853963673114776611328125</LongitudeDegrees>
            </Position>
            <AltitudeMeters>351.600006103515625</AltitudeMeters>
            <DistanceMeters>74233.336549223</DistanceMeters>
          </Trackpoint>
          <Trackpoint>
            <Time>2022-04-23T13:25:37.000Z</Time>
            <Position>
              <LatitudeDegrees>41.57019454054534435272216796875</LatitudeDegrees>
              <LongitudeDegrees>-0.12145838700234889984130859375</LongitudeDegrees>
            </Position>
            <AltitudeMeters>350.79998779296875</AltitudeMeters>
            <DistanceMeters>74256.036201689</DistanceMeters>
          </Trackpoint>
          <Trackpoint>
            <Time>2022-04-23T13:25:40.000Z</Time>
            <Position>
              <LatitudeDegrees>41.5704579837620258331298828125</LatitudeDegrees>
              <LongitudeDegrees>-0.1211781799793243408203125</LongitudeDegrees>
            </Position>
            <AltitudeMeters>349.600006103515625</AltitudeMeters>
            <DistanceMeters>74293.508549988</DistanceMeters>
          </Trackpoint>
          <Trackpoint>
            <Time>2022-04-23T13:25:43.000Z</Time>
            <Position>
              <LatitudeDegrees>41.57074606977403163909912109375</LatitudeDegrees>
              <LongitudeDegrees>-0.1208853162825107574462890625</LongitudeDegrees>
            </Position>
            <AltitudeMeters>348.399993896484375</AltitudeMeters>
            <DistanceMeters>74333.793152731</DistanceMeters>
          </Trackpoint>
          <Trackpoint>
            <Time>2022-04-23T13:25:45.000Z</Time>
            <Position>
              <LatitudeDegrees>41.570938266813755035400390625</LatitudeDegrees>
              <LongitudeDegrees>-0.1206885091960430145263671875</LongitudeDegrees>
            </Position>
            <AltitudeMeters>347.79998779296875</AltitudeMeters>
            <DistanceMeters>74360.740892664</DistanceMeters>
          </Trackpoint>
          <Trackpoint>
            <Time>2022-04-23T13:25:47.000Z</Time>
            <Position>
              <LatitudeDegrees>41.57112409360706806182861328125</LatitudeDegrees>
              <LongitudeDegrees>-0.1204915344715118408203125</LongitudeDegrees>
            </Position>
            <AltitudeMeters>347.20001220703125</AltitudeMeters>
            <DistanceMeters>74387.137801928</DistanceMeters>
          </Trackpoint>
          <Trackpoint>
            <Time>2022-04-23T13:25:51.000Z</Time>
            <Position>
              <LatitudeDegrees>41.57147236168384552001953125</LatitudeDegrees>
              <LongitudeDegrees>-0.12012080289423465728759765625</LongitudeDegrees>
            </Position>
            <AltitudeMeters>345.600006103515625</AltitudeMeters>
            <DistanceMeters>74436.691295119</DistanceMeters>
          </Trackpoint>
          <Trackpoint>
            <Time>2022-04-23T13:25:54.000Z</Time>
            <Position>
              <LatitudeDegrees>41.57171778380870819091796875</LatitudeDegrees>
              <LongitudeDegrees>-0.11986800469458103179931640625</LongitudeDegrees>
            </Position>
            <AltitudeMeters>343.79998779296875</AltitudeMeters>
            <DistanceMeters>74471.177090713</DistanceMeters>
          </Trackpoint>
          <Trackpoint>
            <Time>2022-04-23T13:25:56.000Z</Time>
            <Position>
              <LatitudeDegrees>41.571865975856781005859375</LatitudeDegrees>
              <LongitudeDegrees>-0.11970623396337032318115234375</LongitudeDegrees>
            </Position>
            <AltitudeMeters>342.399993896484375</AltitudeMeters>
            <DistanceMeters>74492.472829704</DistanceMeters>
          </Trackpoint>
          <Trackpoint>
            <Time>2022-04-23T13:25:57.000Z</Time>
            <Position>
              <LatitudeDegrees>41.57194015569984912872314453125</LatitudeDegrees>
              <LongitudeDegrees>-0.11962727643549442291259765625</LongitudeDegrees>
            </Position>
            <AltitudeMeters>342</AltitudeMeters>
            <DistanceMeters>74503.02721377</DistanceMeters>
          </Trackpoint>
          <Trackpoint>
            <Time>2022-04-23T13:25:58.000Z</Time>
            <Position>
              <LatitudeDegrees>41.57201349735260009765625</LatitudeDegrees>
              <LongitudeDegrees>-0.11954915709793567657470703125</LongitudeDegrees>
            </Position>
            <AltitudeMeters>341.20001220703125</AltitudeMeters>
            <DistanceMeters>74513.465456073</DistanceMeters>
          </Trackpoint>
          <Trackpoint>
            <Time>2022-04-23T13:26:03.000Z</Time>
            <Position>
              <LatitudeDegrees>41.57238087616860866546630859375</LatitudeDegrees>
              <LongitudeDegrees>-0.1191861368715763092041015625</LongitudeDegrees>
            </Position>
            <AltitudeMeters>340.399993896484375</AltitudeMeters>
            <DistanceMeters>74564.315315554</DistanceMeters>
          </Trackpoint>
          <Trackpoint>
            <Time>2022-04-23T13:26:06.000Z</Time>
            <Position>
              <LatitudeDegrees>41.572589166462421417236328125</LatitudeDegrees>
              <LongitudeDegrees>-0.11897013522684574127197265625</LongitudeDegrees>
            </Position>
            <AltitudeMeters>340.20001220703125</AltitudeMeters>
            <DistanceMeters>74593.657189188</DistanceMeters>
          </Trackpoint>
          <Trackpoint>
            <Time>2022-04-23T13:26:10.000Z</Time>
            <Position>
              <LatitudeDegrees>41.572845317423343658447265625</LatitudeDegrees>
              <LongitudeDegrees>-0.1186805404722690582275390625</LongitudeDegrees>
            </Position>
            <AltitudeMeters>340</AltitudeMeters>
            <DistanceMeters>74630.997367995</DistanceMeters>
          </Trackpoint>
          <Trackpoint>
            <Time>2022-04-23T13:26:13.000Z</Time>
            <Position>
              <LatitudeDegrees>41.573029048740863800048828125</LatitudeDegrees>
              <LongitudeDegrees>-0.11849722824990749359130859375</LongitudeDegrees>
            </Position>
            <AltitudeMeters>339.600006103515625</AltitudeMeters>
            <DistanceMeters>74656.515535494</DistanceMeters>
          </Trackpoint>
          <Trackpoint>
            <Time>2022-04-23T13:26:14.000Z</Time>
            <Position>
              <LatitudeDegrees>41.573094762861728668212890625</LatitudeDegrees>
              <LongitudeDegrees>-0.1184585876762866973876953125</LongitudeDegrees>
            </Position>
            <AltitudeMeters>339.399993896484375</AltitudeMeters>
            <DistanceMeters>74664.506259525</DistanceMeters>
          </Trackpoint>
          <Trackpoint>
            <Time>2022-04-23T13:26:15.000Z</Time>
            <Position>
              <LatitudeDegrees>41.57316215336322784423828125</LatitudeDegrees>
              <LongitudeDegrees>-0.1184396445751190185546875</LongitudeDegrees>
            </Position>
            <AltitudeMeters>339.399993896484375</AltitudeMeters>
            <DistanceMeters>74672.171093335</DistanceMeters>
          </Trackpoint>
          <Trackpoint>
            <Time>2022-04-23T13:26:16.000Z</Time>
            <Position>
              <LatitudeDegrees>41.573229543864727020263671875</LatitudeDegrees>
              <LongitudeDegrees>-0.11844165623188018798828125</LongitudeDegrees>
            </Position>
            <AltitudeMeters>339.399993896484375</AltitudeMeters>
            <DistanceMeters>74679.673390749</DistanceMeters>
          </Trackpoint>
          <Trackpoint>
            <Time>2022-04-23T13:26:17.000Z</Time>
            <Position>
              <LatitudeDegrees>41.5732924081385135650634765625</LatitudeDegrees>
              <LongitudeDegrees>-0.118464790284633636474609375</LongitudeDegrees>
            </Position>
            <AltitudeMeters>339.20001220703125</AltitudeMeters>
            <DistanceMeters>74686.930968574</DistanceMeters>
          </Trackpoint>
          <Trackpoint>
            <Time>2022-04-23T13:26:20.000Z</Time>
            <Position>
              <LatitudeDegrees>41.5734265185892581939697265625</LatitudeDegrees>
              <LongitudeDegrees>-0.11860619299113750457763671875</LongitudeDegrees>
            </Position>
            <AltitudeMeters>339.20001220703125</AltitudeMeters>
            <DistanceMeters>74705.942487181</DistanceMeters>
          </Trackpoint>
          <Trackpoint>
            <Time>2022-04-23T13:26:26.000Z</Time>
            <Position>
              <LatitudeDegrees>41.5736085735261440277099609375</LatitudeDegrees>
              <LongitudeDegrees>-0.11893258430063724517822265625</LongitudeDegrees>
            </Position>
            <AltitudeMeters>340</AltitudeMeters>
            <DistanceMeters>74739.842393502</DistanceMeters>
          </Trackpoint>
          <Trackpoint>
            <Time>2022-04-23T13:26:33.000Z</Time>
            <Position>
              <LatitudeDegrees>41.573805548250675201416015625</LatitudeDegrees>
              <LongitudeDegrees>-0.11928789317607879638671875</LongitudeDegrees>
            </Position>
            <AltitudeMeters>340.399993896484375</AltitudeMeters>
            <DistanceMeters>74776.665214667</DistanceMeters>
          </Trackpoint>
          <Trackpoint>
            <Time>2022-04-23T13:26:35.000Z</Time>
            <Position>
              <LatitudeDegrees>41.57385684549808502197265625</LatitudeDegrees>
              <LongitudeDegrees>-0.1193856261670589447021484375</LongitudeDegrees>
            </Position>
            <AltitudeMeters>341.399993896484375</AltitudeMeters>
            <DistanceMeters>74786.605844754</DistanceMeters>
          </Trackpoint>
          <Trackpoint>
            <Time>2022-04-23T13:26:36.000Z</Time>
            <Position>
              <LatitudeDegrees>41.57388106919825077056884765625</LatitudeDegrees>
              <LongitudeDegrees>-0.11943549849092960357666015625</LongitudeDegrees>
            </Position>
            <AltitudeMeters>341.600006103515625</AltitudeMeters>
            <DistanceMeters>74791.557274602</DistanceMeters>
          </Trackpoint>
          <Trackpoint>
            <Time>2022-04-23T13:26:41.000Z</Time>
            <Position>
              <LatitudeDegrees>41.574027501046657562255859375</LatitudeDegrees>
              <LongitudeDegrees>-0.11966952122747898101806640625</LongitudeDegrees>
            </Position>
            <AltitudeMeters>342.20001220703125</AltitudeMeters>
            <DistanceMeters>74816.960529965</DistanceMeters>
          </Trackpoint>
          <Trackpoint>
            <Time>2022-04-23T13:26:43.000Z</Time>
            <Position>
              <LatitudeDegrees>41.5740829892456531524658203125</LatitudeDegrees>
              <LongitudeDegrees>-0.11976373381912708282470703125</LongitudeDegrees>
            </Position>
            <AltitudeMeters>342</AltitudeMeters>
            <DistanceMeters>74826.944668078</DistanceMeters>
          </Trackpoint>
          <Trackpoint>
            <Time>2022-04-23T13:26:49.000Z</Time>
            <Position>
              <LatitudeDegrees>41.5742365457117557525634765625</LatitudeDegrees>
              <LongitudeDegrees>-0.120043940842151641845703125</LongitudeDegrees>
            </Position>
            <AltitudeMeters>341.79998779296875</AltitudeMeters>
            <DistanceMeters>74855.866372922</DistanceMeters>
          </Trackpoint>
          <Trackpoint>
            <Time>2022-04-23T13:26:52.000Z</Time>
            <Position>
              <LatitudeDegrees>41.57431273721158504486083984375</LatitudeDegrees>
              <LongitudeDegrees>-0.1201819069683551788330078125</LongitudeDegrees>
            </Position>
            <AltitudeMeters>342.20001220703125</AltitudeMeters>
            <DistanceMeters>74870.145065647</DistanceMeters>
          </Trackpoint>
          <Trackpoint>
            <Time>2022-04-23T13:26:56.000Z</Time>
            <Position>
              <LatitudeDegrees>41.57440812326967716217041015625</LatitudeDegrees>
              <LongitudeDegrees>-0.12037284672260284423828125</LongitudeDegrees>
            </Position>
            <AltitudeMeters>342.79998779296875</AltitudeMeters>
            <DistanceMeters>74889.262211194</DistanceMeters>
          </Trackpoint>
          <Trackpoint>
            <Time>2022-04-23T13:27:01.000Z</Time>
            <Position>
              <LatitudeDegrees>41.5745387971401214599609375</LatitudeDegrees>
              <LongitudeDegrees>-0.12061349116265773773193359375</LongitudeDegrees>
            </Position>
            <AltitudeMeters>343</AltitudeMeters>
            <DistanceMeters>74914.021366459</DistanceMeters>
          </Trackpoint>
          <Trackpoint>
            <Time>2022-04-23T13:27:10.000Z</Time>
            <Position>
              <LatitudeDegrees>41.57476251013576984405517578125</LatitudeDegrees>
              <LongitudeDegrees>-0.12103803455829620361328125</LongitudeDegrees>
            </Position>
            <AltitudeMeters>343.600006103515625</AltitudeMeters>
            <DistanceMeters>74957.259879001</DistanceMeters>
          </Trackpoint>
          <Trackpoint>
            <Time>2022-04-23T13:27:11.000Z</Time>
            <Position>
              <LatitudeDegrees>41.574787907302379608154296875</LatitudeDegrees>
              <LongitudeDegrees>-0.121085979044437408447265625</LongitudeDegrees>
            </Position>
            <AltitudeMeters>343.79998779296875</AltitudeMeters>
            <DistanceMeters>74962.151678524</DistanceMeters>
          </Trackpoint>
          <Trackpoint>
            <Time>2022-04-23T13:27:18.000Z</Time>
            <Position>
              <LatitudeDegrees>41.57495881430804729461669921875</LatitudeDegrees>
              <LongitudeDegrees>-0.12141765095293521881103515625</LongitudeDegrees>
            </Position>
            <AltitudeMeters>344.79998779296875</AltitudeMeters>
            <DistanceMeters>74995.68547371</DistanceMeters>
          </Trackpoint>
          <Trackpoint>
            <Time>2022-04-23T13:27:19.000Z</Time>
            <Position>
              <LatitudeDegrees>41.57498278655111789703369140625</LatitudeDegrees>
              <LongitudeDegrees>-0.121469199657440185546875</LongitudeDegrees>
            </Position>
            <AltitudeMeters>344.79998779296875</AltitudeMeters>
            <DistanceMeters>75000.738893956</DistanceMeters>
          </Trackpoint>
          <Trackpoint>
            <Time>2022-04-23T13:27:20.000Z</Time>
            <Position>
              <LatitudeDegrees>41.575005836784839630126953125</LatitudeDegrees>
              <LongitudeDegrees>-0.12152141891419887542724609375</LongitudeDegrees>
            </Position>
            <AltitudeMeters>344.79998779296875</AltitudeMeters>
            <DistanceMeters>75005.786950585</DistanceMeters>
          </Trackpoint>
          <Trackpoint>
            <Time>2022-04-23T13:27:27.000Z</Time>
            <Position>
              <LatitudeDegrees>41.57519317232072353363037109375</LatitudeDegrees>
              <LongitudeDegrees>-0.12187178246676921844482421875</LongitudeDegrees>
            </Position>
            <AltitudeMeters>345.399993896484375</AltitudeMeters>
            <DistanceMeters>75041.644900678</DistanceMeters>
          </Trackpoint>
          <Trackpoint>
            <Time>2022-04-23T13:27:30.000Z</Time>
            <Position>
              <LatitudeDegrees>41.57526793889701366424560546875</LatitudeDegrees>
              <LongitudeDegrees>-0.12201435863971710205078125</LongitudeDegrees>
            </Position>
            <AltitudeMeters>346</AltitudeMeters>
            <DistanceMeters>75056.142003808</DistanceMeters>
          </Trackpoint>
          <Trackpoint>
            <Time>2022-04-23T13:27:37.000Z</Time>
            <Position>
              <LatitudeDegrees>41.57544177956879138946533203125</LatitudeDegrees>
              <LongitudeDegrees>-0.12233220040798187255859375</LongitudeDegrees>
            </Position>
            <AltitudeMeters>346.600006103515625</AltitudeMeters>
            <DistanceMeters>75088.925256212</DistanceMeters>
          </Trackpoint>
          <Trackpoint>
            <Time>2022-04-23T13:27:43.000Z</Time>
            <Position>
              <LatitudeDegrees>41.575569100677967071533203125</LatitudeDegrees>
              <LongitudeDegrees>-0.1226079650223255157470703125</LongitudeDegrees>
            </Position>
            <AltitudeMeters>346.20001220703125</AltitudeMeters>
            <DistanceMeters>75115.907154275</DistanceMeters>
          </Trackpoint>
          <Trackpoint>
            <Time>2022-04-23T13:27:45.000Z</Time>
            <Position>
              <LatitudeDegrees>41.57561662606894969940185546875</LatitudeDegrees>
              <LongitudeDegrees>-0.12269739992916584014892578125</LongitudeDegrees>
            </Position>
            <AltitudeMeters>346</AltitudeMeters>
            <DistanceMeters>75125.041095169</DistanceMeters>
          </Trackpoint>
          <Trackpoint>
            <Time>2022-04-23T13:27:50.000Z</Time>
            <Position>
              <LatitudeDegrees>41.575747467577457427978515625</LatitudeDegrees>
              <LongitudeDegrees>-0.12292354367673397064208984375</LongitudeDegrees>
            </Position>
            <AltitudeMeters>346</AltitudeMeters>
            <DistanceMeters>75148.845050025</DistanceMeters>
          </Trackpoint>
          <Trackpoint>
            <Time>2022-04-23T13:27:52.000Z</Time>
            <Position>
              <LatitudeDegrees>41.575795747339725494384765625</LatitudeDegrees>
              <LongitudeDegrees>-0.123017840087413787841796875</LongitudeDegrees>
            </Position>
            <AltitudeMeters>346</AltitudeMeters>
            <DistanceMeters>75158.359117834</DistanceMeters>
          </Trackpoint>
          <Trackpoint>
            <Time>2022-04-23T13:27:58.000Z</Time>
            <Position>
              <LatitudeDegrees>41.57593983225524425506591796875</LatitudeDegrees>
              <LongitudeDegrees>-0.12329737655818462371826171875</LongitudeDegrees>
            </Position>
            <AltitudeMeters>347.20001220703125</AltitudeMeters>
            <DistanceMeters>75186.624094805</DistanceMeters>
          </Trackpoint>
          <Trackpoint>
            <Time>2022-04-23T13:28:00.000Z</Time>
            <Position>
              <LatitudeDegrees>41.57598794437944889068603515625</LatitudeDegrees>
              <LongitudeDegrees>-0.123389996588230133056640625</LongitudeDegrees>
            </Position>
            <AltitudeMeters>347.600006103515625</AltitudeMeters>
            <DistanceMeters>75196.013003487</DistanceMeters>
          </Trackpoint>
          <Trackpoint>
            <Time>2022-04-23T13:28:07.000Z</Time>
            <Position>
              <LatitudeDegrees>41.57616899348795413970947265625</LatitudeDegrees>
              <LongitudeDegrees>-0.12372820638120174407958984375</LongitudeDegrees>
            </Position>
            <AltitudeMeters>347.20001220703125</AltitudeMeters>
            <DistanceMeters>75230.640560876</DistanceMeters>
          </Trackpoint>
          <Trackpoint>
            <Time>2022-04-23T13:28:14.000Z</Time>
            <Position>
              <LatitudeDegrees>41.576344259083271026611328125</LatitudeDegrees>
              <LongitudeDegrees>-0.12405929155647754669189453125</LongitudeDegrees>
            </Position>
            <AltitudeMeters>347.399993896484375</AltitudeMeters>
            <DistanceMeters>75264.411295759</DistanceMeters>
          </Trackpoint>
          <Trackpoint>
            <Time>2022-04-23T13:28:16.000Z</Time>
            <Position>
              <LatitudeDegrees>41.5763940475881099700927734375</LatitudeDegrees>
              <LongitudeDegrees>-0.1241515763103961944580078125</LongitudeDegrees>
            </Position>
            <AltitudeMeters>347.399993896484375</AltitudeMeters>
            <DistanceMeters>75273.885416291</DistanceMeters>
          </Trackpoint>
          <Trackpoint>
            <Time>2022-04-23T13:28:25.000Z</Time>
            <Position>
              <LatitudeDegrees>41.576611809432506561279296875</LatitudeDegrees>
              <LongitudeDegrees>-0.12457611970603466033935546875</LongitudeDegrees>
            </Position>
            <AltitudeMeters>347.79998779296875</AltitudeMeters>
            <DistanceMeters>75316.745098169</DistanceMeters>
          </Trackpoint>
          <Trackpoint>
            <Time>2022-04-23T13:28:37.000Z</Time>
            <Position>
              <LatitudeDegrees>41.57686184160411357879638671875</LatitudeDegrees>
              <LongitudeDegrees>-0.1251880824565887451171875</LongitudeDegrees>
            </Position>
            <AltitudeMeters>347.600006103515625</AltitudeMeters>
            <DistanceMeters>75374.802454587</DistanceMeters>
          </Trackpoint>
          <Trackpoint>
            <Time>2022-04-23T13:28:47.000Z</Time>
            <Position>
              <LatitudeDegrees>41.57705261372029781341552734375</LatitudeDegrees>
              <LongitudeDegrees>-0.1257379353046417236328125</LongitudeDegrees>
            </Position>
            <AltitudeMeters>347</AltitudeMeters>
            <DistanceMeters>75425.26826093</DistanceMeters>
          </Trackpoint>
          <Trackpoint>
            <Time>2022-04-23T13:28:55.000Z</Time>
            <Position>
              <LatitudeDegrees>41.5771936811506748199462890625</LatitudeDegrees>
              <LongitudeDegrees>-0.12619265355169773101806640625</LongitudeDegrees>
            </Position>
            <AltitudeMeters>347</AltitudeMeters>
            <DistanceMeters>75466.25507956</DistanceMeters>
          </Trackpoint>
          <Trackpoint>
            <Time>2022-04-23T13:29:07.000Z</Time>
            <Position>
              <LatitudeDegrees>41.57742326147854328155517578125</LatitudeDegrees>
              <LongitudeDegrees>-0.12686706148087978363037109375</LongitudeDegrees>
            </Position>
            <AltitudeMeters>347</AltitudeMeters>
            <DistanceMeters>75527.947473493</DistanceMeters>
          </Trackpoint>
          <Trackpoint>
            <Time>2022-04-23T13:29:16.000Z</Time>
            <Position>
              <LatitudeDegrees>41.5775802545249462127685546875</LatitudeDegrees>
              <LongitudeDegrees>-0.12734667398035526275634765625</LongitudeDegrees>
            </Position>
            <AltitudeMeters>347.79998779296875</AltitudeMeters>
            <DistanceMeters>75571.535948736</DistanceMeters>
          </Trackpoint>
          <Trackpoint>
            <Time>2022-04-23T13:29:23.000Z</Time>
            <Position>
              <LatitudeDegrees>41.577702462673187255859375</LatitudeDegrees>
              <LongitudeDegrees>-0.12771866284310817718505859375</LongitudeDegrees>
            </Position>
            <AltitudeMeters>348.399993896484375</AltitudeMeters>
            <DistanceMeters>75605.363056606</DistanceMeters>
          </Trackpoint>
          <Trackpoint>
            <Time>2022-04-23T13:29:25.000Z</Time>
            <Position>
              <LatitudeDegrees>41.5777351520955562591552734375</LatitudeDegrees>
              <LongitudeDegrees>-0.12783533893525600433349609375</LongitudeDegrees>
            </Position>
            <AltitudeMeters>348.399993896484375</AltitudeMeters>
            <DistanceMeters>75615.736649088</DistanceMeters>
          </Trackpoint>
          <Trackpoint>
            <Time>2022-04-23T13:29:26.000Z</Time>
            <Position>
              <LatitudeDegrees>41.577750407159328460693359375</LatitudeDegrees>
              <LongitudeDegrees>-0.1278892345726490020751953125</LongitudeDegrees>
            </Position>
            <AltitudeMeters>348.600006103515625</AltitudeMeters>
            <DistanceMeters>75620.534321946</DistanceMeters>
          </Trackpoint>
          <Trackpoint>
            <Time>2022-04-23T13:29:32.000Z</Time>
            <Position>
              <LatitudeDegrees>41.57785736024379730224609375</LatitudeDegrees>
              <LongitudeDegrees>-0.1281832717359066009521484375</LongitudeDegrees>
            </Position>
            <AltitudeMeters>350</AltitudeMeters>
            <DistanceMeters>75647.756448853</DistanceMeters>
          </Trackpoint>
          <Trackpoint>
            <Time>2022-04-23T13:29:40.000Z</Time>
            <Position>
              <LatitudeDegrees>41.57800463028252124786376953125</LatitudeDegrees>
              <LongitudeDegrees>-0.12858920730650424957275390625</LongitudeDegrees>
            </Position>
            <AltitudeMeters>350.399993896484375</AltitudeMeters>
            <DistanceMeters>75685.319536647</DistanceMeters>
          </Trackpoint>
          <Trackpoint>
            <Time>2022-04-23T13:29:49.000Z</Time>
            <Position>
              <LatitudeDegrees>41.57817679457366466522216796875</LatitudeDegrees>
              <LongitudeDegrees>-0.12906253337860107421875</LongitudeDegrees>
            </Position>
            <AltitudeMeters>349.79998779296875</AltitudeMeters>
            <DistanceMeters>75729.14014545</DistanceMeters>
          </Trackpoint>
          <Trackpoint>
            <Time>2022-04-23T13:30:01.000Z</Time>
            <Position>
              <LatitudeDegrees>41.57837879844009876251220703125</LatitudeDegrees>
              <LongitudeDegrees>-0.12968321330845355987548828125</LongitudeDegrees>
            </Position>
            <AltitudeMeters>350.399993896484375</AltitudeMeters>
            <DistanceMeters>75785.496675567</DistanceMeters>
          </Trackpoint>
          <Trackpoint>
            <Time>2022-04-23T13:30:05.000Z</Time>
            <Position>
              <LatitudeDegrees>41.57844887115061283111572265625</LatitudeDegrees>
              <LongitudeDegrees>-0.12990533374249935150146484375</LongitudeDegrees>
            </Position>
            <AltitudeMeters>351</AltitudeMeters>
            <DistanceMeters>75805.567343473</DistanceMeters>
          </Trackpoint>
          <Trackpoint>
            <Time>2022-04-23T13:30:09.000Z</Time>
            <Position>
              <LatitudeDegrees>41.57852590084075927734375</LatitudeDegrees>
              <LongitudeDegrees>-0.130121670663356781005859375</LongitudeDegrees>
            </Position>
            <AltitudeMeters>351.399993896484375</AltitudeMeters>
            <DistanceMeters>75825.515712046</DistanceMeters>
          </Trackpoint>
          <Trackpoint>
            <Time>2022-04-23T13:30:20.000Z</Time>
            <Position>
              <LatitudeDegrees>41.5786645375192165374755859375</LatitudeDegrees>
              <LongitudeDegrees>-0.1307397522032260894775390625</LongitudeDegrees>
            </Position>
            <AltitudeMeters>351.399993896484375</AltitudeMeters>
            <DistanceMeters>75879.240273321</DistanceMeters>
          </Trackpoint>
          <Trackpoint>
            <Time>2022-04-23T13:30:30.000Z</Time>
            <Position>
              <LatitudeDegrees>41.5788020007312297821044921875</LatitudeDegrees>
              <LongitudeDegrees>-0.13131282292306423187255859375</LongitudeDegrees>
            </Position>
            <AltitudeMeters>351.79998779296875</AltitudeMeters>
            <DistanceMeters>75929.346482055</DistanceMeters>
          </Trackpoint>
          <Trackpoint>
            <Time>2022-04-23T13:30:32.000Z</Time>
            <Position>
              <LatitudeDegrees>41.57887249253690242767333984375</LatitudeDegrees>
              <LongitudeDegrees>-0.1313973963260650634765625</LongitudeDegrees>
            </Position>
            <AltitudeMeters>351.79998779296875</AltitudeMeters>
            <DistanceMeters>75939.888881254</DistanceMeters>
          </Trackpoint>
          <Trackpoint>
            <Time>2022-04-23T13:30:33.000Z</Time>
            <Position>
              <LatitudeDegrees>41.5789056010544300079345703125</LatitudeDegrees>
              <LongitudeDegrees>-0.13140753842890262603759765625</LongitudeDegrees>
            </Position>
            <AltitudeMeters>351.79998779296875</AltitudeMeters>
            <DistanceMeters>75943.669702727</DistanceMeters>
          </Trackpoint>
          <Trackpoint>
            <Time>2022-04-23T13:30:34.000Z</Time>
            <Position>
              <LatitudeDegrees>41.5789475105702877044677734375</LatitudeDegrees>
              <LongitudeDegrees>-0.1314133219420909881591796875</LongitudeDegrees>
            </Position>
            <AltitudeMeters>351.600006103515625</AltitudeMeters>
            <DistanceMeters>75948.359827056</DistanceMeters>
          </Trackpoint>
          <Trackpoint>
            <Time>2022-04-23T13:30:37.000Z</Time>
            <Position>
              <LatitudeDegrees>41.57906326465308666229248046875</LatitudeDegrees>
              <LongitudeDegrees>-0.13138272799551486968994140625</LongitudeDegrees>
            </Position>
            <AltitudeMeters>351.399993896484375</AltitudeMeters>
            <DistanceMeters>75961.492780268</DistanceMeters>
          </Trackpoint>
          <Trackpoint>
            <Time>2022-04-23T13:30:43.000Z</Time>
            <Position>
              <LatitudeDegrees>41.57928270287811756134033203125</LatitudeDegrees>
              <LongitudeDegrees>-0.1312664709985256195068359375</LongitudeDegrees>
            </Position>
            <AltitudeMeters>350.399993896484375</AltitudeMeters>
            <DistanceMeters>75987.764530551</DistanceMeters>
          </Trackpoint>
          <Trackpoint>
            <Time>2022-04-23T13:30:46.000Z</Time>
            <Position>
              <LatitudeDegrees>41.579382531344890594482421875</LatitudeDegrees>
              <LongitudeDegrees>-0.131216347217559814453125</LongitudeDegrees>
            </Position>
            <AltitudeMeters>350.399993896484375</AltitudeMeters>
            <DistanceMeters>75999.633363372</DistanceMeters>
          </Trackpoint>
          <Trackpoint>
            <Time>2022-04-23T13:30:57.000Z</Time>
            <Position>
              <LatitudeDegrees>41.57978461124002933502197265625</LatitudeDegrees>
              <LongitudeDegrees>-0.1310327835381031036376953125</LongitudeDegrees>
            </Position>
            <AltitudeMeters>351.399993896484375</AltitudeMeters>
            <DistanceMeters>76046.923262416</DistanceMeters>
          </Trackpoint>
          <Trackpoint>
            <Time>2022-04-23T13:31:02.000Z</Time>
            <Position>
              <LatitudeDegrees>41.5799582004547119140625</LatitudeDegrees>
              <LongitudeDegrees>-0.13095877133309841156005859375</LongitudeDegrees>
            </Position>
            <AltitudeMeters>352.399993896484375</AltitudeMeters>
            <DistanceMeters>76067.202951802</DistanceMeters>
          </Trackpoint>
          <Trackpoint>
            <Time>2022-04-23T13:31:05.000Z</Time>
            <Position>
              <LatitudeDegrees>41.5800656564533710479736328125</LatitudeDegrees>
              <LongitudeDegrees>-0.13091116212308406829833984375</LongitudeDegrees>
            </Position>
            <AltitudeMeters>353</AltitudeMeters>
            <DistanceMeters>76079.8032218</DistanceMeters>
          </Trackpoint>
          <Trackpoint>
            <Time>2022-04-23T13:31:06.000Z</Time>
            <Position>
              <LatitudeDegrees>41.5801015309989452362060546875</LatitudeDegrees>
              <LongitudeDegrees>-0.130892805755138397216796875</LongitudeDegrees>
            </Position>
            <AltitudeMeters>353.600006103515625</AltitudeMeters>
            <DistanceMeters>76084.078367964</DistanceMeters>
          </Trackpoint>
          <Trackpoint>
            <Time>2022-04-23T13:31:09.000Z</Time>
            <Position>
              <LatitudeDegrees>41.58020990900695323944091796875</LatitudeDegrees>
              <LongitudeDegrees>-0.130841843783855438232421875</LongitudeDegrees>
            </Position>
            <AltitudeMeters>354.600006103515625</AltitudeMeters>
            <DistanceMeters>76096.865376769</DistanceMeters>
          </Trackpoint>
          <Trackpoint>
            <Time>2022-04-23T13:31:13.000Z</Time>
            <Position>
              <LatitudeDegrees>41.58035323955118656158447265625</LatitudeDegrees>
              <LongitudeDegrees>-0.1307655684649944305419921875</LongitudeDegrees>
            </Position>
            <AltitudeMeters>356.20001220703125</AltitudeMeters>
            <DistanceMeters>76114.035523412</DistanceMeters>
          </Trackpoint>
          <Trackpoint>
            <Time>2022-04-23T13:31:15.000Z</Time>
            <Position>
              <LatitudeDegrees>41.58042448572814464569091796875</LatitudeDegrees>
              <LongitudeDegrees>-0.13072910718619823455810546875</LongitudeDegrees>
            </Position>
            <AltitudeMeters>356.600006103515625</AltitudeMeters>
            <DistanceMeters>76122.52646743</DistanceMeters>
          </Trackpoint>
          <Trackpoint>
            <Time>2022-04-23T13:31:19.000Z</Time>
            <Position>
              <LatitudeDegrees>41.58056982792913913726806640625</LatitudeDegrees>
              <LongitudeDegrees>-0.13066523708403110504150390625</LongitudeDegrees>
            </Position>
            <AltitudeMeters>357.20001220703125</AltitudeMeters>
            <DistanceMeters>76139.554554658</DistanceMeters>
          </Trackpoint>
          <Trackpoint>
            <Time>2022-04-23T13:31:23.000Z</Time>
            <Position>
              <LatitudeDegrees>41.5807221271097660064697265625</LatitudeDegrees>
              <LongitudeDegrees>-0.13060807250440120697021484375</LongitudeDegrees>
            </Position>
            <AltitudeMeters>358.399993896484375</AltitudeMeters>
            <DistanceMeters>76157.160930326</DistanceMeters>
          </Trackpoint>
          <Trackpoint>
            <Time>2022-04-23T13:31:25.000Z</Time>
            <Position>
              <LatitudeDegrees>41.58079974353313446044921875</LatitudeDegrees>
              <LongitudeDegrees>-0.1305831782519817352294921875</LongitudeDegrees>
            </Position>
            <AltitudeMeters>358.79998779296875</AltitudeMeters>
            <DistanceMeters>76166.044784676</DistanceMeters>
          </Trackpoint>
          <Trackpoint>
            <Time>2022-04-23T13:31:29.000Z</Time>
            <Position>
              <LatitudeDegrees>41.58096595667302608489990234375</LatitudeDegrees>
              <LongitudeDegrees>-0.13054286129772663116455078125</LongitudeDegrees>
            </Position>
            <AltitudeMeters>359.399993896484375</AltitudeMeters>
            <DistanceMeters>76184.846871335</DistanceMeters>
          </Trackpoint>
          <Trackpoint>
            <Time>2022-04-23T13:31:32.000Z</Time>
            <Position>
              <LatitudeDegrees>41.5810879133641719818115234375</LatitudeDegrees>
              <LongitudeDegrees>-0.13052626512944698333740234375</LongitudeDegrees>
            </Position>
            <AltitudeMeters>359.79998779296875</AltitudeMeters>
            <DistanceMeters>76198.491066289</DistanceMeters>
          </Trackpoint>
          <Trackpoint>
            <Time>2022-04-23T13:31:36.000Z</Time>
            <Position>
              <LatitudeDegrees>41.58125965856015682220458984375</LatitudeDegrees>
              <LongitudeDegrees>-0.13054537586867809295654296875</LongitudeDegrees>
            </Position>
            <AltitudeMeters>360</AltitudeMeters>
            <DistanceMeters>76217.672344522</DistanceMeters>
          </Trackpoint>
          <Trackpoint>
            <Time>2022-04-23T13:31:39.000Z</Time>
            <Position>
              <LatitudeDegrees>41.58137951977550983428955078125</LatitudeDegrees>
              <LongitudeDegrees>-0.130595751106739044189453125</LongitudeDegrees>
            </Position>
            <AltitudeMeters>360.399993896484375</AltitudeMeters>
            <DistanceMeters>76231.656454628</DistanceMeters>
          </Trackpoint>
          <Trackpoint>
            <Time>2022-04-23T13:31:43.000Z</Time>
            <Position>
              <LatitudeDegrees>41.5815365128219127655029296875</LatitudeDegrees>
              <LongitudeDegrees>-0.13066456653177738189697265625</LongitudeDegrees>
            </Position>
            <AltitudeMeters>360.600006103515625</AltitudeMeters>
            <DistanceMeters>76250.045290171</DistanceMeters>
          </Trackpoint>
          <Trackpoint>
            <Time>2022-04-23T13:31:47.000Z</Time>
            <Position>
              <LatitudeDegrees>41.58168646506965160369873046875</LatitudeDegrees>
              <LongitudeDegrees>-0.130751319229602813720703125</LongitudeDegrees>
            </Position>
            <AltitudeMeters>361.20001220703125</AltitudeMeters>
            <DistanceMeters>76268.231178924</DistanceMeters>
          </Trackpoint>
          <Trackpoint>
            <Time>2022-04-23T13:31:48.000Z</Time>
            <Position>
              <LatitudeDegrees>41.5817215852439403533935546875</LatitudeDegrees>
              <LongitudeDegrees>-0.13077436946332454681396484375</LongitudeDegrees>
            </Position>
            <AltitudeMeters>361.600006103515625</AltitudeMeters>
            <DistanceMeters>76272.585850041</DistanceMeters>
          </Trackpoint>
          <Trackpoint>
            <Time>2022-04-23T13:31:50.000Z</Time>
            <Position>
              <LatitudeDegrees>41.58179752528667449951171875</LatitudeDegrees>
              <LongitudeDegrees>-0.13081560842692852020263671875</LongitudeDegrees>
            </Position>
            <AltitudeMeters>361.79998779296875</AltitudeMeters>
            <DistanceMeters>76281.708909538</DistanceMeters>
          </Trackpoint>
          <Trackpoint>
            <Time>2022-04-23T13:31:55.000Z</Time>
            <Position>
              <LatitudeDegrees>41.58200313337147235870361328125</LatitudeDegrees>
              <LongitudeDegrees>-0.13092868030071258544921875</LongitudeDegrees>
            </Position>
            <AltitudeMeters>362.399993896484375</AltitudeMeters>
            <DistanceMeters>76306.454201689</DistanceMeters>
          </Trackpoint>
          <Trackpoint>
            <Time>2022-04-23T13:32:02.000Z</Time>
            <Position>
              <LatitudeDegrees>41.58233170397579669952392578125</LatitudeDegrees>
              <LongitudeDegrees>-0.1310974918305873870849609375</LongitudeDegrees>
            </Position>
            <AltitudeMeters>363</AltitudeMeters>
            <DistanceMeters>76345.632414945</DistanceMeters>
          </Trackpoint>
          <Trackpoint>
            <Time>2022-04-23T13:32:08.000Z</Time>
            <Position>
              <LatitudeDegrees>41.58262004144489765167236328125</LatitudeDegrees>
              <LongitudeDegrees>-0.13123872689902782440185546875</LongitudeDegrees>
            </Position>
            <AltitudeMeters>364</AltitudeMeters>
            <DistanceMeters>76379.811134483</DistanceMeters>
          </Trackpoint>
          <Trackpoint>
            <Time>2022-04-23T13:32:09.000Z</Time>
            <Position>
              <LatitudeDegrees>41.58266723155975341796875</LatitudeDegrees>
              <LongitudeDegrees>-0.13126102276146411895751953125</LongitudeDegrees>
            </Position>
            <AltitudeMeters>364</AltitudeMeters>
            <DistanceMeters>76385.382164257</DistanceMeters>
          </Trackpoint>
          <Trackpoint>
            <Time>2022-04-23T13:32:11.000Z</Time>
            <Position>
              <LatitudeDegrees>41.5827606059610843658447265625</LatitudeDegrees>
              <LongitudeDegrees>-0.131309218704700469970703125</LongitudeDegrees>
            </Position>
            <AltitudeMeters>364.20001220703125</AltitudeMeters>
            <DistanceMeters>76396.523008063</DistanceMeters>
          </Trackpoint>
          <Trackpoint>
            <Time>2022-04-23T13:32:19.000Z</Time>
            <Position>
              <LatitudeDegrees>41.58314374275505542755126953125</LatitudeDegrees>
              <LongitudeDegrees>-0.1315196044743061065673828125</LongitudeDegrees>
            </Position>
            <AltitudeMeters>364.20001220703125</AltitudeMeters>
            <DistanceMeters>76442.62389419</DistanceMeters>
          </Trackpoint>
          <Trackpoint>
            <Time>2022-04-23T13:32:28.000Z</Time>
            <Position>
              <LatitudeDegrees>41.58358144573867321014404296875</LatitudeDegrees>
              <LongitudeDegrees>-0.131706185638904571533203125</LongitudeDegrees>
            </Position>
            <AltitudeMeters>363.600006103515625</AltitudeMeters>
            <DistanceMeters>76493.757538733</DistanceMeters>
          </Trackpoint>
          <Trackpoint>
            <Time>2022-04-23T13:32:29.000Z</Time>
            <Position>
              <LatitudeDegrees>41.5836309827864170074462890625</LatitudeDegrees>
              <LongitudeDegrees>-0.13171833939850330352783203125</LongitudeDegrees>
            </Position>
            <AltitudeMeters>363.600006103515625</AltitudeMeters>
            <DistanceMeters>76499.364114881</DistanceMeters>
          </Trackpoint>
          <Trackpoint>
            <Time>2022-04-23T13:32:31.000Z</Time>
            <Position>
              <LatitudeDegrees>41.58373181708157062530517578125</LatitudeDegrees>
              <LongitudeDegrees>-0.1317291520535945892333984375</LongitudeDegrees>
            </Position>
            <AltitudeMeters>363.600006103515625</AltitudeMeters>
            <DistanceMeters>76510.623076339</DistanceMeters>
          </Trackpoint>
          <Trackpoint>
            <Time>2022-04-23T13:32:34.000Z</Time>
            <Position>
              <LatitudeDegrees>41.58388252370059490203857421875</LatitudeDegrees>
              <LongitudeDegrees>-0.1317164115607738494873046875</LongitudeDegrees>
            </Position>
            <AltitudeMeters>364</AltitudeMeters>
            <DistanceMeters>76527.430720775</DistanceMeters>
          </Trackpoint>
          <Trackpoint>
            <Time>2022-04-23T13:32:42.000Z</Time>
            <Position>
              <LatitudeDegrees>41.58427345566451549530029296875</LatitudeDegrees>
              <LongitudeDegrees>-0.13158925808966159820556640625</LongitudeDegrees>
            </Position>
            <AltitudeMeters>364.399993896484375</AltitudeMeters>
            <DistanceMeters>76572.211196607</DistanceMeters>
          </Trackpoint>
          <Trackpoint>
            <Time>2022-04-23T13:32:43.000Z</Time>
            <Position>
              <LatitudeDegrees>41.58432072959840297698974609375</LatitudeDegrees>
              <LongitudeDegrees>-0.13156310655176639556884765625</LongitudeDegrees>
            </Position>
            <AltitudeMeters>364.399993896484375</AltitudeMeters>
            <DistanceMeters>76577.905668006</DistanceMeters>
          </Trackpoint>
          <Trackpoint>
            <Time>2022-04-23T13:32:49.000Z</Time>
            <Position>
              <LatitudeDegrees>41.5845959074795246124267578125</LatitudeDegrees>
              <LongitudeDegrees>-0.13138574548065662384033203125</LongitudeDegrees>
            </Position>
            <AltitudeMeters>364.399993896484375</AltitudeMeters>
            <DistanceMeters>76611.906911613</DistanceMeters>
          </Trackpoint>
          <Trackpoint>
            <Time>2022-04-23T13:32:55.000Z</Time>
            <Position>
              <LatitudeDegrees>41.58486890606582164764404296875</LatitudeDegrees>
              <LongitudeDegrees>-0.13123554177582263946533203125</LongitudeDegrees>
            </Position>
            <AltitudeMeters>365.20001220703125</AltitudeMeters>
            <DistanceMeters>76644.764725594</DistanceMeters>
          </Trackpoint>
          <Trackpoint>
            <Time>2022-04-23T13:32:56.000Z</Time>
            <Position>
              <LatitudeDegrees>41.584911234676837921142578125</LatitudeDegrees>
              <LongitudeDegrees>-0.13121073134243488311767578125</LongitudeDegrees>
            </Position>
            <AltitudeMeters>365.20001220703125</AltitudeMeters>
            <DistanceMeters>76649.909349395</DistanceMeters>
          </Trackpoint>
          <Trackpoint>
            <Time>2022-04-23T13:33:01.000Z</Time>
            <Position>
              <LatitudeDegrees>41.58511214889585971832275390625</LatitudeDegrees>
              <LongitudeDegrees>-0.1310971565544605255126953125</LongitudeDegrees>
            </Position>
            <AltitudeMeters>366.20001220703125</AltitudeMeters>
            <DistanceMeters>76674.188256498</DistanceMeters>
          </Trackpoint>
          <Trackpoint>
            <Time>2022-04-23T13:33:04.000Z</Time>
            <Position>
              <LatitudeDegrees>41.585219018161296844482421875</LatitudeDegrees>
              <LongitudeDegrees>-0.13102792203426361083984375</LongitudeDegrees>
            </Position>
            <AltitudeMeters>366.399993896484375</AltitudeMeters>
            <DistanceMeters>76687.406195787</DistanceMeters>
          </Trackpoint>
          <Trackpoint>
            <Time>2022-04-23T13:33:08.000Z</Time>
            <Position>
              <LatitudeDegrees>41.5853586606681346893310546875</LatitudeDegrees>
              <LongitudeDegrees>-0.13094477355480194091796875</LongitudeDegrees>
            </Position>
            <AltitudeMeters>367.20001220703125</AltitudeMeters>
            <DistanceMeters>76704.420489502</DistanceMeters>
          </Trackpoint>
          <Trackpoint>
            <Time>2022-04-23T13:33:10.000Z</Time>
            <Position>
              <LatitudeDegrees>41.5854297392070293426513671875</LatitudeDegrees>
              <LongitudeDegrees>-0.13090194202959537506103515625</LongitudeDegrees>
            </Position>
            <AltitudeMeters>367.600006103515625</AltitudeMeters>
            <DistanceMeters>76713.098671198</DistanceMeters>
          </Trackpoint>
          <Trackpoint>
            <Time>2022-04-23T13:33:13.000Z</Time>
            <Position>
              <LatitudeDegrees>41.5855407156050205230712890625</LatitudeDegrees>
              <LongitudeDegrees>-0.13084377162158489227294921875</LongitudeDegrees>
            </Position>
            <AltitudeMeters>368.399993896484375</AltitudeMeters>
            <DistanceMeters>76726.366047733</DistanceMeters>
          </Trackpoint>
          <Trackpoint>
            <Time>2022-04-23T13:33:19.000Z</Time>
            <Position>
              <LatitudeDegrees>41.5857616625726222991943359375</LatitudeDegrees>
              <LongitudeDegrees>-0.13072558678686618804931640625</LongitudeDegrees>
            </Position>
            <AltitudeMeters>369.20001220703125</AltitudeMeters>
            <DistanceMeters>76752.853114371</DistanceMeters>
          </Trackpoint>
          <Trackpoint>
            <Time>2022-04-23T13:33:22.000Z</Time>
            <Position>
              <LatitudeDegrees>41.58586031757295131683349609375</LatitudeDegrees>
              <LongitudeDegrees>-0.13067395426332950592041015625</LongitudeDegrees>
            </Position>
            <AltitudeMeters>369.600006103515625</AltitudeMeters>
            <DistanceMeters>76764.644853729</DistanceMeters>
          </Trackpoint>
          <Trackpoint>
            <Time>2022-04-23T13:33:28.000Z</Time>
            <Position>
              <LatitudeDegrees>41.58607120625674724578857421875</LatitudeDegrees>
              <LongitudeDegrees>-0.13055409304797649383544921875</LongitudeDegrees>
            </Position>
            <AltitudeMeters>370.600006103515625</AltitudeMeters>
            <DistanceMeters>76790.150101757</DistanceMeters>
          </Trackpoint>
          <Trackpoint>
            <Time>2022-04-23T13:33:30.000Z</Time>
            <Position>
              <LatitudeDegrees>41.58613524399697780609130859375</LatitudeDegrees>
              <LongitudeDegrees>-0.1305198110640048980712890625</LongitudeDegrees>
            </Position>
            <AltitudeMeters>370.79998779296875</AltitudeMeters>
            <DistanceMeters>76797.827883925</DistanceMeters>
          </Trackpoint>
          <Trackpoint>
            <Time>2022-04-23T13:33:36.000Z</Time>
            <Position>
              <LatitudeDegrees>41.58633984625339508056640625</LatitudeDegrees>
              <LongitudeDegrees>-0.1304108463227748870849609375</LongitudeDegrees>
            </Position>
            <AltitudeMeters>371.79998779296875</AltitudeMeters>
            <DistanceMeters>76822.340724371</DistanceMeters>
          </Trackpoint>
          <Trackpoint>
            <Time>2022-04-23T13:33:40.000Z</Time>
            <Position>
              <LatitudeDegrees>41.5864737890660762786865234375</LatitudeDegrees>
              <LongitudeDegrees>-0.130336582660675048828125</LongitudeDegrees>
            </Position>
            <AltitudeMeters>372.399993896484375</AltitudeMeters>
            <DistanceMeters>76838.479606766</DistanceMeters>
          </Trackpoint>
          <Trackpoint>
            <Time>2022-04-23T13:33:43.000Z</Time>
            <Position>
              <LatitudeDegrees>41.5865703485906124114990234375</LatitudeDegrees>
              <LongitudeDegrees>-0.13028201647102832794189453125</LongitudeDegrees>
            </Position>
            <AltitudeMeters>373</AltitudeMeters>
            <DistanceMeters>76850.147014464</DistanceMeters>
          </Trackpoint>
          <Trackpoint>
            <Time>2022-04-23T13:33:46.000Z</Time>
            <Position>
              <LatitudeDegrees>41.5866555087268352508544921875</LatitudeDegrees>
              <LongitudeDegrees>-0.130238346755504608154296875</LongitudeDegrees>
            </Position>
            <AltitudeMeters>374</AltitudeMeters>
            <DistanceMeters>76860.298429753</DistanceMeters>
          </Trackpoint>
          <Trackpoint>
            <Time>2022-04-23T13:33:49.000Z</Time>
            <Position>
              <LatitudeDegrees>41.5867587737739086151123046875</LatitudeDegrees>
              <LongitudeDegrees>-0.13018034398555755615234375</LongitudeDegrees>
            </Position>
            <AltitudeMeters>375</AltitudeMeters>
            <DistanceMeters>76872.765051015</DistanceMeters>
          </Trackpoint>
          <Trackpoint>
            <Time>2022-04-23T13:33:50.000Z</Time>
            <Position>
              <LatitudeDegrees>41.586792804300785064697265625</LatitudeDegrees>
              <LongitudeDegrees>-0.1301610656082630157470703125</LongitudeDegrees>
            </Position>
            <AltitudeMeters>375.399993896484375</AltitudeMeters>
            <DistanceMeters>76876.878731029</DistanceMeters>
          </Trackpoint>
          <Trackpoint>
            <Time>2022-04-23T13:33:56.000Z</Time>
            <Position>
              <LatitudeDegrees>41.58698449842631816864013671875</LatitudeDegrees>
              <LongitudeDegrees>-0.13004631735384464263916015625</LongitudeDegrees>
            </Position>
            <AltitudeMeters>376.399993896484375</AltitudeMeters>
            <DistanceMeters>76900.255689048</DistanceMeters>
          </Trackpoint>
          <Trackpoint>
            <Time>2022-04-23T13:33:57.000Z</Time>
            <Position>
              <LatitudeDegrees>41.587017439305782318115234375</LatitudeDegrees>
              <LongitudeDegrees>-0.13002787716686725616455078125</LongitudeDegrees>
            </Position>
            <AltitudeMeters>376.600006103515625</AltitudeMeters>
            <DistanceMeters>76904.229805767</DistanceMeters>
          </Trackpoint>
          <Trackpoint>
            <Time>2022-04-23T13:34:01.000Z</Time>
            <Position>
              <LatitudeDegrees>41.5871580876410007476806640625</LatitudeDegrees>
              <LongitudeDegrees>-0.12996769510209560394287109375</LongitudeDegrees>
            </Position>
            <AltitudeMeters>377.600006103515625</AltitudeMeters>
            <DistanceMeters>76920.666405995</DistanceMeters>
          </Trackpoint>
          <Trackpoint>
            <Time>2022-04-23T13:34:03.000Z</Time>
            <Position>
              <LatitudeDegrees>41.58721734769642353057861328125</LatitudeDegrees>
              <LongitudeDegrees>-0.12993969954550266265869140625</LongitudeDegrees>
            </Position>
            <AltitudeMeters>378</AltitudeMeters>
            <DistanceMeters>76927.662334406</DistanceMeters>
          </Trackpoint>
          <Trackpoint>
            <Time>2022-04-23T13:34:06.000Z</Time>
            <Position>
              <LatitudeDegrees>41.58731038682162761688232421875</LatitudeDegrees>
              <LongitudeDegrees>-0.12988270260393619537353515625</LongitudeDegrees>
            </Position>
            <AltitudeMeters>378.600006103515625</AltitudeMeters>
            <DistanceMeters>76939.052862855</DistanceMeters>
          </Trackpoint>
          <Trackpoint>
            <Time>2022-04-23T13:34:10.000Z</Time>
            <Position>
              <LatitudeDegrees>41.58744097687304019927978515625</LatitudeDegrees>
              <LongitudeDegrees>-0.12980827130377292633056640625</LongitudeDegrees>
            </Position>
            <AltitudeMeters>379.79998779296875</AltitudeMeters>
            <DistanceMeters>76954.853608202</DistanceMeters>
          </Trackpoint>
          <Trackpoint>
            <Time>2022-04-23T13:34:13.000Z</Time>
            <Position>
              <LatitudeDegrees>41.587539799511432647705078125</LatitudeDegrees>
              <LongitudeDegrees>-0.129757225513458251953125</LongitudeDegrees>
            </Position>
            <AltitudeMeters>380.20001220703125</AltitudeMeters>
            <DistanceMeters>76966.64534756</DistanceMeters>
          </Trackpoint>
          <Trackpoint>
            <Time>2022-04-23T13:34:16.000Z</Time>
            <Position>
              <LatitudeDegrees>41.58764566294848918914794921875</LatitudeDegrees>
              <LongitudeDegrees>-0.12969561852514743804931640625</LongitudeDegrees>
            </Position>
            <AltitudeMeters>380.79998779296875</AltitudeMeters>
            <DistanceMeters>76979.496107771</DistanceMeters>
          </Trackpoint>
          <Trackpoint>
            <Time>2022-04-23T13:34:18.000Z</Time>
            <Position>
              <LatitudeDegrees>41.587706767022609710693359375</LatitudeDegrees>
              <LongitudeDegrees>-0.1296786032617092132568359375</LongitudeDegrees>
            </Position>
            <AltitudeMeters>381</AltitudeMeters>
            <DistanceMeters>76986.442814078</DistanceMeters>
          </Trackpoint>
          <Trackpoint>
            <Time>2022-04-23T13:34:20.000Z</Time>
            <Position>
              <LatitudeDegrees>41.58777859993278980255126953125</LatitudeDegrees>
              <LongitudeDegrees>-0.12964163906872272491455078125</LongitudeDegrees>
            </Position>
            <AltitudeMeters>381.79998779296875</AltitudeMeters>
            <DistanceMeters>76995.008933455</DistanceMeters>
          </Trackpoint>
          <Trackpoint>
            <Time>2022-04-23T13:34:25.000Z</Time>
            <Position>
              <LatitudeDegrees>41.58798077143728733062744140625</LatitudeDegrees>
              <LongitudeDegrees>-0.12950752861797809600830078125</LongitudeDegrees>
            </Position>
            <AltitudeMeters>383</AltitudeMeters>
            <DistanceMeters>77020.12836063</DistanceMeters>
          </Trackpoint>
          <Trackpoint>
            <Time>2022-04-23T13:34:26.000Z</Time>
            <Position>
              <LatitudeDegrees>41.588011868298053741455078125</LatitudeDegrees>
              <LongitudeDegrees>-0.12948623858392238616943359375</LongitudeDegrees>
            </Position>
            <AltitudeMeters>383.20001220703125</AltitudeMeters>
            <DistanceMeters>77024.01633542</DistanceMeters>
          </Trackpoint>
          <Trackpoint>
            <Time>2022-04-23T13:34:31.000Z</Time>
            <Position>
              <LatitudeDegrees>41.5882246010005474090576171875</LatitudeDegrees>
              <LongitudeDegrees>-0.129378698766231536865234375</LongitudeDegrees>
            </Position>
            <AltitudeMeters>384</AltitudeMeters>
            <DistanceMeters>77049.329854031</DistanceMeters>
          </Trackpoint>
          <Trackpoint>
            <Time>2022-04-23T13:34:33.000Z</Time>
            <Position>
              <LatitudeDegrees>41.58831437118351459503173828125</LatitudeDegrees>
              <LongitudeDegrees>-0.1293374598026275634765625</LongitudeDegrees>
            </Position>
            <AltitudeMeters>384</AltitudeMeters>
            <DistanceMeters>77059.894927383</DistanceMeters>
          </Trackpoint>
          <Trackpoint>
            <Time>2022-04-23T13:34:34.000Z</Time>
            <Position>
              <LatitudeDegrees>41.58836114220321178436279296875</LatitudeDegrees>
              <LongitudeDegrees>-0.1293178461492061614990234375</LongitudeDegrees>
            </Position>
            <AltitudeMeters>384</AltitudeMeters>
            <DistanceMeters>77065.350487112</DistanceMeters>
          </Trackpoint>
          <Trackpoint>
            <Time>2022-04-23T13:34:38.000Z</Time>
            <Position>
              <LatitudeDegrees>41.5885568596422672271728515625</LatitudeDegrees>
              <LongitudeDegrees>-0.12922774069011211395263671875</LongitudeDegrees>
            </Position>
            <AltitudeMeters>384</AltitudeMeters>
            <DistanceMeters>77088.389713521</DistanceMeters>
          </Trackpoint>
          <Trackpoint>
            <Time>2022-04-23T13:34:39.000Z</Time>
            <Position>
              <LatitudeDegrees>41.588609330356121063232421875</LatitudeDegrees>
              <LongitudeDegrees>-0.1291968114674091339111328125</LongitudeDegrees>
            </Position>
            <AltitudeMeters>383.79998779296875</AltitudeMeters>
            <DistanceMeters>77094.772085716</DistanceMeters>
          </Trackpoint>
          <Trackpoint>
            <Time>2022-04-23T13:34:43.000Z</Time>
            <Position>
              <LatitudeDegrees>41.58886355347931385040283203125</LatitudeDegrees>
              <LongitudeDegrees>-0.12905557639896869659423828125</LongitudeDegrees>
            </Position>
            <AltitudeMeters>383</AltitudeMeters>
            <DistanceMeters>77125.41300734</DistanceMeters>
          </Trackpoint>
          <Trackpoint>
            <Time>2022-04-23T13:34:44.000Z</Time>
            <Position>
              <LatitudeDegrees>41.58893764950335025787353515625</LatitudeDegrees>
              <LongitudeDegrees>-0.1290127448737621307373046875</LongitudeDegrees>
            </Position>
            <AltitudeMeters>382.79998779296875</AltitudeMeters>
            <DistanceMeters>77134.397932682</DistanceMeters>
          </Trackpoint>
          <Trackpoint>
            <Time>2022-04-23T13:34:47.000Z</Time>
            <Position>
              <LatitudeDegrees>41.58917921595275402069091796875</LatitudeDegrees>
              <LongitudeDegrees>-0.12887268327176570892333984375</LongitudeDegrees>
            </Position>
            <AltitudeMeters>381.600006103515625</AltitudeMeters>
            <DistanceMeters>77163.703776987</DistanceMeters>
          </Trackpoint>
          <Trackpoint>
            <Time>2022-04-23T13:34:49.000Z</Time>
            <Position>
              <LatitudeDegrees>41.58935506828129291534423828125</LatitudeDegrees>
              <LongitudeDegrees>-0.12876992113888263702392578125</LongitudeDegrees>
            </Position>
            <AltitudeMeters>381</AltitudeMeters>
            <DistanceMeters>77185.064294363</DistanceMeters>
          </Trackpoint>
          <Trackpoint>
            <Time>2022-04-23T13:34:51.000Z</Time>
            <Position>
              <LatitudeDegrees>41.5895348601043224334716796875</LatitudeDegrees>
              <LongitudeDegrees>-0.128666572272777557373046875</LongitudeDegrees>
            </Position>
            <AltitudeMeters>380.20001220703125</AltitudeMeters>
            <DistanceMeters>77206.846772107</DistanceMeters>
          </Trackpoint>
          <Trackpoint>
            <Time>2022-04-23T13:34:54.000Z</Time>
            <Position>
              <LatitudeDegrees>41.58980567939579486846923828125</LatitudeDegrees>
              <LongitudeDegrees>-0.128510333597660064697265625</LongitudeDegrees>
            </Position>
            <AltitudeMeters>378.79998779296875</AltitudeMeters>
            <DistanceMeters>77239.675717012</DistanceMeters>
          </Trackpoint>
          <Trackpoint>
            <Time>2022-04-23T13:34:55.000Z</Time>
            <Position>
              <LatitudeDegrees>41.58989603631198406219482421875</LatitudeDegrees>
              <LongitudeDegrees>-0.128459036350250244140625</LongitudeDegrees>
            </Position>
            <AltitudeMeters>378.399993896484375</AltitudeMeters>
            <DistanceMeters>77250.601723172</DistanceMeters>
          </Trackpoint>
          <Trackpoint>
            <Time>2022-04-23T13:34:56.000Z</Time>
            <Position>
              <LatitudeDegrees>41.58998723141849040985107421875</LatitudeDegrees>
              <LongitudeDegrees>-0.1284055598080158233642578125</LongitudeDegrees>
            </Position>
            <AltitudeMeters>377.79998779296875</AltitudeMeters>
            <DistanceMeters>77261.68486938</DistanceMeters>
          </Trackpoint>
          <Trackpoint>
            <Time>2022-04-23T13:34:59.000Z</Time>
            <Position>
              <LatitudeDegrees>41.59027053974568843841552734375</LatitudeDegrees>
              <LongitudeDegrees>-0.12826181016862392425537109375</LongitudeDegrees>
            </Position>
            <AltitudeMeters>376.600006103515625</AltitudeMeters>
            <DistanceMeters>77295.411723213</DistanceMeters>
          </Trackpoint>
          <Trackpoint>
            <Time>2022-04-23T13:35:00.000Z</Time>
            <Position>
              <LatitudeDegrees>41.59037263132631778717041015625</LatitudeDegrees>
              <LongitudeDegrees>-0.128219984471797943115234375</LongitudeDegrees>
            </Position>
            <AltitudeMeters>376.20001220703125</AltitudeMeters>
            <DistanceMeters>77307.295762744</DistanceMeters>
          </Trackpoint>
          <Trackpoint>
            <Time>2022-04-23T13:35:03.000Z</Time>
            <Position>
              <LatitudeDegrees>41.59068376757204532623291015625</LatitudeDegrees>
              <LongitudeDegrees>-0.12813138775527477264404296875</LongitudeDegrees>
            </Position>
            <AltitudeMeters>375.399993896484375</AltitudeMeters>
            <DistanceMeters>77342.702364566</DistanceMeters>
          </Trackpoint>
          <Trackpoint>
            <Time>2022-04-23T13:35:06.000Z</Time>
            <Position>
              <LatitudeDegrees>41.5910100750625133514404296875</LatitudeDegrees>
              <LongitudeDegrees>-0.12806433252990245819091796875</LongitudeDegrees>
            </Position>
            <AltitudeMeters>374.600006103515625</AltitudeMeters>
            <DistanceMeters>77379.4476112</DistanceMeters>
          </Trackpoint>
          <Trackpoint>
            <Time>2022-04-23T13:35:08.000Z</Time>
            <Position>
              <LatitudeDegrees>41.59122926183044910430908203125</LatitudeDegrees>
              <LongitudeDegrees>-0.12802443467080593109130859375</LongitudeDegrees>
            </Position>
            <AltitudeMeters>373.79998779296875</AltitudeMeters>
            <DistanceMeters>77404.068884357</DistanceMeters>
          </Trackpoint>
          <Trackpoint>
            <Time>2022-04-23T13:35:11.000Z</Time>
            <Position>
              <LatitudeDegrees>41.59156202338635921478271484375</LatitudeDegrees>
              <LongitudeDegrees>-0.12795838527381420135498046875</LongitudeDegrees>
            </Position>
            <AltitudeMeters>372.600006103515625</AltitudeMeters>
            <DistanceMeters>77441.511821586</DistanceMeters>
          </Trackpoint>
          <Trackpoint>
            <Time>2022-04-23T13:35:12.000Z</Time>
            <Position>
              <LatitudeDegrees>41.5916702337563037872314453125</LatitudeDegrees>
              <LongitudeDegrees>-0.12793374247848987579345703125</LongitudeDegrees>
            </Position>
            <AltitudeMeters>371.600006103515625</AltitudeMeters>
            <DistanceMeters>77453.729315749</DistanceMeters>
          </Trackpoint>
          <Trackpoint>
            <Time>2022-04-23T13:35:14.000Z</Time>
            <Position>
              <LatitudeDegrees>41.59186125732958316802978515625</LatitudeDegrees>
              <LongitudeDegrees>-0.12788345105946063995361328125</LongitudeDegrees>
            </Position>
            <AltitudeMeters>370</AltitudeMeters>
            <DistanceMeters>77475.39874064</DistanceMeters>
          </Trackpoint>
          <Trackpoint>
            <Time>2022-04-23T13:35:16.000Z</Time>
            <Position>
              <LatitudeDegrees>41.5920879878103733062744140625</LatitudeDegrees>
              <LongitudeDegrees>-0.12780834920704364776611328125</LongitudeDegrees>
            </Position>
            <AltitudeMeters>368.399993896484375</AltitudeMeters>
            <DistanceMeters>77501.397014657</DistanceMeters>
          </Trackpoint>
          <Trackpoint>
            <Time>2022-04-23T13:35:17.000Z</Time>
            <Position>
              <LatitudeDegrees>41.59219049848616123199462890625</LatitudeDegrees>
              <LongitudeDegrees>-0.12776895426213741302490234375</LongitudeDegrees>
            </Position>
            <AltitudeMeters>367.399993896484375</AltitudeMeters>
            <DistanceMeters>77513.268510059</DistanceMeters>
          </Trackpoint>
          <Trackpoint>
            <Time>2022-04-23T13:35:20.000Z</Time>
            <Position>
              <LatitudeDegrees>41.5924829430878162384033203125</LatitudeDegrees>
              <LongitudeDegrees>-0.12765948660671710968017578125</LongitudeDegrees>
            </Position>
            <AltitudeMeters>366.20001220703125</AltitudeMeters>
            <DistanceMeters>77547.069446907</DistanceMeters>
          </Trackpoint>
          <Trackpoint>
            <Time>2022-04-23T13:35:22.000Z</Time>
            <Position>
              <LatitudeDegrees>41.5926686860620975494384765625</LatitudeDegrees>
              <LongitudeDegrees>-0.12758907862007617950439453125</LongitudeDegrees>
            </Position>
            <AltitudeMeters>365.600006103515625</AltitudeMeters>
            <DistanceMeters>77568.557674589</DistanceMeters>
          </Trackpoint>
          <Trackpoint>
            <Time>2022-04-23T13:35:23.000Z</Time>
            <Position>
              <LatitudeDegrees>41.59276063553988933563232421875</LatitudeDegrees>
              <LongitudeDegrees>-0.12755714356899261474609375</LongitudeDegrees>
            </Position>
            <AltitudeMeters>365.20001220703125</AltitudeMeters>
            <DistanceMeters>77579.131718589</DistanceMeters>
          </Trackpoint>
          <Trackpoint>
            <Time>2022-04-23T13:35:27.000Z</Time>
            <Position>
              <LatitudeDegrees>41.5930887870490550994873046875</LatitudeDegrees>
              <LongitudeDegrees>-0.12743585743010044097900390625</LongitudeDegrees>
            </Position>
            <AltitudeMeters>365</AltitudeMeters>
            <DistanceMeters>77617.025341217</DistanceMeters>
          </Trackpoint>
          <Trackpoint>
            <Time>2022-04-23T13:35:32.000Z</Time>
            <Position>
              <LatitudeDegrees>41.59341643564403057098388671875</LatitudeDegrees>
              <LongitudeDegrees>-0.12729755602777004241943359375</LongitudeDegrees>
            </Position>
            <AltitudeMeters>366.79998779296875</AltitudeMeters>
            <DistanceMeters>77655.26718924</DistanceMeters>
          </Trackpoint>
          <Trackpoint>
            <Time>2022-04-23T13:35:35.000Z</Time>
            <Position>
              <LatitudeDegrees>41.5935860015451908111572265625</LatitudeDegrees>
              <LongitudeDegrees>-0.127237625420093536376953125</LongitudeDegrees>
            </Position>
            <AltitudeMeters>368.20001220703125</AltitudeMeters>
            <DistanceMeters>77674.788183732</DistanceMeters>
          </Trackpoint>
          <Trackpoint>
            <Time>2022-04-23T13:35:38.000Z</Time>
            <Position>
              <LatitudeDegrees>41.5937380492687225341796875</LatitudeDegrees>
              <LongitudeDegrees>-0.12717518024146556854248046875</LongitudeDegrees>
            </Position>
            <AltitudeMeters>368.600006103515625</AltitudeMeters>
            <DistanceMeters>77692.491484642</DistanceMeters>
          </Trackpoint>
          <Trackpoint>
            <Time>2022-04-23T13:35:44.000Z</Time>
            <Position>
              <LatitudeDegrees>41.59403099678456783294677734375</LatitudeDegrees>
              <LongitudeDegrees>-0.12706303037703037261962890625</LongitudeDegrees>
            </Position>
            <AltitudeMeters>368.79998779296875</AltitudeMeters>
            <DistanceMeters>77726.407103428</DistanceMeters>
          </Trackpoint>
          <Trackpoint>
            <Time>2022-04-23T13:35:46.000Z</Time>
            <Position>
              <LatitudeDegrees>41.59413057379424571990966796875</LatitudeDegrees>
              <LongitudeDegrees>-0.12702581472694873809814453125</LongitudeDegrees>
            </Position>
            <AltitudeMeters>369</AltitudeMeters>
            <DistanceMeters>77737.915148489</DistanceMeters>
          </Trackpoint>
          <Trackpoint>
            <Time>2022-04-23T13:35:48.000Z</Time>
            <Position>
              <LatitudeDegrees>41.59422813914716243743896484375</LatitudeDegrees>
              <LongitudeDegrees>-0.126989521086215972900390625</LongitudeDegrees>
            </Position>
            <AltitudeMeters>369.399993896484375</AltitudeMeters>
            <DistanceMeters>77749.186935196</DistanceMeters>
          </Trackpoint>
          <Trackpoint>
            <Time>2022-04-23T13:35:53.000Z</Time>
            <Position>
              <LatitudeDegrees>41.5944634191691875457763671875</LatitudeDegrees>
              <LongitudeDegrees>-0.126917771995067596435546875</LongitudeDegrees>
            </Position>
            <AltitudeMeters>369.79998779296875</AltitudeMeters>
            <DistanceMeters>77776.046400329</DistanceMeters>
          </Trackpoint>
          <Trackpoint>
            <Time>2022-04-23T13:35:55.000Z</Time>
            <Position>
              <LatitudeDegrees>41.59455788321793079376220703125</LatitudeDegrees>
              <LongitudeDegrees>-0.12688902206718921661376953125</LongitudeDegrees>
            </Position>
            <AltitudeMeters>370.20001220703125</AltitudeMeters>
            <DistanceMeters>77786.829315718</DistanceMeters>
          </Trackpoint>
          <Trackpoint>
            <Time>2022-04-23T13:35:56.000Z</Time>
            <Position>
              <LatitudeDegrees>41.594604067504405975341796875</LatitudeDegrees>
              <LongitudeDegrees>-0.1268716715276241302490234375</LongitudeDegrees>
            </Position>
            <AltitudeMeters>370.79998779296875</AltitudeMeters>
            <DistanceMeters>77792.168599503</DistanceMeters>
          </Trackpoint>
          <Trackpoint>
            <Time>2022-04-23T13:36:02.000Z</Time>
            <Position>
              <LatitudeDegrees>41.59488938748836517333984375</LatitudeDegrees>
              <LongitudeDegrees>-0.12676832266151905059814453125</LongitudeDegrees>
            </Position>
            <AltitudeMeters>372</AltitudeMeters>
            <DistanceMeters>77825.069806834</DistanceMeters>
          </Trackpoint>
          <Trackpoint>
            <Time>2022-04-23T13:36:06.000Z</Time>
            <Position>
              <LatitudeDegrees>41.5950816683471202850341796875</LatitudeDegrees>
              <LongitudeDegrees>-0.12669506482779979705810546875</LongitudeDegrees>
            </Position>
            <AltitudeMeters>372.79998779296875</AltitudeMeters>
            <DistanceMeters>77847.322701747</DistanceMeters>
          </Trackpoint>
          <Trackpoint>
            <Time>2022-04-23T13:36:07.000Z</Time>
            <Position>
              <LatitudeDegrees>41.59512936137616634368896484375</LatitudeDegrees>
              <LongitudeDegrees>-0.12667712755501270294189453125</LongitudeDegrees>
            </Position>
            <AltitudeMeters>373</AltitudeMeters>
            <DistanceMeters>77852.83752699</DistanceMeters>
          </Trackpoint>
          <Trackpoint>
            <Time>2022-04-23T13:36:10.000Z</Time>
            <Position>
              <LatitudeDegrees>41.59526682458817958831787109375</LatitudeDegrees>
              <LongitudeDegrees>-0.126614682376384735107421875</LongitudeDegrees>
            </Position>
            <AltitudeMeters>374.20001220703125</AltitudeMeters>
            <DistanceMeters>77868.99653966</DistanceMeters>
          </Trackpoint>
          <Trackpoint>
            <Time>2022-04-23T13:36:13.000Z</Time>
            <Position>
              <LatitudeDegrees>41.59540168941020965576171875</LatitudeDegrees>
              <LongitudeDegrees>-0.12656715698540210723876953125</LongitudeDegrees>
            </Position>
            <AltitudeMeters>374.79998779296875</AltitudeMeters>
            <DistanceMeters>77884.519961318</DistanceMeters>
          </Trackpoint>
          <Trackpoint>
            <Time>2022-04-23T13:36:17.000Z</Time>
            <Position>
              <LatitudeDegrees>41.59557879902422428131103515625</LatitudeDegrees>
              <LongitudeDegrees>-0.12649775482714176177978515625</LongitudeDegrees>
            </Position>
            <AltitudeMeters>375.399993896484375</AltitudeMeters>
            <DistanceMeters>77905.061563302</DistanceMeters>
          </Trackpoint>
          <Trackpoint>
            <Time>2022-04-23T13:36:20.000Z</Time>
            <Position>
              <LatitudeDegrees>41.59571961499750614166259765625</LatitudeDegrees>
              <LongitudeDegrees>-0.12643170543015003204345703125</LongitudeDegrees>
            </Position>
            <AltitudeMeters>376.20001220703125</AltitudeMeters>
            <DistanceMeters>77921.670862967</DistanceMeters>
          </Trackpoint>
          <Trackpoint>
            <Time>2022-04-23T13:36:23.000Z</Time>
            <Position>
              <LatitudeDegrees>41.5958568267524242401123046875</LatitudeDegrees>
              <LongitudeDegrees>-0.12637403793632984161376953125</LongitudeDegrees>
            </Position>
            <AltitudeMeters>376.399993896484375</AltitudeMeters>
            <DistanceMeters>77937.679409731</DistanceMeters>
          </Trackpoint>
          <Trackpoint>
            <Time>2022-04-23T13:36:26.000Z</Time>
            <Position>
              <LatitudeDegrees>41.59599185921251773834228515625</LatitudeDegrees>
              <LongitudeDegrees>-0.126319639384746551513671875</LongitudeDegrees>
            </Position>
            <AltitudeMeters>377.20001220703125</AltitudeMeters>
            <DistanceMeters>77953.376373318</DistanceMeters>
          </Trackpoint>
          <Trackpoint>
            <Time>2022-04-23T13:36:28.000Z</Time>
            <Position>
              <LatitudeDegrees>41.59608104266226291656494140625</LatitudeDegrees>
              <LongitudeDegrees>-0.1262946613132953643798828125</LongitudeDegrees>
            </Position>
            <AltitudeMeters>377.600006103515625</AltitudeMeters>
            <DistanceMeters>77963.51844415</DistanceMeters>
          </Trackpoint>
          <Trackpoint>
            <Time>2022-04-23T13:36:29.000Z</Time>
            <Position>
              <LatitudeDegrees>41.59612211398780345916748046875</LatitudeDegrees>
              <LongitudeDegrees>-0.126280747354030609130859375</LongitudeDegrees>
            </Position>
            <AltitudeMeters>377.600006103515625</AltitudeMeters>
            <DistanceMeters>77968.234488921</DistanceMeters>
          </Trackpoint>
          <Trackpoint>
            <Time>2022-04-23T13:36:35.000Z</Time>
            <Position>
              <LatitudeDegrees>41.59638312645256519317626953125</LatitudeDegrees>
              <LongitudeDegrees>-0.12617656029760837554931640625</LongitudeDegrees>
            </Position>
            <AltitudeMeters>378.20001220703125</AltitudeMeters>
            <DistanceMeters>77998.552329894</DistanceMeters>
          </Trackpoint>
          <Trackpoint>
            <Time>2022-04-23T13:36:39.000Z</Time>
            <Position>
              <LatitudeDegrees>41.59654875285923480987548828125</LatitudeDegrees>
              <LongitudeDegrees>-0.1261176355183124542236328125</LongitudeDegrees>
            </Position>
            <AltitudeMeters>378.600006103515625</AltitudeMeters>
            <DistanceMeters>78017.628336303</DistanceMeters>
          </Trackpoint>
          <Trackpoint>
            <Time>2022-04-23T13:36:44.000Z</Time>
            <Position>
              <LatitudeDegrees>41.5967583842575550079345703125</LatitudeDegrees>
              <LongitudeDegrees>-0.126046054065227508544921875</LongitudeDegrees>
            </Position>
            <AltitudeMeters>379</AltitudeMeters>
            <DistanceMeters>78041.70950071</DistanceMeters>
          </Trackpoint>
          <Trackpoint>
            <Time>2022-04-23T13:36:49.000Z</Time>
            <Position>
              <LatitudeDegrees>41.596973128616809844970703125</LatitudeDegrees>
              <LongitudeDegrees>-0.1259677670896053314208984375</LongitudeDegrees>
            </Position>
            <AltitudeMeters>379.600006103515625</AltitudeMeters>
            <DistanceMeters>78066.483240346</DistanceMeters>
          </Trackpoint>
          <Trackpoint>
            <Time>2022-04-23T13:36:56.000Z</Time>
            <Position>
              <LatitudeDegrees>41.59726959653198719024658203125</LatitudeDegrees>
              <LongitudeDegrees>-0.125856287777423858642578125</LongitudeDegrees>
            </Position>
            <AltitudeMeters>380.600006103515625</AltitudeMeters>
            <DistanceMeters>78100.760628905</DistanceMeters>
          </Trackpoint>
          <Trackpoint>
            <Time>2022-04-23T13:36:58.000Z</Time>
            <Position>
              <LatitudeDegrees>41.5973498113453388214111328125</LatitudeDegrees>
              <LongitudeDegrees>-0.125824101269245147705078125</LongitudeDegrees>
            </Position>
            <AltitudeMeters>380.79998779296875</AltitudeMeters>
            <DistanceMeters>78110.081969772</DistanceMeters>
          </Trackpoint>
          <Trackpoint>
            <Time>2022-04-23T13:37:04.000Z</Time>
            <Position>
              <LatitudeDegrees>41.5975895337760448455810546875</LatitudeDegrees>
              <LongitudeDegrees>-0.125734247267246246337890625</LongitudeDegrees>
            </Position>
            <AltitudeMeters>381.20001220703125</AltitudeMeters>
            <DistanceMeters>78137.791994315</DistanceMeters>
          </Trackpoint>
          <Trackpoint>
            <Time>2022-04-23T13:37:07.000Z</Time>
            <Position>
              <LatitudeDegrees>41.5977025218307971954345703125</LatitudeDegrees>
              <LongitudeDegrees>-0.125693343579769134521484375</LongitudeDegrees>
            </Position>
            <AltitudeMeters>381.600006103515625</AltitudeMeters>
            <DistanceMeters>78150.820361324</DistanceMeters>
          </Trackpoint>
          <Trackpoint>
            <Time>2022-04-23T13:37:09.000Z</Time>
            <Position>
              <LatitudeDegrees>41.59778290428221225738525390625</LatitudeDegrees>
              <LongitudeDegrees>-0.1256730593740940093994140625</LongitudeDegrees>
            </Position>
            <AltitudeMeters>381.79998779296875</AltitudeMeters>
            <DistanceMeters>78159.92509096</DistanceMeters>
          </Trackpoint>
          <Trackpoint>
            <Time>2022-04-23T13:37:12.000Z</Time>
            <Position>
              <LatitudeDegrees>41.59790460951626300811767578125</LatitudeDegrees>
              <LongitudeDegrees>-0.1256284676492214202880859375</LongitudeDegrees>
            </Position>
            <AltitudeMeters>382.20001220703125</AltitudeMeters>
            <DistanceMeters>78173.970412245</DistanceMeters>
          </Trackpoint>
          <Trackpoint>
            <Time>2022-04-23T13:37:15.000Z</Time>
            <Position>
              <LatitudeDegrees>41.59802019596099853515625</LatitudeDegrees>
              <LongitudeDegrees>-0.1255825348198413848876953125</LongitudeDegrees>
            </Position>
            <AltitudeMeters>382.79998779296875</AltitudeMeters>
            <DistanceMeters>78187.391400839</DistanceMeters>
          </Trackpoint>
          <Trackpoint>
            <Time>2022-04-23T13:37:16.000Z</Time>
            <Position>
              <LatitudeDegrees>41.59805833362042903900146484375</LatitudeDegrees>
              <LongitudeDegrees>-0.1255662739276885986328125</LongitudeDegrees>
            </Position>
            <AltitudeMeters>383</AltitudeMeters>
            <DistanceMeters>78191.846522388</DistanceMeters>
          </Trackpoint>
          <Trackpoint>
            <Time>2022-04-23T13:37:20.000Z</Time>
            <Position>
              <LatitudeDegrees>41.598221696913242340087890625</LatitudeDegrees>
              <LongitudeDegrees>-0.12551053427159786224365234375</LongitudeDegrees>
            </Position>
            <AltitudeMeters>384</AltitudeMeters>
            <DistanceMeters>78210.611351214</DistanceMeters>
          </Trackpoint>
          <Trackpoint>
            <Time>2022-04-23T13:37:24.000Z</Time>
            <Position>
              <LatitudeDegrees>41.598384641110897064208984375</LatitudeDegrees>
              <LongitudeDegrees>-0.1254427246749401092529296875</LongitudeDegrees>
            </Position>
            <AltitudeMeters>385</AltitudeMeters>
            <DistanceMeters>78229.605525167</DistanceMeters>
          </Trackpoint>
          <Trackpoint>
            <Time>2022-04-23T13:37:25.000Z</Time>
            <Position>
              <LatitudeDegrees>41.5984267182648181915283203125</LatitudeDegrees>
              <LongitudeDegrees>-0.12542889453470706939697265625</LongitudeDegrees>
            </Position>
            <AltitudeMeters>385.20001220703125</AltitudeMeters>
            <DistanceMeters>78234.428540502</DistanceMeters>
          </Trackpoint>
          <Trackpoint>
            <Time>2022-04-23T13:37:27.000Z</Time>
            <Position>
              <LatitudeDegrees>41.5985102020204067230224609375</LatitudeDegrees>
              <LongitudeDegrees>-0.12539871968328952789306640625</LongitudeDegrees>
            </Position>
            <AltitudeMeters>385.399993896484375</AltitudeMeters>
            <DistanceMeters>78244.053953964</DistanceMeters>
          </Trackpoint>
          <Trackpoint>
            <Time>2022-04-23T13:37:31.000Z</Time>
            <Position>
              <LatitudeDegrees>41.598683707416057586669921875</LatitudeDegrees>
              <LongitudeDegrees>-0.1253357715904712677001953125</LongitudeDegrees>
            </Position>
            <AltitudeMeters>385.20001220703125</AltitudeMeters>
            <DistanceMeters>78264.063791283</DistanceMeters>
          </Trackpoint>
          <Trackpoint>
            <Time>2022-04-23T13:37:32.000Z</Time>
            <Position>
              <LatitudeDegrees>41.5987321548163890838623046875</LatitudeDegrees>
              <LongitudeDegrees>-0.1253223605453968048095703125</LongitudeDegrees>
            </Position>
            <AltitudeMeters>385.20001220703125</AltitudeMeters>
            <DistanceMeters>78269.570423348</DistanceMeters>
          </Trackpoint>
          <Trackpoint>
            <Time>2022-04-23T13:37:37.000Z</Time>
            <Position>
              <LatitudeDegrees>41.59901596605777740478515625</LatitudeDegrees>
              <LongitudeDegrees>-0.12525840662419795989990234375</LongitudeDegrees>
            </Position>
            <AltitudeMeters>384.600006103515625</AltitudeMeters>
            <DistanceMeters>78301.604716648</DistanceMeters>
          </Trackpoint>
          <Trackpoint>
            <Time>2022-04-23T13:37:42.000Z</Time>
            <Position>
              <LatitudeDegrees>41.59939021803438663482666015625</LatitudeDegrees>
              <LongitudeDegrees>-0.1251875795423984527587890625</LongitudeDegrees>
            </Position>
            <AltitudeMeters>383.79998779296875</AltitudeMeters>
            <DistanceMeters>78343.674836484</DistanceMeters>
          </Trackpoint>
          <Trackpoint>
            <Time>2022-04-23T13:37:44.000Z</Time>
            <Position>
              <LatitudeDegrees>41.59956221468746662139892578125</LatitudeDegrees>
              <LongitudeDegrees>-0.12516201473772525787353515625</LongitudeDegrees>
            </Position>
            <AltitudeMeters>382.600006103515625</AltitudeMeters>
            <DistanceMeters>78362.93668351</DistanceMeters>
          </Trackpoint>
          <Trackpoint>
            <Time>2022-04-23T13:37:46.000Z</Time>
            <Position>
              <LatitudeDegrees>41.59974594600498676300048828125</LatitudeDegrees>
              <LongitudeDegrees>-0.12512530200183391571044921875</LongitudeDegrees>
            </Position>
            <AltitudeMeters>381.79998779296875</AltitudeMeters>
            <DistanceMeters>78383.613457176</DistanceMeters>
          </Trackpoint>
          <Trackpoint>
            <Time>2022-04-23T13:37:47.000Z</Time>
            <Position>
              <LatitudeDegrees>41.5998412482440471649169921875</LatitudeDegrees>
              <LongitudeDegrees>-0.12510686181485652923583984375</LongitudeDegrees>
            </Position>
            <AltitudeMeters>381.79998779296875</AltitudeMeters>
            <DistanceMeters>78394.330852959</DistanceMeters>
          </Trackpoint>
          <Trackpoint>
            <Time>2022-04-23T13:37:48.000Z</Time>
            <Position>
              <LatitudeDegrees>41.5999371372163295745849609375</LatitudeDegrees>
              <LongitudeDegrees>-0.12508414685726165771484375</LongitudeDegrees>
            </Position>
            <AltitudeMeters>381.20001220703125</AltitudeMeters>
            <DistanceMeters>78405.169315233</DistanceMeters>
          </Trackpoint>
          <Trackpoint>
            <Time>2022-04-23T13:37:50.000Z</Time>
            <Position>
              <LatitudeDegrees>41.6001225449144840240478515625</LatitudeDegrees>
              <LongitudeDegrees>-0.1250343583524227142333984375</LongitudeDegrees>
            </Position>
            <AltitudeMeters>380.399993896484375</AltitudeMeters>
            <DistanceMeters>78426.217678839</DistanceMeters>
          </Trackpoint>
          <Trackpoint>
            <Time>2022-04-23T13:37:51.000Z</Time>
            <Position>
              <LatitudeDegrees>41.60023293457925319671630859375</LatitudeDegrees>
              <LongitudeDegrees>-0.12499806471168994903564453125</LongitudeDegrees>
            </Position>
            <AltitudeMeters>380</AltitudeMeters>
            <DistanceMeters>78438.870156668</DistanceMeters>
          </Trackpoint>
          <Trackpoint>
            <Time>2022-04-23T13:37:53.000Z</Time>
            <Position>
              <LatitudeDegrees>41.60039403475821018218994140625</LatitudeDegrees>
              <LongitudeDegrees>-0.12493117712438106536865234375</LongitudeDegrees>
            </Position>
            <AltitudeMeters>379</AltitudeMeters>
            <DistanceMeters>78457.645088467</DistanceMeters>
          </Trackpoint>
          <Trackpoint>
            <Time>2022-04-23T13:37:54.000Z</Time>
            <Position>
              <LatitudeDegrees>41.6004802845418453216552734375</LatitudeDegrees>
              <LongitudeDegrees>-0.12488893233239650726318359375</LongitudeDegrees>
            </Position>
            <AltitudeMeters>378.79998779296875</AltitudeMeters>
            <DistanceMeters>78467.86830248</DistanceMeters>
          </Trackpoint>
          <Trackpoint>
            <Time>2022-04-23T13:37:59.000Z</Time>
            <Position>
              <LatitudeDegrees>41.60090382210910320281982421875</LatitudeDegrees>
              <LongitudeDegrees>-0.1246803067624568939208984375</LongitudeDegrees>
            </Position>
            <AltitudeMeters>377.79998779296875</AltitudeMeters>
            <DistanceMeters>78518.10517962</DistanceMeters>
          </Trackpoint>
          <Trackpoint>
            <Time>2022-04-23T13:38:00.000Z</Time>
            <Position>
              <LatitudeDegrees>41.60100239329040050506591796875</LatitudeDegrees>
              <LongitudeDegrees>-0.12463060207664966583251953125</LongitudeDegrees>
            </Position>
            <AltitudeMeters>377.20001220703125</AltitudeMeters>
            <DistanceMeters>78529.830875502</DistanceMeters>
          </Trackpoint>
          <Trackpoint>
            <Time>2022-04-23T13:38:02.000Z</Time>
            <Position>
              <LatitudeDegrees>41.60115092061460018157958984375</LatitudeDegrees>
              <LongitudeDegrees>-0.12455482967197895050048828125</LongitudeDegrees>
            </Position>
            <AltitudeMeters>376.600006103515625</AltitudeMeters>
            <DistanceMeters>78547.524482264</DistanceMeters>
          </Trackpoint>
          <Trackpoint>
            <Time>2022-04-23T13:38:08.000Z</Time>
            <Position>
              <LatitudeDegrees>41.60163916647434234619140625</LatitudeDegrees>
              <LongitudeDegrees>-0.12432265095412731170654296875</LongitudeDegrees>
            </Position>
            <AltitudeMeters>375.399993896484375</AltitudeMeters>
            <DistanceMeters>78605.200766306</DistanceMeters>
          </Trackpoint>
          <Trackpoint>
            <Time>2022-04-23T13:38:15.000Z</Time>
            <Position>
              <LatitudeDegrees>41.6021628677845001220703125</LatitudeDegrees>
              <LongitudeDegrees>-0.12406599707901477813720703125</LongitudeDegrees>
            </Position>
            <AltitudeMeters>374.399993896484375</AltitudeMeters>
            <DistanceMeters>78667.280635871</DistanceMeters>
          </Trackpoint>
          <Trackpoint>
            <Time>2022-04-23T13:38:18.000Z</Time>
            <Position>
              <LatitudeDegrees>41.6023813001811504364013671875</LatitudeDegrees>
              <LongitudeDegrees>-0.12395166791975498199462890625</LongitudeDegrees>
            </Position>
            <AltitudeMeters>374</AltitudeMeters>
            <DistanceMeters>78693.388436625</DistanceMeters>
          </Trackpoint>
          <Trackpoint>
            <Time>2022-04-23T13:38:20.000Z</Time>
            <Position>
              <LatitudeDegrees>41.60252639092504978179931640625</LatitudeDegrees>
              <LongitudeDegrees>-0.12387874536216259002685546875</LongitudeDegrees>
            </Position>
            <AltitudeMeters>374</AltitudeMeters>
            <DistanceMeters>78710.640431281</DistanceMeters>
          </Trackpoint>
          <Trackpoint>
            <Time>2022-04-23T13:38:24.000Z</Time>
            <Position>
              <LatitudeDegrees>41.60281221382319927215576171875</LatitudeDegrees>
              <LongitudeDegrees>-0.12373759411275386810302734375</LongitudeDegrees>
            </Position>
            <AltitudeMeters>373.79998779296875</AltitudeMeters>
            <DistanceMeters>78744.552854901</DistanceMeters>
          </Trackpoint>
          <Trackpoint>
            <Time>2022-04-23T13:38:27.000Z</Time>
            <Position>
              <LatitudeDegrees>41.60306878387928009033203125</LatitudeDegrees>
              <LongitudeDegrees>-0.1236117817461490631103515625</LongitudeDegrees>
            </Position>
            <AltitudeMeters>373.399993896484375</AltitudeMeters>
            <DistanceMeters>78774.968826555</DistanceMeters>
          </Trackpoint>
          <Trackpoint>
            <Time>2022-04-23T13:38:30.000Z</Time>
            <Position>
              <LatitudeDegrees>41.603322923183441162109375</LatitudeDegrees>
              <LongitudeDegrees>-0.123489238321781158447265625</LongitudeDegrees>
            </Position>
            <AltitudeMeters>372.79998779296875</AltitudeMeters>
            <DistanceMeters>78805.037537433</DistanceMeters>
          </Trackpoint>
          <Trackpoint>
            <Time>2022-04-23T13:38:35.000Z</Time>
            <Position>
              <LatitudeDegrees>41.6037884540855884552001953125</LatitudeDegrees>
              <LongitudeDegrees>-0.12325278483331203460693359375</LongitudeDegrees>
            </Position>
            <AltitudeMeters>371.79998779296875</AltitudeMeters>
            <DistanceMeters>78860.463289084</DistanceMeters>
          </Trackpoint>
          <Trackpoint>
            <Time>2022-04-23T13:38:36.000Z</Time>
            <Position>
              <LatitudeDegrees>41.60388928838074207305908203125</LatitudeDegrees>
              <LongitudeDegrees>-0.12320199050009250640869140625</LongitudeDegrees>
            </Position>
            <AltitudeMeters>371.399993896484375</AltitudeMeters>
            <DistanceMeters>78872.456247752</DistanceMeters>
          </Trackpoint>
          <Trackpoint>
            <Time>2022-04-23T13:38:37.000Z</Time>
            <Position>
              <LatitudeDegrees>41.60399355925619602203369140625</LatitudeDegrees>
              <LongitudeDegrees>-0.1231496036052703857421875</LongitudeDegrees>
            </Position>
            <AltitudeMeters>370.20001220703125</AltitudeMeters>
            <DistanceMeters>78884.854229895</DistanceMeters>
          </Trackpoint>
          <Trackpoint>
            <Time>2022-04-23T13:38:40.000Z</Time>
            <Position>
              <LatitudeDegrees>41.6043037734925746917724609375</LatitudeDegrees>
              <LongitudeDegrees>-0.12300216592848300933837890625</LongitudeDegrees>
            </Position>
            <AltitudeMeters>369.20001220703125</AltitudeMeters>
            <DistanceMeters>78921.497349123</DistanceMeters>
          </Trackpoint>
          <Trackpoint>
            <Time>2022-04-23T13:38:42.000Z</Time>
            <Position>
              <LatitudeDegrees>41.60448725335299968719482421875</LatitudeDegrees>
              <LongitudeDegrees>-0.1229033432900905609130859375</LongitudeDegrees>
            </Position>
            <AltitudeMeters>367.79998779296875</AltitudeMeters>
            <DistanceMeters>78943.512805581</DistanceMeters>
          </Trackpoint>
          <Trackpoint>
            <Time>2022-04-23T13:38:44.000Z</Time>
            <Position>
              <LatitudeDegrees>41.604672409594058990478515625</LatitudeDegrees>
              <LongitudeDegrees>-0.12281206436455249786376953125</LongitudeDegrees>
            </Position>
            <AltitudeMeters>366.600006103515625</AltitudeMeters>
            <DistanceMeters>78965.476519834</DistanceMeters>
          </Trackpoint>
          <Trackpoint>
            <Time>2022-04-23T13:38:48.000Z</Time>
            <Position>
              <LatitudeDegrees>41.6050262935459613800048828125</LatitudeDegrees>
              <LongitudeDegrees>-0.122649036347866058349609375</LongitudeDegrees>
            </Position>
            <AltitudeMeters>365.399993896484375</AltitudeMeters>
            <DistanceMeters>79007.135953963</DistanceMeters>
          </Trackpoint>
          <Trackpoint>
            <Time>2022-04-23T13:38:52.000Z</Time>
            <Position>
              <LatitudeDegrees>41.605308093130588531494140625</LatitudeDegrees>
              <LongitudeDegrees>-0.122499503195285797119140625</LongitudeDegrees>
            </Position>
            <AltitudeMeters>365.20001220703125</AltitudeMeters>
            <DistanceMeters>79040.879671291</DistanceMeters>
          </Trackpoint>
          <Trackpoint>
            <Time>2022-04-23T13:38:58.000Z</Time>
            <Position>
              <LatitudeDegrees>41.6057045571506023406982421875</LatitudeDegrees>
              <LongitudeDegrees>-0.12229657731950283050537109375</LongitudeDegrees>
            </Position>
            <AltitudeMeters>365.600006103515625</AltitudeMeters>
            <DistanceMeters>79088.128306813</DistanceMeters>
          </Trackpoint>
          <Trackpoint>
            <Time>2022-04-23T13:38:59.000Z</Time>
            <Position>
              <LatitudeDegrees>41.605767421424388885498046875</LatitudeDegrees>
              <LongitudeDegrees>-0.12226405553519725799560546875</LongitudeDegrees>
            </Position>
            <AltitudeMeters>365.79998779296875</AltitudeMeters>
            <DistanceMeters>79095.630002381</DistanceMeters>
          </Trackpoint>
          <Trackpoint>
            <Time>2022-04-23T13:39:03.000Z</Time>
            <Position>
              <LatitudeDegrees>41.606000103056430816650390625</LatitudeDegrees>
              <LongitudeDegrees>-0.12214444577693939208984375</LongitudeDegrees>
            </Position>
            <AltitudeMeters>366.20001220703125</AltitudeMeters>
            <DistanceMeters>79123.375199383</DistanceMeters>
          </Trackpoint>
          <Trackpoint>
            <Time>2022-04-23T13:39:04.000Z</Time>
            <Position>
              <LatitudeDegrees>41.60605366341769695281982421875</LatitudeDegrees>
              <LongitudeDegrees>-0.12211569584906101226806640625</LongitudeDegrees>
            </Position>
            <AltitudeMeters>366.79998779296875</AltitudeMeters>
            <DistanceMeters>79129.799173959</DistanceMeters>
          </Trackpoint>
          <Trackpoint>
            <Time>2022-04-23T13:39:05.000Z</Time>
            <Position>
              <LatitudeDegrees>41.60610915161669254302978515625</LatitudeDegrees>
              <LongitudeDegrees>-0.12208811938762664794921875</LongitudeDegrees>
            </Position>
            <AltitudeMeters>367</AltitudeMeters>
            <DistanceMeters>79136.387616678</DistanceMeters>
          </Trackpoint>
          <Trackpoint>
            <Time>2022-04-23T13:39:10.000Z</Time>
            <Position>
              <LatitudeDegrees>41.60635792650282382965087890625</LatitudeDegrees>
              <LongitudeDegrees>-0.121959038078784942626953125</LongitudeDegrees>
            </Position>
            <AltitudeMeters>367.79998779296875</AltitudeMeters>
            <DistanceMeters>79166.087683805</DistanceMeters>
          </Trackpoint>
          <Trackpoint>
            <Time>2022-04-23T13:39:15.000Z</Time>
            <Position>
              <LatitudeDegrees>41.6065967269241809844970703125</LatitudeDegrees>
              <LongitudeDegrees>-0.12183976359665393829345703125</LongitudeDegrees>
            </Position>
            <AltitudeMeters>368.600006103515625</AltitudeMeters>
            <DistanceMeters>79194.45980277</DistanceMeters>
          </Trackpoint>
          <Trackpoint>
            <Time>2022-04-23T13:39:17.000Z</Time>
            <Position>
              <LatitudeDegrees>41.60669085569679737091064453125</LatitudeDegrees>
              <LongitudeDegrees>-0.1217945851385593414306640625</LongitudeDegrees>
            </Position>
            <AltitudeMeters>368.79998779296875</AltitudeMeters>
            <DistanceMeters>79205.590510241</DistanceMeters>
          </Trackpoint>
          <Trackpoint>
            <Time>2022-04-23T13:39:18.000Z</Time>
            <Position>
              <LatitudeDegrees>41.6067387163639068603515625</LatitudeDegrees>
              <LongitudeDegrees>-0.12177941389381885528564453125</LongitudeDegrees>
            </Position>
            <AltitudeMeters>368.79998779296875</AltitudeMeters>
            <DistanceMeters>79211.06507175</DistanceMeters>
          </Trackpoint>
          <Trackpoint>
            <Time>2022-04-23T13:39:20.000Z</Time>
            <Position>
              <LatitudeDegrees>41.60683116875588893890380859375</LatitudeDegrees>
              <LongitudeDegrees>-0.12176223099231719970703125</LongitudeDegrees>
            </Position>
            <AltitudeMeters>369.20001220703125</AltitudeMeters>
            <DistanceMeters>79221.453886584</DistanceMeters>
          </Trackpoint>
          <Trackpoint>
            <Time>2022-04-23T13:39:23.000Z</Time>
            <Position>
              <LatitudeDegrees>41.60696896724402904510498046875</LatitudeDegrees>
              <LongitudeDegrees>-0.1217566989362239837646484375</LongitudeDegrees>
            </Position>
            <AltitudeMeters>370</AltitudeMeters>
            <DistanceMeters>79236.79827361</DistanceMeters>
          </Trackpoint>
          <Trackpoint>
            <Time>2022-04-23T13:39:26.000Z</Time>
            <Position>
              <LatitudeDegrees>41.60708564333617687225341796875</LatitudeDegrees>
              <LongitudeDegrees>-0.12176499702036380767822265625</LongitudeDegrees>
            </Position>
            <AltitudeMeters>371.20001220703125</AltitudeMeters>
            <DistanceMeters>79249.802706379</DistanceMeters>
          </Trackpoint>
          <Trackpoint>
            <Time>2022-04-23T13:39:30.000Z</Time>
            <Position>
              <LatitudeDegrees>41.6072483360767364501953125</LatitudeDegrees>
              <LongitudeDegrees>-0.12178930453956127166748046875</LongitudeDegrees>
            </Position>
            <AltitudeMeters>372.399993896484375</AltitudeMeters>
            <DistanceMeters>79268.023072193</DistanceMeters>
          </Trackpoint>
          <Trackpoint>
            <Time>2022-04-23T13:39:33.000Z</Time>
            <Position>
              <LatitudeDegrees>41.60736434161663055419921875</LatitudeDegrees>
              <LongitudeDegrees>-0.12180992402136325836181640625</LongitudeDegrees>
            </Position>
            <AltitudeMeters>373.399993896484375</AltitudeMeters>
            <DistanceMeters>79281.047973196</DistanceMeters>
          </Trackpoint>
          <Trackpoint>
            <Time>2022-04-23T13:39:37.000Z</Time>
            <Position>
              <LatitudeDegrees>41.6075210832059383392333984375</LatitudeDegrees>
              <LongitudeDegrees>-0.12183624319732189178466796875</LongitudeDegrees>
            </Position>
            <AltitudeMeters>374.600006103515625</AltitudeMeters>
            <DistanceMeters>79298.630740246</DistanceMeters>
          </Trackpoint>
          <Trackpoint>
            <Time>2022-04-23T13:39:44.000Z</Time>
            <Position>
              <LatitudeDegrees>41.60778754390776157379150390625</LatitudeDegrees>
              <LongitudeDegrees>-0.12186524458229541778564453125</LongitudeDegrees>
            </Position>
            <AltitudeMeters>375.20001220703125</AltitudeMeters>
            <DistanceMeters>79328.386395093</DistanceMeters>
          </Trackpoint>
          <Trackpoint>
            <Time>2022-04-23T13:39:49.000Z</Time>
            <Position>
              <LatitudeDegrees>41.608012430369853973388671875</LatitudeDegrees>
              <LongitudeDegrees>-0.12187798507511615753173828125</LongitudeDegrees>
            </Position>
            <AltitudeMeters>375.600006103515625</AltitudeMeters>
            <DistanceMeters>79353.439048909</DistanceMeters>
          </Trackpoint>
          <Trackpoint>
            <Time>2022-04-23T13:39:50.000Z</Time>
            <Position>
              <LatitudeDegrees>41.60805878229439258575439453125</LatitudeDegrees>
              <LongitudeDegrees>-0.12188686989247798919677734375</LongitudeDegrees>
            </Position>
            <AltitudeMeters>375.600006103515625</AltitudeMeters>
            <DistanceMeters>79358.649945172</DistanceMeters>
          </Trackpoint>
          <Trackpoint>
            <Time>2022-04-23T13:39:58.000Z</Time>
            <Position>
              <LatitudeDegrees>41.608439572155475616455078125</LatitudeDegrees>
              <LongitudeDegrees>-0.12198477052152156829833984375</LongitudeDegrees>
            </Position>
            <AltitudeMeters>375.399993896484375</AltitudeMeters>
            <DistanceMeters>79401.808605814</DistanceMeters>
          </Trackpoint>
          <Trackpoint>
            <Time>2022-04-23T13:40:00.000Z</Time>
            <Position>
              <LatitudeDegrees>41.60853101871907711029052734375</LatitudeDegrees>
              <LongitudeDegrees>-0.12200807221233844757080078125</LongitudeDegrees>
            </Position>
            <AltitudeMeters>375.399993896484375</AltitudeMeters>
            <DistanceMeters>79412.169568548</DistanceMeters>
          </Trackpoint>
          <Trackpoint>
            <Time>2022-04-23T13:40:06.000Z</Time>
            <Position>
              <LatitudeDegrees>41.60880426876246929168701171875</LatitudeDegrees>
              <LongitudeDegrees>-0.122053921222686767578125</LongitudeDegrees>
            </Position>
            <AltitudeMeters>376.20001220703125</AltitudeMeters>
            <DistanceMeters>79442.821245068</DistanceMeters>
          </Trackpoint>
          <Trackpoint>
            <Time>2022-04-23T13:40:10.000Z</Time>
            <Position>
              <LatitudeDegrees>41.60900593735277652740478515625</LatitudeDegrees>
              <LongitudeDegrees>-0.12208275496959686279296875</LongitudeDegrees>
            </Position>
            <AltitudeMeters>376.600006103515625</AltitudeMeters>
            <DistanceMeters>79465.395240592</DistanceMeters>
          </Trackpoint>
          <Trackpoint>
            <Time>2022-04-23T13:40:12.000Z</Time>
            <Position>
              <LatitudeDegrees>41.60911205224692821502685546875</LatitudeDegrees>
              <LongitudeDegrees>-0.122076384723186492919921875</LongitudeDegrees>
            </Position>
            <AltitudeMeters>376.600006103515625</AltitudeMeters>
            <DistanceMeters>79477.217572138</DistanceMeters>
          </Trackpoint>
          <Trackpoint>
            <Time>2022-04-23T13:40:14.000Z</Time>
            <Position>
              <LatitudeDegrees>41.60921514965593814849853515625</LatitudeDegrees>
              <LongitudeDegrees>-0.1220587827265262603759765625</LongitudeDegrees>
            </Position>
            <AltitudeMeters>376.600006103515625</AltitudeMeters>
            <DistanceMeters>79488.7858794</DistanceMeters>
          </Trackpoint>
          <Trackpoint>
            <Time>2022-04-23T13:40:18.000Z</Time>
            <Position>
              <LatitudeDegrees>41.60944615490734577178955078125</LatitudeDegrees>
              <LongitudeDegrees>-0.12198845855891704559326171875</LongitudeDegrees>
            </Position>
            <AltitudeMeters>376.600006103515625</AltitudeMeters>
            <DistanceMeters>79515.155064946</DistanceMeters>
          </Trackpoint>
          <Trackpoint>
            <Time>2022-04-23T13:40:20.000Z</Time>
            <Position>
              <LatitudeDegrees>41.6095657646656036376953125</LatitudeDegrees>
              <LongitudeDegrees>-0.1219706051051616668701171875</LongitudeDegrees>
            </Position>
            <AltitudeMeters>376.600006103515625</AltitudeMeters>
            <DistanceMeters>79528.550798561</DistanceMeters>
          </Trackpoint>
          <Trackpoint>
            <Time>2022-04-23T13:40:21.000Z</Time>
            <Position>
              <LatitudeDegrees>41.60962502472102642059326171875</LatitudeDegrees>
              <LongitudeDegrees>-0.121987201273441314697265625</LongitudeDegrees>
            </Position>
            <AltitudeMeters>376.600006103515625</AltitudeMeters>
            <DistanceMeters>79535.28966007</DistanceMeters>
          </Trackpoint>
          <Trackpoint>
            <Time>2022-04-23T13:40:22.000Z</Time>
            <Position>
              <LatitudeDegrees>41.60968068055808544158935546875</LatitudeDegrees>
              <LongitudeDegrees>-0.12202718295156955718994140625</LongitudeDegrees>
            </Position>
            <AltitudeMeters>376.79998779296875</AltitudeMeters>
            <DistanceMeters>79542.320994832</DistanceMeters>
          </Trackpoint>
          <Trackpoint>
            <Time>2022-04-23T13:40:24.000Z</Time>
            <Position>
              <LatitudeDegrees>41.60977103747427463531494140625</LatitudeDegrees>
              <LongitudeDegrees>-0.12215291149914264678955078125</LongitudeDegrees>
            </Position>
            <AltitudeMeters>377</AltitudeMeters>
            <DistanceMeters>79556.833661815</DistanceMeters>
          </Trackpoint>
          <Trackpoint>
            <Time>2022-04-23T13:40:26.000Z</Time>
            <Position>
              <LatitudeDegrees>41.6098391823470592498779296875</LatitudeDegrees>
              <LongitudeDegrees>-0.12229003943502902984619140625</LongitudeDegrees>
            </Position>
            <AltitudeMeters>377</AltitudeMeters>
            <DistanceMeters>79570.535973643</DistanceMeters>
          </Trackpoint>
          <Trackpoint>
            <Time>2022-04-23T13:40:31.000Z</Time>
            <Position>
              <LatitudeDegrees>41.6099997796118259429931640625</LatitudeDegrees>
              <LongitudeDegrees>-0.1225955598056316375732421875</LongitudeDegrees>
            </Position>
            <AltitudeMeters>376.20001220703125</AltitudeMeters>
            <DistanceMeters>79601.615375456</DistanceMeters>
          </Trackpoint>
          <Trackpoint>
            <Time>2022-04-23T13:40:32.000Z</Time>
            <Position>
              <LatitudeDegrees>41.6100239194929599761962890625</LatitudeDegrees>
              <LongitudeDegrees>-0.12265364639461040496826171875</LongitudeDegrees>
            </Position>
            <AltitudeMeters>375.399993896484375</AltitudeMeters>
            <DistanceMeters>79607.145734298</DistanceMeters>
          </Trackpoint>
          <Trackpoint>
            <Time>2022-04-23T13:40:37.000Z</Time>
            <Position>
              <LatitudeDegrees>41.61012173630297183990478515625</LatitudeDegrees>
              <LongitudeDegrees>-0.1229549758136272430419921875</LongitudeDegrees>
            </Position>
            <AltitudeMeters>374.79998779296875</AltitudeMeters>
            <DistanceMeters>79634.483220586</DistanceMeters>
          </Trackpoint>
          <Trackpoint>
            <Time>2022-04-23T13:40:43.000Z</Time>
            <Position>
              <LatitudeDegrees>41.61020882427692413330078125</LatitudeDegrees>
              <LongitudeDegrees>-0.12329041957855224609375</LongitudeDegrees>
            </Position>
            <AltitudeMeters>375</AltitudeMeters>
            <DistanceMeters>79664.033167491</DistanceMeters>
          </Trackpoint>
          <Trackpoint>
            <Time>2022-04-23T13:40:44.000Z</Time>
            <Position>
              <LatitudeDegrees>41.6102153621613979339599609375</LatitudeDegrees>
              <LongitudeDegrees>-0.12334917671978473663330078125</LongitudeDegrees>
            </Position>
            <AltitudeMeters>375.20001220703125</AltitudeMeters>
            <DistanceMeters>79668.976383737</DistanceMeters>
          </Trackpoint>
          <Trackpoint>
            <Time>2022-04-23T13:40:48.000Z</Time>
            <Position>
              <LatitudeDegrees>41.61024025641381740570068359375</LatitudeDegrees>
              <LongitudeDegrees>-0.12358252890408039093017578125</LongitudeDegrees>
            </Position>
            <AltitudeMeters>374.79998779296875</AltitudeMeters>
            <DistanceMeters>79688.59243883</DistanceMeters>
          </Trackpoint>
          <Trackpoint>
            <Time>2022-04-23T13:40:53.000Z</Time>
            <Position>
              <LatitudeDegrees>41.6102542541921138763427734375</LatitudeDegrees>
              <LongitudeDegrees>-0.123852007091045379638671875</LongitudeDegrees>
            </Position>
            <AltitudeMeters>374.600006103515625</AltitudeMeters>
            <DistanceMeters>79711.072232823</DistanceMeters>
          </Trackpoint>
          <Trackpoint>
            <Time>2022-04-23T13:40:56.000Z</Time>
            <Position>
              <LatitudeDegrees>41.61027579568326473236083984375</LatitudeDegrees>
              <LongitudeDegrees>-0.12400765903294086456298828125</LongitudeDegrees>
            </Position>
            <AltitudeMeters>374.399993896484375</AltitudeMeters>
            <DistanceMeters>79724.245348591</DistanceMeters>
          </Trackpoint>
          <Trackpoint>
            <Time>2022-04-23T13:41:00.000Z</Time>
            <Position>
              <LatitudeDegrees>41.610309071838855743408203125</LatitudeDegrees>
              <LongitudeDegrees>-0.1241995207965373992919921875</LongitudeDegrees>
            </Position>
            <AltitudeMeters>374</AltitudeMeters>
            <DistanceMeters>79740.635735231</DistanceMeters>
          </Trackpoint>
          <Trackpoint>
            <Time>2022-04-23T13:41:07.000Z</Time>
            <Position>
              <LatitudeDegrees>41.61037537269294261932373046875</LatitudeDegrees>
              <LongitudeDegrees>-0.12450286187231540679931640625</LongitudeDegrees>
            </Position>
            <AltitudeMeters>374.600006103515625</AltitudeMeters>
            <DistanceMeters>79766.935655296</DistanceMeters>
          </Trackpoint>
          <Trackpoint>
            <Time>2022-04-23T13:41:14.000Z</Time>
            <Position>
              <LatitudeDegrees>41.6104570962488651275634765625</LatitudeDegrees>
              <LongitudeDegrees>-0.1248043589293956756591796875</LongitudeDegrees>
            </Position>
            <AltitudeMeters>375.79998779296875</AltitudeMeters>
            <DistanceMeters>79793.623447439</DistanceMeters>
          </Trackpoint>
          <Trackpoint>
            <Time>2022-04-23T13:41:16.000Z</Time>
            <Position>
              <LatitudeDegrees>41.61047637462615966796875</LatitudeDegrees>
              <LongitudeDegrees>-0.12489127926528453826904296875</LongitudeDegrees>
            </Position>
            <AltitudeMeters>376</AltitudeMeters>
            <DistanceMeters>79801.168353131</DistanceMeters>
          </Trackpoint>
          <Trackpoint>
            <Time>2022-04-23T13:41:19.000Z</Time>
            <Position>
              <LatitudeDegrees>41.61050386726856231689453125</LatitudeDegrees>
              <LongitudeDegrees>-0.12501030229032039642333984375</LongitudeDegrees>
            </Position>
            <AltitudeMeters>376.79998779296875</AltitudeMeters>
            <DistanceMeters>79811.535414905</DistanceMeters>
          </Trackpoint>
          <Trackpoint>
            <Time>2022-04-23T13:41:23.000Z</Time>
            <Position>
              <LatitudeDegrees>41.61055055446922779083251953125</LatitudeDegrees>
              <LongitudeDegrees>-0.12515430338680744171142578125</LongitudeDegrees>
            </Position>
            <AltitudeMeters>378</AltitudeMeters>
            <DistanceMeters>79824.597354437</DistanceMeters>
          </Trackpoint>
          <Trackpoint>
            <Time>2022-04-23T13:41:24.000Z</Time>
            <Position>
              <LatitudeDegrees>41.610561199486255645751953125</LatitudeDegrees>
              <LongitudeDegrees>-0.12518648989498615264892578125</LongitudeDegrees>
            </Position>
            <AltitudeMeters>378</AltitudeMeters>
            <DistanceMeters>79827.524732538</DistanceMeters>
          </Trackpoint>
          <Trackpoint>
            <Time>2022-04-23T13:41:28.000Z</Time>
            <Position>
              <LatitudeDegrees>41.61060419864952564239501953125</LatitudeDegrees>
              <LongitudeDegrees>-0.12534163892269134521484375</LongitudeDegrees>
            </Position>
            <AltitudeMeters>379.20001220703125</AltitudeMeters>
            <DistanceMeters>79841.294428072</DistanceMeters>
          </Trackpoint>
          <Trackpoint>
            <Time>2022-04-23T13:41:31.000Z</Time>
            <Position>
              <LatitudeDegrees>41.61063420586287975311279296875</LatitudeDegrees>
              <LongitudeDegrees>-0.1254447363317012786865234375</LongitudeDegrees>
            </Position>
            <AltitudeMeters>380</AltitudeMeters>
            <DistanceMeters>79850.501727223</DistanceMeters>
          </Trackpoint>
          <Trackpoint>
            <Time>2022-04-23T13:41:33.000Z</Time>
            <Position>
              <LatitudeDegrees>41.61065784282982349395751953125</LatitudeDegrees>
              <LongitudeDegrees>-0.1255161501467227935791015625</LongitudeDegrees>
            </Position>
            <AltitudeMeters>380.20001220703125</AltitudeMeters>
            <DistanceMeters>79857.001165476</DistanceMeters>
          </Trackpoint>
          <Trackpoint>
            <Time>2022-04-23T13:41:39.000Z</Time>
            <Position>
              <LatitudeDegrees>41.61073026247322559356689453125</LatitudeDegrees>
              <LongitudeDegrees>-0.12572326697409152984619140625</LongitudeDegrees>
            </Position>
            <AltitudeMeters>381.20001220703125</AltitudeMeters>
            <DistanceMeters>79876.028826523</DistanceMeters>
          </Trackpoint>
          <Trackpoint>
            <Time>2022-04-23T13:41:40.000Z</Time>
            <Position>
              <LatitudeDegrees>41.610743589699268341064453125</LatitudeDegrees>
              <LongitudeDegrees>-0.12575981207191944122314453125</LongitudeDegrees>
            </Position>
            <AltitudeMeters>381.20001220703125</AltitudeMeters>
            <DistanceMeters>79879.41263162</DistanceMeters>
          </Trackpoint>
          <Trackpoint>
            <Time>2022-04-23T13:41:43.000Z</Time>
            <Position>
              <LatitudeDegrees>41.61079228855669498443603515625</LatitudeDegrees>
              <LongitudeDegrees>-0.12587984092533588409423828125</LongitudeDegrees>
            </Position>
            <AltitudeMeters>382.600006103515625</AltitudeMeters>
            <DistanceMeters>79890.776571219</DistanceMeters>
          </Trackpoint>
          <Trackpoint>
            <Time>2022-04-23T13:41:45.000Z</Time>
            <Position>
              <LatitudeDegrees>41.61083386279642581939697265625</LatitudeDegrees>
              <LongitudeDegrees>-0.125964246690273284912109375</LongitudeDegrees>
            </Position>
            <AltitudeMeters>383.20001220703125</AltitudeMeters>
            <DistanceMeters>79899.187911715</DistanceMeters>
          </Trackpoint>
          <Trackpoint>
            <Time>2022-04-23T13:41:48.000Z</Time>
            <Position>
              <LatitudeDegrees>41.61092103458940982818603515625</LatitudeDegrees>
              <LongitudeDegrees>-0.1260854490101337432861328125</LongitudeDegrees>
            </Position>
            <AltitudeMeters>383.79998779296875</AltitudeMeters>
            <DistanceMeters>79913.183317681</DistanceMeters>
          </Trackpoint>
          <Trackpoint>
            <Time>2022-04-23T13:41:50.000Z</Time>
            <Position>
              <LatitudeDegrees>41.61099429242312908172607421875</LatitudeDegrees>
              <LongitudeDegrees>-0.1261702738702297210693359375</LongitudeDegrees>
            </Position>
            <AltitudeMeters>384</AltitudeMeters>
            <DistanceMeters>79923.967907826</DistanceMeters>
          </Trackpoint>
          <Trackpoint>
            <Time>2022-04-23T13:41:51.000Z</Time>
            <Position>
              <LatitudeDegrees>41.61103494465351104736328125</LatitudeDegrees>
              <LongitudeDegrees>-0.12621126137673854827880859375</LongitudeDegrees>
            </Position>
            <AltitudeMeters>384</AltitudeMeters>
            <DistanceMeters>79929.634560439</DistanceMeters>
          </Trackpoint>
          <Trackpoint>
            <Time>2022-04-23T13:41:55.000Z</Time>
            <Position>
              <LatitudeDegrees>41.6112295724451541900634765625</LatitudeDegrees>
              <LongitudeDegrees>-0.12633531354367733001708984375</LongitudeDegrees>
            </Position>
            <AltitudeMeters>383</AltitudeMeters>
            <DistanceMeters>79953.631016733</DistanceMeters>
          </Trackpoint>
          <Trackpoint>
            <Time>2022-04-23T13:41:57.000Z</Time>
            <Position>
              <LatitudeDegrees>41.61133275367319583892822265625</LatitudeDegrees>
              <LongitudeDegrees>-0.12639968656003475189208984375</LongitudeDegrees>
            </Position>
            <AltitudeMeters>382.600006103515625</AltitudeMeters>
            <DistanceMeters>79966.303462412</DistanceMeters>
          </Trackpoint>
          <Trackpoint>
            <Time>2022-04-23T13:41:59.000Z</Time>
            <Position>
              <LatitudeDegrees>41.61142294295132160186767578125</LatitudeDegrees>
              <LongitudeDegrees>-0.1264970004558563232421875</LongitudeDegrees>
            </Position>
            <AltitudeMeters>382</AltitudeMeters>
            <DistanceMeters>79979.2012168</DistanceMeters>
          </Trackpoint>
          <Trackpoint>
            <Time>2022-04-23T13:42:00.000Z</Time>
            <Position>
              <LatitudeDegrees>41.6114572249352931976318359375</LatitudeDegrees>
              <LongitudeDegrees>-0.12656531296670436859130859375</LongitudeDegrees>
            </Position>
            <AltitudeMeters>381.399993896484375</AltitudeMeters>
            <DistanceMeters>79986.04775803</DistanceMeters>
          </Trackpoint>
          <Trackpoint>
            <Time>2022-04-23T13:42:01.000Z</Time>
            <Position>
              <LatitudeDegrees>41.61148111335933208465576171875</LatitudeDegrees>
              <LongitudeDegrees>-0.126642845571041107177734375</LongitudeDegrees>
            </Position>
            <AltitudeMeters>381.20001220703125</AltitudeMeters>
            <DistanceMeters>79993.026886367</DistanceMeters>
          </Trackpoint>
          <Trackpoint>
            <Time>2022-04-23T13:42:04.000Z</Time>
            <Position>
              <LatitudeDegrees>41.611519753932952880859375</LatitudeDegrees>
              <LongitudeDegrees>-0.12687225826084613800048828125</LongitudeDegrees>
            </Position>
            <AltitudeMeters>380.20001220703125</AltitudeMeters>
            <DistanceMeters>80012.596391777</DistanceMeters>
          </Trackpoint>
          <Trackpoint>
            <Time>2022-04-23T13:42:08.000Z</Time>
            <Position>
              <LatitudeDegrees>41.6115564666688442230224609375</LatitudeDegrees>
              <LongitudeDegrees>-0.12712338007986545562744140625</LongitudeDegrees>
            </Position>
            <AltitudeMeters>379</AltitudeMeters>
            <DistanceMeters>80033.889586423</DistanceMeters>
          </Trackpoint>
          <Trackpoint>
            <Time>2022-04-23T13:42:09.000Z</Time>
            <Position>
              <LatitudeDegrees>41.6115666925907135009765625</LatitudeDegrees>
              <LongitudeDegrees>-0.1271707378327846527099609375</LongitudeDegrees>
            </Position>
            <AltitudeMeters>378.20001220703125</AltitudeMeters>
            <DistanceMeters>80037.992276089</DistanceMeters>
          </Trackpoint>
          <Trackpoint>
            <Time>2022-04-23T13:42:10.000Z</Time>
            <Position>
              <LatitudeDegrees>41.6115812771022319793701171875</LatitudeDegrees>
              <LongitudeDegrees>-0.12721356935799121856689453125</LongitudeDegrees>
            </Position>
            <AltitudeMeters>377.79998779296875</AltitudeMeters>
            <DistanceMeters>80041.909175357</DistanceMeters>
          </Trackpoint>
          <Trackpoint>
            <Time>2022-04-23T13:42:15.000Z</Time>
            <Position>
              <LatitudeDegrees>41.6116325743496417999267578125</LatitudeDegrees>
              <LongitudeDegrees>-0.12741498649120330810546875</LongitudeDegrees>
            </Position>
            <AltitudeMeters>377</AltitudeMeters>
            <DistanceMeters>80059.616301445</DistanceMeters>
          </Trackpoint>
          <Trackpoint>
            <Time>2022-04-23T13:42:18.000Z</Time>
            <Position>
              <LatitudeDegrees>41.61161036230623722076416015625</LatitudeDegrees>
              <LongitudeDegrees>-0.12754767201840877532958984375</LongitudeDegrees>
            </Position>
            <AltitudeMeters>376.79998779296875</AltitudeMeters>
            <DistanceMeters>80070.931266042</DistanceMeters>
          </Trackpoint>
          <Trackpoint>
            <Time>2022-04-23T13:42:22.000Z</Time>
            <Position>
              <LatitudeDegrees>41.61158571951091289520263671875</LatitudeDegrees>
              <LongitudeDegrees>-0.12773148715496063232421875</LongitudeDegrees>
            </Position>
            <AltitudeMeters>376.20001220703125</AltitudeMeters>
            <DistanceMeters>80086.471548034</DistanceMeters>
          </Trackpoint>
          <Trackpoint>
            <Time>2022-04-23T13:42:23.000Z</Time>
            <Position>
              <LatitudeDegrees>41.61158085800707340240478515625</LatitudeDegrees>
              <LongitudeDegrees>-0.1277809403836727142333984375</LongitudeDegrees>
            </Position>
            <AltitudeMeters>375.600006103515625</AltitudeMeters>
            <DistanceMeters>80090.622377573</DistanceMeters>
          </Trackpoint>
          <Trackpoint>
            <Time>2022-04-23T13:42:28.000Z</Time>
            <Position>
              <LatitudeDegrees>41.61154833622276782989501953125</LatitudeDegrees>
              <LongitudeDegrees>-0.128026194870471954345703125</LongitudeDegrees>
            </Position>
            <AltitudeMeters>375.20001220703125</AltitudeMeters>
            <DistanceMeters>80111.350185154</DistanceMeters>
          </Trackpoint>
          <Trackpoint>
            <Time>2022-04-23T13:42:32.000Z</Time>
            <Position>
              <LatitudeDegrees>41.61145194433629512786865234375</LatitudeDegrees>
              <LongitudeDegrees>-0.1281950064003467559814453125</LongitudeDegrees>
            </Position>
            <AltitudeMeters>375.399993896484375</AltitudeMeters>
            <DistanceMeters>80129.02617579</DistanceMeters>
          </Trackpoint>
          <Trackpoint>
            <Time>2022-04-23T13:42:38.000Z</Time>
            <Position>
              <LatitudeDegrees>41.611345075070858001708984375</LatitudeDegrees>
              <LongitudeDegrees>-0.1285242475569248199462890625</LongitudeDegrees>
            </Position>
            <AltitudeMeters>376.399993896484375</AltitudeMeters>
            <DistanceMeters>80158.89511438</DistanceMeters>
          </Trackpoint>
          <Trackpoint>
            <Time>2022-04-23T13:42:39.000Z</Time>
            <Position>
              <LatitudeDegrees>41.611325629055500030517578125</LatitudeDegrees>
              <LongitudeDegrees>-0.12857914902269840240478515625</LongitudeDegrees>
            </Position>
            <AltitudeMeters>376.399993896484375</AltitudeMeters>
            <DistanceMeters>80163.950321234</DistanceMeters>
          </Trackpoint>
          <Trackpoint>
            <Time>2022-04-23T13:42:42.000Z</Time>
            <Position>
              <LatitudeDegrees>41.61125279031693935394287109375</LatitudeDegrees>
              <LongitudeDegrees>-0.1287552528083324432373046875</LongitudeDegrees>
            </Position>
            <AltitudeMeters>376.600006103515625</AltitudeMeters>
            <DistanceMeters>80180.697954035</DistanceMeters>
          </Trackpoint>
          <Trackpoint>
            <Time>2022-04-23T13:42:45.000Z</Time>
            <Position>
              <LatitudeDegrees>41.6111548058688640594482421875</LatitudeDegrees>
              <LongitudeDegrees>-0.12889598496258258819580078125</LongitudeDegrees>
            </Position>
            <AltitudeMeters>376.600006103515625</AltitudeMeters>
            <DistanceMeters>80196.700859019</DistanceMeters>
          </Trackpoint>
          <Trackpoint>
            <Time>2022-04-23T13:42:46.000Z</Time>
            <Position>
              <LatitudeDegrees>41.61112119443714618682861328125</LatitudeDegrees>
              <LongitudeDegrees>-0.12893236242234706878662109375</LongitudeDegrees>
            </Position>
            <AltitudeMeters>376.600006103515625</AltitudeMeters>
            <DistanceMeters>80201.51262751</DistanceMeters>
          </Trackpoint>
          <Trackpoint>
            <Time>2022-04-23T13:42:48.000Z</Time>
            <Position>
              <LatitudeDegrees>41.6110548935830593109130859375</LatitudeDegrees>
              <LongitudeDegrees>-0.1290035247802734375</LongitudeDegrees>
            </Position>
            <AltitudeMeters>376.399993896484375</AltitudeMeters>
            <DistanceMeters>80210.973394799</DistanceMeters>
          </Trackpoint>
          <Trackpoint>
            <Time>2022-04-23T13:42:49.000Z</Time>
            <Position>
              <LatitudeDegrees>41.61102413199841976165771484375</LatitudeDegrees>
              <LongitudeDegrees>-0.12904535047709941864013671875</LongitudeDegrees>
            </Position>
            <AltitudeMeters>376.399993896484375</AltitudeMeters>
            <DistanceMeters>80215.855955788</DistanceMeters>
          </Trackpoint>
          <Trackpoint>
            <Time>2022-04-23T13:42:55.000Z</Time>
            <Position>
              <LatitudeDegrees>41.61086194217205047607421875</LatitudeDegrees>
              <LongitudeDegrees>-0.12925405986607074737548828125</LongitudeDegrees>
            </Position>
            <AltitudeMeters>376.399993896484375</AltitudeMeters>
            <DistanceMeters>80240.906446848</DistanceMeters>
          </Trackpoint>
          <Trackpoint>
            <Time>2022-04-23T13:42:57.000Z</Time>
            <Position>
              <LatitudeDegrees>41.61081206984817981719970703125</LatitudeDegrees>
              <LongitudeDegrees>-0.12931340374052524566650390625</LongitudeDegrees>
            </Position>
            <AltitudeMeters>376.600006103515625</AltitudeMeters>
            <DistanceMeters>80248.336174791</DistanceMeters>
          </Trackpoint>
          <Trackpoint>
            <Time>2022-04-23T13:43:01.000Z</Time>
            <Position>
              <LatitudeDegrees>41.610716097056865692138671875</LatitudeDegrees>
              <LongitudeDegrees>-0.12943728826940059661865234375</LongitudeDegrees>
            </Position>
            <AltitudeMeters>377.20001220703125</AltitudeMeters>
            <DistanceMeters>80263.18134288</DistanceMeters>
          </Trackpoint>
          <Trackpoint>
            <Time>2022-04-23T13:43:04.000Z</Time>
            <Position>
              <LatitudeDegrees>41.61063856445252895355224609375</LatitudeDegrees>
              <LongitudeDegrees>-0.12953820638358592987060546875</LongitudeDegrees>
            </Position>
            <AltitudeMeters>377.79998779296875</AltitudeMeters>
            <DistanceMeters>80275.22276877</DistanceMeters>
          </Trackpoint>
          <Trackpoint>
            <Time>2022-04-23T13:43:08.000Z</Time>
            <Position>
              <LatitudeDegrees>41.6105221398174762725830078125</LatitudeDegrees>
              <LongitudeDegrees>-0.12965999543666839599609375</LongitudeDegrees>
            </Position>
            <AltitudeMeters>378.20001220703125</AltitudeMeters>
            <DistanceMeters>80291.673646893</DistanceMeters>
          </Trackpoint>
          <Trackpoint>
            <Time>2022-04-23T13:43:16.000Z</Time>
            <Position>
              <LatitudeDegrees>41.6102576069533824920654296875</LatitudeDegrees>
              <LongitudeDegrees>-0.12985873036086559295654296875</LongitudeDegrees>
            </Position>
            <AltitudeMeters>378.79998779296875</AltitudeMeters>
            <DistanceMeters>80325.443579587</DistanceMeters>
          </Trackpoint>
          <Trackpoint>
            <Time>2022-04-23T13:43:17.000Z</Time>
            <Position>
              <LatitudeDegrees>41.61022298969328403472900390625</LatitudeDegrees>
              <LongitudeDegrees>-0.129886977374553680419921875</LongitudeDegrees>
            </Position>
            <AltitudeMeters>379</AltitudeMeters>
            <DistanceMeters>80329.957098442</DistanceMeters>
          </Trackpoint>
          <Trackpoint>
            <Time>2022-04-23T13:43:21.000Z</Time>
            <Position>
              <LatitudeDegrees>41.61007463000714778900146484375</LatitudeDegrees>
              <LongitudeDegrees>-0.1299971155822277069091796875</LongitudeDegrees>
            </Position>
            <AltitudeMeters>379.20001220703125</AltitudeMeters>
            <DistanceMeters>80348.84304532</DistanceMeters>
          </Trackpoint>
          <Trackpoint>
            <Time>2022-04-23T13:43:23.000Z</Time>
            <Position>
              <LatitudeDegrees>41.61001411266624927520751953125</LatitudeDegrees>
              <LongitudeDegrees>-0.1300702057778835296630859375</LongitudeDegrees>
            </Position>
            <AltitudeMeters>379.20001220703125</AltitudeMeters>
            <DistanceMeters>80357.918967164</DistanceMeters>
          </Trackpoint>
          <Trackpoint>
            <Time>2022-04-23T13:43:25.000Z</Time>
            <Position>
              <LatitudeDegrees>41.60996097140014171600341796875</LatitudeDegrees>
              <LongitudeDegrees>-0.13014907948672771453857421875</LongitudeDegrees>
            </Position>
            <AltitudeMeters>379.20001220703125</AltitudeMeters>
            <DistanceMeters>80366.754918778</DistanceMeters>
          </Trackpoint>
          <Trackpoint>
            <Time>2022-04-23T13:43:29.000Z</Time>
            <Position>
              <LatitudeDegrees>41.6098903119564056396484375</LatitudeDegrees>
              <LongitudeDegrees>-0.13030531816184520721435546875</LongitudeDegrees>
            </Position>
            <AltitudeMeters>379.79998779296875</AltitudeMeters>
            <DistanceMeters>80381.950281712</DistanceMeters>
          </Trackpoint>
          <Trackpoint>
            <Time>2022-04-23T13:43:33.000Z</Time>
            <Position>
              <LatitudeDegrees>41.6098217479884624481201171875</LatitudeDegrees>
              <LongitudeDegrees>-0.13049256987869739532470703125</LongitudeDegrees>
            </Position>
            <AltitudeMeters>379.79998779296875</AltitudeMeters>
            <DistanceMeters>80399.301441576</DistanceMeters>
          </Trackpoint>
          <Trackpoint>
            <Time>2022-04-23T13:43:36.000Z</Time>
            <Position>
              <LatitudeDegrees>41.60977321676909923553466796875</LatitudeDegrees>
              <LongitudeDegrees>-0.13064562343060970306396484375</LongitudeDegrees>
            </Position>
            <AltitudeMeters>379.79998779296875</AltitudeMeters>
            <DistanceMeters>80413.136561033</DistanceMeters>
          </Trackpoint>
          <Trackpoint>
            <Time>2022-04-23T13:43:44.000Z</Time>
            <Position>
              <LatitudeDegrees>41.6096745617687702178955078125</LatitudeDegrees>
              <LongitudeDegrees>-0.131046362221240997314453125</LongitudeDegrees>
            </Position>
            <AltitudeMeters>379</AltitudeMeters>
            <DistanceMeters>80448.246585179</DistanceMeters>
          </Trackpoint>
          <Trackpoint>
            <Time>2022-04-23T13:43:45.000Z</Time>
            <Position>
              <LatitudeDegrees>41.60966794006526470184326171875</LatitudeDegrees>
              <LongitudeDegrees>-0.13109841383993625640869140625</LongitudeDegrees>
            </Position>
            <AltitudeMeters>378.79998779296875</AltitudeMeters>
            <DistanceMeters>80452.64047906</DistanceMeters>
          </Trackpoint>
          <Trackpoint>
            <Time>2022-04-23T13:43:50.000Z</Time>
            <Position>
              <LatitudeDegrees>41.60967699252068996429443359375</LatitudeDegrees>
              <LongitudeDegrees>-0.13136412017047405242919921875</LongitudeDegrees>
            </Position>
            <AltitudeMeters>378.600006103515625</AltitudeMeters>
            <DistanceMeters>80474.775381085</DistanceMeters>
          </Trackpoint>
          <Trackpoint>
            <Time>2022-04-23T13:43:58.000Z</Time>
            <Position>
              <LatitudeDegrees>41.6096913255751132965087890625</LatitudeDegrees>
              <LongitudeDegrees>-0.131818167865276336669921875</LongitudeDegrees>
            </Position>
            <AltitudeMeters>379.20001220703125</AltitudeMeters>
            <DistanceMeters>80512.594580814</DistanceMeters>
          </Trackpoint>
          <Trackpoint>
            <Time>2022-04-23T13:43:59.000Z</Time>
            <Position>
              <LatitudeDegrees>41.609685458242893218994140625</LatitudeDegrees>
              <LongitudeDegrees>-0.13187642209231853485107421875</LongitudeDegrees>
            </Position>
            <AltitudeMeters>379.20001220703125</AltitudeMeters>
            <DistanceMeters>80517.486380337</DistanceMeters>
          </Trackpoint>
          <Trackpoint>
            <Time>2022-04-23T13:44:06.000Z</Time>
            <Position>
              <LatitudeDegrees>41.60964983515441417694091796875</LatitudeDegrees>
              <LongitudeDegrees>-0.13226634822785854339599609375</LongitudeDegrees>
            </Position>
            <AltitudeMeters>379.20001220703125</AltitudeMeters>
            <DistanceMeters>80550.176951254</DistanceMeters>
          </Trackpoint>
          <Trackpoint>
            <Time>2022-04-23T13:44:16.000Z</Time>
            <Position>
              <LatitudeDegrees>41.60949937999248504638671875</LatitudeDegrees>
              <LongitudeDegrees>-0.132809244096279144287109375</LongitudeDegrees>
            </Position>
            <AltitudeMeters>378.600006103515625</AltitudeMeters>
            <DistanceMeters>80598.359899829</DistanceMeters>
          </Trackpoint>
          <Trackpoint>
            <Time>2022-04-23T13:44:26.000Z</Time>
            <Position>
              <LatitudeDegrees>41.60939619876444339752197265625</LatitudeDegrees>
              <LongitudeDegrees>-0.133346021175384521484375</LongitudeDegrees>
            </Position>
            <AltitudeMeters>378.399993896484375</AltitudeMeters>
            <DistanceMeters>80644.482621005</DistanceMeters>
          </Trackpoint>
          <Trackpoint>
            <Time>2022-04-23T13:44:27.000Z</Time>
            <Position>
              <LatitudeDegrees>41.609391756355762481689453125</LatitudeDegrees>
              <LongitudeDegrees>-0.13340025208890438079833984375</LongitudeDegrees>
            </Position>
            <AltitudeMeters>378.399993896484375</AltitudeMeters>
            <DistanceMeters>80649.022074105</DistanceMeters>
          </Trackpoint>
          <Trackpoint>
            <Time>2022-04-23T13:44:29.000Z</Time>
            <Position>
              <LatitudeDegrees>41.60938781686127185821533203125</LatitudeDegrees>
              <LongitudeDegrees>-0.1335138268768787384033203125</LongitudeDegrees>
            </Position>
            <AltitudeMeters>378.20001220703125</AltitudeMeters>
            <DistanceMeters>80658.483795823</DistanceMeters>
          </Trackpoint>
          <Trackpoint>
            <Time>2022-04-23T13:44:31.000Z</Time>
            <Position>
              <LatitudeDegrees>41.6093919239938259124755859375</LatitudeDegrees>
              <LongitudeDegrees>-0.13362673111259937286376953125</LongitudeDegrees>
            </Position>
            <AltitudeMeters>378.20001220703125</AltitudeMeters>
            <DistanceMeters>80667.890960601</DistanceMeters>
          </Trackpoint>
          <Trackpoint>
            <Time>2022-04-23T13:44:32.000Z</Time>
            <Position>
              <LatitudeDegrees>41.60939519293606281280517578125</LatitudeDegrees>
              <LongitudeDegrees>-0.133683644235134124755859375</LongitudeDegrees>
            </Position>
            <AltitudeMeters>378</AltitudeMeters>
            <DistanceMeters>80672.640395404</DistanceMeters>
          </Trackpoint>
          <Trackpoint>
            <Time>2022-04-23T13:44:34.000Z</Time>
            <Position>
              <LatitudeDegrees>41.60941396839916706085205078125</LatitudeDegrees>
              <LongitudeDegrees>-0.1338004879653453826904296875</LongitudeDegrees>
            </Position>
            <AltitudeMeters>377.600006103515625</AltitudeMeters>
            <DistanceMeters>80682.585112455</DistanceMeters>
          </Trackpoint>
          <Trackpoint>
            <Time>2022-04-23T13:44:38.000Z</Time>
            <Position>
              <LatitudeDegrees>41.6094549559056758880615234375</LatitudeDegrees>
              <LongitudeDegrees>-0.1340375281870365142822265625</LongitudeDegrees>
            </Position>
            <AltitudeMeters>377.399993896484375</AltitudeMeters>
            <DistanceMeters>80702.83182454</DistanceMeters>
          </Trackpoint>
          <Trackpoint>
            <Time>2022-04-23T13:44:48.000Z</Time>
            <Position>
              <LatitudeDegrees>41.60961530171334743499755859375</LatitudeDegrees>
              <LongitudeDegrees>-0.1346212439239025115966796875</LongitudeDegrees>
            </Position>
            <AltitudeMeters>377</AltitudeMeters>
            <DistanceMeters>80754.582748511</DistanceMeters>
          </Trackpoint>
          <Trackpoint>
            <Time>2022-04-23T13:44:55.000Z</Time>
            <Position>
              <LatitudeDegrees>41.60978998057544231414794921875</LatitudeDegrees>
              <LongitudeDegrees>-0.135032124817371368408203125</LongitudeDegrees>
            </Position>
            <AltitudeMeters>377</AltitudeMeters>
            <DistanceMeters>80793.916577303</DistanceMeters>
          </Trackpoint>
          <Trackpoint>
            <Time>2022-04-23T13:44:58.000Z</Time>
            <Position>
              <LatitudeDegrees>41.60985519178211688995361328125</LatitudeDegrees>
              <LongitudeDegrees>-0.1352200470864772796630859375</LongitudeDegrees>
            </Position>
            <AltitudeMeters>376.79998779296875</AltitudeMeters>
            <DistanceMeters>80811.157314709</DistanceMeters>
          </Trackpoint>
          <Trackpoint>
            <Time>2022-04-23T13:45:02.000Z</Time>
            <Position>
              <LatitudeDegrees>41.6099213249981403350830078125</LatitudeDegrees>
              <LongitudeDegrees>-0.13548030517995357513427734375</LongitudeDegrees>
            </Position>
            <AltitudeMeters>376.20001220703125</AltitudeMeters>
            <DistanceMeters>80834.032516779</DistanceMeters>
          </Trackpoint>
          <Trackpoint>
            <Time>2022-04-23T13:45:03.000Z</Time>
            <Position>
              <LatitudeDegrees>41.60993364639580249786376953125</LatitudeDegrees>
              <LongitudeDegrees>-0.1355425827205181121826171875</LongitudeDegrees>
            </Position>
            <AltitudeMeters>376.20001220703125</AltitudeMeters>
            <DistanceMeters>80839.394583862</DistanceMeters>
          </Trackpoint>
          <Trackpoint>
            <Time>2022-04-23T13:45:05.000Z</Time>
            <Position>
              <LatitudeDegrees>41.60993230529129505157470703125</LatitudeDegrees>
              <LongitudeDegrees>-0.1356699876487255096435546875</LongitudeDegrees>
            </Position>
            <AltitudeMeters>375.79998779296875</AltitudeMeters>
            <DistanceMeters>80849.997623602</DistanceMeters>
          </Trackpoint>
          <Trackpoint>
            <Time>2022-04-23T13:45:06.000Z</Time>
            <Position>
              <LatitudeDegrees>41.6099142841994762420654296875</LatitudeDegrees>
              <LongitudeDegrees>-0.1357318460941314697265625</LongitudeDegrees>
            </Position>
            <AltitudeMeters>375.79998779296875</AltitudeMeters>
            <DistanceMeters>80855.52226462</DistanceMeters>
          </Trackpoint>
          <Trackpoint>
            <Time>2022-04-23T13:45:07.000Z</Time>
            <Position>
              <LatitudeDegrees>41.60988436080515384674072265625</LatitudeDegrees>
              <LongitudeDegrees>-0.13578750193119049072265625</LongitudeDegrees>
            </Position>
            <AltitudeMeters>375.79998779296875</AltitudeMeters>
            <DistanceMeters>80861.226242656</DistanceMeters>
          </Trackpoint>
          <Trackpoint>
            <Time>2022-04-23T13:45:09.000Z</Time>
            <Position>
              <LatitudeDegrees>41.6098106838762760162353515625</LatitudeDegrees>
              <LongitudeDegrees>-0.13587609864771366119384765625</LongitudeDegrees>
            </Position>
            <AltitudeMeters>375.79998779296875</AltitudeMeters>
            <DistanceMeters>80872.253436741</DistanceMeters>
          </Trackpoint>
          <Trackpoint>
            <Time>2022-04-23T13:45:10.000Z</Time>
            <Position>
              <LatitudeDegrees>41.6097714565694332122802734375</LatitudeDegrees>
              <LongitudeDegrees>-0.13591515831649303436279296875</LongitudeDegrees>
            </Position>
            <AltitudeMeters>375.79998779296875</AltitudeMeters>
            <DistanceMeters>80877.695738711</DistanceMeters>
          </Trackpoint>
          <Trackpoint>
            <Time>2022-04-23T13:45:11.000Z</Time>
            <Position>
              <LatitudeDegrees>41.6097325645387172698974609375</LatitudeDegrees>
              <LongitudeDegrees>-0.1359532959759235382080078125</LongitudeDegrees>
            </Position>
            <AltitudeMeters>375.600006103515625</AltitudeMeters>
            <DistanceMeters>80883.062855615</DistanceMeters>
          </Trackpoint>
          <Trackpoint>
            <Time>2022-04-23T13:45:14.000Z</Time>
            <Position>
              <LatitudeDegrees>41.60960926674306392669677734375</LatitudeDegrees>
              <LongitudeDegrees>-0.13606469146907329559326171875</LongitudeDegrees>
            </Position>
            <AltitudeMeters>375.399993896484375</AltitudeMeters>
            <DistanceMeters>80899.623970065</DistanceMeters>
          </Trackpoint>
          <Trackpoint>
            <Time>2022-04-23T13:45:15.000Z</Time>
            <Position>
              <LatitudeDegrees>41.6095736436545848846435546875</LatitudeDegrees>
              <LongitudeDegrees>-0.13611313886940479278564453125</LongitudeDegrees>
            </Position>
            <AltitudeMeters>375.399993896484375</AltitudeMeters>
            <DistanceMeters>80905.279456849</DistanceMeters>
          </Trackpoint>
          <Trackpoint>
            <Time>2022-04-23T13:45:22.000Z</Time>
            <Position>
              <LatitudeDegrees>41.6093597374856472015380859375</LatitudeDegrees>
              <LongitudeDegrees>-0.13648713938891887664794921875</LongitudeDegrees>
            </Position>
            <AltitudeMeters>375.399993896484375</AltitudeMeters>
            <DistanceMeters>80944.465505886</DistanceMeters>
          </Trackpoint>
          <Trackpoint>
            <Time>2022-04-23T13:45:28.000Z</Time>
            <Position>
              <LatitudeDegrees>41.60921414382755756378173828125</LatitudeDegrees>
              <LongitudeDegrees>-0.1368256844580173492431640625</LongitudeDegrees>
            </Position>
            <AltitudeMeters>375.600006103515625</AltitudeMeters>
            <DistanceMeters>80976.96700389</DistanceMeters>
          </Trackpoint>
          <Trackpoint>
            <Time>2022-04-23T13:45:29.000Z</Time>
            <Position>
              <LatitudeDegrees>41.6091756708920001983642578125</LatitudeDegrees>
              <LongitudeDegrees>-0.136880837380886077880859375</LongitudeDegrees>
            </Position>
            <AltitudeMeters>375.600006103515625</AltitudeMeters>
            <DistanceMeters>80983.244523591</DistanceMeters>
          </Trackpoint>
          <Trackpoint>
            <Time>2022-04-23T13:45:30.000Z</Time>
            <Position>
              <LatitudeDegrees>41.60912931896746158599853515625</LatitudeDegrees>
              <LongitudeDegrees>-0.13692702166736125946044921875</LongitudeDegrees>
            </Position>
            <AltitudeMeters>375.600006103515625</AltitudeMeters>
            <DistanceMeters>80989.677628623</DistanceMeters>
          </Trackpoint>
          <Trackpoint>
            <Time>2022-04-23T13:45:33.000Z</Time>
            <Position>
              <LatitudeDegrees>41.60896436311304569244384765625</LatitudeDegrees>
              <LongitudeDegrees>-0.13703531585633754730224609375</LongitudeDegrees>
            </Position>
            <AltitudeMeters>375.600006103515625</AltitudeMeters>
            <DistanceMeters>81010.130017997</DistanceMeters>
          </Trackpoint>
          <Trackpoint>
            <Time>2022-04-23T13:45:36.000Z</Time>
            <Position>
              <LatitudeDegrees>41.60883243195712566375732421875</LatitudeDegrees>
              <LongitudeDegrees>-0.13717981986701488494873046875</LongitudeDegrees>
            </Position>
            <AltitudeMeters>375.399993896484375</AltitudeMeters>
            <DistanceMeters>81029.110162086</DistanceMeters>
          </Trackpoint>
          <Trackpoint>
            <Time>2022-04-23T13:45:37.000Z</Time>
            <Position>
              <LatitudeDegrees>41.6088018380105495452880859375</LatitudeDegrees>
              <LongitudeDegrees>-0.137234888970851898193359375</LongitudeDegrees>
            </Position>
            <AltitudeMeters>375.20001220703125</AltitudeMeters>
            <DistanceMeters>81034.81967835</DistanceMeters>
          </Trackpoint>
          <Trackpoint>
            <Time>2022-04-23T13:45:40.000Z</Time>
            <Position>
              <LatitudeDegrees>41.60871542058885097503662109375</LatitudeDegrees>
              <LongitudeDegrees>-0.1374130882322788238525390625</LongitudeDegrees>
            </Position>
            <AltitudeMeters>374.600006103515625</AltitudeMeters>
            <DistanceMeters>81052.495668986</DistanceMeters>
          </Trackpoint>
          <Trackpoint>
            <Time>2022-04-23T13:45:43.000Z</Time>
            <Position>
              <LatitudeDegrees>41.60865942947566509246826171875</LatitudeDegrees>
              <LongitudeDegrees>-0.13756505213677883148193359375</LongitudeDegrees>
            </Position>
            <AltitudeMeters>374.20001220703125</AltitudeMeters>
            <DistanceMeters>81066.594251988</DistanceMeters>
          </Trackpoint>
          <Trackpoint>
            <Time>2022-04-23T13:45:48.000Z</Time>
            <Position>
              <LatitudeDegrees>41.6085812263190746307373046875</LatitudeDegrees>
              <LongitudeDegrees>-0.137776695191860198974609375</LongitudeDegrees>
            </Position>
            <AltitudeMeters>374.20001220703125</AltitudeMeters>
            <DistanceMeters>81086.240666102</DistanceMeters>
          </Trackpoint>
          <Trackpoint>
            <Time>2022-04-23T13:45:52.000Z</Time>
            <Position>
              <LatitudeDegrees>41.6085862554609775543212890625</LatitudeDegrees>
              <LongitudeDegrees>-0.13797475956380367279052734375</LongitudeDegrees>
            </Position>
            <AltitudeMeters>374.399993896484375</AltitudeMeters>
            <DistanceMeters>81102.733208739</DistanceMeters>
          </Trackpoint>
          <Trackpoint>
            <Time>2022-04-23T13:45:58.000Z</Time>
            <Position>
              <LatitudeDegrees>41.6086861677467823028564453125</LatitudeDegrees>
              <LongitudeDegrees>-0.13828036375343799591064453125</LongitudeDegrees>
            </Position>
            <AltitudeMeters>375</AltitudeMeters>
            <DistanceMeters>81130.490770637</DistanceMeters>
          </Trackpoint>
          <Trackpoint>
            <Time>2022-04-23T13:45:59.000Z</Time>
            <Position>
              <LatitudeDegrees>41.6086935438215732574462890625</LatitudeDegrees>
              <LongitudeDegrees>-0.13833065517246723175048828125</LongitudeDegrees>
            </Position>
            <AltitudeMeters>375.20001220703125</AltitudeMeters>
            <DistanceMeters>81134.756401192</DistanceMeters>
          </Trackpoint>
          <Trackpoint>
            <Time>2022-04-23T13:46:00.000Z</Time>
            <Position>
              <LatitudeDegrees>41.608698405325412750244140625</LatitudeDegrees>
              <LongitudeDegrees>-0.1383800245821475982666015625</LongitudeDegrees>
            </Position>
            <AltitudeMeters>375.399993896484375</AltitudeMeters>
            <DistanceMeters>81138.90069913</DistanceMeters>
          </Trackpoint>
          <Trackpoint>
            <Time>2022-04-23T13:46:03.000Z</Time>
            <Position>
              <LatitudeDegrees>41.6087049432098865509033203125</LatitudeDegrees>
              <LongitudeDegrees>-0.13853467069566249847412109375</LongitudeDegrees>
            </Position>
            <AltitudeMeters>375.399993896484375</AltitudeMeters>
            <DistanceMeters>81151.79110008</DistanceMeters>
          </Trackpoint>
          <Trackpoint>
            <Time>2022-04-23T13:46:05.000Z</Time>
            <Position>
              <LatitudeDegrees>41.60872497595846652984619140625</LatitudeDegrees>
              <LongitudeDegrees>-0.1386505924165248870849609375</LongitudeDegrees>
            </Position>
            <AltitudeMeters>375.600006103515625</AltitudeMeters>
            <DistanceMeters>81161.692135878</DistanceMeters>
          </Trackpoint>
          <Trackpoint>
            <Time>2022-04-23T13:46:06.000Z</Time>
            <Position>
              <LatitudeDegrees>41.60873050801455974578857421875</LatitudeDegrees>
              <LongitudeDegrees>-0.1387079246342182159423828125</LongitudeDegrees>
            </Position>
            <AltitudeMeters>375.600006103515625</AltitudeMeters>
            <DistanceMeters>81166.502027337</DistanceMeters>
          </Trackpoint>
          <Trackpoint>
            <Time>2022-04-23T13:46:07.000Z</Time>
            <Position>
              <LatitudeDegrees>41.60873235203325748443603515625</LatitudeDegrees>
              <LongitudeDegrees>-0.13876383192837238311767578125</LongitudeDegrees>
            </Position>
            <AltitudeMeters>375.600006103515625</AltitudeMeters>
            <DistanceMeters>81171.159305901</DistanceMeters>
          </Trackpoint>
          <Trackpoint>
            <Time>2022-04-23T13:46:10.000Z</Time>
            <Position>
              <LatitudeDegrees>41.6087039373815059661865234375</LatitudeDegrees>
              <LongitudeDegrees>-0.138901211321353912353515625</LongitudeDegrees>
            </Position>
            <AltitudeMeters>375.79998779296875</AltitudeMeters>
            <DistanceMeters>81183.022050579</DistanceMeters>
          </Trackpoint>
          <Trackpoint>
            <Time>2022-04-23T13:46:13.000Z</Time>
            <Position>
              <LatitudeDegrees>41.608668230473995208740234375</LatitudeDegrees>
              <LongitudeDegrees>-0.13901595957577228546142578125</LongitudeDegrees>
            </Position>
            <AltitudeMeters>376.600006103515625</AltitudeMeters>
            <DistanceMeters>81193.366004165</DistanceMeters>
          </Trackpoint>
          <Trackpoint>
            <Time>2022-04-23T13:46:16.000Z</Time>
            <Position>
              <LatitudeDegrees>41.60866043530404567718505859375</LatitudeDegrees>
              <LongitudeDegrees>-0.1391105912625789642333984375</LongitudeDegrees>
            </Position>
            <AltitudeMeters>377.600006103515625</AltitudeMeters>
            <DistanceMeters>81201.289203735</DistanceMeters>
          </Trackpoint>
          <Trackpoint>
            <Time>2022-04-23T13:46:17.000Z</Time>
            <Position>
              <LatitudeDegrees>41.60866864956915378570556640625</LatitudeDegrees>
              <LongitudeDegrees>-0.1391367428004741668701171875</LongitudeDegrees>
            </Position>
            <AltitudeMeters>377.79998779296875</AltitudeMeters>
            <DistanceMeters>81203.647704761</DistanceMeters>
          </Trackpoint>
          <Trackpoint>
            <Time>2022-04-23T13:46:21.000Z</Time>
            <Position>
              <LatitudeDegrees>41.6087978146970272064208984375</LatitudeDegrees>
              <LongitudeDegrees>-0.13922299258410930633544921875</LongitudeDegrees>
            </Position>
            <AltitudeMeters>378.399993896484375</AltitudeMeters>
            <DistanceMeters>81219.716213583</DistanceMeters>
          </Trackpoint>
          <Trackpoint>
            <Time>2022-04-23T13:46:23.000Z</Time>
            <Position>
              <LatitudeDegrees>41.60888641141355037689208984375</LatitudeDegrees>
              <LongitudeDegrees>-0.139276050031185150146484375</LongitudeDegrees>
            </Position>
            <AltitudeMeters>378.600006103515625</AltitudeMeters>
            <DistanceMeters>81230.52088055</DistanceMeters>
          </Trackpoint>
          <Trackpoint>
            <Time>2022-04-23T13:46:26.000Z</Time>
            <Position>
              <LatitudeDegrees>41.609006188809871673583984375</LatitudeDegrees>
              <LongitudeDegrees>-0.1394009403884410858154296875</LongitudeDegrees>
            </Position>
            <AltitudeMeters>378.600006103515625</AltitudeMeters>
            <DistanceMeters>81247.424955177</DistanceMeters>
          </Trackpoint>
          <Trackpoint>
            <Time>2022-04-23T13:46:28.000Z</Time>
            <Position>
              <LatitudeDegrees>41.60908925347030162811279296875</LatitudeDegrees>
              <LongitudeDegrees>-0.13948936946690082550048828125</LongitudeDegrees>
            </Position>
            <AltitudeMeters>378.600006103515625</AltitudeMeters>
            <DistanceMeters>81259.241556721</DistanceMeters>
          </Trackpoint>
          <Trackpoint>
            <Time>2022-04-23T13:46:31.000Z</Time>
            <Position>
              <LatitudeDegrees>41.609232164919376373291015625</LatitudeDegrees>
              <LongitudeDegrees>-0.13958844356238842010498046875</LongitudeDegrees>
            </Position>
            <AltitudeMeters>378.399993896484375</AltitudeMeters>
            <DistanceMeters>81277.157557873</DistanceMeters>
          </Trackpoint>
          <Trackpoint>
            <Time>2022-04-23T13:46:37.000Z</Time>
            <Position>
              <LatitudeDegrees>41.60946828313171863555908203125</LatitudeDegrees>
              <LongitudeDegrees>-0.139850713312625885009765625</LongitudeDegrees>
            </Position>
            <AltitudeMeters>378.399993896484375</AltitudeMeters>
            <DistanceMeters>81311.319496483</DistanceMeters>
          </Trackpoint>
          <Trackpoint>
            <Time>2022-04-23T13:46:40.000Z</Time>
            <Position>
              <LatitudeDegrees>41.6095684468746185302734375</LatitudeDegrees>
              <LongitudeDegrees>-0.13999848626554012298583984375</LongitudeDegrees>
            </Position>
            <AltitudeMeters>378.399993896484375</AltitudeMeters>
            <DistanceMeters>81327.918463091</DistanceMeters>
          </Trackpoint>
          <Trackpoint>
            <Time>2022-04-23T13:46:43.000Z</Time>
            <Position>
              <LatitudeDegrees>41.6096624918282032012939453125</LatitudeDegrees>
              <LongitudeDegrees>-0.1401241309940814971923828125</LongitudeDegrees>
            </Position>
            <AltitudeMeters>378.600006103515625</AltitudeMeters>
            <DistanceMeters>81342.713667823</DistanceMeters>
          </Trackpoint>
          <Trackpoint>
            <Time>2022-04-23T13:46:49.000Z</Time>
            <Position>
              <LatitudeDegrees>41.60987648181617259979248046875</LatitudeDegrees>
              <LongitudeDegrees>-0.14034189283847808837890625</LongitudeDegrees>
            </Position>
            <AltitudeMeters>379.20001220703125</AltitudeMeters>
            <DistanceMeters>81372.641501396</DistanceMeters>
          </Trackpoint>
          <Trackpoint>
            <Time>2022-04-23T13:46:55.000Z</Time>
            <Position>
              <LatitudeDegrees>41.61013296805322170257568359375</LatitudeDegrees>
              <LongitudeDegrees>-0.14045077376067638397216796875</LongitudeDegrees>
            </Position>
            <AltitudeMeters>379.399993896484375</AltitudeMeters>
            <DistanceMeters>81402.592408294</DistanceMeters>
          </Trackpoint>
          <Trackpoint>
            <Time>2022-04-23T13:46:57.000Z</Time>
            <Position>
              <LatitudeDegrees>41.610224582254886627197265625</LatitudeDegrees>
              <LongitudeDegrees>-0.14049419201910495758056640625</LongitudeDegrees>
            </Position>
            <AltitudeMeters>379.600006103515625</AltitudeMeters>
            <DistanceMeters>81413.410856463</DistanceMeters>
          </Trackpoint>
          <Trackpoint>
            <Time>2022-04-23T13:47:00.000Z</Time>
            <Position>
              <LatitudeDegrees>41.61034955643117427825927734375</LatitudeDegrees>
              <LongitudeDegrees>-0.1405891589820384979248046875</LongitudeDegrees>
            </Position>
            <AltitudeMeters>380.20001220703125</AltitudeMeters>
            <DistanceMeters>81429.409246592</DistanceMeters>
          </Trackpoint>
          <Trackpoint>
            <Time>2022-04-23T13:47:01.000Z</Time>
            <Position>
              <LatitudeDegrees>41.61038987338542938232421875</LatitudeDegrees>
              <LongitudeDegrees>-0.14061011373996734619140625</LongitudeDegrees>
            </Position>
            <AltitudeMeters>380.20001220703125</AltitudeMeters>
            <DistanceMeters>81434.223829256</DistanceMeters>
          </Trackpoint>
          <Trackpoint>
            <Time>2022-04-23T13:47:02.000Z</Time>
            <Position>
              <LatitudeDegrees>41.61043002270162105560302734375</LatitudeDegrees>
              <LongitudeDegrees>-0.140616483986377716064453125</LongitudeDegrees>
            </Position>
            <AltitudeMeters>380.20001220703125</AltitudeMeters>
            <DistanceMeters>81438.724324947</DistanceMeters>
          </Trackpoint>
          <Trackpoint>
            <Time>2022-04-23T13:47:03.000Z</Time>
            <Position>
              <LatitudeDegrees>41.61047293804585933685302734375</LatitudeDegrees>
              <LongitudeDegrees>-0.1406102813780307769775390625</LongitudeDegrees>
            </Position>
            <AltitudeMeters>380</AltitudeMeters>
            <DistanceMeters>81443.528580914</DistanceMeters>
          </Trackpoint>
          <Trackpoint>
            <Time>2022-04-23T13:47:04.000Z</Time>
            <Position>
              <LatitudeDegrees>41.61051954142749309539794921875</LatitudeDegrees>
              <LongitudeDegrees>-0.1405973732471466064453125</LongitudeDegrees>
            </Position>
            <AltitudeMeters>379.79998779296875</AltitudeMeters>
            <DistanceMeters>81448.826266974</DistanceMeters>
          </Trackpoint>
          <Trackpoint>
            <Time>2022-04-23T13:47:09.000Z</Time>
            <Position>
              <LatitudeDegrees>41.61076094023883342742919921875</LatitudeDegrees>
              <LongitudeDegrees>-0.14048614539206027984619140625</LongitudeDegrees>
            </Position>
            <AltitudeMeters>379.79998779296875</AltitudeMeters>
            <DistanceMeters>81477.244180277</DistanceMeters>
          </Trackpoint>
          <Trackpoint>
            <Time>2022-04-23T13:47:16.000Z</Time>
            <Position>
              <LatitudeDegrees>41.61111113615334033966064453125</LatitudeDegrees>
              <LongitudeDegrees>-0.140303336083889007568359375</LongitudeDegrees>
            </Position>
            <AltitudeMeters>379.399993896484375</AltitudeMeters>
            <DistanceMeters>81519.085296184</DistanceMeters>
          </Trackpoint>
          <Trackpoint>
            <Time>2022-04-23T13:47:18.000Z</Time>
            <Position>
              <LatitudeDegrees>41.61122261546552181243896484375</LatitudeDegrees>
              <LongitudeDegrees>-0.14026754535734653472900390625</LongitudeDegrees>
            </Position>
            <AltitudeMeters>379.399993896484375</AltitudeMeters>
            <DistanceMeters>81531.84579533</DistanceMeters>
          </Trackpoint>
          <Trackpoint>
            <Time>2022-04-23T13:47:21.000Z</Time>
            <Position>
              <LatitudeDegrees>41.61139762960374355316162109375</LatitudeDegrees>
              <LongitudeDegrees>-0.14027441851794719696044921875</LongitudeDegrees>
            </Position>
            <AltitudeMeters>379.399993896484375</AltitudeMeters>
            <DistanceMeters>81551.333455398</DistanceMeters>
          </Trackpoint>
          <Trackpoint>
            <Time>2022-04-23T13:47:29.000Z</Time>
            <Position>
              <LatitudeDegrees>41.61189232952892780303955078125</LatitudeDegrees>
              <LongitudeDegrees>-0.14039821922779083251953125</LongitudeDegrees>
            </Position>
            <AltitudeMeters>379.399993896484375</AltitudeMeters>
            <DistanceMeters>81607.349990755</DistanceMeters>
          </Trackpoint>
          <Trackpoint>
            <Time>2022-04-23T13:47:32.000Z</Time>
            <Position>
              <LatitudeDegrees>41.612077653408050537109375</LatitudeDegrees>
              <LongitudeDegrees>-0.140439458191394805908203125</LongitudeDegrees>
            </Position>
            <AltitudeMeters>379.20001220703125</AltitudeMeters>
            <DistanceMeters>81628.260186866</DistanceMeters>
          </Trackpoint>
          <Trackpoint>
            <Time>2022-04-23T13:47:38.000Z</Time>
            <Position>
              <LatitudeDegrees>41.61243396811187267303466796875</LatitudeDegrees>
              <LongitudeDegrees>-0.1405517756938934326171875</LongitudeDegrees>
            </Position>
            <AltitudeMeters>379.600006103515625</AltitudeMeters>
            <DistanceMeters>81669.005266251</DistanceMeters>
          </Trackpoint>
          <Trackpoint>
            <Time>2022-04-23T13:47:41.000Z</Time>
            <Position>
              <LatitudeDegrees>41.6126115806400775909423828125</LatitudeDegrees>
              <LongitudeDegrees>-0.14063752256333827972412109375</LongitudeDegrees>
            </Position>
            <AltitudeMeters>380.20001220703125</AltitudeMeters>
            <DistanceMeters>81690.022288384</DistanceMeters>
          </Trackpoint>
          <Trackpoint>
            <Time>2022-04-23T13:47:42.000Z</Time>
            <Position>
              <LatitudeDegrees>41.6126682423055171966552734375</LatitudeDegrees>
              <LongitudeDegrees>-0.140670798718929290771484375</LongitudeDegrees>
            </Position>
            <AltitudeMeters>380.600006103515625</AltitudeMeters>
            <DistanceMeters>81696.910250466</DistanceMeters>
          </Trackpoint>
          <Trackpoint>
            <Time>2022-04-23T13:47:44.000Z</Time>
            <Position>
              <LatitudeDegrees>41.61278282292187213897705078125</LatitudeDegrees>
              <LongitudeDegrees>-0.14075118117034435272216796875</LongitudeDegrees>
            </Position>
            <AltitudeMeters>381.20001220703125</AltitudeMeters>
            <DistanceMeters>81711.311109315</DistanceMeters>
          </Trackpoint>
          <Trackpoint>
            <Time>2022-04-23T13:47:45.000Z</Time>
            <Position>
              <LatitudeDegrees>41.61284166388213634490966796875</LatitudeDegrees>
              <LongitudeDegrees>-0.1407909952104091644287109375</LongitudeDegrees>
            </Position>
            <AltitudeMeters>381.20001220703125</AltitudeMeters>
            <DistanceMeters>81718.650961907</DistanceMeters>
          </Trackpoint>
          <Trackpoint>
            <Time>2022-04-23T13:47:46.000Z</Time>
            <Position>
              <LatitudeDegrees>41.61290586926043033599853515625</LatitudeDegrees>
              <LongitudeDegrees>-0.14082200825214385986328125</LongitudeDegrees>
            </Position>
            <AltitudeMeters>381.399993896484375</AltitudeMeters>
            <DistanceMeters>81726.248346235</DistanceMeters>
          </Trackpoint>
          <Trackpoint>
            <Time>2022-04-23T13:47:48.000Z</Time>
            <Position>
              <LatitudeDegrees>41.613032855093479156494140625</LatitudeDegrees>
              <LongitudeDegrees>-0.14087297022342681884765625</LongitudeDegrees>
            </Position>
            <AltitudeMeters>382.20001220703125</AltitudeMeters>
            <DistanceMeters>81741.004743606</DistanceMeters>
          </Trackpoint>
          <Trackpoint>
            <Time>2022-04-23T13:47:49.000Z</Time>
            <Position>
              <LatitudeDegrees>41.61309245042502880096435546875</LatitudeDegrees>
              <LongitudeDegrees>-0.1408939249813556671142578125</LongitudeDegrees>
            </Position>
            <AltitudeMeters>382.600006103515625</AltitudeMeters>
            <DistanceMeters>81747.862486538</DistanceMeters>
          </Trackpoint>
          <Trackpoint>
            <Time>2022-04-23T13:47:53.000Z</Time>
            <Position>
              <LatitudeDegrees>41.61335346288979053497314453125</LatitudeDegrees>
              <LongitudeDegrees>-0.1409331522881984710693359375</LongitudeDegrees>
            </Position>
            <AltitudeMeters>383</AltitudeMeters>
            <DistanceMeters>81777.096447864</DistanceMeters>
          </Trackpoint>
          <Trackpoint>
            <Time>2022-04-23T13:47:57.000Z</Time>
            <Position>
              <LatitudeDegrees>41.61361598409712314605712890625</LatitudeDegrees>
              <LongitudeDegrees>-0.14086701907217502593994140625</LongitudeDegrees>
            </Position>
            <AltitudeMeters>381.600006103515625</AltitudeMeters>
            <DistanceMeters>81806.829637131</DistanceMeters>
          </Trackpoint>
          <Trackpoint>
            <Time>2022-04-23T13:47:58.000Z</Time>
            <Position>
              <LatitudeDegrees>41.61368287168443202972412109375</LatitudeDegrees>
              <LongitudeDegrees>-0.1408602297306060791015625</LongitudeDegrees>
            </Position>
            <AltitudeMeters>381.20001220703125</AltitudeMeters>
            <DistanceMeters>81814.296342695</DistanceMeters>
          </Trackpoint>
          <Trackpoint>
            <Time>2022-04-23T13:48:01.000Z</Time>
            <Position>
              <LatitudeDegrees>41.61388688720762729644775390625</LatitudeDegrees>
              <LongitudeDegrees>-0.14087565243244171142578125</LongitudeDegrees>
            </Position>
            <AltitudeMeters>380.79998779296875</AltitudeMeters>
            <DistanceMeters>81837.039910333</DistanceMeters>
          </Trackpoint>
          <Trackpoint>
            <Time>2022-04-23T13:48:06.000Z</Time>
            <Position>
              <LatitudeDegrees>41.6142249293625354766845703125</LatitudeDegrees>
              <LongitudeDegrees>-0.14095611870288848876953125</LongitudeDegrees>
            </Position>
            <AltitudeMeters>380.79998779296875</AltitudeMeters>
            <DistanceMeters>81875.255775147</DistanceMeters>
          </Trackpoint>
          <Trackpoint>
            <Time>2022-04-23T13:48:07.000Z</Time>
            <Position>
              <LatitudeDegrees>41.61428737454116344451904296875</LatitudeDegrees>
              <LongitudeDegrees>-0.14099123887717723846435546875</LongitudeDegrees>
            </Position>
            <AltitudeMeters>380.79998779296875</AltitudeMeters>
            <DistanceMeters>81882.795891942</DistanceMeters>
          </Trackpoint>
          <Trackpoint>
            <Time>2022-04-23T13:48:13.000Z</Time>
            <Position>
              <LatitudeDegrees>41.6146339662373065948486328125</LatitudeDegrees>
              <LongitudeDegrees>-0.14122358523309230804443359375</LongitudeDegrees>
            </Position>
            <AltitudeMeters>381.399993896484375</AltitudeMeters>
            <DistanceMeters>81925.946182582</DistanceMeters>
          </Trackpoint>
          <Trackpoint>
            <Time>2022-04-23T13:48:14.000Z</Time>
            <Position>
              <LatitudeDegrees>41.6146832518279552459716796875</LatitudeDegrees>
              <LongitudeDegrees>-0.14127739705145359039306640625</LongitudeDegrees>
            </Position>
            <AltitudeMeters>381.79998779296875</AltitudeMeters>
            <DistanceMeters>81933.028064011</DistanceMeters>
          </Trackpoint>
          <Trackpoint>
            <Time>2022-04-23T13:48:15.000Z</Time>
            <Position>
              <LatitudeDegrees>41.61472843028604984283447265625</LatitudeDegrees>
              <LongitudeDegrees>-0.1413358189165592193603515625</LongitudeDegrees>
            </Position>
            <AltitudeMeters>382</AltitudeMeters>
            <DistanceMeters>81940.022056011</DistanceMeters>
          </Trackpoint>
          <Trackpoint>
            <Time>2022-04-23T13:48:17.000Z</Time>
            <Position>
              <LatitudeDegrees>41.61480772309005260467529296875</LatitudeDegrees>
              <LongitudeDegrees>-0.141466744244098663330078125</LongitudeDegrees>
            </Position>
            <AltitudeMeters>382.600006103515625</AltitudeMeters>
            <DistanceMeters>81954.042924892</DistanceMeters>
          </Trackpoint>
          <Trackpoint>
            <Time>2022-04-23T13:48:19.000Z</Time>
            <Position>
              <LatitudeDegrees>41.614892296493053436279296875</LatitudeDegrees>
              <LongitudeDegrees>-0.14159716665744781494140625</LongitudeDegrees>
            </Position>
            <AltitudeMeters>383</AltitudeMeters>
            <DistanceMeters>81968.409254528</DistanceMeters>
          </Trackpoint>
          <Trackpoint>
            <Time>2022-04-23T13:48:21.000Z</Time>
            <Position>
              <LatitudeDegrees>41.61499648354947566986083984375</LatitudeDegrees>
              <LongitudeDegrees>-0.141680650413036346435546875</LongitudeDegrees>
            </Position>
            <AltitudeMeters>383</AltitudeMeters>
            <DistanceMeters>81981.927117781</DistanceMeters>
          </Trackpoint>
          <Trackpoint>
            <Time>2022-04-23T13:48:22.000Z</Time>
            <Position>
              <LatitudeDegrees>41.6150614432990550994873046875</LatitudeDegrees>
              <LongitudeDegrees>-0.14169984497129917144775390625</LongitudeDegrees>
            </Position>
            <AltitudeMeters>383.20001220703125</AltitudeMeters>
            <DistanceMeters>81989.331888146</DistanceMeters>
          </Trackpoint>
          <Trackpoint>
            <Time>2022-04-23T13:48:23.000Z</Time>
            <Position>
              <LatitudeDegrees>41.6151291690766811370849609375</LatitudeDegrees>
              <LongitudeDegrees>-0.14170386828482151031494140625</LongitudeDegrees>
            </Position>
            <AltitudeMeters>383</AltitudeMeters>
            <DistanceMeters>81996.876793838</DistanceMeters>
          </Trackpoint>
          <Trackpoint>
            <Time>2022-04-23T13:48:27.000Z</Time>
            <Position>
              <LatitudeDegrees>41.615386493504047393798828125</LatitudeDegrees>
              <LongitudeDegrees>-0.1416637189686298370361328125</LongitudeDegrees>
            </Position>
            <AltitudeMeters>382.79998779296875</AltitudeMeters>
            <DistanceMeters>82025.711726102</DistanceMeters>
          </Trackpoint>
          <Trackpoint>
            <Time>2022-04-23T13:48:33.000Z</Time>
            <Position>
              <LatitudeDegrees>41.615738533437252044677734375</LatitudeDegrees>
              <LongitudeDegrees>-0.14153706841170787811279296875</LongitudeDegrees>
            </Position>
            <AltitudeMeters>382</AltitudeMeters>
            <DistanceMeters>82066.286909122</DistanceMeters>
          </Trackpoint>
          <Trackpoint>
            <Time>2022-04-23T13:48:39.000Z</Time>
            <Position>
              <LatitudeDegrees>41.6160927526652812957763671875</LatitudeDegrees>
              <LongitudeDegrees>-0.141488872468471527099609375</LongitudeDegrees>
            </Position>
            <AltitudeMeters>381.600006103515625</AltitudeMeters>
            <DistanceMeters>82105.915669569</DistanceMeters>
          </Trackpoint>
          <Trackpoint>
            <Time>2022-04-23T13:48:40.000Z</Time>
            <Position>
              <LatitudeDegrees>41.6161524318158626556396484375</LatitudeDegrees>
              <LongitudeDegrees>-0.14148476533591747283935546875</LongitudeDegrees>
            </Position>
            <AltitudeMeters>381.600006103515625</AltitudeMeters>
            <DistanceMeters>82112.567539574</DistanceMeters>
          </Trackpoint>
          <Trackpoint>
            <Time>2022-04-23T13:48:44.000Z</Time>
            <Position>
              <LatitudeDegrees>41.6163790784776210784912109375</LatitudeDegrees>
              <LongitudeDegrees>-0.14152985997498035430908203125</LongitudeDegrees>
            </Position>
            <AltitudeMeters>381.79998779296875</AltitudeMeters>
            <DistanceMeters>82138.071371372</DistanceMeters>
          </Trackpoint>
          <Trackpoint>
            <Time>2022-04-23T13:48:49.000Z</Time>
            <Position>
              <LatitudeDegrees>41.61660145036876201629638671875</LatitudeDegrees>
              <LongitudeDegrees>-0.14159825630486011505126953125</LongitudeDegrees>
            </Position>
            <AltitudeMeters>381.79998779296875</AltitudeMeters>
            <DistanceMeters>82163.46787192</DistanceMeters>
          </Trackpoint>
          <Trackpoint>
            <Time>2022-04-23T13:48:53.000Z</Time>
            <Position>
              <LatitudeDegrees>41.616706140339374542236328125</LatitudeDegrees>
              <LongitudeDegrees>-0.14161183498799800872802734375</LongitudeDegrees>
            </Position>
            <AltitudeMeters>381.600006103515625</AltitudeMeters>
            <DistanceMeters>82175.174684901</DistanceMeters>
          </Trackpoint>
          <Trackpoint>
            <Time>2022-04-23T13:48:57.000Z</Time>
            <Position>
              <LatitudeDegrees>41.61683228798210620880126953125</LatitudeDegrees>
              <LongitudeDegrees>-0.1416184566915035247802734375</LongitudeDegrees>
            </Position>
            <AltitudeMeters>381.600006103515625</AltitudeMeters>
            <DistanceMeters>82189.226433957</DistanceMeters>
          </Trackpoint>
          <Trackpoint>
            <Time>2022-04-23T13:48:58.000Z</Time>
            <Position>
              <LatitudeDegrees>41.61686472594738006591796875</LatitudeDegrees>
              <LongitudeDegrees>-0.14164485968649387359619140625</LongitudeDegrees>
            </Position>
            <AltitudeMeters>381.600006103515625</AltitudeMeters>
            <DistanceMeters>82193.452719703</DistanceMeters>
          </Trackpoint>
          <Trackpoint>
            <Time>2022-04-23T13:48:59.000Z</Time>
            <Position>
              <LatitudeDegrees>41.61690303124487400054931640625</LatitudeDegrees>
              <LongitudeDegrees>-0.14167956076562404632568359375</LongitudeDegrees>
            </Position>
            <AltitudeMeters>381.600006103515625</AltitudeMeters>
            <DistanceMeters>82198.601729748</DistanceMeters>
          </Trackpoint>
          <Trackpoint>
            <Time>2022-04-23T13:49:01.000Z</Time>
            <Position>
              <LatitudeDegrees>41.6169959865510463714599609375</LatitudeDegrees>
              <LongitudeDegrees>-0.1417482085525989532470703125</LongitudeDegrees>
            </Position>
            <AltitudeMeters>381.600006103515625</AltitudeMeters>
            <DistanceMeters>82210.419859564</DistanceMeters>
          </Trackpoint>
          <Trackpoint>
            <Time>2022-04-23T13:49:02.000Z</Time>
            <Position>
              <LatitudeDegrees>41.61704736761748790740966796875</LatitudeDegrees>
              <LongitudeDegrees>-0.14178433455526828765869140625</LongitudeDegrees>
            </Position>
            <AltitudeMeters>381.600006103515625</AltitudeMeters>
            <DistanceMeters>82216.880278538</DistanceMeters>
          </Trackpoint>
          <Trackpoint>
            <Time>2022-04-23T13:49:07.000Z</Time>
            <Position>
              <LatitudeDegrees>41.61731525324285030364990234375</LatitudeDegrees>
              <LongitudeDegrees>-0.14196387492120265960693359375</LongitudeDegrees>
            </Position>
            <AltitudeMeters>382.399993896484375</AltitudeMeters>
            <DistanceMeters>82250.229917147</DistanceMeters>
          </Trackpoint>
          <Trackpoint>
            <Time>2022-04-23T13:49:08.000Z</Time>
            <Position>
              <LatitudeDegrees>41.61737124435603618621826171875</LatitudeDegrees>
              <LongitudeDegrees>-0.14199254103004932403564453125</LongitudeDegrees>
            </Position>
            <AltitudeMeters>382.399993896484375</AltitudeMeters>
            <DistanceMeters>82256.902795607</DistanceMeters>
          </Trackpoint>
          <Trackpoint>
            <Time>2022-04-23T13:49:15.000Z</Time>
            <Position>
              <LatitudeDegrees>41.61774256266653537750244140625</LatitudeDegrees>
              <LongitudeDegrees>-0.14221248216927051544189453125</LongitudeDegrees>
            </Position>
            <AltitudeMeters>382.79998779296875</AltitudeMeters>
            <DistanceMeters>82302.101960363</DistanceMeters>
          </Trackpoint>
          <Trackpoint>
            <Time>2022-04-23T13:49:18.000Z</Time>
            <Position>
              <LatitudeDegrees>41.61789444275200366973876953125</LatitudeDegrees>
              <LongitudeDegrees>-0.14230099506676197052001953125</LongitudeDegrees>
            </Position>
            <AltitudeMeters>383</AltitudeMeters>
            <DistanceMeters>82320.541306023</DistanceMeters>
          </Trackpoint>
          <Trackpoint>
            <Time>2022-04-23T13:49:21.000Z</Time>
            <Position>
              <LatitudeDegrees>41.61804246716201305389404296875</LatitudeDegrees>
              <LongitudeDegrees>-0.14241792261600494384765625</LongitudeDegrees>
            </Position>
            <AltitudeMeters>383.20001220703125</AltitudeMeters>
            <DistanceMeters>82339.674976846</DistanceMeters>
          </Trackpoint>
          <Trackpoint>
            <Time>2022-04-23T13:49:27.000Z</Time>
            <Position>
              <LatitudeDegrees>41.61833398975431919097900390625</LatitudeDegrees>
              <LongitudeDegrees>-0.14261917211115360260009765625</LongitudeDegrees>
            </Position>
            <AltitudeMeters>383.600006103515625</AltitudeMeters>
            <DistanceMeters>82376.188118539</DistanceMeters>
          </Trackpoint>
          <Trackpoint>
            <Time>2022-04-23T13:49:31.000Z</Time>
            <Position>
              <LatitudeDegrees>41.618531383574008941650390625</LatitudeDegrees>
              <LongitudeDegrees>-0.14275051653385162353515625</LongitudeDegrees>
            </Position>
            <AltitudeMeters>383.79998779296875</AltitudeMeters>
            <DistanceMeters>82400.726364142</DistanceMeters>
          </Trackpoint>
          <Trackpoint>
            <Time>2022-04-23T13:49:40.000Z</Time>
            <Position>
              <LatitudeDegrees>41.61898543126881122589111328125</LatitudeDegrees>
              <LongitudeDegrees>-0.14307548291981220245361328125</LongitudeDegrees>
            </Position>
            <AltitudeMeters>383.79998779296875</AltitudeMeters>
            <DistanceMeters>82458.04189057</DistanceMeters>
          </Trackpoint>
          <Trackpoint>
            <Time>2022-04-23T13:49:48.000Z</Time>
            <Position>
              <LatitudeDegrees>41.6193858347833156585693359375</LatitudeDegrees>
              <LongitudeDegrees>-0.14332358725368976593017578125</LongitudeDegrees>
            </Position>
            <AltitudeMeters>384</AltitudeMeters>
            <DistanceMeters>82507.156914658</DistanceMeters>
          </Trackpoint>
          <Trackpoint>
            <Time>2022-04-23T13:49:52.000Z</Time>
            <Position>
              <LatitudeDegrees>41.61959043703973293304443359375</LatitudeDegrees>
              <LongitudeDegrees>-0.1434195600450038909912109375</LongitudeDegrees>
            </Position>
            <AltitudeMeters>384.600006103515625</AltitudeMeters>
            <DistanceMeters>82531.28921024</DistanceMeters>
          </Trackpoint>
          <Trackpoint>
            <Time>2022-04-23T13:49:54.000Z</Time>
            <Position>
              <LatitudeDegrees>41.6196936182677745819091796875</LatitudeDegrees>
              <LongitudeDegrees>-0.14345970936119556427001953125</LongitudeDegrees>
            </Position>
            <AltitudeMeters>384.79998779296875</AltitudeMeters>
            <DistanceMeters>82543.249748314</DistanceMeters>
          </Trackpoint>
          <Trackpoint>
            <Time>2022-04-23T13:49:55.000Z</Time>
            <Position>
              <LatitudeDegrees>41.61974734626710414886474609375</LatitudeDegrees>
              <LongitudeDegrees>-0.1434721983969211578369140625</LongitudeDegrees>
            </Position>
            <AltitudeMeters>384.79998779296875</AltitudeMeters>
            <DistanceMeters>82549.319568072</DistanceMeters>
          </Trackpoint>
          <Trackpoint>
            <Time>2022-04-23T13:49:58.000Z</Time>
            <Position>
              <LatitudeDegrees>41.619899310171604156494140625</LatitudeDegrees>
              <LongitudeDegrees>-0.14352969825267791748046875</LongitudeDegrees>
            </Position>
            <AltitudeMeters>384.79998779296875</AltitudeMeters>
            <DistanceMeters>82566.897198618</DistanceMeters>
          </Trackpoint>
          <Trackpoint>
            <Time>2022-04-23T13:50:00.000Z</Time>
            <Position>
              <LatitudeDegrees>41.6199819557368755340576171875</LatitudeDegrees>
              <LongitudeDegrees>-0.14361192472279071807861328125</LongitudeDegrees>
            </Position>
            <AltitudeMeters>384.79998779296875</AltitudeMeters>
            <DistanceMeters>82578.361217658</DistanceMeters>
          </Trackpoint>
          <Trackpoint>
            <Time>2022-04-23T13:50:05.000Z</Time>
            <Position>
              <LatitudeDegrees>41.6201658546924591064453125</LatitudeDegrees>
              <LongitudeDegrees>-0.14382046647369861602783203125</LongitudeDegrees>
            </Position>
            <AltitudeMeters>385.20001220703125</AltitudeMeters>
            <DistanceMeters>82605.194446598</DistanceMeters>
          </Trackpoint>
          <Trackpoint>
            <Time>2022-04-23T13:50:06.000Z</Time>
            <Position>
              <LatitudeDegrees>41.620197035372257232666015625</LatitudeDegrees>
              <LongitudeDegrees>-0.14386606402695178985595703125</LongitudeDegrees>
            </Position>
            <AltitudeMeters>385.399993896484375</AltitudeMeters>
            <DistanceMeters>82610.336436857</DistanceMeters>
          </Trackpoint>
          <Trackpoint>
            <Time>2022-04-23T13:50:07.000Z</Time>
            <Position>
              <LatitudeDegrees>41.62022578530013561248779296875</LatitudeDegrees>
              <LongitudeDegrees>-0.14391484670341014862060546875</LongitudeDegrees>
            </Position>
            <AltitudeMeters>385.79998779296875</AltitudeMeters>
            <DistanceMeters>82615.504702149</DistanceMeters>
          </Trackpoint>
          <Trackpoint>
            <Time>2022-04-23T13:50:09.000Z</Time>
            <Position>
              <LatitudeDegrees>41.62027180194854736328125</LatitudeDegrees>
              <LongitudeDegrees>-0.144028253853321075439453125</LongitudeDegrees>
            </Position>
            <AltitudeMeters>386.20001220703125</AltitudeMeters>
            <DistanceMeters>82626.240618306</DistanceMeters>
          </Trackpoint>
          <Trackpoint>
            <Time>2022-04-23T13:50:11.000Z</Time>
            <Position>
              <LatitudeDegrees>41.6203001327812671661376953125</LatitudeDegrees>
              <LongitudeDegrees>-0.14414601959288120269775390625</LongitudeDegrees>
            </Position>
            <AltitudeMeters>386.600006103515625</AltitudeMeters>
            <DistanceMeters>82636.534253086</DistanceMeters>
          </Trackpoint>
          <Trackpoint>
            <Time>2022-04-23T13:50:12.000Z</Time>
            <Position>
              <LatitudeDegrees>41.62030826322734355926513671875</LatitudeDegrees>
              <LongitudeDegrees>-0.1442037709057331085205078125</LongitudeDegrees>
            </Position>
            <AltitudeMeters>387</AltitudeMeters>
            <DistanceMeters>82641.424206299</DistanceMeters>
          </Trackpoint>
          <Trackpoint>
            <Time>2022-04-23T13:50:16.000Z</Time>
            <Position>
              <LatitudeDegrees>41.62031295709311962127685546875</LatitudeDegrees>
              <LongitudeDegrees>-0.144415833055973052978515625</LongitudeDegrees>
            </Position>
            <AltitudeMeters>387.79998779296875</AltitudeMeters>
            <DistanceMeters>82659.076681421</DistanceMeters>
          </Trackpoint>
          <Trackpoint>
            <Time>2022-04-23T13:50:18.000Z</Time>
            <Position>
              <LatitudeDegrees>41.6203071735799312591552734375</LatitudeDegrees>
              <LongitudeDegrees>-0.14452286995947360992431640625</LongitudeDegrees>
            </Position>
            <AltitudeMeters>388.399993896484375</AltitudeMeters>
            <DistanceMeters>82668.005653642</DistanceMeters>
          </Trackpoint>
          <Trackpoint>
            <Time>2022-04-23T13:50:21.000Z</Time>
            <Position>
              <LatitudeDegrees>41.620295606553554534912109375</LatitudeDegrees>
              <LongitudeDegrees>-0.14466754160821437835693359375</LongitudeDegrees>
            </Position>
            <AltitudeMeters>389.399993896484375</AltitudeMeters>
            <DistanceMeters>82680.11177361</DistanceMeters>
          </Trackpoint>
          <Trackpoint>
            <Time>2022-04-23T13:50:22.000Z</Time>
            <Position>
              <LatitudeDegrees>41.62029786966741085052490234375</LatitudeDegrees>
              <LongitudeDegrees>-0.14471255242824554443359375</LongitudeDegrees>
            </Position>
            <AltitudeMeters>389.600006103515625</AltitudeMeters>
            <DistanceMeters>82683.865028098</DistanceMeters>
          </Trackpoint>
          <Trackpoint>
            <Time>2022-04-23T13:50:25.000Z</Time>
            <Position>
              <LatitudeDegrees>41.62030063569545745849609375</LatitudeDegrees>
              <LongitudeDegrees>-0.14483325183391571044921875</LongitudeDegrees>
            </Position>
            <AltitudeMeters>390.79998779296875</AltitudeMeters>
            <DistanceMeters>82693.912727071</DistanceMeters>
          </Trackpoint>
          <Trackpoint>
            <Time>2022-04-23T13:50:26.000Z</Time>
            <Position>
              <LatitudeDegrees>41.6203048266470432281494140625</LatitudeDegrees>
              <LongitudeDegrees>-0.14487474225461483001708984375</LongitudeDegrees>
            </Position>
            <AltitudeMeters>391.399993896484375</AltitudeMeters>
            <DistanceMeters>82697.396463964</DistanceMeters>
          </Trackpoint>
          <Trackpoint>
            <Time>2022-04-23T13:50:27.000Z</Time>
            <Position>
              <LatitudeDegrees>41.62031245417892932891845703125</LatitudeDegrees>
              <LongitudeDegrees>-0.14491774141788482666015625</LongitudeDegrees>
            </Position>
            <AltitudeMeters>392.399993896484375</AltitudeMeters>
            <DistanceMeters>82701.071922352</DistanceMeters>
          </Trackpoint>
          <Trackpoint>
            <Time>2022-04-23T13:50:29.000Z</Time>
            <Position>
              <LatitudeDegrees>41.62033307366073131561279296875</LatitudeDegrees>
              <LongitudeDegrees>-0.14499879442155361175537109375</LongitudeDegrees>
            </Position>
            <AltitudeMeters>393.600006103515625</AltitudeMeters>
            <DistanceMeters>82708.195757668</DistanceMeters>
          </Trackpoint>
          <Trackpoint>
            <Time>2022-04-23T13:50:32.000Z</Time>
            <Position>
              <LatitudeDegrees>41.6204037331044673919677734375</LatitudeDegrees>
              <LongitudeDegrees>-0.1450821943581104278564453125</LongitudeDegrees>
            </Position>
            <AltitudeMeters>395.20001220703125</AltitudeMeters>
            <DistanceMeters>82718.684055492</DistanceMeters>
          </Trackpoint>
          <Trackpoint>
            <Time>2022-04-23T13:50:35.000Z</Time>
            <Position>
              <LatitudeDegrees>41.620481349527835845947265625</LatitudeDegrees>
              <LongitudeDegrees>-0.1451651751995086669921875</LongitudeDegrees>
            </Position>
            <AltitudeMeters>396.79998779296875</AltitudeMeters>
            <DistanceMeters>82729.743140235</DistanceMeters>
          </Trackpoint>
          <Trackpoint>
            <Time>2022-04-23T13:50:37.000Z</Time>
            <Position>
              <LatitudeDegrees>41.6205251030623912811279296875</LatitudeDegrees>
              <LongitudeDegrees>-0.14522829093039035797119140625</LongitudeDegrees>
            </Position>
            <AltitudeMeters>397.79998779296875</AltitudeMeters>
            <DistanceMeters>82736.904902183</DistanceMeters>
          </Trackpoint>
          <Trackpoint>
            <Time>2022-04-23T13:50:38.000Z</Time>
            <Position>
              <LatitudeDegrees>41.62054647691547870635986328125</LatitudeDegrees>
              <LongitudeDegrees>-0.14525913633406162261962890625</LongitudeDegrees>
            </Position>
            <AltitudeMeters>398</AltitudeMeters>
            <DistanceMeters>82740.404156912</DistanceMeters>
          </Trackpoint>
          <Trackpoint>
            <Time>2022-04-23T13:50:40.000Z</Time>
            <Position>
              <LatitudeDegrees>41.62058989517390727996826171875</LatitudeDegrees>
              <LongitudeDegrees>-0.1453142054378986358642578125</LongitudeDegrees>
            </Position>
            <AltitudeMeters>399</AltitudeMeters>
            <DistanceMeters>82747.064167084</DistanceMeters>
          </Trackpoint>
          <Trackpoint>
            <Time>2022-04-23T13:50:43.000Z</Time>
            <Position>
              <LatitudeDegrees>41.6206551901996135711669921875</LatitudeDegrees>
              <LongitudeDegrees>-0.14540699310600757598876953125</LongitudeDegrees>
            </Position>
            <AltitudeMeters>399.600006103515625</AltitudeMeters>
            <DistanceMeters>82757.667206824</DistanceMeters>
          </Trackpoint>
          <Trackpoint>
            <Time>2022-04-23T13:50:45.000Z</Time>
            <Position>
              <LatitudeDegrees>41.620705313980579376220703125</LatitudeDegrees>
              <LongitudeDegrees>-0.1454744674265384674072265625</LongitudeDegrees>
            </Position>
            <AltitudeMeters>400</AltitudeMeters>
            <DistanceMeters>82765.582424469</DistanceMeters>
          </Trackpoint>
          <Trackpoint>
            <Time>2022-04-23T13:50:52.000Z</Time>
            <Position>
              <LatitudeDegrees>41.620864905416965484619140625</LatitudeDegrees>
              <LongitudeDegrees>-0.1457497291266918182373046875</LongitudeDegrees>
            </Position>
            <AltitudeMeters>401.20001220703125</AltitudeMeters>
            <DistanceMeters>82794.566351249</DistanceMeters>
          </Trackpoint>
          <Trackpoint>
            <Time>2022-04-23T13:50:53.000Z</Time>
            <Position>
              <LatitudeDegrees>41.62089466117322444915771484375</LatitudeDegrees>
              <LongitudeDegrees>-0.14579926617443561553955078125</LongitudeDegrees>
            </Position>
            <AltitudeMeters>401.399993896484375</AltitudeMeters>
            <DistanceMeters>82799.85294624</DistanceMeters>
          </Trackpoint>
          <Trackpoint>
            <Time>2022-04-23T13:50:59.000Z</Time>
            <Position>
              <LatitudeDegrees>41.62102407775819301605224609375</LatitudeDegrees>
              <LongitudeDegrees>-0.14606597833335399627685546875</LongitudeDegrees>
            </Position>
            <AltitudeMeters>402.399993896484375</AltitudeMeters>
            <DistanceMeters>82826.309482585</DistanceMeters>
          </Trackpoint>
          <Trackpoint>
            <Time>2022-04-23T13:51:01.000Z</Time>
            <Position>
              <LatitudeDegrees>41.62106062285602092742919921875</LatitudeDegrees>
              <LongitudeDegrees>-0.14615558087825775146484375</LongitudeDegrees>
            </Position>
            <AltitudeMeters>402.399993896484375</AltitudeMeters>
            <DistanceMeters>82834.801490032</DistanceMeters>
          </Trackpoint>
          <Trackpoint>
            <Time>2022-04-23T13:51:08.000Z</Time>
            <Position>
              <LatitudeDegrees>41.62120319902896881103515625</LatitudeDegrees>
              <LongitudeDegrees>-0.1464578323066234588623046875</LongitudeDegrees>
            </Position>
            <AltitudeMeters>402.600006103515625</AltitudeMeters>
            <DistanceMeters>82864.53832352</DistanceMeters>
          </Trackpoint>
          <Trackpoint>
            <Time>2022-04-23T13:51:11.000Z</Time>
            <Position>
              <LatitudeDegrees>41.62128232419490814208984375</LatitudeDegrees>
              <LongitudeDegrees>-0.14658967964351177215576171875</LongitudeDegrees>
            </Position>
            <AltitudeMeters>402.79998779296875</AltitudeMeters>
            <DistanceMeters>82878.606129153</DistanceMeters>
          </Trackpoint>
          <Trackpoint>
            <Time>2022-04-23T13:51:14.000Z</Time>
            <Position>
              <LatitudeDegrees>41.62134845741093158721923828125</LatitudeDegrees>
              <LongitudeDegrees>-0.14671892859041690826416015625</LongitudeDegrees>
            </Position>
            <AltitudeMeters>402.79998779296875</AltitudeMeters>
            <DistanceMeters>82891.637614779</DistanceMeters>
          </Trackpoint>
          <Trackpoint>
            <Time>2022-04-23T13:51:18.000Z</Time>
            <Position>
              <LatitudeDegrees>41.621442921459674835205078125</LatitudeDegrees>
              <LongitudeDegrees>-0.14688354916870594024658203125</LongitudeDegrees>
            </Position>
            <AltitudeMeters>402.600006103515625</AltitudeMeters>
            <DistanceMeters>82908.904782005</DistanceMeters>
          </Trackpoint>
          <Trackpoint>
            <Time>2022-04-23T13:51:24.000Z</Time>
            <Position>
              <LatitudeDegrees>41.621568314731121063232421875</LatitudeDegrees>
              <LongitudeDegrees>-0.14719091355800628662109375</LongitudeDegrees>
            </Position>
            <AltitudeMeters>402</AltitudeMeters>
            <DistanceMeters>82938.039110993</DistanceMeters>
          </Trackpoint>
          <Trackpoint>
            <Time>2022-04-23T13:51:32.000Z</Time>
            <Position>
              <LatitudeDegrees>41.621742658317089080810546875</LatitudeDegrees>
              <LongitudeDegrees>-0.14760665595531463623046875</LongitudeDegrees>
            </Position>
            <AltitudeMeters>403</AltitudeMeters>
            <DistanceMeters>82977.701353706</DistanceMeters>
          </Trackpoint>
          <Trackpoint>
            <Time>2022-04-23T13:51:37.000Z</Time>
            <Position>
              <LatitudeDegrees>41.6218797862529754638671875</LatitudeDegrees>
              <LongitudeDegrees>-0.1478606276214122772216796875</LongitudeDegrees>
            </Position>
            <AltitudeMeters>401.79998779296875</AltitudeMeters>
            <DistanceMeters>83003.768135864</DistanceMeters>
          </Trackpoint>
          <Trackpoint>
            <Time>2022-04-23T13:51:40.000Z</Time>
            <Position>
              <LatitudeDegrees>41.62196762859821319580078125</LatitudeDegrees>
              <LongitudeDegrees>-0.1480145193636417388916015625</LongitudeDegrees>
            </Position>
            <AltitudeMeters>401.399993896484375</AltitudeMeters>
            <DistanceMeters>83019.878457312</DistanceMeters>
          </Trackpoint>
          <Trackpoint>
            <Time>2022-04-23T13:51:42.000Z</Time>
            <Position>
              <LatitudeDegrees>41.622028313577175140380859375</LatitudeDegrees>
              <LongitudeDegrees>-0.14811585657298564910888671875</LongitudeDegrees>
            </Position>
            <AltitudeMeters>401.399993896484375</AltitudeMeters>
            <DistanceMeters>83030.681452636</DistanceMeters>
          </Trackpoint>
          <Trackpoint>
            <Time>2022-04-23T13:51:47.000Z</Time>
            <Position>
              <LatitudeDegrees>41.62217642180621623992919921875</LatitudeDegrees>
              <LongitudeDegrees>-0.1483722589910030364990234375</LongitudeDegrees>
            </Position>
            <AltitudeMeters>401.600006103515625</AltitudeMeters>
            <DistanceMeters>83057.641923204</DistanceMeters>
          </Trackpoint>
          <Trackpoint>
            <Time>2022-04-23T13:51:50.000Z</Time>
            <Position>
              <LatitudeDegrees>41.62223995663225650787353515625</LatitudeDegrees>
              <LongitudeDegrees>-0.148538053035736083984375</LongitudeDegrees>
            </Position>
            <AltitudeMeters>401.399993896484375</AltitudeMeters>
            <DistanceMeters>83073.143224252</DistanceMeters>
          </Trackpoint>
          <Trackpoint>
            <Time>2022-04-23T13:51:51.000Z</Time>
            <Position>
              <LatitudeDegrees>41.62225722335278987884521484375</LatitudeDegrees>
              <LongitudeDegrees>-0.148597061634063720703125</LongitudeDegrees>
            </Position>
            <AltitudeMeters>401.399993896484375</AltitudeMeters>
            <DistanceMeters>83078.415280331</DistanceMeters>
          </Trackpoint>
          <Trackpoint>
            <Time>2022-04-23T13:51:54.000Z</Time>
            <Position>
              <LatitudeDegrees>41.62229879759252071380615234375</LatitudeDegrees>
              <LongitudeDegrees>-0.1487705670297145843505859375</LongitudeDegrees>
            </Position>
            <AltitudeMeters>401.399993896484375</AltitudeMeters>
            <DistanceMeters>83093.574945416</DistanceMeters>
          </Trackpoint>
          <Trackpoint>
            <Time>2022-04-23T13:51:55.000Z</Time>
            <Position>
              <LatitudeDegrees>41.6223091073334217071533203125</LatitudeDegrees>
              <LongitudeDegrees>-0.14882664196193218231201171875</LongitudeDegrees>
            </Position>
            <AltitudeMeters>401.600006103515625</AltitudeMeters>
            <DistanceMeters>83098.38014109</DistanceMeters>
          </Trackpoint>
          <Trackpoint>
            <Time>2022-04-23T13:51:59.000Z</Time>
            <Position>
              <LatitudeDegrees>41.62235789000988006591796875</LatitudeDegrees>
              <LongitudeDegrees>-0.14903233386576175689697265625</LongitudeDegrees>
            </Position>
            <AltitudeMeters>402</AltitudeMeters>
            <DistanceMeters>83116.334910068</DistanceMeters>
          </Trackpoint>
          <Trackpoint>
            <Time>2022-04-23T13:52:01.000Z</Time>
            <Position>
              <LatitudeDegrees>41.62239384837448596954345703125</LatitudeDegrees>
              <LongitudeDegrees>-0.1491165719926357269287109375</LongitudeDegrees>
            </Position>
            <AltitudeMeters>402.20001220703125</AltitudeMeters>
            <DistanceMeters>83124.405470234</DistanceMeters>
          </Trackpoint>
          <Trackpoint>
            <Time>2022-04-23T13:52:07.000Z</Time>
            <Position>
              <LatitudeDegrees>41.62252695299685001373291015625</LatitudeDegrees>
              <LongitudeDegrees>-0.14936593361198902130126953125</LongitudeDegrees>
            </Position>
            <AltitudeMeters>402.20001220703125</AltitudeMeters>
            <DistanceMeters>83149.899386215</DistanceMeters>
          </Trackpoint>
          <Trackpoint>
            <Time>2022-04-23T13:52:14.000Z</Time>
            <Position>
              <LatitudeDegrees>41.6227085888385772705078125</LatitudeDegrees>
              <LongitudeDegrees>-0.1496422849595546722412109375</LongitudeDegrees>
            </Position>
            <AltitudeMeters>402</AltitudeMeters>
            <DistanceMeters>83180.516279844</DistanceMeters>
          </Trackpoint>
          <Trackpoint>
            <Time>2022-04-23T13:52:19.000Z</Time>
            <Position>
              <LatitudeDegrees>41.6228294558823108673095703125</LatitudeDegrees>
              <LongitudeDegrees>-0.1498417742550373077392578125</LongitudeDegrees>
            </Position>
            <AltitudeMeters>402</AltitudeMeters>
            <DistanceMeters>83201.881235593</DistanceMeters>
          </Trackpoint>
          <Trackpoint>
            <Time>2022-04-23T13:52:25.000Z</Time>
            <Position>
              <LatitudeDegrees>41.62299667485058307647705078125</LatitudeDegrees>
              <LongitudeDegrees>-0.150061883032321929931640625</LongitudeDegrees>
            </Position>
            <AltitudeMeters>402.600006103515625</AltitudeMeters>
            <DistanceMeters>83227.991976133</DistanceMeters>
          </Trackpoint>
          <Trackpoint>
            <Time>2022-04-23T13:52:32.000Z</Time>
            <Position>
              <LatitudeDegrees>41.623199768364429473876953125</LatitudeDegrees>
              <LongitudeDegrees>-0.15029934234917163848876953125</LongitudeDegrees>
            </Position>
            <AltitudeMeters>403.79998779296875</AltitudeMeters>
            <DistanceMeters>83258.013801361</DistanceMeters>
          </Trackpoint>
          <Trackpoint>
            <Time>2022-04-23T13:52:42.000Z</Time>
            <Position>
              <LatitudeDegrees>41.62352372892200946807861328125</LatitudeDegrees>
              <LongitudeDegrees>-0.1506186090409755706787109375</LongitudeDegrees>
            </Position>
            <AltitudeMeters>403.79998779296875</AltitudeMeters>
            <DistanceMeters>83302.799519841</DistanceMeters>
          </Trackpoint>
          <Trackpoint>
            <Time>2022-04-23T13:52:51.000Z</Time>
            <Position>
              <LatitudeDegrees>41.6238215379416942596435546875</LatitudeDegrees>
              <LongitudeDegrees>-0.150920860469341278076171875</LongitudeDegrees>
            </Position>
            <AltitudeMeters>405</AltitudeMeters>
            <DistanceMeters>83344.406139563</DistanceMeters>
          </Trackpoint>
          <Trackpoint>
            <Time>2022-04-23T13:52:57.000Z</Time>
            <Position>
              <LatitudeDegrees>41.6239942051470279693603515625</LatitudeDegrees>
              <LongitudeDegrees>-0.15112948603928089141845703125</LongitudeDegrees>
            </Position>
            <AltitudeMeters>406</AltitudeMeters>
            <DistanceMeters>83370.302619192</DistanceMeters>
          </Trackpoint>
          <Trackpoint>
            <Time>2022-04-23T13:52:58.000Z</Time>
            <Position>
              <LatitudeDegrees>41.62401817739009857177734375</LatitudeDegrees>
              <LongitudeDegrees>-0.15117106027901172637939453125</LongitudeDegrees>
            </Position>
            <AltitudeMeters>406.20001220703125</AltitudeMeters>
            <DistanceMeters>83374.670748257</DistanceMeters>
          </Trackpoint>
          <Trackpoint>
            <Time>2022-04-23T13:53:02.000Z</Time>
            <Position>
              <LatitudeDegrees>41.6241149045526981353759765625</LatitudeDegrees>
              <LongitudeDegrees>-0.1513619162142276763916015625</LongitudeDegrees>
            </Position>
            <AltitudeMeters>406.600006103515625</AltitudeMeters>
            <DistanceMeters>83393.855792324</DistanceMeters>
          </Trackpoint>
          <Trackpoint>
            <Time>2022-04-23T13:53:05.000Z</Time>
            <Position>
              <LatitudeDegrees>41.62416595034301280975341796875</LatitudeDegrees>
              <LongitudeDegrees>-0.15151186846196651458740234375</LongitudeDegrees>
            </Position>
            <AltitudeMeters>407</AltitudeMeters>
            <DistanceMeters>83407.564692752</DistanceMeters>
          </Trackpoint>
          <Trackpoint>
            <Time>2022-04-23T13:53:07.000Z</Time>
            <Position>
              <LatitudeDegrees>41.6241973824799060821533203125</LatitudeDegrees>
              <LongitudeDegrees>-0.15161429531872272491455078125</LongitudeDegrees>
            </Position>
            <AltitudeMeters>407</AltitudeMeters>
            <DistanceMeters>83416.776894357</DistanceMeters>
          </Trackpoint>
          <Trackpoint>
            <Time>2022-04-23T13:53:11.000Z</Time>
            <Position>
              <LatitudeDegrees>41.62426628172397613525390625</LatitudeDegrees>
              <LongitudeDegrees>-0.15180456452071666717529296875</LongitudeDegrees>
            </Position>
            <AltitudeMeters>407.600006103515625</AltitudeMeters>
            <DistanceMeters>83434.366849993</DistanceMeters>
          </Trackpoint>
          <Trackpoint>
            <Time>2022-04-23T13:53:13.000Z</Time>
            <Position>
              <LatitudeDegrees>41.62430224008858203887939453125</LatitudeDegrees>
              <LongitudeDegrees>-0.15189458616077899932861328125</LongitudeDegrees>
            </Position>
            <AltitudeMeters>408.399993896484375</AltitudeMeters>
            <DistanceMeters>83442.858857441</DistanceMeters>
          </Trackpoint>
          <Trackpoint>
            <Time>2022-04-23T13:53:16.000Z</Time>
            <Position>
              <LatitudeDegrees>41.62435211241245269775390625</LatitudeDegrees>
              <LongitudeDegrees>-0.15201712958514690399169921875</LongitudeDegrees>
            </Position>
            <AltitudeMeters>409.399993896484375</AltitudeMeters>
            <DistanceMeters>83454.467684291</DistanceMeters>
          </Trackpoint>
          <Trackpoint>
            <Time>2022-04-23T13:53:19.000Z</Time>
            <Position>
              <LatitudeDegrees>41.6244109533727169036865234375</LatitudeDegrees>
              <LongitudeDegrees>-0.1521333865821361541748046875</LongitudeDegrees>
            </Position>
            <AltitudeMeters>410</AltitudeMeters>
            <DistanceMeters>83466.149401426</DistanceMeters>
          </Trackpoint>
          <Trackpoint>
            <Time>2022-04-23T13:53:20.000Z</Time>
            <Position>
              <LatitudeDegrees>41.6244307346642017364501953125</LatitudeDegrees>
              <LongitudeDegrees>-0.1521736197173595428466796875</LongitudeDegrees>
            </Position>
            <AltitudeMeters>410.600006103515625</AltitudeMeters>
            <DistanceMeters>83470.156329915</DistanceMeters>
          </Trackpoint>
          <Trackpoint>
            <Time>2022-04-23T13:53:21.000Z</Time>
            <Position>
              <LatitudeDegrees>41.62445160560309886932373046875</LatitudeDegrees>
              <LongitudeDegrees>-0.1522125117480754852294921875</LongitudeDegrees>
            </Position>
            <AltitudeMeters>411</AltitudeMeters>
            <DistanceMeters>83474.138391471</DistanceMeters>
          </Trackpoint>
          <Trackpoint>
            <Time>2022-04-23T13:53:23.000Z</Time>
            <Position>
              <LatitudeDegrees>41.62449200637638568878173828125</LatitudeDegrees>
              <LongitudeDegrees>-0.15229524113237857818603515625</LongitudeDegrees>
            </Position>
            <AltitudeMeters>411.600006103515625</AltitudeMeters>
            <DistanceMeters>83482.360261834</DistanceMeters>
          </Trackpoint>
          <Trackpoint>
            <Time>2022-04-23T13:53:26.000Z</Time>
            <Position>
              <LatitudeDegrees>41.62455118261277675628662109375</LatitudeDegrees>
              <LongitudeDegrees>-0.1524240709841251373291015625</LongitudeDegrees>
            </Position>
            <AltitudeMeters>412</AltitudeMeters>
            <DistanceMeters>83494.941167203</DistanceMeters>
          </Trackpoint>
          <Trackpoint>
            <Time>2022-04-23T13:53:28.000Z</Time>
            <Position>
              <LatitudeDegrees>41.6245899908244609832763671875</LatitudeDegrees>
              <LongitudeDegrees>-0.15250705182552337646484375</LongitudeDegrees>
            </Position>
            <AltitudeMeters>412.600006103515625</AltitudeMeters>
            <DistanceMeters>83503.085239371</DistanceMeters>
          </Trackpoint>
          <Trackpoint>
            <Time>2022-04-23T13:53:32.000Z</Time>
            <Position>
              <LatitudeDegrees>41.62467020563781261444091796875</LatitudeDegrees>
              <LongitudeDegrees>-0.15266890637576580047607421875</LongitudeDegrees>
            </Position>
            <AltitudeMeters>413.79998779296875</AltitudeMeters>
            <DistanceMeters>83519.242575476</DistanceMeters>
          </Trackpoint>
          <Trackpoint>
            <Time>2022-04-23T13:53:34.000Z</Time>
            <Position>
              <LatitudeDegrees>41.6247120313346385955810546875</LatitudeDegrees>
              <LongitudeDegrees>-0.152750797569751739501953125</LongitudeDegrees>
            </Position>
            <AltitudeMeters>414</AltitudeMeters>
            <DistanceMeters>83527.494593803</DistanceMeters>
          </Trackpoint>
          <Trackpoint>
            <Time>2022-04-23T13:53:41.000Z</Time>
            <Position>
              <LatitudeDegrees>41.6248615644872188568115234375</LatitudeDegrees>
              <LongitudeDegrees>-0.15304843895137310028076171875</LongitudeDegrees>
            </Position>
            <AltitudeMeters>413.79998779296875</AltitudeMeters>
            <DistanceMeters>83557.331468912</DistanceMeters>
          </Trackpoint>
          <Trackpoint>
            <Time>2022-04-23T13:53:46.000Z</Time>
            <Position>
              <LatitudeDegrees>41.6249842755496501922607421875</LatitudeDegrees>
              <LongitudeDegrees>-0.15323133207857608795166015625</LongitudeDegrees>
            </Position>
            <AltitudeMeters>413.79998779296875</AltitudeMeters>
            <DistanceMeters>83577.77833858</DistanceMeters>
          </Trackpoint>
          <Trackpoint>
            <Time>2022-04-23T13:53:55.000Z</Time>
            <Position>
              <LatitudeDegrees>41.6252082400023937225341796875</LatitudeDegrees>
              <LongitudeDegrees>-0.1536139659583568572998046875</LongitudeDegrees>
            </Position>
            <AltitudeMeters>414.79998779296875</AltitudeMeters>
            <DistanceMeters>83618.211507633</DistanceMeters>
          </Trackpoint>
          <Trackpoint>
            <Time>2022-04-23T13:53:58.000Z</Time>
            <Position>
              <LatitudeDegrees>41.625269092619419097900390625</LatitudeDegrees>
              <LongitudeDegrees>-0.153744556009769439697265625</LongitudeDegrees>
            </Position>
            <AltitudeMeters>415</AltitudeMeters>
            <DistanceMeters>83631.014395886</DistanceMeters>
          </Trackpoint>
          <Trackpoint>
            <Time>2022-04-23T13:54:01.000Z</Time>
            <Position>
              <LatitudeDegrees>41.62533924914896488189697265625</LatitudeDegrees>
              <LongitudeDegrees>-0.15386961400508880615234375</LongitudeDegrees>
            </Position>
            <AltitudeMeters>415.20001220703125</AltitudeMeters>
            <DistanceMeters>83644.022994295</DistanceMeters>
          </Trackpoint>
          <Trackpoint>
            <Time>2022-04-23T13:54:06.000Z</Time>
            <Position>
              <LatitudeDegrees>41.62547151558101177215576171875</LatitudeDegrees>
              <LongitudeDegrees>-0.15407589264214038848876953125</LongitudeDegrees>
            </Position>
            <AltitudeMeters>416</AltitudeMeters>
            <DistanceMeters>83666.633761817</DistanceMeters>
          </Trackpoint>
          <Trackpoint>
            <Time>2022-04-23T13:54:08.000Z</Time>
            <Position>
              <LatitudeDegrees>41.6255227290093898773193359375</LatitudeDegrees>
              <LongitudeDegrees>-0.15416557900607585906982421875</LongitudeDegrees>
            </Position>
            <AltitudeMeters>416</AltitudeMeters>
            <DistanceMeters>83676.023632232</DistanceMeters>
          </Trackpoint>
          <Trackpoint>
            <Time>2022-04-23T13:54:17.000Z</Time>
            <Position>
              <LatitudeDegrees>41.6257634572684764862060546875</LatitudeDegrees>
              <LongitudeDegrees>-0.154549218714237213134765625</LongitudeDegrees>
            </Position>
            <AltitudeMeters>415.79998779296875</AltitudeMeters>
            <DistanceMeters>83717.696936657</DistanceMeters>
          </Trackpoint>
          <Trackpoint>
            <Time>2022-04-23T13:54:25.000Z</Time>
            <Position>
              <LatitudeDegrees>41.62594559602439403533935546875</LatitudeDegrees>
              <LongitudeDegrees>-0.15489413402974605560302734375</LongitudeDegrees>
            </Position>
            <AltitudeMeters>416</AltitudeMeters>
            <DistanceMeters>83752.831642721</DistanceMeters>
          </Trackpoint>
          <Trackpoint>
            <Time>2022-04-23T13:54:33.000Z</Time>
            <Position>
              <LatitudeDegrees>41.62609244696795940399169921875</LatitudeDegrees>
              <LongitudeDegrees>-0.1552467606961727142333984375</LongitudeDegrees>
            </Position>
            <AltitudeMeters>416.399993896484375</AltitudeMeters>
            <DistanceMeters>83786.415352729</DistanceMeters>
          </Trackpoint>
          <Trackpoint>
            <Time>2022-04-23T13:54:37.000Z</Time>
            <Position>
              <LatitudeDegrees>41.6261674650013446807861328125</LatitudeDegrees>
              <LongitudeDegrees>-0.155434347689151763916015625</LongitudeDegrees>
            </Position>
            <AltitudeMeters>417.399993896484375</AltitudeMeters>
            <DistanceMeters>83804.115592903</DistanceMeters>
          </Trackpoint>
          <Trackpoint>
            <Time>2022-04-23T13:54:41.000Z</Time>
            <Position>
              <LatitudeDegrees>41.6262650303542613983154296875</LatitudeDegrees>
              <LongitudeDegrees>-0.15561036765575408935546875</LongitudeDegrees>
            </Position>
            <AltitudeMeters>417.79998779296875</AltitudeMeters>
            <DistanceMeters>83822.347354033</DistanceMeters>
          </Trackpoint>
          <Trackpoint>
            <Time>2022-04-23T13:54:50.000Z</Time>
            <Position>
              <LatitudeDegrees>41.626502908766269683837890625</LatitudeDegrees>
              <LongitudeDegrees>-0.15598864294588565826416015625</LongitudeDegrees>
            </Position>
            <AltitudeMeters>418.20001220703125</AltitudeMeters>
            <DistanceMeters>83863.474604232</DistanceMeters>
          </Trackpoint>
          <Trackpoint>
            <Time>2022-04-23T13:54:53.000Z</Time>
            <Position>
              <LatitudeDegrees>41.6265754960477352142333984375</LatitudeDegrees>
              <LongitudeDegrees>-0.15612241812050342559814453125</LongitudeDegrees>
            </Position>
            <AltitudeMeters>418.399993896484375</AltitudeMeters>
            <DistanceMeters>83877.227566866</DistanceMeters>
          </Trackpoint>
          <Trackpoint>
            <Time>2022-04-23T13:54:54.000Z</Time>
            <Position>
              <LatitudeDegrees>41.62659519352018833160400390625</LatitudeDegrees>
              <LongitudeDegrees>-0.1561660878360271453857421875</LongitudeDegrees>
            </Position>
            <AltitudeMeters>418.399993896484375</AltitudeMeters>
            <DistanceMeters>83881.470911352</DistanceMeters>
          </Trackpoint>
          <Trackpoint>
            <Time>2022-04-23T13:54:58.000Z</Time>
            <Position>
              <LatitudeDegrees>41.6266787610948085784912109375</LatitudeDegrees>
              <LongitudeDegrees>-0.15635074116289615631103515625</LongitudeDegrees>
            </Position>
            <AltitudeMeters>418.600006103515625</AltitudeMeters>
            <DistanceMeters>83899.429703357</DistanceMeters>
          </Trackpoint>
          <Trackpoint>
            <Time>2022-04-23T13:55:06.000Z</Time>
            <Position>
              <LatitudeDegrees>41.62684178911149501800537109375</LatitudeDegrees>
              <LongitudeDegrees>-0.15673312358558177947998046875</LongitudeDegrees>
            </Position>
            <AltitudeMeters>418.399993896484375</AltitudeMeters>
            <DistanceMeters>83936.053595761</DistanceMeters>
          </Trackpoint>
          <Trackpoint>
            <Time>2022-04-23T13:55:15.000Z</Time>
            <Position>
              <LatitudeDegrees>41.6270344890654087066650390625</LatitudeDegrees>
              <LongitudeDegrees>-0.15715255402028560638427734375</LongitudeDegrees>
            </Position>
            <AltitudeMeters>418.79998779296875</AltitudeMeters>
            <DistanceMeters>83977.013196253</DistanceMeters>
          </Trackpoint>
          <Trackpoint>
            <Time>2022-04-23T13:55:17.000Z</Time>
            <Position>
              <LatitudeDegrees>41.62708117626607418060302734375</LatitudeDegrees>
              <LongitudeDegrees>-0.1572456769645214080810546875</LongitudeDegrees>
            </Position>
            <AltitudeMeters>419</AltitudeMeters>
            <DistanceMeters>83986.341315925</DistanceMeters>
          </Trackpoint>
          <Trackpoint>
            <Time>2022-04-23T13:55:21.000Z</Time>
            <Position>
              <LatitudeDegrees>41.62717522121965885162353515625</LatitudeDegrees>
              <LongitudeDegrees>-0.15742479823529720306396484375</LongitudeDegrees>
            </Position>
            <AltitudeMeters>419.399993896484375</AltitudeMeters>
            <DistanceMeters>84004.552262838</DistanceMeters>
          </Trackpoint>
          <Trackpoint>
            <Time>2022-04-23T13:55:24.000Z</Time>
            <Position>
              <LatitudeDegrees>41.6272460483014583587646484375</LatitudeDegrees>
              <LongitudeDegrees>-0.15756293199956417083740234375</LongitudeDegrees>
            </Position>
            <AltitudeMeters>419.79998779296875</AltitudeMeters>
            <DistanceMeters>84018.488506384</DistanceMeters>
          </Trackpoint>
          <Trackpoint>
            <Time>2022-04-23T13:55:34.000Z</Time>
            <Position>
              <LatitudeDegrees>41.6274794004857540130615234375</LatitudeDegrees>
              <LongitudeDegrees>-0.15801488421857357025146484375</LongitudeDegrees>
            </Position>
            <AltitudeMeters>420.399993896484375</AltitudeMeters>
            <DistanceMeters>84064.187366098</DistanceMeters>
          </Trackpoint>
          <Trackpoint>
            <Time>2022-04-23T13:55:36.000Z</Time>
            <Position>
              <LatitudeDegrees>41.62752944044768810272216796875</LatitudeDegrees>
              <LongitudeDegrees>-0.15810272656381130218505859375</LongitudeDegrees>
            </Position>
            <AltitudeMeters>420.600006103515625</AltitudeMeters>
            <DistanceMeters>84073.376503426</DistanceMeters>
          </Trackpoint>
          <Trackpoint>
            <Time>2022-04-23T13:55:42.000Z</Time>
            <Position>
              <LatitudeDegrees>41.62768475711345672607421875</LatitudeDegrees>
              <LongitudeDegrees>-0.15838737599551677703857421875</LongitudeDegrees>
            </Position>
            <AltitudeMeters>421</AltitudeMeters>
            <DistanceMeters>84102.696672381</DistanceMeters>
          </Trackpoint>
          <Trackpoint>
            <Time>2022-04-23T13:55:51.000Z</Time>
            <Position>
              <LatitudeDegrees>41.62788215093314647674560546875</LatitudeDegrees>
              <LongitudeDegrees>-0.15881820581853389739990234375</LongitudeDegrees>
            </Position>
            <AltitudeMeters>421.399993896484375</AltitudeMeters>
            <DistanceMeters>84144.73759057</DistanceMeters>
          </Trackpoint>
          <Trackpoint>
            <Time>2022-04-23T13:55:54.000Z</Time>
            <Position>
              <LatitudeDegrees>41.62792825140058994293212890625</LatitudeDegrees>
              <LongitudeDegrees>-0.15895868651568889617919921875</LongitudeDegrees>
            </Position>
            <AltitudeMeters>421.79998779296875</AltitudeMeters>
            <DistanceMeters>84157.501627518</DistanceMeters>
          </Trackpoint>
          <Trackpoint>
            <Time>2022-04-23T13:55:58.000Z</Time>
            <Position>
              <LatitudeDegrees>41.627985499799251556396484375</LatitudeDegrees>
              <LongitudeDegrees>-0.15915147028863430023193359375</LongitudeDegrees>
            </Position>
            <AltitudeMeters>422</AltitudeMeters>
            <DistanceMeters>84174.759640479</DistanceMeters>
          </Trackpoint>
          <Trackpoint>
            <Time>2022-04-23T13:56:10.000Z</Time>
            <Position>
              <LatitudeDegrees>41.628140397369861602783203125</LatitudeDegrees>
              <LongitudeDegrees>-0.15975094400346279144287109375</LongitudeDegrees>
            </Position>
            <AltitudeMeters>421.79998779296875</AltitudeMeters>
            <DistanceMeters>84227.528822895</DistanceMeters>
          </Trackpoint>
          <Trackpoint>
            <Time>2022-04-23T13:56:20.000Z</Time>
            <Position>
              <LatitudeDegrees>41.6282575763761997222900390625</LatitudeDegrees>
              <LongitudeDegrees>-0.16025838442146778106689453125</LongitudeDegrees>
            </Position>
            <AltitudeMeters>421.600006103515625</AltitudeMeters>
            <DistanceMeters>84271.714099261</DistanceMeters>
          </Trackpoint>
          <Trackpoint>
            <Time>2022-04-23T13:56:27.000Z</Time>
            <Position>
              <LatitudeDegrees>41.62830543704330921173095703125</LatitudeDegrees>
              <LongitudeDegrees>-0.1606242544949054718017578125</LongitudeDegrees>
            </Position>
            <AltitudeMeters>421.600006103515625</AltitudeMeters>
            <DistanceMeters>84302.615173732</DistanceMeters>
          </Trackpoint>
          <Trackpoint>
            <Time>2022-04-23T13:56:36.000Z</Time>
            <Position>
              <LatitudeDegrees>41.62830677814781665802001953125</LatitudeDegrees>
              <LongitudeDegrees>-0.16108115203678607940673828125</LongitudeDegrees>
            </Position>
            <AltitudeMeters>422.20001220703125</AltitudeMeters>
            <DistanceMeters>84340.626928516</DistanceMeters>
          </Trackpoint>
          <Trackpoint>
            <Time>2022-04-23T13:56:42.000Z</Time>
            <Position>
              <LatitudeDegrees>41.6282575763761997222900390625</LatitudeDegrees>
              <LongitudeDegrees>-0.16139145009219646453857421875</LongitudeDegrees>
            </Position>
            <AltitudeMeters>422.399993896484375</AltitudeMeters>
            <DistanceMeters>84367.016652946</DistanceMeters>
          </Trackpoint>
          <Trackpoint>
            <Time>2022-04-23T13:56:44.000Z</Time>
            <Position>
              <LatitudeDegrees>41.62823888473212718963623046875</LatitudeDegrees>
              <LongitudeDegrees>-0.16148851253092288970947265625</LongitudeDegrees>
            </Position>
            <AltitudeMeters>422.399993896484375</AltitudeMeters>
            <DistanceMeters>84375.35521329</DistanceMeters>
          </Trackpoint>
          <Trackpoint>
            <Time>2022-04-23T13:56:53.000Z</Time>
            <Position>
              <LatitudeDegrees>41.62814618088304996490478515625</LatitudeDegrees>
              <LongitudeDegrees>-0.16193543560802936553955078125</LongitudeDegrees>
            </Position>
            <AltitudeMeters>422.600006103515625</AltitudeMeters>
            <DistanceMeters>84413.942144299</DistanceMeters>
          </Trackpoint>
          <Trackpoint>
            <Time>2022-04-23T13:57:05.000Z</Time>
            <Position>
              <LatitudeDegrees>41.62802598439157009124755859375</LatitudeDegrees>
              <LongitudeDegrees>-0.16254664398729801177978515625</LongitudeDegrees>
            </Position>
            <AltitudeMeters>422.600006103515625</AltitudeMeters>
            <DistanceMeters>84466.522066362</DistanceMeters>
          </Trackpoint>
          <Trackpoint>
            <Time>2022-04-23T13:57:14.000Z</Time>
            <Position>
              <LatitudeDegrees>41.627920456230640411376953125</LatitudeDegrees>
              <LongitudeDegrees>-0.16297965310513973236083984375</LongitudeDegrees>
            </Position>
            <AltitudeMeters>422.79998779296875</AltitudeMeters>
            <DistanceMeters>84504.412710113</DistanceMeters>
          </Trackpoint>
          <Trackpoint>
            <Time>2022-04-23T13:57:15.000Z</Time>
            <Position>
              <LatitudeDegrees>41.627905704081058502197265625</LatitudeDegrees>
              <LongitudeDegrees>-0.16302826814353466033935546875</LongitudeDegrees>
            </Position>
            <AltitudeMeters>422.79998779296875</AltitudeMeters>
            <DistanceMeters>84508.777737181</DistanceMeters>
          </Trackpoint>
          <Trackpoint>
            <Time>2022-04-23T13:57:21.000Z</Time>
            <Position>
              <LatitudeDegrees>41.62781811319291591644287109375</LatitudeDegrees>
              <LongitudeDegrees>-0.1633108220994472503662109375</LongitudeDegrees>
            </Position>
            <AltitudeMeters>423</AltitudeMeters>
            <DistanceMeters>84534.226451933</DistanceMeters>
          </Trackpoint>
          <Trackpoint>
            <Time>2022-04-23T13:57:27.000Z</Time>
            <Position>
              <LatitudeDegrees>41.62772507406771183013916015625</LatitudeDegrees>
              <LongitudeDegrees>-0.163569487631320953369140625</LongitudeDegrees>
            </Position>
            <AltitudeMeters>423.399993896484375</AltitudeMeters>
            <DistanceMeters>84558.108236377</DistanceMeters>
          </Trackpoint>
          <Trackpoint>
            <Time>2022-04-23T13:57:31.000Z</Time>
            <Position>
              <LatitudeDegrees>41.627660281956195831298828125</LatitudeDegrees>
              <LongitudeDegrees>-0.1637540571391582489013671875</LongitudeDegrees>
            </Position>
            <AltitudeMeters>424</AltitudeMeters>
            <DistanceMeters>84575.072567671</DistanceMeters>
          </Trackpoint>
          <Trackpoint>
            <Time>2022-04-23T13:57:35.000Z</Time>
            <Position>
              <LatitudeDegrees>41.62760160863399505615234375</LatitudeDegrees>
              <LongitudeDegrees>-0.163947008550167083740234375</LongitudeDegrees>
            </Position>
            <AltitudeMeters>424.79998779296875</AltitudeMeters>
            <DistanceMeters>84592.402897804</DistanceMeters>
          </Trackpoint>
          <Trackpoint>
            <Time>2022-04-23T13:57:39.000Z</Time>
            <Position>
              <LatitudeDegrees>41.627562381327152252197265625</LatitudeDegrees>
              <LongitudeDegrees>-0.1641624234616756439208984375</LongitudeDegrees>
            </Position>
            <AltitudeMeters>425.20001220703125</AltitudeMeters>
            <DistanceMeters>84610.848363921</DistanceMeters>
          </Trackpoint>
          <Trackpoint>
            <Time>2022-04-23T13:57:44.000Z</Time>
            <Position>
              <LatitudeDegrees>41.627534888684749603271484375</LatitudeDegrees>
              <LongitudeDegrees>-0.164429135620594024658203125</LongitudeDegrees>
            </Position>
            <AltitudeMeters>426</AltitudeMeters>
            <DistanceMeters>84633.247674343</DistanceMeters>
          </Trackpoint>
          <Trackpoint>
            <Time>2022-04-23T13:57:46.000Z</Time>
            <Position>
              <LatitudeDegrees>41.6275313682854175567626953125</LatitudeDegrees>
              <LongitudeDegrees>-0.1645352505147457122802734375</LongitudeDegrees>
            </Position>
            <AltitudeMeters>426.20001220703125</AltitudeMeters>
            <DistanceMeters>84642.084647868</DistanceMeters>
          </Trackpoint>
          <Trackpoint>
            <Time>2022-04-23T13:57:53.000Z</Time>
            <Position>
              <LatitudeDegrees>41.6275652311742305755615234375</LatitudeDegrees>
              <LongitudeDegrees>-0.16491168178617954254150390625</LongitudeDegrees>
            </Position>
            <AltitudeMeters>427.600006103515625</AltitudeMeters>
            <DistanceMeters>84673.628078294</DistanceMeters>
          </Trackpoint>
          <Trackpoint>
            <Time>2022-04-23T13:58:02.000Z</Time>
            <Position>
              <LatitudeDegrees>41.62758124060928821563720703125</LatitudeDegrees>
              <LongitudeDegrees>-0.165417529642581939697265625</LongitudeDegrees>
            </Position>
            <AltitudeMeters>427.600006103515625</AltitudeMeters>
            <DistanceMeters>84715.7503242</DistanceMeters>
          </Trackpoint>
          <Trackpoint>
            <Time>2022-04-23T13:58:09.000Z</Time>
            <Position>
              <LatitudeDegrees>41.62758224643766880035400390625</LatitudeDegrees>
              <LongitudeDegrees>-0.16580770723521709442138671875</LongitudeDegrees>
            </Position>
            <AltitudeMeters>427.20001220703125</AltitudeMeters>
            <DistanceMeters>84748.211650119</DistanceMeters>
          </Trackpoint>
          <Trackpoint>
            <Time>2022-04-23T13:58:10.000Z</Time>
            <Position>
              <LatitudeDegrees>41.62758442573249340057373046875</LatitudeDegrees>
              <LongitudeDegrees>-0.165866129100322723388671875</LongitudeDegrees>
            </Position>
            <AltitudeMeters>427.20001220703125</AltitudeMeters>
            <DistanceMeters>84753.077537545</DistanceMeters>
          </Trackpoint>
          <Trackpoint>
            <Time>2022-04-23T13:58:13.000Z</Time>
            <Position>
              <LatitudeDegrees>41.62758685648441314697265625</LatitudeDegrees>
              <LongitudeDegrees>-0.16603653319180011749267578125</LongitudeDegrees>
            </Position>
            <AltitudeMeters>427</AltitudeMeters>
            <DistanceMeters>84767.256911721</DistanceMeters>
          </Trackpoint>
          <Trackpoint>
            <Time>2022-04-23T13:58:14.000Z</Time>
            <Position>
              <LatitudeDegrees>41.6275863535702228546142578125</LatitudeDegrees>
              <LongitudeDegrees>-0.16609336249530315399169921875</LongitudeDegrees>
            </Position>
            <AltitudeMeters>427</AltitudeMeters>
            <DistanceMeters>84771.985386028</DistanceMeters>
          </Trackpoint>
          <Trackpoint>
            <Time>2022-04-23T13:58:16.000Z</Time>
            <Position>
              <LatitudeDegrees>41.6275907121598720550537109375</LatitudeDegrees>
              <LongitudeDegrees>-0.16620534472167491912841796875</LongitudeDegrees>
            </Position>
            <AltitudeMeters>427</AltitudeMeters>
            <DistanceMeters>84781.31495766</DistanceMeters>
          </Trackpoint>
          <Trackpoint>
            <Time>2022-04-23T13:58:22.000Z</Time>
            <Position>
              <LatitudeDegrees>41.62759515456855297088623046875</LatitudeDegrees>
              <LongitudeDegrees>-0.1665321551263332366943359375</LongitudeDegrees>
            </Position>
            <AltitudeMeters>427</AltitudeMeters>
            <DistanceMeters>84808.508707866</DistanceMeters>
          </Trackpoint>
          <Trackpoint>
            <Time>2022-04-23T13:58:24.000Z</Time>
            <Position>
              <LatitudeDegrees>41.6275954060256481170654296875</LatitudeDegrees>
              <LongitudeDegrees>-0.16663491725921630859375</LongitudeDegrees>
            </Position>
            <AltitudeMeters>427</AltitudeMeters>
            <DistanceMeters>84817.057944015</DistanceMeters>
          </Trackpoint>
          <Trackpoint>
            <Time>2022-04-23T13:58:31.000Z</Time>
            <Position>
              <LatitudeDegrees>41.62759029306471347808837890625</LatitudeDegrees>
              <LongitudeDegrees>-0.166981928050518035888671875</LongitudeDegrees>
            </Position>
            <AltitudeMeters>427.79998779296875</AltitudeMeters>
            <DistanceMeters>84845.933246236</DistanceMeters>
          </Trackpoint>
          <Trackpoint>
            <Time>2022-04-23T13:58:37.000Z</Time>
            <Position>
              <LatitudeDegrees>41.6275900416076183319091796875</LatitudeDegrees>
              <LongitudeDegrees>-0.16729013063013553619384765625</LongitudeDegrees>
            </Position>
            <AltitudeMeters>428.79998779296875</AltitudeMeters>
            <DistanceMeters>84871.574440355</DistanceMeters>
          </Trackpoint>
          <Trackpoint>
            <Time>2022-04-23T13:58:39.000Z</Time>
            <Position>
              <LatitudeDegrees>41.62759347818791866302490234375</LatitudeDegrees>
              <LongitudeDegrees>-0.167396329343318939208984375</LongitudeDegrees>
            </Position>
            <AltitudeMeters>429.20001220703125</AltitudeMeters>
            <DistanceMeters>84880.418053422</DistanceMeters>
          </Trackpoint>
          <Trackpoint>
            <Time>2022-04-23T13:58:43.000Z</Time>
            <Position>
              <LatitudeDegrees>41.62759163416922092437744140625</LatitudeDegrees>
              <LongitudeDegrees>-0.167606882750988006591796875</LongitudeDegrees>
            </Position>
            <AltitudeMeters>429.79998779296875</AltitudeMeters>
            <DistanceMeters>84897.93624819</DistanceMeters>
          </Trackpoint>
          <Trackpoint>
            <Time>2022-04-23T13:58:47.000Z</Time>
            <Position>
              <LatitudeDegrees>41.6275887005031108856201171875</LatitudeDegrees>
              <LongitudeDegrees>-0.16781307756900787353515625</LongitudeDegrees>
            </Position>
            <AltitudeMeters>430.20001220703125</AltitudeMeters>
            <DistanceMeters>84915.094031326</DistanceMeters>
          </Trackpoint>
          <Trackpoint>
            <Time>2022-04-23T13:58:53.000Z</Time>
            <Position>
              <LatitudeDegrees>41.62757621146738529205322265625</LatitudeDegrees>
              <LongitudeDegrees>-0.1681381277740001678466796875</LongitudeDegrees>
            </Position>
            <AltitudeMeters>430.600006103515625</AltitudeMeters>
            <DistanceMeters>84942.172810239</DistanceMeters>
          </Trackpoint>
          <Trackpoint>
            <Time>2022-04-23T13:58:55.000Z</Time>
            <Position>
              <LatitudeDegrees>41.627565063536167144775390625</LatitudeDegrees>
              <LongitudeDegrees>-0.168252624571323394775390625</LongitudeDegrees>
            </Position>
            <AltitudeMeters>431</AltitudeMeters>
            <DistanceMeters>84951.779442389</DistanceMeters>
          </Trackpoint>
          <Trackpoint>
            <Time>2022-04-23T13:58:57.000Z</Time>
            <Position>
              <LatitudeDegrees>41.6275538317859172821044921875</LatitudeDegrees>
              <LongitudeDegrees>-0.16836301423609256744384765625</LongitudeDegrees>
            </Position>
            <AltitudeMeters>431</AltitudeMeters>
            <DistanceMeters>84961.047348686</DistanceMeters>
          </Trackpoint>
          <Trackpoint>
            <Time>2022-04-23T13:59:00.000Z</Time>
            <Position>
              <LatitudeDegrees>41.62753497250378131866455078125</LatitudeDegrees>
              <LongitudeDegrees>-0.168529562652111053466796875</LongitudeDegrees>
            </Position>
            <AltitudeMeters>431</AltitudeMeters>
            <DistanceMeters>84975.061775633</DistanceMeters>
          </Trackpoint>
          <Trackpoint>
            <Time>2022-04-23T13:59:01.000Z</Time>
            <Position>
              <LatitudeDegrees>41.6275343857705593109130859375</LatitudeDegrees>
              <LongitudeDegrees>-0.16858513467013835906982421875</LongitudeDegrees>
            </Position>
            <AltitudeMeters>431</AltitudeMeters>
            <DistanceMeters>84979.685975133</DistanceMeters>
          </Trackpoint>
          <Trackpoint>
            <Time>2022-04-23T13:59:05.000Z</Time>
            <Position>
              <LatitudeDegrees>41.6275189630687236785888671875</LatitudeDegrees>
              <LongitudeDegrees>-0.16881756484508514404296875</LongitudeDegrees>
            </Position>
            <AltitudeMeters>431</AltitudeMeters>
            <DistanceMeters>84999.099121205</DistanceMeters>
          </Trackpoint>
          <Trackpoint>
            <Time>2022-04-23T13:59:06.000Z</Time>
            <Position>
              <LatitudeDegrees>41.62751846015453338623046875</LatitudeDegrees>
              <LongitudeDegrees>-0.1688703708350658416748046875</LongitudeDegrees>
            </Position>
            <AltitudeMeters>431</AltitudeMeters>
            <DistanceMeters>85003.490959463</DistanceMeters>
          </Trackpoint>
          <Trackpoint>
            <Time>2022-04-23T13:59:08.000Z</Time>
            <Position>
              <LatitudeDegrees>41.62751887924969196319580078125</LatitudeDegrees>
              <LongitudeDegrees>-0.1689816825091838836669921875</LongitudeDegrees>
            </Position>
            <AltitudeMeters>431.20001220703125</AltitudeMeters>
            <DistanceMeters>85012.75204288</DistanceMeters>
          </Trackpoint>
          <Trackpoint>
            <Time>2022-04-23T13:59:13.000Z</Time>
            <Position>
              <LatitudeDegrees>41.62751980125904083251953125</LatitudeDegrees>
              <LongitudeDegrees>-0.16928695142269134521484375</LongitudeDegrees>
            </Position>
            <AltitudeMeters>431.20001220703125</AltitudeMeters>
            <DistanceMeters>85038.149610097</DistanceMeters>
          </Trackpoint>
          <Trackpoint>
            <Time>2022-04-23T13:59:16.000Z</Time>
            <Position>
              <LatitudeDegrees>41.6275203041732311248779296875</LatitudeDegrees>
              <LongitudeDegrees>-0.16948543488979339599609375</LongitudeDegrees>
            </Position>
            <AltitudeMeters>430.79998779296875</AltitudeMeters>
            <DistanceMeters>85054.662672151</DistanceMeters>
          </Trackpoint>
          <Trackpoint>
            <Time>2022-04-23T13:59:19.000Z</Time>
            <Position>
              <LatitudeDegrees>41.62752122618257999420166015625</LatitudeDegrees>
              <LongitudeDegrees>-0.1696797274053096771240234375</LongitudeDegrees>
            </Position>
            <AltitudeMeters>430</AltitudeMeters>
            <DistanceMeters>85070.827272114</DistanceMeters>
          </Trackpoint>
          <Trackpoint>
            <Time>2022-04-23T13:59:20.000Z</Time>
            <Position>
              <LatitudeDegrees>41.627527177333831787109375</LatitudeDegrees>
              <LongitudeDegrees>-0.16974552534520626068115234375</LongitudeDegrees>
            </Position>
            <AltitudeMeters>429.79998779296875</AltitudeMeters>
            <DistanceMeters>85076.340459696</DistanceMeters>
          </Trackpoint>
          <Trackpoint>
            <Time>2022-04-23T13:59:22.000Z</Time>
            <Position>
              <LatitudeDegrees>41.6275494731962680816650390625</LatitudeDegrees>
              <LongitudeDegrees>-0.1698741875588893890380859375</LongitudeDegrees>
            </Position>
            <AltitudeMeters>429.399993896484375</AltitudeMeters>
            <DistanceMeters>85087.328276679</DistanceMeters>
          </Trackpoint>
          <Trackpoint>
            <Time>2022-04-23T13:59:23.000Z</Time>
            <Position>
              <LatitudeDegrees>41.62756648845970630645751953125</LatitudeDegrees>
              <LongitudeDegrees>-0.169936381280422210693359375</LongitudeDegrees>
            </Position>
            <AltitudeMeters>429.399993896484375</AltitudeMeters>
            <DistanceMeters>85092.838187477</DistanceMeters>
          </Trackpoint>
          <Trackpoint>
            <Time>2022-04-23T13:59:24.000Z</Time>
            <Position>
              <LatitudeDegrees>41.6275870241224765777587890625</LatitudeDegrees>
              <LongitudeDegrees>-0.170000754296779632568359375</LongitudeDegrees>
            </Position>
            <AltitudeMeters>429.20001220703125</AltitudeMeters>
            <DistanceMeters>85098.660464263</DistanceMeters>
          </Trackpoint>
          <Trackpoint>
            <Time>2022-04-23T13:59:26.000Z</Time>
            <Position>
              <LatitudeDegrees>41.62764125503599643707275390625</LatitudeDegrees>
              <LongitudeDegrees>-0.170118771493434906005859375</LongitudeDegrees>
            </Position>
            <AltitudeMeters>429.399993896484375</AltitudeMeters>
            <DistanceMeters>85110.185759248</DistanceMeters>
          </Trackpoint>
          <Trackpoint>
            <Time>2022-04-23T13:59:28.000Z</Time>
            <Position>
              <LatitudeDegrees>41.62771099247038364410400390625</LatitudeDegrees>
              <LongitudeDegrees>-0.170221030712127685546875</LongitudeDegrees>
            </Position>
            <AltitudeMeters>429.399993896484375</AltitudeMeters>
            <DistanceMeters>85121.701648387</DistanceMeters>
          </Trackpoint>
          <Trackpoint>
            <Time>2022-04-23T13:59:35.000Z</Time>
            <Position>
              <LatitudeDegrees>41.62795691750943660736083984375</LatitudeDegrees>
              <LongitudeDegrees>-0.17057172954082489013671875</LongitudeDegrees>
            </Position>
            <AltitudeMeters>430.20001220703125</AltitudeMeters>
            <DistanceMeters>85161.707895137</DistanceMeters>
          </Trackpoint>
          <Trackpoint>
            <Time>2022-04-23T13:59:38.000Z</Time>
            <Position>
              <LatitudeDegrees>41.62806370295584201812744140625</LatitudeDegrees>
              <LongitudeDegrees>-0.17070449888706207275390625</LongitudeDegrees>
            </Position>
            <AltitudeMeters>430.79998779296875</AltitudeMeters>
            <DistanceMeters>85177.933550092</DistanceMeters>
          </Trackpoint>
          <Trackpoint>
            <Time>2022-04-23T13:59:42.000Z</Time>
            <Position>
              <LatitudeDegrees>41.628204099833965301513671875</LatitudeDegrees>
              <LongitudeDegrees>-0.170873142778873443603515625</LongitudeDegrees>
            </Position>
            <AltitudeMeters>431.399993896484375</AltitudeMeters>
            <DistanceMeters>85198.934453968</DistanceMeters>
          </Trackpoint>
          <Trackpoint>
            <Time>2022-04-23T13:59:44.000Z</Time>
            <Position>
              <LatitudeDegrees>41.62827257998287677764892578125</LatitudeDegrees>
              <LongitudeDegrees>-0.17094514332711696624755859375</LongitudeDegrees>
            </Position>
            <AltitudeMeters>432</AltitudeMeters>
            <DistanceMeters>85208.629041923</DistanceMeters>
          </Trackpoint>
          <Trackpoint>
            <Time>2022-04-23T13:59:45.000Z</Time>
            <Position>
              <LatitudeDegrees>41.62830912508070468902587890625</LatitudeDegrees>
              <LongitudeDegrees>-0.1709792576730251312255859375</LongitudeDegrees>
            </Position>
            <AltitudeMeters>432</AltitudeMeters>
            <DistanceMeters>85213.588671772</DistanceMeters>
          </Trackpoint>
          <Trackpoint>
            <Time>2022-04-23T13:59:47.000Z</Time>
            <Position>
              <LatitudeDegrees>41.62838623858988285064697265625</LatitudeDegrees>
              <LongitudeDegrees>-0.17105712555348873138427734375</LongitudeDegrees>
            </Position>
            <AltitudeMeters>432.600006103515625</AltitudeMeters>
            <DistanceMeters>85224.34181684</DistanceMeters>
          </Trackpoint>
          <Trackpoint>
            <Time>2022-04-23T13:59:54.000Z</Time>
            <Position>
              <LatitudeDegrees>41.6286711394786834716796875</LatitudeDegrees>
              <LongitudeDegrees>-0.17131201922893524169921875</LongitudeDegrees>
            </Position>
            <AltitudeMeters>432.79998779296875</AltitudeMeters>
            <DistanceMeters>85262.48909563</DistanceMeters>
          </Trackpoint>
          <Trackpoint>
            <Time>2022-04-23T13:59:56.000Z</Time>
            <Position>
              <LatitudeDegrees>41.62875831127166748046875</LatitudeDegrees>
              <LongitudeDegrees>-0.17138351686298847198486328125</LongitudeDegrees>
            </Position>
            <AltitudeMeters>432.79998779296875</AltitudeMeters>
            <DistanceMeters>85273.869710132</DistanceMeters>
          </Trackpoint>
          <Trackpoint>
            <Time>2022-04-23T13:59:59.000Z</Time>
            <Position>
              <LatitudeDegrees>41.6288845427334308624267578125</LatitudeDegrees>
              <LongitudeDegrees>-0.17151192761957645416259765625</LongitudeDegrees>
            </Position>
            <AltitudeMeters>433.20001220703125</AltitudeMeters>
            <DistanceMeters>85291.519627332</DistanceMeters>
          </Trackpoint>
          <Trackpoint>
            <Time>2022-04-23T14:00:01.000Z</Time>
            <Position>
              <LatitudeDegrees>41.62896710447967052459716796875</LatitudeDegrees>
              <LongitudeDegrees>-0.17159943468868732452392578125</LongitudeDegrees>
            </Position>
            <AltitudeMeters>433.79998779296875</AltitudeMeters>
            <DistanceMeters>85303.243012657</DistanceMeters>
          </Trackpoint>
          <Trackpoint>
            <Time>2022-04-23T14:00:05.000Z</Time>
            <Position>
              <LatitudeDegrees>41.62911797873675823211669921875</LatitudeDegrees>
              <LongitudeDegrees>-0.171784423291683197021484375</LongitudeDegrees>
            </Position>
            <AltitudeMeters>434.20001220703125</AltitudeMeters>
            <DistanceMeters>85326.021096471</DistanceMeters>
          </Trackpoint>
          <Trackpoint>
            <Time>2022-04-23T14:00:09.000Z</Time>
            <Position>
              <LatitudeDegrees>41.6292660869657993316650390625</LatitudeDegrees>
              <LongitudeDegrees>-0.17197796143591403961181640625</LongitudeDegrees>
            </Position>
            <AltitudeMeters>434.600006103515625</AltitudeMeters>
            <DistanceMeters>85349.064241982</DistanceMeters>
          </Trackpoint>
          <Trackpoint>
            <Time>2022-04-23T14:00:17.000Z</Time>
            <Position>
              <LatitudeDegrees>41.6295923106372356414794921875</LatitudeDegrees>
              <LongitudeDegrees>-0.17232916317880153656005859375</LongitudeDegrees>
            </Position>
            <AltitudeMeters>434.79998779296875</AltitudeMeters>
            <DistanceMeters>85395.66959004</DistanceMeters>
          </Trackpoint>
          <Trackpoint>
            <Time>2022-04-23T14:00:22.000Z</Time>
            <Position>
              <LatitudeDegrees>41.629883162677288055419921875</LatitudeDegrees>
              <LongitudeDegrees>-0.17246629111468791961669921875</LongitudeDegrees>
            </Position>
            <AltitudeMeters>434.20001220703125</AltitudeMeters>
            <DistanceMeters>85429.993312934</DistanceMeters>
          </Trackpoint>
          <Trackpoint>
            <Time>2022-04-23T14:00:24.000Z</Time>
            <Position>
              <LatitudeDegrees>41.63002230226993560791015625</LatitudeDegrees>
              <LongitudeDegrees>-0.17251390032470226287841796875</LongitudeDegrees>
            </Position>
            <AltitudeMeters>433.20001220703125</AltitudeMeters>
            <DistanceMeters>85445.978433301</DistanceMeters>
          </Trackpoint>
          <Trackpoint>
            <Time>2022-04-23T14:00:27.000Z</Time>
            <Position>
              <LatitudeDegrees>41.63026764057576656341552734375</LatitudeDegrees>
              <LongitudeDegrees>-0.172590427100658416748046875</LongitudeDegrees>
            </Position>
            <AltitudeMeters>432.20001220703125</AltitudeMeters>
            <DistanceMeters>85474.017272709</DistanceMeters>
          </Trackpoint>
          <Trackpoint>
            <Time>2022-04-23T14:00:31.000Z</Time>
            <Position>
              <LatitudeDegrees>41.63060694001615047454833984375</LatitudeDegrees>
              <LongitudeDegrees>-0.17272428609430789947509765625</LongitudeDegrees>
            </Position>
            <AltitudeMeters>430.600006103515625</AltitudeMeters>
            <DistanceMeters>85513.389536588</DistanceMeters>
          </Trackpoint>
          <Trackpoint>
            <Time>2022-04-23T14:00:32.000Z</Time>
            <Position>
              <LatitudeDegrees>41.6306903399527072906494140625</LatitudeDegrees>
              <LongitudeDegrees>-0.17275446094572544097900390625</LongitudeDegrees>
            </Position>
            <AltitudeMeters>429.399993896484375</AltitudeMeters>
            <DistanceMeters>85523.005563979</DistanceMeters>
          </Trackpoint>
          <Trackpoint>
            <Time>2022-04-23T14:00:34.000Z</Time>
            <Position>
              <LatitudeDegrees>41.6308499313890933990478515625</LatitudeDegrees>
              <LongitudeDegrees>-0.17280240543186664581298828125</LongitudeDegrees>
            </Position>
            <AltitudeMeters>428.20001220703125</AltitudeMeters>
            <DistanceMeters>85541.210559603</DistanceMeters>
          </Trackpoint>
          <Trackpoint>
            <Time>2022-04-23T14:00:37.000Z</Time>
            <Position>
              <LatitudeDegrees>41.63106526248157024383544921875</LatitudeDegrees>
              <LongitudeDegrees>-0.1728750765323638916015625</LongitudeDegrees>
            </Position>
            <AltitudeMeters>427</AltitudeMeters>
            <DistanceMeters>85565.9281022</DistanceMeters>
          </Trackpoint>
          <Trackpoint>
            <Time>2022-04-23T14:00:39.000Z</Time>
            <Position>
              <LatitudeDegrees>41.6311962716281414031982421875</LatitudeDegrees>
              <LongitudeDegrees>-0.17291187308728694915771484375</LongitudeDegrees>
            </Position>
            <AltitudeMeters>426.600006103515625</AltitudeMeters>
            <DistanceMeters>85580.8273092</DistanceMeters>
          </Trackpoint>
          <Trackpoint>
            <Time>2022-04-23T14:00:43.000Z</Time>
            <Position>
              <LatitudeDegrees>41.63143037818372249603271484375</LatitudeDegrees>
              <LongitudeDegrees>-0.172986052930355072021484375</LongitudeDegrees>
            </Position>
            <AltitudeMeters>426.399993896484375</AltitudeMeters>
            <DistanceMeters>85607.604616569</DistanceMeters>
          </Trackpoint>
          <Trackpoint>
            <Time>2022-04-23T14:00:45.000Z</Time>
            <Position>
              <LatitudeDegrees>41.63153749890625476837158203125</LatitudeDegrees>
              <LongitudeDegrees>-0.17303190194070339202880859375</LongitudeDegrees>
            </Position>
            <AltitudeMeters>426.399993896484375</AltitudeMeters>
            <DistanceMeters>85620.122921031</DistanceMeters>
          </Trackpoint>
          <Trackpoint>
            <Time>2022-04-23T14:00:47.000Z</Time>
            <Position>
              <LatitudeDegrees>41.63163791410624980926513671875</LatitudeDegrees>
              <LongitudeDegrees>-0.173073895275592803955078125</LongitudeDegrees>
            </Position>
            <AltitudeMeters>426.399993896484375</AltitudeMeters>
            <DistanceMeters>85631.832433435</DistanceMeters>
          </Trackpoint>
          <Trackpoint>
            <Time>2022-04-23T14:00:50.000Z</Time>
            <Position>
              <LatitudeDegrees>41.63177604787051677703857421875</LatitudeDegrees>
              <LongitudeDegrees>-0.17312862910330295562744140625</LongitudeDegrees>
            </Position>
            <AltitudeMeters>426.79998779296875</AltitudeMeters>
            <DistanceMeters>85647.866906813</DistanceMeters>
          </Trackpoint>
          <Trackpoint>
            <Time>2022-04-23T14:00:51.000Z</Time>
            <Position>
              <LatitudeDegrees>41.6318173706531524658203125</LatitudeDegrees>
              <LongitudeDegrees>-0.17315335571765899658203125</LongitudeDegrees>
            </Position>
            <AltitudeMeters>427.600006103515625</AltitudeMeters>
            <DistanceMeters>85652.906011392</DistanceMeters>
          </Trackpoint>
          <Trackpoint>
            <Time>2022-04-23T14:00:53.000Z</Time>
            <Position>
              <LatitudeDegrees>41.6318835876882076263427734375</LatitudeDegrees>
              <LongitudeDegrees>-0.17322820611298084259033203125</LongitudeDegrees>
            </Position>
            <AltitudeMeters>428.600006103515625</AltitudeMeters>
            <DistanceMeters>85662.554850086</DistanceMeters>
          </Trackpoint>
          <Trackpoint>
            <Time>2022-04-23T14:00:54.000Z</Time>
            <Position>
              <LatitudeDegrees>41.6319072246551513671875</LatitudeDegrees>
              <LongitudeDegrees>-0.1732814311981201171875</LongitudeDegrees>
            </Position>
            <AltitudeMeters>428.79998779296875</AltitudeMeters>
            <DistanceMeters>85667.705613582</DistanceMeters>
          </Trackpoint>
          <Trackpoint>
            <Time>2022-04-23T14:00:57.000Z</Time>
            <Position>
              <LatitudeDegrees>41.63195793516933917999267578125</LatitudeDegrees>
              <LongitudeDegrees>-0.1734284497797489166259765625</LongitudeDegrees>
            </Position>
            <AltitudeMeters>430.20001220703125</AltitudeMeters>
            <DistanceMeters>85681.175294198</DistanceMeters>
          </Trackpoint>
          <Trackpoint>
            <Time>2022-04-23T14:00:59.000Z</Time>
            <Position>
              <LatitudeDegrees>41.63196019828319549560546875</LatitudeDegrees>
              <LongitudeDegrees>-0.1735241711139678955078125</LongitudeDegrees>
            </Position>
            <AltitudeMeters>431</AltitudeMeters>
            <DistanceMeters>85689.142251417</DistanceMeters>
          </Trackpoint>
          <Trackpoint>
            <Time>2022-04-23T14:01:00.000Z</Time>
            <Position>
              <LatitudeDegrees>41.63194955326616764068603515625</LatitudeDegrees>
              <LongitudeDegrees>-0.17357370816171169281005859375</LongitudeDegrees>
            </Position>
            <AltitudeMeters>431.20001220703125</AltitudeMeters>
            <DistanceMeters>85693.43005221</DistanceMeters>
          </Trackpoint>
          <Trackpoint>
            <Time>2022-04-23T14:01:04.000Z</Time>
            <Position>
              <LatitudeDegrees>41.63188241422176361083984375</LatitudeDegrees>
              <LongitudeDegrees>-0.17381326295435428619384765625</LongitudeDegrees>
            </Position>
            <AltitudeMeters>431.20001220703125</AltitudeMeters>
            <DistanceMeters>85714.713490718</DistanceMeters>
          </Trackpoint>
          <Trackpoint>
            <Time>2022-04-23T14:01:10.000Z</Time>
            <Position>
              <LatitudeDegrees>41.63175559602677822113037109375</LatitudeDegrees>
              <LongitudeDegrees>-0.17418642528355121612548828125</LongitudeDegrees>
            </Position>
            <AltitudeMeters>430.399993896484375</AltitudeMeters>
            <DistanceMeters>85748.81524089</DistanceMeters>
          </Trackpoint>
          <Trackpoint>
            <Time>2022-04-23T14:01:11.000Z</Time>
            <Position>
              <LatitudeDegrees>41.631738245487213134765625</LatitudeDegrees>
              <LongitudeDegrees>-0.17425213940441608428955078125</LongitudeDegrees>
            </Position>
            <AltitudeMeters>430</AltitudeMeters>
            <DistanceMeters>85754.612649322</DistanceMeters>
          </Trackpoint>
          <Trackpoint>
            <Time>2022-04-23T14:01:12.000Z</Time>
            <Position>
              <LatitudeDegrees>41.63172039203345775604248046875</LatitudeDegrees>
              <LongitudeDegrees>-0.17431885935366153717041015625</LongitudeDegrees>
            </Position>
            <AltitudeMeters>429.79998779296875</AltitudeMeters>
            <DistanceMeters>85760.508901886</DistanceMeters>
          </Trackpoint>
          <Trackpoint>
            <Time>2022-04-23T14:01:18.000Z</Time>
            <Position>
              <LatitudeDegrees>41.63165803067386150360107421875</LatitudeDegrees>
              <LongitudeDegrees>-0.17471968196332454681396484375</LongitudeDegrees>
            </Position>
            <AltitudeMeters>429.399993896484375</AltitudeMeters>
            <DistanceMeters>85794.568258021</DistanceMeters>
          </Trackpoint>
          <Trackpoint>
            <Time>2022-04-23T14:01:21.000Z</Time>
            <Position>
              <LatitudeDegrees>41.63166523911058902740478515625</LatitudeDegrees>
              <LongitudeDegrees>-0.17491866834461688995361328125</LongitudeDegrees>
            </Position>
            <AltitudeMeters>429.399993896484375</AltitudeMeters>
            <DistanceMeters>85811.14163623</DistanceMeters>
          </Trackpoint>
          <Trackpoint>
            <Time>2022-04-23T14:01:24.000Z</Time>
            <Position>
              <LatitudeDegrees>41.63169625215232372283935546875</LatitudeDegrees>
              <LongitudeDegrees>-0.17510323785245418548583984375</LongitudeDegrees>
            </Position>
            <AltitudeMeters>429.399993896484375</AltitudeMeters>
            <DistanceMeters>85826.879391366</DistanceMeters>
          </Trackpoint>
          <Trackpoint>
            <Time>2022-04-23T14:01:25.000Z</Time>
            <Position>
              <LatitudeDegrees>41.63170932792127132415771484375</LatitudeDegrees>
              <LongitudeDegrees>-0.17516073770821094512939453125</LongitudeDegrees>
            </Position>
            <AltitudeMeters>429.399993896484375</AltitudeMeters>
            <DistanceMeters>85831.878916503</DistanceMeters>
          </Trackpoint>
          <Trackpoint>
            <Time>2022-04-23T14:01:26.000Z</Time>
            <Position>
              <LatitudeDegrees>41.631714440882205963134765625</LatitudeDegrees>
              <LongitudeDegrees>-0.17521865665912628173828125</LongitudeDegrees>
            </Position>
            <AltitudeMeters>429.399993896484375</AltitudeMeters>
            <DistanceMeters>85836.730865523</DistanceMeters>
          </Trackpoint>
          <Trackpoint>
            <Time>2022-04-23T14:01:31.000Z</Time>
            <Position>
              <LatitudeDegrees>41.6317181289196014404296875</LatitudeDegrees>
              <LongitudeDegrees>-0.17549131996929645538330078125</LongitudeDegrees>
            </Position>
            <AltitudeMeters>429.600006103515625</AltitudeMeters>
            <DistanceMeters>85859.417386565</DistanceMeters>
          </Trackpoint>
          <Trackpoint>
            <Time>2022-04-23T14:01:35.000Z</Time>
            <Position>
              <LatitudeDegrees>41.63170530460774898529052734375</LatitudeDegrees>
              <LongitudeDegrees>-0.175707824528217315673828125</LongitudeDegrees>
            </Position>
            <AltitudeMeters>429.79998779296875</AltitudeMeters>
            <DistanceMeters>85877.485211379</DistanceMeters>
          </Trackpoint>
          <Trackpoint>
            <Time>2022-04-23T14:01:37.000Z</Time>
            <Position>
              <LatitudeDegrees>41.631695665419101715087890625</LatitudeDegrees>
              <LongitudeDegrees>-0.1758095808327198028564453125</LongitudeDegrees>
            </Position>
            <AltitudeMeters>430.20001220703125</AltitudeMeters>
            <DistanceMeters>85886.018589166</DistanceMeters>
          </Trackpoint>
          <Trackpoint>
            <Time>2022-04-23T14:01:38.000Z</Time>
            <Position>
              <LatitudeDegrees>41.63169172592461109161376953125</LatitudeDegrees>
              <LongitudeDegrees>-0.17586104571819305419921875</LongitudeDegrees>
            </Position>
            <AltitudeMeters>430.399993896484375</AltitudeMeters>
            <DistanceMeters>85890.322155917</DistanceMeters>
          </Trackpoint>
          <Trackpoint>
            <Time>2022-04-23T14:01:41.000Z</Time>
            <Position>
              <LatitudeDegrees>41.6316767223179340362548828125</LatitudeDegrees>
              <LongitudeDegrees>-0.176015608012676239013671875</LongitudeDegrees>
            </Position>
            <AltitudeMeters>431.20001220703125</AltitudeMeters>
            <DistanceMeters>85903.288341295</DistanceMeters>
          </Trackpoint>
          <Trackpoint>
            <Time>2022-04-23T14:01:43.000Z</Time>
            <Position>
              <LatitudeDegrees>41.63167278282344341278076171875</LatitudeDegrees>
              <LongitudeDegrees>-0.1761170290410518646240234375</LongitudeDegrees>
            </Position>
            <AltitudeMeters>431.600006103515625</AltitudeMeters>
            <DistanceMeters>85911.736638414</DistanceMeters>
          </Trackpoint>
          <Trackpoint>
            <Time>2022-04-23T14:01:48.000Z</Time>
            <Position>
              <LatitudeDegrees>41.63167110644280910491943359375</LatitudeDegrees>
              <LongitudeDegrees>-0.17636605538427829742431640625</LongitudeDegrees>
            </Position>
            <AltitudeMeters>432.399993896484375</AltitudeMeters>
            <DistanceMeters>85932.454205682</DistanceMeters>
          </Trackpoint>
          <Trackpoint>
            <Time>2022-04-23T14:01:51.000Z</Time>
            <Position>
              <LatitudeDegrees>41.6316894628107547760009765625</LatitudeDegrees>
              <LongitudeDegrees>-0.17652128823101520538330078125</LongitudeDegrees>
            </Position>
            <AltitudeMeters>432.79998779296875</AltitudeMeters>
            <DistanceMeters>85945.528928516</DistanceMeters>
          </Trackpoint>
          <Trackpoint>
            <Time>2022-04-23T14:01:53.000Z</Time>
            <Position>
              <LatitudeDegrees>41.6317062266170978546142578125</LatitudeDegrees>
              <LongitudeDegrees>-0.17662170343101024627685546875</LongitudeDegrees>
            </Position>
            <AltitudeMeters>433.399993896484375</AltitudeMeters>
            <DistanceMeters>85954.088193098</DistanceMeters>
          </Trackpoint>
          <Trackpoint>
            <Time>2022-04-23T14:01:57.000Z</Time>
            <Position>
              <LatitudeDegrees>41.631764732301235198974609375</LatitudeDegrees>
              <LongitudeDegrees>-0.1768217794597148895263671875</LongitudeDegrees>
            </Position>
            <AltitudeMeters>434.600006103515625</AltitudeMeters>
            <DistanceMeters>85971.96130095</DistanceMeters>
          </Trackpoint>
          <Trackpoint>
            <Time>2022-04-23T14:01:58.000Z</Time>
            <Position>
              <LatitudeDegrees>41.6317840106785297393798828125</LatitudeDegrees>
              <LongitudeDegrees>-0.17686863429844379425048828125</LongitudeDegrees>
            </Position>
            <AltitudeMeters>434.79998779296875</AltitudeMeters>
            <DistanceMeters>85976.41135237</DistanceMeters>
          </Trackpoint>
          <Trackpoint>
            <Time>2022-04-23T14:02:04.000Z</Time>
            <Position>
              <LatitudeDegrees>41.63190328516066074371337890625</LatitudeDegrees>
              <LongitudeDegrees>-0.17713752575218677520751953125</LongitudeDegrees>
            </Position>
            <AltitudeMeters>435.20001220703125</AltitudeMeters>
            <DistanceMeters>86002.42334245</DistanceMeters>
          </Trackpoint>
          <Trackpoint>
            <Time>2022-04-23T14:02:06.000Z</Time>
            <Position>
              <LatitudeDegrees>41.63193983025848865509033203125</LatitudeDegrees>
              <LongitudeDegrees>-0.17723106779158115386962890625</LongitudeDegrees>
            </Position>
            <AltitudeMeters>435.600006103515625</AltitudeMeters>
            <DistanceMeters>86011.203934268</DistanceMeters>
          </Trackpoint>
          <Trackpoint>
            <Time>2022-04-23T14:02:11.000Z</Time>
            <Position>
              <LatitudeDegrees>41.6320239007472991943359375</LatitudeDegrees>
              <LongitudeDegrees>-0.17747498117387294769287109375</LongitudeDegrees>
            </Position>
            <AltitudeMeters>436.600006103515625</AltitudeMeters>
            <DistanceMeters>86033.548754401</DistanceMeters>
          </Trackpoint>
          <Trackpoint>
            <Time>2022-04-23T14:02:12.000Z</Time>
            <Position>
              <LatitudeDegrees>41.63204041309654712677001953125</LatitudeDegrees>
              <LongitudeDegrees>-0.17752242274582386016845703125</LongitudeDegrees>
            </Position>
            <AltitudeMeters>436.79998779296875</AltitudeMeters>
            <DistanceMeters>86037.902388567</DistanceMeters>
          </Trackpoint>
          <Trackpoint>
            <Time>2022-04-23T14:02:17.000Z</Time>
            <Position>
              <LatitudeDegrees>41.6320723481476306915283203125</LatitudeDegrees>
              <LongitudeDegrees>-0.1777642406523227691650390625</LongitudeDegrees>
            </Position>
            <AltitudeMeters>437.20001220703125</AltitudeMeters>
            <DistanceMeters>86058.331143129</DistanceMeters>
          </Trackpoint>
          <Trackpoint>
            <Time>2022-04-23T14:02:20.000Z</Time>
            <Position>
              <LatitudeDegrees>41.6320927999913692474365234375</LatitudeDegrees>
              <LongitudeDegrees>-0.17789558507502079010009765625</LongitudeDegrees>
            </Position>
            <AltitudeMeters>437.600006103515625</AltitudeMeters>
            <DistanceMeters>86069.492231989</DistanceMeters>
          </Trackpoint>
          <Trackpoint>
            <Time>2022-04-23T14:02:22.000Z</Time>
            <Position>
              <LatitudeDegrees>41.6321070492267608642578125</LatitudeDegrees>
              <LongitudeDegrees>-0.17799608409404754638671875</LongitudeDegrees>
            </Position>
            <AltitudeMeters>438</AltitudeMeters>
            <DistanceMeters>86078.002297387</DistanceMeters>
          </Trackpoint>
          <Trackpoint>
            <Time>2022-04-23T14:02:27.000Z</Time>
            <Position>
              <LatitudeDegrees>41.63213311694562435150146484375</LatitudeDegrees>
              <LongitudeDegrees>-0.1782617904245853424072265625</LongitudeDegrees>
            </Position>
            <AltitudeMeters>438.79998779296875</AltitudeMeters>
            <DistanceMeters>86100.296139754</DistanceMeters>
          </Trackpoint>
          <Trackpoint>
            <Time>2022-04-23T14:02:32.000Z</Time>
            <Position>
              <LatitudeDegrees>41.632164381444454193115234375</LatitudeDegrees>
              <LongitudeDegrees>-0.1785263232886791229248046875</LongitudeDegrees>
            </Position>
            <AltitudeMeters>440</AltitudeMeters>
            <DistanceMeters>86122.57580093</DistanceMeters>
          </Trackpoint>
          <Trackpoint>
            <Time>2022-04-23T14:02:33.000Z</Time>
            <Position>
              <LatitudeDegrees>41.63216932676732540130615234375</LatitudeDegrees>
              <LongitudeDegrees>-0.17858206294476985931396484375</LongitudeDegrees>
            </Position>
            <AltitudeMeters>440.20001220703125</AltitudeMeters>
            <DistanceMeters>86127.244698502</DistanceMeters>
          </Trackpoint>
          <Trackpoint>
            <Time>2022-04-23T14:02:39.000Z</Time>
            <Position>
              <LatitudeDegrees>41.6322091408073902130126953125</LatitudeDegrees>
              <LongitudeDegrees>-0.17892085947096347808837890625</LongitudeDegrees>
            </Position>
            <AltitudeMeters>441</AltitudeMeters>
            <DistanceMeters>86155.775510109</DistanceMeters>
          </Trackpoint>
          <Trackpoint>
            <Time>2022-04-23T14:02:41.000Z</Time>
            <Position>
              <LatitudeDegrees>41.63222297094762325286865234375</LatitudeDegrees>
              <LongitudeDegrees>-0.17902873456478118896484375</LongitudeDegrees>
            </Position>
            <AltitudeMeters>441</AltitudeMeters>
            <DistanceMeters>86164.881231492</DistanceMeters>
          </Trackpoint>
          <Trackpoint>
            <Time>2022-04-23T14:02:48.000Z</Time>
            <Position>
              <LatitudeDegrees>41.6322812251746654510498046875</LatitudeDegrees>
              <LongitudeDegrees>-0.179407931864261627197265625</LongitudeDegrees>
            </Position>
            <AltitudeMeters>441.20001220703125</AltitudeMeters>
            <DistanceMeters>86197.086035947</DistanceMeters>
          </Trackpoint>
          <Trackpoint>
            <Time>2022-04-23T14:02:50.000Z</Time>
            <Position>
              <LatitudeDegrees>41.6323006711900234222412109375</LatitudeDegrees>
              <LongitudeDegrees>-0.17951278947293758392333984375</LongitudeDegrees>
            </Position>
            <AltitudeMeters>441.20001220703125</AltitudeMeters>
            <DistanceMeters>86206.073975859</DistanceMeters>
          </Trackpoint>
          <Trackpoint>
            <Time>2022-04-23T14:02:57.000Z</Time>
            <Position>
              <LatitudeDegrees>41.6323670558631420135498046875</LatitudeDegrees>
              <LongitudeDegrees>-0.1799200661480426788330078125</LongitudeDegrees>
            </Position>
            <AltitudeMeters>441.399993896484375</AltitudeMeters>
            <DistanceMeters>86240.751566318</DistanceMeters>
          </Trackpoint>
          <Trackpoint>
            <Time>2022-04-23T14:02:58.000Z</Time>
            <Position>
              <LatitudeDegrees>41.63237501867115497589111328125</LatitudeDegrees>
              <LongitudeDegrees>-0.1799800805747509002685546875</LongitudeDegrees>
            </Position>
            <AltitudeMeters>441.600006103515625</AltitudeMeters>
            <DistanceMeters>86245.821043368</DistanceMeters>
          </Trackpoint>
          <Trackpoint>
            <Time>2022-04-23T14:03:05.000Z</Time>
            <Position>
              <LatitudeDegrees>41.63244676776230335235595703125</LatitudeDegrees>
              <LongitudeDegrees>-0.1804001815617084503173828125</LongitudeDegrees>
            </Position>
            <AltitudeMeters>442.20001220703125</AltitudeMeters>
            <DistanceMeters>86281.669674572</DistanceMeters>
          </Trackpoint>
          <Trackpoint>
            <Time>2022-04-23T14:03:06.000Z</Time>
            <Position>
              <LatitudeDegrees>41.63246554322540760040283203125</LatitudeDegrees>
              <LongitudeDegrees>-0.18045692704617977142333984375</LongitudeDegrees>
            </Position>
            <AltitudeMeters>442.399993896484375</AltitudeMeters>
            <DistanceMeters>86286.830946267</DistanceMeters>
          </Trackpoint>
          <Trackpoint>
            <Time>2022-04-23T14:03:09.000Z</Time>
            <Position>
              <LatitudeDegrees>41.63253008387982845306396484375</LatitudeDegrees>
              <LongitudeDegrees>-0.18062531948089599609375</LongitudeDegrees>
            </Position>
            <AltitudeMeters>442.600006103515625</AltitudeMeters>
            <DistanceMeters>86302.573864614</DistanceMeters>
          </Trackpoint>
          <Trackpoint>
            <Time>2022-04-23T14:03:11.000Z</Time>
            <Position>
              <LatitudeDegrees>41.632583476603031158447265625</LatitudeDegrees>
              <LongitudeDegrees>-0.18072397448122501373291015625</LongitudeDegrees>
            </Position>
            <AltitudeMeters>442.600006103515625</AltitudeMeters>
            <DistanceMeters>86312.706582372</DistanceMeters>
          </Trackpoint>
          <Trackpoint>
            <Time>2022-04-23T14:03:17.000Z</Time>
            <Position>
              <LatitudeDegrees>41.63274943828582763671875</LatitudeDegrees>
              <LongitudeDegrees>-0.18101935274899005889892578125</LongitudeDegrees>
            </Position>
            <AltitudeMeters>442.79998779296875</AltitudeMeters>
            <DistanceMeters>86343.44754088</DistanceMeters>
          </Trackpoint>
          <Trackpoint>
            <Time>2022-04-23T14:03:19.000Z</Time>
            <Position>
              <LatitudeDegrees>41.63279972970485687255859375</LatitudeDegrees>
              <LongitudeDegrees>-0.181126892566680908203125</LongitudeDegrees>
            </Position>
            <AltitudeMeters>442.79998779296875</AltitudeMeters>
            <DistanceMeters>86354.000641504</DistanceMeters>
          </Trackpoint>
          <Trackpoint>
            <Time>2022-04-23T14:03:22.000Z</Time>
            <Position>
              <LatitudeDegrees>41.63287206552922725677490234375</LatitudeDegrees>
              <LongitudeDegrees>-0.1812950335443019866943359375</LongitudeDegrees>
            </Position>
            <AltitudeMeters>443</AltitudeMeters>
            <DistanceMeters>86370.139803657</DistanceMeters>
          </Trackpoint>
          <Trackpoint>
            <Time>2022-04-23T14:03:24.000Z</Time>
            <Position>
              <LatitudeDegrees>41.63291062228381633758544921875</LatitudeDegrees>
              <LongitudeDegrees>-0.18141866661608219146728515625</LongitudeDegrees>
            </Position>
            <AltitudeMeters>443.20001220703125</AltitudeMeters>
            <DistanceMeters>86381.284294288</DistanceMeters>
          </Trackpoint>
          <Trackpoint>
            <Time>2022-04-23T14:03:25.000Z</Time>
            <Position>
              <LatitudeDegrees>41.63292520679533481597900390625</LatitudeDegrees>
              <LongitudeDegrees>-0.18148371018469333648681640625</LongitudeDegrees>
            </Position>
            <AltitudeMeters>443.399993896484375</AltitudeMeters>
            <DistanceMeters>86386.933390689</DistanceMeters>
          </Trackpoint>
          <Trackpoint>
            <Time>2022-04-23T14:03:31.000Z</Time>
            <Position>
              <LatitudeDegrees>41.63296041078865528106689453125</LatitudeDegrees>
              <LongitudeDegrees>-0.1818663440644741058349609375</LongitudeDegrees>
            </Position>
            <AltitudeMeters>444.399993896484375</AltitudeMeters>
            <DistanceMeters>86419.00444925</DistanceMeters>
          </Trackpoint>
          <Trackpoint>
            <Time>2022-04-23T14:03:32.000Z</Time>
            <Position>
              <LatitudeDegrees>41.632956303656101226806640625</LatitudeDegrees>
              <LongitudeDegrees>-0.18192878924310207366943359375</LongitudeDegrees>
            </Position>
            <AltitudeMeters>444.600006103515625</AltitudeMeters>
            <DistanceMeters>86424.217944248</DistanceMeters>
          </Trackpoint>
          <Trackpoint>
            <Time>2022-04-23T14:03:37.000Z</Time>
            <Position>
              <LatitudeDegrees>41.63293459452688694000244140625</LatitudeDegrees>
              <LongitudeDegrees>-0.1822552643716335296630859375</LongitudeDegrees>
            </Position>
            <AltitudeMeters>445</AltitudeMeters>
            <DistanceMeters>86451.484485169</DistanceMeters>
          </Trackpoint>
          <Trackpoint>
            <Time>2022-04-23T14:03:45.000Z</Time>
            <Position>
              <LatitudeDegrees>41.632910706102848052978515625</LatitudeDegrees>
              <LongitudeDegrees>-0.18275164067745208740234375</LongitudeDegrees>
            </Position>
            <AltitudeMeters>445</AltitudeMeters>
            <DistanceMeters>86492.863027488</DistanceMeters>
          </Trackpoint>
          <Trackpoint>
            <Time>2022-04-23T14:03:48.000Z</Time>
            <Position>
              <LatitudeDegrees>41.63286921568214893341064453125</LatitudeDegrees>
              <LongitudeDegrees>-0.18290989100933074951171875</LongitudeDegrees>
            </Position>
            <AltitudeMeters>445.399993896484375</AltitudeMeters>
            <DistanceMeters>86506.813842432</DistanceMeters>
          </Trackpoint>
          <Trackpoint>
            <Time>2022-04-23T14:03:49.000Z</Time>
            <Position>
              <LatitudeDegrees>41.63284591399133205413818359375</LatitudeDegrees>
              <LongitudeDegrees>-0.1829601824283599853515625</LongitudeDegrees>
            </Position>
            <AltitudeMeters>445.399993896484375</AltitudeMeters>
            <DistanceMeters>86511.735088719</DistanceMeters>
          </Trackpoint>
          <Trackpoint>
            <Time>2022-04-23T14:03:50.000Z</Time>
            <Position>
              <LatitudeDegrees>41.6328180022537708282470703125</LatitudeDegrees>
              <LongitudeDegrees>-0.18300586380064487457275390625</LongitudeDegrees>
            </Position>
            <AltitudeMeters>445.600006103515625</AltitudeMeters>
            <DistanceMeters>86516.643473785</DistanceMeters>
          </Trackpoint>
          <Trackpoint>
            <Time>2022-04-23T14:03:53.000Z</Time>
            <Position>
              <LatitudeDegrees>41.63272605277597904205322265625</LatitudeDegrees>
              <LongitudeDegrees>-0.1831360347568988800048828125</LongitudeDegrees>
            </Position>
            <AltitudeMeters>446</AltitudeMeters>
            <DistanceMeters>86531.543589874</DistanceMeters>
          </Trackpoint>
          <Trackpoint>
            <Time>2022-04-23T14:03:58.000Z</Time>
            <Position>
              <LatitudeDegrees>41.63257702253758907318115234375</LatitudeDegrees>
              <LongitudeDegrees>-0.18336142413318157196044921875</LongitudeDegrees>
            </Position>
            <AltitudeMeters>446.20001220703125</AltitudeMeters>
            <DistanceMeters>86556.577673946</DistanceMeters>
          </Trackpoint>
          <Trackpoint>
            <Time>2022-04-23T14:04:01.000Z</Time>
            <Position>
              <LatitudeDegrees>41.6324921138584613800048828125</LatitudeDegrees>
              <LongitudeDegrees>-0.18350894562900066375732421875</LongitudeDegrees>
            </Position>
            <AltitudeMeters>446.399993896484375</AltitudeMeters>
            <DistanceMeters>86572.067319879</DistanceMeters>
          </Trackpoint>
          <Trackpoint>
            <Time>2022-04-23T14:04:07.000Z</Time>
            <Position>
              <LatitudeDegrees>41.632317937910556793212890625</LatitudeDegrees>
              <LongitudeDegrees>-0.1838039048016071319580078125</LongitudeDegrees>
            </Position>
            <AltitudeMeters>447</AltitudeMeters>
            <DistanceMeters>86603.338906479</DistanceMeters>
          </Trackpoint>
          <Trackpoint>
            <Time>2022-04-23T14:04:15.000Z</Time>
            <Position>
              <LatitudeDegrees>41.63215063512325286865234375</LatitudeDegrees>
              <LongitudeDegrees>-0.184249319136142730712890625</LongitudeDegrees>
            </Position>
            <AltitudeMeters>447.20001220703125</AltitudeMeters>
            <DistanceMeters>86644.808677861</DistanceMeters>
          </Trackpoint>
          <Trackpoint>
            <Time>2022-04-23T14:04:22.000Z</Time>
            <Position>
              <LatitudeDegrees>41.63203395903110504150390625</LatitudeDegrees>
              <LongitudeDegrees>-0.1846645586192607879638671875</LongitudeDegrees>
            </Position>
            <AltitudeMeters>447.600006103515625</AltitudeMeters>
            <DistanceMeters>86681.712825721</DistanceMeters>
          </Trackpoint>
          <Trackpoint>
            <Time>2022-04-23T14:04:29.000Z</Time>
            <Position>
              <LatitudeDegrees>41.63189523853361606597900390625</LatitudeDegrees>
              <LongitudeDegrees>-0.18511760048568248748779296875</LongitudeDegrees>
            </Position>
            <AltitudeMeters>447.399993896484375</AltitudeMeters>
            <DistanceMeters>86722.441501648</DistanceMeters>
          </Trackpoint>
          <Trackpoint>
            <Time>2022-04-23T14:04:32.000Z</Time>
            <Position>
              <LatitudeDegrees>41.6318229027092456817626953125</LatitudeDegrees>
              <LongitudeDegrees>-0.18530166707932949066162109375</LongitudeDegrees>
            </Position>
            <AltitudeMeters>447</AltitudeMeters>
            <DistanceMeters>86739.741584124</DistanceMeters>
          </Trackpoint>
          <Trackpoint>
            <Time>2022-04-23T14:04:38.000Z</Time>
            <Position>
              <LatitudeDegrees>41.63162131793797016143798828125</LatitudeDegrees>
              <LongitudeDegrees>-0.1855758391320705413818359375</LongitudeDegrees>
            </Position>
            <AltitudeMeters>447.20001220703125</AltitudeMeters>
            <DistanceMeters>86771.735824317</DistanceMeters>
          </Trackpoint>
          <Trackpoint>
            <Time>2022-04-23T14:04:41.000Z</Time>
            <Position>
              <LatitudeDegrees>41.63150279782712459564208984375</LatitudeDegrees>
              <LongitudeDegrees>-0.18567197956144809722900390625</LongitudeDegrees>
            </Position>
            <AltitudeMeters>447.79998779296875</AltitudeMeters>
            <DistanceMeters>86787.162380465</DistanceMeters>
          </Trackpoint>
          <Trackpoint>
            <Time>2022-04-23T14:04:45.000Z</Time>
            <Position>
              <LatitudeDegrees>41.63132610730826854705810546875</LatitudeDegrees>
              <LongitudeDegrees>-0.185783207416534423828125</LongitudeDegrees>
            </Position>
            <AltitudeMeters>448.600006103515625</AltitudeMeters>
            <DistanceMeters>86808.896716409</DistanceMeters>
          </Trackpoint>
          <Trackpoint>
            <Time>2022-04-23T14:04:46.000Z</Time>
            <Position>
              <LatitudeDegrees>41.6312817670404911041259765625</LatitudeDegrees>
              <LongitudeDegrees>-0.18580977804958820343017578125</LongitudeDegrees>
            </Position>
            <AltitudeMeters>449</AltitudeMeters>
            <DistanceMeters>86814.30406211</DistanceMeters>
          </Trackpoint>
          <Trackpoint>
            <Time>2022-04-23T14:04:47.000Z</Time>
            <Position>
              <LatitudeDegrees>41.6312375105917453765869140625</LatitudeDegrees>
              <LongitudeDegrees>-0.1858413778245449066162109375</LongitudeDegrees>
            </Position>
            <AltitudeMeters>449.20001220703125</AltitudeMeters>
            <DistanceMeters>86819.887235391</DistanceMeters>
          </Trackpoint>
          <Trackpoint>
            <Time>2022-04-23T14:04:49.000Z</Time>
            <Position>
              <LatitudeDegrees>41.6311570443212985992431640625</LatitudeDegrees>
              <LongitudeDegrees>-0.18592410720884799957275390625</LongitudeDegrees>
            </Position>
            <AltitudeMeters>449.600006103515625</AltitudeMeters>
            <DistanceMeters>86831.182230743</DistanceMeters>
          </Trackpoint>
          <Trackpoint>
            <Time>2022-04-23T14:04:51.000Z</Time>
            <Position>
              <LatitudeDegrees>41.631086133420467376708984375</LatitudeDegrees>
              <LongitudeDegrees>-0.1860294677317142486572265625</LongitudeDegrees>
            </Position>
            <AltitudeMeters>449.79998779296875</AltitudeMeters>
            <DistanceMeters>86842.97703289</DistanceMeters>
          </Trackpoint>
          <Trackpoint>
            <Time>2022-04-23T14:04:58.000Z</Time>
            <Position>
              <LatitudeDegrees>41.63089242763817310333251953125</LatitudeDegrees>
              <LongitudeDegrees>-0.1864545978605747222900390625</LongitudeDegrees>
            </Position>
            <AltitudeMeters>450.20001220703125</AltitudeMeters>
            <DistanceMeters>86884.397563354</DistanceMeters>
          </Trackpoint>
          <Trackpoint>
            <Time>2022-04-23T14:05:07.000Z</Time>
            <Position>
              <LatitudeDegrees>41.630748175084590911865234375</LatitudeDegrees>
              <LongitudeDegrees>-0.18708198331296443939208984375</LongitudeDegrees>
            </Position>
            <AltitudeMeters>451</AltitudeMeters>
            <DistanceMeters>86939.004447932</DistanceMeters>
          </Trackpoint>
          <Trackpoint>
            <Time>2022-04-23T14:05:09.000Z</Time>
            <Position>
              <LatitudeDegrees>41.63073040544986724853515625</LatitudeDegrees>
              <LongitudeDegrees>-0.18722548149526119232177734375</LongitudeDegrees>
            </Position>
            <AltitudeMeters>450.79998779296875</AltitudeMeters>
            <DistanceMeters>86951.105345404</DistanceMeters>
          </Trackpoint>
          <Trackpoint>
            <Time>2022-04-23T14:05:16.000Z</Time>
            <Position>
              <LatitudeDegrees>41.63068749010562896728515625</LatitudeDegrees>
              <LongitudeDegrees>-0.18775052390992641448974609375</LongitudeDegrees>
            </Position>
            <AltitudeMeters>450</AltitudeMeters>
            <DistanceMeters>86995.044900752</DistanceMeters>
          </Trackpoint>
          <Trackpoint>
            <Time>2022-04-23T14:05:26.000Z</Time>
            <Position>
              <LatitudeDegrees>41.6306460835039615631103515625</LatitudeDegrees>
              <LongitudeDegrees>-0.1884883828461170196533203125</LongitudeDegrees>
            </Position>
            <AltitudeMeters>450.20001220703125</AltitudeMeters>
            <DistanceMeters>87056.601531082</DistanceMeters>
          </Trackpoint>
          <Trackpoint>
            <Time>2022-04-23T14:05:30.000Z</Time>
            <Position>
              <LatitudeDegrees>41.63066980428993701934814453125</LatitudeDegrees>
              <LongitudeDegrees>-0.18880396150052547454833984375</LongitudeDegrees>
            </Position>
            <AltitudeMeters>450.399993896484375</AltitudeMeters>
            <DistanceMeters>87082.987491247</DistanceMeters>
          </Trackpoint>
          <Trackpoint>
            <Time>2022-04-23T14:05:33.000Z</Time>
            <Position>
              <LatitudeDegrees>41.6307054273784160614013671875</LatitudeDegrees>
              <LongitudeDegrees>-0.189027003943920135498046875</LongitudeDegrees>
            </Position>
            <AltitudeMeters>450.600006103515625</AltitudeMeters>
            <DistanceMeters>87101.961925305</DistanceMeters>
          </Trackpoint>
          <Trackpoint>
            <Time>2022-04-23T14:05:37.000Z</Time>
            <Position>
              <LatitudeDegrees>41.63075597025454044342041015625</LatitudeDegrees>
              <LongitudeDegrees>-0.18933420069515705108642578125</LongitudeDegrees>
            </Position>
            <AltitudeMeters>450.600006103515625</AltitudeMeters>
            <DistanceMeters>87128.130011916</DistanceMeters>
          </Trackpoint>
          <Trackpoint>
            <Time>2022-04-23T14:05:39.000Z</Time>
            <Position>
              <LatitudeDegrees>41.6307500191032886505126953125</LatitudeDegrees>
              <LongitudeDegrees>-0.18949446268379688262939453125</LongitudeDegrees>
            </Position>
            <AltitudeMeters>450.600006103515625</AltitudeMeters>
            <DistanceMeters>87141.479151534</DistanceMeters>
          </Trackpoint>
          <Trackpoint>
            <Time>2022-04-23T14:05:45.000Z</Time>
            <Position>
              <LatitudeDegrees>41.6306353546679019927978515625</LatitudeDegrees>
              <LongitudeDegrees>-0.18996904604136943817138671875</LongitudeDegrees>
            </Position>
            <AltitudeMeters>450</AltitudeMeters>
            <DistanceMeters>87182.971998082</DistanceMeters>
          </Trackpoint>
          <Trackpoint>
            <Time>2022-04-23T14:05:51.000Z</Time>
            <Position>
              <LatitudeDegrees>41.6306041739881038665771484375</LatitudeDegrees>
              <LongitudeDegrees>-0.1904608123004436492919921875</LongitudeDegrees>
            </Position>
            <AltitudeMeters>449</AltitudeMeters>
            <DistanceMeters>87224.029917303</DistanceMeters>
          </Trackpoint>
          <Trackpoint>
            <Time>2022-04-23T14:05:57.000Z</Time>
            <Position>
              <LatitudeDegrees>41.63055606186389923095703125</LatitudeDegrees>
              <LongitudeDegrees>-0.19088837318122386932373046875</LongitudeDegrees>
            </Position>
            <AltitudeMeters>449.399993896484375</AltitudeMeters>
            <DistanceMeters>87260.00025888</DistanceMeters>
          </Trackpoint>
          <Trackpoint>
            <Time>2022-04-23T14:05:59.000Z</Time>
            <Position>
              <LatitudeDegrees>41.63051180541515350341796875</LatitudeDegrees>
              <LongitudeDegrees>-0.1909989304840564727783203125</LongitudeDegrees>
            </Position>
            <AltitudeMeters>449.79998779296875</AltitudeMeters>
            <DistanceMeters>87270.433742073</DistanceMeters>
          </Trackpoint>
          <Trackpoint>
            <Time>2022-04-23T14:06:00.000Z</Time>
            <Position>
              <LatitudeDegrees>41.63048422895371913909912109375</LatitudeDegrees>
              <LongitudeDegrees>-0.1910478807985782623291015625</LongitudeDegrees>
            </Position>
            <AltitudeMeters>450.399993896484375</AltitudeMeters>
            <DistanceMeters>87275.532525269</DistanceMeters>
          </Trackpoint>
          <Trackpoint>
            <Time>2022-04-23T14:06:02.000Z</Time>
            <Position>
              <LatitudeDegrees>41.63042840547859668731689453125</LatitudeDegrees>
              <LongitudeDegrees>-0.19113890826702117919921875</LongitudeDegrees>
            </Position>
            <AltitudeMeters>451</AltitudeMeters>
            <DistanceMeters>87285.328115721</DistanceMeters>
          </Trackpoint>
          <Trackpoint>
            <Time>2022-04-23T14:06:05.000Z</Time>
            <Position>
              <LatitudeDegrees>41.630341820418834686279296875</LatitudeDegrees>
              <LongitudeDegrees>-0.19126589410006999969482421875</LongitudeDegrees>
            </Position>
            <AltitudeMeters>451.600006103515625</AltitudeMeters>
            <DistanceMeters>87299.627662951</DistanceMeters>
          </Trackpoint>
          <Trackpoint>
            <Time>2022-04-23T14:06:10.000Z</Time>
            <Position>
              <LatitudeDegrees>41.630176194012165069580078125</LatitudeDegrees>
              <LongitudeDegrees>-0.19146613776683807373046875</LongitudeDegrees>
            </Position>
            <AltitudeMeters>451.79998779296875</AltitudeMeters>
            <DistanceMeters>87324.474014315</DistanceMeters>
          </Trackpoint>
          <Trackpoint>
            <Time>2022-04-23T14:06:18.000Z</Time>
            <Position>
              <LatitudeDegrees>41.62989967502653598785400390625</LatitudeDegrees>
              <LongitudeDegrees>-0.19178573973476886749267578125</LongitudeDegrees>
            </Position>
            <AltitudeMeters>452.20001220703125</AltitudeMeters>
            <DistanceMeters>87365.14567009</DistanceMeters>
          </Trackpoint>
          <Trackpoint>
            <Time>2022-04-23T14:06:26.000Z</Time>
            <Position>
              <LatitudeDegrees>41.62962407805025577545166015625</LatitudeDegrees>
              <LongitudeDegrees>-0.192093439400196075439453125</LongitudeDegrees>
            </Position>
            <AltitudeMeters>452.20001220703125</AltitudeMeters>
            <DistanceMeters>87405.098160158</DistanceMeters>
          </Trackpoint>
          <Trackpoint>
            <Time>2022-04-23T14:06:27.000Z</Time>
            <Position>
              <LatitudeDegrees>41.629595495760440826416015625</LatitudeDegrees>
              <LongitudeDegrees>-0.19212596118450164794921875</LongitudeDegrees>
            </Position>
            <AltitudeMeters>452.399993896484375</AltitudeMeters>
            <DistanceMeters>87409.27501396</DistanceMeters>
          </Trackpoint>
          <Trackpoint>
            <Time>2022-04-23T14:06:28.000Z</Time>
            <Position>
              <LatitudeDegrees>41.6295651532709598541259765625</LatitudeDegrees>
              <LongitudeDegrees>-0.19215588457882404327392578125</LongitudeDegrees>
            </Position>
            <AltitudeMeters>452.600006103515625</AltitudeMeters>
            <DistanceMeters>87413.471280047</DistanceMeters>
          </Trackpoint>
          <Trackpoint>
            <Time>2022-04-23T14:06:29.000Z</Time>
            <Position>
              <LatitudeDegrees>41.6295321285724639892578125</LatitudeDegrees>
              <LongitudeDegrees>-0.1921844668686389923095703125</LongitudeDegrees>
            </Position>
            <AltitudeMeters>452.600006103515625</AltitudeMeters>
            <DistanceMeters>87417.848701915</DistanceMeters>
          </Trackpoint>
          <Trackpoint>
            <Time>2022-04-23T14:06:33.000Z</Time>
            <Position>
              <LatitudeDegrees>41.62941067479550838470458984375</LatitudeDegrees>
              <LongitudeDegrees>-0.19231195561587810516357421875</LongitudeDegrees>
            </Position>
            <AltitudeMeters>453.399993896484375</AltitudeMeters>
            <DistanceMeters>87435.030940397</DistanceMeters>
          </Trackpoint>
          <Trackpoint>
            <Time>2022-04-23T14:06:34.000Z</Time>
            <Position>
              <LatitudeDegrees>41.62938066758215427398681640625</LatitudeDegrees>
              <LongitudeDegrees>-0.19234481267631053924560546875</LongitudeDegrees>
            </Position>
            <AltitudeMeters>453.79998779296875</AltitudeMeters>
            <DistanceMeters>87439.346032242</DistanceMeters>
          </Trackpoint>
          <Trackpoint>
            <Time>2022-04-23T14:06:38.000Z</Time>
            <Position>
              <LatitudeDegrees>41.6292573697865009307861328125</LatitudeDegrees>
              <LongitudeDegrees>-0.1924684457480907440185546875</LongitudeDegrees>
            </Position>
            <AltitudeMeters>454.79998779296875</AltitudeMeters>
            <DistanceMeters>87456.495655846</DistanceMeters>
          </Trackpoint>
          <Trackpoint>
            <Time>2022-04-23T14:06:39.000Z</Time>
            <Position>
              <LatitudeDegrees>41.62922945804893970489501953125</LatitudeDegrees>
              <LongitudeDegrees>-0.1925016380846500396728515625</LongitudeDegrees>
            </Position>
            <AltitudeMeters>455.20001220703125</AltitudeMeters>
            <DistanceMeters>87460.651920544</DistanceMeters>
          </Trackpoint>
          <Trackpoint>
            <Time>2022-04-23T14:06:44.000Z</Time>
            <Position>
              <LatitudeDegrees>41.62907942198216915130615234375</LatitudeDegrees>
              <LongitudeDegrees>-0.1926696114242076873779296875</LongitudeDegrees>
            </Position>
            <AltitudeMeters>456.399993896484375</AltitudeMeters>
            <DistanceMeters>87482.426727635</DistanceMeters>
          </Trackpoint>
          <Trackpoint>
            <Time>2022-04-23T14:06:46.000Z</Time>
            <Position>
              <LatitudeDegrees>41.62901739589869976043701171875</LatitudeDegrees>
              <LongitudeDegrees>-0.1927453838288784027099609375</LongitudeDegrees>
            </Position>
            <AltitudeMeters>456.600006103515625</AltitudeMeters>
            <DistanceMeters>87491.775154231</DistanceMeters>
          </Trackpoint>
          <Trackpoint>
            <Time>2022-04-23T14:06:52.000Z</Time>
            <Position>
              <LatitudeDegrees>41.628855206072330474853515625</LatitudeDegrees>
              <LongitudeDegrees>-0.193010754883289337158203125</LongitudeDegrees>
            </Position>
            <AltitudeMeters>456.79998779296875</AltitudeMeters>
            <DistanceMeters>87520.293302924</DistanceMeters>
          </Trackpoint>
          <Trackpoint>
            <Time>2022-04-23T14:06:58.000Z</Time>
            <Position>
              <LatitudeDegrees>41.62865831516683101654052734375</LatitudeDegrees>
              <LongitudeDegrees>-0.19330680370330810546875</LongitudeDegrees>
            </Position>
            <AltitudeMeters>456.600006103515625</AltitudeMeters>
            <DistanceMeters>87553.260862748</DistanceMeters>
          </Trackpoint>
          <Trackpoint>
            <Time>2022-04-23T14:07:05.000Z</Time>
            <Position>
              <LatitudeDegrees>41.6284366138279438018798828125</LatitudeDegrees>
              <LongitudeDegrees>-0.193640403449535369873046875</LongitudeDegrees>
            </Position>
            <AltitudeMeters>456.20001220703125</AltitudeMeters>
            <DistanceMeters>87590.397954386</DistanceMeters>
          </Trackpoint>
          <Trackpoint>
            <Time>2022-04-23T14:07:06.000Z</Time>
            <Position>
              <LatitudeDegrees>41.62840819917619228363037109375</LatitudeDegrees>
              <LongitudeDegrees>-0.19369178451597690582275390625</LongitudeDegrees>
            </Position>
            <AltitudeMeters>456.399993896484375</AltitudeMeters>
            <DistanceMeters>87595.714357236</DistanceMeters>
          </Trackpoint>
          <Trackpoint>
            <Time>2022-04-23T14:07:12.000Z</Time>
            <Position>
              <LatitudeDegrees>41.62826411426067352294921875</LatitudeDegrees>
              <LongitudeDegrees>-0.19401314668357372283935546875</LongitudeDegrees>
            </Position>
            <AltitudeMeters>456.79998779296875</AltitudeMeters>
            <DistanceMeters>87626.890796068</DistanceMeters>
          </Trackpoint>
          <Trackpoint>
            <Time>2022-04-23T14:07:19.000Z</Time>
            <Position>
              <LatitudeDegrees>41.6281271539628505706787109375</LatitudeDegrees>
              <LongitudeDegrees>-0.1944096945226192474365234375</LongitudeDegrees>
            </Position>
            <AltitudeMeters>457.399993896484375</AltitudeMeters>
            <DistanceMeters>87663.233265728</DistanceMeters>
          </Trackpoint>
          <Trackpoint>
            <Time>2022-04-23T14:07:20.000Z</Time>
            <Position>
              <LatitudeDegrees>41.628109551966190338134765625</LatitudeDegrees>
              <LongitudeDegrees>-0.19446761347353458404541015625</LongitudeDegrees>
            </Position>
            <AltitudeMeters>457.399993896484375</AltitudeMeters>
            <DistanceMeters>87668.434622188</DistanceMeters>
          </Trackpoint>
          <Trackpoint>
            <Time>2022-04-23T14:07:30.000Z</Time>
            <Position>
              <LatitudeDegrees>41.6279791295528411865234375</LatitudeDegrees>
              <LongitudeDegrees>-0.1950778998434543609619140625</LongitudeDegrees>
            </Position>
            <AltitudeMeters>457.600006103515625</AltitudeMeters>
            <DistanceMeters>87721.24195148</DistanceMeters>
          </Trackpoint>
          <Trackpoint>
            <Time>2022-04-23T14:07:33.000Z</Time>
            <Position>
              <LatitudeDegrees>41.62795457057654857635498046875</LatitudeDegrees>
              <LongitudeDegrees>-0.1952690072357654571533203125</LongitudeDegrees>
            </Position>
            <AltitudeMeters>457.600006103515625</AltitudeMeters>
            <DistanceMeters>87737.374677948</DistanceMeters>
          </Trackpoint>
          <Trackpoint>
            <Time>2022-04-23T14:07:37.000Z</Time>
            <Position>
              <LatitudeDegrees>41.62795390002429485321044921875</LatitudeDegrees>
              <LongitudeDegrees>-0.19552222453057765960693359375</LongitudeDegrees>
            </Position>
            <AltitudeMeters>457.79998779296875</AltitudeMeters>
            <DistanceMeters>87758.441052503</DistanceMeters>
          </Trackpoint>
          <Trackpoint>
            <Time>2022-04-23T14:07:42.000Z</Time>
            <Position>
              <LatitudeDegrees>41.62797837518155574798583984375</LatitudeDegrees>
              <LongitudeDegrees>-0.19581072963774204254150390625</LongitudeDegrees>
            </Position>
            <AltitudeMeters>458.399993896484375</AltitudeMeters>
            <DistanceMeters>87782.597284407</DistanceMeters>
          </Trackpoint>
          <Trackpoint>
            <Time>2022-04-23T14:07:44.000Z</Time>
            <Position>
              <LatitudeDegrees>41.62799580954015254974365234375</LatitudeDegrees>
              <LongitudeDegrees>-0.195933021605014801025390625</LongitudeDegrees>
            </Position>
            <AltitudeMeters>458.79998779296875</AltitudeMeters>
            <DistanceMeters>87792.954324432</DistanceMeters>
          </Trackpoint>
          <Trackpoint>
            <Time>2022-04-23T14:07:45.000Z</Time>
            <Position>
              <LatitudeDegrees>41.62800653837621212005615234375</LatitudeDegrees>
              <LongitudeDegrees>-0.1959958858788013458251953125</LongitudeDegrees>
            </Position>
            <AltitudeMeters>459</AltitudeMeters>
            <DistanceMeters>87798.318075317</DistanceMeters>
          </Trackpoint>
          <Trackpoint>
            <Time>2022-04-23T14:07:53.000Z</Time>
            <Position>
              <LatitudeDegrees>41.628101170063018798828125</LatitudeDegrees>
              <LongitudeDegrees>-0.19650927744805812835693359375</LongitudeDegrees>
            </Position>
            <AltitudeMeters>458.20001220703125</AltitudeMeters>
            <DistanceMeters>87842.309183766</DistanceMeters>
          </Trackpoint>
          <Trackpoint>
            <Time>2022-04-23T14:07:56.000Z</Time>
            <Position>
              <LatitudeDegrees>41.62811600603163242340087890625</LatitudeDegrees>
              <LongitudeDegrees>-0.196718238294124603271484375</LongitudeDegrees>
            </Position>
            <AltitudeMeters>457.79998779296875</AltitudeMeters>
            <DistanceMeters>87859.771877759</DistanceMeters>
          </Trackpoint>
          <Trackpoint>
            <Time>2022-04-23T14:07:59.000Z</Time>
            <Position>
              <LatitudeDegrees>41.6281003318727016448974609375</LatitudeDegrees>
              <LongitudeDegrees>-0.1969212479889392852783203125</LongitudeDegrees>
            </Position>
            <AltitudeMeters>457.79998779296875</AltitudeMeters>
            <DistanceMeters>87876.751106851</DistanceMeters>
          </Trackpoint>
          <Trackpoint>
            <Time>2022-04-23T14:08:01.000Z</Time>
            <Position>
              <LatitudeDegrees>41.62807770073413848876953125</LatitudeDegrees>
              <LongitudeDegrees>-0.19704605452716350555419921875</LongitudeDegrees>
            </Position>
            <AltitudeMeters>457.600006103515625</AltitudeMeters>
            <DistanceMeters>87887.435592164</DistanceMeters>
          </Trackpoint>
          <Trackpoint>
            <Time>2022-04-23T14:08:04.000Z</Time>
            <Position>
              <LatitudeDegrees>41.6280233860015869140625</LatitudeDegrees>
              <LongitudeDegrees>-0.19720748998224735260009765625</LongitudeDegrees>
            </Position>
            <AltitudeMeters>457.79998779296875</AltitudeMeters>
            <DistanceMeters>87902.164119803</DistanceMeters>
          </Trackpoint>
          <Trackpoint>
            <Time>2022-04-23T14:08:08.000Z</Time>
            <Position>
              <LatitudeDegrees>41.62793076597154140472412109375</LatitudeDegrees>
              <LongitudeDegrees>-0.19735760986804962158203125</LongitudeDegrees>
            </Position>
            <AltitudeMeters>457.79998779296875</AltitudeMeters>
            <DistanceMeters>87918.358579046</DistanceMeters>
          </Trackpoint>
          <Trackpoint>
            <Time>2022-04-23T14:08:09.000Z</Time>
            <Position>
              <LatitudeDegrees>41.62790880538523197174072265625</LatitudeDegrees>
              <LongitudeDegrees>-0.197386108338832855224609375</LongitudeDegrees>
            </Position>
            <AltitudeMeters>458</AltitudeMeters>
            <DistanceMeters>87921.762339918</DistanceMeters>
          </Trackpoint>
          <Trackpoint>
            <Time>2022-04-23T14:08:11.000Z</Time>
            <Position>
              <LatitudeDegrees>41.62787561304867267608642578125</LatitudeDegrees>
              <LongitudeDegrees>-0.197422318160533905029296875</LongitudeDegrees>
            </Position>
            <AltitudeMeters>458.399993896484375</AltitudeMeters>
            <DistanceMeters>87926.528855662</DistanceMeters>
          </Trackpoint>
          <Trackpoint>
            <Time>2022-04-23T14:08:13.000Z</Time>
            <Position>
              <LatitudeDegrees>41.62787192501127719879150390625</LatitudeDegrees>
              <LongitudeDegrees>-0.1974265091121196746826171875</LongitudeDegrees>
            </Position>
            <AltitudeMeters>458.399993896484375</AltitudeMeters>
            <DistanceMeters>87927.066407935</DistanceMeters>
          </Trackpoint>
          <Trackpoint>
            <Time>2022-04-23T14:08:31.000Z</Time>
            <Position>
              <LatitudeDegrees>41.62783236242830753326416015625</LatitudeDegrees>
              <LongitudeDegrees>-0.19742374308407306671142578125</LongitudeDegrees>
            </Position>
            <AltitudeMeters>457.399993896484375</AltitudeMeters>
            <DistanceMeters>87931.476712307</DistanceMeters>
          </Trackpoint>
          <Trackpoint>
            <Time>2022-04-23T14:08:32.000Z</Time>
            <Position>
              <LatitudeDegrees>41.62782381288707256317138671875</LatitudeDegrees>
              <LongitudeDegrees>-0.1974201388657093048095703125</LongitudeDegrees>
            </Position>
            <AltitudeMeters>457.399993896484375</AltitudeMeters>
            <DistanceMeters>87932.473360896</DistanceMeters>
          </Trackpoint>
          <Trackpoint>
            <Time>2022-04-23T14:08:34.000Z</Time>
            <Position>
              <LatitudeDegrees>41.6278103180229663848876953125</LatitudeDegrees>
              <LongitudeDegrees>-0.19741251133382320404052734375</LongitudeDegrees>
            </Position>
            <AltitudeMeters>457.399993896484375</AltitudeMeters>
            <DistanceMeters>87934.102729631</DistanceMeters>
          </Trackpoint>
          <Trackpoint>
            <Time>2022-04-23T14:08:39.000Z</Time>
            <Position>
              <LatitudeDegrees>41.6277791373431682586669921875</LatitudeDegrees>
              <LongitudeDegrees>-0.1974117569625377655029296875</LongitudeDegrees>
            </Position>
            <AltitudeMeters>457.20001220703125</AltitudeMeters>
            <DistanceMeters>87937.574782633</DistanceMeters>
          </Trackpoint>
          <Trackpoint>
            <Time>2022-04-23T14:08:42.000Z</Time>
            <Position>
              <LatitudeDegrees>41.6277700848877429962158203125</LatitudeDegrees>
              <LongitudeDegrees>-0.197407901287078857421875</LongitudeDegrees>
            </Position>
            <AltitudeMeters>457.20001220703125</AltitudeMeters>
            <DistanceMeters>87938.632955341</DistanceMeters>
          </Trackpoint>
          <Trackpoint>
            <Time>2022-04-23T14:08:43.000Z</Time>
            <Position>
              <LatitudeDegrees>41.6277700848877429962158203125</LatitudeDegrees>
              <LongitudeDegrees>-0.197407901287078857421875</LongitudeDegrees>
            </Position>
            <AltitudeMeters>457.20001220703125</AltitudeMeters>
            <DistanceMeters>87938.632955341</DistanceMeters>
          </Trackpoint>
          <Trackpoint>
            <Time>2022-04-23T14:15:44.000Z</Time>
            <Position>
              <LatitudeDegrees>41.6280622780323028564453125</LatitudeDegrees>
              <LongitudeDegrees>-0.1974640600383281707763671875</LongitudeDegrees>
            </Position>
            <AltitudeMeters>456</AltitudeMeters>
            <DistanceMeters>87971.488708087</DistanceMeters>
          </Trackpoint>
          <Trackpoint>
            <Time>2022-04-23T14:15:45.000Z</Time>
            <Position>
              <LatitudeDegrees>41.6280778683722019195556640625</LatitudeDegrees>
              <LongitudeDegrees>-0.19746548496186733245849609375</LongitudeDegrees>
            </Position>
            <AltitudeMeters>458.600006103515625</AltitudeMeters>
            <DistanceMeters>87973.230576533</DistanceMeters>
          </Trackpoint>
          <Trackpoint>
            <Time>2022-04-23T14:15:50.000Z</Time>
            <Position>
              <LatitudeDegrees>41.62820753641426563262939453125</LatitudeDegrees>
              <LongitudeDegrees>-0.1974628865718841552734375</LongitudeDegrees>
            </Position>
            <AltitudeMeters>458</AltitudeMeters>
            <DistanceMeters>87987.664005217</DistanceMeters>
          </Trackpoint>
          <Trackpoint>
            <Time>2022-04-23T14:15:54.000Z</Time>
            <Position>
              <LatitudeDegrees>41.6283769346773624420166015625</LatitudeDegrees>
              <LongitudeDegrees>-0.19745861180126667022705078125</LongitudeDegrees>
            </Position>
            <AltitudeMeters>457.79998779296875</AltitudeMeters>
            <DistanceMeters>88006.521481463</DistanceMeters>
          </Trackpoint>
          <Trackpoint>
            <Time>2022-04-23T14:15:56.000Z</Time>
            <Position>
              <LatitudeDegrees>41.62847475148737430572509765625</LatitudeDegrees>
              <LongitudeDegrees>-0.19744813442230224609375</LongitudeDegrees>
            </Position>
            <AltitudeMeters>458</AltitudeMeters>
            <DistanceMeters>88017.443354463</DistanceMeters>
          </Trackpoint>
          <Trackpoint>
            <Time>2022-04-23T14:15:59.000Z</Time>
            <Position>
              <LatitudeDegrees>41.628628559410572052001953125</LatitudeDegrees>
              <LongitudeDegrees>-0.1974479667842388153076171875</LongitudeDegrees>
            </Position>
            <AltitudeMeters>458.20001220703125</AltitudeMeters>
            <DistanceMeters>88034.562411122</DistanceMeters>
          </Trackpoint>
          <Trackpoint>
            <Time>2022-04-23T14:16:04.000Z</Time>
            <Position>
              <LatitudeDegrees>41.62889979779720306396484375</LatitudeDegrees>
              <LongitudeDegrees>-0.1974315382540225982666015625</LongitudeDegrees>
            </Position>
            <AltitudeMeters>458.600006103515625</AltitudeMeters>
            <DistanceMeters>88064.782699195</DistanceMeters>
          </Trackpoint>
          <Trackpoint>
            <Time>2022-04-23T14:16:08.000Z</Time>
            <Position>
              <LatitudeDegrees>41.62912418134510517120361328125</LatitudeDegrees>
              <LongitudeDegrees>-0.19740982912480831146240234375</LongitudeDegrees>
            </Position>
            <AltitudeMeters>459</AltitudeMeters>
            <DistanceMeters>88089.822193353</DistanceMeters>
          </Trackpoint>
          <Trackpoint>
            <Time>2022-04-23T14:16:13.000Z</Time>
            <Position>
              <LatitudeDegrees>41.62940648384392261505126953125</LatitudeDegrees>
              <LongitudeDegrees>-0.1973698474466800689697265625</LongitudeDegrees>
            </Position>
            <AltitudeMeters>459.399993896484375</AltitudeMeters>
            <DistanceMeters>88121.418540157</DistanceMeters>
          </Trackpoint>
          <Trackpoint>
            <Time>2022-04-23T14:16:18.000Z</Time>
            <Position>
              <LatitudeDegrees>41.629721559584140777587890625</LatitudeDegrees>
              <LongitudeDegrees>-0.1972702704370021820068359375</LongitudeDegrees>
            </Position>
            <AltitudeMeters>459.600006103515625</AltitudeMeters>
            <DistanceMeters>88157.452339455</DistanceMeters>
          </Trackpoint>
          <Trackpoint>
            <Time>2022-04-23T14:16:24.000Z</Time>
            <Position>
              <LatitudeDegrees>41.630111150443553924560546875</LatitudeDegrees>
              <LongitudeDegrees>-0.1970573700964450836181640625</LongitudeDegrees>
            </Position>
            <AltitudeMeters>459.600006103515625</AltitudeMeters>
            <DistanceMeters>88204.292316965</DistanceMeters>
          </Trackpoint>
          <Trackpoint>
            <Time>2022-04-23T14:16:32.000Z</Time>
            <Position>
              <LatitudeDegrees>41.6306130588054656982421875</LatitudeDegrees>
              <LongitudeDegrees>-0.1967220939695835113525390625</LongitudeDegrees>
            </Position>
            <AltitudeMeters>459</AltitudeMeters>
            <DistanceMeters>88266.731955132</DistanceMeters>
          </Trackpoint>
          <Trackpoint>
            <Time>2022-04-23T14:16:34.000Z</Time>
            <Position>
              <LatitudeDegrees>41.63074155338108539581298828125</LatitudeDegrees>
              <LongitudeDegrees>-0.1966389454901218414306640625</LongitudeDegrees>
            </Position>
            <AltitudeMeters>458.79998779296875</AltitudeMeters>
            <DistanceMeters>88282.618477928</DistanceMeters>
          </Trackpoint>
          <Trackpoint>
            <Time>2022-04-23T14:16:41.000Z</Time>
            <Position>
              <LatitudeDegrees>41.63111823610961437225341796875</LatitudeDegrees>
              <LongitudeDegrees>-0.19641523249447345733642578125</LongitudeDegrees>
            </Position>
            <AltitudeMeters>458.20001220703125</AltitudeMeters>
            <DistanceMeters>88328.489124014</DistanceMeters>
          </Trackpoint>
          <Trackpoint>
            <Time>2022-04-23T14:16:48.000Z</Time>
            <Position>
              <LatitudeDegrees>41.6316284425556659698486328125</LatitudeDegrees>
              <LongitudeDegrees>-0.1961142383515834808349609375</LongitudeDegrees>
            </Position>
            <AltitudeMeters>458.399993896484375</AltitudeMeters>
            <DistanceMeters>88390.551754293</DistanceMeters>
          </Trackpoint>
          <Trackpoint>
            <Time>2022-04-23T14:16:51.000Z</Time>
            <Position>
              <LatitudeDegrees>41.63182566873729228973388671875</LatitudeDegrees>
              <LongitudeDegrees>-0.1960022561252117156982421875</LongitudeDegrees>
            </Position>
            <AltitudeMeters>458.600006103515625</AltitudeMeters>
            <DistanceMeters>88414.398348054</DistanceMeters>
          </Trackpoint>
          <Trackpoint>
            <Time>2022-04-23T14:16:52.000Z</Time>
            <Position>
              <LatitudeDegrees>41.6318912990391254425048828125</LatitudeDegrees>
              <LongitudeDegrees>-0.19596177153289318084716796875</LongitudeDegrees>
            </Position>
            <AltitudeMeters>458.600006103515625</AltitudeMeters>
            <DistanceMeters>88422.44257131</DistanceMeters>
          </Trackpoint>
          <Trackpoint>
            <Time>2022-04-23T14:17:00.000Z</Time>
            <Position>
              <LatitudeDegrees>41.63243536837399005889892578125</LatitudeDegrees>
              <LongitudeDegrees>-0.1956465281546115875244140625</LongitudeDegrees>
            </Position>
            <AltitudeMeters>458.399993896484375</AltitudeMeters>
            <DistanceMeters>88488.433407685</DistanceMeters>
          </Trackpoint>
          <Trackpoint>
            <Time>2022-04-23T14:17:02.000Z</Time>
            <Position>
              <LatitudeDegrees>41.63257551379501819610595703125</LatitudeDegrees>
              <LongitudeDegrees>-0.19556648097932338714599609375</LongitudeDegrees>
            </Position>
            <AltitudeMeters>457.79998779296875</AltitudeMeters>
            <DistanceMeters>88505.393480062</DistanceMeters>
          </Trackpoint>
          <Trackpoint>
            <Time>2022-04-23T14:17:03.000Z</Time>
            <Position>
              <LatitudeDegrees>41.632645837962627410888671875</LatitudeDegrees>
              <LongitudeDegrees>-0.1955261640250682830810546875</LongitudeDegrees>
            </Position>
            <AltitudeMeters>457.600006103515625</AltitudeMeters>
            <DistanceMeters>88513.908849334</DistanceMeters>
          </Trackpoint>
          <Trackpoint>
            <Time>2022-04-23T14:17:06.000Z</Time>
            <Position>
              <LatitudeDegrees>41.63285203278064727783203125</LatitudeDegrees>
              <LongitudeDegrees>-0.1954054646193981170654296875</LongitudeDegrees>
            </Position>
            <AltitudeMeters>456.600006103515625</AltitudeMeters>
            <DistanceMeters>88538.959160156</DistanceMeters>
          </Trackpoint>
          <Trackpoint>
            <Time>2022-04-23T14:17:08.000Z</Time>
            <Position>
              <LatitudeDegrees>41.632983125746250152587890625</LatitudeDegrees>
              <LongitudeDegrees>-0.19532005302608013153076171875</LongitudeDegrees>
            </Position>
            <AltitudeMeters>456.600006103515625</AltitudeMeters>
            <DistanceMeters>88555.188153952</DistanceMeters>
          </Trackpoint>
          <Trackpoint>
            <Time>2022-04-23T14:17:15.000Z</Time>
            <Position>
              <LatitudeDegrees>41.63346081040799617767333984375</LatitudeDegrees>
              <LongitudeDegrees>-0.19507446326315402984619140625</LongitudeDegrees>
            </Position>
            <AltitudeMeters>456.600006103515625</AltitudeMeters>
            <DistanceMeters>88612.145711163</DistanceMeters>
          </Trackpoint>
          <Trackpoint>
            <Time>2022-04-23T14:17:16.000Z</Time>
            <Position>
              <LatitudeDegrees>41.63353121839463710784912109375</LatitudeDegrees>
              <LongitudeDegrees>-0.19504093565046787261962890625</LongitudeDegrees>
            </Position>
            <AltitudeMeters>456.600006103515625</AltitudeMeters>
            <DistanceMeters>88620.463670391</DistanceMeters>
          </Trackpoint>
          <Trackpoint>
            <Time>2022-04-23T14:17:24.000Z</Time>
            <Position>
              <LatitudeDegrees>41.63408509455621242523193359375</LatitudeDegrees>
              <LongitudeDegrees>-0.19478243775665760040283203125</LongitudeDegrees>
            </Position>
            <AltitudeMeters>455.600006103515625</AltitudeMeters>
            <DistanceMeters>88685.754077167</DistanceMeters>
          </Trackpoint>
          <Trackpoint>
            <Time>2022-04-23T14:17:27.000Z</Time>
            <Position>
              <LatitudeDegrees>41.63429195992648601531982421875</LatitudeDegrees>
              <LongitudeDegrees>-0.1946961879730224609375</LongitudeDegrees>
            </Position>
            <AltitudeMeters>455.20001220703125</AltitudeMeters>
            <DistanceMeters>88709.870651625</DistanceMeters>
          </Trackpoint>
          <Trackpoint>
            <Time>2022-04-23T14:17:34.000Z</Time>
            <Position>
              <LatitudeDegrees>41.634766124188899993896484375</LatitudeDegrees>
              <LongitudeDegrees>-0.19453668035566806793212890625</LongitudeDegrees>
            </Position>
            <AltitudeMeters>455</AltitudeMeters>
            <DistanceMeters>88764.288527446</DistanceMeters>
          </Trackpoint>
          <Trackpoint>
            <Time>2022-04-23T14:17:41.000Z</Time>
            <Position>
              <LatitudeDegrees>41.63523274473845958709716796875</LatitudeDegrees>
              <LongitudeDegrees>-0.19436367787420749664306640625</LongitudeDegrees>
            </Position>
            <AltitudeMeters>454.399993896484375</AltitudeMeters>
            <DistanceMeters>88818.181410256</DistanceMeters>
          </Trackpoint>
          <Trackpoint>
            <Time>2022-04-23T14:17:43.000Z</Time>
            <Position>
              <LatitudeDegrees>41.63536199368536472320556640625</LatitudeDegrees>
              <LongitudeDegrees>-0.194296203553676605224609375</LongitudeDegrees>
            </Position>
            <AltitudeMeters>454.20001220703125</AltitudeMeters>
            <DistanceMeters>88833.623178243</DistanceMeters>
          </Trackpoint>
          <Trackpoint>
            <Time>2022-04-23T14:17:47.000Z</Time>
            <Position>
              <LatitudeDegrees>41.63553935475647449493408203125</LatitudeDegrees>
              <LongitudeDegrees>-0.19419503398239612579345703125</LongitudeDegrees>
            </Position>
            <AltitudeMeters>453.399993896484375</AltitudeMeters>
            <DistanceMeters>88855.083021406</DistanceMeters>
          </Trackpoint>
          <Trackpoint>
            <Time>2022-04-23T14:17:53.000Z</Time>
            <Position>
              <LatitudeDegrees>41.6359887085855007171630859375</LatitudeDegrees>
              <LongitudeDegrees>-0.19394156523048877716064453125</LongitudeDegrees>
            </Position>
            <AltitudeMeters>452.79998779296875</AltitudeMeters>
            <DistanceMeters>88909.359831731</DistanceMeters>
          </Trackpoint>
          <Trackpoint>
            <Time>2022-04-23T14:18:01.000Z</Time>
            <Position>
              <LatitudeDegrees>41.636530347168445587158203125</LatitudeDegrees>
              <LongitudeDegrees>-0.19367049448192119598388671875</LongitudeDegrees>
            </Position>
            <AltitudeMeters>452.399993896484375</AltitudeMeters>
            <DistanceMeters>88973.724281163</DistanceMeters>
          </Trackpoint>
          <Trackpoint>
            <Time>2022-04-23T14:18:02.000Z</Time>
            <Position>
              <LatitudeDegrees>41.6365975700318813323974609375</LatitudeDegrees>
              <LongitudeDegrees>-0.19364333711564540863037109375</LongitudeDegrees>
            </Position>
            <AltitudeMeters>452.399993896484375</AltitudeMeters>
            <DistanceMeters>88981.539614622</DistanceMeters>
          </Trackpoint>
          <Trackpoint>
            <Time>2022-04-23T14:18:06.000Z</Time>
            <Position>
              <LatitudeDegrees>41.63687559776008129119873046875</LatitudeDegrees>
              <LongitudeDegrees>-0.19353546202182769775390625</LongitudeDegrees>
            </Position>
            <AltitudeMeters>452.20001220703125</AltitudeMeters>
            <DistanceMeters>89013.759416734</DistanceMeters>
          </Trackpoint>
          <Trackpoint>
            <Time>2022-04-23T14:18:12.000Z</Time>
            <Position>
              <LatitudeDegrees>41.63729167543351650238037109375</LatitudeDegrees>
              <LongitudeDegrees>-0.1933572627604007720947265625</LongitudeDegrees>
            </Position>
            <AltitudeMeters>452</AltitudeMeters>
            <DistanceMeters>89062.384318129</DistanceMeters>
          </Trackpoint>
          <Trackpoint>
            <Time>2022-04-23T14:18:20.000Z</Time>
            <Position>
              <LatitudeDegrees>41.6378219984471797943115234375</LatitudeDegrees>
              <LongitudeDegrees>-0.1931141875684261322021484375</LongitudeDegrees>
            </Position>
            <AltitudeMeters>452.600006103515625</AltitudeMeters>
            <DistanceMeters>89124.777443354</DistanceMeters>
          </Trackpoint>
          <Trackpoint>
            <Time>2022-04-23T14:18:22.000Z</Time>
            <Position>
              <LatitudeDegrees>41.6379527561366558074951171875</LatitudeDegrees>
              <LongitudeDegrees>-0.19305375404655933380126953125</LongitudeDegrees>
            </Position>
            <AltitudeMeters>452.600006103515625</AltitudeMeters>
            <DistanceMeters>89140.174410486</DistanceMeters>
          </Trackpoint>
          <Trackpoint>
            <Time>2022-04-23T14:18:30.000Z</Time>
            <Position>
              <LatitudeDegrees>41.6384680755436420440673828125</LatitudeDegrees>
              <LongitudeDegrees>-0.1927601359784603118896484375</LongitudeDegrees>
            </Position>
            <AltitudeMeters>452.399993896484375</AltitudeMeters>
            <DistanceMeters>89202.514107942</DistanceMeters>
          </Trackpoint>
          <Trackpoint>
            <Time>2022-04-23T14:18:33.000Z</Time>
            <Position>
              <LatitudeDegrees>41.6385926306247711181640625</LatitudeDegrees>
              <LongitudeDegrees>-0.1926756463944911956787109375</LongitudeDegrees>
            </Position>
            <AltitudeMeters>452.399993896484375</AltitudeMeters>
            <DistanceMeters>89218.057004555</DistanceMeters>
          </Trackpoint>
          <Trackpoint>
            <Time>2022-04-23T14:18:40.000Z</Time>
            <Position>
              <LatitudeDegrees>41.639097221195697784423828125</LatitudeDegrees>
              <LongitudeDegrees>-0.1923329941928386688232421875</LongitudeDegrees>
            </Position>
            <AltitudeMeters>452.399993896484375</AltitudeMeters>
            <DistanceMeters>89281.037568055</DistanceMeters>
          </Trackpoint>
          <Trackpoint>
            <Time>2022-04-23T14:18:42.000Z</Time>
            <Position>
              <LatitudeDegrees>41.63922856561839580535888671875</LatitudeDegrees>
              <LongitudeDegrees>-0.1922528631985187530517578125</LongitudeDegrees>
            </Position>
            <AltitudeMeters>452.20001220703125</AltitudeMeters>
            <DistanceMeters>89297.104109849</DistanceMeters>
          </Trackpoint>
          <Trackpoint>
            <Time>2022-04-23T14:18:50.000Z</Time>
            <Position>
              <LatitudeDegrees>41.6397518478333950042724609375</LatitudeDegrees>
              <LongitudeDegrees>-0.19194399006664752960205078125</LongitudeDegrees>
            </Position>
            <AltitudeMeters>452.600006103515625</AltitudeMeters>
            <DistanceMeters>89360.761441197</DistanceMeters>
          </Trackpoint>
          <Trackpoint>
            <Time>2022-04-23T14:18:57.000Z</Time>
            <Position>
              <LatitudeDegrees>41.640211008489131927490234375</LatitudeDegrees>
              <LongitudeDegrees>-0.19166369922459125518798828125</LongitudeDegrees>
            </Position>
            <AltitudeMeters>453</AltitudeMeters>
            <DistanceMeters>89416.933885434</DistanceMeters>
          </Trackpoint>
          <Trackpoint>
            <Time>2022-04-23T14:19:06.000Z</Time>
            <Position>
              <LatitudeDegrees>41.64080142974853515625</LatitudeDegrees>
              <LongitudeDegrees>-0.1912819035351276397705078125</LongitudeDegrees>
            </Position>
            <AltitudeMeters>453.20001220703125</AltitudeMeters>
            <DistanceMeters>89489.920217276</DistanceMeters>
          </Trackpoint>
          <Trackpoint>
            <Time>2022-04-23T14:19:08.000Z</Time>
            <Position>
              <LatitudeDegrees>41.64093352854251861572265625</LatitudeDegrees>
              <LongitudeDegrees>-0.19119481556117534637451171875</LongitudeDegrees>
            </Position>
            <AltitudeMeters>453.20001220703125</AltitudeMeters>
            <DistanceMeters>89506.310603916</DistanceMeters>
          </Trackpoint>
          <Trackpoint>
            <Time>2022-04-23T14:19:16.000Z</Time>
            <Position>
              <LatitudeDegrees>41.64144876413047313690185546875</LatitudeDegrees>
              <LongitudeDegrees>-0.19084663130342960357666015625</LongitudeDegrees>
            </Position>
            <AltitudeMeters>453</AltitudeMeters>
            <DistanceMeters>89570.555550492</DistanceMeters>
          </Trackpoint>
          <Trackpoint>
            <Time>2022-04-23T14:19:20.000Z</Time>
            <Position>
              <LatitudeDegrees>41.64169200696051120758056640625</LatitudeDegrees>
              <LongitudeDegrees>-0.19063641317188739776611328125</LongitudeDegrees>
            </Position>
            <AltitudeMeters>453</AltitudeMeters>
            <DistanceMeters>89602.784600015</DistanceMeters>
          </Trackpoint>
          <Trackpoint>
            <Time>2022-04-23T14:19:28.000Z</Time>
            <Position>
              <LatitudeDegrees>41.64216022007167339324951171875</LatitudeDegrees>
              <LongitudeDegrees>-0.1901533640921115875244140625</LongitudeDegrees>
            </Position>
            <AltitudeMeters>453</AltitudeMeters>
            <DistanceMeters>89668.588043895</DistanceMeters>
          </Trackpoint>
          <Trackpoint>
            <Time>2022-04-23T14:19:36.000Z</Time>
            <Position>
              <LatitudeDegrees>41.64261166937649250030517578125</LatitudeDegrees>
              <LongitudeDegrees>-0.18961935304105281829833984375</LongitudeDegrees>
            </Position>
            <AltitudeMeters>452.399993896484375</AltitudeMeters>
            <DistanceMeters>89735.65267209</DistanceMeters>
          </Trackpoint>
          <Trackpoint>
            <Time>2022-04-23T14:19:39.000Z</Time>
            <Position>
              <LatitudeDegrees>41.64278986863791942596435546875</LatitudeDegrees>
              <LongitudeDegrees>-0.1894006691873073577880859375</LongitudeDegrees>
            </Position>
            <AltitudeMeters>452.79998779296875</AltitudeMeters>
            <DistanceMeters>89762.564197334</DistanceMeters>
          </Trackpoint>
          <Trackpoint>
            <Time>2022-04-23T14:19:46.000Z</Time>
            <Position>
              <LatitudeDegrees>41.64318633265793323516845703125</LatitudeDegrees>
              <LongitudeDegrees>-0.18885324709117412567138671875</LongitudeDegrees>
            </Position>
            <AltitudeMeters>452.79998779296875</AltitudeMeters>
            <DistanceMeters>89825.970874858</DistanceMeters>
          </Trackpoint>
          <Trackpoint>
            <Time>2022-04-23T14:19:47.000Z</Time>
            <Position>
              <LatitudeDegrees>41.64318633265793323516845703125</LatitudeDegrees>
              <LongitudeDegrees>-0.18885324709117412567138671875</LongitudeDegrees>
            </Position>
            <AltitudeMeters>452.79998779296875</AltitudeMeters>
            <DistanceMeters>89826.065901573</DistanceMeters>
          </Trackpoint>
          <Trackpoint>
            <Time>2022-04-23T14:19:53.000Z</Time>
            <Position>
              <LatitudeDegrees>41.64355128072202205657958984375</LatitudeDegrees>
              <LongitudeDegrees>-0.18826131708920001983642578125</LongitudeDegrees>
            </Position>
            <AltitudeMeters>452.600006103515625</AltitudeMeters>
            <DistanceMeters>89889.89330202</DistanceMeters>
          </Trackpoint>
          <Trackpoint>
            <Time>2022-04-23T14:19:54.000Z</Time>
            <Position>
              <LatitudeDegrees>41.6436028294265270233154296875</LatitudeDegrees>
              <LongitudeDegrees>-0.188174061477184295654296875</LongitudeDegrees>
            </Position>
            <AltitudeMeters>452.600006103515625</AltitudeMeters>
            <DistanceMeters>89899.144629738</DistanceMeters>
          </Trackpoint>
          <Trackpoint>
            <Time>2022-04-23T14:20:01.000Z</Time>
            <Position>
              <LatitudeDegrees>41.64396249689161777496337890625</LatitudeDegrees>
              <LongitudeDegrees>-0.1875797845423221588134765625</LongitudeDegrees>
            </Position>
            <AltitudeMeters>452.399993896484375</AltitudeMeters>
            <DistanceMeters>89962.750943963</DistanceMeters>
          </Trackpoint>
          <Trackpoint>
            <Time>2022-04-23T14:20:03.000Z</Time>
            <Position>
              <LatitudeDegrees>41.64400893263518810272216796875</LatitudeDegrees>
              <LongitudeDegrees>-0.18749034963548183441162109375</LongitudeDegrees>
            </Position>
            <AltitudeMeters>452.399993896484375</AltitudeMeters>
            <DistanceMeters>89971.80993589</DistanceMeters>
          </Trackpoint>
          <Trackpoint>
            <Time>2022-04-23T14:20:08.000Z</Time>
            <Position>
              <LatitudeDegrees>41.64422585628926753997802734375</LatitudeDegrees>
              <LongitudeDegrees>-0.18690504133701324462890625</LongitudeDegrees>
            </Position>
            <AltitudeMeters>451.600006103515625</AltitudeMeters>
            <DistanceMeters>90026.150927398</DistanceMeters>
          </Trackpoint>
          <Trackpoint>
            <Time>2022-04-23T14:20:11.000Z</Time>
            <Position>
              <LatitudeDegrees>41.64430263452231884002685546875</LatitudeDegrees>
              <LongitudeDegrees>-0.18659348599612712860107421875</LongitudeDegrees>
            </Position>
            <AltitudeMeters>451.399993896484375</AltitudeMeters>
            <DistanceMeters>90053.43700082</DistanceMeters>
          </Trackpoint>
          <Trackpoint>
            <Time>2022-04-23T14:20:17.000Z</Time>
            <Position>
              <LatitudeDegrees>41.6444584541022777557373046875</LatitudeDegrees>
              <LongitudeDegrees>-0.18597154878079891204833984375</LongitudeDegrees>
            </Position>
            <AltitudeMeters>451.600006103515625</AltitudeMeters>
            <DistanceMeters>90107.99599118</DistanceMeters>
          </Trackpoint>
          <Trackpoint>
            <Time>2022-04-23T14:20:24.000Z</Time>
            <Position>
              <LatitudeDegrees>41.64473128505051136016845703125</LatitudeDegrees>
              <LongitudeDegrees>-0.18528406508266925811767578125</LongitudeDegrees>
            </Position>
            <AltitudeMeters>452</AltitudeMeters>
            <DistanceMeters>90172.739805443</DistanceMeters>
          </Trackpoint>
          <Trackpoint>
            <Time>2022-04-23T14:20:29.000Z</Time>
            <Position>
              <LatitudeDegrees>41.6449979133903980255126953125</LatitudeDegrees>
              <LongitudeDegrees>-0.18486983142793178558349609375</LongitudeDegrees>
            </Position>
            <AltitudeMeters>452.20001220703125</AltitudeMeters>
            <DistanceMeters>90218.21195004</DistanceMeters>
          </Trackpoint>
          <Trackpoint>
            <Time>2022-04-23T14:20:30.000Z</Time>
            <Position>
              <LatitudeDegrees>41.6449979133903980255126953125</LatitudeDegrees>
              <LongitudeDegrees>-0.18486983142793178558349609375</LongitudeDegrees>
            </Position>
            <AltitudeMeters>452.600006103515625</AltitudeMeters>
            <DistanceMeters>90218.21195004</DistanceMeters>
          </Trackpoint>
          <Trackpoint>
            <Time>2022-04-23T14:20:31.000Z</Time>
            <Position>
              <LatitudeDegrees>41.64510830305516719818115234375</LatitudeDegrees>
              <LongitudeDegrees>-0.18470889888703823089599609375</LongitudeDegrees>
            </Position>
            <AltitudeMeters>452.79998779296875</AltitudeMeters>
            <DistanceMeters>90236.381196987</DistanceMeters>
          </Trackpoint>
          <Trackpoint>
            <Time>2022-04-23T14:20:34.000Z</Time>
            <Position>
              <LatitudeDegrees>41.6452364623546600341796875</LatitudeDegrees>
              <LongitudeDegrees>-0.1844462938606739044189453125</LongitudeDegrees>
            </Position>
            <AltitudeMeters>453.20001220703125</AltitudeMeters>
            <DistanceMeters>90262.468063817</DistanceMeters>
          </Trackpoint>
          <Trackpoint>
            <Time>2022-04-23T14:20:36.000Z</Time>
            <Position>
              <LatitudeDegrees>41.6452929563820362091064453125</LatitudeDegrees>
              <LongitudeDegrees>-0.1842702738940715789794921875</LongitudeDegrees>
            </Position>
            <AltitudeMeters>454</AltitudeMeters>
            <DistanceMeters>90278.401411523</DistanceMeters>
          </Trackpoint>
          <Trackpoint>
            <Time>2022-04-23T14:20:39.000Z</Time>
            <Position>
              <LatitudeDegrees>41.64535858668386936187744140625</LatitudeDegrees>
              <LongitudeDegrees>-0.18401470966637134552001953125</LongitudeDegrees>
            </Position>
            <AltitudeMeters>454.600006103515625</AltitudeMeters>
            <DistanceMeters>90300.877790828</DistanceMeters>
          </Trackpoint>
          <Trackpoint>
            <Time>2022-04-23T14:20:41.000Z</Time>
            <Position>
              <LatitudeDegrees>41.6454009152948856353759765625</LatitudeDegrees>
              <LongitudeDegrees>-0.183846317231655120849609375</LongitudeDegrees>
            </Position>
            <AltitudeMeters>455.20001220703125</AltitudeMeters>
            <DistanceMeters>90315.654979619</DistanceMeters>
          </Trackpoint>
          <Trackpoint>
            <Time>2022-04-23T14:20:46.000Z</Time>
            <Position>
              <LatitudeDegrees>41.64552136324346065521240234375</LatitudeDegrees>
              <LongitudeDegrees>-0.1834498532116413116455078125</LongitudeDegrees>
            </Position>
            <AltitudeMeters>456.20001220703125</AltitudeMeters>
            <DistanceMeters>90351.250951813</DistanceMeters>
          </Trackpoint>
          <Trackpoint>
            <Time>2022-04-23T14:20:49.000Z</Time>
            <Position>
              <LatitudeDegrees>41.6456141509115695953369140625</LatitudeDegrees>
              <LongitudeDegrees>-0.1832295767962932586669921875</LongitudeDegrees>
            </Position>
            <AltitudeMeters>457.20001220703125</AltitudeMeters>
            <DistanceMeters>90372.282147793</DistanceMeters>
          </Trackpoint>
          <Trackpoint>
            <Time>2022-04-23T14:20:50.000Z</Time>
            <Position>
              <LatitudeDegrees>41.64565564133226871490478515625</LatitudeDegrees>
              <LongitudeDegrees>-0.1831611804664134979248046875</LongitudeDegrees>
            </Position>
            <AltitudeMeters>457.600006103515625</AltitudeMeters>
            <DistanceMeters>90379.609687253</DistanceMeters>
          </Trackpoint>
          <Trackpoint>
            <Time>2022-04-23T14:20:51.000Z</Time>
            <Position>
              <LatitudeDegrees>41.64570392109453678131103515625</LatitudeDegrees>
              <LongitudeDegrees>-0.1831011660397052764892578125</LongitudeDegrees>
            </Position>
            <AltitudeMeters>457.79998779296875</AltitudeMeters>
            <DistanceMeters>90386.943385863</DistanceMeters>
          </Trackpoint>
          <Trackpoint>
            <Time>2022-04-23T14:20:54.000Z</Time>
            <Position>
              <LatitudeDegrees>41.64586585946381092071533203125</LatitudeDegrees>
              <LongitudeDegrees>-0.18294702284038066864013671875</LongitudeDegrees>
            </Position>
            <AltitudeMeters>458.79998779296875</AltitudeMeters>
            <DistanceMeters>90409.061963611</DistanceMeters>
          </Trackpoint>
          <Trackpoint>
            <Time>2022-04-23T14:20:58.000Z</Time>
            <Position>
              <LatitudeDegrees>41.64607800543308258056640625</LatitudeDegrees>
              <LongitudeDegrees>-0.182730853557586669921875</LongitudeDegrees>
            </Position>
            <AltitudeMeters>459.399993896484375</AltitudeMeters>
            <DistanceMeters>90438.740283752</DistanceMeters>
          </Trackpoint>
          <Trackpoint>
            <Time>2022-04-23T14:21:03.000Z</Time>
            <Position>
              <LatitudeDegrees>41.64633692242205142974853515625</LatitudeDegrees>
              <LongitudeDegrees>-0.18245567567646503448486328125</LongitudeDegrees>
            </Position>
            <AltitudeMeters>459.79998779296875</AltitudeMeters>
            <DistanceMeters>90475.541027559</DistanceMeters>
          </Trackpoint>
          <Trackpoint>
            <Time>2022-04-23T14:21:08.000Z</Time>
            <Position>
              <LatitudeDegrees>41.6465988568961620330810546875</LatitudeDegrees>
              <LongitudeDegrees>-0.1821979321539402008056640625</LongitudeDegrees>
            </Position>
            <AltitudeMeters>460.600006103515625</AltitudeMeters>
            <DistanceMeters>90511.727869166</DistanceMeters>
          </Trackpoint>
          <Trackpoint>
            <Time>2022-04-23T14:21:10.000Z</Time>
            <Position>
              <LatitudeDegrees>41.6467051394283771514892578125</LatitudeDegrees>
              <LongitudeDegrees>-0.18209307454526424407958984375</LongitudeDegrees>
            </Position>
            <AltitudeMeters>461</AltitudeMeters>
            <DistanceMeters>90526.424788181</DistanceMeters>
          </Trackpoint>
          <Trackpoint>
            <Time>2022-04-23T14:21:16.000Z</Time>
            <Position>
              <LatitudeDegrees>41.6470420919358730316162109375</LatitudeDegrees>
              <LongitudeDegrees>-0.18181211315095424652099609375</LongitudeDegrees>
            </Position>
            <AltitudeMeters>461.600006103515625</AltitudeMeters>
            <DistanceMeters>90570.612619078</DistanceMeters>
          </Trackpoint>
          <Trackpoint>
            <Time>2022-04-23T14:21:18.000Z</Time>
            <Position>
              <LatitudeDegrees>41.647161282598972320556640625</LatitudeDegrees>
              <LongitudeDegrees>-0.18173885531723499298095703125</LongitudeDegrees>
            </Position>
            <AltitudeMeters>461.600006103515625</AltitudeMeters>
            <DistanceMeters>90585.210899939</DistanceMeters>
          </Trackpoint>
          <Trackpoint>
            <Time>2022-04-23T14:21:22.000Z</Time>
            <Position>
              <LatitudeDegrees>41.6474108956754207611083984375</LatitudeDegrees>
              <LongitudeDegrees>-0.18164279870688915252685546875</LongitudeDegrees>
            </Position>
            <AltitudeMeters>462</AltitudeMeters>
            <DistanceMeters>90614.119175994</DistanceMeters>
          </Trackpoint>
          <Trackpoint>
            <Time>2022-04-23T14:21:30.000Z</Time>
            <Position>
              <LatitudeDegrees>41.647923700511455535888671875</LatitudeDegrees>
              <LongitudeDegrees>-0.181494690477848052978515625</LongitudeDegrees>
            </Position>
            <AltitudeMeters>462.399993896484375</AltitudeMeters>
            <DistanceMeters>90672.509515799</DistanceMeters>
          </Trackpoint>
          <Trackpoint>
            <Time>2022-04-23T14:21:31.000Z</Time>
            <Position>
              <LatitudeDegrees>41.6479830443859100341796875</LatitudeDegrees>
              <LongitudeDegrees>-0.18146778456866741180419921875</LongitudeDegrees>
            </Position>
            <AltitudeMeters>462.600006103515625</AltitudeMeters>
            <DistanceMeters>90679.48346674</DistanceMeters>
          </Trackpoint>
          <Trackpoint>
            <Time>2022-04-23T14:21:35.000Z</Time>
            <Position>
              <LatitudeDegrees>41.64820692501962184906005859375</LatitudeDegrees>
              <LongitudeDegrees>-0.18131129443645477294921875</LongitudeDegrees>
            </Position>
            <AltitudeMeters>462.79998779296875</AltitudeMeters>
            <DistanceMeters>90707.595960233</DistanceMeters>
          </Trackpoint>
          <Trackpoint>
            <Time>2022-04-23T14:21:42.000Z</Time>
            <Position>
              <LatitudeDegrees>41.64855661801993846893310546875</LatitudeDegrees>
              <LongitudeDegrees>-0.18096084706485271453857421875</LongitudeDegrees>
            </Position>
            <AltitudeMeters>462.79998779296875</AltitudeMeters>
            <DistanceMeters>90756.221047336</DistanceMeters>
          </Trackpoint>
          <Trackpoint>
            <Time>2022-04-23T14:21:43.000Z</Time>
            <Position>
              <LatitudeDegrees>41.64859584532678127288818359375</LatitudeDegrees>
              <LongitudeDegrees>-0.18091005273163318634033203125</LongitudeDegrees>
            </Position>
            <AltitudeMeters>462.79998779296875</AltitudeMeters>
            <DistanceMeters>90762.296814983</DistanceMeters>
          </Trackpoint>
          <Trackpoint>
            <Time>2022-04-23T14:21:51.000Z</Time>
            <Position>
              <LatitudeDegrees>41.648893319070339202880859375</LatitudeDegrees>
              <LongitudeDegrees>-0.1805269159376621246337890625</LongitudeDegrees>
            </Position>
            <AltitudeMeters>462.600006103515625</AltitudeMeters>
            <DistanceMeters>90808.249085175</DistanceMeters>
          </Trackpoint>
          <Trackpoint>
            <Time>2022-04-23T14:21:59.000Z</Time>
            <Position>
              <LatitudeDegrees>41.6493028588593006134033203125</LatitudeDegrees>
              <LongitudeDegrees>-0.1799931563436985015869140625</LongitudeDegrees>
            </Position>
            <AltitudeMeters>462.600006103515625</AltitudeMeters>
            <DistanceMeters>90871.876123388</DistanceMeters>
          </Trackpoint>
          <Trackpoint>
            <Time>2022-04-23T14:22:01.000Z</Time>
            <Position>
              <LatitudeDegrees>41.6493970714509487152099609375</LatitudeDegrees>
              <LongitudeDegrees>-0.17988561652600765228271484375</LongitudeDegrees>
            </Position>
            <AltitudeMeters>462.600006103515625</AltitudeMeters>
            <DistanceMeters>90885.657945761</DistanceMeters>
          </Trackpoint>
          <Trackpoint>
            <Time>2022-04-23T14:22:03.000Z</Time>
            <Position>
              <LatitudeDegrees>41.649483405053615570068359375</LatitudeDegrees>
              <LongitudeDegrees>-0.17977748997509479522705078125</LongitudeDegrees>
            </Position>
            <AltitudeMeters>462.600006103515625</AltitudeMeters>
            <DistanceMeters>90898.818373801</DistanceMeters>
          </Trackpoint>
          <Trackpoint>
            <Time>2022-04-23T14:22:05.000Z</Time>
            <Position>
              <LatitudeDegrees>41.6495271585881710052490234375</LatitudeDegrees>
              <LongitudeDegrees>-0.1797316409647464752197265625</LongitudeDegrees>
            </Position>
            <AltitudeMeters>462.600006103515625</AltitudeMeters>
            <DistanceMeters>90905.00314573</DistanceMeters>
          </Trackpoint>
          <Trackpoint>
            <Time>2022-04-23T14:22:11.000Z</Time>
            <Position>
              <LatitudeDegrees>41.64982396177947521209716796875</LatitudeDegrees>
              <LongitudeDegrees>-0.1794070936739444732666015625</LongitudeDegrees>
            </Position>
            <AltitudeMeters>463.20001220703125</AltitudeMeters>
            <DistanceMeters>90947.663049927</DistanceMeters>
          </Trackpoint>
          <Trackpoint>
            <Time>2022-04-23T14:22:13.000Z</Time>
            <Position>
              <LatitudeDegrees>41.649911217391490936279296875</LatitudeDegrees>
              <LongitudeDegrees>-0.179308354854583740234375</LongitudeDegrees>
            </Position>
            <AltitudeMeters>463.600006103515625</AltitudeMeters>
            <DistanceMeters>90960.381018682</DistanceMeters>
          </Trackpoint>
          <Trackpoint>
            <Time>2022-04-23T14:22:20.000Z</Time>
            <Position>
              <LatitudeDegrees>41.65021087042987346649169921875</LatitudeDegrees>
              <LongitudeDegrees>-0.17893997021019458770751953125</LongitudeDegrees>
            </Position>
            <AltitudeMeters>464.20001220703125</AltitudeMeters>
            <DistanceMeters>91005.66900012</DistanceMeters>
          </Trackpoint>
          <Trackpoint>
            <Time>2022-04-23T14:22:21.000Z</Time>
            <Position>
              <LatitudeDegrees>41.65025311522185802459716796875</LatitudeDegrees>
              <LongitudeDegrees>-0.1788817159831523895263671875</LongitudeDegrees>
            </Position>
            <AltitudeMeters>464.20001220703125</AltitudeMeters>
            <DistanceMeters>91012.420579631</DistanceMeters>
          </Trackpoint>
          <Trackpoint>
            <Time>2022-04-23T14:22:28.000Z</Time>
            <Position>
              <LatitudeDegrees>41.650560982525348663330078125</LatitudeDegrees>
              <LongitudeDegrees>-0.17842523753643035888671875</LongitudeDegrees>
            </Position>
            <AltitudeMeters>465.20001220703125</AltitudeMeters>
            <DistanceMeters>91063.561640733</DistanceMeters>
          </Trackpoint>
          <Trackpoint>
            <Time>2022-04-23T14:22:36.000Z</Time>
            <Position>
              <LatitudeDegrees>41.6509326361119747161865234375</LatitudeDegrees>
              <LongitudeDegrees>-0.17785920761525630950927734375</LongitudeDegrees>
            </Position>
            <AltitudeMeters>465.79998779296875</AltitudeMeters>
            <DistanceMeters>91126.228426713</DistanceMeters>
          </Trackpoint>
          <Trackpoint>
            <Time>2022-04-23T14:22:40.000Z</Time>
            <Position>
              <LatitudeDegrees>41.6511133499443531036376953125</LatitudeDegrees>
              <LongitudeDegrees>-0.1775677688419818878173828125</LongitudeDegrees>
            </Position>
            <AltitudeMeters>466.20001220703125</AltitudeMeters>
            <DistanceMeters>91157.724873147</DistanceMeters>
          </Trackpoint>
          <Trackpoint>
            <Time>2022-04-23T14:22:45.000Z</Time>
            <Position>
              <LatitudeDegrees>41.65134276263415813446044921875</LatitudeDegrees>
              <LongitudeDegrees>-0.17720927484333515167236328125</LongitudeDegrees>
            </Position>
            <AltitudeMeters>466.399993896484375</AltitudeMeters>
            <DistanceMeters>91196.978728425</DistanceMeters>
          </Trackpoint>
          <Trackpoint>
            <Time>2022-04-23T14:22:54.000Z</Time>
            <Position>
              <LatitudeDegrees>41.65172078646719455718994140625</LatitudeDegrees>
              <LongitudeDegrees>-0.17659454606473445892333984375</LongitudeDegrees>
            </Position>
            <AltitudeMeters>467</AltitudeMeters>
            <DistanceMeters>91263.19005353</DistanceMeters>
          </Trackpoint>
          <Trackpoint>
            <Time>2022-04-23T14:22:55.000Z</Time>
            <Position>
              <LatitudeDegrees>41.65172078646719455718994140625</LatitudeDegrees>
              <LongitudeDegrees>-0.17659454606473445892333984375</LongitudeDegrees>
            </Position>
            <AltitudeMeters>467.20001220703125</AltitudeMeters>
            <DistanceMeters>91263.19005353</DistanceMeters>
          </Trackpoint>
          <Trackpoint>
            <Time>2022-04-23T14:22:56.000Z</Time>
            <Position>
              <LatitudeDegrees>41.65180896408855915069580078125</LatitudeDegrees>
              <LongitudeDegrees>-0.17645993269979953765869140625</LongitudeDegrees>
            </Position>
            <AltitudeMeters>467.399993896484375</AltitudeMeters>
            <DistanceMeters>91278.078043871</DistanceMeters>
          </Trackpoint>
          <Trackpoint>
            <Time>2022-04-23T14:23:03.000Z</Time>
            <Position>
              <LatitudeDegrees>41.6521232016384601593017578125</LatitudeDegrees>
              <LongitudeDegrees>-0.17599171958863735198974609375</LongitudeDegrees>
            </Position>
            <AltitudeMeters>468.20001220703125</AltitudeMeters>
            <DistanceMeters>91330.418099097</DistanceMeters>
          </Trackpoint>
          <Trackpoint>
            <Time>2022-04-23T14:23:06.000Z</Time>
            <Position>
              <LatitudeDegrees>41.65225169621407985687255859375</LatitudeDegrees>
              <LongitudeDegrees>-0.17579591833055019378662109375</LongitudeDegrees>
            </Position>
            <AltitudeMeters>468.600006103515625</AltitudeMeters>
            <DistanceMeters>91352.09064916</DistanceMeters>
          </Trackpoint>
          <Trackpoint>
            <Time>2022-04-23T14:23:10.000Z</Time>
            <Position>
              <LatitudeDegrees>41.65240223519504070281982421875</LatitudeDegrees>
              <LongitudeDegrees>-0.1754982769489288330078125</LongitudeDegrees>
            </Position>
            <AltitudeMeters>469</AltitudeMeters>
            <DistanceMeters>91381.981044999</DistanceMeters>
          </Trackpoint>
          <Trackpoint>
            <Time>2022-04-23T14:23:11.000Z</Time>
            <Position>
              <LatitudeDegrees>41.65243349969387054443359375</LatitudeDegrees>
              <LongitudeDegrees>-0.1754099316895008087158203125</LongitudeDegrees>
            </Position>
            <AltitudeMeters>469</AltitudeMeters>
            <DistanceMeters>91390.110690101</DistanceMeters>
          </Trackpoint>
          <Trackpoint>
            <Time>2022-04-23T14:23:14.000Z</Time>
            <Position>
              <LatitudeDegrees>41.6525221802294254302978515625</LatitudeDegrees>
              <LongitudeDegrees>-0.17510994337499141693115234375</LongitudeDegrees>
            </Position>
            <AltitudeMeters>469</AltitudeMeters>
            <DistanceMeters>91416.940385286</DistanceMeters>
          </Trackpoint>
          <Trackpoint>
            <Time>2022-04-23T14:23:20.000Z</Time>
            <Position>
              <LatitudeDegrees>41.6526495851576328277587890625</LatitudeDegrees>
              <LongitudeDegrees>-0.1745569892227649688720703125</LongitudeDegrees>
            </Position>
            <AltitudeMeters>467.79998779296875</AltitudeMeters>
            <DistanceMeters>91465.062855445</DistanceMeters>
          </Trackpoint>
          <Trackpoint>
            <Time>2022-04-23T14:23:21.000Z</Time>
            <Position>
              <LatitudeDegrees>41.6526713781058788299560546875</LatitudeDegrees>
              <LongitudeDegrees>-0.1743179373443126678466796875</LongitudeDegrees>
            </Position>
            <AltitudeMeters>467.79998779296875</AltitudeMeters>
            <DistanceMeters>91485.090735903</DistanceMeters>
          </Trackpoint>
          <Trackpoint>
            <Time>2022-04-23T14:23:22.000Z</Time>
            <Position>
              <LatitudeDegrees>41.65267649106681346893310546875</LatitudeDegrees>
              <LongitudeDegrees>-0.1741948910057544708251953125</LongitudeDegrees>
            </Position>
            <AltitudeMeters>467.600006103515625</AltitudeMeters>
            <DistanceMeters>91495.339533354</DistanceMeters>
          </Trackpoint>
          <Trackpoint>
            <Time>2022-04-23T14:23:24.000Z</Time>
            <Position>
              <LatitudeDegrees>41.6526777483522891998291015625</LatitudeDegrees>
              <LongitudeDegrees>-0.17394871450960636138916015625</LongitudeDegrees>
            </Position>
            <AltitudeMeters>467.20001220703125</AltitudeMeters>
            <DistanceMeters>91515.812884041</DistanceMeters>
          </Trackpoint>
          <Trackpoint>
            <Time>2022-04-23T14:23:27.000Z</Time>
            <Position>
              <LatitudeDegrees>41.65268101729452610015869140625</LatitudeDegrees>
              <LongitudeDegrees>-0.17357169650495052337646484375</LongitudeDegrees>
            </Position>
            <AltitudeMeters>466.399993896484375</AltitudeMeters>
            <DistanceMeters>91547.169108039</DistanceMeters>
          </Trackpoint>
          <Trackpoint>
            <Time>2022-04-23T14:23:32.000Z</Time>
            <Position>
              <LatitudeDegrees>41.65269576944410800933837890625</LatitudeDegrees>
              <LongitudeDegrees>-0.1729402877390384674072265625</LongitudeDegrees>
            </Position>
            <AltitudeMeters>466</AltitudeMeters>
            <DistanceMeters>91599.70496032</DistanceMeters>
          </Trackpoint>
          <Trackpoint>
            <Time>2022-04-23T14:23:35.000Z</Time>
            <Position>
              <LatitudeDegrees>41.6528175584971904754638671875</LatitudeDegrees>
              <LongitudeDegrees>-0.1726050116121768951416015625</LongitudeDegrees>
            </Position>
            <AltitudeMeters>465.600006103515625</AltitudeMeters>
            <DistanceMeters>91630.708144946</DistanceMeters>
          </Trackpoint>
          <Trackpoint>
            <Time>2022-04-23T14:23:36.000Z</Time>
            <Position>
              <LatitudeDegrees>41.6528933309018611907958984375</LatitudeDegrees>
              <LongitudeDegrees>-0.17251658253371715545654296875</LongitudeDegrees>
            </Position>
            <AltitudeMeters>465.399993896484375</AltitudeMeters>
            <DistanceMeters>91641.897918848</DistanceMeters>
          </Trackpoint>
          <Trackpoint>
            <Time>2022-04-23T14:23:37.000Z</Time>
            <Position>
              <LatitudeDegrees>41.65297924540936946868896484375</LatitudeDegrees>
              <LongitudeDegrees>-0.17244793474674224853515625</LongitudeDegrees>
            </Position>
            <AltitudeMeters>465.399993896484375</AltitudeMeters>
            <DistanceMeters>91653.034303804</DistanceMeters>
          </Trackpoint>
          <Trackpoint>
            <Time>2022-04-23T14:23:38.000Z</Time>
            <Position>
              <LatitudeDegrees>41.65307127870619297027587890625</LatitudeDegrees>
              <LongitudeDegrees>-0.172391273081302642822265625</LongitudeDegrees>
            </Position>
            <AltitudeMeters>465.20001220703125</AltitudeMeters>
            <DistanceMeters>91664.309694984</DistanceMeters>
          </Trackpoint>
          <Trackpoint>
            <Time>2022-04-23T14:23:40.000Z</Time>
            <Position>
              <LatitudeDegrees>41.653261296451091766357421875</LatitudeDegrees>
              <LongitudeDegrees>-0.17228507436811923980712890625</LongitudeDegrees>
            </Position>
            <AltitudeMeters>465</AltitudeMeters>
            <DistanceMeters>91687.229066853</DistanceMeters>
          </Trackpoint>
          <Trackpoint>
            <Time>2022-04-23T14:23:42.000Z</Time>
            <Position>
              <LatitudeDegrees>41.65343589149415493011474609375</LatitudeDegrees>
              <LongitudeDegrees>-0.1721362955868244171142578125</LongitudeDegrees>
            </Position>
            <AltitudeMeters>464.79998779296875</AltitudeMeters>
            <DistanceMeters>91710.266333461</DistanceMeters>
          </Trackpoint>
          <Trackpoint>
            <Time>2022-04-23T14:23:44.000Z</Time>
            <Position>
              <LatitudeDegrees>41.65356405079364776611328125</LatitudeDegrees>
              <LongitudeDegrees>-0.1719153486192226409912109375</LongitudeDegrees>
            </Position>
            <AltitudeMeters>464.600006103515625</AltitudeMeters>
            <DistanceMeters>91733.527894902</DistanceMeters>
          </Trackpoint>
          <Trackpoint>
            <Time>2022-04-23T14:23:45.000Z</Time>
            <Position>
              <LatitudeDegrees>41.653607971966266632080078125</LatitudeDegrees>
              <LongitudeDegrees>-0.17178366892039775848388671875</LongitudeDegrees>
            </Position>
            <AltitudeMeters>464.399993896484375</AltitudeMeters>
            <DistanceMeters>91745.520100598</DistanceMeters>
          </Trackpoint>
          <Trackpoint>
            <Time>2022-04-23T14:23:48.000Z</Time>
            <Position>
              <LatitudeDegrees>41.65369053371250629425048828125</LatitudeDegrees>
              <LongitudeDegrees>-0.171369351446628570556640625</LongitudeDegrees>
            </Position>
            <AltitudeMeters>462.79998779296875</AltitudeMeters>
            <DistanceMeters>91781.180070101</DistanceMeters>
          </Trackpoint>
          <Trackpoint>
            <Time>2022-04-23T14:23:49.000Z</Time>
            <Position>
              <LatitudeDegrees>41.6537197865545749664306640625</LatitudeDegrees>
              <LongitudeDegrees>-0.1712344028055667877197265625</LongitudeDegrees>
            </Position>
            <AltitudeMeters>462</AltitudeMeters>
            <DistanceMeters>91792.864878865</DistanceMeters>
          </Trackpoint>
          <Trackpoint>
            <Time>2022-04-23T14:23:50.000Z</Time>
            <Position>
              <LatitudeDegrees>41.65375557728111743927001953125</LatitudeDegrees>
              <LongitudeDegrees>-0.17110087908804416656494140625</LongitudeDegrees>
            </Position>
            <AltitudeMeters>461.600006103515625</AltitudeMeters>
            <DistanceMeters>91804.661977582</DistanceMeters>
          </Trackpoint>
          <Trackpoint>
            <Time>2022-04-23T14:23:54.000Z</Time>
            <Position>
              <LatitudeDegrees>41.65394618175923824310302734375</LatitudeDegrees>
              <LongitudeDegrees>-0.170585475862026214599609375</LongitudeDegrees>
            </Position>
            <AltitudeMeters>460.20001220703125</AltitudeMeters>
            <DistanceMeters>91852.486667568</DistanceMeters>
          </Trackpoint>
          <Trackpoint>
            <Time>2022-04-23T14:23:59.000Z</Time>
            <Position>
              <LatitudeDegrees>41.65414743125438690185546875</LatitudeDegrees>
              <LongitudeDegrees>-0.16992640681564807891845703125</LongitudeDegrees>
            </Position>
            <AltitudeMeters>459.399993896484375</AltitudeMeters>
            <DistanceMeters>91911.696470459</DistanceMeters>
          </Trackpoint>
          <Trackpoint>
            <Time>2022-04-23T14:24:03.000Z</Time>
            <Position>
              <LatitudeDegrees>41.65418473072350025177001953125</LatitudeDegrees>
              <LongitudeDegrees>-0.1694963313639163970947265625</LongitudeDegrees>
            </Position>
            <AltitudeMeters>459.399993896484375</AltitudeMeters>
            <DistanceMeters>91947.702316996</DistanceMeters>
          </Trackpoint>
          <Trackpoint>
            <Time>2022-04-23T14:24:05.000Z</Time>
            <Position>
              <LatitudeDegrees>41.6541938669979572296142578125</LatitudeDegrees>
              <LongitudeDegrees>-0.1690758951008319854736328125</LongitudeDegrees>
            </Position>
            <AltitudeMeters>459.399993896484375</AltitudeMeters>
            <DistanceMeters>91982.681184583</DistanceMeters>
          </Trackpoint>
          <Trackpoint>
            <Time>2022-04-23T14:24:07.000Z</Time>
            <Position>
              <LatitudeDegrees>41.6542379558086395263671875</LatitudeDegrees>
              <LongitudeDegrees>-0.16881848685443401336669921875</LongitudeDegrees>
            </Position>
            <AltitudeMeters>459.20001220703125</AltitudeMeters>
            <DistanceMeters>92004.642843059</DistanceMeters>
          </Trackpoint>
          <Trackpoint>
            <Time>2022-04-23T14:24:08.000Z</Time>
            <Position>
              <LatitudeDegrees>41.654277853667736053466796875</LatitudeDegrees>
              <LongitudeDegrees>-0.168701224029064178466796875</LongitudeDegrees>
            </Position>
            <AltitudeMeters>459.20001220703125</AltitudeMeters>
            <DistanceMeters>92015.358553585</DistanceMeters>
          </Trackpoint>
          <Trackpoint>
            <Time>2022-04-23T14:24:09.000Z</Time>
            <Position>
              <LatitudeDegrees>41.65432889945805072784423828125</LatitudeDegrees>
              <LongitudeDegrees>-0.16859066672623157501220703125</LongitudeDegrees>
            </Position>
            <AltitudeMeters>459.20001220703125</AltitudeMeters>
            <DistanceMeters>92026.166563063</DistanceMeters>
          </Trackpoint>
          <Trackpoint>
            <Time>2022-04-23T14:24:11.000Z</Time>
            <Position>
              <LatitudeDegrees>41.65444255806505680084228515625</LatitudeDegrees>
              <LongitudeDegrees>-0.16838564537465572357177734375</LongitudeDegrees>
            </Position>
            <AltitudeMeters>459.399993896484375</AltitudeMeters>
            <DistanceMeters>92047.396900686</DistanceMeters>
          </Trackpoint>
          <Trackpoint>
            <Time>2022-04-23T14:24:16.000Z</Time>
            <Position>
              <LatitudeDegrees>41.654732488095760345458984375</LatitudeDegrees>
              <LongitudeDegrees>-0.16791768372058868408203125</LongitudeDegrees>
            </Position>
            <AltitudeMeters>459.600006103515625</AltitudeMeters>
            <DistanceMeters>92097.951827213</DistanceMeters>
          </Trackpoint>
          <Trackpoint>
            <Time>2022-04-23T14:24:18.000Z</Time>
            <Position>
              <LatitudeDegrees>41.6548441350460052490234375</LatitudeDegrees>
              <LongitudeDegrees>-0.16774962656199932098388671875</LongitudeDegrees>
            </Position>
            <AltitudeMeters>460.79998779296875</AltitudeMeters>
            <DistanceMeters>92116.653268087</DistanceMeters>
          </Trackpoint>
          <Trackpoint>
            <Time>2022-04-23T14:24:21.000Z</Time>
            <Position>
              <LatitudeDegrees>41.65495620109140872955322265625</LatitudeDegrees>
              <LongitudeDegrees>-0.16759959049522876739501953125</LongitudeDegrees>
            </Position>
            <AltitudeMeters>461.600006103515625</AltitudeMeters>
            <DistanceMeters>92134.296021132</DistanceMeters>
          </Trackpoint>
          <Trackpoint>
            <Time>2022-04-23T14:24:22.000Z</Time>
            <Position>
              <LatitudeDegrees>41.655070446431636810302734375</LatitudeDegrees>
              <LongitudeDegrees>-0.16745927743613719940185546875</LongitudeDegrees>
            </Position>
            <AltitudeMeters>462</AltitudeMeters>
            <DistanceMeters>92151.554295711</DistanceMeters>
          </Trackpoint>
          <Trackpoint>
            <Time>2022-04-23T14:24:28.000Z</Time>
            <Position>
              <LatitudeDegrees>41.6553981788456439971923828125</LatitudeDegrees>
              <LongitudeDegrees>-0.16704755835235118865966796875</LongitudeDegrees>
            </Position>
            <AltitudeMeters>463</AltitudeMeters>
            <DistanceMeters>92201.58295038</DistanceMeters>
          </Trackpoint>
          <Trackpoint>
            <Time>2022-04-23T14:24:29.000Z</Time>
            <Position>
              <LatitudeDegrees>41.65545324794948101043701171875</LatitudeDegrees>
              <LongitudeDegrees>-0.16699022613465785980224609375</LongitudeDegrees>
            </Position>
            <AltitudeMeters>463.20001220703125</AltitudeMeters>
            <DistanceMeters>92209.347859936</DistanceMeters>
          </Trackpoint>
          <Trackpoint>
            <Time>2022-04-23T14:24:31.000Z</Time>
            <Position>
              <LatitudeDegrees>41.65557227097451686859130859375</LatitudeDegrees>
              <LongitudeDegrees>-0.16690808348357677459716796875</LongitudeDegrees>
            </Position>
            <AltitudeMeters>463.20001220703125</AltitudeMeters>
            <DistanceMeters>92224.252823561</DistanceMeters>
          </Trackpoint>
          <Trackpoint>
            <Time>2022-04-23T14:24:33.000Z</Time>
            <Position>
              <LatitudeDegrees>41.65571208111941814422607421875</LatitudeDegrees>
              <LongitudeDegrees>-0.16686215065419673919677734375</LongitudeDegrees>
            </Position>
            <AltitudeMeters>463.600006103515625</AltitudeMeters>
            <DistanceMeters>92240.276029653</DistanceMeters>
          </Trackpoint>
          <Trackpoint>
            <Time>2022-04-23T14:24:35.000Z</Time>
            <Position>
              <LatitudeDegrees>41.65586496703326702117919921875</LatitudeDegrees>
              <LongitudeDegrees>-0.1668325625360012054443359375</LongitudeDegrees>
            </Position>
            <AltitudeMeters>464</AltitudeMeters>
            <DistanceMeters>92257.469301083</DistanceMeters>
          </Trackpoint>
          <Trackpoint>
            <Time>2022-04-23T14:24:37.000Z</Time>
            <Position>
              <LatitudeDegrees>41.65602497756481170654296875</LatitudeDegrees>
              <LongitudeDegrees>-0.1667893119156360626220703125</LongitudeDegrees>
            </Position>
            <AltitudeMeters>464.399993896484375</AltitudeMeters>
            <DistanceMeters>92275.638051026</DistanceMeters>
          </Trackpoint>
          <Trackpoint>
            <Time>2022-04-23T14:24:38.000Z</Time>
            <Position>
              <LatitudeDegrees>41.65610083378851413726806640625</LatitudeDegrees>
              <LongitudeDegrees>-0.16675293445587158203125</LongitudeDegrees>
            </Position>
            <AltitudeMeters>464.600006103515625</AltitudeMeters>
            <DistanceMeters>92284.606378121</DistanceMeters>
          </Trackpoint>
          <Trackpoint>
            <Time>2022-04-23T14:24:39.000Z</Time>
            <Position>
              <LatitudeDegrees>41.65617275051772594451904296875</LatitudeDegrees>
              <LongitudeDegrees>-0.16670490615069866180419921875</LongitudeDegrees>
            </Position>
            <AltitudeMeters>464.600006103515625</AltitudeMeters>
            <DistanceMeters>92293.552021611</DistanceMeters>
          </Trackpoint>
          <Trackpoint>
            <Time>2022-04-23T14:24:41.000Z</Time>
            <Position>
              <LatitudeDegrees>41.65629663504660129547119140625</LatitudeDegrees>
              <LongitudeDegrees>-0.1665750704705715179443359375</LongitudeDegrees>
            </Position>
            <AltitudeMeters>464.20001220703125</AltitudeMeters>
            <DistanceMeters>92311.064803124</DistanceMeters>
          </Trackpoint>
          <Trackpoint>
            <Time>2022-04-23T14:24:42.000Z</Time>
            <Position>
              <LatitudeDegrees>41.65633955039083957672119140625</LatitudeDegrees>
              <LongitudeDegrees>-0.16649150289595127105712890625</LongitudeDegrees>
            </Position>
            <AltitudeMeters>464.20001220703125</AltitudeMeters>
            <DistanceMeters>92319.49758748</DistanceMeters>
          </Trackpoint>
          <Trackpoint>
            <Time>2022-04-23T14:24:44.000Z</Time>
            <Position>
              <LatitudeDegrees>41.65640794672071933746337890625</LatitudeDegrees>
              <LongitudeDegrees>-0.16630793921649456024169921875</LongitudeDegrees>
            </Position>
            <AltitudeMeters>463.20001220703125</AltitudeMeters>
            <DistanceMeters>92336.555610615</DistanceMeters>
          </Trackpoint>
          <Trackpoint>
            <Time>2022-04-23T14:24:45.000Z</Time>
            <Position>
              <LatitudeDegrees>41.656434349715709686279296875</LatitudeDegrees>
              <LongitudeDegrees>-0.16621154733002185821533203125</LongitudeDegrees>
            </Position>
            <AltitudeMeters>462.399993896484375</AltitudeMeters>
            <DistanceMeters>92345.093220178</DistanceMeters>
          </Trackpoint>
          <Trackpoint>
            <Time>2022-04-23T14:24:48.000Z</Time>
            <Position>
              <LatitudeDegrees>41.65652059949934482574462890625</LatitudeDegrees>
              <LongitudeDegrees>-0.16592639498412609100341796875</LongitudeDegrees>
            </Position>
            <AltitudeMeters>461.600006103515625</AltitudeMeters>
            <DistanceMeters>92370.675710681</DistanceMeters>
          </Trackpoint>
          <Trackpoint>
            <Time>2022-04-23T14:24:50.000Z</Time>
            <Position>
              <LatitudeDegrees>41.656612046062946319580078125</LatitudeDegrees>
              <LongitudeDegrees>-0.1657640375196933746337890625</LongitudeDegrees>
            </Position>
            <AltitudeMeters>461.20001220703125</AltitudeMeters>
            <DistanceMeters>92387.583791298</DistanceMeters>
          </Trackpoint>
          <Trackpoint>
            <Time>2022-04-23T14:24:52.000Z</Time>
            <Position>
              <LatitudeDegrees>41.65673014707863330841064453125</LatitudeDegrees>
              <LongitudeDegrees>-0.16563001088798046112060546875</LongitudeDegrees>
            </Position>
            <AltitudeMeters>461.600006103515625</AltitudeMeters>
            <DistanceMeters>92404.817456441</DistanceMeters>
          </Trackpoint>
          <Trackpoint>
            <Time>2022-04-23T14:24:54.000Z</Time>
            <Position>
              <LatitudeDegrees>41.6568606533110141754150390625</LatitudeDegrees>
              <LongitudeDegrees>-0.16553814522922039031982421875</LongitudeDegrees>
            </Position>
            <AltitudeMeters>461.79998779296875</AltitudeMeters>
            <DistanceMeters>92421.229315573</DistanceMeters>
          </Trackpoint>
          <Trackpoint>
            <Time>2022-04-23T14:24:58.000Z</Time>
            <Position>
              <LatitudeDegrees>41.65713331662118434906005859375</LatitudeDegrees>
              <LongitudeDegrees>-0.16547494567930698394775390625</LongitudeDegrees>
            </Position>
            <AltitudeMeters>462.20001220703125</AltitudeMeters>
            <DistanceMeters>92452.02911412</DistanceMeters>
          </Trackpoint>
          <Trackpoint>
            <Time>2022-04-23T14:24:59.000Z</Time>
            <Position>
              <LatitudeDegrees>41.65720154531300067901611328125</LatitudeDegrees>
              <LongitudeDegrees>-0.1654708385467529296875</LongitudeDegrees>
            </Position>
            <AltitudeMeters>462.600006103515625</AltitudeMeters>
            <DistanceMeters>92459.63065733</DistanceMeters>
          </Trackpoint>
          <Trackpoint>
            <Time>2022-04-23T14:25:03.000Z</Time>
            <Position>
              <LatitudeDegrees>41.6574678383767604827880859375</LatitudeDegrees>
              <LongitudeDegrees>-0.1654482074081897735595703125</LongitudeDegrees>
            </Position>
            <AltitudeMeters>464</AltitudeMeters>
            <DistanceMeters>92489.329204207</DistanceMeters>
          </Trackpoint>
          <Trackpoint>
            <Time>2022-04-23T14:25:05.000Z</Time>
            <Position>
              <LatitudeDegrees>41.65759465657174587249755859375</LatitudeDegrees>
              <LongitudeDegrees>-0.16542733646929264068603515625</LongitudeDegrees>
            </Position>
            <AltitudeMeters>464.399993896484375</AltitudeMeters>
            <DistanceMeters>92503.550548099</DistanceMeters>
          </Trackpoint>
          <Trackpoint>
            <Time>2022-04-23T14:25:08.000Z</Time>
            <Position>
              <LatitudeDegrees>41.6577779687941074371337890625</LatitudeDegrees>
              <LongitudeDegrees>-0.1653932221233844757080078125</LongitudeDegrees>
            </Position>
            <AltitudeMeters>465</AltitudeMeters>
            <DistanceMeters>92524.149876297</DistanceMeters>
          </Trackpoint>
          <Trackpoint>
            <Time>2022-04-23T14:25:11.000Z</Time>
            <Position>
              <LatitudeDegrees>41.6579556651413440704345703125</LatitudeDegrees>
              <LongitudeDegrees>-0.16537620685994625091552734375</LongitudeDegrees>
            </Position>
            <AltitudeMeters>465.600006103515625</AltitudeMeters>
            <DistanceMeters>92543.978379225</DistanceMeters>
          </Trackpoint>
          <Trackpoint>
            <Time>2022-04-23T14:25:12.000Z</Time>
            <Position>
              <LatitudeDegrees>41.6580113209784030914306640625</LatitudeDegrees>
              <LongitudeDegrees>-0.16538324765861034393310546875</LongitudeDegrees>
            </Position>
            <AltitudeMeters>465.600006103515625</AltitudeMeters>
            <DistanceMeters>92550.200996664</DistanceMeters>
          </Trackpoint>
          <Trackpoint>
            <Time>2022-04-23T14:25:17.000Z</Time>
            <Position>
              <LatitudeDegrees>41.65827945806086063385009765625</LatitudeDegrees>
              <LongitudeDegrees>-0.16541920602321624755859375</LongitudeDegrees>
            </Position>
            <AltitudeMeters>466</AltitudeMeters>
            <DistanceMeters>92580.194534895</DistanceMeters>
          </Trackpoint>
          <Trackpoint>
            <Time>2022-04-23T14:25:18.000Z</Time>
            <Position>
              <LatitudeDegrees>41.658329665660858154296875</LatitudeDegrees>
              <LongitudeDegrees>-0.1654104888439178466796875</LongitudeDegrees>
            </Position>
            <AltitudeMeters>466.20001220703125</AltitudeMeters>
            <DistanceMeters>92585.829226438</DistanceMeters>
          </Trackpoint>
          <Trackpoint>
            <Time>2022-04-23T14:25:19.000Z</Time>
            <Position>
              <LatitudeDegrees>41.65837300010025501251220703125</LatitudeDegrees>
              <LongitudeDegrees>-0.16538475640118122100830078125</LongitudeDegrees>
            </Position>
            <AltitudeMeters>466.399993896484375</AltitudeMeters>
            <DistanceMeters>92591.104707041</DistanceMeters>
          </Trackpoint>
          <Trackpoint>
            <Time>2022-04-23T14:25:21.000Z</Time>
            <Position>
              <LatitudeDegrees>41.658425219357013702392578125</LatitudeDegrees>
              <LongitudeDegrees>-0.16528434120118618011474609375</LongitudeDegrees>
            </Position>
            <AltitudeMeters>466.600006103515625</AltitudeMeters>
            <DistanceMeters>92601.278336492</DistanceMeters>
          </Trackpoint>
          <Trackpoint>
            <Time>2022-04-23T14:25:23.000Z</Time>
            <Position>
              <LatitudeDegrees>41.658430583775043487548828125</LatitudeDegrees>
              <LongitudeDegrees>-0.16515777446329593658447265625</LongitudeDegrees>
            </Position>
            <AltitudeMeters>467</AltitudeMeters>
            <DistanceMeters>92611.820307408</DistanceMeters>
          </Trackpoint>
          <Trackpoint>
            <Time>2022-04-23T14:25:25.000Z</Time>
            <Position>
              <LatitudeDegrees>41.65840904228389263153076171875</LatitudeDegrees>
              <LongitudeDegrees>-0.16503422521054744720458984375</LongitudeDegrees>
            </Position>
            <AltitudeMeters>467</AltitudeMeters>
            <DistanceMeters>92622.370412728</DistanceMeters>
          </Trackpoint>
          <Trackpoint>
            <Time>2022-04-23T14:25:26.000Z</Time>
            <Position>
              <LatitudeDegrees>41.658390350639820098876953125</LatitudeDegrees>
              <LongitudeDegrees>-0.1649734564125537872314453125</LongitudeDegrees>
            </Position>
            <AltitudeMeters>467</AltitudeMeters>
            <DistanceMeters>92627.835894671</DistanceMeters>
          </Trackpoint>
          <Trackpoint>
            <Time>2022-04-23T14:25:29.000Z</Time>
            <Position>
              <LatitudeDegrees>41.6583097167313098907470703125</LatitudeDegrees>
              <LongitudeDegrees>-0.16478410921990871429443359375</LongitudeDegrees>
            </Position>
            <AltitudeMeters>467.600006103515625</AltitudeMeters>
            <DistanceMeters>92645.959360139</DistanceMeters>
          </Trackpoint>
          <Trackpoint>
            <Time>2022-04-23T14:25:30.000Z</Time>
            <Position>
              <LatitudeDegrees>41.65827627293765544891357421875</LatitudeDegrees>
              <LongitudeDegrees>-0.1647213287651538848876953125</LongitudeDegrees>
            </Position>
            <AltitudeMeters>467.600006103515625</AltitudeMeters>
            <DistanceMeters>92652.37067108</DistanceMeters>
          </Trackpoint>
          <Trackpoint>
            <Time>2022-04-23T14:25:36.000Z</Time>
            <Position>
              <LatitudeDegrees>41.658050715923309326171875</LatitudeDegrees>
              <LongitudeDegrees>-0.164403654634952545166015625</LongitudeDegrees>
            </Position>
            <AltitudeMeters>468.600006103515625</AltitudeMeters>
            <DistanceMeters>92688.813632854</DistanceMeters>
          </Trackpoint>
          <Trackpoint>
            <Time>2022-04-23T14:25:39.000Z</Time>
            <Position>
              <LatitudeDegrees>41.657948456704616546630859375</LatitudeDegrees>
              <LongitudeDegrees>-0.1642630062997341156005859375</LongitudeDegrees>
            </Position>
            <AltitudeMeters>468.79998779296875</AltitudeMeters>
            <DistanceMeters>92705.132793816</DistanceMeters>
          </Trackpoint>
          <Trackpoint>
            <Time>2022-04-23T14:25:42.000Z</Time>
            <Position>
              <LatitudeDegrees>41.657877378165721893310546875</LatitudeDegrees>
              <LongitudeDegrees>-0.16412646509706974029541015625</LongitudeDegrees>
            </Position>
            <AltitudeMeters>469.600006103515625</AltitudeMeters>
            <DistanceMeters>92718.971502615</DistanceMeters>
          </Trackpoint>
          <Trackpoint>
            <Time>2022-04-23T14:25:46.000Z</Time>
            <Position>
              <LatitudeDegrees>41.65778459049761295318603515625</LatitudeDegrees>
              <LongitudeDegrees>-0.1639245450496673583984375</LongitudeDegrees>
            </Position>
            <AltitudeMeters>470.79998779296875</AltitudeMeters>
            <DistanceMeters>92738.684221342</DistanceMeters>
          </Trackpoint>
          <Trackpoint>
            <Time>2022-04-23T14:25:50.000Z</Time>
            <Position>
              <LatitudeDegrees>41.65769322775304317474365234375</LatitudeDegrees>
              <LongitudeDegrees>-0.16370234079658985137939453125</LongitudeDegrees>
            </Position>
            <AltitudeMeters>471.79998779296875</AltitudeMeters>
            <DistanceMeters>92759.775442876</DistanceMeters>
          </Trackpoint>
          <Trackpoint>
            <Time>2022-04-23T14:25:55.000Z</Time>
            <Position>
              <LatitudeDegrees>41.657516956329345703125</LatitudeDegrees>
              <LongitudeDegrees>-0.16343847848474979400634765625</LongitudeDegrees>
            </Position>
            <AltitudeMeters>472.20001220703125</AltitudeMeters>
            <DistanceMeters>92789.209497883</DistanceMeters>
          </Trackpoint>
          <Trackpoint>
            <Time>2022-04-23T14:26:01.000Z</Time>
            <Position>
              <LatitudeDegrees>41.6573238372802734375</LatitudeDegrees>
              <LongitudeDegrees>-0.16324100084602832794189453125</LongitudeDegrees>
            </Position>
            <AltitudeMeters>473.20001220703125</AltitudeMeters>
            <DistanceMeters>92816.25941589</DistanceMeters>
          </Trackpoint>
          <Trackpoint>
            <Time>2022-04-23T14:26:02.000Z</Time>
            <Position>
              <LatitudeDegrees>41.6572576202452182769775390625</LatitudeDegrees>
              <LongitudeDegrees>-0.1631807349622249603271484375</LongitudeDegrees>
            </Position>
            <AltitudeMeters>473.399993896484375</AltitudeMeters>
            <DistanceMeters>92825.172698818</DistanceMeters>
          </Trackpoint>
          <Trackpoint>
            <Time>2022-04-23T14:26:04.000Z</Time>
            <Position>
              <LatitudeDegrees>41.65719500742852687835693359375</LatitudeDegrees>
              <LongitudeDegrees>-0.16311242245137691497802734375</LongitudeDegrees>
            </Position>
            <AltitudeMeters>474.399993896484375</AltitudeMeters>
            <DistanceMeters>92834.164154451</DistanceMeters>
          </Trackpoint>
          <Trackpoint>
            <Time>2022-04-23T14:26:08.000Z</Time>
            <Position>
              <LatitudeDegrees>41.6570829413831233978271484375</LatitudeDegrees>
              <LongitudeDegrees>-0.1629406772553920745849609375</LongitudeDegrees>
            </Position>
            <AltitudeMeters>475.399993896484375</AltitudeMeters>
            <DistanceMeters>92853.125972765</DistanceMeters>
          </Trackpoint>
          <Trackpoint>
            <Time>2022-04-23T14:26:10.000Z</Time>
            <Position>
              <LatitudeDegrees>41.65704094804823398590087890625</LatitudeDegrees>
              <LongitudeDegrees>-0.16282911412417888641357421875</LongitudeDegrees>
            </Position>
            <AltitudeMeters>475.600006103515625</AltitudeMeters>
            <DistanceMeters>92863.513918351</DistanceMeters>
          </Trackpoint>
          <Trackpoint>
            <Time>2022-04-23T14:26:16.000Z</Time>
            <Position>
              <LatitudeDegrees>41.656897701323032379150390625</LatitudeDegrees>
              <LongitudeDegrees>-0.16246768645942211151123046875</LongitudeDegrees>
            </Position>
            <AltitudeMeters>475.399993896484375</AltitudeMeters>
            <DistanceMeters>92897.5366672</DistanceMeters>
          </Trackpoint>
          <Trackpoint>
            <Time>2022-04-23T14:26:19.000Z</Time>
            <Position>
              <LatitudeDegrees>41.6567852161824703216552734375</LatitudeDegrees>
              <LongitudeDegrees>-0.16229183413088321685791015625</LongitudeDegrees>
            </Position>
            <AltitudeMeters>475</AltitudeMeters>
            <DistanceMeters>92916.787494124</DistanceMeters>
          </Trackpoint>
          <Trackpoint>
            <Time>2022-04-23T14:26:21.000Z</Time>
            <Position>
              <LatitudeDegrees>41.6566963680088520050048828125</LatitudeDegrees>
              <LongitudeDegrees>-0.16217683441936969757080078125</LongitudeDegrees>
            </Position>
            <AltitudeMeters>474.600006103515625</AltitudeMeters>
            <DistanceMeters>92930.543739322</DistanceMeters>
          </Trackpoint>
          <Trackpoint>
            <Time>2022-04-23T14:26:22.000Z</Time>
            <Position>
              <LatitudeDegrees>41.65665823034942150115966796875</LatitudeDegrees>
              <LongitudeDegrees>-0.16211564652621746063232421875</LongitudeDegrees>
            </Position>
            <AltitudeMeters>474.600006103515625</AltitudeMeters>
            <DistanceMeters>92937.169766161</DistanceMeters>
          </Trackpoint>
          <Trackpoint>
            <Time>2022-04-23T14:26:23.000Z</Time>
            <Position>
              <LatitudeDegrees>41.6566266305744647979736328125</LatitudeDegrees>
              <LongitudeDegrees>-0.162048675119876861572265625</LongitudeDegrees>
            </Position>
            <AltitudeMeters>474.399993896484375</AltitudeMeters>
            <DistanceMeters>92943.756838144</DistanceMeters>
          </Trackpoint>
          <Trackpoint>
            <Time>2022-04-23T14:26:24.000Z</Time>
            <Position>
              <LatitudeDegrees>41.65660223923623561859130859375</LatitudeDegrees>
              <LongitudeDegrees>-0.16197650693356990814208984375</LongitudeDegrees>
            </Position>
            <AltitudeMeters>474.20001220703125</AltitudeMeters>
            <DistanceMeters>92950.343224653</DistanceMeters>
          </Trackpoint>
          <Trackpoint>
            <Time>2022-04-23T14:26:25.000Z</Time>
            <Position>
              <LatitudeDegrees>41.65658497251570224761962890625</LatitudeDegrees>
              <LongitudeDegrees>-0.16189855523407459259033203125</LongitudeDegrees>
            </Position>
            <AltitudeMeters>474.20001220703125</AltitudeMeters>
            <DistanceMeters>92957.104160014</DistanceMeters>
          </Trackpoint>
          <Trackpoint>
            <Time>2022-04-23T14:26:27.000Z</Time>
            <Position>
              <LatitudeDegrees>41.65656141936779022216796875</LatitudeDegrees>
              <LongitudeDegrees>-0.161732174456119537353515625</LongitudeDegrees>
            </Position>
            <AltitudeMeters>473.600006103515625</AltitudeMeters>
            <DistanceMeters>92971.186080292</DistanceMeters>
          </Trackpoint>
          <Trackpoint>
            <Time>2022-04-23T14:26:29.000Z</Time>
            <Position>
              <LatitudeDegrees>41.65655781514942646026611328125</LatitudeDegrees>
              <LongitudeDegrees>-0.161554813385009765625</LongitudeDegrees>
            </Position>
            <AltitudeMeters>473.399993896484375</AltitudeMeters>
            <DistanceMeters>92985.940641719</DistanceMeters>
          </Trackpoint>
          <Trackpoint>
            <Time>2022-04-23T14:26:30.000Z</Time>
            <Position>
              <LatitudeDegrees>41.6565528698265552520751953125</LatitudeDegrees>
              <LongitudeDegrees>-0.16147191636264324188232421875</LongitudeDegrees>
            </Position>
            <AltitudeMeters>473.399993896484375</AltitudeMeters>
            <DistanceMeters>92992.856079872</DistanceMeters>
          </Trackpoint>
          <Trackpoint>
            <Time>2022-04-23T14:26:32.000Z</Time>
            <Position>
              <LatitudeDegrees>41.6565344296395778656005859375</LatitudeDegrees>
              <LongitudeDegrees>-0.161322467029094696044921875</LongitudeDegrees>
            </Position>
            <AltitudeMeters>472.79998779296875</AltitudeMeters>
            <DistanceMeters>93005.452049192</DistanceMeters>
          </Trackpoint>
          <Trackpoint>
            <Time>2022-04-23T14:26:33.000Z</Time>
            <Position>
              <LatitudeDegrees>41.65652194060385227203369140625</LatitudeDegrees>
              <LongitudeDegrees>-0.16125348396599292755126953125</LongitudeDegrees>
            </Position>
            <AltitudeMeters>472.20001220703125</AltitudeMeters>
            <DistanceMeters>93011.354424555</DistanceMeters>
          </Trackpoint>
          <Trackpoint>
            <Time>2022-04-23T14:26:34.000Z</Time>
            <Position>
              <LatitudeDegrees>41.65651238523423671722412109375</LatitudeDegrees>
              <LongitudeDegrees>-0.16118911094963550567626953125</LongitudeDegrees>
            </Position>
            <AltitudeMeters>472</AltitudeMeters>
            <DistanceMeters>93016.811639239</DistanceMeters>
          </Trackpoint>
          <Trackpoint>
            <Time>2022-04-23T14:26:35.000Z</Time>
            <Position>
              <LatitudeDegrees>41.65650852955877780914306640625</LatitudeDegrees>
              <LongitudeDegrees>-0.16112674959003925323486328125</LongitudeDegrees>
            </Position>
            <AltitudeMeters>472</AltitudeMeters>
            <DistanceMeters>93022.01473151</DistanceMeters>
          </Trackpoint>
          <Trackpoint>
            <Time>2022-04-23T14:26:36.000Z</Time>
            <Position>
              <LatitudeDegrees>41.65651188232004642486572265625</LatitudeDegrees>
              <LongitudeDegrees>-0.161071680486202239990234375</LongitudeDegrees>
            </Position>
            <AltitudeMeters>471.600006103515625</AltitudeMeters>
            <DistanceMeters>93026.60954584</DistanceMeters>
          </Trackpoint>
          <Trackpoint>
            <Time>2022-04-23T14:26:38.000Z</Time>
            <Position>
              <LatitudeDegrees>41.65656267665326595306396484375</LatitudeDegrees>
              <LongitudeDegrees>-0.1610205508768558502197265625</LongitudeDegrees>
            </Position>
            <AltitudeMeters>471.399993896484375</AltitudeMeters>
            <DistanceMeters>93033.683772558</DistanceMeters>
          </Trackpoint>
          <Trackpoint>
            <Time>2022-04-23T14:26:39.000Z</Time>
            <Position>
              <LatitudeDegrees>41.6566024906933307647705078125</LatitudeDegrees>
              <LongitudeDegrees>-0.16103111207485198974609375</LongitudeDegrees>
            </Position>
            <AltitudeMeters>471.399993896484375</AltitudeMeters>
            <DistanceMeters>93038.201290988</DistanceMeters>
          </Trackpoint>
          <Trackpoint>
            <Time>2022-04-23T14:26:41.000Z</Time>
            <Position>
              <LatitudeDegrees>41.65667943656444549560546875</LatitudeDegrees>
              <LongitudeDegrees>-0.161119289696216583251953125</LongitudeDegrees>
            </Position>
            <AltitudeMeters>471.399993896484375</AltitudeMeters>
            <DistanceMeters>93049.475480804</DistanceMeters>
          </Trackpoint>
          <Trackpoint>
            <Time>2022-04-23T14:26:43.000Z</Time>
            <Position>
              <LatitudeDegrees>41.65672025643289089202880859375</LatitudeDegrees>
              <LongitudeDegrees>-0.16127712093293666839599609375</LongitudeDegrees>
            </Position>
            <AltitudeMeters>471.20001220703125</AltitudeMeters>
            <DistanceMeters>93063.364342997</DistanceMeters>
          </Trackpoint>
          <Trackpoint>
            <Time>2022-04-23T14:26:44.000Z</Time>
            <Position>
              <LatitudeDegrees>41.65671698749065399169921875</LatitudeDegrees>
              <LongitudeDegrees>-0.16136747784912586212158203125</LongitudeDegrees>
            </Position>
            <AltitudeMeters>471.20001220703125</AltitudeMeters>
            <DistanceMeters>93070.886474277</DistanceMeters>
          </Trackpoint>
          <Trackpoint>
            <Time>2022-04-23T14:26:47.000Z</Time>
            <Position>
              <LatitudeDegrees>41.65668840520083904266357421875</LatitudeDegrees>
              <LongitudeDegrees>-0.1616448350250720977783203125</LongitudeDegrees>
            </Position>
            <AltitudeMeters>470.79998779296875</AltitudeMeters>
            <DistanceMeters>93094.169376782</DistanceMeters>
          </Trackpoint>
          <Trackpoint>
            <Time>2022-04-23T14:26:49.000Z</Time>
            <Position>
              <LatitudeDegrees>41.6567121259868144989013671875</LatitudeDegrees>
              <LongitudeDegrees>-0.16183577477931976318359375</LongitudeDegrees>
            </Position>
            <AltitudeMeters>470.600006103515625</AltitudeMeters>
            <DistanceMeters>93110.265679256</DistanceMeters>
          </Trackpoint>
          <Trackpoint>
            <Time>2022-04-23T14:26:51.000Z</Time>
            <Position>
              <LatitudeDegrees>41.656783036887645721435546875</LatitudeDegrees>
              <LongitudeDegrees>-0.16200751997530460357666015625</LongitudeDegrees>
            </Position>
            <AltitudeMeters>470.399993896484375</AltitudeMeters>
            <DistanceMeters>93126.583180107</DistanceMeters>
          </Trackpoint>
          <Trackpoint>
            <Time>2022-04-23T14:26:52.000Z</Time>
            <Position>
              <LatitudeDegrees>41.6568385250866413116455078125</LatitudeDegrees>
              <LongitudeDegrees>-0.16207851469516754150390625</LongitudeDegrees>
            </Position>
            <AltitudeMeters>470.399993896484375</AltitudeMeters>
            <DistanceMeters>93135.127133406</DistanceMeters>
          </Trackpoint>
          <Trackpoint>
            <Time>2022-04-23T14:26:53.000Z</Time>
            <Position>
              <LatitudeDegrees>41.65690029971301555633544921875</LatitudeDegrees>
              <LongitudeDegrees>-0.16213878057897090911865234375</LongitudeDegrees>
            </Position>
            <AltitudeMeters>470.20001220703125</AltitudeMeters>
            <DistanceMeters>93143.635606997</DistanceMeters>
          </Trackpoint>
          <Trackpoint>
            <Time>2022-04-23T14:26:56.000Z</Time>
            <Position>
              <LatitudeDegrees>41.65708310902118682861328125</LatitudeDegrees>
              <LongitudeDegrees>-0.162334330379962921142578125</LongitudeDegrees>
            </Position>
            <AltitudeMeters>469.20001220703125</AltitudeMeters>
            <DistanceMeters>93169.682635684</DistanceMeters>
          </Trackpoint>
          <Trackpoint>
            <Time>2022-04-23T14:26:57.000Z</Time>
            <Position>
              <LatitudeDegrees>41.65712778456509113311767578125</LatitudeDegrees>
              <LongitudeDegrees>-0.162421502172946929931640625</LongitudeDegrees>
            </Position>
            <AltitudeMeters>468.79998779296875</AltitudeMeters>
            <DistanceMeters>93178.473505618</DistanceMeters>
          </Trackpoint>
          <Trackpoint>
            <Time>2022-04-23T14:26:58.000Z</Time>
            <Position>
              <LatitudeDegrees>41.6571567021310329437255859375</LatitudeDegrees>
              <LongitudeDegrees>-0.16252040863037109375</LongitudeDegrees>
            </Position>
            <AltitudeMeters>468.600006103515625</AltitudeMeters>
            <DistanceMeters>93187.305879614</DistanceMeters>
          </Trackpoint>
          <Trackpoint>
            <Time>2022-04-23T14:26:59.000Z</Time>
            <Position>
              <LatitudeDegrees>41.65718327276408672332763671875</LatitudeDegrees>
              <LongitudeDegrees>-0.16261856071650981903076171875</LongitudeDegrees>
            </Position>
            <AltitudeMeters>468.20001220703125</AltitudeMeters>
            <DistanceMeters>93195.987182397</DistanceMeters>
          </Trackpoint>
          <Trackpoint>
            <Time>2022-04-23T14:27:00.000Z</Time>
            <Position>
              <LatitudeDegrees>41.6572244279086589813232421875</LatitudeDegrees>
              <LongitudeDegrees>-0.1627006195485591888427734375</LongitudeDegrees>
            </Position>
            <AltitudeMeters>468</AltitudeMeters>
            <DistanceMeters>93204.2057572</DistanceMeters>
          </Trackpoint>
          <Trackpoint>
            <Time>2022-04-23T14:27:02.000Z</Time>
            <Position>
              <LatitudeDegrees>41.65735962800681591033935546875</LatitudeDegrees>
              <LongitudeDegrees>-0.1628100872039794921875</LongitudeDegrees>
            </Position>
            <AltitudeMeters>467.399993896484375</AltitudeMeters>
            <DistanceMeters>93221.792632373</DistanceMeters>
          </Trackpoint>
          <Trackpoint>
            <Time>2022-04-23T14:27:03.000Z</Time>
            <Position>
              <LatitudeDegrees>41.65744193829596042633056640625</LatitudeDegrees>
              <LongitudeDegrees>-0.16283716075122356414794921875</LongitudeDegrees>
            </Position>
            <AltitudeMeters>466.399993896484375</AltitudeMeters>
            <DistanceMeters>93231.226636477</DistanceMeters>
          </Trackpoint>
          <Trackpoint>
            <Time>2022-04-23T14:27:04.000Z</Time>
            <Position>
              <LatitudeDegrees>41.65752835571765899658203125</LatitudeDegrees>
              <LongitudeDegrees>-0.16285459510982036590576171875</LongitudeDegrees>
            </Position>
            <AltitudeMeters>466</AltitudeMeters>
            <DistanceMeters>93240.953770741</DistanceMeters>
          </Trackpoint>
          <Trackpoint>
            <Time>2022-04-23T14:27:06.000Z</Time>
            <Position>
              <LatitudeDegrees>41.6576884500682353973388671875</LatitudeDegrees>
              <LongitudeDegrees>-0.16290555708110332489013671875</LongitudeDegrees>
            </Position>
            <AltitudeMeters>465.399993896484375</AltitudeMeters>
            <DistanceMeters>93259.269538262</DistanceMeters>
          </Trackpoint>
          <Trackpoint>
            <Time>2022-04-23T14:27:08.000Z</Time>
            <Position>
              <LatitudeDegrees>41.65783504955470561981201171875</LatitudeDegrees>
              <LongitudeDegrees>-0.163048803806304931640625</LongitudeDegrees>
            </Position>
            <AltitudeMeters>465</AltitudeMeters>
            <DistanceMeters>93279.471600903</DistanceMeters>
          </Trackpoint>
          <Trackpoint>
            <Time>2022-04-23T14:27:11.000Z</Time>
            <Position>
              <LatitudeDegrees>41.6580418311059474945068359375</LatitudeDegrees>
              <LongitudeDegrees>-0.16328416764736175537109375</LongitudeDegrees>
            </Position>
            <AltitudeMeters>464.399993896484375</AltitudeMeters>
            <DistanceMeters>93309.683521182</DistanceMeters>
          </Trackpoint>
          <Trackpoint>
            <Time>2022-04-23T14:27:12.000Z</Time>
            <Position>
              <LatitudeDegrees>41.6581222973763942718505859375</LatitudeDegrees>
              <LongitudeDegrees>-0.1633295975625514984130859375</LongitudeDegrees>
            </Position>
            <AltitudeMeters>464</AltitudeMeters>
            <DistanceMeters>93319.403225898</DistanceMeters>
          </Trackpoint>
          <Trackpoint>
            <Time>2022-04-23T14:27:13.000Z</Time>
            <Position>
              <LatitudeDegrees>41.65820469148457050323486328125</LatitudeDegrees>
              <LongitudeDegrees>-0.16334761865437030792236328125</LongitudeDegrees>
            </Position>
            <AltitudeMeters>463.20001220703125</AltitudeMeters>
            <DistanceMeters>93328.695458727</DistanceMeters>
          </Trackpoint>
          <Trackpoint>
            <Time>2022-04-23T14:27:14.000Z</Time>
            <Position>
              <LatitudeDegrees>41.65829437784850597381591796875</LatitudeDegrees>
              <LongitudeDegrees>-0.16336538828909397125244140625</LongitudeDegrees>
            </Position>
            <AltitudeMeters>462.79998779296875</AltitudeMeters>
            <DistanceMeters>93338.786651524</DistanceMeters>
          </Trackpoint>
          <Trackpoint>
            <Time>2022-04-23T14:27:15.000Z</Time>
            <Position>
              <LatitudeDegrees>41.65835154242813587188720703125</LatitudeDegrees>
              <LongitudeDegrees>-0.16340360976755619049072265625</LongitudeDegrees>
            </Position>
            <AltitudeMeters>462.20001220703125</AltitudeMeters>
            <DistanceMeters>93345.898434575</DistanceMeters>
          </Trackpoint>
          <Trackpoint>
            <Time>2022-04-23T14:27:17.000Z</Time>
            <Position>
              <LatitudeDegrees>41.6583895124495029449462890625</LatitudeDegrees>
              <LongitudeDegrees>-0.1634739339351654052734375</LongitudeDegrees>
            </Position>
            <AltitudeMeters>461.399993896484375</AltitudeMeters>
            <DistanceMeters>93353.112958857</DistanceMeters>
          </Trackpoint>
          <Trackpoint>
            <Time>2022-04-23T14:27:19.000Z</Time>
            <Position>
              <LatitudeDegrees>41.65846587158739566802978515625</LatitudeDegrees>
              <LongitudeDegrees>-0.163745172321796417236328125</LongitudeDegrees>
            </Position>
            <AltitudeMeters>460.600006103515625</AltitudeMeters>
            <DistanceMeters>93377.215862583</DistanceMeters>
          </Trackpoint>
          <Trackpoint>
            <Time>2022-04-23T14:27:20.000Z</Time>
            <Position>
              <LatitudeDegrees>41.658511050045490264892578125</LatitudeDegrees>
              <LongitudeDegrees>-0.1638199388980865478515625</LongitudeDegrees>
            </Position>
            <AltitudeMeters>460</AltitudeMeters>
            <DistanceMeters>93385.211670311</DistanceMeters>
          </Trackpoint>
          <Trackpoint>
            <Time>2022-04-23T14:27:21.000Z</Time>
            <Position>
              <LatitudeDegrees>41.65856796316802501678466796875</LatitudeDegrees>
              <LongitudeDegrees>-0.1638754270970821380615234375</LongitudeDegrees>
            </Position>
            <AltitudeMeters>459.79998779296875</AltitudeMeters>
            <DistanceMeters>93393.048926207</DistanceMeters>
          </Trackpoint>
          <Trackpoint>
            <Time>2022-04-23T14:27:23.000Z</Time>
            <Position>
              <LatitudeDegrees>41.6587083600461483001708984375</LatitudeDegrees>
              <LongitudeDegrees>-0.16396100632846355438232421875</LongitudeDegrees>
            </Position>
            <AltitudeMeters>459.399993896484375</AltitudeMeters>
            <DistanceMeters>93410.219598759</DistanceMeters>
          </Trackpoint>
          <Trackpoint>
            <Time>2022-04-23T14:27:25.000Z</Time>
            <Position>
              <LatitudeDegrees>41.658857725560665130615234375</LatitudeDegrees>
              <LongitudeDegrees>-0.1640273071825504302978515625</LongitudeDegrees>
            </Position>
            <AltitudeMeters>459.20001220703125</AltitudeMeters>
            <DistanceMeters>93427.734700444</DistanceMeters>
          </Trackpoint>
          <Trackpoint>
            <Time>2022-04-23T14:27:26.000Z</Time>
            <Position>
              <LatitudeDegrees>41.6589291393756866455078125</LatitudeDegrees>
              <LongitudeDegrees>-0.16400241293013095855712890625</LongitudeDegrees>
            </Position>
            <AltitudeMeters>458.79998779296875</AltitudeMeters>
            <DistanceMeters>93435.94777971</DistanceMeters>
          </Trackpoint>
          <Trackpoint>
            <Time>2022-04-23T14:27:27.000Z</Time>
            <Position>
              <LatitudeDegrees>41.65899150073528289794921875</LatitudeDegrees>
              <LongitudeDegrees>-0.1639352738857269287109375</LongitudeDegrees>
            </Position>
            <AltitudeMeters>458.399993896484375</AltitudeMeters>
            <DistanceMeters>93444.855995682</DistanceMeters>
          </Trackpoint>
          <Trackpoint>
            <Time>2022-04-23T14:27:29.000Z</Time>
            <Position>
              <LatitudeDegrees>41.65911379270255565643310546875</LatitudeDegrees>
              <LongitudeDegrees>-0.16377341933548450469970703125</LongitudeDegrees>
            </Position>
            <AltitudeMeters>457.600006103515625</AltitudeMeters>
            <DistanceMeters>93463.998159664</DistanceMeters>
          </Trackpoint>
          <Trackpoint>
            <Time>2022-04-23T14:27:31.000Z</Time>
            <Position>
              <LatitudeDegrees>41.659247316420078277587890625</LatitudeDegrees>
              <LongitudeDegrees>-0.16369228251278400421142578125</LongitudeDegrees>
            </Position>
            <AltitudeMeters>456.79998779296875</AltitudeMeters>
            <DistanceMeters>93480.319533844</DistanceMeters>
          </Trackpoint>
          <Trackpoint>
            <Time>2022-04-23T14:27:32.000Z</Time>
            <Position>
              <LatitudeDegrees>41.65934328921139240264892578125</LatitudeDegrees>
              <LongitudeDegrees>-0.163682140409946441650390625</LongitudeDegrees>
            </Position>
            <AltitudeMeters>456.20001220703125</AltitudeMeters>
            <DistanceMeters>93491.034401641</DistanceMeters>
          </Trackpoint>
          <Trackpoint>
            <Time>2022-04-23T14:27:33.000Z</Time>
            <Position>
              <LatitudeDegrees>41.65940456092357635498046875</LatitudeDegrees>
              <LongitudeDegrees>-0.1637205295264720916748046875</LongitudeDegrees>
            </Position>
            <AltitudeMeters>455.600006103515625</AltitudeMeters>
            <DistanceMeters>93498.564331919</DistanceMeters>
          </Trackpoint>
          <Trackpoint>
            <Time>2022-04-23T14:27:35.000Z</Time>
            <Position>
              <LatitudeDegrees>41.65943984873592853546142578125</LatitudeDegrees>
              <LongitudeDegrees>-0.16389034688472747802734375</LongitudeDegrees>
            </Position>
            <AltitudeMeters>455</AltitudeMeters>
            <DistanceMeters>93513.221259243</DistanceMeters>
          </Trackpoint>
          <Trackpoint>
            <Time>2022-04-23T14:27:37.000Z</Time>
            <Position>
              <LatitudeDegrees>41.65941252373158931732177734375</LatitudeDegrees>
              <LongitudeDegrees>-0.164084136486053466796875</LongitudeDegrees>
            </Position>
            <AltitudeMeters>454.600006103515625</AltitudeMeters>
            <DistanceMeters>93529.620458512</DistanceMeters>
          </Trackpoint>
          <Trackpoint>
            <Time>2022-04-23T14:27:39.000Z</Time>
            <Position>
              <LatitudeDegrees>41.65943632833659648895263671875</LatitudeDegrees>
              <LongitudeDegrees>-0.1642733998596668243408203125</LongitudeDegrees>
            </Position>
            <AltitudeMeters>453.79998779296875</AltitudeMeters>
            <DistanceMeters>93545.580420803</DistanceMeters>
          </Trackpoint>
          <Trackpoint>
            <Time>2022-04-23T14:27:41.000Z</Time>
            <Position>
              <LatitudeDegrees>41.65954001247882843017578125</LatitudeDegrees>
              <LongitudeDegrees>-0.16440088860690593719482421875</LongitudeDegrees>
            </Position>
            <AltitudeMeters>453.20001220703125</AltitudeMeters>
            <DistanceMeters>93561.25089938</DistanceMeters>
          </Trackpoint>
          <Trackpoint>
            <Time>2022-04-23T14:27:42.000Z</Time>
            <Position>
              <LatitudeDegrees>41.65959541685879230499267578125</LatitudeDegrees>
              <LongitudeDegrees>-0.1644628308713436126708984375</LongitudeDegrees>
            </Position>
            <AltitudeMeters>453</AltitudeMeters>
            <DistanceMeters>93569.28557526</DistanceMeters>
          </Trackpoint>
          <Trackpoint>
            <Time>2022-04-23T14:27:44.000Z</Time>
            <Position>
              <LatitudeDegrees>41.65965802967548370361328125</LatitudeDegrees>
              <LongitudeDegrees>-0.1646230928599834442138671875</LongitudeDegrees>
            </Position>
            <AltitudeMeters>452.600006103515625</AltitudeMeters>
            <DistanceMeters>93584.324134517</DistanceMeters>
          </Trackpoint>
          <Trackpoint>
            <Time>2022-04-23T14:27:46.000Z</Time>
            <Position>
              <LatitudeDegrees>41.65967705659568309783935546875</LatitudeDegrees>
              <LongitudeDegrees>-0.164780505001544952392578125</LongitudeDegrees>
            </Position>
            <AltitudeMeters>452.20001220703125</AltitudeMeters>
            <DistanceMeters>93597.584362589</DistanceMeters>
          </Trackpoint>
          <Trackpoint>
            <Time>2022-04-23T14:27:47.000Z</Time>
            <Position>
              <LatitudeDegrees>41.65970119647681713104248046875</LatitudeDegrees>
              <LongitudeDegrees>-0.164849571883678436279296875</LongitudeDegrees>
            </Position>
            <AltitudeMeters>451.600006103515625</AltitudeMeters>
            <DistanceMeters>93603.924859441</DistanceMeters>
          </Trackpoint>
          <Trackpoint>
            <Time>2022-04-23T14:27:48.000Z</Time>
            <Position>
              <LatitudeDegrees>41.65974394418299198150634765625</LatitudeDegrees>
              <LongitudeDegrees>-0.164909251034259796142578125</LongitudeDegrees>
            </Position>
            <AltitudeMeters>451.600006103515625</AltitudeMeters>
            <DistanceMeters>93610.799699083</DistanceMeters>
          </Trackpoint>
          <Trackpoint>
            <Time>2022-04-23T14:27:50.000Z</Time>
            <Position>
              <LatitudeDegrees>41.65987537242472171783447265625</LatitudeDegrees>
              <LongitudeDegrees>-0.16498334705829620361328125</LongitudeDegrees>
            </Position>
            <AltitudeMeters>450.79998779296875</AltitudeMeters>
            <DistanceMeters>93626.672289697</DistanceMeters>
          </Trackpoint>
          <Trackpoint>
            <Time>2022-04-23T14:27:51.000Z</Time>
            <Position>
              <LatitudeDegrees>41.6599482111632823944091796875</LatitudeDegrees>
              <LongitudeDegrees>-0.16500304453074932098388671875</LongitudeDegrees>
            </Position>
            <AltitudeMeters>450.399993896484375</AltitudeMeters>
            <DistanceMeters>93634.942344049</DistanceMeters>
          </Trackpoint>
          <Trackpoint>
            <Time>2022-04-23T14:27:53.000Z</Time>
            <Position>
              <LatitudeDegrees>41.660098247230052947998046875</LatitudeDegrees>
              <LongitudeDegrees>-0.16500614583492279052734375</LongitudeDegrees>
            </Position>
            <AltitudeMeters>450</AltitudeMeters>
            <DistanceMeters>93651.643272203</DistanceMeters>
          </Trackpoint>
          <Trackpoint>
            <Time>2022-04-23T14:27:54.000Z</Time>
            <Position>
              <LatitudeDegrees>41.6601718403398990631103515625</LatitudeDegrees>
              <LongitudeDegrees>-0.16499483026564121246337890625</LongitudeDegrees>
            </Position>
            <AltitudeMeters>450</AltitudeMeters>
            <DistanceMeters>93659.887626962</DistanceMeters>
          </Trackpoint>
          <Trackpoint>
            <Time>2022-04-23T14:27:59.000Z</Time>
            <Position>
              <LatitudeDegrees>41.66052983142435550689697265625</LatitudeDegrees>
              <LongitudeDegrees>-0.1649027131497859954833984375</LongitudeDegrees>
            </Position>
            <AltitudeMeters>449.79998779296875</AltitudeMeters>
            <DistanceMeters>93700.462253599</DistanceMeters>
          </Trackpoint>
          <Trackpoint>
            <Time>2022-04-23T14:28:00.000Z</Time>
            <Position>
              <LatitudeDegrees>41.6606147401034832000732421875</LatitudeDegrees>
              <LongitudeDegrees>-0.16487865708768367767333984375</LongitudeDegrees>
            </Position>
            <AltitudeMeters>449.79998779296875</AltitudeMeters>
            <DistanceMeters>93710.122316226</DistanceMeters>
          </Trackpoint>
          <Trackpoint>
            <Time>2022-04-23T14:28:03.000Z</Time>
            <Position>
              <LatitudeDegrees>41.66087550111114978790283203125</LatitudeDegrees>
              <LongitudeDegrees>-0.1647689379751682281494140625</LongitudeDegrees>
            </Position>
            <AltitudeMeters>449.399993896484375</AltitudeMeters>
            <DistanceMeters>93740.545857532</DistanceMeters>
          </Trackpoint>
          <Trackpoint>
            <Time>2022-04-23T14:28:04.000Z</Time>
            <Position>
              <LatitudeDegrees>41.66096518747508525848388671875</LatitudeDegrees>
              <LongitudeDegrees>-0.16471839509904384613037109375</LongitudeDegrees>
            </Position>
            <AltitudeMeters>449.20001220703125</AltitudeMeters>
            <DistanceMeters>93751.376818851</DistanceMeters>
          </Trackpoint>
          <Trackpoint>
            <Time>2022-04-23T14:28:06.000Z</Time>
            <Position>
              <LatitudeDegrees>41.66114606894552707672119140625</LatitudeDegrees>
              <LongitudeDegrees>-0.164639689028263092041015625</LongitudeDegrees>
            </Position>
            <AltitudeMeters>448.20001220703125</AltitudeMeters>
            <DistanceMeters>93772.546245715</DistanceMeters>
          </Trackpoint>
          <Trackpoint>
            <Time>2022-04-23T14:28:08.000Z</Time>
            <Position>
              <LatitudeDegrees>41.66134723462164402008056640625</LatitudeDegrees>
              <LongitudeDegrees>-0.164610184729099273681640625</LongitudeDegrees>
            </Position>
            <AltitudeMeters>447</AltitudeMeters>
            <DistanceMeters>93795.070383542</DistanceMeters>
          </Trackpoint>
          <Trackpoint>
            <Time>2022-04-23T14:28:09.000Z</Time>
            <Position>
              <LatitudeDegrees>41.6614544391632080078125</LatitudeDegrees>
              <LongitudeDegrees>-0.1645992882549762725830078125</LongitudeDegrees>
            </Position>
            <AltitudeMeters>446.399993896484375</AltitudeMeters>
            <DistanceMeters>93807.036960005</DistanceMeters>
          </Trackpoint>
          <Trackpoint>
            <Time>2022-04-23T14:28:10.000Z</Time>
            <Position>
              <LatitudeDegrees>41.6615504957735538482666015625</LatitudeDegrees>
              <LongitudeDegrees>-0.16456400044262409210205078125</LongitudeDegrees>
            </Position>
            <AltitudeMeters>445.79998779296875</AltitudeMeters>
            <DistanceMeters>93818.123772016</DistanceMeters>
          </Trackpoint>
          <Trackpoint>
            <Time>2022-04-23T14:28:11.000Z</Time>
            <Position>
              <LatitudeDegrees>41.6616487316787242889404296875</LatitudeDegrees>
              <LongitudeDegrees>-0.1644879765808582305908203125</LongitudeDegrees>
            </Position>
            <AltitudeMeters>445.20001220703125</AltitudeMeters>
            <DistanceMeters>93830.753748278</DistanceMeters>
          </Trackpoint>
          <Trackpoint>
            <Time>2022-04-23T14:28:12.000Z</Time>
            <Position>
              <LatitudeDegrees>41.661730371415615081787109375</LatitudeDegrees>
              <LongitudeDegrees>-0.1644162274897098541259765625</LongitudeDegrees>
            </Position>
            <AltitudeMeters>444</AltitudeMeters>
            <DistanceMeters>93841.624239543</DistanceMeters>
          </Trackpoint>
          <Trackpoint>
            <Time>2022-04-23T14:28:13.000Z</Time>
            <Position>
              <LatitudeDegrees>41.66179901920258998870849609375</LatitudeDegrees>
              <LongitudeDegrees>-0.164370797574520111083984375</LongitudeDegrees>
            </Position>
            <AltitudeMeters>443.600006103515625</AltitudeMeters>
            <DistanceMeters>93850.147028694</DistanceMeters>
          </Trackpoint>
          <Trackpoint>
            <Time>2022-04-23T14:28:14.000Z</Time>
            <Position>
              <LatitudeDegrees>41.661889292299747467041015625</LatitudeDegrees>
              <LongitudeDegrees>-0.16432628966867923736572265625</LongitudeDegrees>
            </Position>
            <AltitudeMeters>443.399993896484375</AltitudeMeters>
            <DistanceMeters>93860.854730623</DistanceMeters>
          </Trackpoint>
          <Trackpoint>
            <Time>2022-04-23T14:28:15.000Z</Time>
            <Position>
              <LatitudeDegrees>41.6620031185448169708251953125</LatitudeDegrees>
              <LongitudeDegrees>-0.1642874814569950103759765625</LongitudeDegrees>
            </Position>
            <AltitudeMeters>442.20001220703125</AltitudeMeters>
            <DistanceMeters>93873.928417438</DistanceMeters>
          </Trackpoint>
          <Trackpoint>
            <Time>2022-04-23T14:28:17.000Z</Time>
            <Position>
              <LatitudeDegrees>41.66220218874514102935791015625</LatitudeDegrees>
              <LongitudeDegrees>-0.164218246936798095703125</LongitudeDegrees>
            </Position>
            <AltitudeMeters>441.399993896484375</AltitudeMeters>
            <DistanceMeters>93896.820982094</DistanceMeters>
          </Trackpoint>
          <Trackpoint>
            <Time>2022-04-23T14:28:18.000Z</Time>
            <Position>
              <LatitudeDegrees>41.66227527894079685211181640625</LatitudeDegrees>
              <LongitudeDegrees>-0.16418010927736759185791015625</LongitudeDegrees>
            </Position>
            <AltitudeMeters>441</AltitudeMeters>
            <DistanceMeters>93905.552070533</DistanceMeters>
          </Trackpoint>
          <Trackpoint>
            <Time>2022-04-23T14:28:21.000Z</Time>
            <Position>
              <LatitudeDegrees>41.66254215873777866363525390625</LatitudeDegrees>
              <LongitudeDegrees>-0.1639642752707004547119140625</LongitudeDegrees>
            </Position>
            <AltitudeMeters>439.79998779296875</AltitudeMeters>
            <DistanceMeters>93940.25686222</DistanceMeters>
          </Trackpoint>
          <Trackpoint>
            <Time>2022-04-23T14:28:22.000Z</Time>
            <Position>
              <LatitudeDegrees>41.6626166738569736480712890625</LatitudeDegrees>
              <LongitudeDegrees>-0.16386779956519603729248046875</LongitudeDegrees>
            </Position>
            <AltitudeMeters>439.79998779296875</AltitudeMeters>
            <DistanceMeters>93951.795469029</DistanceMeters>
          </Trackpoint>
          <Trackpoint>
            <Time>2022-04-23T14:28:24.000Z</Time>
            <Position>
              <LatitudeDegrees>41.6627464257180690765380859375</LatitudeDegrees>
              <LongitudeDegrees>-0.16365439631044864654541015625</LongitudeDegrees>
            </Position>
            <AltitudeMeters>438.79998779296875</AltitudeMeters>
            <DistanceMeters>93974.674223609</DistanceMeters>
          </Trackpoint>
          <Trackpoint>
            <Time>2022-04-23T14:28:26.000Z</Time>
            <Position>
              <LatitudeDegrees>41.6628523729741573333740234375</LatitudeDegrees>
              <LongitudeDegrees>-0.16341852955520153045654296875</LongitudeDegrees>
            </Position>
            <AltitudeMeters>438</AltitudeMeters>
            <DistanceMeters>93997.558700518</DistanceMeters>
          </Trackpoint>
          <Trackpoint>
            <Time>2022-04-23T14:28:27.000Z</Time>
            <Position>
              <LatitudeDegrees>41.66290174238383769989013671875</LatitudeDegrees>
              <LongitudeDegrees>-0.1633000932633876800537109375</LongitudeDegrees>
            </Position>
            <AltitudeMeters>437.600006103515625</AltitudeMeters>
            <DistanceMeters>94008.836093684</DistanceMeters>
          </Trackpoint>
          <Trackpoint>
            <Time>2022-04-23T14:28:28.000Z</Time>
            <Position>
              <LatitudeDegrees>41.66295203380286693572998046875</LatitudeDegrees>
              <LongitudeDegrees>-0.1631815731525421142578125</LongitudeDegrees>
            </Position>
            <AltitudeMeters>436.399993896484375</AltitudeMeters>
            <DistanceMeters>94020.16979729</DistanceMeters>
          </Trackpoint>
          <Trackpoint>
            <Time>2022-04-23T14:28:29.000Z</Time>
            <Position>
              <LatitudeDegrees>41.6630005650222301483154296875</LatitudeDegrees>
              <LongitudeDegrees>-0.16306732781231403350830078125</LongitudeDegrees>
            </Position>
            <AltitudeMeters>435</AltitudeMeters>
            <DistanceMeters>94031.098282594</DistanceMeters>
          </Trackpoint>
          <Trackpoint>
            <Time>2022-04-23T14:28:32.000Z</Time>
            <Position>
              <LatitudeDegrees>41.66317583061754703521728515625</LatitudeDegrees>
              <LongitudeDegrees>-0.1627445407211780548095703125</LongitudeDegrees>
            </Position>
            <AltitudeMeters>434</AltitudeMeters>
            <DistanceMeters>94064.278258479</DistanceMeters>
          </Trackpoint>
          <Trackpoint>
            <Time>2022-04-23T14:28:35.000Z</Time>
            <Position>
              <LatitudeDegrees>41.66335470043122768402099609375</LatitudeDegrees>
              <LongitudeDegrees>-0.16240733675658702850341796875</LongitudeDegrees>
            </Position>
            <AltitudeMeters>433.20001220703125</AltitudeMeters>
            <DistanceMeters>94098.665720445</DistanceMeters>
          </Trackpoint>
          <Trackpoint>
            <Time>2022-04-23T14:28:36.000Z</Time>
            <Position>
              <LatitudeDegrees>41.66339593939483165740966796875</LatitudeDegrees>
              <LongitudeDegrees>-0.16228412277996540069580078125</LongitudeDegrees>
            </Position>
            <AltitudeMeters>433</AltitudeMeters>
            <DistanceMeters>94109.891750324</DistanceMeters>
          </Trackpoint>
          <Trackpoint>
            <Time>2022-04-23T14:28:37.000Z</Time>
            <Position>
              <LatitudeDegrees>41.663430221378803253173828125</LatitudeDegrees>
              <LongitudeDegrees>-0.1621661894023418426513671875</LongitudeDegrees>
            </Position>
            <AltitudeMeters>432.399993896484375</AltitudeMeters>
            <DistanceMeters>94120.414430465</DistanceMeters>
          </Trackpoint>
          <Trackpoint>
            <Time>2022-04-23T14:28:38.000Z</Time>
            <Position>
              <LatitudeDegrees>41.66347389109432697296142578125</LatitudeDegrees>
              <LongitudeDegrees>-0.16205714084208011627197265625</LongitudeDegrees>
            </Position>
            <AltitudeMeters>432</AltitudeMeters>
            <DistanceMeters>94130.70236155</DistanceMeters>
          </Trackpoint>
          <Trackpoint>
            <Time>2022-04-23T14:28:39.000Z</Time>
            <Position>
              <LatitudeDegrees>41.66353206150233745574951171875</LatitudeDegrees>
              <LongitudeDegrees>-0.16196141950786113739013671875</LongitudeDegrees>
            </Position>
            <AltitudeMeters>431.600006103515625</AltitudeMeters>
            <DistanceMeters>94140.96172659</DistanceMeters>
          </Trackpoint>
          <Trackpoint>
            <Time>2022-04-23T14:28:40.000Z</Time>
            <Position>
              <LatitudeDegrees>41.663601882755756378173828125</LatitudeDegrees>
              <LongitudeDegrees>-0.1618781872093677520751953125</LongitudeDegrees>
            </Position>
            <AltitudeMeters>431</AltitudeMeters>
            <DistanceMeters>94151.367477242</DistanceMeters>
          </Trackpoint>
          <Trackpoint>
            <Time>2022-04-23T14:28:43.000Z</Time>
            <Position>
              <LatitudeDegrees>41.663854680955410003662109375</LatitudeDegrees>
              <LongitudeDegrees>-0.1616341061890125274658203125</LongitudeDegrees>
            </Position>
            <AltitudeMeters>429.600006103515625</AltitudeMeters>
            <DistanceMeters>94186.059907379</DistanceMeters>
          </Trackpoint>
          <Trackpoint>
            <Time>2022-04-23T14:28:46.000Z</Time>
            <Position>
              <LatitudeDegrees>41.6641341336071491241455078125</LatitudeDegrees>
              <LongitudeDegrees>-0.16142807900905609130859375</LongitudeDegrees>
            </Position>
            <AltitudeMeters>428.399993896484375</AltitudeMeters>
            <DistanceMeters>94221.569141307</DistanceMeters>
          </Trackpoint>
          <Trackpoint>
            <Time>2022-04-23T14:28:49.000Z</Time>
            <Position>
              <LatitudeDegrees>41.6644040308892726898193359375</LatitudeDegrees>
              <LongitudeDegrees>-0.1612052880227565765380859375</LongitudeDegrees>
            </Position>
            <AltitudeMeters>427.399993896484375</AltitudeMeters>
            <DistanceMeters>94256.86181228</DistanceMeters>
          </Trackpoint>
          <Trackpoint>
            <Time>2022-04-23T14:28:51.000Z</Time>
            <Position>
              <LatitudeDegrees>41.66456923820078372955322265625</LatitudeDegrees>
              <LongitudeDegrees>-0.16104963608086109161376953125</LongitudeDegrees>
            </Position>
            <AltitudeMeters>426.399993896484375</AltitudeMeters>
            <DistanceMeters>94279.347630927</DistanceMeters>
          </Trackpoint>
          <Trackpoint>
            <Time>2022-04-23T14:28:53.000Z</Time>
            <Position>
              <LatitudeDegrees>41.664719693362712860107421875</LatitudeDegrees>
              <LongitudeDegrees>-0.1608904637396335601806640625</LongitudeDegrees>
            </Position>
            <AltitudeMeters>425.600006103515625</AltitudeMeters>
            <DistanceMeters>94300.692077904</DistanceMeters>
          </Trackpoint>
          <Trackpoint>
            <Time>2022-04-23T14:28:54.000Z</Time>
            <Position>
              <LatitudeDegrees>41.6647803783416748046875</LatitudeDegrees>
              <LongitudeDegrees>-0.16080505214631557464599609375</LongitudeDegrees>
            </Position>
            <AltitudeMeters>425</AltitudeMeters>
            <DistanceMeters>94310.492276527</DistanceMeters>
          </Trackpoint>
          <Trackpoint>
            <Time>2022-04-23T14:28:59.000Z</Time>
            <Position>
              <LatitudeDegrees>41.66502940468490123748779296875</LatitudeDegrees>
              <LongitudeDegrees>-0.1604106836020946502685546875</LongitudeDegrees>
            </Position>
            <AltitudeMeters>425</AltitudeMeters>
            <DistanceMeters>94353.427949876</DistanceMeters>
          </Trackpoint>
          <Trackpoint>
            <Time>2022-04-23T14:29:03.000Z</Time>
            <Position>
              <LatitudeDegrees>41.6652006469666957855224609375</LatitudeDegrees>
              <LongitudeDegrees>-0.16013517044484615325927734375</LongitudeDegrees>
            </Position>
            <AltitudeMeters>426</AltitudeMeters>
            <DistanceMeters>94383.228333563</DistanceMeters>
          </Trackpoint>
          <Trackpoint>
            <Time>2022-04-23T14:29:05.000Z</Time>
            <Position>
              <LatitudeDegrees>41.66528203524649143218994140625</LatitudeDegrees>
              <LongitudeDegrees>-0.16001078300178050994873046875</LongitudeDegrees>
            </Position>
            <AltitudeMeters>426.399993896484375</AltitudeMeters>
            <DistanceMeters>94396.977356084</DistanceMeters>
          </Trackpoint>
          <Trackpoint>
            <Time>2022-04-23T14:29:06.000Z</Time>
            <Position>
              <LatitudeDegrees>41.66531790979206562042236328125</LatitudeDegrees>
              <LongitudeDegrees>-0.1599468290805816650390625</LongitudeDegrees>
            </Position>
            <AltitudeMeters>426.600006103515625</AltitudeMeters>
            <DistanceMeters>94403.627189491</DistanceMeters>
          </Trackpoint>
          <Trackpoint>
            <Time>2022-04-23T14:29:07.000Z</Time>
            <Position>
              <LatitudeDegrees>41.66531790979206562042236328125</LatitudeDegrees>
              <LongitudeDegrees>-0.1599468290805816650390625</LongitudeDegrees>
            </Position>
            <AltitudeMeters>426.79998779296875</AltitudeMeters>
            <DistanceMeters>94403.627189491</DistanceMeters>
          </Trackpoint>
          <Trackpoint>
            <Time>2022-04-23T14:29:09.000Z</Time>
            <Position>
              <LatitudeDegrees>41.66542612016201019287109375</LatitudeDegrees>
              <LongitudeDegrees>-0.159769468009471893310546875</LongitudeDegrees>
            </Position>
            <AltitudeMeters>427.399993896484375</AltitudeMeters>
            <DistanceMeters>94422.667422656</DistanceMeters>
          </Trackpoint>
          <Trackpoint>
            <Time>2022-04-23T14:29:10.000Z</Time>
            <Position>
              <LatitudeDegrees>41.6654547862708568572998046875</LatitudeDegrees>
              <LongitudeDegrees>-0.15970383770763874053955078125</LongitudeDegrees>
            </Position>
            <AltitudeMeters>427.79998779296875</AltitudeMeters>
            <DistanceMeters>94428.989377919</DistanceMeters>
          </Trackpoint>
          <Trackpoint>
            <Time>2022-04-23T14:29:12.000Z</Time>
            <Position>
              <LatitudeDegrees>41.6655040718615055084228515625</LatitudeDegrees>
              <LongitudeDegrees>-0.15955128706991672515869140625</LongitudeDegrees>
            </Position>
            <AltitudeMeters>428.20001220703125</AltitudeMeters>
            <DistanceMeters>94442.808497161</DistanceMeters>
          </Trackpoint>
          <Trackpoint>
            <Time>2022-04-23T14:29:18.000Z</Time>
            <Position>
              <LatitudeDegrees>41.66560037992894649505615234375</LatitudeDegrees>
              <LongitudeDegrees>-0.15901300124824047088623046875</LongitudeDegrees>
            </Position>
            <AltitudeMeters>428.600006103515625</AltitudeMeters>
            <DistanceMeters>94488.831064132</DistanceMeters>
          </Trackpoint>
          <Trackpoint>
            <Time>2022-04-23T14:29:19.000Z</Time>
            <Position>
              <LatitudeDegrees>41.66562535800039768218994140625</LatitudeDegrees>
              <LongitudeDegrees>-0.158912502229213714599609375</LongitudeDegrees>
            </Position>
            <AltitudeMeters>428.399993896484375</AltitudeMeters>
            <DistanceMeters>94497.637841441</DistanceMeters>
          </Trackpoint>
          <Trackpoint>
            <Time>2022-04-23T14:29:21.000Z</Time>
            <Position>
              <LatitudeDegrees>41.6656616516411304473876953125</LatitudeDegrees>
              <LongitudeDegrees>-0.15881719999015331268310546875</LongitudeDegrees>
            </Position>
            <AltitudeMeters>428.20001220703125</AltitudeMeters>
            <DistanceMeters>94506.531854576</DistanceMeters>
          </Trackpoint>
          <Trackpoint>
            <Time>2022-04-23T14:29:25.000Z</Time>
            <Position>
              <LatitudeDegrees>41.66589240543544292449951171875</LatitudeDegrees>
              <LongitudeDegrees>-0.15838033519685268402099609375</LongitudeDegrees>
            </Position>
            <AltitudeMeters>427</AltitudeMeters>
            <DistanceMeters>94551.018365044</DistanceMeters>
          </Trackpoint>
          <Trackpoint>
            <Time>2022-04-23T14:29:26.000Z</Time>
            <Position>
              <LatitudeDegrees>41.66589240543544292449951171875</LatitudeDegrees>
              <LongitudeDegrees>-0.15838033519685268402099609375</LongitudeDegrees>
            </Position>
            <AltitudeMeters>426.600006103515625</AltitudeMeters>
            <DistanceMeters>94551.018365044</DistanceMeters>
          </Trackpoint>
          <Trackpoint>
            <Time>2022-04-23T14:29:27.000Z</Time>
            <Position>
              <LatitudeDegrees>41.66594244539737701416015625</LatitudeDegrees>
              <LongitudeDegrees>-0.1581767387688159942626953125</LongitudeDegrees>
            </Position>
            <AltitudeMeters>426.399993896484375</AltitudeMeters>
            <DistanceMeters>94568.839611314</DistanceMeters>
          </Trackpoint>
          <Trackpoint>
            <Time>2022-04-23T14:29:29.000Z</Time>
            <Position>
              <LatitudeDegrees>41.66595627553761005401611328125</LatitudeDegrees>
              <LongitudeDegrees>-0.1579588092863559722900390625</LongitudeDegrees>
            </Position>
            <AltitudeMeters>426</AltitudeMeters>
            <DistanceMeters>94587.024755238</DistanceMeters>
          </Trackpoint>
          <Trackpoint>
            <Time>2022-04-23T14:29:31.000Z</Time>
            <Position>
              <LatitudeDegrees>41.66594755835831165313720703125</LatitudeDegrees>
              <LongitudeDegrees>-0.15773090533912181854248046875</LongitudeDegrees>
            </Position>
            <AltitudeMeters>425.600006103515625</AltitudeMeters>
            <DistanceMeters>94605.998713383</DistanceMeters>
          </Trackpoint>
          <Trackpoint>
            <Time>2022-04-23T14:29:34.000Z</Time>
            <Position>
              <LatitudeDegrees>41.6659499891102313995361328125</LatitudeDegrees>
              <LongitudeDegrees>-0.1573680527508258819580078125</LongitudeDegrees>
            </Position>
            <AltitudeMeters>425.20001220703125</AltitudeMeters>
            <DistanceMeters>94636.169957079</DistanceMeters>
          </Trackpoint>
          <Trackpoint>
            <Time>2022-04-23T14:29:35.000Z</Time>
            <Position>
              <LatitudeDegrees>41.66596365161240100860595703125</LatitudeDegrees>
              <LongitudeDegrees>-0.1572466827929019927978515625</LongitudeDegrees>
            </Position>
            <AltitudeMeters>425</AltitudeMeters>
            <DistanceMeters>94646.375489975</DistanceMeters>
          </Trackpoint>
          <Trackpoint>
            <Time>2022-04-23T14:29:37.000Z</Time>
            <Position>
              <LatitudeDegrees>41.66601327247917652130126953125</LatitudeDegrees>
              <LongitudeDegrees>-0.157020203769207000732421875</LongitudeDegrees>
            </Position>
            <AltitudeMeters>424.399993896484375</AltitudeMeters>
            <DistanceMeters>94665.999369307</DistanceMeters>
          </Trackpoint>
          <Trackpoint>
            <Time>2022-04-23T14:29:38.000Z</Time>
            <Position>
              <LatitudeDegrees>41.66604059748351573944091796875</LatitudeDegrees>
              <LongitudeDegrees>-0.15691014938056468963623046875</LongitudeDegrees>
            </Position>
            <AltitudeMeters>424</AltitudeMeters>
            <DistanceMeters>94675.642122915</DistanceMeters>
          </Trackpoint>
          <Trackpoint>
            <Time>2022-04-23T14:29:41.000Z</Time>
            <Position>
              <LatitudeDegrees>41.66607479564845561981201171875</LatitudeDegrees>
              <LongitudeDegrees>-0.1565509848296642303466796875</LongitudeDegrees>
            </Position>
            <AltitudeMeters>423.399993896484375</AltitudeMeters>
            <DistanceMeters>94705.746849989</DistanceMeters>
          </Trackpoint>
          <Trackpoint>
            <Time>2022-04-23T14:29:42.000Z</Time>
            <Position>
              <LatitudeDegrees>41.66606021113693714141845703125</LatitudeDegrees>
              <LongitudeDegrees>-0.15641947276890277862548828125</LongitudeDegrees>
            </Position>
            <AltitudeMeters>423</AltitudeMeters>
            <DistanceMeters>94716.801442904</DistanceMeters>
          </Trackpoint>
          <Trackpoint>
            <Time>2022-04-23T14:29:46.000Z</Time>
            <Position>
              <LatitudeDegrees>41.66592408902943134307861328125</LatitudeDegrees>
              <LongitudeDegrees>-0.15588386915624141693115234375</LongitudeDegrees>
            </Position>
            <AltitudeMeters>422</AltitudeMeters>
            <DistanceMeters>94763.841490227</DistanceMeters>
          </Trackpoint>
          <Trackpoint>
            <Time>2022-04-23T14:29:47.000Z</Time>
            <Position>
              <LatitudeDegrees>41.665879748761653900146484375</LatitudeDegrees>
              <LongitudeDegrees>-0.15574540011584758758544921875</LongitudeDegrees>
            </Position>
            <AltitudeMeters>421</AltitudeMeters>
            <DistanceMeters>94776.367727024</DistanceMeters>
          </Trackpoint>
          <Trackpoint>
            <Time>2022-04-23T14:29:49.000Z</Time>
            <Position>
              <LatitudeDegrees>41.66580858640372753143310546875</LatitudeDegrees>
              <LongitudeDegrees>-0.155494026839733123779296875</LongitudeDegrees>
            </Position>
            <AltitudeMeters>418.79998779296875</AltitudeMeters>
            <DistanceMeters>94798.719012204</DistanceMeters>
          </Trackpoint>
          <Trackpoint>
            <Time>2022-04-23T14:29:50.000Z</Time>
            <Position>
              <LatitudeDegrees>41.665769107639789581298828125</LatitudeDegrees>
              <LongitudeDegrees>-0.1553258858621120452880859375</LongitudeDegrees>
            </Position>
            <AltitudeMeters>418.20001220703125</AltitudeMeters>
            <DistanceMeters>94813.373783033</DistanceMeters>
          </Trackpoint>
          <Trackpoint>
            <Time>2022-04-23T14:29:51.000Z</Time>
            <Position>
              <LatitudeDegrees>41.66574505157768726348876953125</LatitudeDegrees>
              <LongitudeDegrees>-0.155213735997676849365234375</LongitudeDegrees>
            </Position>
            <AltitudeMeters>416</AltitudeMeters>
            <DistanceMeters>94823.075819771</DistanceMeters>
          </Trackpoint>
          <Trackpoint>
            <Time>2022-04-23T14:29:53.000Z</Time>
            <Position>
              <LatitudeDegrees>41.6656968556344509124755859375</LatitudeDegrees>
              <LongitudeDegrees>-0.15494383871555328369140625</LongitudeDegrees>
            </Position>
            <AltitudeMeters>414</AltitudeMeters>
            <DistanceMeters>94846.149120073</DistanceMeters>
          </Trackpoint>
          <Trackpoint>
            <Time>2022-04-23T14:29:54.000Z</Time>
            <Position>
              <LatitudeDegrees>41.6656827740371227264404296875</LatitudeDegrees>
              <LongitudeDegrees>-0.15481115318834781646728515625</LongitudeDegrees>
            </Position>
            <AltitudeMeters>413</AltitudeMeters>
            <DistanceMeters>94857.29199004</DistanceMeters>
          </Trackpoint>
          <Trackpoint>
            <Time>2022-04-23T14:29:55.000Z</Time>
            <Position>
              <LatitudeDegrees>41.665676571428775787353515625</LatitudeDegrees>
              <LongitudeDegrees>-0.1546459458768367767333984375</LongitudeDegrees>
            </Position>
            <AltitudeMeters>412.399993896484375</AltitudeMeters>
            <DistanceMeters>94871.045937525</DistanceMeters>
          </Trackpoint>
          <Trackpoint>
            <Time>2022-04-23T14:29:56.000Z</Time>
            <Position>
              <LatitudeDegrees>41.66567263193428516387939453125</LatitudeDegrees>
              <LongitudeDegrees>-0.1545314490795135498046875</LongitudeDegrees>
            </Position>
            <AltitudeMeters>411</AltitudeMeters>
            <DistanceMeters>94880.576126866</DistanceMeters>
          </Trackpoint>
          <Trackpoint>
            <Time>2022-04-23T14:29:57.000Z</Time>
            <Position>
              <LatitudeDegrees>41.665664501488208770751953125</LatitudeDegrees>
              <LongitudeDegrees>-0.1543918065726757049560546875</LongitudeDegrees>
            </Position>
            <AltitudeMeters>409.79998779296875</AltitudeMeters>
            <DistanceMeters>94892.222231287</DistanceMeters>
          </Trackpoint>
          <Trackpoint>
            <Time>2022-04-23T14:29:58.000Z</Time>
            <Position>
              <LatitudeDegrees>41.66565704159438610076904296875</LatitudeDegrees>
              <LongitudeDegrees>-0.15425308607518672943115234375</LongitudeDegrees>
            </Position>
            <AltitudeMeters>408.600006103515625</AltitudeMeters>
            <DistanceMeters>94903.78624452</DistanceMeters>
          </Trackpoint>
          <Trackpoint>
            <Time>2022-04-23T14:30:00.000Z</Time>
            <Position>
              <LatitudeDegrees>41.66564849205315113067626953125</LatitudeDegrees>
              <LongitudeDegrees>-0.15397195704281330108642578125</LongitudeDegrees>
            </Position>
            <AltitudeMeters>407.20001220703125</AltitudeMeters>
            <DistanceMeters>94927.180771726</DistanceMeters>
          </Trackpoint>
          <Trackpoint>
            <Time>2022-04-23T14:30:02.000Z</Time>
            <Position>
              <LatitudeDegrees>41.66564413346350193023681640625</LatitudeDegrees>
              <LongitudeDegrees>-0.15377649106085300445556640625</LongitudeDegrees>
            </Position>
            <AltitudeMeters>405.600006103515625</AltitudeMeters>
            <DistanceMeters>94943.440339619</DistanceMeters>
          </Trackpoint>
          <Trackpoint>
            <Time>2022-04-23T14:30:03.000Z</Time>
            <Position>
              <LatitudeDegrees>41.66563642211258411407470703125</LatitudeDegrees>
              <LongitudeDegrees>-0.15370859764516353607177734375</LongitudeDegrees>
            </Position>
            <AltitudeMeters>404.600006103515625</AltitudeMeters>
            <DistanceMeters>94949.149855882</DistanceMeters>
          </Trackpoint>
          <Trackpoint>
            <Time>2022-04-23T14:30:05.000Z</Time>
            <Position>
              <LatitudeDegrees>41.66558227501809597015380859375</LatitudeDegrees>
              <LongitudeDegrees>-0.153610445559024810791015625</LongitudeDegrees>
            </Position>
            <AltitudeMeters>403</AltitudeMeters>
            <DistanceMeters>94959.294152366</DistanceMeters>
          </Trackpoint>
          <Trackpoint>
            <Time>2022-04-23T14:30:06.000Z</Time>
            <Position>
              <LatitudeDegrees>41.665537096560001373291015625</LatitudeDegrees>
              <LongitudeDegrees>-0.15358152799308300018310546875</LongitudeDegrees>
            </Position>
            <AltitudeMeters>401.600006103515625</AltitudeMeters>
            <DistanceMeters>94964.867612958</DistanceMeters>
          </Trackpoint>
          <Trackpoint>
            <Time>2022-04-23T14:30:07.000Z</Time>
            <Position>
              <LatitudeDegrees>41.66548353619873523712158203125</LatitudeDegrees>
              <LongitudeDegrees>-0.15357364900410175323486328125</LongitudeDegrees>
            </Position>
            <AltitudeMeters>399.79998779296875</AltitudeMeters>
            <DistanceMeters>94970.864092292</DistanceMeters>
          </Trackpoint>
          <Trackpoint>
            <Time>2022-04-23T14:30:08.000Z</Time>
            <Position>
              <LatitudeDegrees>41.6654333285987377166748046875</LatitudeDegrees>
              <LongitudeDegrees>-0.153582282364368438720703125</LongitudeDegrees>
            </Position>
            <AltitudeMeters>399.20001220703125</AltitudeMeters>
            <DistanceMeters>94976.498783834</DistanceMeters>
          </Trackpoint>
          <Trackpoint>
            <Time>2022-04-23T14:30:09.000Z</Time>
            <Position>
              <LatitudeDegrees>41.66536577045917510986328125</LatitudeDegrees>
              <LongitudeDegrees>-0.153602398931980133056640625</LongitudeDegrees>
            </Position>
            <AltitudeMeters>398.600006103515625</AltitudeMeters>
            <DistanceMeters>94984.202397427</DistanceMeters>
          </Trackpoint>
          <Trackpoint>
            <Time>2022-04-23T14:30:12.000Z</Time>
            <Position>
              <LatitudeDegrees>41.66511925868690013885498046875</LatitudeDegrees>
              <LongitudeDegrees>-0.15370289795100688934326171875</LongitudeDegrees>
            </Position>
            <AltitudeMeters>397.600006103515625</AltitudeMeters>
            <DistanceMeters>95012.883940865</DistanceMeters>
          </Trackpoint>
          <Trackpoint>
            <Time>2022-04-23T14:30:16.000Z</Time>
            <Position>
              <LatitudeDegrees>41.66478666476905345916748046875</LatitudeDegrees>
              <LongitudeDegrees>-0.15387657098472118377685546875</LongitudeDegrees>
            </Position>
            <AltitudeMeters>396.399993896484375</AltitudeMeters>
            <DistanceMeters>95052.619199843</DistanceMeters>
          </Trackpoint>
          <Trackpoint>
            <Time>2022-04-23T14:30:17.000Z</Time>
            <Position>
              <LatitudeDegrees>41.66468306444585323333740234375</LatitudeDegrees>
              <LongitudeDegrees>-0.153951086103916168212890625</LongitudeDegrees>
            </Position>
            <AltitudeMeters>395.79998779296875</AltitudeMeters>
            <DistanceMeters>95065.70910819</DistanceMeters>
          </Trackpoint>
          <Trackpoint>
            <Time>2022-04-23T14:30:18.000Z</Time>
            <Position>
              <LatitudeDegrees>41.664605028927326202392578125</LatitudeDegrees>
              <LongitudeDegrees>-0.15403549186885356903076171875</LongitudeDegrees>
            </Position>
            <AltitudeMeters>395.600006103515625</AltitudeMeters>
            <DistanceMeters>95076.875454751</DistanceMeters>
          </Trackpoint>
          <Trackpoint>
            <Time>2022-04-23T14:30:19.000Z</Time>
            <Position>
              <LatitudeDegrees>41.66455197148025035858154296875</LatitudeDegrees>
              <LongitudeDegrees>-0.154113359749317169189453125</LongitudeDegrees>
            </Position>
            <AltitudeMeters>395.399993896484375</AltitudeMeters>
            <DistanceMeters>95085.638546106</DistanceMeters>
          </Trackpoint>
          <Trackpoint>
            <Time>2022-04-23T14:30:20.000Z</Time>
            <Position>
              <LatitudeDegrees>41.66448793374001979827880859375</LatitudeDegrees>
              <LongitudeDegrees>-0.15422894619405269622802734375</LongitudeDegrees>
            </Position>
            <AltitudeMeters>395.20001220703125</AltitudeMeters>
            <DistanceMeters>95097.603613257</DistanceMeters>
          </Trackpoint>
          <Trackpoint>
            <Time>2022-04-23T14:30:21.000Z</Time>
            <Position>
              <LatitudeDegrees>41.66441501118242740631103515625</LatitudeDegrees>
              <LongitudeDegrees>-0.15436674468219280242919921875</LongitudeDegrees>
            </Position>
            <AltitudeMeters>394.399993896484375</AltitudeMeters>
            <DistanceMeters>95111.645076467</DistanceMeters>
          </Trackpoint>
          <Trackpoint>
            <Time>2022-04-23T14:30:22.000Z</Time>
            <Position>
              <LatitudeDegrees>41.66435298509895801544189453125</LatitudeDegrees>
              <LongitudeDegrees>-0.15448442660272121429443359375</LongitudeDegrees>
            </Position>
            <AltitudeMeters>394</AltitudeMeters>
            <DistanceMeters>95123.620704805</DistanceMeters>
          </Trackpoint>
          <Trackpoint>
            <Time>2022-04-23T14:30:24.000Z</Time>
            <Position>
              <LatitudeDegrees>41.6642360575497150421142578125</LatitudeDegrees>
              <LongitudeDegrees>-0.15470051206648349761962890625</LongitudeDegrees>
            </Position>
            <AltitudeMeters>392.399993896484375</AltitudeMeters>
            <DistanceMeters>95145.80613576</DistanceMeters>
          </Trackpoint>
          <Trackpoint>
            <Time>2022-04-23T14:30:26.000Z</Time>
            <Position>
              <LatitudeDegrees>41.66408895514905452728271484375</LatitudeDegrees>
              <LongitudeDegrees>-0.15495180152356624603271484375</LongitudeDegrees>
            </Position>
            <AltitudeMeters>391</AltitudeMeters>
            <DistanceMeters>95172.351436384</DistanceMeters>
          </Trackpoint>
          <Trackpoint>
            <Time>2022-04-23T14:30:27.000Z</Time>
            <Position>
              <LatitudeDegrees>41.66403128765523433685302734375</LatitudeDegrees>
              <LongitudeDegrees>-0.15506428666412830352783203125</LongitudeDegrees>
            </Position>
            <AltitudeMeters>390.20001220703125</AltitudeMeters>
            <DistanceMeters>95183.695094935</DistanceMeters>
          </Trackpoint>
          <Trackpoint>
            <Time>2022-04-23T14:30:28.000Z</Time>
            <Position>
              <LatitudeDegrees>41.66397982276976108551025390625</LatitudeDegrees>
              <LongitudeDegrees>-0.1551833935081958770751953125</LongitudeDegrees>
            </Position>
            <AltitudeMeters>389.399993896484375</AltitudeMeters>
            <DistanceMeters>95195.135853566</DistanceMeters>
          </Trackpoint>
          <Trackpoint>
            <Time>2022-04-23T14:30:30.000Z</Time>
            <Position>
              <LatitudeDegrees>41.66396775282919406890869140625</LatitudeDegrees>
              <LongitudeDegrees>-0.1554412208497524261474609375</LongitudeDegrees>
            </Position>
            <AltitudeMeters>388.20001220703125</AltitudeMeters>
            <DistanceMeters>95216.61567493</DistanceMeters>
          </Trackpoint>
          <Trackpoint>
            <Time>2022-04-23T14:30:33.000Z</Time>
            <Position>
              <LatitudeDegrees>41.6640199720859527587890625</LatitudeDegrees>
              <LongitudeDegrees>-0.155818574130535125732421875</LongitudeDegrees>
            </Position>
            <AltitudeMeters>386.20001220703125</AltitudeMeters>
            <DistanceMeters>95248.525979537</DistanceMeters>
          </Trackpoint>
          <Trackpoint>
            <Time>2022-04-23T14:30:35.000Z</Time>
            <Position>
              <LatitudeDegrees>41.66402877308428287506103515625</LatitudeDegrees>
              <LongitudeDegrees>-0.15603390522301197052001953125</LongitudeDegrees>
            </Position>
            <AltitudeMeters>384.600006103515625</AltitudeMeters>
            <DistanceMeters>95266.457095004</DistanceMeters>
          </Trackpoint>
          <Trackpoint>
            <Time>2022-04-23T14:30:37.000Z</Time>
            <Position>
              <LatitudeDegrees>41.66400999762117862701416015625</LatitudeDegrees>
              <LongitudeDegrees>-0.15621721744537353515625</LongitudeDegrees>
            </Position>
            <AltitudeMeters>383.600006103515625</AltitudeMeters>
            <DistanceMeters>95281.842327983</DistanceMeters>
          </Trackpoint>
          <Trackpoint>
            <Time>2022-04-23T14:30:38.000Z</Time>
            <Position>
              <LatitudeDegrees>41.66399105452001094818115234375</LatitudeDegrees>
              <LongitudeDegrees>-0.156290642917156219482421875</LongitudeDegrees>
            </Position>
            <AltitudeMeters>382.79998779296875</AltitudeMeters>
            <DistanceMeters>95288.302048042</DistanceMeters>
          </Trackpoint>
          <Trackpoint>
            <Time>2022-04-23T14:30:39.000Z</Time>
            <Position>
              <LatitudeDegrees>41.66396574117243289947509765625</LatitudeDegrees>
              <LongitudeDegrees>-0.1563219912350177764892578125</LongitudeDegrees>
            </Position>
            <AltitudeMeters>381.600006103515625</AltitudeMeters>
            <DistanceMeters>95292.139762816</DistanceMeters>
          </Trackpoint>
          <Trackpoint>
            <Time>2022-04-23T14:30:40.000Z</Time>
            <Position>
              <LatitudeDegrees>41.663918383419513702392578125</LatitudeDegrees>
              <LongitudeDegrees>-0.15631335787475109100341796875</LongitudeDegrees>
            </Position>
            <AltitudeMeters>380.20001220703125</AltitudeMeters>
            <DistanceMeters>95297.459561644</DistanceMeters>
          </Trackpoint>
          <Trackpoint>
            <Time>2022-04-23T14:30:42.000Z</Time>
            <Position>
              <LatitudeDegrees>41.6638585366308689117431640625</LatitudeDegrees>
              <LongitudeDegrees>-0.15621118247509002685546875</LongitudeDegrees>
            </Position>
            <AltitudeMeters>378.399993896484375</AltitudeMeters>
            <DistanceMeters>95308.255031369</DistanceMeters>
          </Trackpoint>
          <Trackpoint>
            <Time>2022-04-23T14:30:43.000Z</Time>
            <Position>
              <LatitudeDegrees>41.663854680955410003662109375</LatitudeDegrees>
              <LongitudeDegrees>-0.15613750554621219635009765625</LongitudeDegrees>
            </Position>
            <AltitudeMeters>378</AltitudeMeters>
            <DistanceMeters>95314.395845585</DistanceMeters>
          </Trackpoint>
          <Trackpoint>
            <Time>2022-04-23T14:30:44.000Z</Time>
            <Position>
              <LatitudeDegrees>41.66386130265891551971435546875</LatitudeDegrees>
              <LongitudeDegrees>-0.1560495793819427490234375</LongitudeDegrees>
            </Position>
            <AltitudeMeters>377.20001220703125</AltitudeMeters>
            <DistanceMeters>95321.743690647</DistanceMeters>
          </Trackpoint>
          <Trackpoint>
            <Time>2022-04-23T14:30:45.000Z</Time>
            <Position>
              <LatitudeDegrees>41.66386507451534271240234375</LatitudeDegrees>
              <LongitudeDegrees>-0.155953355133533477783203125</LongitudeDegrees>
            </Position>
            <AltitudeMeters>377</AltitudeMeters>
            <DistanceMeters>95329.755293693</DistanceMeters>
          </Trackpoint>
          <Trackpoint>
            <Time>2022-04-23T14:30:46.000Z</Time>
            <Position>
              <LatitudeDegrees>41.6638659127056598663330078125</LatitudeDegrees>
              <LongitudeDegrees>-0.155848748981952667236328125</LongitudeDegrees>
            </Position>
            <AltitudeMeters>376.399993896484375</AltitudeMeters>
            <DistanceMeters>95338.453223357</DistanceMeters>
          </Trackpoint>
          <Trackpoint>
            <Time>2022-04-23T14:30:47.000Z</Time>
            <Position>
              <LatitudeDegrees>41.6638571955263614654541015625</LatitudeDegrees>
              <LongitudeDegrees>-0.15574070625007152557373046875</LongitudeDegrees>
            </Position>
            <AltitudeMeters>375.79998779296875</AltitudeMeters>
            <DistanceMeters>95347.488759928</DistanceMeters>
          </Trackpoint>
          <Trackpoint>
            <Time>2022-04-23T14:30:51.000Z</Time>
            <Position>
              <LatitudeDegrees>41.6637998633086681365966796875</LatitudeDegrees>
              <LongitudeDegrees>-0.15529026277363300323486328125</LongitudeDegrees>
            </Position>
            <AltitudeMeters>374.79998779296875</AltitudeMeters>
            <DistanceMeters>95385.482337018</DistanceMeters>
          </Trackpoint>
          <Trackpoint>
            <Time>2022-04-23T14:30:52.000Z</Time>
            <Position>
              <LatitudeDegrees>41.6637961752712726593017578125</LatitudeDegrees>
              <LongitudeDegrees>-0.1551719941198825836181640625</LongitudeDegrees>
            </Position>
            <AltitudeMeters>374.600006103515625</AltitudeMeters>
            <DistanceMeters>95395.324829593</DistanceMeters>
          </Trackpoint>
          <Trackpoint>
            <Time>2022-04-23T14:30:53.000Z</Time>
            <Position>
              <LatitudeDegrees>41.6637998633086681365966796875</LatitudeDegrees>
              <LongitudeDegrees>-0.1550533063709735870361328125</LongitudeDegrees>
            </Position>
            <AltitudeMeters>374.20001220703125</AltitudeMeters>
            <DistanceMeters>95405.202124055</DistanceMeters>
          </Trackpoint>
          <Trackpoint>
            <Time>2022-04-23T14:30:55.000Z</Time>
            <Position>
              <LatitudeDegrees>41.66384168900549411773681640625</LatitudeDegrees>
              <LongitudeDegrees>-0.15480997972190380096435546875</LongitudeDegrees>
            </Position>
            <AltitudeMeters>373.399993896484375</AltitudeMeters>
            <DistanceMeters>95425.963232138</DistanceMeters>
          </Trackpoint>
          <Trackpoint>
            <Time>2022-04-23T14:30:57.000Z</Time>
            <Position>
              <LatitudeDegrees>41.6638994403183460235595703125</LatitudeDegrees>
              <LongitudeDegrees>-0.15455869026482105255126953125</LongitudeDegrees>
            </Position>
            <AltitudeMeters>372</AltitudeMeters>
            <DistanceMeters>95447.824333796</DistanceMeters>
          </Trackpoint>
          <Trackpoint>
            <Time>2022-04-23T14:31:00.000Z</Time>
            <Position>
              <LatitudeDegrees>41.66399541310966014862060546875</LatitudeDegrees>
              <LongitudeDegrees>-0.15416792593896389007568359375</LongitudeDegrees>
            </Position>
            <AltitudeMeters>371</AltitudeMeters>
            <DistanceMeters>95482.026823224</DistanceMeters>
          </Trackpoint>
          <Trackpoint>
            <Time>2022-04-23T14:31:01.000Z</Time>
            <Position>
              <LatitudeDegrees>41.66403531096875667572021484375</LatitudeDegrees>
              <LongitudeDegrees>-0.15403716824948787689208984375</LongitudeDegrees>
            </Position>
            <AltitudeMeters>370.600006103515625</AltitudeMeters>
            <DistanceMeters>95493.771371647</DistanceMeters>
          </Trackpoint>
          <Trackpoint>
            <Time>2022-04-23T14:31:02.000Z</Time>
            <Position>
              <LatitudeDegrees>41.66408107616007328033447265625</LatitudeDegrees>
              <LongitudeDegrees>-0.15390984714031219482421875</LongitudeDegrees>
            </Position>
            <AltitudeMeters>370</AltitudeMeters>
            <DistanceMeters>95505.519379494</DistanceMeters>
          </Trackpoint>
          <Trackpoint>
            <Time>2022-04-23T14:31:03.000Z</Time>
            <Position>
              <LatitudeDegrees>41.6641405038535594940185546875</LatitudeDegrees>
              <LongitudeDegrees>-0.1537896506488323211669921875</LongitudeDegrees>
            </Position>
            <AltitudeMeters>369</AltitudeMeters>
            <DistanceMeters>95517.50405287</DistanceMeters>
          </Trackpoint>
          <Trackpoint>
            <Time>2022-04-23T14:31:04.000Z</Time>
            <Position>
              <LatitudeDegrees>41.6642062179744243621826171875</LatitudeDegrees>
              <LongitudeDegrees>-0.1536756567656993865966796875</LongitudeDegrees>
            </Position>
            <AltitudeMeters>368.79998779296875</AltitudeMeters>
            <DistanceMeters>95529.476287557</DistanceMeters>
          </Trackpoint>
          <Trackpoint>
            <Time>2022-04-23T14:31:05.000Z</Time>
            <Position>
              <LatitudeDegrees>41.66426715441048145294189453125</LatitudeDegrees>
              <LongitudeDegrees>-0.15356459654867649078369140625</LongitudeDegrees>
            </Position>
            <AltitudeMeters>367.600006103515625</AltitudeMeters>
            <DistanceMeters>95540.934003356</DistanceMeters>
          </Trackpoint>
          <Trackpoint>
            <Time>2022-04-23T14:31:07.000Z</Time>
            <Position>
              <LatitudeDegrees>41.66436086408793926239013671875</LatitudeDegrees>
              <LongitudeDegrees>-0.15334465540945529937744140625</LongitudeDegrees>
            </Position>
            <AltitudeMeters>366.399993896484375</AltitudeMeters>
            <DistanceMeters>95561.986656681</DistanceMeters>
          </Trackpoint>
          <Trackpoint>
            <Time>2022-04-23T14:31:08.000Z</Time>
            <Position>
              <LatitudeDegrees>41.66439154185354709625244140625</LatitudeDegrees>
              <LongitudeDegrees>-0.1532652787864208221435546875</LongitudeDegrees>
            </Position>
            <AltitudeMeters>366</AltitudeMeters>
            <DistanceMeters>95569.417599922</DistanceMeters>
          </Trackpoint>
          <Trackpoint>
            <Time>2022-04-23T14:31:09.000Z</Time>
            <Position>
              <LatitudeDegrees>41.6644410789012908935546875</LatitudeDegrees>
              <LongitudeDegrees>-0.153151117265224456787109375</LongitudeDegrees>
            </Position>
            <AltitudeMeters>365</AltitudeMeters>
            <DistanceMeters>95580.394727965</DistanceMeters>
          </Trackpoint>
          <Trackpoint>
            <Time>2022-04-23T14:31:11.000Z</Time>
            <Position>
              <LatitudeDegrees>41.6645535640418529510498046875</LatitudeDegrees>
              <LongitudeDegrees>-0.1529883407056331634521484375</LongitudeDegrees>
            </Position>
            <AltitudeMeters>363.79998779296875</AltitudeMeters>
            <DistanceMeters>95598.831869763</DistanceMeters>
          </Trackpoint>
          <Trackpoint>
            <Time>2022-04-23T14:31:13.000Z</Time>
            <Position>
              <LatitudeDegrees>41.66469194926321506500244140625</LatitudeDegrees>
              <LongitudeDegrees>-0.15287694521248340606689453125</LongitudeDegrees>
            </Position>
            <AltitudeMeters>362.399993896484375</AltitudeMeters>
            <DistanceMeters>95616.805237691</DistanceMeters>
          </Trackpoint>
          <Trackpoint>
            <Time>2022-04-23T14:31:14.000Z</Time>
            <Position>
              <LatitudeDegrees>41.6647942923009395599365234375</LatitudeDegrees>
              <LongitudeDegrees>-0.1528183557093143463134765625</LongitudeDegrees>
            </Position>
            <AltitudeMeters>361.600006103515625</AltitudeMeters>
            <DistanceMeters>95629.194476546</DistanceMeters>
          </Trackpoint>
          <Trackpoint>
            <Time>2022-04-23T14:31:15.000Z</Time>
            <Position>
              <LatitudeDegrees>41.664865873754024505615234375</LatitudeDegrees>
              <LongitudeDegrees>-0.1527834869921207427978515625</LongitudeDegrees>
            </Position>
            <AltitudeMeters>361.20001220703125</AltitudeMeters>
            <DistanceMeters>95637.67264902</DistanceMeters>
          </Trackpoint>
          <Trackpoint>
            <Time>2022-04-23T14:31:17.000Z</Time>
            <Position>
              <LatitudeDegrees>41.665061675012111663818359375</LatitudeDegrees>
              <LongitudeDegrees>-0.15267795883119106292724609375</LongitudeDegrees>
            </Position>
            <AltitudeMeters>359.600006103515625</AltitudeMeters>
            <DistanceMeters>95661.165589922</DistanceMeters>
          </Trackpoint>
          <Trackpoint>
            <Time>2022-04-23T14:31:20.000Z</Time>
            <Position>
              <LatitudeDegrees>41.66534087620675563812255859375</LatitudeDegrees>
              <LongitudeDegrees>-0.1525434292852878570556640625</LongitudeDegrees>
            </Position>
            <AltitudeMeters>359.20001220703125</AltitudeMeters>
            <DistanceMeters>95694.193081112</DistanceMeters>
          </Trackpoint>
          <Trackpoint>
            <Time>2022-04-23T14:31:22.000Z</Time>
            <Position>
              <LatitudeDegrees>41.6655322350561618804931640625</LatitudeDegrees>
              <LongitudeDegrees>-0.15242247842252254486083984375</LongitudeDegrees>
            </Position>
            <AltitudeMeters>358.79998779296875</AltitudeMeters>
            <DistanceMeters>95717.746674817</DistanceMeters>
          </Trackpoint>
          <Trackpoint>
            <Time>2022-04-23T14:31:23.000Z</Time>
            <Position>
              <LatitudeDegrees>41.66561923921108245849609375</LatitudeDegrees>
              <LongitudeDegrees>-0.1523395814001560211181640625</LongitudeDegrees>
            </Position>
            <AltitudeMeters>358.399993896484375</AltitudeMeters>
            <DistanceMeters>95729.632993677</DistanceMeters>
          </Trackpoint>
          <Trackpoint>
            <Time>2022-04-23T14:31:28.000Z</Time>
            <Position>
              <LatitudeDegrees>41.6660525836050510406494140625</LatitudeDegrees>
              <LongitudeDegrees>-0.15188586898148059844970703125</LongitudeDegrees>
            </Position>
            <AltitudeMeters>357.399993896484375</AltitudeMeters>
            <DistanceMeters>95790.865896116</DistanceMeters>
          </Trackpoint>
          <Trackpoint>
            <Time>2022-04-23T14:31:30.000Z</Time>
            <Position>
              <LatitudeDegrees>41.66623220779001712799072265625</LatitudeDegrees>
              <LongitudeDegrees>-0.1517820172011852264404296875</LongitudeDegrees>
            </Position>
            <AltitudeMeters>356</AltitudeMeters>
            <DistanceMeters>95812.643191282</DistanceMeters>
          </Trackpoint>
          <Trackpoint>
            <Time>2022-04-23T14:31:31.000Z</Time>
            <Position>
              <LatitudeDegrees>41.66635491885244846343994140625</LatitudeDegrees>
              <LongitudeDegrees>-0.15173750929534435272216796875</LongitudeDegrees>
            </Position>
            <AltitudeMeters>355.399993896484375</AltitudeMeters>
            <DistanceMeters>95826.793559301</DistanceMeters>
          </Trackpoint>
          <Trackpoint>
            <Time>2022-04-23T14:31:32.000Z</Time>
            <Position>
              <LatitudeDegrees>41.66645349003374576568603515625</LatitudeDegrees>
              <LongitudeDegrees>-0.15170431695878505706787109375</LongitudeDegrees>
            </Position>
            <AltitudeMeters>354.20001220703125</AltitudeMeters>
            <DistanceMeters>95838.106129449</DistanceMeters>
          </Trackpoint>
          <Trackpoint>
            <Time>2022-04-23T14:31:34.000Z</Time>
            <Position>
              <LatitudeDegrees>41.66664292104542255401611328125</LatitudeDegrees>
              <LongitudeDegrees>-0.15164740383625030517578125</LongitudeDegrees>
            </Position>
            <AltitudeMeters>353</AltitudeMeters>
            <DistanceMeters>95859.71462761</DistanceMeters>
          </Trackpoint>
          <Trackpoint>
            <Time>2022-04-23T14:31:35.000Z</Time>
            <Position>
              <LatitudeDegrees>41.66673713363707065582275390625</LatitudeDegrees>
              <LongitudeDegrees>-0.15163944102823734283447265625</LongitudeDegrees>
            </Position>
            <AltitudeMeters>352.600006103515625</AltitudeMeters>
            <DistanceMeters>95870.221849631</DistanceMeters>
          </Trackpoint>
          <Trackpoint>
            <Time>2022-04-23T14:31:36.000Z</Time>
            <Position>
              <LatitudeDegrees>41.66680821217596530914306640625</LatitudeDegrees>
              <LongitudeDegrees>-0.15165469609200954437255859375</LongitudeDegrees>
            </Position>
            <AltitudeMeters>352.399993896484375</AltitudeMeters>
            <DistanceMeters>95878.23401622</DistanceMeters>
          </Trackpoint>
          <Trackpoint>
            <Time>2022-04-23T14:31:38.000Z</Time>
            <Position>
              <LatitudeDegrees>41.66697107255458831787109375</LatitudeDegrees>
              <LongitudeDegrees>-0.1517347432672977447509765625</LongitudeDegrees>
            </Position>
            <AltitudeMeters>352.20001220703125</AltitudeMeters>
            <DistanceMeters>95897.543856108</DistanceMeters>
          </Trackpoint>
          <Trackpoint>
            <Time>2022-04-23T14:31:39.000Z</Time>
            <Position>
              <LatitudeDegrees>41.66704257018864154815673828125</LatitudeDegrees>
              <LongitudeDegrees>-0.151781179010868072509765625</LongitudeDegrees>
            </Position>
            <AltitudeMeters>352.20001220703125</AltitudeMeters>
            <DistanceMeters>95906.38900067</DistanceMeters>
          </Trackpoint>
          <Trackpoint>
            <Time>2022-04-23T14:31:41.000Z</Time>
            <Position>
              <LatitudeDegrees>41.6671983897686004638671875</LatitudeDegrees>
              <LongitudeDegrees>-0.1519087515771389007568359375</LongitudeDegrees>
            </Position>
            <AltitudeMeters>352.399993896484375</AltitudeMeters>
            <DistanceMeters>95926.718499893</DistanceMeters>
          </Trackpoint>
          <Trackpoint>
            <Time>2022-04-23T14:31:42.000Z</Time>
            <Position>
              <LatitudeDegrees>41.66726200841367244720458984375</LatitudeDegrees>
              <LongitudeDegrees>-0.15196281485259532928466796875</LongitudeDegrees>
            </Position>
            <AltitudeMeters>352.399993896484375</AltitudeMeters>
            <DistanceMeters>95935.105650512</DistanceMeters>
          </Trackpoint>
          <Trackpoint>
            <Time>2022-04-23T14:31:45.000Z</Time>
            <Position>
              <LatitudeDegrees>41.6675041615962982177734375</LatitudeDegrees>
              <LongitudeDegrees>-0.15221795998513698577880859375</LongitudeDegrees>
            </Position>
            <AltitudeMeters>352.20001220703125</AltitudeMeters>
            <DistanceMeters>95969.405160993</DistanceMeters>
          </Trackpoint>
          <Trackpoint>
            <Time>2022-04-23T14:31:46.000Z</Time>
            <Position>
              <LatitudeDegrees>41.6675864718854427337646484375</LatitudeDegrees>
              <LongitudeDegrees>-0.15230429358780384063720703125</LongitudeDegrees>
            </Position>
            <AltitudeMeters>352.20001220703125</AltitudeMeters>
            <DistanceMeters>95981.043897039</DistanceMeters>
          </Trackpoint>
          <Trackpoint>
            <Time>2022-04-23T14:31:48.000Z</Time>
            <Position>
              <LatitudeDegrees>41.66776358149945735931396484375</LatitudeDegrees>
              <LongitudeDegrees>-0.15243823640048503875732421875</LongitudeDegrees>
            </Position>
            <AltitudeMeters>352</AltitudeMeters>
            <DistanceMeters>96003.684996384</DistanceMeters>
          </Trackpoint>
          <Trackpoint>
            <Time>2022-04-23T14:31:49.000Z</Time>
            <Position>
              <LatitudeDegrees>41.66785745881497859954833984375</LatitudeDegrees>
              <LongitudeDegrees>-0.15248718671500682830810546875</LongitudeDegrees>
            </Position>
            <AltitudeMeters>351.79998779296875</AltitudeMeters>
            <DistanceMeters>96014.898953962</DistanceMeters>
          </Trackpoint>
          <Trackpoint>
            <Time>2022-04-23T14:31:50.000Z</Time>
            <Position>
              <LatitudeDegrees>41.6679556109011173248291015625</LatitudeDegrees>
              <LongitudeDegrees>-0.152525492012500762939453125</LongitudeDegrees>
            </Position>
            <AltitudeMeters>351.79998779296875</AltitudeMeters>
            <DistanceMeters>96026.27837821</DistanceMeters>
          </Trackpoint>
          <Trackpoint>
            <Time>2022-04-23T14:31:53.000Z</Time>
            <Position>
              <LatitudeDegrees>41.668271608650684356689453125</LatitudeDegrees>
              <LongitudeDegrees>-0.1525957323610782623291015625</LongitudeDegrees>
            </Position>
            <AltitudeMeters>350.79998779296875</AltitudeMeters>
            <DistanceMeters>96061.931256645</DistanceMeters>
          </Trackpoint>
          <Trackpoint>
            <Time>2022-04-23T14:31:58.000Z</Time>
            <Position>
              <LatitudeDegrees>41.668759770691394805908203125</LatitudeDegrees>
              <LongitudeDegrees>-0.15271014533936977386474609375</LongitudeDegrees>
            </Position>
            <AltitudeMeters>349.79998779296875</AltitudeMeters>
            <DistanceMeters>96117.091133523</DistanceMeters>
          </Trackpoint>
          <Trackpoint>
            <Time>2022-04-23T14:31:59.000Z</Time>
            <Position>
              <LatitudeDegrees>41.66883923113346099853515625</LatitudeDegrees>
              <LongitudeDegrees>-0.15273503959178924560546875</LongitudeDegrees>
            </Position>
            <AltitudeMeters>349.79998779296875</AltitudeMeters>
            <DistanceMeters>96126.174017338</DistanceMeters>
          </Trackpoint>
          <Trackpoint>
            <Time>2022-04-23T14:32:00.000Z</Time>
            <Position>
              <LatitudeDegrees>41.6689332760870456695556640625</LatitudeDegrees>
              <LongitudeDegrees>-0.1527566649019718170166015625</LongitudeDegrees>
            </Position>
            <AltitudeMeters>349.600006103515625</AltitudeMeters>
            <DistanceMeters>96136.794926665</DistanceMeters>
          </Trackpoint>
          <Trackpoint>
            <Time>2022-04-23T14:32:02.000Z</Time>
            <Position>
              <LatitudeDegrees>41.66910133324563503265380859375</LatitudeDegrees>
              <LongitudeDegrees>-0.1527412422001361846923828125</LongitudeDegrees>
            </Position>
            <AltitudeMeters>348.79998779296875</AltitudeMeters>
            <DistanceMeters>96155.54386839</DistanceMeters>
          </Trackpoint>
          <Trackpoint>
            <Time>2022-04-23T14:32:03.000Z</Time>
            <Position>
              <LatitudeDegrees>41.6691766865551471710205078125</LatitudeDegrees>
              <LongitudeDegrees>-0.1526835747063159942626953125</LongitudeDegrees>
            </Position>
            <AltitudeMeters>348.399993896484375</AltitudeMeters>
            <DistanceMeters>96165.204865757</DistanceMeters>
          </Trackpoint>
          <Trackpoint>
            <Time>2022-04-23T14:32:04.000Z</Time>
            <Position>
              <LatitudeDegrees>41.6692199371755123138427734375</LatitudeDegrees>
              <LongitudeDegrees>-0.15263286419212818145751953125</LongitudeDegrees>
            </Position>
            <AltitudeMeters>348.20001220703125</AltitudeMeters>
            <DistanceMeters>96171.604899097</DistanceMeters>
          </Trackpoint>
          <Trackpoint>
            <Time>2022-04-23T14:32:05.000Z</Time>
            <Position>
              <LatitudeDegrees>41.6692806221544742584228515625</LatitudeDegrees>
              <LongitudeDegrees>-0.15257720835506916046142578125</LongitudeDegrees>
            </Position>
            <AltitudeMeters>347.79998779296875</AltitudeMeters>
            <DistanceMeters>96179.792651384</DistanceMeters>
          </Trackpoint>
          <Trackpoint>
            <Time>2022-04-23T14:32:07.000Z</Time>
            <Position>
              <LatitudeDegrees>41.66943124495446681976318359375</LatitudeDegrees>
              <LongitudeDegrees>-0.152512751519680023193359375</LongitudeDegrees>
            </Position>
            <AltitudeMeters>347</AltitudeMeters>
            <DistanceMeters>96197.393127867</DistanceMeters>
          </Trackpoint>
          <Trackpoint>
            <Time>2022-04-23T14:32:09.000Z</Time>
            <Position>
              <LatitudeDegrees>41.6696011461317539215087890625</LatitudeDegrees>
              <LongitudeDegrees>-0.1524800620973110198974609375</LongitudeDegrees>
            </Position>
            <AltitudeMeters>345.79998779296875</AltitudeMeters>
            <DistanceMeters>96216.497988239</DistanceMeters>
          </Trackpoint>
          <Trackpoint>
            <Time>2022-04-23T14:32:12.000Z</Time>
            <Position>
              <LatitudeDegrees>41.66985176503658294677734375</LatitudeDegrees>
              <LongitudeDegrees>-0.15244728885591030120849609375</LongitudeDegrees>
            </Position>
            <AltitudeMeters>344.79998779296875</AltitudeMeters>
            <DistanceMeters>96244.524909043</DistanceMeters>
          </Trackpoint>
          <Trackpoint>
            <Time>2022-04-23T14:32:13.000Z</Time>
            <Position>
              <LatitudeDegrees>41.66993482969701290130615234375</LatitudeDegrees>
              <LongitudeDegrees>-0.152448378503322601318359375</LongitudeDegrees>
            </Position>
            <AltitudeMeters>344.79998779296875</AltitudeMeters>
            <DistanceMeters>96253.770378399</DistanceMeters>
          </Trackpoint>
          <Trackpoint>
            <Time>2022-04-23T14:32:14.000Z</Time>
            <Position>
              <LatitudeDegrees>41.67001797817647457122802734375</LatitudeDegrees>
              <LongitudeDegrees>-0.15246254391968250274658203125</LongitudeDegrees>
            </Position>
            <AltitudeMeters>344.20001220703125</AltitudeMeters>
            <DistanceMeters>96263.09946607</DistanceMeters>
          </Trackpoint>
          <Trackpoint>
            <Time>2022-04-23T14:32:16.000Z</Time>
            <Position>
              <LatitudeDegrees>41.67017941363155841827392578125</LatitudeDegrees>
              <LongitudeDegrees>-0.15252373181283473968505859375</LongitudeDegrees>
            </Position>
            <AltitudeMeters>343.399993896484375</AltitudeMeters>
            <DistanceMeters>96281.774089286</DistanceMeters>
          </Trackpoint>
          <Trackpoint>
            <Time>2022-04-23T14:32:18.000Z</Time>
            <Position>
              <LatitudeDegrees>41.67033297009766101837158203125</LatitudeDegrees>
              <LongitudeDegrees>-0.1526004262268543243408203125</LongitudeDegrees>
            </Position>
            <AltitudeMeters>342.79998779296875</AltitudeMeters>
            <DistanceMeters>96300.0157536</DistanceMeters>
          </Trackpoint>
          <Trackpoint>
            <Time>2022-04-23T14:32:20.000Z</Time>
            <Position>
              <LatitudeDegrees>41.67049557901918888092041015625</LatitudeDegrees>
              <LongitudeDegrees>-0.152614675462245941162109375</LongitudeDegrees>
            </Position>
            <AltitudeMeters>342.600006103515625</AltitudeMeters>
            <DistanceMeters>96318.153164795</DistanceMeters>
          </Trackpoint>
          <Trackpoint>
            <Time>2022-04-23T14:32:21.000Z</Time>
            <Position>
              <LatitudeDegrees>41.67057956568896770477294921875</LatitudeDegrees>
              <LongitudeDegrees>-0.152590535581111907958984375</LongitudeDegrees>
            </Position>
            <AltitudeMeters>342.20001220703125</AltitudeMeters>
            <DistanceMeters>96327.714099051</DistanceMeters>
          </Trackpoint>
          <Trackpoint>
            <Time>2022-04-23T14:32:22.000Z</Time>
            <Position>
              <LatitudeDegrees>41.6706596128642559051513671875</LatitudeDegrees>
              <LongitudeDegrees>-0.1525484584271907806396484375</LongitudeDegrees>
            </Position>
            <AltitudeMeters>342</AltitudeMeters>
            <DistanceMeters>96337.285888622</DistanceMeters>
          </Trackpoint>
          <Trackpoint>
            <Time>2022-04-23T14:32:23.000Z</Time>
            <Position>
              <LatitudeDegrees>41.67075022123754024505615234375</LatitudeDegrees>
              <LongitudeDegrees>-0.1524837501347064971923828125</LongitudeDegrees>
            </Position>
            <AltitudeMeters>340.79998779296875</AltitudeMeters>
            <DistanceMeters>96348.715986872</DistanceMeters>
          </Trackpoint>
          <Trackpoint>
            <Time>2022-04-23T14:32:25.000Z</Time>
            <Position>
              <LatitudeDegrees>41.6708810627460479736328125</LatitudeDegrees>
              <LongitudeDegrees>-0.15235978178679943084716796875</LongitudeDegrees>
            </Position>
            <AltitudeMeters>339.20001220703125</AltitudeMeters>
            <DistanceMeters>96366.557236678</DistanceMeters>
          </Trackpoint>
          <Trackpoint>
            <Time>2022-04-23T14:32:28.000Z</Time>
            <Position>
              <LatitudeDegrees>41.6711078770458698272705078125</LatitudeDegrees>
              <LongitudeDegrees>-0.15214872546494007110595703125</LongitudeDegrees>
            </Position>
            <AltitudeMeters>337.399993896484375</AltitudeMeters>
            <DistanceMeters>96397.301573095</DistanceMeters>
          </Trackpoint>
          <Trackpoint>
            <Time>2022-04-23T14:32:30.000Z</Time>
            <Position>
              <LatitudeDegrees>41.6712758503854274749755859375</LatitudeDegrees>
              <LongitudeDegrees>-0.15199885703623294830322265625</LongitudeDegrees>
            </Position>
            <AltitudeMeters>336.20001220703125</AltitudeMeters>
            <DistanceMeters>96419.769111974</DistanceMeters>
          </Trackpoint>
          <Trackpoint>
            <Time>2022-04-23T14:32:32.000Z</Time>
            <Position>
              <LatitudeDegrees>41.671456731855869293212890625</LatitudeDegrees>
              <LongitudeDegrees>-0.15186910517513751983642578125</LongitudeDegrees>
            </Position>
            <AltitudeMeters>335.20001220703125</AltitudeMeters>
            <DistanceMeters>96442.60954928</DistanceMeters>
          </Trackpoint>
          <Trackpoint>
            <Time>2022-04-23T14:32:34.000Z</Time>
            <Position>
              <LatitudeDegrees>41.67164389975368976593017578125</LatitudeDegrees>
              <LongitudeDegrees>-0.151772461831569671630859375</LongitudeDegrees>
            </Position>
            <AltitudeMeters>333.20001220703125</AltitudeMeters>
            <DistanceMeters>96464.937389756</DistanceMeters>
          </Trackpoint>
          <Trackpoint>
            <Time>2022-04-23T14:32:35.000Z</Time>
            <Position>
              <LatitudeDegrees>41.67174062691628932952880859375</LatitudeDegrees>
              <LongitudeDegrees>-0.15174329280853271484375</LongitudeDegrees>
            </Position>
            <AltitudeMeters>332.20001220703125</AltitudeMeters>
            <DistanceMeters>96475.972769718</DistanceMeters>
          </Trackpoint>
          <Trackpoint>
            <Time>2022-04-23T14:32:37.000Z</Time>
            <Position>
              <LatitudeDegrees>41.6719494201242923736572265625</LatitudeDegrees>
              <LongitudeDegrees>-0.15173549763858318328857421875</LongitudeDegrees>
            </Position>
            <AltitudeMeters>330.79998779296875</AltitudeMeters>
            <DistanceMeters>96499.220740282</DistanceMeters>
          </Trackpoint>
          <Trackpoint>
            <Time>2022-04-23T14:32:38.000Z</Time>
            <Position>
              <LatitudeDegrees>41.6720533557236194610595703125</LatitudeDegrees>
              <LongitudeDegrees>-0.15175544656813144683837890625</LongitudeDegrees>
            </Position>
            <AltitudeMeters>330.399993896484375</AltitudeMeters>
            <DistanceMeters>96510.907094553</DistanceMeters>
          </Trackpoint>
          <Trackpoint>
            <Time>2022-04-23T14:32:39.000Z</Time>
            <Position>
              <LatitudeDegrees>41.672153770923614501953125</LatitudeDegrees>
              <LongitudeDegrees>-0.1517883874475955963134765625</LongitudeDegrees>
            </Position>
            <AltitudeMeters>330</AltitudeMeters>
            <DistanceMeters>96522.414354912</DistanceMeters>
          </Trackpoint>
          <Trackpoint>
            <Time>2022-04-23T14:32:41.000Z</Time>
            <Position>
              <LatitudeDegrees>41.672337166965007781982421875</LatitudeDegrees>
              <LongitudeDegrees>-0.151897184550762176513671875</LongitudeDegrees>
            </Position>
            <AltitudeMeters>328.79998779296875</AltitudeMeters>
            <DistanceMeters>96544.741184287</DistanceMeters>
          </Trackpoint>
          <Trackpoint>
            <Time>2022-04-23T14:32:43.000Z</Time>
            <Position>
              <LatitudeDegrees>41.67248745448887348175048828125</LatitudeDegrees>
              <LongitudeDegrees>-0.15203774906694889068603515625</LongitudeDegrees>
            </Position>
            <AltitudeMeters>327.600006103515625</AltitudeMeters>
            <DistanceMeters>96565.146497929</DistanceMeters>
          </Trackpoint>
          <Trackpoint>
            <Time>2022-04-23T14:32:45.000Z</Time>
            <Position>
              <LatitudeDegrees>41.672561131417751312255859375</LatitudeDegrees>
              <LongitudeDegrees>-0.15211016871035099029541015625</LongitudeDegrees>
            </Position>
            <AltitudeMeters>326.79998779296875</AltitudeMeters>
            <DistanceMeters>96575.319683572</DistanceMeters>
          </Trackpoint>
          <Trackpoint>
            <Time>2022-04-23T14:32:46.000Z</Time>
            <Position>
              <LatitudeDegrees>41.67271728627383708953857421875</LatitudeDegrees>
              <LongitudeDegrees>-0.1522671617567539215087890625</LongitudeDegrees>
            </Position>
            <AltitudeMeters>326.399993896484375</AltitudeMeters>
            <DistanceMeters>96597.055058179</DistanceMeters>
          </Trackpoint>
          <Trackpoint>
            <Time>2022-04-23T14:32:49.000Z</Time>
            <Position>
              <LatitudeDegrees>41.67292825877666473388671875</LatitudeDegrees>
              <LongitudeDegrees>-0.1525501348078250885009765625</LongitudeDegrees>
            </Position>
            <AltitudeMeters>325.600006103515625</AltitudeMeters>
            <DistanceMeters>96630.294174939</DistanceMeters>
          </Trackpoint>
          <Trackpoint>
            <Time>2022-04-23T14:32:53.000Z</Time>
            <Position>
              <LatitudeDegrees>41.67317359708249568939208984375</LatitudeDegrees>
              <LongitudeDegrees>-0.15294131822884082794189453125</LongitudeDegrees>
            </Position>
            <AltitudeMeters>325</AltitudeMeters>
            <DistanceMeters>96672.759528651</DistanceMeters>
          </Trackpoint>
          <Trackpoint>
            <Time>2022-04-23T14:32:54.000Z</Time>
            <Position>
              <LatitudeDegrees>41.67325121350586414337158203125</LatitudeDegrees>
              <LongitudeDegrees>-0.1530181802809238433837890625</LongitudeDegrees>
            </Position>
            <AltitudeMeters>324.79998779296875</AltitudeMeters>
            <DistanceMeters>96683.504693024</DistanceMeters>
          </Trackpoint>
          <Trackpoint>
            <Time>2022-04-23T14:32:55.000Z</Time>
            <Position>
              <LatitudeDegrees>41.67335850186645984649658203125</LatitudeDegrees>
              <LongitudeDegrees>-0.153088085353374481201171875</LongitudeDegrees>
            </Position>
            <AltitudeMeters>324.399993896484375</AltitudeMeters>
            <DistanceMeters>96696.784995093</DistanceMeters>
          </Trackpoint>
          <Trackpoint>
            <Time>2022-04-23T14:32:57.000Z</Time>
            <Position>
              <LatitudeDegrees>41.67352966032922267913818359375</LatitudeDegrees>
              <LongitudeDegrees>-0.153151452541351318359375</LongitudeDegrees>
            </Position>
            <AltitudeMeters>324</AltitudeMeters>
            <DistanceMeters>96716.550323251</DistanceMeters>
          </Trackpoint>
          <Trackpoint>
            <Time>2022-04-23T14:32:58.000Z</Time>
            <Position>
              <LatitudeDegrees>41.6736144013702869415283203125</LatitudeDegrees>
              <LongitudeDegrees>-0.15318674035370349884033203125</LongitudeDegrees>
            </Position>
            <AltitudeMeters>323.20001220703125</AltitudeMeters>
            <DistanceMeters>96726.427617713</DistanceMeters>
          </Trackpoint>
          <Trackpoint>
            <Time>2022-04-23T14:33:00.000Z</Time>
            <Position>
              <LatitudeDegrees>41.67374859564006328582763671875</LatitudeDegrees>
              <LongitudeDegrees>-0.15330098569393157958984375</LongitudeDegrees>
            </Position>
            <AltitudeMeters>322.399993896484375</AltitudeMeters>
            <DistanceMeters>96744.127602802</DistanceMeters>
          </Trackpoint>
          <Trackpoint>
            <Time>2022-04-23T14:33:02.000Z</Time>
            <Position>
              <LatitudeDegrees>41.67383543215692043304443359375</LatitudeDegrees>
              <LongitudeDegrees>-0.15346686355769634246826171875</LongitudeDegrees>
            </Position>
            <AltitudeMeters>321.79998779296875</AltitudeMeters>
            <DistanceMeters>96760.967720103</DistanceMeters>
          </Trackpoint>
          <Trackpoint>
            <Time>2022-04-23T14:33:03.000Z</Time>
            <Position>
              <LatitudeDegrees>41.673867702484130859375</LatitudeDegrees>
              <LongitudeDegrees>-0.15355847775936126708984375</LongitudeDegrees>
            </Position>
            <AltitudeMeters>321.399993896484375</AltitudeMeters>
            <DistanceMeters>96769.388180913</DistanceMeters>
          </Trackpoint>
          <Trackpoint>
            <Time>2022-04-23T14:33:04.000Z</Time>
            <Position>
              <LatitudeDegrees>41.67391070164740085601806640625</LatitudeDegrees>
              <LongitudeDegrees>-0.15363936312496662139892578125</LongitudeDegrees>
            </Position>
            <AltitudeMeters>320.600006103515625</AltitudeMeters>
            <DistanceMeters>96777.641293454</DistanceMeters>
          </Trackpoint>
          <Trackpoint>
            <Time>2022-04-23T14:33:05.000Z</Time>
            <Position>
              <LatitudeDegrees>41.67396669276058673858642578125</LatitudeDegrees>
              <LongitudeDegrees>-0.15369661152362823486328125</LongitudeDegrees>
            </Position>
            <AltitudeMeters>319.79998779296875</AltitudeMeters>
            <DistanceMeters>96785.482581008</DistanceMeters>
          </Trackpoint>
          <Trackpoint>
            <Time>2022-04-23T14:33:06.000Z</Time>
            <Position>
              <LatitudeDegrees>41.6740272939205169677734375</LatitudeDegrees>
              <LongitudeDegrees>-0.1537289656698703765869140625</LongitudeDegrees>
            </Position>
            <AltitudeMeters>319.79998779296875</AltitudeMeters>
            <DistanceMeters>96792.744512323</DistanceMeters>
          </Trackpoint>
          <Trackpoint>
            <Time>2022-04-23T14:33:09.000Z</Time>
            <Position>
              <LatitudeDegrees>41.6742209158837795257568359375</LatitudeDegrees>
              <LongitudeDegrees>-0.15366115607321262359619140625</LongitudeDegrees>
            </Position>
            <AltitudeMeters>319.79998779296875</AltitudeMeters>
            <DistanceMeters>96815.020120073</DistanceMeters>
          </Trackpoint>
          <Trackpoint>
            <Time>2022-04-23T14:33:13.000Z</Time>
            <Position>
              <LatitudeDegrees>41.67445200495421886444091796875</LatitudeDegrees>
              <LongitudeDegrees>-0.15345730818808078765869140625</LongitudeDegrees>
            </Position>
            <AltitudeMeters>320.20001220703125</AltitudeMeters>
            <DistanceMeters>96845.821970856</DistanceMeters>
          </Trackpoint>
          <Trackpoint>
            <Time>2022-04-23T14:33:14.000Z</Time>
            <Position>
              <LatitudeDegrees>41.67451612651348114013671875</LatitudeDegrees>
              <LongitudeDegrees>-0.15341824851930141448974609375</LongitudeDegrees>
            </Position>
            <AltitudeMeters>320.600006103515625</AltitudeMeters>
            <DistanceMeters>96853.66325841</DistanceMeters>
          </Trackpoint>
          <Trackpoint>
            <Time>2022-04-23T14:33:15.000Z</Time>
            <Position>
              <LatitudeDegrees>41.67458393611013889312744140625</LatitudeDegrees>
              <LongitudeDegrees>-0.1533920131623744964599609375</LongitudeDegrees>
            </Position>
            <AltitudeMeters>320.79998779296875</AltitudeMeters>
            <DistanceMeters>96861.519502582</DistanceMeters>
          </Trackpoint>
          <Trackpoint>
            <Time>2022-04-23T14:33:16.000Z</Time>
            <Position>
              <LatitudeDegrees>41.6746656596660614013671875</LatitudeDegrees>
              <LongitudeDegrees>-0.15337617136538028717041015625</LongitudeDegrees>
            </Position>
            <AltitudeMeters>321.20001220703125</AltitudeMeters>
            <DistanceMeters>96870.71060508</DistanceMeters>
          </Trackpoint>
          <Trackpoint>
            <Time>2022-04-23T14:33:18.000Z</Time>
            <Position>
              <LatitudeDegrees>41.67478275485336780548095703125</LatitudeDegrees>
              <LongitudeDegrees>-0.15337918885052204132080078125</LongitudeDegrees>
            </Position>
            <AltitudeMeters>321.399993896484375</AltitudeMeters>
            <DistanceMeters>96883.746247701</DistanceMeters>
          </Trackpoint>
          <Trackpoint>
            <Time>2022-04-23T14:33:20.000Z</Time>
            <Position>
              <LatitudeDegrees>41.67491233907639980316162109375</LatitudeDegrees>
              <LongitudeDegrees>-0.1533936895430088043212890625</LongitudeDegrees>
            </Position>
            <AltitudeMeters>321.600006103515625</AltitudeMeters>
            <DistanceMeters>96898.219661719</DistanceMeters>
          </Trackpoint>
          <Trackpoint>
            <Time>2022-04-23T14:33:22.000Z</Time>
            <Position>
              <LatitudeDegrees>41.67504108510911464691162109375</LatitudeDegrees>
              <LongitudeDegrees>-0.15338304452598094940185546875</LongitudeDegrees>
            </Position>
            <AltitudeMeters>321.600006103515625</AltitudeMeters>
            <DistanceMeters>96912.576245395</DistanceMeters>
          </Trackpoint>
          <Trackpoint>
            <Time>2022-04-23T14:33:23.000Z</Time>
            <Position>
              <LatitudeDegrees>41.67504108510911464691162109375</LatitudeDegrees>
              <LongitudeDegrees>-0.15338304452598094940185546875</LongitudeDegrees>
            </Position>
            <AltitudeMeters>321.79998779296875</AltitudeMeters>
            <DistanceMeters>96912.576245395</DistanceMeters>
          </Trackpoint>
          <Trackpoint>
            <Time>2022-04-23T14:33:25.000Z</Time>
            <Position>
              <LatitudeDegrees>41.6752555780112743377685546875</LatitudeDegrees>
              <LongitudeDegrees>-0.15335354022681713104248046875</LongitudeDegrees>
            </Position>
            <AltitudeMeters>321.79998779296875</AltitudeMeters>
            <DistanceMeters>96936.575335705</DistanceMeters>
          </Trackpoint>
          <Trackpoint>
            <Time>2022-04-23T14:33:26.000Z</Time>
            <Position>
              <LatitudeDegrees>41.67533218860626220703125</LatitudeDegrees>
              <LongitudeDegrees>-0.15337265096604824066162109375</LongitudeDegrees>
            </Position>
            <AltitudeMeters>321.79998779296875</AltitudeMeters>
            <DistanceMeters>96945.249354205</DistanceMeters>
          </Trackpoint>
          <Trackpoint>
            <Time>2022-04-23T14:33:27.000Z</Time>
            <Position>
              <LatitudeDegrees>41.67540402151644229888916015625</LatitudeDegrees>
              <LongitudeDegrees>-0.15340961515903472900390625</LongitudeDegrees>
            </Position>
            <AltitudeMeters>321.600006103515625</AltitudeMeters>
            <DistanceMeters>96953.814419355</DistanceMeters>
          </Trackpoint>
          <Trackpoint>
            <Time>2022-04-23T14:33:29.000Z</Time>
            <Position>
              <LatitudeDegrees>41.67553125880658626556396484375</LatitudeDegrees>
              <LongitudeDegrees>-0.1535197533667087554931640625</LongitudeDegrees>
            </Position>
            <AltitudeMeters>321.399993896484375</AltitudeMeters>
            <DistanceMeters>96970.678649477</DistanceMeters>
          </Trackpoint>
          <Trackpoint>
            <Time>2022-04-23T14:33:30.000Z</Time>
            <Position>
              <LatitudeDegrees>41.675598062574863433837890625</LatitudeDegrees>
              <LongitudeDegrees>-0.153562165796756744384765625</LongitudeDegrees>
            </Position>
            <AltitudeMeters>321.399993896484375</AltitudeMeters>
            <DistanceMeters>96978.908204346</DistanceMeters>
          </Trackpoint>
          <Trackpoint>
            <Time>2022-04-23T14:33:32.000Z</Time>
            <Position>
              <LatitudeDegrees>41.67573711834847927093505859375</LatitudeDegrees>
              <LongitudeDegrees>-0.15358068980276584625244140625</LongitudeDegrees>
            </Position>
            <AltitudeMeters>320.79998779296875</AltitudeMeters>
            <DistanceMeters>96994.461845332</DistanceMeters>
          </Trackpoint>
          <Trackpoint>
            <Time>2022-04-23T14:33:34.000Z</Time>
            <Position>
              <LatitudeDegrees>41.67586368508636951446533203125</LatitudeDegrees>
              <LongitudeDegrees>-0.15348496846854686737060546875</LongitudeDegrees>
            </Position>
            <AltitudeMeters>320.399993896484375</AltitudeMeters>
            <DistanceMeters>97010.641242293</DistanceMeters>
          </Trackpoint>
          <Trackpoint>
            <Time>2022-04-23T14:33:35.000Z</Time>
            <Position>
              <LatitudeDegrees>41.67592185549437999725341796875</LatitudeDegrees>
              <LongitudeDegrees>-0.15341305173933506011962890625</LongitudeDegrees>
            </Position>
            <AltitudeMeters>320.20001220703125</AltitudeMeters>
            <DistanceMeters>97019.453657253</DistanceMeters>
          </Trackpoint>
          <Trackpoint>
            <Time>2022-04-23T14:33:37.000Z</Time>
            <Position>
              <LatitudeDegrees>41.676048673689365386962890625</LatitudeDegrees>
              <LongitudeDegrees>-0.1532196812331676483154296875</LongitudeDegrees>
            </Position>
            <AltitudeMeters>320</AltitudeMeters>
            <DistanceMeters>97040.846701317</DistanceMeters>
          </Trackpoint>
          <Trackpoint>
            <Time>2022-04-23T14:33:39.000Z</Time>
            <Position>
              <LatitudeDegrees>41.67614565230906009674072265625</LatitudeDegrees>
              <LongitudeDegrees>-0.15304458327591419219970703125</LongitudeDegrees>
            </Position>
            <AltitudeMeters>319.600006103515625</AltitudeMeters>
            <DistanceMeters>97058.968671964</DistanceMeters>
          </Trackpoint>
          <Trackpoint>
            <Time>2022-04-23T14:33:41.000Z</Time>
            <Position>
              <LatitudeDegrees>41.67625193484127521514892578125</LatitudeDegrees>
              <LongitudeDegrees>-0.15288717113435268402099609375</LongitudeDegrees>
            </Position>
            <AltitudeMeters>318.600006103515625</AltitudeMeters>
            <DistanceMeters>97076.608865677</DistanceMeters>
          </Trackpoint>
          <Trackpoint>
            <Time>2022-04-23T14:33:42.000Z</Time>
            <Position>
              <LatitudeDegrees>41.67632586322724819183349609375</LatitudeDegrees>
              <LongitudeDegrees>-0.152813829481601715087890625</LongitudeDegrees>
            </Position>
            <AltitudeMeters>318.399993896484375</AltitudeMeters>
            <DistanceMeters>97086.850171155</DistanceMeters>
          </Trackpoint>
          <Trackpoint>
            <Time>2022-04-23T14:33:44.000Z</Time>
            <Position>
              <LatitudeDegrees>41.67645175941288471221923828125</LatitudeDegrees>
              <LongitudeDegrees>-0.15273327939212322235107421875</LongitudeDegrees>
            </Position>
            <AltitudeMeters>317.399993896484375</AltitudeMeters>
            <DistanceMeters>97102.380571724</DistanceMeters>
          </Trackpoint>
          <Trackpoint>
            <Time>2022-04-23T14:33:46.000Z</Time>
            <Position>
              <LatitudeDegrees>41.6766161285340785980224609375</LatitudeDegrees>
              <LongitudeDegrees>-0.15264526940882205963134765625</LongitudeDegrees>
            </Position>
            <AltitudeMeters>316.600006103515625</AltitudeMeters>
            <DistanceMeters>97122.083897496</DistanceMeters>
          </Trackpoint>
          <Trackpoint>
            <Time>2022-04-23T14:33:47.000Z</Time>
            <Position>
              <LatitudeDegrees>41.676670610904693603515625</LatitudeDegrees>
              <LongitudeDegrees>-0.15259087085723876953125</LongitudeDegrees>
            </Position>
            <AltitudeMeters>316.399993896484375</AltitudeMeters>
            <DistanceMeters>97129.64852534</DistanceMeters>
          </Trackpoint>
          <Trackpoint>
            <Time>2022-04-23T14:33:50.000Z</Time>
            <Position>
              <LatitudeDegrees>41.676864735782146453857421875</LatitudeDegrees>
              <LongitudeDegrees>-0.15238358639180660247802734375</LongitudeDegrees>
            </Position>
            <AltitudeMeters>315.600006103515625</AltitudeMeters>
            <DistanceMeters>97157.285130157</DistanceMeters>
          </Trackpoint>
          <Trackpoint>
            <Time>2022-04-23T14:33:51.000Z</Time>
            <Position>
              <LatitudeDegrees>41.67695132084190845489501953125</LatitudeDegrees>
              <LongitudeDegrees>-0.15231954865157604217529296875</LongitudeDegrees>
            </Position>
            <AltitudeMeters>315.600006103515625</AltitudeMeters>
            <DistanceMeters>97168.295114089</DistanceMeters>
          </Trackpoint>
          <Trackpoint>
            <Time>2022-04-23T14:33:52.000Z</Time>
            <Position>
              <LatitudeDegrees>41.67702759616076946258544921875</LatitudeDegrees>
              <LongitudeDegrees>-0.15227663330733776092529296875</LongitudeDegrees>
            </Position>
            <AltitudeMeters>315.399993896484375</AltitudeMeters>
            <DistanceMeters>97177.504374535</DistanceMeters>
          </Trackpoint>
          <Trackpoint>
            <Time>2022-04-23T14:33:53.000Z</Time>
            <Position>
              <LatitudeDegrees>41.6770908795297145843505859375</LatitudeDegrees>
              <LongitudeDegrees>-0.1522554270923137664794921875</LongitudeDegrees>
            </Position>
            <AltitudeMeters>315.20001220703125</AltitudeMeters>
            <DistanceMeters>97184.765062263</DistanceMeters>
          </Trackpoint>
          <Trackpoint>
            <Time>2022-04-23T14:33:54.000Z</Time>
            <Position>
              <LatitudeDegrees>41.67717444710433483123779296875</LatitudeDegrees>
              <LongitudeDegrees>-0.1522443629801273345947265625</LongitudeDegrees>
            </Position>
            <AltitudeMeters>315.20001220703125</AltitudeMeters>
            <DistanceMeters>97194.111556767</DistanceMeters>
          </Trackpoint>
          <Trackpoint>
            <Time>2022-04-23T14:33:58.000Z</Time>
            <Position>
              <LatitudeDegrees>41.677517183125019073486328125</LatitudeDegrees>
              <LongitudeDegrees>-0.15229339711368083953857421875</LongitudeDegrees>
            </Position>
            <AltitudeMeters>314.399993896484375</AltitudeMeters>
            <DistanceMeters>97232.4758786</DistanceMeters>
          </Trackpoint>
          <Trackpoint>
            <Time>2022-04-23T14:34:02.000Z</Time>
            <Position>
              <LatitudeDegrees>41.67787718586623668670654296875</LatitudeDegrees>
              <LongitudeDegrees>-0.1522864401340484619140625</LongitudeDegrees>
            </Position>
            <AltitudeMeters>314.20001220703125</AltitudeMeters>
            <DistanceMeters>97272.548994455</DistanceMeters>
          </Trackpoint>
          <Trackpoint>
            <Time>2022-04-23T14:34:04.000Z</Time>
            <Position>
              <LatitudeDegrees>41.67805270291864871978759765625</LatitudeDegrees>
              <LongitudeDegrees>-0.15219566412270069122314453125</LongitudeDegrees>
            </Position>
            <AltitudeMeters>314.20001220703125</AltitudeMeters>
            <DistanceMeters>97293.491338708</DistanceMeters>
          </Trackpoint>
          <Trackpoint>
            <Time>2022-04-23T14:34:05.000Z</Time>
            <Position>
              <LatitudeDegrees>41.67813534848392009735107421875</LatitudeDegrees>
              <LongitudeDegrees>-0.15213229693472385406494140625</LongitudeDegrees>
            </Position>
            <AltitudeMeters>314</AltitudeMeters>
            <DistanceMeters>97304.09182319</DistanceMeters>
          </Trackpoint>
          <Trackpoint>
            <Time>2022-04-23T14:34:09.000Z</Time>
            <Position>
              <LatitudeDegrees>41.6784591414034366607666015625</LatitudeDegrees>
              <LongitudeDegrees>-0.1518772356212139129638671875</LongitudeDegrees>
            </Position>
            <AltitudeMeters>313.20001220703125</AltitudeMeters>
            <DistanceMeters>97345.905305236</DistanceMeters>
          </Trackpoint>
          <Trackpoint>
            <Time>2022-04-23T14:34:11.000Z</Time>
            <Position>
              <LatitudeDegrees>41.6786103509366512298583984375</LatitudeDegrees>
              <LongitudeDegrees>-0.15173482708632946014404296875</LongitudeDegrees>
            </Position>
            <AltitudeMeters>312.20001220703125</AltitudeMeters>
            <DistanceMeters>97366.481825696</DistanceMeters>
          </Trackpoint>
          <Trackpoint>
            <Time>2022-04-23T14:34:12.000Z</Time>
            <Position>
              <LatitudeDegrees>41.6786874644458293914794921875</LatitudeDegrees>
              <LongitudeDegrees>-0.1516576297581195831298828125</LongitudeDegrees>
            </Position>
            <AltitudeMeters>312</AltitudeMeters>
            <DistanceMeters>97377.199221479</DistanceMeters>
          </Trackpoint>
          <Trackpoint>
            <Time>2022-04-23T14:34:15.000Z</Time>
            <Position>
              <LatitudeDegrees>41.67892609722912311553955078125</LatitudeDegrees>
              <LongitudeDegrees>-0.15143291093409061431884765625</LongitudeDegrees>
            </Position>
            <AltitudeMeters>310.79998779296875</AltitudeMeters>
            <DistanceMeters>97409.671255543</DistanceMeters>
          </Trackpoint>
          <Trackpoint>
            <Time>2022-04-23T14:34:17.000Z</Time>
            <Position>
              <LatitudeDegrees>41.67909725569188594818115234375</LatitudeDegrees>
              <LongitudeDegrees>-0.1513096131384372711181640625</LongitudeDegrees>
            </Position>
            <AltitudeMeters>310.20001220703125</AltitudeMeters>
            <DistanceMeters>97431.303769303</DistanceMeters>
          </Trackpoint>
          <Trackpoint>
            <Time>2022-04-23T14:34:18.000Z</Time>
            <Position>
              <LatitudeDegrees>41.6791876964271068572998046875</LatitudeDegrees>
              <LongitudeDegrees>-0.15127331949770450592041015625</LongitudeDegrees>
            </Position>
            <AltitudeMeters>309.79998779296875</AltitudeMeters>
            <DistanceMeters>97441.811850705</DistanceMeters>
          </Trackpoint>
          <Trackpoint>
            <Time>2022-04-23T14:34:19.000Z</Time>
            <Position>
              <LatitudeDegrees>41.67927972972393035888671875</LatitudeDegrees>
              <LongitudeDegrees>-0.15125839971005916595458984375</LongitudeDegrees>
            </Position>
            <AltitudeMeters>309.399993896484375</AltitudeMeters>
            <DistanceMeters>97452.130019209</DistanceMeters>
          </Trackpoint>
          <Trackpoint>
            <Time>2022-04-23T14:34:21.000Z</Time>
            <Position>
              <LatitudeDegrees>41.67945516295731067657470703125</LatitudeDegrees>
              <LongitudeDegrees>-0.1513005606830120086669921875</LongitudeDegrees>
            </Position>
            <AltitudeMeters>308.79998779296875</AltitudeMeters>
            <DistanceMeters>97471.968311012</DistanceMeters>
          </Trackpoint>
          <Trackpoint>
            <Time>2022-04-23T14:34:22.000Z</Time>
            <Position>
              <LatitudeDegrees>41.67951710522174835205078125</LatitudeDegrees>
              <LongitudeDegrees>-0.15135697089135646820068359375</LongitudeDegrees>
            </Position>
            <AltitudeMeters>307</AltitudeMeters>
            <DistanceMeters>97480.305788356</DistanceMeters>
          </Trackpoint>
          <Trackpoint>
            <Time>2022-04-23T14:34:23.000Z</Time>
            <Position>
              <LatitudeDegrees>41.679548956453800201416015625</LatitudeDegrees>
              <LongitudeDegrees>-0.15143827535212039947509765625</LongitudeDegrees>
            </Position>
            <AltitudeMeters>306.20001220703125</AltitudeMeters>
            <DistanceMeters>97487.938746709</DistanceMeters>
          </Trackpoint>
          <Trackpoint>
            <Time>2022-04-23T14:34:24.000Z</Time>
            <Position>
              <LatitudeDegrees>41.679554991424083709716796875</LatitudeDegrees>
              <LongitudeDegrees>-0.1515285484492778778076171875</LongitudeDegrees>
            </Position>
            <AltitudeMeters>306</AltitudeMeters>
            <DistanceMeters>97495.472873103</DistanceMeters>
          </Trackpoint>
          <Trackpoint>
            <Time>2022-04-23T14:34:25.000Z</Time>
            <Position>
              <LatitudeDegrees>41.67953579686582088470458984375</LatitudeDegrees>
              <LongitudeDegrees>-0.15161479823291301727294921875</LongitudeDegrees>
            </Position>
            <AltitudeMeters>305.399993896484375</AltitudeMeters>
            <DistanceMeters>97502.954077137</DistanceMeters>
          </Trackpoint>
          <Trackpoint>
            <Time>2022-04-23T14:34:28.000Z</Time>
            <Position>
              <LatitudeDegrees>41.67941325344145298004150390625</LatitudeDegrees>
              <LongitudeDegrees>-0.151869021356105804443359375</LongitudeDegrees>
            </Position>
            <AltitudeMeters>305</AltitudeMeters>
            <DistanceMeters>97528.106375752</DistanceMeters>
          </Trackpoint>
          <Trackpoint>
            <Time>2022-04-23T14:34:29.000Z</Time>
            <Position>
              <LatitudeDegrees>41.6793744452297687530517578125</LatitudeDegrees>
              <LongitudeDegrees>-0.15195049345493316650390625</LongitudeDegrees>
            </Position>
            <AltitudeMeters>304.79998779296875</AltitudeMeters>
            <DistanceMeters>97536.139365623</DistanceMeters>
          </Trackpoint>
          <Trackpoint>
            <Time>2022-04-23T14:34:31.000Z</Time>
            <Position>
              <LatitudeDegrees>41.67936631478369235992431640625</LatitudeDegrees>
              <LongitudeDegrees>-0.15212693251669406890869140625</LongitudeDegrees>
            </Position>
            <AltitudeMeters>304</AltitudeMeters>
            <DistanceMeters>97550.834441263</DistanceMeters>
          </Trackpoint>
          <Trackpoint>
            <Time>2022-04-23T14:34:32.000Z</Time>
            <Position>
              <LatitudeDegrees>41.679404787719249725341796875</LatitudeDegrees>
              <LongitudeDegrees>-0.1521917246282100677490234375</LongitudeDegrees>
            </Position>
            <AltitudeMeters>303.20001220703125</AltitudeMeters>
            <DistanceMeters>97557.7151891</DistanceMeters>
          </Trackpoint>
          <Trackpoint>
            <Time>2022-04-23T14:34:33.000Z</Time>
            <Position>
              <LatitudeDegrees>41.67946421541273593902587890625</LatitudeDegrees>
              <LongitudeDegrees>-0.1522225700318813323974609375</LongitudeDegrees>
            </Position>
            <AltitudeMeters>302.79998779296875</AltitudeMeters>
            <DistanceMeters>97564.808537107</DistanceMeters>
          </Trackpoint>
          <Trackpoint>
            <Time>2022-04-23T14:34:34.000Z</Time>
            <Position>
              <LatitudeDegrees>41.67952523566782474517822265625</LatitudeDegrees>
              <LongitudeDegrees>-0.15222810208797454833984375</LongitudeDegrees>
            </Position>
            <AltitudeMeters>302.600006103515625</AltitudeMeters>
            <DistanceMeters>97571.615395577</DistanceMeters>
          </Trackpoint>
          <Trackpoint>
            <Time>2022-04-23T14:34:35.000Z</Time>
            <Position>
              <LatitudeDegrees>41.6795829869806766510009765625</LatitudeDegrees>
              <LongitudeDegrees>-0.15219666995108127593994140625</LongitudeDegrees>
            </Position>
            <AltitudeMeters>302.399993896484375</AltitudeMeters>
            <DistanceMeters>97578.552996564</DistanceMeters>
          </Trackpoint>
          <Trackpoint>
            <Time>2022-04-23T14:34:36.000Z</Time>
            <Position>
              <LatitudeDegrees>41.67964090593159198760986328125</LatitudeDegrees>
              <LongitudeDegrees>-0.15214738436043262481689453125</LongitudeDegrees>
            </Position>
            <AltitudeMeters>301.399993896484375</AltitudeMeters>
            <DistanceMeters>97586.19127673</DistanceMeters>
          </Trackpoint>
          <Trackpoint>
            <Time>2022-04-23T14:34:38.000Z</Time>
            <Position>
              <LatitudeDegrees>41.67979496531188488006591796875</LatitudeDegrees>
              <LongitudeDegrees>-0.15208954922854900360107421875</LongitudeDegrees>
            </Position>
            <AltitudeMeters>300</AltitudeMeters>
            <DistanceMeters>97603.99959739</DistanceMeters>
          </Trackpoint>
          <Trackpoint>
            <Time>2022-04-23T14:34:39.000Z</Time>
            <Position>
              <LatitudeDegrees>41.6798852384090423583984375</LatitudeDegrees>
              <LongitudeDegrees>-0.15208887867629528045654296875</LongitudeDegrees>
            </Position>
            <AltitudeMeters>299.399993896484375</AltitudeMeters>
            <DistanceMeters>97614.047745713</DistanceMeters>
          </Trackpoint>
          <Trackpoint>
            <Time>2022-04-23T14:34:40.000Z</Time>
            <Position>
              <LatitudeDegrees>41.67997844517230987548828125</LatitudeDegrees>
              <LongitudeDegrees>-0.15211083926260471343994140625</LongitudeDegrees>
            </Position>
            <AltitudeMeters>299.20001220703125</AltitudeMeters>
            <DistanceMeters>97624.581575944</DistanceMeters>
          </Trackpoint>
          <Trackpoint>
            <Time>2022-04-23T14:34:41.000Z</Time>
            <Position>
              <LatitudeDegrees>41.6800711490213871002197265625</LatitudeDegrees>
              <LongitudeDegrees>-0.1521434448659420013427734375</LongitudeDegrees>
            </Position>
            <AltitudeMeters>298.20001220703125</AltitudeMeters>
            <DistanceMeters>97635.249567949</DistanceMeters>
          </Trackpoint>
          <Trackpoint>
            <Time>2022-04-23T14:34:42.000Z</Time>
            <Position>
              <LatitudeDegrees>41.68016276322305202484130859375</LatitudeDegrees>
              <LongitudeDegrees>-0.1521722786128520965576171875</LongitudeDegrees>
            </Position>
            <AltitudeMeters>297.79998779296875</AltitudeMeters>
            <DistanceMeters>97645.724081246</DistanceMeters>
          </Trackpoint>
          <Trackpoint>
            <Time>2022-04-23T14:34:43.000Z</Time>
            <Position>
              <LatitudeDegrees>41.68025312013924121856689453125</LatitudeDegrees>
              <LongitudeDegrees>-0.15218141488730907440185546875</LongitudeDegrees>
            </Position>
            <AltitudeMeters>296.79998779296875</AltitudeMeters>
            <DistanceMeters>97655.809455858</DistanceMeters>
          </Trackpoint>
          <Trackpoint>
            <Time>2022-04-23T14:34:44.000Z</Time>
            <Position>
              <LatitudeDegrees>41.680342890322208404541015625</LatitudeDegrees>
              <LongitudeDegrees>-0.15216507017612457275390625</LongitudeDegrees>
            </Position>
            <AltitudeMeters>296.399993896484375</AltitudeMeters>
            <DistanceMeters>97665.893039584</DistanceMeters>
          </Trackpoint>
          <Trackpoint>
            <Time>2022-04-23T14:34:45.000Z</Time>
            <Position>
              <LatitudeDegrees>41.6804231889545917510986328125</LatitudeDegrees>
              <LongitudeDegrees>-0.15212676487863063812255859375</LongitudeDegrees>
            </Position>
            <AltitudeMeters>295.600006103515625</AltitudeMeters>
            <DistanceMeters>97675.380970447</DistanceMeters>
          </Trackpoint>
          <Trackpoint>
            <Time>2022-04-23T14:34:46.000Z</Time>
            <Position>
              <LatitudeDegrees>41.68049703352153301239013671875</LatitudeDegrees>
              <LongitudeDegrees>-0.15206557698547840118408203125</LongitudeDegrees>
            </Position>
            <AltitudeMeters>294.79998779296875</AltitudeMeters>
            <DistanceMeters>97685.046640154</DistanceMeters>
          </Trackpoint>
          <Trackpoint>
            <Time>2022-04-23T14:34:48.000Z</Time>
            <Position>
              <LatitudeDegrees>41.68063483200967311859130859375</LatitudeDegrees>
              <LongitudeDegrees>-0.151921324431896209716796875</LongitudeDegrees>
            </Position>
            <AltitudeMeters>294.20001220703125</AltitudeMeters>
            <DistanceMeters>97704.515292616</DistanceMeters>
          </Trackpoint>
          <Trackpoint>
            <Time>2022-04-23T14:34:49.000Z</Time>
            <Position>
              <LatitudeDegrees>41.6807095147669315338134765625</LatitudeDegrees>
              <LongitudeDegrees>-0.15185468830168247222900390625</LongitudeDegrees>
            </Position>
            <AltitudeMeters>293.600006103515625</AltitudeMeters>
            <DistanceMeters>97714.504403923</DistanceMeters>
          </Trackpoint>
          <Trackpoint>
            <Time>2022-04-23T14:34:50.000Z</Time>
            <Position>
              <LatitudeDegrees>41.6807926632463932037353515625</LatitudeDegrees>
              <LongitudeDegrees>-0.15180087648332118988037109375</LongitudeDegrees>
            </Position>
            <AltitudeMeters>292.399993896484375</AltitudeMeters>
            <DistanceMeters>97724.783114659</DistanceMeters>
          </Trackpoint>
          <Trackpoint>
            <Time>2022-04-23T14:34:51.000Z</Time>
            <Position>
              <LatitudeDegrees>41.6808803379535675048828125</LatitudeDegrees>
              <LongitudeDegrees>-0.15176248736679553985595703125</LongitudeDegrees>
            </Position>
            <AltitudeMeters>292</AltitudeMeters>
            <DistanceMeters>97735.049958494</DistanceMeters>
          </Trackpoint>
          <Trackpoint>
            <Time>2022-04-23T14:34:52.000Z</Time>
            <Position>
              <LatitudeDegrees>41.680973209440708160400390625</LatitudeDegrees>
              <LongitudeDegrees>-0.151740610599517822265625</LongitudeDegrees>
            </Position>
            <AltitudeMeters>291.399993896484375</AltitudeMeters>
            <DistanceMeters>97745.545141792</DistanceMeters>
          </Trackpoint>
          <Trackpoint>
            <Time>2022-04-23T14:34:54.000Z</Time>
            <Position>
              <LatitudeDegrees>41.6811619699001312255859375</LatitudeDegrees>
              <LongitudeDegrees>-0.151730217039585113525390625</LongitudeDegrees>
            </Position>
            <AltitudeMeters>290.79998779296875</AltitudeMeters>
            <DistanceMeters>97766.572473125</DistanceMeters>
          </Trackpoint>
          <Trackpoint>
            <Time>2022-04-23T14:34:55.000Z</Time>
            <Position>
              <LatitudeDegrees>41.681252829730510711669921875</LatitudeDegrees>
              <LongitudeDegrees>-0.151744969189167022705078125</LongitudeDegrees>
            </Position>
            <AltitudeMeters>290.399993896484375</AltitudeMeters>
            <DistanceMeters>97776.759407821</DistanceMeters>
          </Trackpoint>
          <Trackpoint>
            <Time>2022-04-23T14:34:56.000Z</Time>
            <Position>
              <LatitudeDegrees>41.68134109117090702056884765625</LatitudeDegrees>
              <LongitudeDegrees>-0.15177614986896514892578125</LongitudeDegrees>
            </Position>
            <AltitudeMeters>290.20001220703125</AltitudeMeters>
            <DistanceMeters>97786.918825804</DistanceMeters>
          </Trackpoint>
          <Trackpoint>
            <Time>2022-04-23T14:34:58.000Z</Time>
            <Position>
              <LatitudeDegrees>41.6815000958740711212158203125</LatitudeDegrees>
              <LongitudeDegrees>-0.1518787443637847900390625</LongitudeDegrees>
            </Position>
            <AltitudeMeters>289.79998779296875</AltitudeMeters>
            <DistanceMeters>97806.56386098</DistanceMeters>
          </Trackpoint>
          <Trackpoint>
            <Time>2022-04-23T14:35:00.000Z</Time>
            <Position>
              <LatitudeDegrees>41.681634373962879180908203125</LatitudeDegrees>
              <LongitudeDegrees>-0.15201059170067310333251953125</LongitudeDegrees>
            </Position>
            <AltitudeMeters>289.600006103515625</AltitudeMeters>
            <DistanceMeters>97825.097237568</DistanceMeters>
          </Trackpoint>
          <Trackpoint>
            <Time>2022-04-23T14:35:01.000Z</Time>
            <Position>
              <LatitudeDegrees>41.6816828213632106781005859375</LatitudeDegrees>
              <LongitudeDegrees>-0.15208728611469268798828125</LongitudeDegrees>
            </Position>
            <AltitudeMeters>289.600006103515625</AltitudeMeters>
            <DistanceMeters>97833.447701645</DistanceMeters>
          </Trackpoint>
          <Trackpoint>
            <Time>2022-04-23T14:35:02.000Z</Time>
            <Position>
              <LatitudeDegrees>41.68172179721295833587646484375</LatitudeDegrees>
              <LongitudeDegrees>-0.15216934494674205780029296875</LongitudeDegrees>
            </Position>
            <AltitudeMeters>289.399993896484375</AltitudeMeters>
            <DistanceMeters>97841.53223585</DistanceMeters>
          </Trackpoint>
          <Trackpoint>
            <Time>2022-04-23T14:35:05.000Z</Time>
            <Position>
              <LatitudeDegrees>41.68180243112146854400634765625</LatitudeDegrees>
              <LongitudeDegrees>-0.15241778455674648284912109375</LongitudeDegrees>
            </Position>
            <AltitudeMeters>289.600006103515625</AltitudeMeters>
            <DistanceMeters>97864.049757746</DistanceMeters>
          </Trackpoint>
          <Trackpoint>
            <Time>2022-04-23T14:35:10.000Z</Time>
            <Position>
              <LatitudeDegrees>41.68185372836887836456298828125</LatitudeDegrees>
              <LongitudeDegrees>-0.15286269597709178924560546875</LongitudeDegrees>
            </Position>
            <AltitudeMeters>289.399993896484375</AltitudeMeters>
            <DistanceMeters>97901.471707389</DistanceMeters>
          </Trackpoint>
          <Trackpoint>
            <Time>2022-04-23T14:35:11.000Z</Time>
            <Position>
              <LatitudeDegrees>41.681856326758861541748046875</LatitudeDegrees>
              <LongitudeDegrees>-0.15296302735805511474609375</LongitudeDegrees>
            </Position>
            <AltitudeMeters>289.20001220703125</AltitudeMeters>
            <DistanceMeters>97909.817303809</DistanceMeters>
          </Trackpoint>
          <Trackpoint>
            <Time>2022-04-23T14:35:15.000Z</Time>
            <Position>
              <LatitudeDegrees>41.6818370483815670013427734375</LatitudeDegrees>
              <LongitudeDegrees>-0.15335999429225921630859375</LongitudeDegrees>
            </Position>
            <AltitudeMeters>288.20001220703125</AltitudeMeters>
            <DistanceMeters>97942.885098517</DistanceMeters>
          </Trackpoint>
          <Trackpoint>
            <Time>2022-04-23T14:35:16.000Z</Time>
            <Position>
              <LatitudeDegrees>41.681820116937160491943359375</LatitudeDegrees>
              <LongitudeDegrees>-0.15345311723649501800537109375</LongitudeDegrees>
            </Position>
            <AltitudeMeters>288.20001220703125</AltitudeMeters>
            <DistanceMeters>97950.852055735</DistanceMeters>
          </Trackpoint>
          <Trackpoint>
            <Time>2022-04-23T14:35:19.000Z</Time>
            <Position>
              <LatitudeDegrees>41.6817656345665454864501953125</LatitudeDegrees>
              <LongitudeDegrees>-0.153727121651172637939453125</LongitudeDegrees>
            </Position>
            <AltitudeMeters>287.20001220703125</AltitudeMeters>
            <DistanceMeters>97974.422129197</DistanceMeters>
          </Trackpoint>
          <Trackpoint>
            <Time>2022-04-23T14:35:20.000Z</Time>
            <Position>
              <LatitudeDegrees>41.68176219798624515533447265625</LatitudeDegrees>
              <LongitudeDegrees>-0.15381974168121814727783203125</LongitudeDegrees>
            </Position>
            <AltitudeMeters>287</AltitudeMeters>
            <DistanceMeters>97982.131601498</DistanceMeters>
          </Trackpoint>
          <Trackpoint>
            <Time>2022-04-23T14:35:21.000Z</Time>
            <Position>
              <LatitudeDegrees>41.68177275918424129486083984375</LatitudeDegrees>
              <LongitudeDegrees>-0.15390993095934391021728515625</LongitudeDegrees>
            </Position>
            <AltitudeMeters>286.79998779296875</AltitudeMeters>
            <DistanceMeters>97989.720661226</DistanceMeters>
          </Trackpoint>
          <Trackpoint>
            <Time>2022-04-23T14:35:23.000Z</Time>
            <Position>
              <LatitudeDegrees>41.68182472698390483856201171875</LatitudeDegrees>
              <LongitudeDegrees>-0.154071785509586334228515625</LongitudeDegrees>
            </Position>
            <AltitudeMeters>286.399993896484375</AltitudeMeters>
            <DistanceMeters>98004.365878046</DistanceMeters>
          </Trackpoint>
          <Trackpoint>
            <Time>2022-04-23T14:35:24.000Z</Time>
            <Position>
              <LatitudeDegrees>41.68187342584133148193359375</LatitudeDegrees>
              <LongitudeDegrees>-0.1541359908878803253173828125</LongitudeDegrees>
            </Position>
            <AltitudeMeters>286.20001220703125</AltitudeMeters>
            <DistanceMeters>98011.972765047</DistanceMeters>
          </Trackpoint>
          <Trackpoint>
            <Time>2022-04-23T14:35:25.000Z</Time>
            <Position>
              <LatitudeDegrees>41.681930087506771087646484375</LatitudeDegrees>
              <LongitudeDegrees>-0.1541908085346221923828125</LongitudeDegrees>
            </Position>
            <AltitudeMeters>286</AltitudeMeters>
            <DistanceMeters>98019.753358372</DistanceMeters>
          </Trackpoint>
          <Trackpoint>
            <Time>2022-04-23T14:35:26.000Z</Time>
            <Position>
              <LatitudeDegrees>41.68199236504733562469482421875</LatitudeDegrees>
              <LongitudeDegrees>-0.1542375795543193817138671875</LongitudeDegrees>
            </Position>
            <AltitudeMeters>286</AltitudeMeters>
            <DistanceMeters>98027.701023735</DistanceMeters>
          </Trackpoint>
          <Trackpoint>
            <Time>2022-04-23T14:35:27.000Z</Time>
            <Position>
              <LatitudeDegrees>41.68205983936786651611328125</LatitudeDegrees>
              <LongitudeDegrees>-0.1542751304805278778076171875</LongitudeDegrees>
            </Position>
            <AltitudeMeters>285.79998779296875</AltitudeMeters>
            <DistanceMeters>98035.834000432</DistanceMeters>
          </Trackpoint>
          <Trackpoint>
            <Time>2022-04-23T14:35:28.000Z</Time>
            <Position>
              <LatitudeDegrees>41.68213150463998317718505859375</LatitudeDegrees>
              <LongitudeDegrees>-0.15429876744747161865234375</LongitudeDegrees>
            </Position>
            <AltitudeMeters>285.600006103515625</AltitudeMeters>
            <DistanceMeters>98044.0481791</DistanceMeters>
          </Trackpoint>
          <Trackpoint>
            <Time>2022-04-23T14:35:31.000Z</Time>
            <Position>
              <LatitudeDegrees>41.6823567263782024383544921875</LatitudeDegrees>
              <LongitudeDegrees>-0.1543539203703403472900390625</LongitudeDegrees>
            </Position>
            <AltitudeMeters>284.600006103515625</AltitudeMeters>
            <DistanceMeters>98069.531466711</DistanceMeters>
          </Trackpoint>
          <Trackpoint>
            <Time>2022-04-23T14:35:34.000Z</Time>
            <Position>
              <LatitudeDegrees>41.6825942695140838623046875</LatitudeDegrees>
              <LongitudeDegrees>-0.154429860413074493408203125</LongitudeDegrees>
            </Position>
            <AltitudeMeters>284.20001220703125</AltitudeMeters>
            <DistanceMeters>98096.71375828</DistanceMeters>
          </Trackpoint>
          <Trackpoint>
            <Time>2022-04-23T14:35:36.000Z</Time>
            <Position>
              <LatitudeDegrees>41.68274338357150554656982421875</LatitudeDegrees>
              <LongitudeDegrees>-0.1544602029025554656982421875</LongitudeDegrees>
            </Position>
            <AltitudeMeters>283.600006103515625</AltitudeMeters>
            <DistanceMeters>98113.500974418</DistanceMeters>
          </Trackpoint>
          <Trackpoint>
            <Time>2022-04-23T14:35:40.000Z</Time>
            <Position>
              <LatitudeDegrees>41.68301981873810291290283203125</LatitudeDegrees>
              <LongitudeDegrees>-0.1545493863523006439208984375</LongitudeDegrees>
            </Position>
            <AltitudeMeters>282.79998779296875</AltitudeMeters>
            <DistanceMeters>98145.149293159</DistanceMeters>
          </Trackpoint>
          <Trackpoint>
            <Time>2022-04-23T14:35:41.000Z</Time>
            <Position>
              <LatitudeDegrees>41.683087460696697235107421875</LatitudeDegrees>
              <LongitudeDegrees>-0.15458534471690654754638671875</LongitudeDegrees>
            </Position>
            <AltitudeMeters>282.399993896484375</AltitudeMeters>
            <DistanceMeters>98153.249449667</DistanceMeters>
          </Trackpoint>
          <Trackpoint>
            <Time>2022-04-23T14:35:44.000Z</Time>
            <Position>
              <LatitudeDegrees>41.68329625390470027923583984375</LatitudeDegrees>
              <LongitudeDegrees>-0.1546878553926944732666015625</LongitudeDegrees>
            </Position>
            <AltitudeMeters>282</AltitudeMeters>
            <DistanceMeters>98178.001491936</DistanceMeters>
          </Trackpoint>
          <Trackpoint>
            <Time>2022-04-23T14:35:45.000Z</Time>
            <Position>
              <LatitudeDegrees>41.683371774852275848388671875</LatitudeDegrees>
              <LongitudeDegrees>-0.15470646321773529052734375</LongitudeDegrees>
            </Position>
            <AltitudeMeters>281.79998779296875</AltitudeMeters>
            <DistanceMeters>98186.548615337</DistanceMeters>
          </Trackpoint>
          <Trackpoint>
            <Time>2022-04-23T14:35:48.000Z</Time>
            <Position>
              <LatitudeDegrees>41.68360051698982715606689453125</LatitudeDegrees>
              <LongitudeDegrees>-0.15472917817533016204833984375</LongitudeDegrees>
            </Position>
            <AltitudeMeters>281.399993896484375</AltitudeMeters>
            <DistanceMeters>98212.078104118</DistanceMeters>
          </Trackpoint>
          <Trackpoint>
            <Time>2022-04-23T14:35:51.000Z</Time>
            <Position>
              <LatitudeDegrees>41.6838208772242069244384765625</LatitudeDegrees>
              <LongitudeDegrees>-0.1547782123088836669921875</LongitudeDegrees>
            </Position>
            <AltitudeMeters>280.600006103515625</AltitudeMeters>
            <DistanceMeters>98236.940804755</DistanceMeters>
          </Trackpoint>
          <Trackpoint>
            <Time>2022-04-23T14:35:55.000Z</Time>
            <Position>
              <LatitudeDegrees>41.68403369374573230743408203125</LatitudeDegrees>
              <LongitudeDegrees>-0.1548373885452747344970703125</LongitudeDegrees>
            </Position>
            <AltitudeMeters>280.399993896484375</AltitudeMeters>
            <DistanceMeters>98261.132896737</DistanceMeters>
          </Trackpoint>
          <Trackpoint>
            <Time>2022-04-23T14:35:56.000Z</Time>
            <Position>
              <LatitudeDegrees>41.684170402586460113525390625</LatitudeDegrees>
              <LongitudeDegrees>-0.1548648811876773834228515625</LongitudeDegrees>
            </Position>
            <AltitudeMeters>280.600006103515625</AltitudeMeters>
            <DistanceMeters>98276.519010088</DistanceMeters>
          </Trackpoint>
          <Trackpoint>
            <Time>2022-04-23T14:35:59.000Z</Time>
            <Position>
              <LatitudeDegrees>41.68436561711132526397705078125</LatitudeDegrees>
              <LongitudeDegrees>-0.15488684177398681640625</LongitudeDegrees>
            </Position>
            <AltitudeMeters>280.600006103515625</AltitudeMeters>
            <DistanceMeters>98298.323034135</DistanceMeters>
          </Trackpoint>
          <Trackpoint>
            <Time>2022-04-23T14:36:04.000Z</Time>
            <Position>
              <LatitudeDegrees>41.6846627555787563323974609375</LatitudeDegrees>
              <LongitudeDegrees>-0.15494526363909244537353515625</LongitudeDegrees>
            </Position>
            <AltitudeMeters>281.79998779296875</AltitudeMeters>
            <DistanceMeters>98331.749617999</DistanceMeters>
          </Trackpoint>
          <Trackpoint>
            <Time>2022-04-23T14:36:05.000Z</Time>
            <Position>
              <LatitudeDegrees>41.6847190819680690765380859375</LatitudeDegrees>
              <LongitudeDegrees>-0.154960937798023223876953125</LongitudeDegrees>
            </Position>
            <AltitudeMeters>281.79998779296875</AltitudeMeters>
            <DistanceMeters>98338.153177722</DistanceMeters>
          </Trackpoint>
          <Trackpoint>
            <Time>2022-04-23T14:36:06.000Z</Time>
            <Position>
              <LatitudeDegrees>41.68477431870996952056884765625</LatitudeDegrees>
              <LongitudeDegrees>-0.15496772713959217071533203125</LongitudeDegrees>
            </Position>
            <AltitudeMeters>282</AltitudeMeters>
            <DistanceMeters>98344.326258201</DistanceMeters>
          </Trackpoint>
          <Trackpoint>
            <Time>2022-04-23T14:36:09.000Z</Time>
            <Position>
              <LatitudeDegrees>41.68493089266121387481689453125</LatitudeDegrees>
              <LongitudeDegrees>-0.15493688173592090606689453125</LongitudeDegrees>
            </Position>
            <AltitudeMeters>282.399993896484375</AltitudeMeters>
            <DistanceMeters>98361.940838145</DistanceMeters>
          </Trackpoint>
          <Trackpoint>
            <Time>2022-04-23T14:36:11.000Z</Time>
            <Position>
              <LatitudeDegrees>41.685024015605449676513671875</LatitudeDegrees>
              <LongitudeDegrees>-0.1548880152404308319091796875</LongitudeDegrees>
            </Position>
            <AltitudeMeters>282.399993896484375</AltitudeMeters>
            <DistanceMeters>98373.07316805</DistanceMeters>
          </Trackpoint>
          <Trackpoint>
            <Time>2022-04-23T14:36:14.000Z</Time>
            <Position>
              <LatitudeDegrees>41.6851691901683807373046875</LatitudeDegrees>
              <LongitudeDegrees>-0.1547921262681484222412109375</LongitudeDegrees>
            </Position>
            <AltitudeMeters>282.600006103515625</AltitudeMeters>
            <DistanceMeters>98391.090192999</DistanceMeters>
          </Trackpoint>
          <Trackpoint>
            <Time>2022-04-23T14:36:16.000Z</Time>
            <Position>
              <LatitudeDegrees>41.68528410606086254119873046875</LatitudeDegrees>
              <LongitudeDegrees>-0.1547525636851787567138671875</LongitudeDegrees>
            </Position>
            <AltitudeMeters>282.600006103515625</AltitudeMeters>
            <DistanceMeters>98404.296171431</DistanceMeters>
          </Trackpoint>
          <Trackpoint>
            <Time>2022-04-23T14:36:18.000Z</Time>
            <Position>
              <LatitudeDegrees>41.68541234917938709259033203125</LatitudeDegrees>
              <LongitudeDegrees>-0.1547441817820072174072265625</LongitudeDegrees>
            </Position>
            <AltitudeMeters>282.79998779296875</AltitudeMeters>
            <DistanceMeters>98418.586875013</DistanceMeters>
          </Trackpoint>
          <Trackpoint>
            <Time>2022-04-23T14:36:24.000Z</Time>
            <Position>
              <LatitudeDegrees>41.6858171112835407257080078125</LatitudeDegrees>
              <LongitudeDegrees>-0.15475750900804996490478515625</LongitudeDegrees>
            </Position>
            <AltitudeMeters>282.20001220703125</AltitudeMeters>
            <DistanceMeters>98463.651384461</DistanceMeters>
          </Trackpoint>
          <Trackpoint>
            <Time>2022-04-23T14:36:26.000Z</Time>
            <Position>
              <LatitudeDegrees>41.6859565861523151397705078125</LatitudeDegrees>
              <LongitudeDegrees>-0.15475801192224025726318359375</LongitudeDegrees>
            </Position>
            <AltitudeMeters>281.600006103515625</AltitudeMeters>
            <DistanceMeters>98479.17509697</DistanceMeters>
          </Trackpoint>
          <Trackpoint>
            <Time>2022-04-23T14:36:29.000Z</Time>
            <Position>
              <LatitudeDegrees>41.68617459945380687713623046875</LatitudeDegrees>
              <LongitudeDegrees>-0.15478466637432575225830078125</LongitudeDegrees>
            </Position>
            <AltitudeMeters>280.79998779296875</AltitudeMeters>
            <DistanceMeters>98503.541436377</DistanceMeters>
          </Trackpoint>
          <Trackpoint>
            <Time>2022-04-23T14:36:30.000Z</Time>
            <Position>
              <LatitudeDegrees>41.68624584563076496124267578125</LatitudeDegrees>
              <LongitudeDegrees>-0.154807381331920623779296875</LongitudeDegrees>
            </Position>
            <AltitudeMeters>280.600006103515625</AltitudeMeters>
            <DistanceMeters>98511.692712503</DistanceMeters>
          </Trackpoint>
          <Trackpoint>
            <Time>2022-04-23T14:36:33.000Z</Time>
            <Position>
              <LatitudeDegrees>41.68645103462040424346923828125</LatitudeDegrees>
              <LongitudeDegrees>-0.15491307713091373443603515625</LongitudeDegrees>
            </Position>
            <AltitudeMeters>280.399993896484375</AltitudeMeters>
            <DistanceMeters>98536.162229841</DistanceMeters>
          </Trackpoint>
          <Trackpoint>
            <Time>2022-04-23T14:36:35.000Z</Time>
            <Position>
              <LatitudeDegrees>41.68658413924276828765869140625</LatitudeDegrees>
              <LongitudeDegrees>-0.154993124306201934814453125</LongitudeDegrees>
            </Position>
            <AltitudeMeters>279.79998779296875</AltitudeMeters>
            <DistanceMeters>98552.402626166</DistanceMeters>
          </Trackpoint>
          <Trackpoint>
            <Time>2022-04-23T14:36:37.000Z</Time>
            <Position>
              <LatitudeDegrees>41.68671858496963977813720703125</LatitudeDegrees>
              <LongitudeDegrees>-0.15506931580603122711181640625</LongitudeDegrees>
            </Position>
            <AltitudeMeters>279.399993896484375</AltitudeMeters>
            <DistanceMeters>98568.651916465</DistanceMeters>
          </Trackpoint>
          <Trackpoint>
            <Time>2022-04-23T14:36:38.000Z</Time>
            <Position>
              <LatitudeDegrees>41.68678245507180690765380859375</LatitudeDegrees>
              <LongitudeDegrees>-0.15511105768382549285888671875</LongitudeDegrees>
            </Position>
            <AltitudeMeters>279.20001220703125</AltitudeMeters>
            <DistanceMeters>98576.562569393</DistanceMeters>
          </Trackpoint>
          <Trackpoint>
            <Time>2022-04-23T14:36:43.000Z</Time>
            <Position>
              <LatitudeDegrees>41.6871132887899875640869140625</LatitudeDegrees>
              <LongitudeDegrees>-0.155318677425384521484375</LongitudeDegrees>
            </Position>
            <AltitudeMeters>278.20001220703125</AltitudeMeters>
            <DistanceMeters>98617.228452139</DistanceMeters>
          </Trackpoint>
          <Trackpoint>
            <Time>2022-04-23T14:36:45.000Z</Time>
            <Position>
              <LatitudeDegrees>41.687245555222034454345703125</LatitudeDegrees>
              <LongitudeDegrees>-0.15539738349616527557373046875</LongitudeDegrees>
            </Position>
            <AltitudeMeters>277</AltitudeMeters>
            <DistanceMeters>98633.337932792</DistanceMeters>
          </Trackpoint>
          <Trackpoint>
            <Time>2022-04-23T14:36:47.000Z</Time>
            <Position>
              <LatitudeDegrees>41.687376312911510467529296875</LatitudeDegrees>
              <LongitudeDegrees>-0.15548388473689556121826171875</LongitudeDegrees>
            </Position>
            <AltitudeMeters>275.399993896484375</AltitudeMeters>
            <DistanceMeters>98649.570542892</DistanceMeters>
          </Trackpoint>
          <Trackpoint>
            <Time>2022-04-23T14:36:50.000Z</Time>
            <Position>
              <LatitudeDegrees>41.6875702701508998870849609375</LatitudeDegrees>
              <LongitudeDegrees>-0.15561816282570362091064453125</LongitudeDegrees>
            </Position>
            <AltitudeMeters>274.20001220703125</AltitudeMeters>
            <DistanceMeters>98673.87268456</DistanceMeters>
          </Trackpoint>
          <Trackpoint>
            <Time>2022-04-23T14:36:52.000Z</Time>
            <Position>
              <LatitudeDegrees>41.6876986809074878692626953125</LatitudeDegrees>
              <LongitudeDegrees>-0.15570516698062419891357421875</LongitudeDegrees>
            </Position>
            <AltitudeMeters>274</AltitudeMeters>
            <DistanceMeters>98689.890535914</DistanceMeters>
          </Trackpoint>
          <Trackpoint>
            <Time>2022-04-23T14:36:58.000Z</Time>
            <Position>
              <LatitudeDegrees>41.68809455819427967071533203125</LatitudeDegrees>
              <LongitudeDegrees>-0.15594455413520336151123046875</LongitudeDegrees>
            </Position>
            <AltitudeMeters>273</AltitudeMeters>
            <DistanceMeters>98738.236818573</DistanceMeters>
          </Trackpoint>
          <Trackpoint>
            <Time>2022-04-23T14:37:03.000Z</Time>
            <Position>
              <LatitudeDegrees>41.6884279064834117889404296875</LatitudeDegrees>
              <LongitudeDegrees>-0.15614823438227176666259765625</LongitudeDegrees>
            </Position>
            <AltitudeMeters>271.79998779296875</AltitudeMeters>
            <DistanceMeters>98779.019113748</DistanceMeters>
          </Trackpoint>
          <Trackpoint>
            <Time>2022-04-23T14:37:11.000Z</Time>
            <Position>
              <LatitudeDegrees>41.68899041600525379180908203125</LatitudeDegrees>
              <LongitudeDegrees>-0.156442858278751373291015625</LongitudeDegrees>
            </Position>
            <AltitudeMeters>271</AltitudeMeters>
            <DistanceMeters>98846.246199209</DistanceMeters>
          </Trackpoint>
          <Trackpoint>
            <Time>2022-04-23T14:37:12.000Z</Time>
            <Position>
              <LatitudeDegrees>41.6890679486095905303955078125</LatitudeDegrees>
              <LongitudeDegrees>-0.15647269785404205322265625</LongitudeDegrees>
            </Position>
            <AltitudeMeters>271</AltitudeMeters>
            <DistanceMeters>98855.225092376</DistanceMeters>
          </Trackpoint>
          <Trackpoint>
            <Time>2022-04-23T14:37:16.000Z</Time>
            <Position>
              <LatitudeDegrees>41.6893898136913776397705078125</LatitudeDegrees>
              <LongitudeDegrees>-0.156568922102451324462890625</LongitudeDegrees>
            </Position>
            <AltitudeMeters>270.79998779296875</AltitudeMeters>
            <DistanceMeters>98891.931244257</DistanceMeters>
          </Trackpoint>
          <Trackpoint>
            <Time>2022-04-23T14:37:18.000Z</Time>
            <Position>
              <LatitudeDegrees>41.68954965658485889434814453125</LatitudeDegrees>
              <LongitudeDegrees>-0.1566160283982753753662109375</LongitudeDegrees>
            </Position>
            <AltitudeMeters>270</AltitudeMeters>
            <DistanceMeters>98910.147644811</DistanceMeters>
          </Trackpoint>
          <Trackpoint>
            <Time>2022-04-23T14:37:20.000Z</Time>
            <Position>
              <LatitudeDegrees>41.6897101700305938720703125</LatitudeDegrees>
              <LongitudeDegrees>-0.15666439197957515716552734375</LongitudeDegrees>
            </Position>
            <AltitudeMeters>269.79998779296875</AltitudeMeters>
            <DistanceMeters>98928.459467731</DistanceMeters>
          </Trackpoint>
          <Trackpoint>
            <Time>2022-04-23T14:37:23.000Z</Time>
            <Position>
              <LatitudeDegrees>41.6899547539651393890380859375</LatitudeDegrees>
              <LongitudeDegrees>-0.156724154949188232421875</LongitudeDegrees>
            </Position>
            <AltitudeMeters>268.600006103515625</AltitudeMeters>
            <DistanceMeters>98956.131664653</DistanceMeters>
          </Trackpoint>
          <Trackpoint>
            <Time>2022-04-23T14:37:26.000Z</Time>
            <Position>
              <LatitudeDegrees>41.6902001760900020599365234375</LatitudeDegrees>
              <LongitudeDegrees>-0.15678810887038707733154296875</LongitudeDegrees>
            </Position>
            <AltitudeMeters>267.399993896484375</AltitudeMeters>
            <DistanceMeters>98983.960055836</DistanceMeters>
          </Trackpoint>
          <Trackpoint>
            <Time>2022-04-23T14:37:27.000Z</Time>
            <Position>
              <LatitudeDegrees>41.690283156931400299072265625</LatitudeDegrees>
              <LongitudeDegrees>-0.1568074710667133331298828125</LongitudeDegrees>
            </Position>
            <AltitudeMeters>266.79998779296875</AltitudeMeters>
            <DistanceMeters>98993.335489911</DistanceMeters>
          </Trackpoint>
          <Trackpoint>
            <Time>2022-04-23T14:37:29.000Z</Time>
            <Position>
              <LatitudeDegrees>41.690456829965114593505859375</LatitudeDegrees>
              <LongitudeDegrees>-0.15682431869208812713623046875</LongitudeDegrees>
            </Position>
            <AltitudeMeters>266.20001220703125</AltitudeMeters>
            <DistanceMeters>99012.716280911</DistanceMeters>
          </Trackpoint>
          <Trackpoint>
            <Time>2022-04-23T14:37:32.000Z</Time>
            <Position>
              <LatitudeDegrees>41.6907218657433986663818359375</LatitudeDegrees>
              <LongitudeDegrees>-0.156803615391254425048828125</LongitudeDegrees>
            </Position>
            <AltitudeMeters>265.399993896484375</AltitudeMeters>
            <DistanceMeters>99042.26531104</DistanceMeters>
          </Trackpoint>
          <Trackpoint>
            <Time>2022-04-23T14:37:34.000Z</Time>
            <Position>
              <LatitudeDegrees>41.69090685434639453887939453125</LatitudeDegrees>
              <LongitudeDegrees>-0.156794227659702301025390625</LongitudeDegrees>
            </Position>
            <AltitudeMeters>264</AltitudeMeters>
            <DistanceMeters>99062.869679847</DistanceMeters>
          </Trackpoint>
          <Trackpoint>
            <Time>2022-04-23T14:37:36.000Z</Time>
            <Position>
              <LatitudeDegrees>41.6910943575203418731689453125</LatitudeDegrees>
              <LongitudeDegrees>-0.15679263509809970855712890625</LongitudeDegrees>
            </Position>
            <AltitudeMeters>262.79998779296875</AltitudeMeters>
            <DistanceMeters>99083.739675228</DistanceMeters>
          </Trackpoint>
          <Trackpoint>
            <Time>2022-04-23T14:37:38.000Z</Time>
            <Position>
              <LatitudeDegrees>41.6912824474275112152099609375</LatitudeDegrees>
              <LongitudeDegrees>-0.156798921525478363037109375</LongitudeDegrees>
            </Position>
            <AltitudeMeters>261.20001220703125</AltitudeMeters>
            <DistanceMeters>99104.680941485</DistanceMeters>
          </Trackpoint>
          <Trackpoint>
            <Time>2022-04-23T14:37:39.000Z</Time>
            <Position>
              <LatitudeDegrees>41.69137724675238132476806640625</LatitudeDegrees>
              <LongitudeDegrees>-0.1568004302680492401123046875</LongitudeDegrees>
            </Position>
            <AltitudeMeters>260.79998779296875</AltitudeMeters>
            <DistanceMeters>99115.232758511</DistanceMeters>
          </Trackpoint>
          <Trackpoint>
            <Time>2022-04-23T14:37:42.000Z</Time>
            <Position>
              <LatitudeDegrees>41.69166156090795993804931640625</LatitudeDegrees>
              <LongitudeDegrees>-0.156788863241672515869140625</LongitudeDegrees>
            </Position>
            <AltitudeMeters>260</AltitudeMeters>
            <DistanceMeters>99146.892202996</DistanceMeters>
          </Trackpoint>
          <Trackpoint>
            <Time>2022-04-23T14:37:45.000Z</Time>
            <Position>
              <LatitudeDegrees>41.69194118119776248931884765625</LatitudeDegrees>
              <LongitudeDegrees>-0.15676849521696567535400390625</LongitudeDegrees>
            </Position>
            <AltitudeMeters>259</AltitudeMeters>
            <DistanceMeters>99178.060385873</DistanceMeters>
          </Trackpoint>
          <Trackpoint>
            <Time>2022-04-23T14:37:47.000Z</Time>
            <Position>
              <LatitudeDegrees>41.692130528390407562255859375</LatitudeDegrees>
              <LongitudeDegrees>-0.15675365924835205078125</LongitudeDegrees>
            </Position>
            <AltitudeMeters>258</AltitudeMeters>
            <DistanceMeters>99199.170865088</DistanceMeters>
          </Trackpoint>
          <Trackpoint>
            <Time>2022-04-23T14:37:48.000Z</Time>
            <Position>
              <LatitudeDegrees>41.692225746810436248779296875</LatitudeDegrees>
              <LongitudeDegrees>-0.15674016438424587249755859375</LongitudeDegrees>
            </Position>
            <AltitudeMeters>257.600006103515625</AltitudeMeters>
            <DistanceMeters>99209.827423695</DistanceMeters>
          </Trackpoint>
          <Trackpoint>
            <Time>2022-04-23T14:37:51.000Z</Time>
            <Position>
              <LatitudeDegrees>41.692410148680210113525390625</LatitudeDegrees>
              <LongitudeDegrees>-0.15670278109610080718994140625</LongitudeDegrees>
            </Position>
            <AltitudeMeters>256.399993896484375</AltitudeMeters>
            <DistanceMeters>99230.585486894</DistanceMeters>
          </Trackpoint>
          <Trackpoint>
            <Time>2022-04-23T14:37:52.000Z</Time>
            <Position>
              <LatitudeDegrees>41.692588515579700469970703125</LatitudeDegrees>
              <LongitudeDegrees>-0.15664435923099517822265625</LongitudeDegrees>
            </Position>
            <AltitudeMeters>256.20001220703125</AltitudeMeters>
            <DistanceMeters>99251.02352193</DistanceMeters>
          </Trackpoint>
          <Trackpoint>
            <Time>2022-04-23T14:37:53.000Z</Time>
            <Position>
              <LatitudeDegrees>41.69267468154430389404296875</LatitudeDegrees>
              <LongitudeDegrees>-0.15660856850445270538330078125</LongitudeDegrees>
            </Position>
            <AltitudeMeters>256.20001220703125</AltitudeMeters>
            <DistanceMeters>99261.064927886</DistanceMeters>
          </Trackpoint>
          <Trackpoint>
            <Time>2022-04-23T14:37:58.000Z</Time>
            <Position>
              <LatitudeDegrees>41.69307106174528598785400390625</LatitudeDegrees>
              <LongitudeDegrees>-0.15641905367374420166015625</LongitudeDegrees>
            </Position>
            <AltitudeMeters>255.8000030517578125</AltitudeMeters>
            <DistanceMeters>99307.910206702</DistanceMeters>
          </Trackpoint>
          <Trackpoint>
            <Time>2022-04-23T14:38:01.000Z</Time>
            <Position>
              <LatitudeDegrees>41.69330005533993244171142578125</LatitudeDegrees>
              <LongitudeDegrees>-0.156340934336185455322265625</LongitudeDegrees>
            </Position>
            <AltitudeMeters>255.600006103515625</AltitudeMeters>
            <DistanceMeters>99334.211671797</DistanceMeters>
          </Trackpoint>
          <Trackpoint>
            <Time>2022-04-23T14:38:03.000Z</Time>
            <Position>
              <LatitudeDegrees>41.6934533603489398956298828125</LatitudeDegrees>
              <LongitudeDegrees>-0.15632743947207927703857421875</LongitudeDegrees>
            </Position>
            <AltitudeMeters>255.399993896484375</AltitudeMeters>
            <DistanceMeters>99351.311728388</DistanceMeters>
          </Trackpoint>
          <Trackpoint>
            <Time>2022-04-23T14:38:05.000Z</Time>
            <Position>
              <LatitudeDegrees>41.69360113330185413360595703125</LatitudeDegrees>
              <LongitudeDegrees>-0.15632911585271358489990234375</LongitudeDegrees>
            </Position>
            <AltitudeMeters>255.399993896484375</AltitudeMeters>
            <DistanceMeters>99367.759861724</DistanceMeters>
          </Trackpoint>
          <Trackpoint>
            <Time>2022-04-23T14:38:09.000Z</Time>
            <Position>
              <LatitudeDegrees>41.69386784546077251434326171875</LatitudeDegrees>
              <LongitudeDegrees>-0.1563447900116443634033203125</LongitudeDegrees>
            </Position>
            <AltitudeMeters>255.600006103515625</AltitudeMeters>
            <DistanceMeters>99397.473911505</DistanceMeters>
          </Trackpoint>
          <Trackpoint>
            <Time>2022-04-23T14:38:13.000Z</Time>
            <Position>
              <LatitudeDegrees>41.6941229067742824554443359375</LatitudeDegrees>
              <LongitudeDegrees>-0.15636867843568325042724609375</LongitudeDegrees>
            </Position>
            <AltitudeMeters>256.399993896484375</AltitudeMeters>
            <DistanceMeters>99425.932151717</DistanceMeters>
          </Trackpoint>
          <Trackpoint>
            <Time>2022-04-23T14:38:15.000Z</Time>
            <Position>
              <LatitudeDegrees>41.69426011852920055389404296875</LatitudeDegrees>
              <LongitudeDegrees>-0.156363062560558319091796875</LongitudeDegrees>
            </Position>
            <AltitudeMeters>256.600006103515625</AltitudeMeters>
            <DistanceMeters>99441.211076294</DistanceMeters>
          </Trackpoint>
          <Trackpoint>
            <Time>2022-04-23T14:38:16.000Z</Time>
            <Position>
              <LatitudeDegrees>41.6943307779729366302490234375</LatitudeDegrees>
              <LongitudeDegrees>-0.1563494838774204254150390625</LongitudeDegrees>
            </Position>
            <AltitudeMeters>256.79998779296875</AltitudeMeters>
            <DistanceMeters>99449.156468948</DistanceMeters>
          </Trackpoint>
          <Trackpoint>
            <Time>2022-04-23T14:38:20.000Z</Time>
            <Position>
              <LatitudeDegrees>41.6946147568523883819580078125</LatitudeDegrees>
              <LongitudeDegrees>-0.1562266051769256591796875</LongitudeDegrees>
            </Position>
            <AltitudeMeters>256.79998779296875</AltitudeMeters>
            <DistanceMeters>99482.372757575</DistanceMeters>
          </Trackpoint>
          <Trackpoint>
            <Time>2022-04-23T14:38:24.000Z</Time>
            <Position>
              <LatitudeDegrees>41.694884486496448516845703125</LatitudeDegrees>
              <LongitudeDegrees>-0.15605770982801914215087890625</LongitudeDegrees>
            </Position>
            <AltitudeMeters>256.399993896484375</AltitudeMeters>
            <DistanceMeters>99515.51379253</DistanceMeters>
          </Trackpoint>
          <Trackpoint>
            <Time>2022-04-23T14:38:26.000Z</Time>
            <Position>
              <LatitudeDegrees>41.69502119533717632293701171875</LatitudeDegrees>
              <LongitudeDegrees>-0.15598931349813938140869140625</LongitudeDegrees>
            </Position>
            <AltitudeMeters>256.79998779296875</AltitudeMeters>
            <DistanceMeters>99531.756968744</DistanceMeters>
          </Trackpoint>
          <Trackpoint>
            <Time>2022-04-23T14:38:33.000Z</Time>
            <Position>
              <LatitudeDegrees>41.69554539956152439117431640625</LatitudeDegrees>
              <LongitudeDegrees>-0.1557357609272003173828125</LongitudeDegrees>
            </Position>
            <AltitudeMeters>256.600006103515625</AltitudeMeters>
            <DistanceMeters>99593.790710666</DistanceMeters>
          </Trackpoint>
          <Trackpoint>
            <Time>2022-04-23T14:38:34.000Z</Time>
            <Position>
              <LatitudeDegrees>41.69562217779457569122314453125</LatitudeDegrees>
              <LongitudeDegrees>-0.15569058246910572052001953125</LongitudeDegrees>
            </Position>
            <AltitudeMeters>256.600006103515625</AltitudeMeters>
            <DistanceMeters>99603.124636824</DistanceMeters>
          </Trackpoint>
          <Trackpoint>
            <Time>2022-04-23T14:38:39.000Z</Time>
            <Position>
              <LatitudeDegrees>41.6960240900516510009765625</LatitudeDegrees>
              <LongitudeDegrees>-0.155442059040069580078125</LongitudeDegrees>
            </Position>
            <AltitudeMeters>256</AltitudeMeters>
            <DistanceMeters>99652.39633186</DistanceMeters>
          </Trackpoint>
          <Trackpoint>
            <Time>2022-04-23T14:38:40.000Z</Time>
            <Position>
              <LatitudeDegrees>41.69611436314880847930908203125</LatitudeDegrees>
              <LongitudeDegrees>-0.15541599132120609283447265625</LongitudeDegrees>
            </Position>
            <AltitudeMeters>255.399993896484375</AltitudeMeters>
            <DistanceMeters>99662.675042596</DistanceMeters>
          </Trackpoint>
          <Trackpoint>
            <Time>2022-04-23T14:38:41.000Z</Time>
            <Position>
              <LatitudeDegrees>41.696206815540790557861328125</LatitudeDegrees>
              <LongitudeDegrees>-0.1554071903228759765625</LongitudeDegrees>
            </Position>
            <AltitudeMeters>254.8000030517578125</AltitudeMeters>
            <DistanceMeters>99672.991022961</DistanceMeters>
          </Trackpoint>
          <Trackpoint>
            <Time>2022-04-23T14:38:42.000Z</Time>
            <Position>
              <LatitudeDegrees>41.6962991841137409210205078125</LatitudeDegrees>
              <LongitudeDegrees>-0.1554133929312229156494140625</LongitudeDegrees>
            </Position>
            <AltitudeMeters>254.1999969482421875</AltitudeMeters>
            <DistanceMeters>99683.284657741</DistanceMeters>
          </Trackpoint>
          <Trackpoint>
            <Time>2022-04-23T14:38:43.000Z</Time>
            <Position>
              <LatitudeDegrees>41.69639088213443756103515625</LatitudeDegrees>
              <LongitudeDegrees>-0.1554326713085174560546875</LongitudeDegrees>
            </Position>
            <AltitudeMeters>253.600006103515625</AltitudeMeters>
            <DistanceMeters>99693.615945346</DistanceMeters>
          </Trackpoint>
          <Trackpoint>
            <Time>2022-04-23T14:38:44.000Z</Time>
            <Position>
              <LatitudeDegrees>41.69648383744060993194580078125</LatitudeDegrees>
              <LongitudeDegrees>-0.155449099838733673095703125</LongitudeDegrees>
            </Position>
            <AltitudeMeters>252.8000030517578125</AltitudeMeters>
            <DistanceMeters>99704.051592039</DistanceMeters>
          </Trackpoint>
          <Trackpoint>
            <Time>2022-04-23T14:38:47.000Z</Time>
            <Position>
              <LatitudeDegrees>41.69675138778984546661376953125</LatitudeDegrees>
              <LongitudeDegrees>-0.15542806126177310943603515625</LongitudeDegrees>
            </Position>
            <AltitudeMeters>252.1999969482421875</AltitudeMeters>
            <DistanceMeters>99733.881505428</DistanceMeters>
          </Trackpoint>
          <Trackpoint>
            <Time>2022-04-23T14:38:49.000Z</Time>
            <Position>
              <LatitudeDegrees>41.6969130747020244598388671875</LatitudeDegrees>
              <LongitudeDegrees>-0.1553602516651153564453125</LongitudeDegrees>
            </Position>
            <AltitudeMeters>251.8000030517578125</AltitudeMeters>
            <DistanceMeters>99752.738981674</DistanceMeters>
          </Trackpoint>
          <Trackpoint>
            <Time>2022-04-23T14:38:52.000Z</Time>
            <Position>
              <LatitudeDegrees>41.697133518755435943603515625</LatitudeDegrees>
              <LongitudeDegrees>-0.15525606460869312286376953125</LongitudeDegrees>
            </Position>
            <AltitudeMeters>251.1999969482421875</AltitudeMeters>
            <DistanceMeters>99778.757913839</DistanceMeters>
          </Trackpoint>
          <Trackpoint>
            <Time>2022-04-23T14:38:59.000Z</Time>
            <Position>
              <LatitudeDegrees>41.69765395112335681915283203125</LatitudeDegrees>
              <LongitudeDegrees>-0.1549337804317474365234375</LongitudeDegrees>
            </Position>
            <AltitudeMeters>251</AltitudeMeters>
            <DistanceMeters>99842.575622411</DistanceMeters>
          </Trackpoint>
          <Trackpoint>
            <Time>2022-04-23T14:39:06.000Z</Time>
            <Position>
              <LatitudeDegrees>41.69812987558543682098388671875</LatitudeDegrees>
              <LongitudeDegrees>-0.15471811406314373016357421875</LongitudeDegrees>
            </Position>
            <AltitudeMeters>251.600006103515625</AltitudeMeters>
            <DistanceMeters>99898.497047405</DistanceMeters>
          </Trackpoint>
          <Trackpoint>
            <Time>2022-04-23T14:39:11.000Z</Time>
            <Position>
              <LatitudeDegrees>41.69845484197139739990234375</LatitudeDegrees>
              <LongitudeDegrees>-0.15469917096197605133056640625</LongitudeDegrees>
            </Position>
            <AltitudeMeters>253</AltitudeMeters>
            <DistanceMeters>99934.700604353</DistanceMeters>
          </Trackpoint>
          <Trackpoint>
            <Time>2022-04-23T14:39:12.000Z</Time>
            <Position>
              <LatitudeDegrees>41.6985177062451839447021484375</LatitudeDegrees>
              <LongitudeDegrees>-0.1547019369900226593017578125</LongitudeDegrees>
            </Position>
            <AltitudeMeters>253.399993896484375</AltitudeMeters>
            <DistanceMeters>99941.701693907</DistanceMeters>
          </Trackpoint>
          <Trackpoint>
            <Time>2022-04-23T14:39:17.000Z</Time>
            <Position>
              <LatitudeDegrees>41.69884376227855682373046875</LatitudeDegrees>
              <LongitudeDegrees>-0.1546878553926944732666015625</LongitudeDegrees>
            </Position>
            <AltitudeMeters>254.1999969482421875</AltitudeMeters>
            <DistanceMeters>99978.011350485</DistanceMeters>
          </Trackpoint>
          <Trackpoint>
            <Time>2022-04-23T14:39:18.000Z</Time>
            <Position>
              <LatitudeDegrees>41.6989113204181194305419921875</LatitudeDegrees>
              <LongitudeDegrees>-0.15468693338334560394287109375</LongitudeDegrees>
            </Position>
            <AltitudeMeters>254.399993896484375</AltitudeMeters>
            <DistanceMeters>99985.531680848</DistanceMeters>
          </Trackpoint>
          <Trackpoint>
            <Time>2022-04-23T14:39:26.000Z</Time>
            <Position>
              <LatitudeDegrees>41.699458658695220947265625</LatitudeDegrees>
              <LongitudeDegrees>-0.15467804856598377227783203125</LongitudeDegrees>
            </Position>
            <AltitudeMeters>254.600006103515625</AltitudeMeters>
            <DistanceMeters>100046.45588574</DistanceMeters>
          </Trackpoint>
          <Trackpoint>
            <Time>2022-04-23T14:39:32.000Z</Time>
            <Position>
              <LatitudeDegrees>41.6998879797756671905517578125</LatitudeDegrees>
              <LongitudeDegrees>-0.1546422578394412994384765625</LongitudeDegrees>
            </Position>
            <AltitudeMeters>254.1999969482421875</AltitudeMeters>
            <DistanceMeters>100094.33256633</DistanceMeters>
          </Trackpoint>
          <Trackpoint>
            <Time>2022-04-23T14:39:40.000Z</Time>
            <Position>
              <LatitudeDegrees>41.700456775724887847900390625</LatitudeDegrees>
              <LongitudeDegrees>-0.15460914932191371917724609375</LongitudeDegrees>
            </Position>
            <AltitudeMeters>254</AltitudeMeters>
            <DistanceMeters>100157.70049507</DistanceMeters>
          </Trackpoint>
          <Trackpoint>
            <Time>2022-04-23T14:39:41.000Z</Time>
            <Position>
              <LatitudeDegrees>41.7005290277302265167236328125</LatitudeDegrees>
              <LongitudeDegrees>-0.1546050421893596649169921875</LongitudeDegrees>
            </Position>
            <AltitudeMeters>254</AltitudeMeters>
            <DistanceMeters>100165.74920729</DistanceMeters>
          </Trackpoint>
          <Trackpoint>
            <Time>2022-04-23T14:39:47.000Z</Time>
            <Position>
              <LatitudeDegrees>41.700985170900821685791015625</LatitudeDegrees>
              <LongitudeDegrees>-0.15458132140338420867919921875</LongitudeDegrees>
            </Position>
            <AltitudeMeters>252.8000030517578125</AltitudeMeters>
            <DistanceMeters>100216.55705101</DistanceMeters>
          </Trackpoint>
          <Trackpoint>
            <Time>2022-04-23T14:39:49.000Z</Time>
            <Position>
              <LatitudeDegrees>41.701142080128192901611328125</LatitudeDegrees>
              <LongitudeDegrees>-0.15457570552825927734375</LongitudeDegrees>
            </Position>
            <AltitudeMeters>251.8000030517578125</AltitudeMeters>
            <DistanceMeters>100234.02749988</DistanceMeters>
          </Trackpoint>
          <Trackpoint>
            <Time>2022-04-23T14:39:50.000Z</Time>
            <Position>
              <LatitudeDegrees>41.70122019946575164794921875</LatitudeDegrees>
              <LongitudeDegrees>-0.15457327477633953094482421875</LongitudeDegrees>
            </Position>
            <AltitudeMeters>251.600006103515625</AltitudeMeters>
            <DistanceMeters>100242.7243913</DistanceMeters>
          </Trackpoint>
          <Trackpoint>
            <Time>2022-04-23T14:39:54.000Z</Time>
            <Position>
              <LatitudeDegrees>41.70151566155254840850830078125</LatitudeDegrees>
              <LongitudeDegrees>-0.1545636355876922607421875</LongitudeDegrees>
            </Position>
            <AltitudeMeters>250.600006103515625</AltitudeMeters>
            <DistanceMeters>100275.61955995</DistanceMeters>
          </Trackpoint>
          <Trackpoint>
            <Time>2022-04-23T14:39:56.000Z</Time>
            <Position>
              <LatitudeDegrees>41.70165496878325939178466796875</LatitudeDegrees>
              <LongitudeDegrees>-0.15455885790288448333740234375</LongitudeDegrees>
            </Position>
            <AltitudeMeters>249.399993896484375</AltitudeMeters>
            <DistanceMeters>100291.12959658</DistanceMeters>
          </Trackpoint>
          <Trackpoint>
            <Time>2022-04-23T14:39:58.000Z</Time>
            <Position>
              <LatitudeDegrees>41.7017960362136363983154296875</LatitudeDegrees>
              <LongitudeDegrees>-0.15455047599971294403076171875</LongitudeDegrees>
            </Position>
            <AltitudeMeters>249</AltitudeMeters>
            <DistanceMeters>100306.84610736</DistanceMeters>
          </Trackpoint>
          <Trackpoint>
            <Time>2022-04-23T14:40:01.000Z</Time>
            <Position>
              <LatitudeDegrees>41.7020179890096187591552734375</LatitudeDegrees>
              <LongitudeDegrees>-0.15455064363777637481689453125</LongitudeDegrees>
            </Position>
            <AltitudeMeters>248.1999969482421875</AltitudeMeters>
            <DistanceMeters>100331.54994626</DistanceMeters>
          </Trackpoint>
          <Trackpoint>
            <Time>2022-04-23T14:40:06.000Z</Time>
            <Position>
              <LatitudeDegrees>41.702391318976879119873046875</LatitudeDegrees>
              <LongitudeDegrees>-0.1545121707022190093994140625</LongitudeDegrees>
            </Position>
            <AltitudeMeters>247.8000030517578125</AltitudeMeters>
            <DistanceMeters>100373.22520083</DistanceMeters>
          </Trackpoint>
          <Trackpoint>
            <Time>2022-04-23T14:40:07.000Z</Time>
            <Position>
              <LatitudeDegrees>41.70245938003063201904296875</LatitudeDegrees>
              <LongitudeDegrees>-0.15448224730789661407470703125</LongitudeDegrees>
            </Position>
            <AltitudeMeters>247.600006103515625</AltitudeMeters>
            <DistanceMeters>100381.19838953</DistanceMeters>
          </Trackpoint>
          <Trackpoint>
            <Time>2022-04-23T14:40:10.000Z</Time>
            <Position>
              <LatitudeDegrees>41.70264889486134052276611328125</LatitudeDegrees>
              <LongitudeDegrees>-0.154356770217418670654296875</LongitudeDegrees>
            </Position>
            <AltitudeMeters>247</AltitudeMeters>
            <DistanceMeters>100404.72820141</DistanceMeters>
          </Trackpoint>
          <Trackpoint>
            <Time>2022-04-23T14:40:13.000Z</Time>
            <Position>
              <LatitudeDegrees>41.70284318737685680389404296875</LatitudeDegrees>
              <LongitudeDegrees>-0.15420212410390377044677734375</LongitudeDegrees>
            </Position>
            <AltitudeMeters>246.600006103515625</AltitudeMeters>
            <DistanceMeters>100429.88355148</DistanceMeters>
          </Trackpoint>
          <Trackpoint>
            <Time>2022-04-23T14:40:14.000Z</Time>
            <Position>
              <LatitudeDegrees>41.70291158370673656463623046875</LatitudeDegrees>
              <LongitudeDegrees>-0.1541587896645069122314453125</LongitudeDegrees>
            </Position>
            <AltitudeMeters>246.399993896484375</AltitudeMeters>
            <DistanceMeters>100438.30508461</DistanceMeters>
          </Trackpoint>
          <Trackpoint>
            <Time>2022-04-23T14:40:16.000Z</Time>
            <Position>
              <LatitudeDegrees>41.70305910520255565643310546875</LatitudeDegrees>
              <LongitudeDegrees>-0.154112689197063446044921875</LongitudeDegrees>
            </Position>
            <AltitudeMeters>246</AltitudeMeters>
            <DistanceMeters>100455.16556612</DistanceMeters>
          </Trackpoint>
          <Trackpoint>
            <Time>2022-04-23T14:40:17.000Z</Time>
            <Position>
              <LatitudeDegrees>41.70313571579754352569580078125</LatitudeDegrees>
              <LongitudeDegrees>-0.15410690568387508392333984375</LongitudeDegrees>
            </Position>
            <AltitudeMeters>245.8000030517578125</AltitudeMeters>
            <DistanceMeters>100463.70634814</DistanceMeters>
          </Trackpoint>
          <Trackpoint>
            <Time>2022-04-23T14:40:21.000Z</Time>
            <Position>
              <LatitudeDegrees>41.7034573294222354888916015625</LatitudeDegrees>
              <LongitudeDegrees>-0.15411235392093658447265625</LongitudeDegrees>
            </Position>
            <AltitudeMeters>245.1999969482421875</AltitudeMeters>
            <DistanceMeters>100499.50544783</DistanceMeters>
          </Trackpoint>
          <Trackpoint>
            <Time>2022-04-23T14:40:23.000Z</Time>
            <Position>
              <LatitudeDegrees>41.703627817332744598388671875</LatitudeDegrees>
              <LongitudeDegrees>-0.15408393926918506622314453125</LongitudeDegrees>
            </Position>
            <AltitudeMeters>245</AltitudeMeters>
            <DistanceMeters>100518.62731635</DistanceMeters>
          </Trackpoint>
          <Trackpoint>
            <Time>2022-04-23T14:40:24.000Z</Time>
            <Position>
              <LatitudeDegrees>41.7037154920399188995361328125</LatitudeDegrees>
              <LongitudeDegrees>-0.1540593802928924560546875</LongitudeDegrees>
            </Position>
            <AltitudeMeters>244.600006103515625</AltitudeMeters>
            <DistanceMeters>100528.59651999</DistanceMeters>
          </Trackpoint>
          <Trackpoint>
            <Time>2022-04-23T14:40:28.000Z</Time>
            <Position>
              <LatitudeDegrees>41.70408974401652812957763671875</LatitudeDegrees>
              <LongitudeDegrees>-0.15393658541142940521240234375</LongitudeDegrees>
            </Position>
            <AltitudeMeters>243.1999969482421875</AltitudeMeters>
            <DistanceMeters>100571.48305634</DistanceMeters>
          </Trackpoint>
          <Trackpoint>
            <Time>2022-04-23T14:40:30.000Z</Time>
            <Position>
              <LatitudeDegrees>41.70428789220750331878662109375</LatitudeDegrees>
              <LongitudeDegrees>-0.1538650877773761749267578125</LongitudeDegrees>
            </Position>
            <AltitudeMeters>241.600006103515625</AltitudeMeters>
            <DistanceMeters>100594.32369133</DistanceMeters>
          </Trackpoint>
          <Trackpoint>
            <Time>2022-04-23T14:40:32.000Z</Time>
            <Position>
              <LatitudeDegrees>41.70449190773069858551025390625</LatitudeDegrees>
              <LongitudeDegrees>-0.1537886448204517364501953125</LongitudeDegrees>
            </Position>
            <AltitudeMeters>240.1999969482421875</AltitudeMeters>
            <DistanceMeters>100617.90295778</DistanceMeters>
          </Trackpoint>
          <Trackpoint>
            <Time>2022-04-23T14:40:34.000Z</Time>
            <Position>
              <LatitudeDegrees>41.7046914808452129364013671875</LatitudeDegrees>
              <LongitudeDegrees>-0.15368713997304439544677734375</LongitudeDegrees>
            </Position>
            <AltitudeMeters>239.1999969482421875</AltitudeMeters>
            <DistanceMeters>100641.66343714</DistanceMeters>
          </Trackpoint>
          <Trackpoint>
            <Time>2022-04-23T14:40:36.000Z</Time>
            <Position>
              <LatitudeDegrees>41.70485752634704113006591796875</LatitudeDegrees>
              <LongitudeDegrees>-0.15354372560977935791015625</LongitudeDegrees>
            </Position>
            <AltitudeMeters>238.600006103515625</AltitudeMeters>
            <DistanceMeters>100663.65344836</DistanceMeters>
          </Trackpoint>
          <Trackpoint>
            <Time>2022-04-23T14:40:37.000Z</Time>
            <Position>
              <LatitudeDegrees>41.7049174569547176361083984375</LatitudeDegrees>
              <LongitudeDegrees>-0.15347440727055072784423828125</LongitudeDegrees>
            </Position>
            <AltitudeMeters>238</AltitudeMeters>
            <DistanceMeters>100672.46637566</DistanceMeters>
          </Trackpoint>
          <Trackpoint>
            <Time>2022-04-23T14:40:38.000Z</Time>
            <Position>
              <LatitudeDegrees>41.7049700953066349029541015625</LatitudeDegrees>
              <LongitudeDegrees>-0.15342193655669689178466796875</LongitudeDegrees>
            </Position>
            <AltitudeMeters>236.8000030517578125</AltitudeMeters>
            <DistanceMeters>100679.76922657</DistanceMeters>
          </Trackpoint>
          <Trackpoint>
            <Time>2022-04-23T14:40:40.000Z</Time>
            <Position>
              <LatitudeDegrees>41.7050830833613872528076171875</LatitudeDegrees>
              <LongitudeDegrees>-0.1533940248191356658935546875</LongitudeDegrees>
            </Position>
            <AltitudeMeters>235.399993896484375</AltitudeMeters>
            <DistanceMeters>100692.55694155</DistanceMeters>
          </Trackpoint>
          <Trackpoint>
            <Time>2022-04-23T14:40:42.000Z</Time>
            <Position>
              <LatitudeDegrees>41.7051816545426845550537109375</LatitudeDegrees>
              <LongitudeDegrees>-0.15345764346420764923095703125</LongitudeDegrees>
            </Position>
            <AltitudeMeters>233.600006103515625</AltitudeMeters>
            <DistanceMeters>100704.73519986</DistanceMeters>
          </Trackpoint>
          <Trackpoint>
            <Time>2022-04-23T14:40:43.000Z</Time>
            <Position>
              <LatitudeDegrees>41.70522951520979404449462890625</LatitudeDegrees>
              <LongitudeDegrees>-0.15351028181612491607666015625</LongitudeDegrees>
            </Position>
            <AltitudeMeters>233.399993896484375</AltitudeMeters>
            <DistanceMeters>100711.62905889</DistanceMeters>
          </Trackpoint>
          <Trackpoint>
            <Time>2022-04-23T14:40:44.000Z</Time>
            <Position>
              <LatitudeDegrees>41.7052805610001087188720703125</LatitudeDegrees>
              <LongitudeDegrees>-0.15356996096670627593994140625</LongitudeDegrees>
            </Position>
            <AltitudeMeters>232.600006103515625</AltitudeMeters>
            <DistanceMeters>100719.17037319</DistanceMeters>
          </Trackpoint>
          <Trackpoint>
            <Time>2022-04-23T14:40:47.000Z</Time>
            <Position>
              <LatitudeDegrees>41.70542179606854915618896484375</LatitudeDegrees>
              <LongitudeDegrees>-0.153762660920619964599609375</LongitudeDegrees>
            </Position>
            <AltitudeMeters>231.600006103515625</AltitudeMeters>
            <DistanceMeters>100741.60955906</DistanceMeters>
          </Trackpoint>
          <Trackpoint>
            <Time>2022-04-23T14:40:54.000Z</Time>
            <Position>
              <LatitudeDegrees>41.70576528646051883697509765625</LatitudeDegrees>
              <LongitudeDegrees>-0.1541779004037380218505859375</LongitudeDegrees>
            </Position>
            <AltitudeMeters>231.399993896484375</AltitudeMeters>
            <DistanceMeters>100793.10886588</DistanceMeters>
          </Trackpoint>
          <Trackpoint>
            <Time>2022-04-23T14:41:01.000Z</Time>
            <Position>
              <LatitudeDegrees>41.70612889342010021209716796875</LatitudeDegrees>
              <LongitudeDegrees>-0.15452147461473941802978515625</LongitudeDegrees>
            </Position>
            <AltitudeMeters>230.8000030517578125</AltitudeMeters>
            <DistanceMeters>100842.63556418</DistanceMeters>
          </Trackpoint>
          <Trackpoint>
            <Time>2022-04-23T14:41:06.000Z</Time>
            <Position>
              <LatitudeDegrees>41.70639962889254093170166015625</LatitudeDegrees>
              <LongitudeDegrees>-0.15474812127649784088134765625</LongitudeDegrees>
            </Position>
            <AltitudeMeters>230.399993896484375</AltitudeMeters>
            <DistanceMeters>100878.17021923</DistanceMeters>
          </Trackpoint>
          <Trackpoint>
            <Time>2022-04-23T14:41:09.000Z</Time>
            <Position>
              <LatitudeDegrees>41.70656743459403514862060546875</LatitudeDegrees>
              <LongitudeDegrees>-0.154859013855457305908203125</LongitudeDegrees>
            </Position>
            <AltitudeMeters>230</AltitudeMeters>
            <DistanceMeters>100898.99690144</DistanceMeters>
          </Trackpoint>
          <Trackpoint>
            <Time>2022-04-23T14:41:13.000Z</Time>
            <Position>
              <LatitudeDegrees>41.70678737573325634002685546875</LatitudeDegrees>
              <LongitudeDegrees>-0.154966302216053009033203125</LongitudeDegrees>
            </Position>
            <AltitudeMeters>230.8000030517578125</AltitudeMeters>
            <DistanceMeters>100925.04947647</DistanceMeters>
          </Trackpoint>
          <Trackpoint>
            <Time>2022-04-23T14:41:14.000Z</Time>
            <Position>
              <LatitudeDegrees>41.70684479176998138427734375</LatitudeDegrees>
              <LongitudeDegrees>-0.1549765281379222869873046875</LongitudeDegrees>
            </Position>
            <AltitudeMeters>230.8000030517578125</AltitudeMeters>
            <DistanceMeters>100931.49660311</DistanceMeters>
          </Trackpoint>
          <Trackpoint>
            <Time>2022-04-23T14:41:20.000Z</Time>
            <Position>
              <LatitudeDegrees>41.7071986757218837738037109375</LatitudeDegrees>
              <LongitudeDegrees>-0.15499077737331390380859375</LongitudeDegrees>
            </Position>
            <AltitudeMeters>231</AltitudeMeters>
            <DistanceMeters>100970.90245262</DistanceMeters>
          </Trackpoint>
          <Trackpoint>
            <Time>2022-04-23T14:41:21.000Z</Time>
            <Position>
              <LatitudeDegrees>41.70725726522505283355712890625</LatitudeDegrees>
              <LongitudeDegrees>-0.1550010032951831817626953125</LongitudeDegrees>
            </Position>
            <AltitudeMeters>231</AltitudeMeters>
            <DistanceMeters>100977.47923497</DistanceMeters>
          </Trackpoint>
          <Trackpoint>
            <Time>2022-04-23T14:41:28.000Z</Time>
            <Position>
              <LatitudeDegrees>41.7076841555535793304443359375</LatitudeDegrees>
              <LongitudeDegrees>-0.1550459302961826324462890625</LongitudeDegrees>
            </Position>
            <AltitudeMeters>231</AltitudeMeters>
            <DistanceMeters>101025.13927703</DistanceMeters>
          </Trackpoint>
          <Trackpoint>
            <Time>2022-04-23T14:41:33.000Z</Time>
            <Position>
              <LatitudeDegrees>41.70797626487910747528076171875</LatitudeDegrees>
              <LongitudeDegrees>-0.1551280729472637176513671875</LongitudeDegrees>
            </Position>
            <AltitudeMeters>230.600006103515625</AltitudeMeters>
            <DistanceMeters>101058.36032282</DistanceMeters>
          </Trackpoint>
          <Trackpoint>
            <Time>2022-04-23T14:41:40.000Z</Time>
            <Position>
              <LatitudeDegrees>41.7083959467709064483642578125</LatitudeDegrees>
              <LongitudeDegrees>-0.15515841543674468994140625</LongitudeDegrees>
            </Position>
            <AltitudeMeters>230.399993896484375</AltitudeMeters>
            <DistanceMeters>101105.13972646</DistanceMeters>
          </Trackpoint>
          <Trackpoint>
            <Time>2022-04-23T14:41:42.000Z</Time>
            <Position>
              <LatitudeDegrees>41.7085119523108005523681640625</LatitudeDegrees>
              <LongitudeDegrees>-0.1551683060824871063232421875</LongitudeDegrees>
            </Position>
            <AltitudeMeters>230.399993896484375</AltitudeMeters>
            <DistanceMeters>101118.07802453</DistanceMeters>
          </Trackpoint>
          <Trackpoint>
            <Time>2022-04-23T14:41:46.000Z</Time>
            <Position>
              <LatitudeDegrees>41.7087375931441783905029296875</LatitudeDegrees>
              <LongitudeDegrees>-0.155207701027393341064453125</LongitudeDegrees>
            </Position>
            <AltitudeMeters>230.600006103515625</AltitudeMeters>
            <DistanceMeters>101143.40509523</DistanceMeters>
          </Trackpoint>
          <Trackpoint>
            <Time>2022-04-23T14:41:52.000Z</Time>
            <Position>
              <LatitudeDegrees>41.70909424312412738800048828125</LatitudeDegrees>
              <LongitudeDegrees>-0.1552206091582775115966796875</LongitudeDegrees>
            </Position>
            <AltitudeMeters>230.1999969482421875</AltitudeMeters>
            <DistanceMeters>101183.11557558</DistanceMeters>
          </Trackpoint>
          <Trackpoint>
            <Time>2022-04-23T14:41:58.000Z</Time>
            <Position>
              <LatitudeDegrees>41.7094547487795352935791015625</LatitudeDegrees>
              <LongitudeDegrees>-0.15523008070886135101318359375</LongitudeDegrees>
            </Position>
            <AltitudeMeters>230.1999969482421875</AltitudeMeters>
            <DistanceMeters>101223.24836211</DistanceMeters>
          </Trackpoint>
          <Trackpoint>
            <Time>2022-04-23T14:42:00.000Z</Time>
            <Position>
              <LatitudeDegrees>41.7095771245658397674560546875</LatitudeDegrees>
              <LongitudeDegrees>-0.15521314926445484161376953125</LongitudeDegrees>
            </Position>
            <AltitudeMeters>230.1999969482421875</AltitudeMeters>
            <DistanceMeters>101236.94144458</DistanceMeters>
          </Trackpoint>
          <Trackpoint>
            <Time>2022-04-23T14:42:03.000Z</Time>
            <Position>
              <LatitudeDegrees>41.7097534798085689544677734375</LatitudeDegrees>
              <LongitudeDegrees>-0.1551434956490993499755859375</LongitudeDegrees>
            </Position>
            <AltitudeMeters>230.600006103515625</AltitudeMeters>
            <DistanceMeters>101257.4055308</DistanceMeters>
          </Trackpoint>
          <Trackpoint>
            <Time>2022-04-23T14:42:11.000Z</Time>
            <Position>
              <LatitudeDegrees>41.7102332599461078643798828125</LatitudeDegrees>
              <LongitudeDegrees>-0.154950879514217376708984375</LongitudeDegrees>
            </Position>
            <AltitudeMeters>230.399993896484375</AltitudeMeters>
            <DistanceMeters>101313.15269179</DistanceMeters>
          </Trackpoint>
          <Trackpoint>
            <Time>2022-04-23T14:42:17.000Z</Time>
            <Position>
              <LatitudeDegrees>41.7105702124536037445068359375</LatitudeDegrees>
              <LongitudeDegrees>-0.15479631721973419189453125</LongitudeDegrees>
            </Position>
            <AltitudeMeters>230</AltitudeMeters>
            <DistanceMeters>101352.79398293</DistanceMeters>
          </Trackpoint>
          <Trackpoint>
            <Time>2022-04-23T14:42:18.000Z</Time>
            <Position>
              <LatitudeDegrees>41.710622347891330718994140625</LatitudeDegrees>
              <LongitudeDegrees>-0.1547862589359283447265625</LongitudeDegrees>
            </Position>
            <AltitudeMeters>230</AltitudeMeters>
            <DistanceMeters>101358.6564458</DistanceMeters>
          </Trackpoint>
          <Trackpoint>
            <Time>2022-04-23T14:42:25.000Z</Time>
            <Position>
              <LatitudeDegrees>41.7109934985637664794921875</LatitudeDegrees>
              <LongitudeDegrees>-0.1546861790120601654052734375</LongitudeDegrees>
            </Position>
            <AltitudeMeters>230.8000030517578125</AltitudeMeters>
            <DistanceMeters>101400.79498128</DistanceMeters>
          </Trackpoint>
          <Trackpoint>
            <Time>2022-04-23T14:42:30.000Z</Time>
            <Position>
              <LatitudeDegrees>41.71125224791467189788818359375</LatitudeDegrees>
              <LongitudeDegrees>-0.15462423674762248992919921875</LongitudeDegrees>
            </Position>
            <AltitudeMeters>231.399993896484375</AltitudeMeters>
            <DistanceMeters>101430.05055691</DistanceMeters>
          </Trackpoint>
          <Trackpoint>
            <Time>2022-04-23T14:42:31.000Z</Time>
            <Position>
              <LatitudeDegrees>41.71130790375173091888427734375</LatitudeDegrees>
              <LongitudeDegrees>-0.1546114124357700347900390625</LongitudeDegrees>
            </Position>
            <AltitudeMeters>231.1999969482421875</AltitudeMeters>
            <DistanceMeters>101436.33598326</DistanceMeters>
          </Trackpoint>
          <Trackpoint>
            <Time>2022-04-23T14:42:34.000Z</Time>
            <Position>
              <LatitudeDegrees>41.7114831693470478057861328125</LatitudeDegrees>
              <LongitudeDegrees>-0.15458266250789165496826171875</LongitudeDegrees>
            </Position>
            <AltitudeMeters>231</AltitudeMeters>
            <DistanceMeters>101455.98929061</DistanceMeters>
          </Trackpoint>
          <Trackpoint>
            <Time>2022-04-23T14:42:36.000Z</Time>
            <Position>
              <LatitudeDegrees>41.71159640885889530181884765625</LatitudeDegrees>
              <LongitudeDegrees>-0.15459305606782436370849609375</LongitudeDegrees>
            </Position>
            <AltitudeMeters>231</AltitudeMeters>
            <DistanceMeters>101468.62248384</DistanceMeters>
          </Trackpoint>
          <Trackpoint>
            <Time>2022-04-23T14:42:37.000Z</Time>
            <Position>
              <LatitudeDegrees>41.7116461135447025299072265625</LatitudeDegrees>
              <LongitudeDegrees>-0.15462809242308139801025390625</LongitudeDegrees>
            </Position>
            <AltitudeMeters>231.1999969482421875</AltitudeMeters>
            <DistanceMeters>101474.87333504</DistanceMeters>
          </Trackpoint>
          <Trackpoint>
            <Time>2022-04-23T14:42:38.000Z</Time>
            <Position>
              <LatitudeDegrees>41.71168752014636993408203125</LatitudeDegrees>
              <LongitudeDegrees>-0.15468098223209381103515625</LongitudeDegrees>
            </Position>
            <AltitudeMeters>231.1999969482421875</AltitudeMeters>
            <DistanceMeters>101481.24154306</DistanceMeters>
          </Trackpoint>
          <Trackpoint>
            <Time>2022-04-23T14:42:40.000Z</Time>
            <Position>
              <LatitudeDegrees>41.711750216782093048095703125</LatitudeDegrees>
              <LongitudeDegrees>-0.154806710779666900634765625</LongitudeDegrees>
            </Position>
            <AltitudeMeters>231.1999969482421875</AltitudeMeters>
            <DistanceMeters>101493.8044916</DistanceMeters>
          </Trackpoint>
          <Trackpoint>
            <Time>2022-04-23T14:42:41.000Z</Time>
            <Position>
              <LatitudeDegrees>41.71176639385521411895751953125</LatitudeDegrees>
              <LongitudeDegrees>-0.15487485565245151519775390625</LongitudeDegrees>
            </Position>
            <AltitudeMeters>231.1999969482421875</AltitudeMeters>
            <DistanceMeters>101499.74575147</DistanceMeters>
          </Trackpoint>
          <Trackpoint>
            <Time>2022-04-23T14:42:42.000Z</Time>
            <Position>
              <LatitudeDegrees>41.71177024953067302703857421875</LatitudeDegrees>
              <LongitudeDegrees>-0.15494425781071186065673828125</LongitudeDegrees>
            </Position>
            <AltitudeMeters>231.1999969482421875</AltitudeMeters>
            <DistanceMeters>101505.52756286</DistanceMeters>
          </Trackpoint>
          <Trackpoint>
            <Time>2022-04-23T14:42:45.000Z</Time>
            <Position>
              <LatitudeDegrees>41.71174543909728527069091796875</LatitudeDegrees>
              <LongitudeDegrees>-0.15514357946813106536865234375</LongitudeDegrees>
            </Position>
            <AltitudeMeters>231.1999969482421875</AltitudeMeters>
            <DistanceMeters>101522.31746835</DistanceMeters>
          </Trackpoint>
          <Trackpoint>
            <Time>2022-04-23T14:42:49.000Z</Time>
            <Position>
              <LatitudeDegrees>41.7116984166204929351806640625</LatitudeDegrees>
              <LongitudeDegrees>-0.1554204337298870086669921875</LongitudeDegrees>
            </Position>
            <AltitudeMeters>230.8000030517578125</AltitudeMeters>
            <DistanceMeters>101545.90841241</DistanceMeters>
          </Trackpoint>
          <Trackpoint>
            <Time>2022-04-23T14:42:51.000Z</Time>
            <Position>
              <LatitudeDegrees>41.7117014341056346893310546875</LatitudeDegrees>
              <LongitudeDegrees>-0.1555495150387287139892578125</LongitudeDegrees>
            </Position>
            <AltitudeMeters>230.1999969482421875</AltitudeMeters>
            <DistanceMeters>101556.63843918</DistanceMeters>
          </Trackpoint>
          <Trackpoint>
            <Time>2022-04-23T14:42:53.000Z</Time>
            <Position>
              <LatitudeDegrees>41.7117230594158172607421875</LatitudeDegrees>
              <LongitudeDegrees>-0.1556769199669361114501953125</LongitudeDegrees>
            </Position>
            <AltitudeMeters>230</AltitudeMeters>
            <DistanceMeters>101567.49396762</DistanceMeters>
          </Trackpoint>
          <Trackpoint>
            <Time>2022-04-23T14:42:55.000Z</Time>
            <Position>
              <LatitudeDegrees>41.711784414947032928466796875</LatitudeDegrees>
              <LongitudeDegrees>-0.15577934682369232177734375</LongitudeDegrees>
            </Position>
            <AltitudeMeters>229.8000030517578125</AltitudeMeters>
            <DistanceMeters>101578.40550087</DistanceMeters>
          </Trackpoint>
          <Trackpoint>
            <Time>2022-04-23T14:42:57.000Z</Time>
            <Position>
              <LatitudeDegrees>41.7118881829082965850830078125</LatitudeDegrees>
              <LongitudeDegrees>-0.1557962782680988311767578125</LongitudeDegrees>
            </Position>
            <AltitudeMeters>229.600006103515625</AltitudeMeters>
            <DistanceMeters>101590.04035695</DistanceMeters>
          </Trackpoint>
          <Trackpoint>
            <Time>2022-04-23T14:42:58.000Z</Time>
            <Position>
              <LatitudeDegrees>41.7119367979466915130615234375</LatitudeDegrees>
              <LongitudeDegrees>-0.1557842083275318145751953125</LongitudeDegrees>
            </Position>
            <AltitudeMeters>229.600006103515625</AltitudeMeters>
            <DistanceMeters>101595.54288785</DistanceMeters>
          </Trackpoint>
          <Trackpoint>
            <Time>2022-04-23T14:43:07.000Z</Time>
            <Position>
              <LatitudeDegrees>41.712387241423130035400390625</LatitudeDegrees>
              <LongitudeDegrees>-0.15556837432086467742919921875</LongitudeDegrees>
            </Position>
            <AltitudeMeters>229.8000030517578125</AltitudeMeters>
            <DistanceMeters>101648.78872262</DistanceMeters>
          </Trackpoint>
          <Trackpoint>
            <Time>2022-04-23T14:43:14.000Z</Time>
            <Position>
              <LatitudeDegrees>41.71274724416434764862060546875</LatitudeDegrees>
              <LongitudeDegrees>-0.15534038655459880828857421875</LongitudeDegrees>
            </Position>
            <AltitudeMeters>229.8000030517578125</AltitudeMeters>
            <DistanceMeters>101693.10959377</DistanceMeters>
          </Trackpoint>
          <Trackpoint>
            <Time>2022-04-23T14:43:17.000Z</Time>
            <Position>
              <LatitudeDegrees>41.71290867961943149566650390625</LatitudeDegrees>
              <LongitudeDegrees>-0.1552812941372394561767578125</LongitudeDegrees>
            </Position>
            <AltitudeMeters>230</AltitudeMeters>
            <DistanceMeters>101711.73628422</DistanceMeters>
          </Trackpoint>
          <Trackpoint>
            <Time>2022-04-23T14:43:20.000Z</Time>
            <Position>
              <LatitudeDegrees>41.7130695283412933349609375</LatitudeDegrees>
              <LongitudeDegrees>-0.155262686312198638916015625</LongitudeDegrees>
            </Position>
            <AltitudeMeters>230.399993896484375</AltitudeMeters>
            <DistanceMeters>101729.70588365</DistanceMeters>
          </Trackpoint>
          <Trackpoint>
            <Time>2022-04-23T14:43:23.000Z</Time>
            <Position>
              <LatitudeDegrees>41.7132302932441234588623046875</LatitudeDegrees>
              <LongitudeDegrees>-0.15524500049650669097900390625</LongitudeDegrees>
            </Position>
            <AltitudeMeters>231.399993896484375</AltitudeMeters>
            <DistanceMeters>101747.65964673</DistanceMeters>
          </Trackpoint>
          <Trackpoint>
            <Time>2022-04-23T14:43:27.000Z</Time>
            <Position>
              <LatitudeDegrees>41.713427603244781494140625</LatitudeDegrees>
              <LongitudeDegrees>-0.15517878346145153045654296875</LongitudeDegrees>
            </Position>
            <AltitudeMeters>232</AltitudeMeters>
            <DistanceMeters>101770.2993501</DistanceMeters>
          </Trackpoint>
          <Trackpoint>
            <Time>2022-04-23T14:43:30.000Z</Time>
            <Position>
              <LatitudeDegrees>41.71356774866580963134765625</LatitudeDegrees>
              <LongitudeDegrees>-0.155157409608364105224609375</LongitudeDegrees>
            </Position>
            <AltitudeMeters>232.600006103515625</AltitudeMeters>
            <DistanceMeters>101785.99861462</DistanceMeters>
          </Trackpoint>
          <Trackpoint>
            <Time>2022-04-23T14:43:32.000Z</Time>
            <Position>
              <LatitudeDegrees>41.7136460356414318084716796875</LatitudeDegrees>
              <LongitudeDegrees>-0.15515464358031749725341796875</LongitudeDegrees>
            </Position>
            <AltitudeMeters>233</AltitudeMeters>
            <DistanceMeters>101794.71521162</DistanceMeters>
          </Trackpoint>
          <Trackpoint>
            <Time>2022-04-23T14:43:36.000Z</Time>
            <Position>
              <LatitudeDegrees>41.7137211374938488006591796875</LatitudeDegrees>
              <LongitudeDegrees>-0.15512346290051937103271484375</LongitudeDegrees>
            </Position>
            <AltitudeMeters>233.600006103515625</AltitudeMeters>
            <DistanceMeters>101803.46644458</DistanceMeters>
          </Trackpoint>
          <Trackpoint>
            <Time>2022-04-23T14:43:37.000Z</Time>
            <Position>
              <LatitudeDegrees>41.71373630873858928680419921875</LatitudeDegrees>
              <LongitudeDegrees>-0.155113153159618377685546875</LongitudeDegrees>
            </Position>
            <AltitudeMeters>233.600006103515625</AltitudeMeters>
            <DistanceMeters>101805.35983845</DistanceMeters>
          </Trackpoint>
          <Trackpoint>
            <Time>2022-04-23T14:43:40.000Z</Time>
            <Position>
              <LatitudeDegrees>41.71381409280002117156982421875</LatitudeDegrees>
              <LongitudeDegrees>-0.15512379817664623260498046875</LongitudeDegrees>
            </Position>
            <AltitudeMeters>233.600006103515625</AltitudeMeters>
            <DistanceMeters>101814.06191987</DistanceMeters>
          </Trackpoint>
          <Trackpoint>
            <Time>2022-04-23T14:43:43.000Z</Time>
            <Position>
              <LatitudeDegrees>41.7139263264834880828857421875</LatitudeDegrees>
              <LongitudeDegrees>-0.15508658252656459808349609375</LongitudeDegrees>
            </Position>
            <AltitudeMeters>233.600006103515625</AltitudeMeters>
            <DistanceMeters>101826.93093701</DistanceMeters>
          </Trackpoint>
          <Trackpoint>
            <Time>2022-04-23T14:43:44.000Z</Time>
            <Position>
              <LatitudeDegrees>41.71396597288548946380615234375</LatitudeDegrees>
              <LongitudeDegrees>-0.15506512485444545745849609375</LongitudeDegrees>
            </Position>
            <AltitudeMeters>233.600006103515625</AltitudeMeters>
            <DistanceMeters>101831.68986879</DistanceMeters>
          </Trackpoint>
          <Trackpoint>
            <Time>2022-04-23T14:43:47.000Z</Time>
            <Position>
              <LatitudeDegrees>41.7141033522784709930419921875</LatitudeDegrees>
              <LongitudeDegrees>-0.15497728250920772552490234375</LongitudeDegrees>
            </Position>
            <AltitudeMeters>233.399993896484375</AltitudeMeters>
            <DistanceMeters>101848.63289479</DistanceMeters>
          </Trackpoint>
          <Trackpoint>
            <Time>2022-04-23T14:43:49.000Z</Time>
            <Position>
              <LatitudeDegrees>41.71419982798397541046142578125</LatitudeDegrees>
              <LongitudeDegrees>-0.15491425059735774993896484375</LongitudeDegrees>
            </Position>
            <AltitudeMeters>233.399993896484375</AltitudeMeters>
            <DistanceMeters>101860.57983533</DistanceMeters>
          </Trackpoint>
          <Trackpoint>
            <Time>2022-04-23T14:43:54.000Z</Time>
            <Position>
              <LatitudeDegrees>41.71441339887678623199462890625</LatitudeDegrees>
              <LongitudeDegrees>-0.15480914153158664703369140625</LongitudeDegrees>
            </Position>
            <AltitudeMeters>233.1999969482421875</AltitudeMeters>
            <DistanceMeters>101885.90405356</DistanceMeters>
          </Trackpoint>
          <Trackpoint>
            <Time>2022-04-23T14:44:00.000Z</Time>
            <Position>
              <LatitudeDegrees>41.7146753333508968353271484375</LatitudeDegrees>
              <LongitudeDegrees>-0.1546280086040496826171875</LongitudeDegrees>
            </Position>
            <AltitudeMeters>233.399993896484375</AltitudeMeters>
            <DistanceMeters>101918.71291262</DistanceMeters>
          </Trackpoint>
          <Trackpoint>
            <Time>2022-04-23T14:44:03.000Z</Time>
            <Position>
              <LatitudeDegrees>41.7148292250931262969970703125</LatitudeDegrees>
              <LongitudeDegrees>-0.15453069470822811126708984375</LongitudeDegrees>
            </Position>
            <AltitudeMeters>233.399993896484375</AltitudeMeters>
            <DistanceMeters>101937.65376548</DistanceMeters>
          </Trackpoint>
          <Trackpoint>
            <Time>2022-04-23T14:44:05.000Z</Time>
            <Position>
              <LatitudeDegrees>41.71492754481732845306396484375</LatitudeDegrees>
              <LongitudeDegrees>-0.15444771386682987213134765625</LongitudeDegrees>
            </Position>
            <AltitudeMeters>233.399993896484375</AltitudeMeters>
            <DistanceMeters>101950.58717709</DistanceMeters>
          </Trackpoint>
          <Trackpoint>
            <Time>2022-04-23T14:44:06.000Z</Time>
            <Position>
              <LatitudeDegrees>41.71497280709445476531982421875</LatitudeDegrees>
              <LongitudeDegrees>-0.1543985120952129364013671875</LongitudeDegrees>
            </Position>
            <AltitudeMeters>233.399993896484375</AltitudeMeters>
            <DistanceMeters>101957.07409903</DistanceMeters>
          </Trackpoint>
          <Trackpoint>
            <Time>2022-04-23T14:44:07.000Z</Time>
            <Position>
              <LatitudeDegrees>41.71501052565872669219970703125</LatitudeDegrees>
              <LongitudeDegrees>-0.154345035552978515625</LongitudeDegrees>
            </Position>
            <AltitudeMeters>233.399993896484375</AltitudeMeters>
            <DistanceMeters>101963.18690987</DistanceMeters>
          </Trackpoint>
          <Trackpoint>
            <Time>2022-04-23T14:44:09.000Z</Time>
            <Position>
              <LatitudeDegrees>41.71506836079061031341552734375</LatitudeDegrees>
              <LongitudeDegrees>-0.15422240830957889556884765625</LongitudeDegrees>
            </Position>
            <AltitudeMeters>233.1999969482421875</AltitudeMeters>
            <DistanceMeters>101975.23845539</DistanceMeters>
          </Trackpoint>
          <Trackpoint>
            <Time>2022-04-23T14:44:10.000Z</Time>
            <Position>
              <LatitudeDegrees>41.71509149484336376190185546875</LatitudeDegrees>
              <LongitudeDegrees>-0.1541557721793651580810546875</LongitudeDegrees>
            </Position>
            <AltitudeMeters>232.600006103515625</AltitudeMeters>
            <DistanceMeters>101981.34461504</DistanceMeters>
          </Trackpoint>
          <Trackpoint>
            <Time>2022-04-23T14:44:16.000Z</Time>
            <Position>
              <LatitudeDegrees>41.715243794023990631103515625</LatitudeDegrees>
              <LongitudeDegrees>-0.15378336422145366668701171875</LongitudeDegrees>
            </Position>
            <AltitudeMeters>231.600006103515625</AltitudeMeters>
            <DistanceMeters>102016.62449056</DistanceMeters>
          </Trackpoint>
          <Trackpoint>
            <Time>2022-04-23T14:44:17.000Z</Time>
            <Position>
              <LatitudeDegrees>41.71527656726539134979248046875</LatitudeDegrees>
              <LongitudeDegrees>-0.1537470705807209014892578125</LongitudeDegrees>
            </Position>
            <AltitudeMeters>230.8000030517578125</AltitudeMeters>
            <DistanceMeters>102021.35773677</DistanceMeters>
          </Trackpoint>
          <Trackpoint>
            <Time>2022-04-23T14:44:18.000Z</Time>
            <Position>
              <LatitudeDegrees>41.71531612984836101531982421875</LatitudeDegrees>
              <LongitudeDegrees>-0.153724439442157745361328125</LongitudeDegrees>
            </Position>
            <AltitudeMeters>230.600006103515625</AltitudeMeters>
            <DistanceMeters>102026.14693233</DistanceMeters>
          </Trackpoint>
          <Trackpoint>
            <Time>2022-04-23T14:44:19.000Z</Time>
            <Position>
              <LatitudeDegrees>41.71535870991647243499755859375</LatitudeDegrees>
              <LongitudeDegrees>-0.1537209190428256988525390625</LongitudeDegrees>
            </Position>
            <AltitudeMeters>230.399993896484375</AltitudeMeters>
            <DistanceMeters>102030.8954164</DistanceMeters>
          </Trackpoint>
          <Trackpoint>
            <Time>2022-04-23T14:44:20.000Z</Time>
            <Position>
              <LatitudeDegrees>41.7153978534042835235595703125</LatitudeDegrees>
              <LongitudeDegrees>-0.1537350006401538848876953125</LongitudeDegrees>
            </Position>
            <AltitudeMeters>230.399993896484375</AltitudeMeters>
            <DistanceMeters>102035.40693413</DistanceMeters>
          </Trackpoint>
          <Trackpoint>
            <Time>2022-04-23T14:44:23.000Z</Time>
            <Position>
              <LatitudeDegrees>41.7154649086296558380126953125</LatitudeDegrees>
              <LongitudeDegrees>-0.1538684405386447906494140625</LongitudeDegrees>
            </Position>
            <AltitudeMeters>231</AltitudeMeters>
            <DistanceMeters>102048.77162313</DistanceMeters>
          </Trackpoint>
          <Trackpoint>
            <Time>2022-04-23T14:44:26.000Z</Time>
            <Position>
              <LatitudeDegrees>41.71552232466638088226318359375</LatitudeDegrees>
              <LongitudeDegrees>-0.15404202975332736968994140625</LongitudeDegrees>
            </Position>
            <AltitudeMeters>232</AltitudeMeters>
            <DistanceMeters>102064.54605772</DistanceMeters>
          </Trackpoint>
          <Trackpoint>
            <Time>2022-04-23T14:44:29.000Z</Time>
            <Position>
              <LatitudeDegrees>41.7155993543565273284912109375</LatitudeDegrees>
              <LongitudeDegrees>-0.15421704389154911041259765625</LongitudeDegrees>
            </Position>
            <AltitudeMeters>233</AltitudeMeters>
            <DistanceMeters>102081.42580896</DistanceMeters>
          </Trackpoint>
          <Trackpoint>
            <Time>2022-04-23T14:44:30.000Z</Time>
            <Position>
              <LatitudeDegrees>41.71561871655285358428955078125</LatitudeDegrees>
              <LongitudeDegrees>-0.15427856706082820892333984375</LongitudeDegrees>
            </Position>
            <AltitudeMeters>233</AltitudeMeters>
            <DistanceMeters>102086.97328591</DistanceMeters>
          </Trackpoint>
          <Trackpoint>
            <Time>2022-04-23T14:44:34.000Z</Time>
            <Position>
              <LatitudeDegrees>41.7156551778316497802734375</LatitudeDegrees>
              <LongitudeDegrees>-0.1544819958508014678955078125</LongitudeDegrees>
            </Position>
            <AltitudeMeters>233.600006103515625</AltitudeMeters>
            <DistanceMeters>102104.35512407</DistanceMeters>
          </Trackpoint>
          <Trackpoint>
            <Time>2022-04-23T14:44:35.000Z</Time>
            <Position>
              <LatitudeDegrees>41.7156610451638698577880859375</LatitudeDegrees>
              <LongitudeDegrees>-0.15452918596565723419189453125</LongitudeDegrees>
            </Position>
            <AltitudeMeters>234.1999969482421875</AltitudeMeters>
            <DistanceMeters>102108.33037674</DistanceMeters>
          </Trackpoint>
          <Trackpoint>
            <Time>2022-04-23T14:44:37.000Z</Time>
            <Position>
              <LatitudeDegrees>41.71566121280193328857421875</LatitudeDegrees>
              <LongitudeDegrees>-0.15462256036698818206787109375</LongitudeDegrees>
            </Position>
            <AltitudeMeters>235.1999969482421875</AltitudeMeters>
            <DistanceMeters>102116.08772354</DistanceMeters>
          </Trackpoint>
          <Trackpoint>
            <Time>2022-04-23T14:44:40.000Z</Time>
            <Position>
              <LatitudeDegrees>41.71565609984099864959716796875</LatitudeDegrees>
              <LongitudeDegrees>-0.15476672910153865814208984375</LongitudeDegrees>
            </Position>
            <AltitudeMeters>236.1999969482421875</AltitudeMeters>
            <DistanceMeters>102128.07917622</DistanceMeters>
          </Trackpoint>
          <Trackpoint>
            <Time>2022-04-23T14:44:42.000Z</Time>
            <Position>
              <LatitudeDegrees>41.71564838849008083343505859375</LatitudeDegrees>
              <LongitudeDegrees>-0.15486513264477252960205078125</LongitudeDegrees>
            </Position>
            <AltitudeMeters>236.399993896484375</AltitudeMeters>
            <DistanceMeters>102136.29994821</DistanceMeters>
          </Trackpoint>
          <Trackpoint>
            <Time>2022-04-23T14:44:46.000Z</Time>
            <Position>
              <LatitudeDegrees>41.71566699631512165069580078125</LatitudeDegrees>
              <LongitudeDegrees>-0.15505288727581501007080078125</LongitudeDegrees>
            </Position>
            <AltitudeMeters>237.399993896484375</AltitudeMeters>
            <DistanceMeters>102152.03598189</DistanceMeters>
          </Trackpoint>
          <Trackpoint>
            <Time>2022-04-23T14:44:49.000Z</Time>
            <Position>
              <LatitudeDegrees>41.71569147147238254547119140625</LatitudeDegrees>
              <LongitudeDegrees>-0.155201666057109832763671875</LongitudeDegrees>
            </Position>
            <AltitudeMeters>237.399993896484375</AltitudeMeters>
            <DistanceMeters>102164.69345464</DistanceMeters>
          </Trackpoint>
          <Trackpoint>
            <Time>2022-04-23T14:44:52.000Z</Time>
            <Position>
              <LatitudeDegrees>41.71571795828640460968017578125</LatitudeDegrees>
              <LongitudeDegrees>-0.1553506962954998016357421875</LongitudeDegrees>
            </Position>
            <AltitudeMeters>237.600006103515625</AltitudeMeters>
            <DistanceMeters>102177.42135986</DistanceMeters>
          </Trackpoint>
          <Trackpoint>
            <Time>2022-04-23T14:44:53.000Z</Time>
            <Position>
              <LatitudeDegrees>41.71572349034249782562255859375</LatitudeDegrees>
              <LongitudeDegrees>-0.15540492720901966094970703125</LongitudeDegrees>
            </Position>
            <AltitudeMeters>237.600006103515625</AltitudeMeters>
            <DistanceMeters>102181.96876297</DistanceMeters>
          </Trackpoint>
          <Trackpoint>
            <Time>2022-04-23T14:45:00.000Z</Time>
            <Position>
              <LatitudeDegrees>41.71573002822697162628173828125</LatitudeDegrees>
              <LongitudeDegrees>-0.1557868905365467071533203125</LongitudeDegrees>
            </Position>
            <AltitudeMeters>236.8000030517578125</AltitudeMeters>
            <DistanceMeters>102213.711384</DistanceMeters>
          </Trackpoint>
          <Trackpoint>
            <Time>2022-04-23T14:45:05.000Z</Time>
            <Position>
              <LatitudeDegrees>41.7157931439578533172607421875</LatitudeDegrees>
              <LongitudeDegrees>-0.15603055246174335479736328125</LongitudeDegrees>
            </Position>
            <AltitudeMeters>236.8000030517578125</AltitudeMeters>
            <DistanceMeters>102235.13985542</DistanceMeters>
          </Trackpoint>
          <Trackpoint>
            <Time>2022-04-23T14:45:10.000Z</Time>
            <Position>
              <LatitudeDegrees>41.71587872318923473358154296875</LatitudeDegrees>
              <LongitudeDegrees>-0.15625552274286746978759765625</LongitudeDegrees>
            </Position>
            <AltitudeMeters>237.399993896484375</AltitudeMeters>
            <DistanceMeters>102256.11817293</DistanceMeters>
          </Trackpoint>
          <Trackpoint>
            <Time>2022-04-23T14:45:16.000Z</Time>
            <Position>
              <LatitudeDegrees>41.7159973271191120147705078125</LatitudeDegrees>
              <LongitudeDegrees>-0.1565100811421871185302734375</LongitudeDegrees>
            </Position>
            <AltitudeMeters>237.8000030517578125</AltitudeMeters>
            <DistanceMeters>102281.04906123</DistanceMeters>
          </Trackpoint>
          <Trackpoint>
            <Time>2022-04-23T14:45:17.000Z</Time>
            <Position>
              <LatitudeDegrees>41.71602155081927776336669921875</LatitudeDegrees>
              <LongitudeDegrees>-0.156567580997943878173828125</LongitudeDegrees>
            </Position>
            <AltitudeMeters>237.8000030517578125</AltitudeMeters>
            <DistanceMeters>102286.53433376</DistanceMeters>
          </Trackpoint>
          <Trackpoint>
            <Time>2022-04-23T14:45:22.000Z</Time>
            <Position>
              <LatitudeDegrees>41.7160808108747005462646484375</LatitudeDegrees>
              <LongitudeDegrees>-0.15678995288908481597900390625</LongitudeDegrees>
            </Position>
            <AltitudeMeters>237.1999969482421875</AltitudeMeters>
            <DistanceMeters>102306.15176983</DistanceMeters>
          </Trackpoint>
          <Trackpoint>
            <Time>2022-04-23T14:45:27.000Z</Time>
            <Position>
              <LatitudeDegrees>41.71615364961326122283935546875</LatitudeDegrees>
              <LongitudeDegrees>-0.15697569586336612701416015625</LongitudeDegrees>
            </Position>
            <AltitudeMeters>237.600006103515625</AltitudeMeters>
            <DistanceMeters>102323.58340981</DistanceMeters>
          </Trackpoint>
          <Trackpoint>
            <Time>2022-04-23T14:45:32.000Z</Time>
            <Position>
              <LatitudeDegrees>41.71625590883195400238037109375</LatitudeDegrees>
              <LongitudeDegrees>-0.157164037227630615234375</LongitudeDegrees>
            </Position>
            <AltitudeMeters>237.1999969482421875</AltitudeMeters>
            <DistanceMeters>102342.93272503</DistanceMeters>
          </Trackpoint>
          <Trackpoint>
            <Time>2022-04-23T14:45:33.000Z</Time>
            <Position>
              <LatitudeDegrees>41.716271750628948211669921875</LatitudeDegrees>
              <LongitudeDegrees>-0.15720569528639316558837890625</LongitudeDegrees>
            </Position>
            <AltitudeMeters>236.399993896484375</AltitudeMeters>
            <DistanceMeters>102346.81837656</DistanceMeters>
          </Trackpoint>
          <Trackpoint>
            <Time>2022-04-23T14:45:37.000Z</Time>
            <Position>
              <LatitudeDegrees>41.716313324868679046630859375</LatitudeDegrees>
              <LongitudeDegrees>-0.15732840634882450103759765625</LongitudeDegrees>
            </Position>
            <AltitudeMeters>235.399993896484375</AltitudeMeters>
            <DistanceMeters>102358.01460455</DistanceMeters>
          </Trackpoint>
          <Trackpoint>
            <Time>2022-04-23T14:45:43.000Z</Time>
            <Position>
              <LatitudeDegrees>41.71636453829705715179443359375</LatitudeDegrees>
              <LongitudeDegrees>-0.15758120454847812652587890625</LongitudeDegrees>
            </Position>
            <AltitudeMeters>235</AltitudeMeters>
            <DistanceMeters>102379.77717446</DistanceMeters>
          </Trackpoint>
          <Trackpoint>
            <Time>2022-04-23T14:45:50.000Z</Time>
            <Position>
              <LatitudeDegrees>41.71647484414279460906982421875</LatitudeDegrees>
              <LongitudeDegrees>-0.15788622200489044189453125</LongitudeDegrees>
            </Position>
            <AltitudeMeters>235.399993896484375</AltitudeMeters>
            <DistanceMeters>102407.93588453</DistanceMeters>
          </Trackpoint>
          <Trackpoint>
            <Time>2022-04-23T14:45:51.000Z</Time>
            <Position>
              <LatitudeDegrees>41.71648624353110790252685546875</LatitudeDegrees>
              <LongitudeDegrees>-0.15793240629136562347412109375</LongitudeDegrees>
            </Position>
            <AltitudeMeters>236.399993896484375</AltitudeMeters>
            <DistanceMeters>102411.97647585</DistanceMeters>
          </Trackpoint>
          <Trackpoint>
            <Time>2022-04-23T14:45:57.000Z</Time>
            <Position>
              <LatitudeDegrees>41.71654097735881805419921875</LatitudeDegrees>
              <LongitudeDegrees>-0.1582045666873455047607421875</LongitudeDegrees>
            </Position>
            <AltitudeMeters>236.399993896484375</AltitudeMeters>
            <DistanceMeters>102435.39395825</DistanceMeters>
          </Trackpoint>
          <Trackpoint>
            <Time>2022-04-23T14:46:04.000Z</Time>
            <Position>
              <LatitudeDegrees>41.71655044890940189361572265625</LatitudeDegrees>
              <LongitudeDegrees>-0.15852400101721286773681640625</LongitudeDegrees>
            </Position>
            <AltitudeMeters>236.399993896484375</AltitudeMeters>
            <DistanceMeters>102461.95388242</DistanceMeters>
          </Trackpoint>
          <Trackpoint>
            <Time>2022-04-23T14:46:10.000Z</Time>
            <Position>
              <LatitudeDegrees>41.71654894016683101654052734375</LatitudeDegrees>
              <LongitudeDegrees>-0.1588047109544277191162109375</LongitudeDegrees>
            </Position>
            <AltitudeMeters>237.399993896484375</AltitudeMeters>
            <DistanceMeters>102485.27631121</DistanceMeters>
          </Trackpoint>
          <Trackpoint>
            <Time>2022-04-23T14:46:12.000Z</Time>
            <Position>
              <LatitudeDegrees>41.71655329875648021697998046875</LatitudeDegrees>
              <LongitudeDegrees>-0.158903785049915313720703125</LongitudeDegrees>
            </Position>
            <AltitudeMeters>238.399993896484375</AltitudeMeters>
            <DistanceMeters>102493.52230876</DistanceMeters>
          </Trackpoint>
          <Trackpoint>
            <Time>2022-04-23T14:46:13.000Z</Time>
            <Position>
              <LatitudeDegrees>41.71656352467834949493408203125</LatitudeDegrees>
              <LongitudeDegrees>-0.158949382603168487548828125</LongitudeDegrees>
            </Position>
            <AltitudeMeters>238.600006103515625</AltitudeMeters>
            <DistanceMeters>102497.47706443</DistanceMeters>
          </Trackpoint>
          <Trackpoint>
            <Time>2022-04-23T14:46:15.000Z</Time>
            <Position>
              <LatitudeDegrees>41.71658917330205440521240234375</LatitudeDegrees>
              <LongitudeDegrees>-0.159043930470943450927734375</LongitudeDegrees>
            </Position>
            <AltitudeMeters>238.8000030517578125</AltitudeMeters>
            <DistanceMeters>102505.83509478</DistanceMeters>
          </Trackpoint>
          <Trackpoint>
            <Time>2022-04-23T14:46:19.000Z</Time>
            <Position>
              <LatitudeDegrees>41.716632843017578125</LatitudeDegrees>
              <LongitudeDegrees>-0.15922372229397296905517578125</LongitudeDegrees>
            </Position>
            <AltitudeMeters>238.399993896484375</AltitudeMeters>
            <DistanceMeters>102521.54355967</DistanceMeters>
          </Trackpoint>
          <Trackpoint>
            <Time>2022-04-23T14:46:26.000Z</Time>
            <Position>
              <LatitudeDegrees>41.71667106449604034423828125</LatitudeDegrees>
              <LongitudeDegrees>-0.1595097966492176055908203125</LongitudeDegrees>
            </Position>
            <AltitudeMeters>238</AltitudeMeters>
            <DistanceMeters>102545.68876137</DistanceMeters>
          </Trackpoint>
          <Trackpoint>
            <Time>2022-04-23T14:46:32.000Z</Time>
            <Position>
              <LatitudeDegrees>41.7167758382856845855712890625</LatitudeDegrees>
              <LongitudeDegrees>-0.1597283966839313507080078125</LongitudeDegrees>
            </Position>
            <AltitudeMeters>238.1999969482421875</AltitudeMeters>
            <DistanceMeters>102567.2717529</DistanceMeters>
          </Trackpoint>
          <Trackpoint>
            <Time>2022-04-23T14:46:37.000Z</Time>
            <Position>
              <LatitudeDegrees>41.7168274708092212677001953125</LatitudeDegrees>
              <LongitudeDegrees>-0.15992227010428905487060546875</LongitudeDegrees>
            </Position>
            <AltitudeMeters>238.600006103515625</AltitudeMeters>
            <DistanceMeters>102584.37339364</DistanceMeters>
          </Trackpoint>
          <Trackpoint>
            <Time>2022-04-23T14:46:44.000Z</Time>
            <Position>
              <LatitudeDegrees>41.716803498566150665283203125</LatitudeDegrees>
              <LongitudeDegrees>-0.16023256815969944000244140625</LongitudeDegrees>
            </Position>
            <AltitudeMeters>239.1999969482421875</AltitudeMeters>
            <DistanceMeters>102610.29078676</DistanceMeters>
          </Trackpoint>
          <Trackpoint>
            <Time>2022-04-23T14:46:51.000Z</Time>
            <Position>
              <LatitudeDegrees>41.71676695346832275390625</LatitudeDegrees>
              <LongitudeDegrees>-0.1605504937469959259033203125</LongitudeDegrees>
            </Position>
            <AltitudeMeters>239.8000030517578125</AltitudeMeters>
            <DistanceMeters>102637.01560362</DistanceMeters>
          </Trackpoint>
          <Trackpoint>
            <Time>2022-04-23T14:46:58.000Z</Time>
            <Position>
              <LatitudeDegrees>41.7167322523891925811767578125</LatitudeDegrees>
              <LongitudeDegrees>-0.16087579540908336639404296875</LongitudeDegrees>
            </Position>
            <AltitudeMeters>240.1999969482421875</AltitudeMeters>
            <DistanceMeters>102664.31639994</DistanceMeters>
          </Trackpoint>
          <Trackpoint>
            <Time>2022-04-23T14:47:05.000Z</Time>
            <Position>
              <LatitudeDegrees>41.716706268489360809326171875</LatitudeDegrees>
              <LongitudeDegrees>-0.16119028441607952117919921875</LongitudeDegrees>
            </Position>
            <AltitudeMeters>239.1999969482421875</AltitudeMeters>
            <DistanceMeters>102690.6039565</DistanceMeters>
          </Trackpoint>
          <Trackpoint>
            <Time>2022-04-23T14:47:06.000Z</Time>
            <Position>
              <LatitudeDegrees>41.7167020775377750396728515625</LatitudeDegrees>
              <LongitudeDegrees>-0.16122800298035144805908203125</LongitudeDegrees>
            </Position>
            <AltitudeMeters>239.1999969482421875</AltitudeMeters>
            <DistanceMeters>102693.77278041</DistanceMeters>
          </Trackpoint>
          <Trackpoint>
            <Time>2022-04-23T14:47:14.000Z</Time>
            <Position>
              <LatitudeDegrees>41.71669445000588893890380859375</LatitudeDegrees>
              <LongitudeDegrees>-0.161583311855792999267578125</LongitudeDegrees>
            </Position>
            <AltitudeMeters>239.399993896484375</AltitudeMeters>
            <DistanceMeters>102723.30408064</DistanceMeters>
          </Trackpoint>
          <Trackpoint>
            <Time>2022-04-23T14:47:19.000Z</Time>
            <Position>
              <LatitudeDegrees>41.716701574623584747314453125</LatitudeDegrees>
              <LongitudeDegrees>-0.1616937853395938873291015625</LongitudeDegrees>
            </Position>
            <AltitudeMeters>239.399993896484375</AltitudeMeters>
            <DistanceMeters>102732.51628224</DistanceMeters>
          </Trackpoint>
          <Trackpoint>
            <Time>2022-04-23T14:47:20.000Z</Time>
            <Position>
              <LatitudeDegrees>41.716701574623584747314453125</LatitudeDegrees>
              <LongitudeDegrees>-0.1616937853395938873291015625</LongitudeDegrees>
            </Position>
            <AltitudeMeters>239.399993896484375</AltitudeMeters>
            <DistanceMeters>102732.51628224</DistanceMeters>
          </Trackpoint>
          <Trackpoint>
            <Time>2022-04-23T14:47:23.000Z</Time>
            <Position>
              <LatitudeDegrees>41.7166947014629840850830078125</LatitudeDegrees>
              <LongitudeDegrees>-0.16174181364476680755615234375</LongitudeDegrees>
            </Position>
            <AltitudeMeters>238.8000030517578125</AltitudeMeters>
            <DistanceMeters>102736.57804906</DistanceMeters>
          </Trackpoint>
          <Trackpoint>
            <Time>2022-04-23T14:47:25.000Z</Time>
            <Position>
              <LatitudeDegrees>41.7166993953287601470947265625</LatitudeDegrees>
              <LongitudeDegrees>-0.16181373037397861480712890625</LongitudeDegrees>
            </Position>
            <AltitudeMeters>238.600006103515625</AltitudeMeters>
            <DistanceMeters>102742.57528129</DistanceMeters>
          </Trackpoint>
          <Trackpoint>
            <Time>2022-04-23T14:47:30.000Z</Time>
            <Position>
              <LatitudeDegrees>41.716666035354137420654296875</LatitudeDegrees>
              <LongitudeDegrees>-0.16206569038331508636474609375</LongitudeDegrees>
            </Position>
            <AltitudeMeters>238.8000030517578125</AltitudeMeters>
            <DistanceMeters>102763.83537175</DistanceMeters>
          </Trackpoint>
          <Trackpoint>
            <Time>2022-04-23T14:47:31.000Z</Time>
            <Position>
              <LatitudeDegrees>41.7166529595851898193359375</LatitudeDegrees>
              <LongitudeDegrees>-0.162118412554264068603515625</LongitudeDegrees>
            </Position>
            <AltitudeMeters>238.8000030517578125</AltitudeMeters>
            <DistanceMeters>102768.45175349</DistanceMeters>
          </Trackpoint>
          <Trackpoint>
            <Time>2022-04-23T14:47:36.000Z</Time>
            <Position>
              <LatitudeDegrees>41.7165686376392841339111328125</LatitudeDegrees>
              <LongitudeDegrees>-0.16234229318797588348388671875</LongitudeDegrees>
            </Position>
            <AltitudeMeters>238.8000030517578125</AltitudeMeters>
            <DistanceMeters>102789.2858053</DistanceMeters>
          </Trackpoint>
          <Trackpoint>
            <Time>2022-04-23T14:47:43.000Z</Time>
            <Position>
              <LatitudeDegrees>41.71639035455882549285888671875</LatitudeDegrees>
              <LongitudeDegrees>-0.16261017881333827972412109375</LongitudeDegrees>
            </Position>
            <AltitudeMeters>239</AltitudeMeters>
            <DistanceMeters>102819.10360747</DistanceMeters>
          </Trackpoint>
          <Trackpoint>
            <Time>2022-04-23T14:47:44.000Z</Time>
            <Position>
              <LatitudeDegrees>41.7163651250302791595458984375</LatitudeDegrees>
              <LongitudeDegrees>-0.1626496575772762298583984375</LongitudeDegrees>
            </Position>
            <AltitudeMeters>239</AltitudeMeters>
            <DistanceMeters>102823.42079148</DistanceMeters>
          </Trackpoint>
          <Trackpoint>
            <Time>2022-04-23T14:47:51.000Z</Time>
            <Position>
              <LatitudeDegrees>41.716245599091053009033203125</LatitudeDegrees>
              <LongitudeDegrees>-0.16294864006340503692626953125</LongitudeDegrees>
            </Position>
            <AltitudeMeters>239.399993896484375</AltitudeMeters>
            <DistanceMeters>102851.59873608</DistanceMeters>
          </Trackpoint>
          <Trackpoint>
            <Time>2022-04-23T14:47:57.000Z</Time>
            <Position>
              <LatitudeDegrees>41.71613537706434726715087890625</LatitudeDegrees>
              <LongitudeDegrees>-0.16322121955454349517822265625</LongitudeDegrees>
            </Position>
            <AltitudeMeters>239.8000030517578125</AltitudeMeters>
            <DistanceMeters>102877.35465726</DistanceMeters>
          </Trackpoint>
          <Trackpoint>
            <Time>2022-04-23T14:47:59.000Z</Time>
            <Position>
              <LatitudeDegrees>41.71609832905232906341552734375</LatitudeDegrees>
              <LongitudeDegrees>-0.163316018879413604736328125</LongitudeDegrees>
            </Position>
            <AltitudeMeters>240</AltitudeMeters>
            <DistanceMeters>102886.24460827</DistanceMeters>
          </Trackpoint>
          <Trackpoint>
            <Time>2022-04-23T14:48:05.000Z</Time>
            <Position>
              <LatitudeDegrees>41.715993471443653106689453125</LatitudeDegrees>
              <LongitudeDegrees>-0.163588263094425201416015625</LongitudeDegrees>
            </Position>
            <AltitudeMeters>240.399993896484375</AltitudeMeters>
            <DistanceMeters>102911.69669373</DistanceMeters>
          </Trackpoint>
          <Trackpoint>
            <Time>2022-04-23T14:48:06.000Z</Time>
            <Position>
              <LatitudeDegrees>41.715986095368862152099609375</LatitudeDegrees>
              <LongitudeDegrees>-0.16363687813282012939453125</LongitudeDegrees>
            </Position>
            <AltitudeMeters>240.399993896484375</AltitudeMeters>
            <DistanceMeters>102915.81695388</DistanceMeters>
          </Trackpoint>
          <Trackpoint>
            <Time>2022-04-23T14:48:09.000Z</Time>
            <Position>
              <LatitudeDegrees>41.71601015143096446990966796875</LatitudeDegrees>
              <LongitudeDegrees>-0.163788087666034698486328125</LongitudeDegrees>
            </Position>
            <AltitudeMeters>240.8000030517578125</AltitudeMeters>
            <DistanceMeters>102928.66138834</DistanceMeters>
          </Trackpoint>
          <Trackpoint>
            <Time>2022-04-23T14:48:16.000Z</Time>
            <Position>
              <LatitudeDegrees>41.71611174009740352630615234375</LatitudeDegrees>
              <LongitudeDegrees>-0.164122693240642547607421875</LongitudeDegrees>
            </Position>
            <AltitudeMeters>241</AltitudeMeters>
            <DistanceMeters>102958.6723834</DistanceMeters>
          </Trackpoint>
          <Trackpoint>
            <Time>2022-04-23T14:48:22.000Z</Time>
            <Position>
              <LatitudeDegrees>41.716141663491725921630859375</LatitudeDegrees>
              <LongitudeDegrees>-0.16443190164864063262939453125</LongitudeDegrees>
            </Position>
            <AltitudeMeters>240.8000030517578125</AltitudeMeters>
            <DistanceMeters>102984.57688186</DistanceMeters>
          </Trackpoint>
          <Trackpoint>
            <Time>2022-04-23T14:48:29.000Z</Time>
            <Position>
              <LatitudeDegrees>41.71614669263362884521484375</LatitudeDegrees>
              <LongitudeDegrees>-0.1648085005581378936767578125</LongitudeDegrees>
            </Position>
            <AltitudeMeters>241.600006103515625</AltitudeMeters>
            <DistanceMeters>103015.87026247</DistanceMeters>
          </Trackpoint>
          <Trackpoint>
            <Time>2022-04-23T14:48:31.000Z</Time>
            <Position>
              <LatitudeDegrees>41.71616286970674991607666015625</LatitudeDegrees>
              <LongitudeDegrees>-0.1649070717394351959228515625</LongitudeDegrees>
            </Position>
            <AltitudeMeters>241.8000030517578125</AltitudeMeters>
            <DistanceMeters>103024.2552595</DistanceMeters>
          </Trackpoint>
          <Trackpoint>
            <Time>2022-04-23T14:48:36.000Z</Time>
            <Position>
              <LatitudeDegrees>41.7162068746984004974365234375</LatitudeDegrees>
              <LongitudeDegrees>-0.165154002606868743896484375</LongitudeDegrees>
            </Position>
            <AltitudeMeters>242.399993896484375</AltitudeMeters>
            <DistanceMeters>103045.34733731</DistanceMeters>
          </Trackpoint>
          <Trackpoint>
            <Time>2022-04-23T14:48:38.000Z</Time>
            <Position>
              <LatitudeDegrees>41.7162326909601688385009765625</LatitudeDegrees>
              <LongitudeDegrees>-0.16525198705494403839111328125</LongitudeDegrees>
            </Position>
            <AltitudeMeters>242.600006103515625</AltitudeMeters>
            <DistanceMeters>103053.98013644</DistanceMeters>
          </Trackpoint>
          <Trackpoint>
            <Time>2022-04-23T14:48:39.000Z</Time>
            <Position>
              <LatitudeDegrees>41.71624501235783100128173828125</LatitudeDegrees>
              <LongitudeDegrees>-0.165302194654941558837890625</LongitudeDegrees>
            </Position>
            <AltitudeMeters>242.8000030517578125</AltitudeMeters>
            <DistanceMeters>103058.37094653</DistanceMeters>
          </Trackpoint>
          <Trackpoint>
            <Time>2022-04-23T14:48:45.000Z</Time>
            <Position>
              <LatitudeDegrees>41.71626470983028411865234375</LatitudeDegrees>
              <LongitudeDegrees>-0.16560955904424190521240234375</LongitudeDegrees>
            </Position>
            <AltitudeMeters>242.8000030517578125</AltitudeMeters>
            <DistanceMeters>103084.00104487</DistanceMeters>
          </Trackpoint>
          <Trackpoint>
            <Time>2022-04-23T14:48:54.000Z</Time>
            <Position>
              <LatitudeDegrees>41.71623445115983486175537109375</LatitudeDegrees>
              <LongitudeDegrees>-0.16608498059213161468505859375</LongitudeDegrees>
            </Position>
            <AltitudeMeters>242.600006103515625</AltitudeMeters>
            <DistanceMeters>103123.64301938</DistanceMeters>
          </Trackpoint>
          <Trackpoint>
            <Time>2022-04-23T14:48:59.000Z</Time>
            <Position>
              <LatitudeDegrees>41.7162062041461467742919921875</LatitudeDegrees>
              <LongitudeDegrees>-0.16635487787425518035888671875</LongitudeDegrees>
            </Position>
            <AltitudeMeters>243</AltitudeMeters>
            <DistanceMeters>103146.28571402</DistanceMeters>
          </Trackpoint>
          <Trackpoint>
            <Time>2022-04-23T14:49:05.000Z</Time>
            <Position>
              <LatitudeDegrees>41.7161728441715240478515625</LatitudeDegrees>
              <LongitudeDegrees>-0.1666897349059581756591796875</LongitudeDegrees>
            </Position>
            <AltitudeMeters>243.600006103515625</AltitudeMeters>
            <DistanceMeters>103174.35288004</DistanceMeters>
          </Trackpoint>
          <Trackpoint>
            <Time>2022-04-23T14:49:06.000Z</Time>
            <Position>
              <LatitudeDegrees>41.71616706065833568572998046875</LatitudeDegrees>
              <LongitudeDegrees>-0.16674966551363468170166015625</LongitudeDegrees>
            </Position>
            <AltitudeMeters>243.8000030517578125</AltitudeMeters>
            <DistanceMeters>103179.37313336</DistanceMeters>
          </Trackpoint>
          <Trackpoint>
            <Time>2022-04-23T14:49:09.000Z</Time>
            <Position>
              <LatitudeDegrees>41.71614074148237705230712890625</LatitudeDegrees>
              <LongitudeDegrees>-0.1669264398515224456787109375</LongitudeDegrees>
            </Position>
            <AltitudeMeters>244.1999969482421875</AltitudeMeters>
            <DistanceMeters>103194.3494159</DistanceMeters>
          </Trackpoint>
          <Trackpoint>
            <Time>2022-04-23T14:49:11.000Z</Time>
            <Position>
              <LatitudeDegrees>41.7161089740693569183349609375</LatitudeDegrees>
              <LongitudeDegrees>-0.1670367456972599029541015625</LongitudeDegrees>
            </Position>
            <AltitudeMeters>244.399993896484375</AltitudeMeters>
            <DistanceMeters>103204.17262296</DistanceMeters>
          </Trackpoint>
          <Trackpoint>
            <Time>2022-04-23T14:49:18.000Z</Time>
            <Position>
              <LatitudeDegrees>41.71601786278188228607177734375</LatitudeDegrees>
              <LongitudeDegrees>-0.16741066239774227142333984375</LongitudeDegrees>
            </Position>
            <AltitudeMeters>244.600006103515625</AltitudeMeters>
            <DistanceMeters>103236.8515902</DistanceMeters>
          </Trackpoint>
          <Trackpoint>
            <Time>2022-04-23T14:49:20.000Z</Time>
            <Position>
              <LatitudeDegrees>41.71599774621427059173583984375</LatitudeDegrees>
              <LongitudeDegrees>-0.16751526854932308197021484375</LongitudeDegrees>
            </Position>
            <AltitudeMeters>244.600006103515625</AltitudeMeters>
            <DistanceMeters>103245.82645967</DistanceMeters>
          </Trackpoint>
          <Trackpoint>
            <Time>2022-04-23T14:49:23.000Z</Time>
            <Position>
              <LatitudeDegrees>41.7159832455217838287353515625</LatitudeDegrees>
              <LongitudeDegrees>-0.1676804758608341217041015625</LongitudeDegrees>
            </Position>
            <AltitudeMeters>244.600006103515625</AltitudeMeters>
            <DistanceMeters>103259.64623234</DistanceMeters>
          </Trackpoint>
          <Trackpoint>
            <Time>2022-04-23T14:49:25.000Z</Time>
            <Position>
              <LatitudeDegrees>41.71597025357186794281005859375</LatitudeDegrees>
              <LongitudeDegrees>-0.16778952442109584808349609375</LongitudeDegrees>
            </Position>
            <AltitudeMeters>244.8000030517578125</AltitudeMeters>
            <DistanceMeters>103268.82061747</DistanceMeters>
          </Trackpoint>
          <Trackpoint>
            <Time>2022-04-23T14:49:27.000Z</Time>
            <Position>
              <LatitudeDegrees>41.71595147810876369476318359375</LatitudeDegrees>
              <LongitudeDegrees>-0.167896561324596405029296875</LongitudeDegrees>
            </Position>
            <AltitudeMeters>244.8000030517578125</AltitudeMeters>
            <DistanceMeters>103277.95505267</DistanceMeters>
          </Trackpoint>
          <Trackpoint>
            <Time>2022-04-23T14:49:29.000Z</Time>
            <Position>
              <LatitudeDegrees>41.71591409482061862945556640625</LatitudeDegrees>
              <LongitudeDegrees>-0.1679902710020542144775390625</LongitudeDegrees>
            </Position>
            <AltitudeMeters>245</AltitudeMeters>
            <DistanceMeters>103286.78282474</DistanceMeters>
          </Trackpoint>
          <Trackpoint>
            <Time>2022-04-23T14:49:30.000Z</Time>
            <Position>
              <LatitudeDegrees>41.71588593162596225738525390625</LatitudeDegrees>
              <LongitudeDegrees>-0.168027989566326141357421875</LongitudeDegrees>
            </Position>
            <AltitudeMeters>245</AltitudeMeters>
            <DistanceMeters>103291.21559434</DistanceMeters>
          </Trackpoint>
          <Trackpoint>
            <Time>2022-04-23T14:49:33.000Z</Time>
            <Position>
              <LatitudeDegrees>41.71578484587371349334716796875</LatitudeDegrees>
              <LongitudeDegrees>-0.16811926849186420440673828125</LongitudeDegrees>
            </Position>
            <AltitudeMeters>245.399993896484375</AltitudeMeters>
            <DistanceMeters>103304.78379866</DistanceMeters>
          </Trackpoint>
          <Trackpoint>
            <Time>2022-04-23T14:49:38.000Z</Time>
            <Position>
              <LatitudeDegrees>41.71559893526136875152587890625</LatitudeDegrees>
              <LongitudeDegrees>-0.16825740225613117218017578125</LongitudeDegrees>
            </Position>
            <AltitudeMeters>245.600006103515625</AltitudeMeters>
            <DistanceMeters>103328.44564135</DistanceMeters>
          </Trackpoint>
          <Trackpoint>
            <Time>2022-04-23T14:49:40.000Z</Time>
            <Position>
              <LatitudeDegrees>41.715528108179569244384765625</LatitudeDegrees>
              <LongitudeDegrees>-0.168326385319232940673828125</LongitudeDegrees>
            </Position>
            <AltitudeMeters>245.600006103515625</AltitudeMeters>
            <DistanceMeters>103338.19178798</DistanceMeters>
          </Trackpoint>
          <Trackpoint>
            <Time>2022-04-23T14:49:42.000Z</Time>
            <Position>
              <LatitudeDegrees>41.7154763080179691314697265625</LatitudeDegrees>
              <LongitudeDegrees>-0.16841280274093151092529296875</LongitudeDegrees>
            </Position>
            <AltitudeMeters>246</AltitudeMeters>
            <DistanceMeters>103347.40006783</DistanceMeters>
          </Trackpoint>
          <Trackpoint>
            <Time>2022-04-23T14:49:43.000Z</Time>
            <Position>
              <LatitudeDegrees>41.7154588736593723297119140625</LatitudeDegrees>
              <LongitudeDegrees>-0.1684628427028656005859375</LongitudeDegrees>
            </Position>
            <AltitudeMeters>246</AltitudeMeters>
            <DistanceMeters>103351.98799854</DistanceMeters>
          </Trackpoint>
          <Trackpoint>
            <Time>2022-04-23T14:49:45.000Z</Time>
            <Position>
              <LatitudeDegrees>41.7154367454349994659423828125</LatitudeDegrees>
              <LongitudeDegrees>-0.16856610774993896484375</LongitudeDegrees>
            </Position>
            <AltitudeMeters>246.399993896484375</AltitudeMeters>
            <DistanceMeters>103360.91393628</DistanceMeters>
          </Trackpoint>
          <Trackpoint>
            <Time>2022-04-23T14:49:48.000Z</Time>
            <Position>
              <LatitudeDegrees>41.7154183052480220794677734375</LatitudeDegrees>
              <LongitudeDegrees>-0.16871773637831211090087890625</LongitudeDegrees>
            </Position>
            <AltitudeMeters>246.600006103515625</AltitudeMeters>
            <DistanceMeters>103373.67761949</DistanceMeters>
          </Trackpoint>
          <Trackpoint>
            <Time>2022-04-23T14:49:49.000Z</Time>
            <Position>
              <LatitudeDegrees>41.71540372073650360107421875</LatitudeDegrees>
              <LongitudeDegrees>-0.1687684468924999237060546875</LongitudeDegrees>
            </Position>
            <AltitudeMeters>246.8000030517578125</AltitudeMeters>
            <DistanceMeters>103378.19313858</DistanceMeters>
          </Trackpoint>
          <Trackpoint>
            <Time>2022-04-23T14:49:52.000Z</Time>
            <Position>
              <LatitudeDegrees>41.715345047414302825927734375</LatitudeDegrees>
              <LongitudeDegrees>-0.16890649683773517608642578125</LongitudeDegrees>
            </Position>
            <AltitudeMeters>247</AltitudeMeters>
            <DistanceMeters>103391.39125111</DistanceMeters>
          </Trackpoint>
          <Trackpoint>
            <Time>2022-04-23T14:49:53.000Z</Time>
            <Position>
              <LatitudeDegrees>41.71531747095286846160888671875</LatitudeDegrees>
              <LongitudeDegrees>-0.168943293392658233642578125</LongitudeDegrees>
            </Position>
            <AltitudeMeters>247</AltitudeMeters>
            <DistanceMeters>103395.72305199</DistanceMeters>
          </Trackpoint>
          <Trackpoint>
            <Time>2022-04-23T14:49:56.000Z</Time>
            <Position>
              <LatitudeDegrees>41.71523063443601131439208984375</LatitudeDegrees>
              <LongitudeDegrees>-0.16906390897929668426513671875</LongitudeDegrees>
            </Position>
            <AltitudeMeters>247.1999969482421875</AltitudeMeters>
            <DistanceMeters>103409.64568181</DistanceMeters>
          </Trackpoint>
          <Trackpoint>
            <Time>2022-04-23T14:49:58.000Z</Time>
            <Position>
              <LatitudeDegrees>41.71520029194653034210205078125</LatitudeDegrees>
              <LongitudeDegrees>-0.16916759312152862548828125</LongitudeDegrees>
            </Position>
            <AltitudeMeters>248</AltitudeMeters>
            <DistanceMeters>103418.89847354</DistanceMeters>
          </Trackpoint>
          <Trackpoint>
            <Time>2022-04-23T14:49:59.000Z</Time>
            <Position>
              <LatitudeDegrees>41.71519475989043712615966796875</LatitudeDegrees>
              <LongitudeDegrees>-0.169222913682460784912109375</LongitudeDegrees>
            </Position>
            <AltitudeMeters>248.1999969482421875</AltitudeMeters>
            <DistanceMeters>103423.5363224</DistanceMeters>
          </Trackpoint>
          <Trackpoint>
            <Time>2022-04-23T14:50:02.000Z</Time>
            <Position>
              <LatitudeDegrees>41.715192832052707672119140625</LatitudeDegrees>
              <LongitudeDegrees>-0.169387198984622955322265625</LongitudeDegrees>
            </Position>
            <AltitudeMeters>248.399993896484375</AltitudeMeters>
            <DistanceMeters>103437.18713401</DistanceMeters>
          </Trackpoint>
          <Trackpoint>
            <Time>2022-04-23T14:50:06.000Z</Time>
            <Position>
              <LatitudeDegrees>41.71521470881998538970947265625</LatitudeDegrees>
              <LongitudeDegrees>-0.16957939602434635162353515625</LongitudeDegrees>
            </Position>
            <AltitudeMeters>248.600006103515625</AltitudeMeters>
            <DistanceMeters>103453.3397189</DistanceMeters>
          </Trackpoint>
          <Trackpoint>
            <Time>2022-04-23T14:50:13.000Z</Time>
            <Position>
              <LatitudeDegrees>41.71523717232048511505126953125</LatitudeDegrees>
              <LongitudeDegrees>-0.16992808319628238677978515625</LongitudeDegrees>
            </Position>
            <AltitudeMeters>248</AltitudeMeters>
            <DistanceMeters>103482.4172724</DistanceMeters>
          </Trackpoint>
          <Trackpoint>
            <Time>2022-04-23T14:50:22.000Z</Time>
            <Position>
              <LatitudeDegrees>41.71528075821697711944580078125</LatitudeDegrees>
              <LongitudeDegrees>-0.170404426753520965576171875</LongitudeDegrees>
            </Position>
            <AltitudeMeters>248.399993896484375</AltitudeMeters>
            <DistanceMeters>103522.28933127</DistanceMeters>
          </Trackpoint>
          <Trackpoint>
            <Time>2022-04-23T14:50:24.000Z</Time>
            <Position>
              <LatitudeDegrees>41.7152930796146392822265625</LatitudeDegrees>
              <LongitudeDegrees>-0.17050995491445064544677734375</LongitudeDegrees>
            </Position>
            <AltitudeMeters>248.8000030517578125</AltitudeMeters>
            <DistanceMeters>103531.1630152</DistanceMeters>
          </Trackpoint>
          <Trackpoint>
            <Time>2022-04-23T14:50:30.000Z</Time>
            <Position>
              <LatitudeDegrees>41.71532928943634033203125</LatitudeDegrees>
              <LongitudeDegrees>-0.17081773839890956878662109375</LongitudeDegrees>
            </Position>
            <AltitudeMeters>249.399993896484375</AltitudeMeters>
            <DistanceMeters>103557.05042707</DistanceMeters>
          </Trackpoint>
          <Trackpoint>
            <Time>2022-04-23T14:50:34.000Z</Time>
            <Position>
              <LatitudeDegrees>41.715345047414302825927734375</LatitudeDegrees>
              <LongitudeDegrees>-0.17102896235883235931396484375</LongitudeDegrees>
            </Position>
            <AltitudeMeters>250</AltitudeMeters>
            <DistanceMeters>103574.6872931</DistanceMeters>
          </Trackpoint>
          <Trackpoint>
            <Time>2022-04-23T14:50:38.000Z</Time>
            <Position>
              <LatitudeDegrees>41.71537899412214756011962890625</LatitudeDegrees>
              <LongitudeDegrees>-0.17123959958553314208984375</LongitudeDegrees>
            </Position>
            <AltitudeMeters>250.8000030517578125</AltitudeMeters>
            <DistanceMeters>103592.59068924</DistanceMeters>
          </Trackpoint>
          <Trackpoint>
            <Time>2022-04-23T14:50:41.000Z</Time>
            <Position>
              <LatitudeDegrees>41.7154038883745670318603515625</LatitudeDegrees>
              <LongitudeDegrees>-0.1713950000703334808349609375</LongitudeDegrees>
            </Position>
            <AltitudeMeters>251.1999969482421875</AltitudeMeters>
            <DistanceMeters>103605.79564195</DistanceMeters>
          </Trackpoint>
          <Trackpoint>
            <Time>2022-04-23T14:50:46.000Z</Time>
            <Position>
              <LatitudeDegrees>41.71545158140361309051513671875</LatitudeDegrees>
              <LongitudeDegrees>-0.17164729535579681396484375</LongitudeDegrees>
            </Position>
            <AltitudeMeters>252.1999969482421875</AltitudeMeters>
            <DistanceMeters>103627.41855267</DistanceMeters>
          </Trackpoint>
          <Trackpoint>
            <Time>2022-04-23T14:50:47.000Z</Time>
            <Position>
              <LatitudeDegrees>41.71546130441129207611083984375</LatitudeDegrees>
              <LongitudeDegrees>-0.17169884406030178070068359375</LongitudeDegrees>
            </Position>
            <AltitudeMeters>252.1999969482421875</AltitudeMeters>
            <DistanceMeters>103631.83499526</DistanceMeters>
          </Trackpoint>
          <Trackpoint>
            <Time>2022-04-23T14:50:52.000Z</Time>
            <Position>
              <LatitudeDegrees>41.71550086699426174163818359375</LatitudeDegrees>
              <LongitudeDegrees>-0.17193135805428028106689453125</LongitudeDegrees>
            </Position>
            <AltitudeMeters>253.399993896484375</AltitudeMeters>
            <DistanceMeters>103651.64846399</DistanceMeters>
          </Trackpoint>
          <Trackpoint>
            <Time>2022-04-23T14:50:56.000Z</Time>
            <Position>
              <LatitudeDegrees>41.715535484254360198974609375</LatitudeDegrees>
              <LongitudeDegrees>-0.1721294224262237548828125</LongitudeDegrees>
            </Position>
            <AltitudeMeters>254.1999969482421875</AltitudeMeters>
            <DistanceMeters>103668.54933315</DistanceMeters>
          </Trackpoint>
          <Trackpoint>
            <Time>2022-04-23T14:50:57.000Z</Time>
            <Position>
              <LatitudeDegrees>41.71555300243198871612548828125</LatitudeDegrees>
              <LongitudeDegrees>-0.17217778600752353668212890625</LongitudeDegrees>
            </Position>
            <AltitudeMeters>254.8000030517578125</AltitudeMeters>
            <DistanceMeters>103673.01558872</DistanceMeters>
          </Trackpoint>
          <Trackpoint>
            <Time>2022-04-23T14:51:01.000Z</Time>
            <Position>
              <LatitudeDegrees>41.715601198375225067138671875</LatitudeDegrees>
              <LongitudeDegrees>-0.17236520536243915557861328125</LongitudeDegrees>
            </Position>
            <AltitudeMeters>255.600006103515625</AltitudeMeters>
            <DistanceMeters>103689.48457096</DistanceMeters>
          </Trackpoint>
          <Trackpoint>
            <Time>2022-04-23T14:51:06.000Z</Time>
            <Position>
              <LatitudeDegrees>41.71565660275518894195556640625</LatitudeDegrees>
              <LongitudeDegrees>-0.1725895889103412628173828125</LongitudeDegrees>
            </Position>
            <AltitudeMeters>257</AltitudeMeters>
            <DistanceMeters>103709.12041075</DistanceMeters>
          </Trackpoint>
          <Trackpoint>
            <Time>2022-04-23T14:51:07.000Z</Time>
            <Position>
              <LatitudeDegrees>41.7156654037535190582275390625</LatitudeDegrees>
              <LongitudeDegrees>-0.17263996414840221405029296875</LongitudeDegrees>
            </Position>
            <AltitudeMeters>257.20001220703125</AltitudeMeters>
            <DistanceMeters>103713.4187286</DistanceMeters>
          </Trackpoint>
          <Trackpoint>
            <Time>2022-04-23T14:51:13.000Z</Time>
            <Position>
              <LatitudeDegrees>41.71573589555919170379638671875</LatitudeDegrees>
              <LongitudeDegrees>-0.17296400852501392364501953125</LongitudeDegrees>
            </Position>
            <AltitudeMeters>257.20001220703125</AltitudeMeters>
            <DistanceMeters>103741.4609494</DistanceMeters>
          </Trackpoint>
          <Trackpoint>
            <Time>2022-04-23T14:51:19.000Z</Time>
            <Position>
              <LatitudeDegrees>41.71582206152379512786865234375</LatitudeDegrees>
              <LongitudeDegrees>-0.17336927354335784912109375</LongitudeDegrees>
            </Position>
            <AltitudeMeters>256.20001220703125</AltitudeMeters>
            <DistanceMeters>103776.47026638</DistanceMeters>
          </Trackpoint>
          <Trackpoint>
            <Time>2022-04-23T14:51:21.000Z</Time>
            <Position>
              <LatitudeDegrees>41.71584301628172397613525390625</LatitudeDegrees>
              <LongitudeDegrees>-0.17351553775370121002197265625</LongitudeDegrees>
            </Position>
            <AltitudeMeters>255.8000030517578125</AltitudeMeters>
            <DistanceMeters>103788.84382473</DistanceMeters>
          </Trackpoint>
          <Trackpoint>
            <Time>2022-04-23T14:51:23.000Z</Time>
            <Position>
              <LatitudeDegrees>41.7158608697354793548583984375</LatitudeDegrees>
              <LongitudeDegrees>-0.17365702427923679351806640625</LongitudeDegrees>
            </Position>
            <AltitudeMeters>255.600006103515625</AltitudeMeters>
            <DistanceMeters>103800.76579617</DistanceMeters>
          </Trackpoint>
          <Trackpoint>
            <Time>2022-04-23T14:51:25.000Z</Time>
            <Position>
              <LatitudeDegrees>41.71589129604399204254150390625</LatitudeDegrees>
              <LongitudeDegrees>-0.17379306256771087646484375</LongitudeDegrees>
            </Position>
            <AltitudeMeters>255.399993896484375</AltitudeMeters>
            <DistanceMeters>103812.56480836</DistanceMeters>
          </Trackpoint>
          <Trackpoint>
            <Time>2022-04-23T14:51:30.000Z</Time>
            <Position>
              <LatitudeDegrees>41.7159778811037540435791015625</LatitudeDegrees>
              <LongitudeDegrees>-0.174130015075206756591796875</LongitudeDegrees>
            </Position>
            <AltitudeMeters>255.1999969482421875</AltitudeMeters>
            <DistanceMeters>103842.17199736</DistanceMeters>
          </Trackpoint>
          <Trackpoint>
            <Time>2022-04-23T14:51:32.000Z</Time>
            <Position>
              <LatitudeDegrees>41.71604937873780727386474609375</LatitudeDegrees>
              <LongitudeDegrees>-0.17423654906451702117919921875</LongitudeDegrees>
            </Position>
            <AltitudeMeters>255</AltitudeMeters>
            <DistanceMeters>103854.0742593</DistanceMeters>
          </Trackpoint>
          <Trackpoint>
            <Time>2022-04-23T14:51:34.000Z</Time>
            <Position>
              <LatitudeDegrees>41.7161394841969013214111328125</LatitudeDegrees>
              <LongitudeDegrees>-0.17430377192795276641845703125</LongitudeDegrees>
            </Position>
            <AltitudeMeters>255</AltitudeMeters>
            <DistanceMeters>103865.55323467</DistanceMeters>
          </Trackpoint>
          <Trackpoint>
            <Time>2022-04-23T14:51:36.000Z</Time>
            <Position>
              <LatitudeDegrees>41.716242246329784393310546875</LatitudeDegrees>
              <LongitudeDegrees>-0.1743444241583347320556640625</LongitudeDegrees>
            </Position>
            <AltitudeMeters>255</AltitudeMeters>
            <DistanceMeters>103877.47899267</DistanceMeters>
          </Trackpoint>
          <Trackpoint>
            <Time>2022-04-23T14:51:40.000Z</Time>
            <Position>
              <LatitudeDegrees>41.7164643667638301849365234375</LatitudeDegrees>
              <LongitudeDegrees>-0.17441173084080219268798828125</LongitudeDegrees>
            </Position>
            <AltitudeMeters>254.8000030517578125</AltitudeMeters>
            <DistanceMeters>103902.82584354</DistanceMeters>
          </Trackpoint>
          <Trackpoint>
            <Time>2022-04-23T14:51:42.000Z</Time>
            <Position>
              <LatitudeDegrees>41.71657375060021877288818359375</LatitudeDegrees>
              <LongitudeDegrees>-0.1744334399700164794921875</LongitudeDegrees>
            </Position>
            <AltitudeMeters>254.600006103515625</AltitudeMeters>
            <DistanceMeters>103915.13317884</DistanceMeters>
          </Trackpoint>
          <Trackpoint>
            <Time>2022-04-23T14:51:48.000Z</Time>
            <Position>
              <LatitudeDegrees>41.71683174557983875274658203125</LatitudeDegrees>
              <LongitudeDegrees>-0.17449186183512210845947265625</LongitudeDegrees>
            </Position>
            <AltitudeMeters>254</AltitudeMeters>
            <DistanceMeters>103944.25588253</DistanceMeters>
          </Trackpoint>
          <Trackpoint>
            <Time>2022-04-23T14:51:52.000Z</Time>
            <Position>
              <LatitudeDegrees>41.71696971170604228973388671875</LatitudeDegrees>
              <LongitudeDegrees>-0.17455422319471836090087890625</LongitudeDegrees>
            </Position>
            <AltitudeMeters>253.600006103515625</AltitudeMeters>
            <DistanceMeters>103960.46232579</DistanceMeters>
          </Trackpoint>
          <Trackpoint>
            <Time>2022-04-23T14:51:54.000Z</Time>
            <Position>
              <LatitudeDegrees>41.71702922321856021881103515625</LatitudeDegrees>
              <LongitudeDegrees>-0.1746005751192569732666015625</LongitudeDegrees>
            </Position>
            <AltitudeMeters>253.600006103515625</AltitudeMeters>
            <DistanceMeters>103968.12421375</DistanceMeters>
          </Trackpoint>
          <Trackpoint>
            <Time>2022-04-23T14:51:56.000Z</Time>
            <Position>
              <LatitudeDegrees>41.717096529901027679443359375</LatitudeDegrees>
              <LongitudeDegrees>-0.17467559315264225006103515625</LongitudeDegrees>
            </Position>
            <AltitudeMeters>253.399993896484375</AltitudeMeters>
            <DistanceMeters>103977.8698971</DistanceMeters>
          </Trackpoint>
          <Trackpoint>
            <Time>2022-04-23T14:51:58.000Z</Time>
            <Position>
              <LatitudeDegrees>41.71716995537281036376953125</LatitudeDegrees>
              <LongitudeDegrees>-0.17475857399404048919677734375</LongitudeDegrees>
            </Position>
            <AltitudeMeters>253.399993896484375</AltitudeMeters>
            <DistanceMeters>103988.56198613</DistanceMeters>
          </Trackpoint>
          <Trackpoint>
            <Time>2022-04-23T14:52:01.000Z</Time>
            <Position>
              <LatitudeDegrees>41.717290990054607391357421875</LatitudeDegrees>
              <LongitudeDegrees>-0.17487323842942714691162109375</LongitudeDegrees>
            </Position>
            <AltitudeMeters>253.8000030517578125</AltitudeMeters>
            <DistanceMeters>104005.06137141</DistanceMeters>
          </Trackpoint>
          <Trackpoint>
            <Time>2022-04-23T14:52:04.000Z</Time>
            <Position>
              <LatitudeDegrees>41.7174108512699604034423828125</LatitudeDegrees>
              <LongitudeDegrees>-0.17497750930488109588623046875</LongitudeDegrees>
            </Position>
            <AltitudeMeters>253.8000030517578125</AltitudeMeters>
            <DistanceMeters>104020.96806</DistanceMeters>
          </Trackpoint>
          <Trackpoint>
            <Time>2022-04-23T14:52:08.000Z</Time>
            <Position>
              <LatitudeDegrees>41.71756365336477756500244140625</LatitudeDegrees>
              <LongitudeDegrees>-0.17508781515061855316162109375</LongitudeDegrees>
            </Position>
            <AltitudeMeters>254.1999969482421875</AltitudeMeters>
            <DistanceMeters>104040.28701674</DistanceMeters>
          </Trackpoint>
          <Trackpoint>
            <Time>2022-04-23T14:52:10.000Z</Time>
            <Position>
              <LatitudeDegrees>41.71764898113906383514404296875</LatitudeDegrees>
              <LongitudeDegrees>-0.17515235580503940582275390625</LongitudeDegrees>
            </Position>
            <AltitudeMeters>254.1999969482421875</AltitudeMeters>
            <DistanceMeters>104051.19316945</DistanceMeters>
          </Trackpoint>
          <Trackpoint>
            <Time>2022-04-23T14:52:11.000Z</Time>
            <Position>
              <LatitudeDegrees>41.71769256703555583953857421875</LatitudeDegrees>
              <LongitudeDegrees>-0.175190828740596771240234375</LongitudeDegrees>
            </Position>
            <AltitudeMeters>254.1999969482421875</AltitudeMeters>
            <DistanceMeters>104057.00302536</DistanceMeters>
          </Trackpoint>
          <Trackpoint>
            <Time>2022-04-23T14:52:16.000Z</Time>
            <Position>
              <LatitudeDegrees>41.71792608685791492462158203125</LatitudeDegrees>
              <LongitudeDegrees>-0.17539442516863346099853515625</LongitudeDegrees>
            </Position>
            <AltitudeMeters>254.399993896484375</AltitudeMeters>
            <DistanceMeters>104088.01334511</DistanceMeters>
          </Trackpoint>
          <Trackpoint>
            <Time>2022-04-23T14:52:18.000Z</Time>
            <Position>
              <LatitudeDegrees>41.7180264182388782501220703125</LatitudeDegrees>
              <LongitudeDegrees>-0.17546273767948150634765625</LongitudeDegrees>
            </Position>
            <AltitudeMeters>254</AltitudeMeters>
            <DistanceMeters>104100.53994234</DistanceMeters>
          </Trackpoint>
          <Trackpoint>
            <Time>2022-04-23T14:52:21.000Z</Time>
            <Position>
              <LatitudeDegrees>41.71818408183753490447998046875</LatitudeDegrees>
              <LongitudeDegrees>-0.17551311291754245758056640625</LongitudeDegrees>
            </Position>
            <AltitudeMeters>253.600006103515625</AltitudeMeters>
            <DistanceMeters>104118.58025789</DistanceMeters>
          </Trackpoint>
          <Trackpoint>
            <Time>2022-04-23T14:52:22.000Z</Time>
            <Position>
              <LatitudeDegrees>41.71823739074170589447021484375</LatitudeDegrees>
              <LongitudeDegrees>-0.175535492599010467529296875</LongitudeDegrees>
            </Position>
            <AltitudeMeters>253.1999969482421875</AltitudeMeters>
            <DistanceMeters>104124.7985203</DistanceMeters>
          </Trackpoint>
          <Trackpoint>
            <Time>2022-04-23T14:52:26.000Z</Time>
            <Position>
              <LatitudeDegrees>41.718455068767070770263671875</LatitudeDegrees>
              <LongitudeDegrees>-0.17567303963005542755126953125</LongitudeDegrees>
            </Position>
            <AltitudeMeters>252.8000030517578125</AltitudeMeters>
            <DistanceMeters>104151.58611117</DistanceMeters>
          </Trackpoint>
          <Trackpoint>
            <Time>2022-04-23T14:52:28.000Z</Time>
            <Position>
              <LatitudeDegrees>41.7185662128031253814697265625</LatitudeDegrees>
              <LongitudeDegrees>-0.175745375454425811767578125</LongitudeDegrees>
            </Position>
            <AltitudeMeters>252.600006103515625</AltitudeMeters>
            <DistanceMeters>104165.3390738</DistanceMeters>
          </Trackpoint>
          <Trackpoint>
            <Time>2022-04-23T14:52:30.000Z</Time>
            <Position>
              <LatitudeDegrees>41.71868548728525638580322265625</LatitudeDegrees>
              <LongitudeDegrees>-0.1758058927953243255615234375</LongitudeDegrees>
            </Position>
            <AltitudeMeters>252.600006103515625</AltitudeMeters>
            <DistanceMeters>104179.53499632</DistanceMeters>
          </Trackpoint>
          <Trackpoint>
            <Time>2022-04-23T14:52:32.000Z</Time>
            <Position>
              <LatitudeDegrees>41.71880870126187801361083984375</LatitudeDegrees>
              <LongitudeDegrees>-0.1758389174938201904296875</LongitudeDegrees>
            </Position>
            <AltitudeMeters>252.600006103515625</AltitudeMeters>
            <DistanceMeters>104193.52072067</DistanceMeters>
          </Trackpoint>
          <Trackpoint>
            <Time>2022-04-23T14:52:38.000Z</Time>
            <Position>
              <LatitudeDegrees>41.71917482279241085052490234375</LatitudeDegrees>
              <LongitudeDegrees>-0.17583128996193408966064453125</LongitudeDegrees>
            </Position>
            <AltitudeMeters>252.399993896484375</AltitudeMeters>
            <DistanceMeters>104234.27577191</DistanceMeters>
          </Trackpoint>
          <Trackpoint>
            <Time>2022-04-23T14:52:43.000Z</Time>
            <Position>
              <LatitudeDegrees>41.7194848693907260894775390625</LatitudeDegrees>
              <LongitudeDegrees>-0.17588074319064617156982421875</LongitudeDegrees>
            </Position>
            <AltitudeMeters>252.1999969482421875</AltitudeMeters>
            <DistanceMeters>104269.02814699</DistanceMeters>
          </Trackpoint>
          <Trackpoint>
            <Time>2022-04-23T14:52:49.000Z</Time>
            <Position>
              <LatitudeDegrees>41.71982961706817150115966796875</LatitudeDegrees>
              <LongitudeDegrees>-0.17603782005608081817626953125</LongitudeDegrees>
            </Position>
            <AltitudeMeters>252.399993896484375</AltitudeMeters>
            <DistanceMeters>104309.55745843</DistanceMeters>
          </Trackpoint>
          <Trackpoint>
            <Time>2022-04-23T14:52:51.000Z</Time>
            <Position>
              <LatitudeDegrees>41.719937659800052642822265625</LatitudeDegrees>
              <LongitudeDegrees>-0.17608459107577800750732421875</LongitudeDegrees>
            </Position>
            <AltitudeMeters>252.600006103515625</AltitudeMeters>
            <DistanceMeters>104322.19493966</DistanceMeters>
          </Trackpoint>
          <Trackpoint>
            <Time>2022-04-23T14:52:54.000Z</Time>
            <Position>
              <LatitudeDegrees>41.72008006833493709564208984375</LatitudeDegrees>
              <LongitudeDegrees>-0.17619690857827663421630859375</LongitudeDegrees>
            </Position>
            <AltitudeMeters>252.600006103515625</AltitudeMeters>
            <DistanceMeters>104340.58794877</DistanceMeters>
          </Trackpoint>
          <Trackpoint>
            <Time>2022-04-23T14:52:55.000Z</Time>
            <Position>
              <LatitudeDegrees>41.72012533061206340789794921875</LatitudeDegrees>
              <LongitudeDegrees>-0.17623965628445148468017578125</LongitudeDegrees>
            </Position>
            <AltitudeMeters>252.399993896484375</AltitudeMeters>
            <DistanceMeters>104346.75224611</DistanceMeters>
          </Trackpoint>
          <Trackpoint>
            <Time>2022-04-23T14:52:58.000Z</Time>
            <Position>
              <LatitudeDegrees>41.72025038860738277435302734375</LatitudeDegrees>
              <LongitudeDegrees>-0.17640980891883373260498046875</LongitudeDegrees>
            </Position>
            <AltitudeMeters>251.8000030517578125</AltitudeMeters>
            <DistanceMeters>104366.5907655</DistanceMeters>
          </Trackpoint>
          <Trackpoint>
            <Time>2022-04-23T14:52:59.000Z</Time>
            <Position>
              <LatitudeDegrees>41.72028525732457637786865234375</LatitudeDegrees>
              <LongitudeDegrees>-0.17648055218160152435302734375</LongitudeDegrees>
            </Position>
            <AltitudeMeters>251.8000030517578125</AltitudeMeters>
            <DistanceMeters>104373.63364914</DistanceMeters>
          </Trackpoint>
          <Trackpoint>
            <Time>2022-04-23T14:53:00.000Z</Time>
            <Position>
              <LatitudeDegrees>41.72031912021338939666748046875</LatitudeDegrees>
              <LongitudeDegrees>-0.17655448056757450103759765625</LongitudeDegrees>
            </Position>
            <AltitudeMeters>251.600006103515625</AltitudeMeters>
            <DistanceMeters>104380.84003309</DistanceMeters>
          </Trackpoint>
          <Trackpoint>
            <Time>2022-04-23T14:53:04.000Z</Time>
            <Position>
              <LatitudeDegrees>41.7204561643302440643310546875</LatitudeDegrees>
              <LongitudeDegrees>-0.1768274791538715362548828125</LongitudeDegrees>
            </Position>
            <AltitudeMeters>251.399993896484375</AltitudeMeters>
            <DistanceMeters>104408.17190338</DistanceMeters>
          </Trackpoint>
          <Trackpoint>
            <Time>2022-04-23T14:53:05.000Z</Time>
            <Position>
              <LatitudeDegrees>41.720480136573314666748046875</LatitudeDegrees>
              <LongitudeDegrees>-0.17689394764602184295654296875</LongitudeDegrees>
            </Position>
            <AltitudeMeters>251.399993896484375</AltitudeMeters>
            <DistanceMeters>104414.30462451</DistanceMeters>
          </Trackpoint>
          <Trackpoint>
            <Time>2022-04-23T14:53:07.000Z</Time>
            <Position>
              <LatitudeDegrees>41.7205207049846649169921875</LatitudeDegrees>
              <LongitudeDegrees>-0.1770226098597049713134765625</LongitudeDegrees>
            </Position>
            <AltitudeMeters>251.600006103515625</AltitudeMeters>
            <DistanceMeters>104425.90800504</DistanceMeters>
          </Trackpoint>
          <Trackpoint>
            <Time>2022-04-23T14:53:10.000Z</Time>
            <Position>
              <LatitudeDegrees>41.7205877602100372314453125</LatitudeDegrees>
              <LongitudeDegrees>-0.1771867275238037109375</LongitudeDegrees>
            </Position>
            <AltitudeMeters>251.8000030517578125</AltitudeMeters>
            <DistanceMeters>104441.45148262</DistanceMeters>
          </Trackpoint>
          <Trackpoint>
            <Time>2022-04-23T14:53:15.000Z</Time>
            <Position>
              <LatitudeDegrees>41.720699407160282135009765625</LatitudeDegrees>
              <LongitudeDegrees>-0.17743944190442562103271484375</LongitudeDegrees>
            </Position>
            <AltitudeMeters>252.600006103515625</AltitudeMeters>
            <DistanceMeters>104465.84800693</DistanceMeters>
          </Trackpoint>
          <Trackpoint>
            <Time>2022-04-23T14:53:16.000Z</Time>
            <Position>
              <LatitudeDegrees>41.7207176797091960906982421875</LatitudeDegrees>
              <LongitudeDegrees>-0.17749208025634288787841796875</LongitudeDegrees>
            </Position>
            <AltitudeMeters>252.8000030517578125</AltitudeMeters>
            <DistanceMeters>104470.67102227</DistanceMeters>
          </Trackpoint>
          <Trackpoint>
            <Time>2022-04-23T14:53:19.000Z</Time>
            <Position>
              <LatitudeDegrees>41.7207703180611133575439453125</LatitudeDegrees>
              <LongitudeDegrees>-0.17765938304364681243896484375</LongitudeDegrees>
            </Position>
            <AltitudeMeters>253.600006103515625</AltitudeMeters>
            <DistanceMeters>104485.75395023</DistanceMeters>
          </Trackpoint>
          <Trackpoint>
            <Time>2022-04-23T14:53:21.000Z</Time>
            <Position>
              <LatitudeDegrees>41.72080057673156261444091796875</LatitudeDegrees>
              <LongitudeDegrees>-0.1777756400406360626220703125</LongitudeDegrees>
            </Position>
            <AltitudeMeters>254.1999969482421875</AltitudeMeters>
            <DistanceMeters>104495.98246262</DistanceMeters>
          </Trackpoint>
          <Trackpoint>
            <Time>2022-04-23T14:53:22.000Z</Time>
            <Position>
              <LatitudeDegrees>41.720816083252429962158203125</LatitudeDegrees>
              <LongitudeDegrees>-0.177833139896392822265625</LongitudeDegrees>
            </Position>
            <AltitudeMeters>254.1999969482421875</AltitudeMeters>
            <DistanceMeters>104501.06172717</DistanceMeters>
          </Trackpoint>
          <Trackpoint>
            <Time>2022-04-23T14:53:28.000Z</Time>
            <Position>
              <LatitudeDegrees>41.72087886370718479156494140625</LatitudeDegrees>
              <LongitudeDegrees>-0.17827712930738925933837890625</LongitudeDegrees>
            </Position>
            <AltitudeMeters>254.600006103515625</AltitudeMeters>
            <DistanceMeters>104538.60233106</DistanceMeters>
          </Trackpoint>
          <Trackpoint>
            <Time>2022-04-23T14:53:30.000Z</Time>
            <Position>
              <LatitudeDegrees>41.72092110849916934967041015625</LatitudeDegrees>
              <LongitudeDegrees>-0.178423561155796051025390625</LongitudeDegrees>
            </Position>
            <AltitudeMeters>254.600006103515625</AltitudeMeters>
            <DistanceMeters>104551.64420669</DistanceMeters>
          </Trackpoint>
          <Trackpoint>
            <Time>2022-04-23T14:53:31.000Z</Time>
            <Position>
              <LatitudeDegrees>41.7209574021399021148681640625</LatitudeDegrees>
              <LongitudeDegrees>-0.17848022282123565673828125</LongitudeDegrees>
            </Position>
            <AltitudeMeters>254.600006103515625</AltitudeMeters>
            <DistanceMeters>104557.84647447</DistanceMeters>
          </Trackpoint>
          <Trackpoint>
            <Time>2022-04-23T14:53:32.000Z</Time>
            <Position>
              <LatitudeDegrees>41.72099671326577663421630859375</LatitudeDegrees>
              <LongitudeDegrees>-0.17852422781288623809814453125</LongitudeDegrees>
            </Position>
            <AltitudeMeters>254.600006103515625</AltitudeMeters>
            <DistanceMeters>104563.54807733</DistanceMeters>
          </Trackpoint>
          <Trackpoint>
            <Time>2022-04-23T14:53:34.000Z</Time>
            <Position>
              <LatitudeDegrees>41.72108036465942859649658203125</LatitudeDegrees>
              <LongitudeDegrees>-0.17860804684460163116455078125</LongitudeDegrees>
            </Position>
            <AltitudeMeters>254.1999969482421875</AltitudeMeters>
            <DistanceMeters>104575.17478127</DistanceMeters>
          </Trackpoint>
          <Trackpoint>
            <Time>2022-04-23T14:53:36.000Z</Time>
            <Position>
              <LatitudeDegrees>41.721150688827037811279296875</LatitudeDegrees>
              <LongitudeDegrees>-0.17870913259685039520263671875</LongitudeDegrees>
            </Position>
            <AltitudeMeters>254.1999969482421875</AltitudeMeters>
            <DistanceMeters>104586.65454327</DistanceMeters>
          </Trackpoint>
          <Trackpoint>
            <Time>2022-04-23T14:53:40.000Z</Time>
            <Position>
              <LatitudeDegrees>41.721243560314178466796875</LatitudeDegrees>
              <LongitudeDegrees>-0.178919099271297454833984375</LongitudeDegrees>
            </Position>
            <AltitudeMeters>254.399993896484375</AltitudeMeters>
            <DistanceMeters>104606.93000208</DistanceMeters>
          </Trackpoint>
          <Trackpoint>
            <Time>2022-04-23T14:53:41.000Z</Time>
            <Position>
              <LatitudeDegrees>41.7212618328630924224853515625</LatitudeDegrees>
              <LongitudeDegrees>-0.17896578647196292877197265625</LongitudeDegrees>
            </Position>
            <AltitudeMeters>254.600006103515625</AltitudeMeters>
            <DistanceMeters>104611.30948634</DistanceMeters>
          </Trackpoint>
          <Trackpoint>
            <Time>2022-04-23T14:53:44.000Z</Time>
            <Position>
              <LatitudeDegrees>41.721335090696811676025390625</LatitudeDegrees>
              <LongitudeDegrees>-0.17910224385559558868408203125</LongitudeDegrees>
            </Position>
            <AltitudeMeters>255.1999969482421875</AltitudeMeters>
            <DistanceMeters>104625.27356421</DistanceMeters>
          </Trackpoint>
          <Trackpoint>
            <Time>2022-04-23T14:53:48.000Z</Time>
            <Position>
              <LatitudeDegrees>41.72144698910415172576904296875</LatitudeDegrees>
              <LongitudeDegrees>-0.17928220331668853759765625</LongitudeDegrees>
            </Position>
            <AltitudeMeters>256.20001220703125</AltitudeMeters>
            <DistanceMeters>104644.73200981</DistanceMeters>
          </Trackpoint>
          <Trackpoint>
            <Time>2022-04-23T14:53:55.000Z</Time>
            <Position>
              <LatitudeDegrees>41.721634157001972198486328125</LatitudeDegrees>
              <LongitudeDegrees>-0.17961471341550350189208984375</LongitudeDegrees>
            </Position>
            <AltitudeMeters>257.20001220703125</AltitudeMeters>
            <DistanceMeters>104679.33008683</DistanceMeters>
          </Trackpoint>
          <Trackpoint>
            <Time>2022-04-23T14:54:00.000Z</Time>
            <Position>
              <LatitudeDegrees>41.72175175510346889495849609375</LatitudeDegrees>
              <LongitudeDegrees>-0.17985778860747814178466796875</LongitudeDegrees>
            </Position>
            <AltitudeMeters>257.399993896484375</AltitudeMeters>
            <DistanceMeters>104703.39455862</DistanceMeters>
          </Trackpoint>
          <Trackpoint>
            <Time>2022-04-23T14:54:07.000Z</Time>
            <Position>
              <LatitudeDegrees>41.72186826355755329132080078125</LatitudeDegrees>
              <LongitudeDegrees>-0.18021720461547374725341796875</LongitudeDegrees>
            </Position>
            <AltitudeMeters>258</AltitudeMeters>
            <DistanceMeters>104735.94713825</DistanceMeters>
          </Trackpoint>
          <Trackpoint>
            <Time>2022-04-23T14:54:10.000Z</Time>
            <Position>
              <LatitudeDegrees>41.72189642675220966339111328125</LatitudeDegrees>
              <LongitudeDegrees>-0.18031175248324871063232421875</LongitudeDegrees>
            </Position>
            <AltitudeMeters>258.20001220703125</AltitudeMeters>
            <DistanceMeters>104744.40398195</DistanceMeters>
          </Trackpoint>
          <Trackpoint>
            <Time>2022-04-23T14:54:14.000Z</Time>
            <Position>
              <LatitudeDegrees>41.72199751250445842742919921875</LatitudeDegrees>
              <LongitudeDegrees>-0.18058466725051403045654296875</LongitudeDegrees>
            </Position>
            <AltitudeMeters>258.600006103515625</AltitudeMeters>
            <DistanceMeters>104769.7142898</DistanceMeters>
          </Trackpoint>
          <Trackpoint>
            <Time>2022-04-23T14:54:22.000Z</Time>
            <Position>
              <LatitudeDegrees>41.72216414473950862884521484375</LatitudeDegrees>
              <LongitudeDegrees>-0.181006528437137603759765625</LongitudeDegrees>
            </Position>
            <AltitudeMeters>259.399993896484375</AltitudeMeters>
            <DistanceMeters>104809.36469167</DistanceMeters>
          </Trackpoint>
          <Trackpoint>
            <Time>2022-04-23T14:54:23.000Z</Time>
            <Position>
              <LatitudeDegrees>41.7221871949732303619384765625</LatitudeDegrees>
              <LongitudeDegrees>-0.1810576580464839935302734375</LongitudeDegrees>
            </Position>
            <AltitudeMeters>259.399993896484375</AltitudeMeters>
            <DistanceMeters>104814.3261419</DistanceMeters>
          </Trackpoint>
          <Trackpoint>
            <Time>2022-04-23T14:54:26.000Z</Time>
            <Position>
              <LatitudeDegrees>41.72225383110344409942626953125</LatitudeDegrees>
              <LongitudeDegrees>-0.18123460002243518829345703125</LongitudeDegrees>
            </Position>
            <AltitudeMeters>259.600006103515625</AltitudeMeters>
            <DistanceMeters>104830.79018863</DistanceMeters>
          </Trackpoint>
          <Trackpoint>
            <Time>2022-04-23T14:54:28.000Z</Time>
            <Position>
              <LatitudeDegrees>41.72230747528374195098876953125</LatitudeDegrees>
              <LongitudeDegrees>-0.181320346891880035400390625</LongitudeDegrees>
            </Position>
            <AltitudeMeters>259.600006103515625</AltitudeMeters>
            <DistanceMeters>104840.08485061</DistanceMeters>
          </Trackpoint>
          <Trackpoint>
            <Time>2022-04-23T14:54:29.000Z</Time>
            <Position>
              <LatitudeDegrees>41.7223457805812358856201171875</LatitudeDegrees>
              <LongitudeDegrees>-0.18135949037969112396240234375</LongitudeDegrees>
            </Position>
            <AltitudeMeters>259.600006103515625</AltitudeMeters>
            <DistanceMeters>104845.4469177</DistanceMeters>
          </Trackpoint>
          <Trackpoint>
            <Time>2022-04-23T14:54:30.000Z</Time>
            <Position>
              <LatitudeDegrees>41.722388528287410736083984375</LatitudeDegrees>
              <LongitudeDegrees>-0.18138597719371318817138671875</LongitudeDegrees>
            </Position>
            <AltitudeMeters>259.79998779296875</AltitudeMeters>
            <DistanceMeters>104850.68891375</DistanceMeters>
          </Trackpoint>
          <Trackpoint>
            <Time>2022-04-23T14:54:33.000Z</Time>
            <Position>
              <LatitudeDegrees>41.7225489579141139984130859375</LatitudeDegrees>
              <LongitudeDegrees>-0.18142738379538059234619140625</LongitudeDegrees>
            </Position>
            <AltitudeMeters>259.600006103515625</AltitudeMeters>
            <DistanceMeters>104868.8735611</DistanceMeters>
          </Trackpoint>
          <Trackpoint>
            <Time>2022-04-23T14:54:38.000Z</Time>
            <Position>
              <LatitudeDegrees>41.7228567413985729217529296875</LatitudeDegrees>
              <LongitudeDegrees>-0.1814656890928745269775390625</LongitudeDegrees>
            </Position>
            <AltitudeMeters>259.20001220703125</AltitudeMeters>
            <DistanceMeters>104903.27795646</DistanceMeters>
          </Trackpoint>
          <Trackpoint>
            <Time>2022-04-23T14:54:39.000Z</Time>
            <Position>
              <LatitudeDegrees>41.7229184322059154510498046875</LatitudeDegrees>
              <LongitudeDegrees>-0.1814643479883670806884765625</LongitudeDegrees>
            </Position>
            <AltitudeMeters>258.79998779296875</AltitudeMeters>
            <DistanceMeters>104910.14491061</DistanceMeters>
          </Trackpoint>
          <Trackpoint>
            <Time>2022-04-23T14:54:42.000Z</Time>
            <Position>
              <LatitudeDegrees>41.72309755347669124603271484375</LatitudeDegrees>
              <LongitudeDegrees>-0.18148404546082019805908203125</LongitudeDegrees>
            </Position>
            <AltitudeMeters>258.399993896484375</AltitudeMeters>
            <DistanceMeters>104930.14842898</DistanceMeters>
          </Trackpoint>
          <Trackpoint>
            <Time>2022-04-23T14:54:44.000Z</Time>
            <Position>
              <LatitudeDegrees>41.72321422956883907318115234375</LatitudeDegrees>
              <LongitudeDegrees>-0.181523859500885009765625</LongitudeDegrees>
            </Position>
            <AltitudeMeters>258.20001220703125</AltitudeMeters>
            <DistanceMeters>104943.54955432</DistanceMeters>
          </Trackpoint>
          <Trackpoint>
            <Time>2022-04-23T14:54:45.000Z</Time>
            <Position>
              <LatitudeDegrees>41.72326988540589809417724609375</LatitudeDegrees>
              <LongitudeDegrees>-0.181550346314907073974609375</LongitudeDegrees>
            </Position>
            <AltitudeMeters>258.20001220703125</AltitudeMeters>
            <DistanceMeters>104950.12359006</DistanceMeters>
          </Trackpoint>
          <Trackpoint>
            <Time>2022-04-23T14:54:47.000Z</Time>
            <Position>
              <LatitudeDegrees>41.72336577437818050384521484375</LatitudeDegrees>
              <LongitudeDegrees>-0.1816163957118988037109375</LongitudeDegrees>
            </Position>
            <AltitudeMeters>258.399993896484375</AltitudeMeters>
            <DistanceMeters>104962.12407584</DistanceMeters>
          </Trackpoint>
          <Trackpoint>
            <Time>2022-04-23T14:54:49.000Z</Time>
            <Position>
              <LatitudeDegrees>41.72345009632408618927001953125</LatitudeDegrees>
              <LongitudeDegrees>-0.18170096911489963531494140625</LongitudeDegrees>
            </Position>
            <AltitudeMeters>258.600006103515625</AltitudeMeters>
            <DistanceMeters>104973.84746117</DistanceMeters>
          </Trackpoint>
          <Trackpoint>
            <Time>2022-04-23T14:54:50.000Z</Time>
            <Position>
              <LatitudeDegrees>41.7234873957931995391845703125</LatitudeDegrees>
              <LongitudeDegrees>-0.181749500334262847900390625</LongitudeDegrees>
            </Position>
            <AltitudeMeters>258.600006103515625</AltitudeMeters>
            <DistanceMeters>104979.63395609</DistanceMeters>
          </Trackpoint>
          <Trackpoint>
            <Time>2022-04-23T14:54:53.000Z</Time>
            <Position>
              <LatitudeDegrees>41.72358588315546512603759765625</LatitudeDegrees>
              <LongitudeDegrees>-0.18190406262874603271484375</LongitudeDegrees>
            </Position>
            <AltitudeMeters>259.399993896484375</AltitudeMeters>
            <DistanceMeters>104996.51664938</DistanceMeters>
          </Trackpoint>
          <Trackpoint>
            <Time>2022-04-23T14:54:55.000Z</Time>
            <Position>
              <LatitudeDegrees>41.723643802106380462646484375</LatitudeDegrees>
              <LongitudeDegrees>-0.18200791440904140472412109375</LongitudeDegrees>
            </Position>
            <AltitudeMeters>260</AltitudeMeters>
            <DistanceMeters>105007.28615735</DistanceMeters>
          </Trackpoint>
          <Trackpoint>
            <Time>2022-04-23T14:54:58.000Z</Time>
            <Position>
              <LatitudeDegrees>41.72369920648634433746337890625</LatitudeDegrees>
              <LongitudeDegrees>-0.18218175508081912994384765625</LongitudeDegrees>
            </Position>
            <AltitudeMeters>260.600006103515625</AltitudeMeters>
            <DistanceMeters>105022.98887264</DistanceMeters>
          </Trackpoint>
          <Trackpoint>
            <Time>2022-04-23T14:55:01.000Z</Time>
            <Position>
              <LatitudeDegrees>41.72374002635478973388671875</LatitudeDegrees>
              <LongitudeDegrees>-0.18236783333122730255126953125</LongitudeDegrees>
            </Position>
            <AltitudeMeters>261</AltitudeMeters>
            <DistanceMeters>105039.10087554</DistanceMeters>
          </Trackpoint>
          <Trackpoint>
            <Time>2022-04-23T14:55:03.000Z</Time>
            <Position>
              <LatitudeDegrees>41.72376927919685840606689453125</LatitudeDegrees>
              <LongitudeDegrees>-0.18249104730784893035888671875</LongitudeDegrees>
            </Position>
            <AltitudeMeters>261.20001220703125</AltitudeMeters>
            <DistanceMeters>105049.84183717</DistanceMeters>
          </Trackpoint>
          <Trackpoint>
            <Time>2022-04-23T14:55:08.000Z</Time>
            <Position>
              <LatitudeDegrees>41.72383256256580352783203125</LatitudeDegrees>
              <LongitudeDegrees>-0.1828108169138431549072265625</LongitudeDegrees>
            </Position>
            <AltitudeMeters>261.399993896484375</AltitudeMeters>
            <DistanceMeters>105077.3237864</DistanceMeters>
          </Trackpoint>
          <Trackpoint>
            <Time>2022-04-23T14:55:10.000Z</Time>
            <Position>
              <LatitudeDegrees>41.72386600635945796966552734375</LatitudeDegrees>
              <LongitudeDegrees>-0.1829335279762744903564453125</LongitudeDegrees>
            </Position>
            <AltitudeMeters>261.600006103515625</AltitudeMeters>
            <DistanceMeters>105088.17598696</DistanceMeters>
          </Trackpoint>
          <Trackpoint>
            <Time>2022-04-23T14:55:14.000Z</Time>
            <Position>
              <LatitudeDegrees>41.723952926695346832275390625</LatitudeDegrees>
              <LongitudeDegrees>-0.18316713161766529083251953125</LongitudeDegrees>
            </Position>
            <AltitudeMeters>261.79998779296875</AltitudeMeters>
            <DistanceMeters>105109.85957569</DistanceMeters>
          </Trackpoint>
          <Trackpoint>
            <Time>2022-04-23T14:55:15.000Z</Time>
            <Position>
              <LatitudeDegrees>41.72398016788065433502197265625</LatitudeDegrees>
              <LongitudeDegrees>-0.18322261981666088104248046875</LongitudeDegrees>
            </Position>
            <AltitudeMeters>261.79998779296875</AltitudeMeters>
            <DistanceMeters>105115.37603811</DistanceMeters>
          </Trackpoint>
          <Trackpoint>
            <Time>2022-04-23T14:55:23.000Z</Time>
            <Position>
              <LatitudeDegrees>41.72425073571503162384033203125</LatitudeDegrees>
              <LongitudeDegrees>-0.183642804622650146484375</LongitudeDegrees>
            </Position>
            <AltitudeMeters>261.79998779296875</AltitudeMeters>
            <DistanceMeters>105161.47663042</DistanceMeters>
          </Trackpoint>
          <Trackpoint>
            <Time>2022-04-23T14:55:26.000Z</Time>
            <Position>
              <LatitudeDegrees>41.7243614606559276580810546875</LatitudeDegrees>
              <LongitudeDegrees>-0.18378571607172489166259765625</LongitudeDegrees>
            </Position>
            <AltitudeMeters>261.79998779296875</AltitudeMeters>
            <DistanceMeters>105178.58830067</DistanceMeters>
          </Trackpoint>
          <Trackpoint>
            <Time>2022-04-23T14:55:30.000Z</Time>
            <Position>
              <LatitudeDegrees>41.7245187051594257354736328125</LatitudeDegrees>
              <LongitudeDegrees>-0.183970034122467041015625</LongitudeDegrees>
            </Position>
            <AltitudeMeters>262</AltitudeMeters>
            <DistanceMeters>105201.84229103</DistanceMeters>
          </Trackpoint>
          <Trackpoint>
            <Time>2022-04-23T14:55:32.000Z</Time>
            <Position>
              <LatitudeDegrees>41.72461166046559810638427734375</LatitudeDegrees>
              <LongitudeDegrees>-0.18403239548206329345703125</LongitudeDegrees>
            </Position>
            <AltitudeMeters>262</AltitudeMeters>
            <DistanceMeters>105213.41293982</DistanceMeters>
          </Trackpoint>
          <Trackpoint>
            <Time>2022-04-23T14:55:35.000Z</Time>
            <Position>
              <LatitudeDegrees>41.7247647978365421295166015625</LatitudeDegrees>
              <LongitudeDegrees>-0.18409718759357929229736328125</LongitudeDegrees>
            </Position>
            <AltitudeMeters>262.20001220703125</AltitudeMeters>
            <DistanceMeters>105231.28705811</DistanceMeters>
          </Trackpoint>
          <Trackpoint>
            <Time>2022-04-23T14:55:42.000Z</Time>
            <Position>
              <LatitudeDegrees>41.72513150610029697418212890625</LatitudeDegrees>
              <LongitudeDegrees>-0.1842531748116016387939453125</LongitudeDegrees>
            </Position>
            <AltitudeMeters>262.399993896484375</AltitudeMeters>
            <DistanceMeters>105274.10985348</DistanceMeters>
          </Trackpoint>
          <Trackpoint>
            <Time>2022-04-23T14:55:48.000Z</Time>
            <Position>
              <LatitudeDegrees>41.72543291933834552764892578125</LatitudeDegrees>
              <LongitudeDegrees>-0.18441318534314632415771484375</LongitudeDegrees>
            </Position>
            <AltitudeMeters>262.399993896484375</AltitudeMeters>
            <DistanceMeters>105310.19498925</DistanceMeters>
          </Trackpoint>
          <Trackpoint>
            <Time>2022-04-23T14:55:55.000Z</Time>
            <Position>
              <LatitudeDegrees>41.72580557875335216522216796875</LatitudeDegrees>
              <LongitudeDegrees>-0.1844788156449794769287109375</LongitudeDegrees>
            </Position>
            <AltitudeMeters>262.399993896484375</AltitudeMeters>
            <DistanceMeters>105352.02941426</DistanceMeters>
          </Trackpoint>
          <Trackpoint>
            <Time>2022-04-23T14:55:59.000Z</Time>
            <Position>
              <LatitudeDegrees>41.72603004612028598785400390625</LatitudeDegrees>
              <LongitudeDegrees>-0.184532962739467620849609375</LongitudeDegrees>
            </Position>
            <AltitudeMeters>262.399993896484375</AltitudeMeters>
            <DistanceMeters>105377.41453421</DistanceMeters>
          </Trackpoint>
          <Trackpoint>
            <Time>2022-04-23T14:56:03.000Z</Time>
            <Position>
              <LatitudeDegrees>41.72626004554331302642822265625</LatitudeDegrees>
              <LongitudeDegrees>-0.1846124231815338134765625</LongitudeDegrees>
            </Position>
            <AltitudeMeters>262.600006103515625</AltitudeMeters>
            <DistanceMeters>105403.85109595</DistanceMeters>
          </Trackpoint>
          <Trackpoint>
            <Time>2022-04-23T14:56:04.000Z</Time>
            <Position>
              <LatitudeDegrees>41.7263188026845455169677734375</LatitudeDegrees>
              <LongitudeDegrees>-0.18462960608303546905517578125</LongitudeDegrees>
            </Position>
            <AltitudeMeters>262.600006103515625</AltitudeMeters>
            <DistanceMeters>105410.5455914</DistanceMeters>
          </Trackpoint>
          <Trackpoint>
            <Time>2022-04-23T14:56:09.000Z</Time>
            <Position>
              <LatitudeDegrees>41.72660739161074161529541015625</LatitudeDegrees>
              <LongitudeDegrees>-0.18470990471541881561279296875</LongitudeDegrees>
            </Position>
            <AltitudeMeters>262.600006103515625</AltitudeMeters>
            <DistanceMeters>105443.35142276</DistanceMeters>
          </Trackpoint>
          <Trackpoint>
            <Time>2022-04-23T14:56:12.000Z</Time>
            <Position>
              <LatitudeDegrees>41.7267576791346073150634765625</LatitudeDegrees>
              <LongitudeDegrees>-0.18475566990673542022705078125</LongitudeDegrees>
            </Position>
            <AltitudeMeters>262.600006103515625</AltitudeMeters>
            <DistanceMeters>105460.50525822</DistanceMeters>
          </Trackpoint>
          <Trackpoint>
            <Time>2022-04-23T14:56:19.000Z</Time>
            <Position>
              <LatitudeDegrees>41.72715188004076480865478515625</LatitudeDegrees>
              <LongitudeDegrees>-0.18489112146198749542236328125</LongitudeDegrees>
            </Position>
            <AltitudeMeters>262</AltitudeMeters>
            <DistanceMeters>105505.80041721</DistanceMeters>
          </Trackpoint>
          <Trackpoint>
            <Time>2022-04-23T14:56:21.000Z</Time>
            <Position>
              <LatitudeDegrees>41.7272718250751495361328125</LatitudeDegrees>
              <LongitudeDegrees>-0.1849347911775112152099609375</LongitudeDegrees>
            </Position>
            <AltitudeMeters>262</AltitudeMeters>
            <DistanceMeters>105519.63455759</DistanceMeters>
          </Trackpoint>
          <Trackpoint>
            <Time>2022-04-23T14:56:25.000Z</Time>
            <Position>
              <LatitudeDegrees>41.72751045785844326019287109375</LatitudeDegrees>
              <LongitudeDegrees>-0.18503797240555286407470703125</LongitudeDegrees>
            </Position>
            <AltitudeMeters>261.79998779296875</AltitudeMeters>
            <DistanceMeters>105547.54346843</DistanceMeters>
          </Trackpoint>
          <Trackpoint>
            <Time>2022-04-23T14:56:27.000Z</Time>
            <Position>
              <LatitudeDegrees>41.7276277206838130950927734375</LatitudeDegrees>
              <LongitudeDegrees>-0.185108967125415802001953125</LongitudeDegrees>
            </Position>
            <AltitudeMeters>261.79998779296875</AltitudeMeters>
            <DistanceMeters>105561.86573139</DistanceMeters>
          </Trackpoint>
          <Trackpoint>
            <Time>2022-04-23T14:56:30.000Z</Time>
            <Position>
              <LatitudeDegrees>41.7277785949409008026123046875</LatitudeDegrees>
              <LongitudeDegrees>-0.18525657244026660919189453125</LongitudeDegrees>
            </Position>
            <AltitudeMeters>262.20001220703125</AltitudeMeters>
            <DistanceMeters>105582.6581324</DistanceMeters>
          </Trackpoint>
          <Trackpoint>
            <Time>2022-04-23T14:56:32.000Z</Time>
            <Position>
              <LatitudeDegrees>41.72787222079932689666748046875</LatitudeDegrees>
              <LongitudeDegrees>-0.18534977920353412628173828125</LongitudeDegrees>
            </Position>
            <AltitudeMeters>262.399993896484375</AltitudeMeters>
            <DistanceMeters>105595.64032585</DistanceMeters>
          </Trackpoint>
          <Trackpoint>
            <Time>2022-04-23T14:56:34.000Z</Time>
            <Position>
              <LatitudeDegrees>41.72797934152185916900634765625</LatitudeDegrees>
              <LongitudeDegrees>-0.1854175888001918792724609375</LongitudeDegrees>
            </Position>
            <AltitudeMeters>262.399993896484375</AltitudeMeters>
            <DistanceMeters>105608.82645955</DistanceMeters>
          </Trackpoint>
          <Trackpoint>
            <Time>2022-04-23T14:56:35.000Z</Time>
            <Position>
              <LatitudeDegrees>41.72803801484405994415283203125</LatitudeDegrees>
              <LongitudeDegrees>-0.18543711863458156585693359375</LongitudeDegrees>
            </Position>
            <AltitudeMeters>262.399993896484375</AltitudeMeters>
            <DistanceMeters>105615.55526355</DistanceMeters>
          </Trackpoint>
          <Trackpoint>
            <Time>2022-04-23T14:56:36.000Z</Time>
            <Position>
              <LatitudeDegrees>41.72811110503971576690673828125</LatitudeDegrees>
              <LongitudeDegrees>-0.18544617109000682830810546875</LongitudeDegrees>
            </Position>
            <AltitudeMeters>262.20001220703125</AltitudeMeters>
            <DistanceMeters>105623.72424543</DistanceMeters>
          </Trackpoint>
          <Trackpoint>
            <Time>2022-04-23T14:56:40.000Z</Time>
            <Position>
              <LatitudeDegrees>41.7283465526998043060302734375</LatitudeDegrees>
              <LongitudeDegrees>-0.1854323409497737884521484375</LongitudeDegrees>
            </Position>
            <AltitudeMeters>261.79998779296875</AltitudeMeters>
            <DistanceMeters>105649.95506137</DistanceMeters>
          </Trackpoint>
          <Trackpoint>
            <Time>2022-04-23T14:56:43.000Z</Time>
            <Position>
              <LatitudeDegrees>41.72853179275989532470703125</LatitudeDegrees>
              <LongitudeDegrees>-0.1854139007627964019775390625</LongitudeDegrees>
            </Position>
            <AltitudeMeters>261.79998779296875</AltitudeMeters>
            <DistanceMeters>105670.6294329</DistanceMeters>
          </Trackpoint>
          <Trackpoint>
            <Time>2022-04-23T14:56:45.000Z</Time>
            <Position>
              <LatitudeDegrees>41.72864042222499847412109375</LatitudeDegrees>
              <LongitudeDegrees>-0.1853458397090435028076171875</LongitudeDegrees>
            </Position>
            <AltitudeMeters>261.600006103515625</AltitudeMeters>
            <DistanceMeters>105683.97654301</DistanceMeters>
          </Trackpoint>
          <Trackpoint>
            <Time>2022-04-23T14:56:46.000Z</Time>
            <Position>
              <LatitudeDegrees>41.72868208028376102447509765625</LatitudeDegrees>
              <LongitudeDegrees>-0.1852885074913501739501953125</LongitudeDegrees>
            </Position>
            <AltitudeMeters>261.600006103515625</AltitudeMeters>
            <DistanceMeters>105690.6229807</DistanceMeters>
          </Trackpoint>
          <Trackpoint>
            <Time>2022-04-23T14:56:47.000Z</Time>
            <Position>
              <LatitudeDegrees>41.7287203855812549591064453125</LatitudeDegrees>
              <LongitudeDegrees>-0.18521684221923351287841796875</LongitudeDegrees>
            </Position>
            <AltitudeMeters>261.600006103515625</AltitudeMeters>
            <DistanceMeters>105697.94497249</DistanceMeters>
          </Trackpoint>
          <Trackpoint>
            <Time>2022-04-23T14:56:49.000Z</Time>
            <Position>
              <LatitudeDegrees>41.72878836281597614288330078125</LatitudeDegrees>
              <LongitudeDegrees>-0.18505222164094448089599609375</LongitudeDegrees>
            </Position>
            <AltitudeMeters>261.600006103515625</AltitudeMeters>
            <DistanceMeters>105713.57275057</DistanceMeters>
          </Trackpoint>
          <Trackpoint>
            <Time>2022-04-23T14:56:52.000Z</Time>
            <Position>
              <LatitudeDegrees>41.72890503890812397003173828125</LatitudeDegrees>
              <LongitudeDegrees>-0.184798501431941986083984375</LongitudeDegrees>
            </Position>
            <AltitudeMeters>261.20001220703125</AltitudeMeters>
            <DistanceMeters>105738.32789362</DistanceMeters>
          </Trackpoint>
          <Trackpoint>
            <Time>2022-04-23T14:56:53.000Z</Time>
            <Position>
              <LatitudeDegrees>41.72896270640194416046142578125</LatitudeDegrees>
              <LongitudeDegrees>-0.1847239024937152862548828125</LongitudeDegrees>
            </Position>
            <AltitudeMeters>261</AltitudeMeters>
            <DistanceMeters>105747.24978377</DistanceMeters>
          </Trackpoint>
          <Trackpoint>
            <Time>2022-04-23T14:56:54.000Z</Time>
            <Position>
              <LatitudeDegrees>41.72902800142765045166015625</LatitudeDegrees>
              <LongitudeDegrees>-0.18466246314346790313720703125</LongitudeDegrees>
            </Position>
            <AltitudeMeters>260.79998779296875</AltitudeMeters>
            <DistanceMeters>105756.13058822</DistanceMeters>
          </Trackpoint>
          <Trackpoint>
            <Time>2022-04-23T14:56:56.000Z</Time>
            <Position>
              <LatitudeDegrees>41.72916638664901256561279296875</LatitudeDegrees>
              <LongitudeDegrees>-0.18460060469806194305419921875</LongitudeDegrees>
            </Position>
            <AltitudeMeters>260.79998779296875</AltitudeMeters>
            <DistanceMeters>105772.36764805</DistanceMeters>
          </Trackpoint>
          <Trackpoint>
            <Time>2022-04-23T14:56:58.000Z</Time>
            <Position>
              <LatitudeDegrees>41.7293004132807254791259765625</LatitudeDegrees>
              <LongitudeDegrees>-0.1845706813037395477294921875</LongitudeDegrees>
            </Position>
            <AltitudeMeters>260.600006103515625</AltitudeMeters>
            <DistanceMeters>105787.49033683</DistanceMeters>
          </Trackpoint>
          <Trackpoint>
            <Time>2022-04-23T14:56:59.000Z</Time>
            <Position>
              <LatitudeDegrees>41.7293533869087696075439453125</LatitudeDegrees>
              <LongitudeDegrees>-0.18452902324497699737548828125</LongitudeDegrees>
            </Position>
            <AltitudeMeters>260.399993896484375</AltitudeMeters>
            <DistanceMeters>105794.32631852</DistanceMeters>
          </Trackpoint>
          <Trackpoint>
            <Time>2022-04-23T14:57:00.000Z</Time>
            <Position>
              <LatitudeDegrees>41.7293979786336421966552734375</LatitudeDegrees>
              <LongitudeDegrees>-0.18446951173245906829833984375</LongitudeDegrees>
            </Position>
            <AltitudeMeters>260</AltitudeMeters>
            <DistanceMeters>105801.33127643</DistanceMeters>
          </Trackpoint>
          <Trackpoint>
            <Time>2022-04-23T14:57:02.000Z</Time>
            <Position>
              <LatitudeDegrees>41.72946779988706111907958984375</LatitudeDegrees>
              <LongitudeDegrees>-0.18432199023663997650146484375</LongitudeDegrees>
            </Position>
            <AltitudeMeters>259.600006103515625</AltitudeMeters>
            <DistanceMeters>105815.84207664</DistanceMeters>
          </Trackpoint>
          <Trackpoint>
            <Time>2022-04-23T14:57:03.000Z</Time>
            <Position>
              <LatitudeDegrees>41.729503087699413299560546875</LatitudeDegrees>
              <LongitudeDegrees>-0.18424621783196926116943359375</LongitudeDegrees>
            </Position>
            <AltitudeMeters>259.399993896484375</AltitudeMeters>
            <DistanceMeters>105823.2614665</DistanceMeters>
          </Trackpoint>
          <Trackpoint>
            <Time>2022-04-23T14:57:06.000Z</Time>
            <Position>
              <LatitudeDegrees>41.72959822230041027069091796875</LatitudeDegrees>
              <LongitudeDegrees>-0.18401370383799076080322265625</LongitudeDegrees>
            </Position>
            <AltitudeMeters>259.20001220703125</AltitudeMeters>
            <DistanceMeters>105845.28717482</DistanceMeters>
          </Trackpoint>
          <Trackpoint>
            <Time>2022-04-23T14:57:09.000Z</Time>
            <Position>
              <LatitudeDegrees>41.72969863750040531158447265625</LatitudeDegrees>
              <LongitudeDegrees>-0.1837836205959320068359375</LongitudeDegrees>
            </Position>
            <AltitudeMeters>259</AltitudeMeters>
            <DistanceMeters>105867.42697178</DistanceMeters>
          </Trackpoint>
          <Trackpoint>
            <Time>2022-04-23T14:57:14.000Z</Time>
            <Position>
              <LatitudeDegrees>41.72987432219088077545166015625</LatitudeDegrees>
              <LongitudeDegrees>-0.18338732421398162841796875</LongitudeDegrees>
            </Position>
            <AltitudeMeters>258.399993896484375</AltitudeMeters>
            <DistanceMeters>105905.71460177</DistanceMeters>
          </Trackpoint>
          <Trackpoint>
            <Time>2022-04-23T14:57:18.000Z</Time>
            <Position>
              <LatitudeDegrees>41.7300242744386196136474609375</LatitudeDegrees>
              <LongitudeDegrees>-0.18305682577192783355712890625</LongitudeDegrees>
            </Position>
            <AltitudeMeters>258.20001220703125</AltitudeMeters>
            <DistanceMeters>105937.84220498</DistanceMeters>
          </Trackpoint>
          <Trackpoint>
            <Time>2022-04-23T14:57:25.000Z</Time>
            <Position>
              <LatitudeDegrees>41.730316467583179473876953125</LatitudeDegrees>
              <LongitudeDegrees>-0.18241125158965587615966796875</LongitudeDegrees>
            </Position>
            <AltitudeMeters>257.399993896484375</AltitudeMeters>
            <DistanceMeters>106000.5569568</DistanceMeters>
          </Trackpoint>
          <Trackpoint>
            <Time>2022-04-23T14:57:32.000Z</Time>
            <Position>
              <LatitudeDegrees>41.7306214012205600738525390625</LatitudeDegrees>
              <LongitudeDegrees>-0.18173952586948871612548828125</LongitudeDegrees>
            </Position>
            <AltitudeMeters>256.600006103515625</AltitudeMeters>
            <DistanceMeters>106065.86416563</DistanceMeters>
          </Trackpoint>
          <Trackpoint>
            <Time>2022-04-23T14:57:33.000Z</Time>
            <Position>
              <LatitudeDegrees>41.73066188581287860870361328125</LatitudeDegrees>
              <LongitudeDegrees>-0.181644223630428314208984375</LongitudeDegrees>
            </Position>
            <AltitudeMeters>256.399993896484375</AltitudeMeters>
            <DistanceMeters>106074.97286161</DistanceMeters>
          </Trackpoint>
          <Trackpoint>
            <Time>2022-04-23T14:57:40.000Z</Time>
            <Position>
              <LatitudeDegrees>41.73095248639583587646484375</LatitudeDegrees>
              <LongitudeDegrees>-0.18098766915500164031982421875</LongitudeDegrees>
            </Position>
            <AltitudeMeters>255.8000030517578125</AltitudeMeters>
            <DistanceMeters>106138.37818617</DistanceMeters>
          </Trackpoint>
          <Trackpoint>
            <Time>2022-04-23T14:57:42.000Z</Time>
            <Position>
              <LatitudeDegrees>41.7310337908565998077392578125</LatitudeDegrees>
              <LongitudeDegrees>-0.18080477602779865264892578125</LongitudeDegrees>
            </Position>
            <AltitudeMeters>255.600006103515625</AltitudeMeters>
            <DistanceMeters>106156.06081683</DistanceMeters>
          </Trackpoint>
          <Trackpoint>
            <Time>2022-04-23T14:57:50.000Z</Time>
            <Position>
              <LatitudeDegrees>41.731344759464263916015625</LatitudeDegrees>
              <LongitudeDegrees>-0.180114693939685821533203125</LongitudeDegrees>
            </Position>
            <AltitudeMeters>255.399993896484375</AltitudeMeters>
            <DistanceMeters>106223.01966341</DistanceMeters>
          </Trackpoint>
          <Trackpoint>
            <Time>2022-04-23T14:57:57.000Z</Time>
            <Position>
              <LatitudeDegrees>41.7316024191677570343017578125</LatitudeDegrees>
              <LongitudeDegrees>-0.1795401982963085174560546875</LongitudeDegrees>
            </Position>
            <AltitudeMeters>255.600006103515625</AltitudeMeters>
            <DistanceMeters>106278.69283018</DistanceMeters>
          </Trackpoint>
          <Trackpoint>
            <Time>2022-04-23T14:58:03.000Z</Time>
            <Position>
              <LatitudeDegrees>41.731815822422504425048828125</LatitudeDegrees>
              <LongitudeDegrees>-0.179042816162109375</LongitudeDegrees>
            </Position>
            <AltitudeMeters>256.20001220703125</AltitudeMeters>
            <DistanceMeters>106326.34737734</DistanceMeters>
          </Trackpoint>
          <Trackpoint>
            <Time>2022-04-23T14:58:04.000Z</Time>
            <Position>
              <LatitudeDegrees>41.731851361691951751708984375</LatitudeDegrees>
              <LongitudeDegrees>-0.17895991913974285125732421875</LongitudeDegrees>
            </Position>
            <AltitudeMeters>256.399993896484375</AltitudeMeters>
            <DistanceMeters>106334.28765402</DistanceMeters>
          </Trackpoint>
          <Trackpoint>
            <Time>2022-04-23T14:58:12.000Z</Time>
            <Position>
              <LatitudeDegrees>41.7321559600532054901123046875</LatitudeDegrees>
              <LongitudeDegrees>-0.17828308045864105224609375</LongitudeDegrees>
            </Position>
            <AltitudeMeters>256.399993896484375</AltitudeMeters>
            <DistanceMeters>106399.93770402</DistanceMeters>
          </Trackpoint>
          <Trackpoint>
            <Time>2022-04-23T14:58:13.000Z</Time>
            <Position>
              <LatitudeDegrees>41.73219108022749423980712890625</LatitudeDegrees>
              <LongitudeDegrees>-0.17819280736148357391357421875</LongitudeDegrees>
            </Position>
            <AltitudeMeters>256.399993896484375</AltitudeMeters>
            <DistanceMeters>106408.39347987</DistanceMeters>
          </Trackpoint>
          <Trackpoint>
            <Time>2022-04-23T14:58:14.000Z</Time>
            <Position>
              <LatitudeDegrees>41.73222024925053119659423828125</LatitudeDegrees>
              <LongitudeDegrees>-0.178097002208232879638671875</LongitudeDegrees>
            </Position>
            <AltitudeMeters>256.399993896484375</AltitudeMeters>
            <DistanceMeters>106416.98853982</DistanceMeters>
          </Trackpoint>
          <Trackpoint>
            <Time>2022-04-23T14:58:16.000Z</Time>
            <Position>
              <LatitudeDegrees>41.7322605662047863006591796875</LatitudeDegrees>
              <LongitudeDegrees>-0.177893824875354766845703125</LongitudeDegrees>
            </Position>
            <AltitudeMeters>256.399993896484375</AltitudeMeters>
            <DistanceMeters>106434.45123381</DistanceMeters>
          </Trackpoint>
          <Trackpoint>
            <Time>2022-04-23T14:58:17.000Z</Time>
            <Position>
              <LatitudeDegrees>41.7322719655930995941162109375</LatitudeDegrees>
              <LongitudeDegrees>-0.1777910627424716949462890625</LongitudeDegrees>
            </Position>
            <AltitudeMeters>256.399993896484375</AltitudeMeters>
            <DistanceMeters>106443.0803711</DistanceMeters>
          </Trackpoint>
          <Trackpoint>
            <Time>2022-04-23T14:58:24.000Z</Time>
            <Position>
              <LatitudeDegrees>41.7323168925940990447998046875</LatitudeDegrees>
              <LongitudeDegrees>-0.17703560180962085723876953125</LongitudeDegrees>
            </Position>
            <AltitudeMeters>256</AltitudeMeters>
            <DistanceMeters>106506.0283792</DistanceMeters>
          </Trackpoint>
          <Trackpoint>
            <Time>2022-04-23T14:58:30.000Z</Time>
            <Position>
              <LatitudeDegrees>41.73236190341413021087646484375</LatitudeDegrees>
              <LongitudeDegrees>-0.17640494741499423980712890625</LongitudeDegrees>
            </Position>
            <AltitudeMeters>255.600006103515625</AltitudeMeters>
            <DistanceMeters>106558.64984593</DistanceMeters>
          </Trackpoint>
          <Trackpoint>
            <Time>2022-04-23T14:58:32.000Z</Time>
            <Position>
              <LatitudeDegrees>41.7323738895356655120849609375</LatitudeDegrees>
              <LongitudeDegrees>-0.17619456164538860321044921875</LongitudeDegrees>
            </Position>
            <AltitudeMeters>255.399993896484375</AltitudeMeters>
            <DistanceMeters>106576.1755134</DistanceMeters>
          </Trackpoint>
          <Trackpoint>
            <Time>2022-04-23T14:58:36.000Z</Time>
            <Position>
              <LatitudeDegrees>41.7324282042682170867919921875</LatitudeDegrees>
              <LongitudeDegrees>-0.17577026970684528350830078125</LongitudeDegrees>
            </Position>
            <AltitudeMeters>255.1999969482421875</AltitudeMeters>
            <DistanceMeters>106611.93208487</DistanceMeters>
          </Trackpoint>
          <Trackpoint>
            <Time>2022-04-23T14:58:37.000Z</Time>
            <Position>
              <LatitudeDegrees>41.73245745711028575897216796875</LatitudeDegrees>
              <LongitudeDegrees>-0.17566717229783535003662109375</LongitudeDegrees>
            </Position>
            <AltitudeMeters>255</AltitudeMeters>
            <DistanceMeters>106621.09366555</DistanceMeters>
          </Trackpoint>
          <Trackpoint>
            <Time>2022-04-23T14:58:41.000Z</Time>
            <Position>
              <LatitudeDegrees>41.73260078765451908111572265625</LatitudeDegrees>
              <LongitudeDegrees>-0.1752751506865024566650390625</LongitudeDegrees>
            </Position>
            <AltitudeMeters>254.600006103515625</AltitudeMeters>
            <DistanceMeters>106657.35305068</DistanceMeters>
          </Trackpoint>
          <Trackpoint>
            <Time>2022-04-23T14:58:44.000Z</Time>
            <Position>
              <LatitudeDegrees>41.7326845228672027587890625</LatitudeDegrees>
              <LongitudeDegrees>-0.17495890147984027862548828125</LongitudeDegrees>
            </Position>
            <AltitudeMeters>254.1999969482421875</AltitudeMeters>
            <DistanceMeters>106685.22521379</DistanceMeters>
          </Trackpoint>
          <Trackpoint>
            <Time>2022-04-23T14:58:48.000Z</Time>
            <Position>
              <LatitudeDegrees>41.73277462832629680633544921875</LatitudeDegrees>
              <LongitudeDegrees>-0.174528658390045166015625</LongitudeDegrees>
            </Position>
            <AltitudeMeters>254</AltitudeMeters>
            <DistanceMeters>106722.34187477</DistanceMeters>
          </Trackpoint>
          <Trackpoint>
            <Time>2022-04-23T14:58:54.000Z</Time>
            <Position>
              <LatitudeDegrees>41.73288510181009769439697265625</LatitudeDegrees>
              <LongitudeDegrees>-0.1738854311406612396240234375</LongitudeDegrees>
            </Position>
            <AltitudeMeters>253.8000030517578125</AltitudeMeters>
            <DistanceMeters>106777.16495973</DistanceMeters>
          </Trackpoint>
          <Trackpoint>
            <Time>2022-04-23T14:58:56.000Z</Time>
            <Position>
              <LatitudeDegrees>41.7329465411603450775146484375</LatitudeDegrees>
              <LongitudeDegrees>-0.17367328517138957977294921875</LongitudeDegrees>
            </Position>
            <AltitudeMeters>253.8000030517578125</AltitudeMeters>
            <DistanceMeters>106796.06596193</DistanceMeters>
          </Trackpoint>
          <Trackpoint>
            <Time>2022-04-23T14:58:58.000Z</Time>
            <Position>
              <LatitudeDegrees>41.73302943818271160125732421875</LatitudeDegrees>
              <LongitudeDegrees>-0.173479579389095306396484375</LongitudeDegrees>
            </Position>
            <AltitudeMeters>253.600006103515625</AltitudeMeters>
            <DistanceMeters>106814.61248915</DistanceMeters>
          </Trackpoint>
          <Trackpoint>
            <Time>2022-04-23T14:59:00.000Z</Time>
            <Position>
              <LatitudeDegrees>41.73313572071492671966552734375</LatitudeDegrees>
              <LongitudeDegrees>-0.17330163158476352691650390625</LongitudeDegrees>
            </Position>
            <AltitudeMeters>253.399993896484375</AltitudeMeters>
            <DistanceMeters>106833.54356608</DistanceMeters>
          </Trackpoint>
          <Trackpoint>
            <Time>2022-04-23T14:59:01.000Z</Time>
            <Position>
              <LatitudeDegrees>41.73319590277969837188720703125</LatitudeDegrees>
              <LongitudeDegrees>-0.173215381801128387451171875</LongitudeDegrees>
            </Position>
            <AltitudeMeters>253.1999969482421875</AltitudeMeters>
            <DistanceMeters>106843.35113328</DistanceMeters>
          </Trackpoint>
          <Trackpoint>
            <Time>2022-04-23T14:59:05.000Z</Time>
            <Position>
              <LatitudeDegrees>41.733459345996379852294921875</LatitudeDegrees>
              <LongitudeDegrees>-0.17285336740314960479736328125</LongitudeDegrees>
            </Position>
            <AltitudeMeters>252.8000030517578125</AltitudeMeters>
            <DistanceMeters>106885.34971602</DistanceMeters>
          </Trackpoint>
          <Trackpoint>
            <Time>2022-04-23T14:59:09.000Z</Time>
            <Position>
              <LatitudeDegrees>41.7337347753345966339111328125</LatitudeDegrees>
              <LongitudeDegrees>-0.172477774322032928466796875</LongitudeDegrees>
            </Position>
            <AltitudeMeters>252.1999969482421875</AltitudeMeters>
            <DistanceMeters>106929.08750979</DistanceMeters>
          </Trackpoint>
          <Trackpoint>
            <Time>2022-04-23T14:59:10.000Z</Time>
            <Position>
              <LatitudeDegrees>41.733796298503875732421875</LatitudeDegrees>
              <LongitudeDegrees>-0.172383226454257965087890625</LongitudeDegrees>
            </Position>
            <AltitudeMeters>251.600006103515625</AltitudeMeters>
            <DistanceMeters>106939.50713594</DistanceMeters>
          </Trackpoint>
          <Trackpoint>
            <Time>2022-04-23T14:59:12.000Z</Time>
            <Position>
              <LatitudeDegrees>41.73393233679234981536865234375</LatitudeDegrees>
              <LongitudeDegrees>-0.1721976511180400848388671875</LongitudeDegrees>
            </Position>
            <AltitudeMeters>251</AltitudeMeters>
            <DistanceMeters>106961.11396246</DistanceMeters>
          </Trackpoint>
          <Trackpoint>
            <Time>2022-04-23T14:59:15.000Z</Time>
            <Position>
              <LatitudeDegrees>41.73414372839033603668212890625</LatitudeDegrees>
              <LongitudeDegrees>-0.17191811464726924896240234375</LongitudeDegrees>
            </Position>
            <AltitudeMeters>249.8000030517578125</AltitudeMeters>
            <DistanceMeters>106994.1693298</DistanceMeters>
          </Trackpoint>
          <Trackpoint>
            <Time>2022-04-23T14:59:17.000Z</Time>
            <Position>
              <LatitudeDegrees>41.73428378999233245849609375</LatitudeDegrees>
              <LongitudeDegrees>-0.17173002474009990692138671875</LongitudeDegrees>
            </Position>
            <AltitudeMeters>249.399993896484375</AltitudeMeters>
            <DistanceMeters>107016.23927142</DistanceMeters>
          </Trackpoint>
          <Trackpoint>
            <Time>2022-04-23T14:59:19.000Z</Time>
            <Position>
              <LatitudeDegrees>41.73441588878631591796875</LatitudeDegrees>
              <LongitudeDegrees>-0.17154361121356487274169921875</LongitudeDegrees>
            </Position>
            <AltitudeMeters>248.8000030517578125</AltitudeMeters>
            <DistanceMeters>107037.5913322</DistanceMeters>
          </Trackpoint>
          <Trackpoint>
            <Time>2022-04-23T14:59:22.000Z</Time>
            <Position>
              <LatitudeDegrees>41.7346024699509143829345703125</LatitudeDegrees>
              <LongitudeDegrees>-0.1712696067988872528076171875</LongitudeDegrees>
            </Position>
            <AltitudeMeters>247.600006103515625</AltitudeMeters>
            <DistanceMeters>107068.40021818</DistanceMeters>
          </Trackpoint>
          <Trackpoint>
            <Time>2022-04-23T14:59:23.000Z</Time>
            <Position>
              <LatitudeDegrees>41.73465871252119541168212890625</LatitudeDegrees>
              <LongitudeDegrees>-0.17117011360824108123779296875</LongitudeDegrees>
            </Position>
            <AltitudeMeters>247.399993896484375</AltitudeMeters>
            <DistanceMeters>107078.76727996</DistanceMeters>
          </Trackpoint>
          <Trackpoint>
            <Time>2022-04-23T14:59:24.000Z</Time>
            <Position>
              <LatitudeDegrees>41.73470531590282917022705078125</LatitudeDegrees>
              <LongitudeDegrees>-0.17106257379055023193359375</LongitudeDegrees>
            </Position>
            <AltitudeMeters>247</AltitudeMeters>
            <DistanceMeters>107089.09594508</DistanceMeters>
          </Trackpoint>
          <Trackpoint>
            <Time>2022-04-23T14:59:25.000Z</Time>
            <Position>
              <LatitudeDegrees>41.73474370501935482025146484375</LatitudeDegrees>
              <LongitudeDegrees>-0.170950926840305328369140625</LongitudeDegrees>
            </Position>
            <AltitudeMeters>246.8000030517578125</AltitudeMeters>
            <DistanceMeters>107099.30590112</DistanceMeters>
          </Trackpoint>
          <Trackpoint>
            <Time>2022-04-23T14:59:26.000Z</Time>
            <Position>
              <LatitudeDegrees>41.7347739636898040771484375</LatitudeDegrees>
              <LongitudeDegrees>-0.17083399929106235504150390625</LongitudeDegrees>
            </Position>
            <AltitudeMeters>246.600006103515625</AltitudeMeters>
            <DistanceMeters>107109.58549034</DistanceMeters>
          </Trackpoint>
          <Trackpoint>
            <Time>2022-04-23T14:59:28.000Z</Time>
            <Position>
              <LatitudeDegrees>41.73481998033821582794189453125</LatitudeDegrees>
              <LongitudeDegrees>-0.17059159465134143829345703125</LongitudeDegrees>
            </Position>
            <AltitudeMeters>246.1999969482421875</AltitudeMeters>
            <DistanceMeters>107130.36007755</DistanceMeters>
          </Trackpoint>
          <Trackpoint>
            <Time>2022-04-23T14:59:34.000Z</Time>
            <Position>
              <LatitudeDegrees>41.73493414185941219329833984375</LatitudeDegrees>
              <LongitudeDegrees>-0.16985021531581878662109375</LongitudeDegrees>
            </Position>
            <AltitudeMeters>245.8000030517578125</AltitudeMeters>
            <DistanceMeters>107193.23430761</DistanceMeters>
          </Trackpoint>
          <Trackpoint>
            <Time>2022-04-23T14:59:35.000Z</Time>
            <Position>
              <LatitudeDegrees>41.73494671471416950225830078125</LatitudeDegrees>
              <LongitudeDegrees>-0.169725157320499420166015625</LongitudeDegrees>
            </Position>
            <AltitudeMeters>245.8000030517578125</AltitudeMeters>
            <DistanceMeters>107203.71485386</DistanceMeters>
          </Trackpoint>
          <Trackpoint>
            <Time>2022-04-23T14:59:37.000Z</Time>
            <Position>
              <LatitudeDegrees>41.73497471027076244354248046875</LatitudeDegrees>
              <LongitudeDegrees>-0.16947730444371700286865234375</LongitudeDegrees>
            </Position>
            <AltitudeMeters>245.399993896484375</AltitudeMeters>
            <DistanceMeters>107224.53524819</DistanceMeters>
          </Trackpoint>
          <Trackpoint>
            <Time>2022-04-23T14:59:41.000Z</Time>
            <Position>
              <LatitudeDegrees>41.73503673635423183441162109375</LatitudeDegrees>
              <LongitudeDegrees>-0.1689853705465793609619140625</LongitudeDegrees>
            </Position>
            <AltitudeMeters>245</AltitudeMeters>
            <DistanceMeters>107265.97299784</DistanceMeters>
          </Trackpoint>
          <Trackpoint>
            <Time>2022-04-23T14:59:46.000Z</Time>
            <Position>
              <LatitudeDegrees>41.73511384986340999603271484375</LatitudeDegrees>
              <LongitudeDegrees>-0.1683577336370944976806640625</LongitudeDegrees>
            </Position>
            <AltitudeMeters>244.8000030517578125</AltitudeMeters>
            <DistanceMeters>107318.80451815</DistanceMeters>
          </Trackpoint>
          <Trackpoint>
            <Time>2022-04-23T14:59:48.000Z</Time>
            <Position>
              <LatitudeDegrees>41.73515290953218936920166015625</LatitudeDegrees>
              <LongitudeDegrees>-0.1681022532284259796142578125</LongitudeDegrees>
            </Position>
            <AltitudeMeters>244.399993896484375</AltitudeMeters>
            <DistanceMeters>107340.46477327</DistanceMeters>
          </Trackpoint>
          <Trackpoint>
            <Time>2022-04-23T14:59:50.000Z</Time>
            <Position>
              <LatitudeDegrees>41.73519750125706195831298828125</LatitudeDegrees>
              <LongitudeDegrees>-0.1678491197526454925537109375</LongitudeDegrees>
            </Position>
            <AltitudeMeters>244.1999969482421875</AltitudeMeters>
            <DistanceMeters>107362.0672111</DistanceMeters>
          </Trackpoint>
          <Trackpoint>
            <Time>2022-04-23T14:59:55.000Z</Time>
            <Position>
              <LatitudeDegrees>41.73528291285037994384765625</LatitudeDegrees>
              <LongitudeDegrees>-0.16722961328923702239990234375</LongitudeDegrees>
            </Position>
            <AltitudeMeters>243.399993896484375</AltitudeMeters>
            <DistanceMeters>107414.39234061</DistanceMeters>
          </Trackpoint>
          <Trackpoint>
            <Time>2022-04-23T14:59:58.000Z</Time>
            <Position>
              <LatitudeDegrees>41.73531375825405120849609375</LatitudeDegrees>
              <LongitudeDegrees>-0.1668588817119598388671875</LongitudeDegrees>
            </Position>
            <AltitudeMeters>243</AltitudeMeters>
            <DistanceMeters>107445.37483867</DistanceMeters>
          </Trackpoint>
          <Trackpoint>
            <Time>2022-04-23T15:00:01.000Z</Time>
            <Position>
              <LatitudeDegrees>41.73532188870012760162353515625</LatitudeDegrees>
              <LongitudeDegrees>-0.16647540964186191558837890625</LongitudeDegrees>
            </Position>
            <AltitudeMeters>242.399993896484375</AltitudeMeters>
            <DistanceMeters>107477.23756665</DistanceMeters>
          </Trackpoint>
          <Trackpoint>
            <Time>2022-04-23T15:00:05.000Z</Time>
            <Position>
              <LatitudeDegrees>41.73530638217926025390625</LatitudeDegrees>
              <LongitudeDegrees>-0.1659564860165119171142578125</LongitudeDegrees>
            </Position>
            <AltitudeMeters>241.8000030517578125</AltitudeMeters>
            <DistanceMeters>107520.37215916</DistanceMeters>
          </Trackpoint>
          <Trackpoint>
            <Time>2022-04-23T15:00:08.000Z</Time>
            <Position>
              <LatitudeDegrees>41.73527419567108154296875</LatitudeDegrees>
              <LongitudeDegrees>-0.16559044830501079559326171875</LongitudeDegrees>
            </Position>
            <AltitudeMeters>241.1999969482421875</AltitudeMeters>
            <DistanceMeters>107550.98433342</DistanceMeters>
          </Trackpoint>
          <Trackpoint>
            <Time>2022-04-23T15:00:09.000Z</Time>
            <Position>
              <LatitudeDegrees>41.73525533638894557952880859375</LatitudeDegrees>
              <LongitudeDegrees>-0.16543555073440074920654296875</LongitudeDegrees>
            </Position>
            <AltitudeMeters>240.600006103515625</AltitudeMeters>
            <DistanceMeters>107564.01997604</DistanceMeters>
          </Trackpoint>
          <Trackpoint>
            <Time>2022-04-23T15:00:14.000Z</Time>
            <Position>
              <LatitudeDegrees>41.73519196920096874237060546875</LatitudeDegrees>
              <LongitudeDegrees>-0.1648111827671527862548828125</LongitudeDegrees>
            </Position>
            <AltitudeMeters>239.600006103515625</AltitudeMeters>
            <DistanceMeters>107616.3554591</DistanceMeters>
          </Trackpoint>
          <Trackpoint>
            <Time>2022-04-23T15:00:15.000Z</Time>
            <Position>
              <LatitudeDegrees>41.7351778037846088409423828125</LatitudeDegrees>
              <LongitudeDegrees>-0.1646898128092288970947265625</LongitudeDegrees>
            </Position>
            <AltitudeMeters>239.399993896484375</AltitudeMeters>
            <DistanceMeters>107626.5592222</DistanceMeters>
          </Trackpoint>
          <Trackpoint>
            <Time>2022-04-23T15:00:22.000Z</Time>
            <Position>
              <LatitudeDegrees>41.73509323038160800933837890625</LatitudeDegrees>
              <LongitudeDegrees>-0.16384919174015522003173828125</LongitudeDegrees>
            </Position>
            <AltitudeMeters>238.600006103515625</AltitudeMeters>
            <DistanceMeters>107697.01036454</DistanceMeters>
          </Trackpoint>
          <Trackpoint>
            <Time>2022-04-23T15:00:23.000Z</Time>
            <Position>
              <LatitudeDegrees>41.73508174717426300048828125</LatitudeDegrees>
              <LongitudeDegrees>-0.16372941434383392333984375</LongitudeDegrees>
            </Position>
            <AltitudeMeters>238.399993896484375</AltitudeMeters>
            <DistanceMeters>107707.04097329</DistanceMeters>
          </Trackpoint>
          <Trackpoint>
            <Time>2022-04-23T15:00:29.000Z</Time>
            <Position>
              <LatitudeDegrees>41.73502215184271335601806640625</LatitudeDegrees>
              <LongitudeDegrees>-0.16304410994052886962890625</LongitudeDegrees>
            </Position>
            <AltitudeMeters>238</AltitudeMeters>
            <DistanceMeters>107764.34547013</DistanceMeters>
          </Trackpoint>
          <Trackpoint>
            <Time>2022-04-23T15:00:33.000Z</Time>
            <Position>
              <LatitudeDegrees>41.73497856594622135162353515625</LatitudeDegrees>
              <LongitudeDegrees>-0.1626236736774444580078125</LongitudeDegrees>
            </Position>
            <AltitudeMeters>237.8000030517578125</AltitudeMeters>
            <DistanceMeters>107799.6010215</DistanceMeters>
          </Trackpoint>
          <Trackpoint>
            <Time>2022-04-23T15:00:34.000Z</Time>
            <Position>
              <LatitudeDegrees>41.73496163450181484222412109375</LatitudeDegrees>
              <LongitudeDegrees>-0.1625271141529083251953125</LongitudeDegrees>
            </Position>
            <AltitudeMeters>237.8000030517578125</AltitudeMeters>
            <DistanceMeters>107807.83934988</DistanceMeters>
          </Trackpoint>
          <Trackpoint>
            <Time>2022-04-23T15:00:37.000Z</Time>
            <Position>
              <LatitudeDegrees>41.7349080741405487060546875</LatitudeDegrees>
              <LongitudeDegrees>-0.16228144057095050811767578125</LongitudeDegrees>
            </Position>
            <AltitudeMeters>238.1999969482421875</AltitudeMeters>
            <DistanceMeters>107829.09731652</DistanceMeters>
          </Trackpoint>
          <Trackpoint>
            <Time>2022-04-23T15:00:40.000Z</Time>
            <Position>
              <LatitudeDegrees>41.73485350795090198516845703125</LatitudeDegrees>
              <LongitudeDegrees>-0.1619998924434185028076171875</LongitudeDegrees>
            </Position>
            <AltitudeMeters>239.600006103515625</AltitudeMeters>
            <DistanceMeters>107853.25803385</DistanceMeters>
          </Trackpoint>
          <Trackpoint>
            <Time>2022-04-23T15:00:48.000Z</Time>
            <Position>
              <LatitudeDegrees>41.73470581881701946258544921875</LatitudeDegrees>
              <LongitudeDegrees>-0.161267817020416259765625</LongitudeDegrees>
            </Position>
            <AltitudeMeters>240.399993896484375</AltitudeMeters>
            <DistanceMeters>107916.24512074</DistanceMeters>
          </Trackpoint>
          <Trackpoint>
            <Time>2022-04-23T15:00:51.000Z</Time>
            <Position>
              <LatitudeDegrees>41.73465318046510219573974609375</LatitudeDegrees>
              <LongitudeDegrees>-0.16099481843411922454833984375</LongitudeDegrees>
            </Position>
            <AltitudeMeters>240.399993896484375</AltitudeMeters>
            <DistanceMeters>107939.66453113</DistanceMeters>
          </Trackpoint>
          <Trackpoint>
            <Time>2022-04-23T15:00:59.000Z</Time>
            <Position>
              <LatitudeDegrees>41.7345166392624378204345703125</LatitudeDegrees>
              <LongitudeDegrees>-0.16024849377572536468505859375</LongitudeDegrees>
            </Position>
            <AltitudeMeters>240.600006103515625</AltitudeMeters>
            <DistanceMeters>108003.48825309</DistanceMeters>
          </Trackpoint>
          <Trackpoint>
            <Time>2022-04-23T15:01:03.000Z</Time>
            <Position>
              <LatitudeDegrees>41.73445771448314189910888671875</LatitudeDegrees>
              <LongitudeDegrees>-0.15995764173567295074462890625</LongitudeDegrees>
            </Position>
            <AltitudeMeters>241</AltitudeMeters>
            <DistanceMeters>108028.5201728</DistanceMeters>
          </Trackpoint>
          <Trackpoint>
            <Time>2022-04-23T15:01:04.000Z</Time>
            <Position>
              <LatitudeDegrees>41.73444447107613086700439453125</LatitudeDegrees>
              <LongitudeDegrees>-0.15989477746188640594482421875</LongitudeDegrees>
            </Position>
            <AltitudeMeters>241.1999969482421875</AltitudeMeters>
            <DistanceMeters>108033.94502479</DistanceMeters>
          </Trackpoint>
          <Trackpoint>
            <Time>2022-04-23T15:01:06.000Z</Time>
            <Position>
              <LatitudeDegrees>41.7344184033572673797607421875</LatitudeDegrees>
              <LongitudeDegrees>-0.1597739942371845245361328125</LongitudeDegrees>
            </Position>
            <AltitudeMeters>241.600006103515625</AltitudeMeters>
            <DistanceMeters>108044.38759168</DistanceMeters>
          </Trackpoint>
          <Trackpoint>
            <Time>2022-04-23T15:01:09.000Z</Time>
            <Position>
              <LatitudeDegrees>41.73438169062137603759765625</LatitudeDegrees>
              <LongitudeDegrees>-0.159588754177093505859375</LongitudeDegrees>
            </Position>
            <AltitudeMeters>242</AltitudeMeters>
            <DistanceMeters>108060.3061973</DistanceMeters>
          </Trackpoint>
          <Trackpoint>
            <Time>2022-04-23T15:01:10.000Z</Time>
            <Position>
              <LatitudeDegrees>41.7343640886247158050537109375</LatitudeDegrees>
              <LongitudeDegrees>-0.15952664427459239959716796875</LongitudeDegrees>
            </Position>
            <AltitudeMeters>242.1999969482421875</AltitudeMeters>
            <DistanceMeters>108065.82429641</DistanceMeters>
          </Trackpoint>
          <Trackpoint>
            <Time>2022-04-23T15:01:12.000Z</Time>
            <Position>
              <LatitudeDegrees>41.73433634452521800994873046875</LatitudeDegrees>
              <LongitudeDegrees>-0.15940041281282901763916015625</LongitudeDegrees>
            </Position>
            <AltitudeMeters>242.8000030517578125</AltitudeMeters>
            <DistanceMeters>108076.75443417</DistanceMeters>
          </Trackpoint>
          <Trackpoint>
            <Time>2022-04-23T15:01:14.000Z</Time>
            <Position>
              <LatitudeDegrees>41.7343124561011791229248046875</LatitudeDegrees>
              <LongitudeDegrees>-0.1592871733009815216064453125</LongitudeDegrees>
            </Position>
            <AltitudeMeters>243.399993896484375</AltitudeMeters>
            <DistanceMeters>108086.52879905</DistanceMeters>
          </Trackpoint>
          <Trackpoint>
            <Time>2022-04-23T15:01:15.000Z</Time>
            <Position>
              <LatitudeDegrees>41.73430658876895904541015625</LatitudeDegrees>
              <LongitudeDegrees>-0.15922472812235355377197265625</LongitudeDegrees>
            </Position>
            <AltitudeMeters>243.8000030517578125</AltitudeMeters>
            <DistanceMeters>108091.75613214</DistanceMeters>
          </Trackpoint>
          <Trackpoint>
            <Time>2022-04-23T15:01:20.000Z</Time>
            <Position>
              <LatitudeDegrees>41.7342702113091945648193359375</LatitudeDegrees>
              <LongitudeDegrees>-0.15890906564891338348388671875</LongitudeDegrees>
            </Position>
            <AltitudeMeters>244.8000030517578125</AltitudeMeters>
            <DistanceMeters>108118.28526948</DistanceMeters>
          </Trackpoint>
          <Trackpoint>
            <Time>2022-04-23T15:01:22.000Z</Time>
            <Position>
              <LatitudeDegrees>41.73426090739667415618896484375</LatitudeDegrees>
              <LongitudeDegrees>-0.1587839238345623016357421875</LongitudeDegrees>
            </Position>
            <AltitudeMeters>245</AltitudeMeters>
            <DistanceMeters>108128.73043026</DistanceMeters>
          </Trackpoint>
          <Trackpoint>
            <Time>2022-04-23T15:01:26.000Z</Time>
            <Position>
              <LatitudeDegrees>41.7342531122267246246337890625</LatitudeDegrees>
              <LongitudeDegrees>-0.1585224084556102752685546875</LongitudeDegrees>
            </Position>
            <AltitudeMeters>246</AltitudeMeters>
            <DistanceMeters>108150.46850516</DistanceMeters>
          </Trackpoint>
          <Trackpoint>
            <Time>2022-04-23T15:01:29.000Z</Time>
            <Position>
              <LatitudeDegrees>41.734242551028728485107421875</LatitudeDegrees>
              <LongitudeDegrees>-0.15833079814910888671875</LongitudeDegrees>
            </Position>
            <AltitudeMeters>246.8000030517578125</AltitudeMeters>
            <DistanceMeters>108166.42676997</DistanceMeters>
          </Trackpoint>
          <Trackpoint>
            <Time>2022-04-23T15:01:30.000Z</Time>
            <Position>
              <LatitudeDegrees>41.734241209924221038818359375</LatitudeDegrees>
              <LongitudeDegrees>-0.158269442617893218994140625</LongitudeDegrees>
            </Position>
            <AltitudeMeters>247</AltitudeMeters>
            <DistanceMeters>108171.52466758</DistanceMeters>
          </Trackpoint>
          <Trackpoint>
            <Time>2022-04-23T15:01:33.000Z</Time>
            <Position>
              <LatitudeDegrees>41.73424129374325275421142578125</LatitudeDegrees>
              <LongitudeDegrees>-0.158086381852626800537109375</LongitudeDegrees>
            </Position>
            <AltitudeMeters>247.399993896484375</AltitudeMeters>
            <DistanceMeters>108186.72923883</DistanceMeters>
          </Trackpoint>
          <Trackpoint>
            <Time>2022-04-23T15:01:36.000Z</Time>
            <Position>
              <LatitudeDegrees>41.73423911444842815399169921875</LatitudeDegrees>
              <LongitudeDegrees>-0.15790424309670925140380859375</LongitudeDegrees>
            </Position>
            <AltitudeMeters>248.1999969482421875</AltitudeMeters>
            <DistanceMeters>108201.85909137</DistanceMeters>
          </Trackpoint>
          <Trackpoint>
            <Time>2022-04-23T15:01:42.000Z</Time>
            <Position>
              <LatitudeDegrees>41.73424900509417057037353515625</LatitudeDegrees>
              <LongitudeDegrees>-0.15754180960357189178466796875</LongitudeDegrees>
            </Position>
            <AltitudeMeters>249.600006103515625</AltitudeMeters>
            <DistanceMeters>108231.98226006</DistanceMeters>
          </Trackpoint>
          <Trackpoint>
            <Time>2022-04-23T15:01:44.000Z</Time>
            <Position>
              <LatitudeDegrees>41.73425160348415374755859375</LatitudeDegrees>
              <LongitudeDegrees>-0.15741524286568164825439453125</LongitudeDegrees>
            </Position>
            <AltitudeMeters>250.600006103515625</AltitudeMeters>
            <DistanceMeters>108242.49850208</DistanceMeters>
          </Trackpoint>
          <Trackpoint>
            <Time>2022-04-23T15:01:45.000Z</Time>
            <Position>
              <LatitudeDegrees>41.73425286076962947845458984375</LatitudeDegrees>
              <LongitudeDegrees>-0.157355479896068572998046875</LongitudeDegrees>
            </Position>
            <AltitudeMeters>250.8000030517578125</AltitudeMeters>
            <DistanceMeters>108247.46450034</DistanceMeters>
          </Trackpoint>
          <Trackpoint>
            <Time>2022-04-23T15:01:49.000Z</Time>
            <Position>
              <LatitudeDegrees>41.73426006920635700225830078125</LatitudeDegrees>
              <LongitudeDegrees>-0.15712087042629718780517578125</LongitudeDegrees>
            </Position>
            <AltitudeMeters>251.600006103515625</AltitudeMeters>
            <DistanceMeters>108266.96721425</DistanceMeters>
          </Trackpoint>
          <Trackpoint>
            <Time>2022-04-23T15:01:50.000Z</Time>
            <Position>
              <LatitudeDegrees>41.73425671644508838653564453125</LatitudeDegrees>
              <LongitudeDegrees>-0.1570612750947475433349609375</LongitudeDegrees>
            </Position>
            <AltitudeMeters>252</AltitudeMeters>
            <DistanceMeters>108271.9304842</DistanceMeters>
          </Trackpoint>
          <Trackpoint>
            <Time>2022-04-23T15:01:51.000Z</Time>
            <Position>
              <LatitudeDegrees>41.73425319604575634002685546875</LatitudeDegrees>
              <LongitudeDegrees>-0.157002769410610198974609375</LongitudeDegrees>
            </Position>
            <AltitudeMeters>252.1999969482421875</AltitudeMeters>
            <DistanceMeters>108276.80564175</DistanceMeters>
          </Trackpoint>
          <Trackpoint>
            <Time>2022-04-23T15:01:53.000Z</Time>
            <Position>
              <LatitudeDegrees>41.7342482507228851318359375</LatitudeDegrees>
              <LongitudeDegrees>-0.156887434422969818115234375</LongitudeDegrees>
            </Position>
            <AltitudeMeters>252.8000030517578125</AltitudeMeters>
            <DistanceMeters>108286.40098747</DistanceMeters>
          </Trackpoint>
          <Trackpoint>
            <Time>2022-04-23T15:01:55.000Z</Time>
            <Position>
              <LatitudeDegrees>41.734246909618377685546875</LatitudeDegrees>
              <LongitudeDegrees>-0.15677318908274173736572265625</LongitudeDegrees>
            </Position>
            <AltitudeMeters>253.1999969482421875</AltitudeMeters>
            <DistanceMeters>108295.89129739</DistanceMeters>
          </Trackpoint>
          <Trackpoint>
            <Time>2022-04-23T15:01:57.000Z</Time>
            <Position>
              <LatitudeDegrees>41.7342400364577770233154296875</LatitudeDegrees>
              <LongitudeDegrees>-0.15666439197957515716552734375</LongitudeDegrees>
            </Position>
            <AltitudeMeters>254.1999969482421875</AltitudeMeters>
            <DistanceMeters>108304.96025192</DistanceMeters>
          </Trackpoint>
          <Trackpoint>
            <Time>2022-04-23T15:01:58.000Z</Time>
            <Position>
              <LatitudeDegrees>41.73424263484776020050048828125</LatitudeDegrees>
              <LongitudeDegrees>-0.156612507998943328857421875</LongitudeDegrees>
            </Position>
            <AltitudeMeters>254.600006103515625</AltitudeMeters>
            <DistanceMeters>108309.28057228</DistanceMeters>
          </Trackpoint>
          <Trackpoint>
            <Time>2022-04-23T15:01:59.000Z</Time>
            <Position>
              <LatitudeDegrees>41.73424623906612396240234375</LatitudeDegrees>
              <LongitudeDegrees>-0.1565590314567089080810546875</LongitudeDegrees>
            </Position>
            <AltitudeMeters>254.600006103515625</AltitudeMeters>
            <DistanceMeters>108313.74177038</DistanceMeters>
          </Trackpoint>
          <Trackpoint>
            <Time>2022-04-23T15:02:02.000Z</Time>
            <Position>
              <LatitudeDegrees>41.73423877917230129241943359375</LatitudeDegrees>
              <LongitudeDegrees>-0.15637437812983989715576171875</LongitudeDegrees>
            </Position>
            <AltitudeMeters>255.1999969482421875</AltitudeMeters>
            <DistanceMeters>108329.10145062</DistanceMeters>
          </Trackpoint>
          <Trackpoint>
            <Time>2022-04-23T15:02:05.000Z</Time>
            <Position>
              <LatitudeDegrees>41.73423995263874530792236328125</LatitudeDegrees>
              <LongitudeDegrees>-0.1561714522540569305419921875</LongitudeDegrees>
            </Position>
            <AltitudeMeters>255.600006103515625</AltitudeMeters>
            <DistanceMeters>108345.95657551</DistanceMeters>
          </Trackpoint>
          <Trackpoint>
            <Time>2022-04-23T15:02:09.000Z</Time>
            <Position>
              <LatitudeDegrees>41.73424246720969676971435546875</LatitudeDegrees>
              <LongitudeDegrees>-0.1558861322700977325439453125</LongitudeDegrees>
            </Position>
            <AltitudeMeters>255.8000030517578125</AltitudeMeters>
            <DistanceMeters>108369.65636</DistanceMeters>
          </Trackpoint>
          <Trackpoint>
            <Time>2022-04-23T15:02:17.000Z</Time>
            <Position>
              <LatitudeDegrees>41.73424355685710906982421875</LatitudeDegrees>
              <LongitudeDegrees>-0.15531138516962528228759765625</LongitudeDegrees>
            </Position>
            <AltitudeMeters>256</AltitudeMeters>
            <DistanceMeters>108417.39383178</DistanceMeters>
          </Trackpoint>
          <Trackpoint>
            <Time>2022-04-23T15:02:22.000Z</Time>
            <Position>
              <LatitudeDegrees>41.73423525877296924591064453125</LatitudeDegrees>
              <LongitudeDegrees>-0.154943168163299560546875</LongitudeDegrees>
            </Position>
            <AltitudeMeters>256.20001220703125</AltitudeMeters>
            <DistanceMeters>108447.99125333</DistanceMeters>
          </Trackpoint>
          <Trackpoint>
            <Time>2022-04-23T15:02:23.000Z</Time>
            <Position>
              <LatitudeDegrees>41.73424087464809417724609375</LatitudeDegrees>
              <LongitudeDegrees>-0.1548652164638042449951171875</LongitudeDegrees>
            </Position>
            <AltitudeMeters>256.20001220703125</AltitudeMeters>
            <DistanceMeters>108454.49624666</DistanceMeters>
          </Trackpoint>
          <Trackpoint>
            <Time>2022-04-23T15:02:24.000Z</Time>
            <Position>
              <LatitudeDegrees>41.7342534475028514862060546875</LatitudeDegrees>
              <LongitudeDegrees>-0.1547881029546260833740234375</LongitudeDegrees>
            </Position>
            <AltitudeMeters>256.20001220703125</AltitudeMeters>
            <DistanceMeters>108461.05240131</DistanceMeters>
          </Trackpoint>
          <Trackpoint>
            <Time>2022-04-23T15:02:27.000Z</Time>
            <Position>
              <LatitudeDegrees>41.73431907780468463897705078125</LatitudeDegrees>
              <LongitudeDegrees>-0.1545560918748378753662109375</LongitudeDegrees>
            </Position>
            <AltitudeMeters>256.20001220703125</AltitudeMeters>
            <DistanceMeters>108481.66071409</DistanceMeters>
          </Trackpoint>
          <Trackpoint>
            <Time>2022-04-23T15:02:29.000Z</Time>
            <Position>
              <LatitudeDegrees>41.73436559736728668212890625</LatitudeDegrees>
              <LongitudeDegrees>-0.1543938182294368743896484375</LongitudeDegrees>
            </Position>
            <AltitudeMeters>256.20001220703125</AltitudeMeters>
            <DistanceMeters>108496.09914699</DistanceMeters>
          </Trackpoint>
          <Trackpoint>
            <Time>2022-04-23T15:02:30.000Z</Time>
            <Position>
              <LatitudeDegrees>41.7343798466026782989501953125</LatitudeDegrees>
              <LongitudeDegrees>-0.15431083738803863525390625</LongitudeDegrees>
            </Position>
            <AltitudeMeters>256.20001220703125</AltitudeMeters>
            <DistanceMeters>108503.1708203</DistanceMeters>
          </Trackpoint>
          <Trackpoint>
            <Time>2022-04-23T15:02:34.000Z</Time>
            <Position>
              <LatitudeDegrees>41.7344083450734615325927734375</LatitudeDegrees>
              <LongitudeDegrees>-0.153982602059841156005859375</LongitudeDegrees>
            </Position>
            <AltitudeMeters>255.600006103515625</AltitudeMeters>
            <DistanceMeters>108530.61742423</DistanceMeters>
          </Trackpoint>
          <Trackpoint>
            <Time>2022-04-23T15:02:37.000Z</Time>
            <Position>
              <LatitudeDegrees>41.73441521823406219482421875</LatitudeDegrees>
              <LongitudeDegrees>-0.1537450589239597320556640625</LongitudeDegrees>
            </Position>
            <AltitudeMeters>255.600006103515625</AltitudeMeters>
            <DistanceMeters>108550.36218278</DistanceMeters>
          </Trackpoint>
          <Trackpoint>
            <Time>2022-04-23T15:02:42.000Z</Time>
            <Position>
              <LatitudeDegrees>41.73442552797496318817138671875</LatitudeDegrees>
              <LongitudeDegrees>-0.15340131707489490509033203125</LongitudeDegrees>
            </Position>
            <AltitudeMeters>256</AltitudeMeters>
            <DistanceMeters>108578.93569029</DistanceMeters>
          </Trackpoint>
          <Trackpoint>
            <Time>2022-04-23T15:02:43.000Z</Time>
            <Position>
              <LatitudeDegrees>41.73441790044307708740234375</LatitudeDegrees>
              <LongitudeDegrees>-0.153341554105281829833984375</LongitudeDegrees>
            </Position>
            <AltitudeMeters>256.20001220703125</AltitudeMeters>
            <DistanceMeters>108583.97210615</DistanceMeters>
          </Trackpoint>
          <Trackpoint>
            <Time>2022-04-23T15:02:44.000Z</Time>
            <Position>
              <LatitudeDegrees>41.73439904116094112396240234375</LatitudeDegrees>
              <LongitudeDegrees>-0.1532914303243160247802734375</LongitudeDegrees>
            </Position>
            <AltitudeMeters>256.399993896484375</AltitudeMeters>
            <DistanceMeters>108588.63519784</DistanceMeters>
          </Trackpoint>
          <Trackpoint>
            <Time>2022-04-23T15:02:46.000Z</Time>
            <Position>
              <LatitudeDegrees>41.73433148302137851715087890625</LatitudeDegrees>
              <LongitudeDegrees>-0.1532351039350032806396484375</LongitudeDegrees>
            </Position>
            <AltitudeMeters>256.600006103515625</AltitudeMeters>
            <DistanceMeters>108597.49105545</DistanceMeters>
          </Trackpoint>
          <Trackpoint>
            <Time>2022-04-23T15:02:49.000Z</Time>
            <Position>
              <LatitudeDegrees>41.73421380110085010528564453125</LatitudeDegrees>
              <LongitudeDegrees>-0.1531915180385112762451171875</LongitudeDegrees>
            </Position>
            <AltitudeMeters>258.20001220703125</AltitudeMeters>
            <DistanceMeters>108611.08020786</DistanceMeters>
          </Trackpoint>
          <Trackpoint>
            <Time>2022-04-23T15:02:50.000Z</Time>
            <Position>
              <LatitudeDegrees>41.73416669480502605438232421875</LatitudeDegrees>
              <LongitudeDegrees>-0.1531841419637203216552734375</LongitudeDegrees>
            </Position>
            <AltitudeMeters>258.399993896484375</AltitudeMeters>
            <DistanceMeters>108616.35911077</DistanceMeters>
          </Trackpoint>
          <Trackpoint>
            <Time>2022-04-23T15:02:52.000Z</Time>
            <Position>
              <LatitudeDegrees>41.73407130874693393707275390625</LatitudeDegrees>
              <LongitudeDegrees>-0.1531680487096309661865234375</LongitudeDegrees>
            </Position>
            <AltitudeMeters>259.20001220703125</AltitudeMeters>
            <DistanceMeters>108627.05964203</DistanceMeters>
          </Trackpoint>
          <Trackpoint>
            <Time>2022-04-23T15:02:54.000Z</Time>
            <Position>
              <LatitudeDegrees>41.73397625796496868133544921875</LatitudeDegrees>
              <LongitudeDegrees>-0.1531697250902652740478515625</LongitudeDegrees>
            </Position>
            <AltitudeMeters>260.20001220703125</AltitudeMeters>
            <DistanceMeters>108637.64008898</DistanceMeters>
          </Trackpoint>
          <Trackpoint>
            <Time>2022-04-23T15:02:56.000Z</Time>
            <Position>
              <LatitudeDegrees>41.73387601040303707122802734375</LatitudeDegrees>
              <LongitudeDegrees>-0.1531781069934368133544921875</LongitudeDegrees>
            </Position>
            <AltitudeMeters>260.79998779296875</AltitudeMeters>
            <DistanceMeters>108648.81936704</DistanceMeters>
          </Trackpoint>
          <Trackpoint>
            <Time>2022-04-23T15:03:00.000Z</Time>
            <Position>
              <LatitudeDegrees>41.73367635346949100494384765625</LatitudeDegrees>
              <LongitudeDegrees>-0.1531888358294963836669921875</LongitudeDegrees>
            </Position>
            <AltitudeMeters>261.20001220703125</AltitudeMeters>
            <DistanceMeters>108671.05947579</DistanceMeters>
          </Trackpoint>
          <Trackpoint>
            <Time>2022-04-23T15:03:02.000Z</Time>
            <Position>
              <LatitudeDegrees>41.73359102569520473480224609375</LatitudeDegrees>
              <LongitudeDegrees>-0.1531667076051235198974609375</LongitudeDegrees>
            </Position>
            <AltitudeMeters>261.399993896484375</AltitudeMeters>
            <DistanceMeters>108680.73261655</DistanceMeters>
          </Trackpoint>
          <Trackpoint>
            <Time>2022-04-23T15:03:07.000Z</Time>
            <Position>
              <LatitudeDegrees>41.73337376676499843597412109375</LatitudeDegrees>
              <LongitudeDegrees>-0.15309923328459262847900390625</LongitudeDegrees>
            </Position>
            <AltitudeMeters>262.399993896484375</AltitudeMeters>
            <DistanceMeters>108705.5549695</DistanceMeters>
          </Trackpoint>
          <Trackpoint>
            <Time>2022-04-23T15:03:10.000Z</Time>
            <Position>
              <LatitudeDegrees>41.73323093913495540618896484375</LatitudeDegrees>
              <LongitudeDegrees>-0.15304910950362682342529296875</LongitudeDegrees>
            </Position>
            <AltitudeMeters>262.600006103515625</AltitudeMeters>
            <DistanceMeters>108721.98827307</DistanceMeters>
          </Trackpoint>
          <Trackpoint>
            <Time>2022-04-23T15:03:15.000Z</Time>
            <Position>
              <LatitudeDegrees>41.73298752866685390472412109375</LatitudeDegrees>
              <LongitudeDegrees>-0.1529856584966182708740234375</LongitudeDegrees>
            </Position>
            <AltitudeMeters>262.600006103515625</AltitudeMeters>
            <DistanceMeters>108749.58825837</DistanceMeters>
          </Trackpoint>
          <Trackpoint>
            <Time>2022-04-23T15:03:17.000Z</Time>
            <Position>
              <LatitudeDegrees>41.73288510181009769439697265625</LatitudeDegrees>
              <LongitudeDegrees>-0.15297601930797100067138671875</LongitudeDegrees>
            </Position>
            <AltitudeMeters>262.600006103515625</AltitudeMeters>
            <DistanceMeters>108761.01677646</DistanceMeters>
          </Trackpoint>
          <Trackpoint>
            <Time>2022-04-23T15:03:19.000Z</Time>
            <Position>
              <LatitudeDegrees>41.73278183676302433013916015625</LatitudeDegrees>
              <LongitudeDegrees>-0.15291986055672168731689453125</LongitudeDegrees>
            </Position>
            <AltitudeMeters>262.600006103515625</AltitudeMeters>
            <DistanceMeters>108773.42131202</DistanceMeters>
          </Trackpoint>
          <Trackpoint>
            <Time>2022-04-23T15:03:20.000Z</Time>
            <Position>
              <LatitudeDegrees>41.73274026252329349517822265625</LatitudeDegrees>
              <LongitudeDegrees>-0.1528703235089778900146484375</LongitudeDegrees>
            </Position>
            <AltitudeMeters>262.600006103515625</AltitudeMeters>
            <DistanceMeters>108779.6133799</DistanceMeters>
          </Trackpoint>
          <Trackpoint>
            <Time>2022-04-23T15:03:21.000Z</Time>
            <Position>
              <LatitudeDegrees>41.73270623199641704559326171875</LatitudeDegrees>
              <LongitudeDegrees>-0.15281089581549167633056640625</LongitudeDegrees>
            </Position>
            <AltitudeMeters>262.399993896484375</AltitudeMeters>
            <DistanceMeters>108785.834546</DistanceMeters>
          </Trackpoint>
          <Trackpoint>
            <Time>2022-04-23T15:03:24.000Z</Time>
            <Position>
              <LatitudeDegrees>41.73263230361044406890869140625</LatitudeDegrees>
              <LongitudeDegrees>-0.152600593864917755126953125</LongitudeDegrees>
            </Position>
            <AltitudeMeters>262.20001220703125</AltitudeMeters>
            <DistanceMeters>108805.14345058</DistanceMeters>
          </Trackpoint>
          <Trackpoint>
            <Time>2022-04-23T15:03:25.000Z</Time>
            <Position>
              <LatitudeDegrees>41.7326094210147857666015625</LatitudeDegrees>
              <LongitudeDegrees>-0.15252976678311824798583984375</LongitudeDegrees>
            </Position>
            <AltitudeMeters>262</AltitudeMeters>
            <DistanceMeters>108811.55476152</DistanceMeters>
          </Trackpoint>
          <Trackpoint>
            <Time>2022-04-23T15:03:27.000Z</Time>
            <Position>
              <LatitudeDegrees>41.73255720175802707672119140625</LatitudeDegrees>
              <LongitudeDegrees>-0.15238559804856777191162109375</LongitudeDegrees>
            </Position>
            <AltitudeMeters>261.600006103515625</AltitudeMeters>
            <DistanceMeters>108824.86562663</DistanceMeters>
          </Trackpoint>
          <Trackpoint>
            <Time>2022-04-23T15:03:29.000Z</Time>
            <Position>
              <LatitudeDegrees>41.7325130291283130645751953125</LatitudeDegrees>
              <LongitudeDegrees>-0.15224243514239788055419921875</LongitudeDegrees>
            </Position>
            <AltitudeMeters>261.20001220703125</AltitudeMeters>
            <DistanceMeters>108837.73288941</DistanceMeters>
          </Trackpoint>
          <Trackpoint>
            <Time>2022-04-23T15:03:30.000Z</Time>
            <Position>
              <LatitudeDegrees>41.7324860394001007080078125</LatitudeDegrees>
              <LongitudeDegrees>-0.15217579901218414306640625</LongitudeDegrees>
            </Position>
            <AltitudeMeters>261.20001220703125</AltitudeMeters>
            <DistanceMeters>108844.03051561</DistanceMeters>
          </Trackpoint>
          <Trackpoint>
            <Time>2022-04-23T15:03:32.000Z</Time>
            <Position>
              <LatitudeDegrees>41.73242233693599700927734375</LatitudeDegrees>
              <LongitudeDegrees>-0.15206121839582920074462890625</LongitudeDegrees>
            </Position>
            <AltitudeMeters>261</AltitudeMeters>
            <DistanceMeters>108855.89782669</DistanceMeters>
          </Trackpoint>
          <Trackpoint>
            <Time>2022-04-23T15:03:33.000Z</Time>
            <Position>
              <LatitudeDegrees>41.73238344490528106689453125</LatitudeDegrees>
              <LongitudeDegrees>-0.15201754868030548095703125</LongitudeDegrees>
            </Position>
            <AltitudeMeters>261</AltitudeMeters>
            <DistanceMeters>108861.54532437</DistanceMeters>
          </Trackpoint>
          <Trackpoint>
            <Time>2022-04-23T15:03:34.000Z</Time>
            <Position>
              <LatitudeDegrees>41.73233943991363048553466796875</LatitudeDegrees>
              <LongitudeDegrees>-0.15198159031569957733154296875</LongitudeDegrees>
            </Position>
            <AltitudeMeters>261</AltitudeMeters>
            <DistanceMeters>108867.28166454</DistanceMeters>
          </Trackpoint>
          <Trackpoint>
            <Time>2022-04-23T15:03:35.000Z</Time>
            <Position>
              <LatitudeDegrees>41.7322917468845844268798828125</LatitudeDegrees>
              <LongitudeDegrees>-0.1519530080258846282958984375</LongitudeDegrees>
            </Position>
            <AltitudeMeters>261</AltitudeMeters>
            <DistanceMeters>108873.09618139</DistanceMeters>
          </Trackpoint>
          <Trackpoint>
            <Time>2022-04-23T15:03:36.000Z</Time>
            <Position>
              <LatitudeDegrees>41.73224170692265033721923828125</LatitudeDegrees>
              <LongitudeDegrees>-0.1519292034208774566650390625</LongitudeDegrees>
            </Position>
            <AltitudeMeters>261</AltitudeMeters>
            <DistanceMeters>108879.00620133</DistanceMeters>
          </Trackpoint>
          <Trackpoint>
            <Time>2022-04-23T15:03:37.000Z</Time>
            <Position>
              <LatitudeDegrees>41.73219091258943080902099609375</LatitudeDegrees>
              <LongitudeDegrees>-0.15190782956779003143310546875</LongitudeDegrees>
            </Position>
            <AltitudeMeters>261</AltitudeMeters>
            <DistanceMeters>108884.93148083</DistanceMeters>
          </Trackpoint>
          <Trackpoint>
            <Time>2022-04-23T15:03:44.000Z</Time>
            <Position>
              <LatitudeDegrees>41.73181506805121898651123046875</LatitudeDegrees>
              <LongitudeDegrees>-0.1518085040152072906494140625</LongitudeDegrees>
            </Position>
            <AltitudeMeters>261.600006103515625</AltitudeMeters>
            <DistanceMeters>108927.56936505</DistanceMeters>
          </Trackpoint>
          <Trackpoint>
            <Time>2022-04-23T15:03:49.000Z</Time>
            <Position>
              <LatitudeDegrees>41.73153209500014781951904296875</LatitudeDegrees>
              <LongitudeDegrees>-0.151764415204524993896484375</LongitudeDegrees>
            </Position>
            <AltitudeMeters>262.399993896484375</AltitudeMeters>
            <DistanceMeters>108959.27697598</DistanceMeters>
          </Trackpoint>
          <Trackpoint>
            <Time>2022-04-23T15:03:52.000Z</Time>
            <Position>
              <LatitudeDegrees>41.73138155601918697357177734375</LatitudeDegrees>
              <LongitudeDegrees>-0.15175200998783111572265625</LongitudeDegrees>
            </Position>
            <AltitudeMeters>262.600006103515625</AltitudeMeters>
            <DistanceMeters>108976.06419212</DistanceMeters>
          </Trackpoint>
          <Trackpoint>
            <Time>2022-04-23T15:03:53.000Z</Time>
            <Position>
              <LatitudeDegrees>41.73133310861885547637939453125</LatitudeDegrees>
              <LongitudeDegrees>-0.15174639411270618438720703125</LongitudeDegrees>
            </Position>
            <AltitudeMeters>262.79998779296875</AltitudeMeters>
            <DistanceMeters>108981.47654539</DistanceMeters>
          </Trackpoint>
          <Trackpoint>
            <Time>2022-04-23T15:03:58.000Z</Time>
            <Position>
              <LatitudeDegrees>41.731081902980804443359375</LatitudeDegrees>
              <LongitudeDegrees>-0.15171973966062068939208984375</LongitudeDegrees>
            </Position>
            <AltitudeMeters>263.399993896484375</AltitudeMeters>
            <DistanceMeters>109009.52359603</DistanceMeters>
          </Trackpoint>
          <Trackpoint>
            <Time>2022-04-23T15:04:01.000Z</Time>
            <Position>
              <LatitudeDegrees>41.7309276759624481201171875</LatitudeDegrees>
              <LongitudeDegrees>-0.1517070829868316650390625</LongitudeDegrees>
            </Position>
            <AltitudeMeters>263.600006103515625</AltitudeMeters>
            <DistanceMeters>109026.7215937</DistanceMeters>
          </Trackpoint>
          <Trackpoint>
            <Time>2022-04-23T15:04:09.000Z</Time>
            <Position>
              <LatitudeDegrees>41.73050983808934688568115234375</LatitudeDegrees>
              <LongitudeDegrees>-0.15167447738349437713623046875</LongitudeDegrees>
            </Position>
            <AltitudeMeters>264.20001220703125</AltitudeMeters>
            <DistanceMeters>109073.30649599</DistanceMeters>
          </Trackpoint>
          <Trackpoint>
            <Time>2022-04-23T15:04:14.000Z</Time>
            <Position>
              <LatitudeDegrees>41.73023692332208156585693359375</LatitudeDegrees>
              <LongitudeDegrees>-0.15163407661020755767822265625</LongitudeDegrees>
            </Position>
            <AltitudeMeters>264</AltitudeMeters>
            <DistanceMeters>109103.86715233</DistanceMeters>
          </Trackpoint>
          <Trackpoint>
            <Time>2022-04-23T15:04:16.000Z</Time>
            <Position>
              <LatitudeDegrees>41.73013164661824703216552734375</LatitudeDegrees>
              <LongitudeDegrees>-0.151605494320392608642578125</LongitudeDegrees>
            </Position>
            <AltitudeMeters>263.79998779296875</AltitudeMeters>
            <DistanceMeters>109115.82278197</DistanceMeters>
          </Trackpoint>
          <Trackpoint>
            <Time>2022-04-23T15:04:18.000Z</Time>
            <Position>
              <LatitudeDegrees>41.730030477046966552734375</LatitudeDegrees>
              <LongitudeDegrees>-0.15158948488533496856689453125</LongitudeDegrees>
            </Position>
            <AltitudeMeters>263.79998779296875</AltitudeMeters>
            <DistanceMeters>109127.16126504</DistanceMeters>
          </Trackpoint>
          <Trackpoint>
            <Time>2022-04-23T15:04:23.000Z</Time>
            <Position>
              <LatitudeDegrees>41.729765944182872772216796875</LatitudeDegrees>
              <LongitudeDegrees>-0.1515536941587924957275390625</LongitudeDegrees>
            </Position>
            <AltitudeMeters>263.20001220703125</AltitudeMeters>
            <DistanceMeters>109156.75411576</DistanceMeters>
          </Trackpoint>
          <Trackpoint>
            <Time>2022-04-23T15:04:29.000Z</Time>
            <Position>
              <LatitudeDegrees>41.7294305004179477691650390625</LatitudeDegrees>
              <LongitudeDegrees>-0.1515168137848377227783203125</LongitudeDegrees>
            </Position>
            <AltitudeMeters>263</AltitudeMeters>
            <DistanceMeters>109194.2151363</DistanceMeters>
          </Trackpoint>
          <Trackpoint>
            <Time>2022-04-23T15:04:30.000Z</Time>
            <Position>
              <LatitudeDegrees>41.729375012218952178955078125</LatitudeDegrees>
              <LongitudeDegrees>-0.15150616876780986785888671875</LongitudeDegrees>
            </Position>
            <AltitudeMeters>263</AltitudeMeters>
            <DistanceMeters>109200.45369618</DistanceMeters>
          </Trackpoint>
          <Trackpoint>
            <Time>2022-04-23T15:04:37.000Z</Time>
            <Position>
              <LatitudeDegrees>41.7289803922176361083984375</LatitudeDegrees>
              <LongitudeDegrees>-0.15145830810070037841796875</LongitudeDegrees>
            </Position>
            <AltitudeMeters>263.600006103515625</AltitudeMeters>
            <DistanceMeters>109244.55530664</DistanceMeters>
          </Trackpoint>
          <Trackpoint>
            <Time>2022-04-23T15:04:38.000Z</Time>
            <Position>
              <LatitudeDegrees>41.7289252392947673797607421875</LatitudeDegrees>
              <LongitudeDegrees>-0.15144062228500843048095703125</LongitudeDegrees>
            </Position>
            <AltitudeMeters>263.20001220703125</AltitudeMeters>
            <DistanceMeters>109250.86725541</DistanceMeters>
          </Trackpoint>
          <Trackpoint>
            <Time>2022-04-23T15:04:39.000Z</Time>
            <Position>
              <LatitudeDegrees>41.7288704216480255126953125</LatitudeDegrees>
              <LongitudeDegrees>-0.151417739689350128173828125</LongitudeDegrees>
            </Position>
            <AltitudeMeters>263.20001220703125</AltitudeMeters>
            <DistanceMeters>109257.25740452</DistanceMeters>
          </Trackpoint>
          <Trackpoint>
            <Time>2022-04-23T15:04:44.000Z</Time>
            <Position>
              <LatitudeDegrees>41.7286027036607265472412109375</LatitudeDegrees>
              <LongitudeDegrees>-0.15127784572541713714599609375</LongitudeDegrees>
            </Position>
            <AltitudeMeters>262.600006103515625</AltitudeMeters>
            <DistanceMeters>109289.24077661</DistanceMeters>
          </Trackpoint>
          <Trackpoint>
            <Time>2022-04-23T15:04:47.000Z</Time>
            <Position>
              <LatitudeDegrees>41.72844621352851390838623046875</LatitudeDegrees>
              <LongitudeDegrees>-0.1511825434863567352294921875</LongitudeDegrees>
            </Position>
            <AltitudeMeters>262.20001220703125</AltitudeMeters>
            <DistanceMeters>109308.37303154</DistanceMeters>
          </Trackpoint>
          <Trackpoint>
            <Time>2022-04-23T15:04:52.000Z</Time>
            <Position>
              <LatitudeDegrees>41.72818704508244991302490234375</LatitudeDegrees>
              <LongitudeDegrees>-0.151042900979518890380859375</LongitudeDegrees>
            </Position>
            <AltitudeMeters>262.20001220703125</AltitudeMeters>
            <DistanceMeters>109339.4639079</DistanceMeters>
          </Trackpoint>
          <Trackpoint>
            <Time>2022-04-23T15:05:01.000Z</Time>
            <Position>
              <LatitudeDegrees>41.727687232196331024169921875</LatitudeDegrees>
              <LongitudeDegrees>-0.15077568590641021728515625</LongitudeDegrees>
            </Position>
            <AltitudeMeters>262.600006103515625</AltitudeMeters>
            <DistanceMeters>109399.35886227</DistanceMeters>
          </Trackpoint>
          <Trackpoint>
            <Time>2022-04-23T15:05:04.000Z</Time>
            <Position>
              <LatitudeDegrees>41.72750894911587238311767578125</LatitudeDegrees>
              <LongitudeDegrees>-0.1507305912673473358154296875</LongitudeDegrees>
            </Position>
            <AltitudeMeters>262.399993896484375</AltitudeMeters>
            <DistanceMeters>109419.55243036</DistanceMeters>
          </Trackpoint>
          <Trackpoint>
            <Time>2022-04-23T15:05:07.000Z</Time>
            <Position>
              <LatitudeDegrees>41.7273281514644622802734375</LatitudeDegrees>
              <LongitudeDegrees>-0.15071961097419261932373046875</LongitudeDegrees>
            </Position>
            <AltitudeMeters>262.399993896484375</AltitudeMeters>
            <DistanceMeters>109439.69607663</DistanceMeters>
          </Trackpoint>
          <Trackpoint>
            <Time>2022-04-23T15:05:08.000Z</Time>
            <Position>
              <LatitudeDegrees>41.7272709868848323822021484375</LatitudeDegrees>
              <LongitudeDegrees>-0.15071424655616283416748046875</LongitudeDegrees>
            </Position>
            <AltitudeMeters>262.399993896484375</AltitudeMeters>
            <DistanceMeters>109446.07491073</DistanceMeters>
          </Trackpoint>
          <Trackpoint>
            <Time>2022-04-23T15:05:14.000Z</Time>
            <Position>
              <LatitudeDegrees>41.7269243113696575164794921875</LatitudeDegrees>
              <LongitudeDegrees>-0.15071307308971881866455078125</LongitudeDegrees>
            </Position>
            <AltitudeMeters>262.600006103515625</AltitudeMeters>
            <DistanceMeters>109484.66067162</DistanceMeters>
          </Trackpoint>
          <Trackpoint>
            <Time>2022-04-23T15:05:21.000Z</Time>
            <Position>
              <LatitudeDegrees>41.72653279267251491546630859375</LatitudeDegrees>
              <LongitudeDegrees>-0.15085221268236637115478515625</LongitudeDegrees>
            </Position>
            <AltitudeMeters>261.600006103515625</AltitudeMeters>
            <DistanceMeters>109529.74421326</DistanceMeters>
          </Trackpoint>
          <Trackpoint>
            <Time>2022-04-23T15:05:25.000Z</Time>
            <Position>
              <LatitudeDegrees>41.72632031142711639404296875</LatitudeDegrees>
              <LongitudeDegrees>-0.15094022266566753387451171875</LongitudeDegrees>
            </Position>
            <AltitudeMeters>261.600006103515625</AltitudeMeters>
            <DistanceMeters>109554.49789717</DistanceMeters>
          </Trackpoint>
          <Trackpoint>
            <Time>2022-04-23T15:05:26.000Z</Time>
            <Position>
              <LatitudeDegrees>41.72626457177102565765380859375</LatitudeDegrees>
              <LongitudeDegrees>-0.15093754045665264129638671875</LongitudeDegrees>
            </Position>
            <AltitudeMeters>261.399993896484375</AltitudeMeters>
            <DistanceMeters>109560.70598594</DistanceMeters>
          </Trackpoint>
          <Trackpoint>
            <Time>2022-04-23T15:05:27.000Z</Time>
            <Position>
              <LatitudeDegrees>41.72621143050491809844970703125</LatitudeDegrees>
              <LongitudeDegrees>-0.15091708861291408538818359375</LongitudeDegrees>
            </Position>
            <AltitudeMeters>261.399993896484375</AltitudeMeters>
            <DistanceMeters>109566.86075407</DistanceMeters>
          </Trackpoint>
          <Trackpoint>
            <Time>2022-04-23T15:05:29.000Z</Time>
            <Position>
              <LatitudeDegrees>41.7261327244341373443603515625</LatitudeDegrees>
              <LongitudeDegrees>-0.15081348828971385955810546875</LongitudeDegrees>
            </Position>
            <AltitudeMeters>261</AltitudeMeters>
            <DistanceMeters>109579.14091191</DistanceMeters>
          </Trackpoint>
          <Trackpoint>
            <Time>2022-04-23T15:05:33.000Z</Time>
            <Position>
              <LatitudeDegrees>41.72609223984181880950927734375</LatitudeDegrees>
              <LongitudeDegrees>-0.15051961876451969146728515625</LongitudeDegrees>
            </Position>
            <AltitudeMeters>260.79998779296875</AltitudeMeters>
            <DistanceMeters>109603.96453809</DistanceMeters>
          </Trackpoint>
          <Trackpoint>
            <Time>2022-04-23T15:05:41.000Z</Time>
            <Position>
              <LatitudeDegrees>41.72602619044482707977294921875</LatitudeDegrees>
              <LongitudeDegrees>-0.14986013062298297882080078125</LongitudeDegrees>
            </Position>
            <AltitudeMeters>261</AltitudeMeters>
            <DistanceMeters>109659.2384012</DistanceMeters>
          </Trackpoint>
          <Trackpoint>
            <Time>2022-04-23T15:05:47.000Z</Time>
            <Position>
              <LatitudeDegrees>41.7259704507887363433837890625</LatitudeDegrees>
              <LongitudeDegrees>-0.14925830997526645660400390625</LongitudeDegrees>
            </Position>
            <AltitudeMeters>261</AltitudeMeters>
            <DistanceMeters>109709.61430232</DistanceMeters>
          </Trackpoint>
          <Trackpoint>
            <Time>2022-04-23T15:05:50.000Z</Time>
            <Position>
              <LatitudeDegrees>41.7259347438812255859375</LatitudeDegrees>
              <LongitudeDegrees>-0.148907862603664398193359375</LongitudeDegrees>
            </Position>
            <AltitudeMeters>259.600006103515625</AltitudeMeters>
            <DistanceMeters>109738.99554205</DistanceMeters>
          </Trackpoint>
          <Trackpoint>
            <Time>2022-04-23T15:05:52.000Z</Time>
            <Position>
              <LatitudeDegrees>41.7259107716381549835205078125</LatitudeDegrees>
              <LongitudeDegrees>-0.14864458702504634857177734375</LongitudeDegrees>
            </Position>
            <AltitudeMeters>258.600006103515625</AltitudeMeters>
            <DistanceMeters>109761.02801398</DistanceMeters>
          </Trackpoint>
          <Trackpoint>
            <Time>2022-04-23T15:05:54.000Z</Time>
            <Position>
              <LatitudeDegrees>41.725888811051845550537109375</LatitudeDegrees>
              <LongitudeDegrees>-0.14835608191788196563720703125</LongitudeDegrees>
            </Position>
            <AltitudeMeters>257.399993896484375</AltitudeMeters>
            <DistanceMeters>109785.11836376</DistanceMeters>
          </Trackpoint>
          <Trackpoint>
            <Time>2022-04-23T15:05:56.000Z</Time>
            <Position>
              <LatitudeDegrees>41.72587514854967594146728515625</LatitudeDegrees>
              <LongitudeDegrees>-0.14803857542574405670166015625</LongitudeDegrees>
            </Position>
            <AltitudeMeters>256.600006103515625</AltitudeMeters>
            <DistanceMeters>109811.53715762</DistanceMeters>
          </Trackpoint>
          <Trackpoint>
            <Time>2022-04-23T15:05:57.000Z</Time>
            <Position>
              <LatitudeDegrees>41.725870706140995025634765625</LatitudeDegrees>
              <LongitudeDegrees>-0.14786708168685436248779296875</LongitudeDegrees>
            </Position>
            <AltitudeMeters>255.399993896484375</AltitudeMeters>
            <DistanceMeters>109825.79148152</DistanceMeters>
          </Trackpoint>
          <Trackpoint>
            <Time>2022-04-23T15:05:59.000Z</Time>
            <Position>
              <LatitudeDegrees>41.725866682827472686767578125</LatitudeDegrees>
              <LongitudeDegrees>-0.14750448055565357208251953125</LongitudeDegrees>
            </Position>
            <AltitudeMeters>253.1999969482421875</AltitudeMeters>
            <DistanceMeters>109855.91539963</DistanceMeters>
          </Trackpoint>
          <Trackpoint>
            <Time>2022-04-23T15:06:00.000Z</Time>
            <Position>
              <LatitudeDegrees>41.72586240805685520172119140625</LatitudeDegrees>
              <LongitudeDegrees>-0.14732074923813343048095703125</LongitudeDegrees>
            </Position>
            <AltitudeMeters>251</AltitudeMeters>
            <DistanceMeters>109871.18516072</DistanceMeters>
          </Trackpoint>
          <Trackpoint>
            <Time>2022-04-23T15:06:02.000Z</Time>
            <Position>
              <LatitudeDegrees>41.7258527688682079315185546875</LatitudeDegrees>
              <LongitudeDegrees>-0.14696803875267505645751953125</LongitudeDegrees>
            </Position>
            <AltitudeMeters>248.399993896484375</AltitudeMeters>
            <DistanceMeters>109900.50425172</DistanceMeters>
          </Trackpoint>
          <Trackpoint>
            <Time>2022-04-23T15:06:04.000Z</Time>
            <Position>
              <LatitudeDegrees>41.7258410342037677764892578125</LatitudeDegrees>
              <LongitudeDegrees>-0.14665924943983554840087890625</LongitudeDegrees>
            </Position>
            <AltitudeMeters>245.399993896484375</AltitudeMeters>
            <DistanceMeters>109926.18819893</DistanceMeters>
          </Trackpoint>
          <Trackpoint>
            <Time>2022-04-23T15:06:05.000Z</Time>
            <Position>
              <LatitudeDegrees>41.72583860345184803009033203125</LatitudeDegrees>
              <LongitudeDegrees>-0.1465242169797420501708984375</LongitudeDegrees>
            </Position>
            <AltitudeMeters>244.399993896484375</AltitudeMeters>
            <DistanceMeters>109937.40859669</DistanceMeters>
          </Trackpoint>
          <Trackpoint>
            <Time>2022-04-23T15:06:06.000Z</Time>
            <Position>
              <LatitudeDegrees>41.7258360050618648529052734375</LatitudeDegrees>
              <LongitudeDegrees>-0.14640477485954761505126953125</LongitudeDegrees>
            </Position>
            <AltitudeMeters>242.8000030517578125</AltitudeMeters>
            <DistanceMeters>109947.33513658</DistanceMeters>
          </Trackpoint>
          <Trackpoint>
            <Time>2022-04-23T15:06:07.000Z</Time>
            <Position>
              <LatitudeDegrees>41.72583575360476970672607421875</LatitudeDegrees>
              <LongitudeDegrees>-0.14630318619310855865478515625</LongitudeDegrees>
            </Position>
            <AltitudeMeters>241.600006103515625</AltitudeMeters>
            <DistanceMeters>109955.77434346</DistanceMeters>
          </Trackpoint>
          <Trackpoint>
            <Time>2022-04-23T15:06:08.000Z</Time>
            <Position>
              <LatitudeDegrees>41.72584690153598785400390625</LatitudeDegrees>
              <LongitudeDegrees>-0.14622121118009090423583984375</LongitudeDegrees>
            </Position>
            <AltitudeMeters>241.1999969482421875</AltitudeMeters>
            <DistanceMeters>109962.69565516</DistanceMeters>
          </Trackpoint>
          <Trackpoint>
            <Time>2022-04-23T15:06:09.000Z</Time>
            <Position>
              <LatitudeDegrees>41.7258712090551853179931640625</LatitudeDegrees>
              <LongitudeDegrees>-0.1461550779640674591064453125</LongitudeDegrees>
            </Position>
            <AltitudeMeters>240.399993896484375</AltitudeMeters>
            <DistanceMeters>109968.81879793</DistanceMeters>
          </Trackpoint>
          <Trackpoint>
            <Time>2022-04-23T15:06:10.000Z</Time>
            <Position>
              <LatitudeDegrees>41.72591169364750385284423828125</LatitudeDegrees>
              <LongitudeDegrees>-0.14611258171498775482177734375</LongitudeDegrees>
            </Position>
            <AltitudeMeters>240</AltitudeMeters>
            <DistanceMeters>109974.54253074</DistanceMeters>
          </Trackpoint>
          <Trackpoint>
            <Time>2022-04-23T15:06:11.000Z</Time>
            <Position>
              <LatitudeDegrees>41.72596617601811885833740234375</LatitudeDegrees>
              <LongitudeDegrees>-0.1460896991193294525146484375</LongitudeDegrees>
            </Position>
            <AltitudeMeters>239.399993896484375</AltitudeMeters>
            <DistanceMeters>109980.89725354</DistanceMeters>
          </Trackpoint>
          <Trackpoint>
            <Time>2022-04-23T15:06:12.000Z</Time>
            <Position>
              <LatitudeDegrees>41.7260264419019222259521484375</LatitudeDegrees>
              <LongitudeDegrees>-0.14607913792133331298828125</LongitudeDegrees>
            </Position>
            <AltitudeMeters>239.1999969482421875</AltitudeMeters>
            <DistanceMeters>109987.66219459</DistanceMeters>
          </Trackpoint>
          <Trackpoint>
            <Time>2022-04-23T15:06:13.000Z</Time>
            <Position>
              <LatitudeDegrees>41.72608804889023303985595703125</LatitudeDegrees>
              <LongitudeDegrees>-0.14607385732233524322509765625</LongitudeDegrees>
            </Position>
            <AltitudeMeters>238.8000030517578125</AltitudeMeters>
            <DistanceMeters>109994.53243546</DistanceMeters>
          </Trackpoint>
          <Trackpoint>
            <Time>2022-04-23T15:06:15.000Z</Time>
            <Position>
              <LatitudeDegrees>41.72620958648622035980224609375</LatitudeDegrees>
              <LongitudeDegrees>-0.14606195501983165740966796875</LongitudeDegrees>
            </Position>
            <AltitudeMeters>238.399993896484375</AltitudeMeters>
            <DistanceMeters>110008.09598025</DistanceMeters>
          </Trackpoint>
          <Trackpoint>
            <Time>2022-04-23T15:06:16.000Z</Time>
            <Position>
              <LatitudeDegrees>41.7262688465416431427001953125</LatitudeDegrees>
              <LongitudeDegrees>-0.1460461132228374481201171875</LongitudeDegrees>
            </Position>
            <AltitudeMeters>238</AltitudeMeters>
            <DistanceMeters>110014.82142841</DistanceMeters>
          </Trackpoint>
          <Trackpoint>
            <Time>2022-04-23T15:06:19.000Z</Time>
            <Position>
              <LatitudeDegrees>41.72645299695432186126708984375</LatitudeDegrees>
              <LongitudeDegrees>-0.14600998722016811370849609375</LongitudeDegrees>
            </Position>
            <AltitudeMeters>237.399993896484375</AltitudeMeters>
            <DistanceMeters>110035.53616236</DistanceMeters>
          </Trackpoint>
          <Trackpoint>
            <Time>2022-04-23T15:06:21.000Z</Time>
            <Position>
              <LatitudeDegrees>41.72657243907451629638671875</LatitudeDegrees>
              <LongitudeDegrees>-0.1459867693483829498291015625</LongitudeDegrees>
            </Position>
            <AltitudeMeters>237</AltitudeMeters>
            <DistanceMeters>110048.96959259</DistanceMeters>
          </Trackpoint>
          <Trackpoint>
            <Time>2022-04-23T15:06:27.000Z</Time>
            <Position>
              <LatitudeDegrees>41.72693747095763683319091796875</LatitudeDegrees>
              <LongitudeDegrees>-0.145929269492626190185546875</LongitudeDegrees>
            </Position>
            <AltitudeMeters>237</AltitudeMeters>
            <DistanceMeters>110089.87834479</DistanceMeters>
          </Trackpoint>
          <Trackpoint>
            <Time>2022-04-23T15:06:31.000Z</Time>
            <Position>
              <LatitudeDegrees>41.72718691639602184295654296875</LatitudeDegrees>
              <LongitudeDegrees>-0.1458670757710933685302734375</LongitudeDegrees>
            </Position>
            <AltitudeMeters>236.8000030517578125</AltitudeMeters>
            <DistanceMeters>110118.11871114</DistanceMeters>
          </Trackpoint>
          <Trackpoint>
            <Time>2022-04-23T15:06:33.000Z</Time>
            <Position>
              <LatitudeDegrees>41.72732689417898654937744140625</LatitudeDegrees>
              <LongitudeDegrees>-0.14582692645490169525146484375</LongitudeDegrees>
            </Position>
            <AltitudeMeters>237</AltitudeMeters>
            <DistanceMeters>110134.05177547</DistanceMeters>
          </Trackpoint>
          <Trackpoint>
            <Time>2022-04-23T15:06:36.000Z</Time>
            <Position>
              <LatitudeDegrees>41.72754884697496891021728515625</LatitudeDegrees>
              <LongitudeDegrees>-0.14578543603420257568359375</LongitudeDegrees>
            </Position>
            <AltitudeMeters>237</AltitudeMeters>
            <DistanceMeters>110158.9951567</DistanceMeters>
          </Trackpoint>
          <Trackpoint>
            <Time>2022-04-23T15:06:40.000Z</Time>
            <Position>
              <LatitudeDegrees>41.727838777005672454833984375</LatitudeDegrees>
              <LongitudeDegrees>-0.1457343064248561859130859375</LongitudeDegrees>
            </Position>
            <AltitudeMeters>237.1999969482421875</AltitudeMeters>
            <DistanceMeters>110191.54315891</DistanceMeters>
          </Trackpoint>
          <Trackpoint>
            <Time>2022-04-23T15:06:41.000Z</Time>
            <Position>
              <LatitudeDegrees>41.72790817916393280029296875</LatitudeDegrees>
              <LongitudeDegrees>-0.14572449959814548492431640625</LongitudeDegrees>
            </Position>
            <AltitudeMeters>237.1999969482421875</AltitudeMeters>
            <DistanceMeters>110199.31039399</DistanceMeters>
          </Trackpoint>
          <Trackpoint>
            <Time>2022-04-23T15:06:42.000Z</Time>
            <Position>
              <LatitudeDegrees>41.7279754020273685455322265625</LatitudeDegrees>
              <LongitudeDegrees>-0.14571175910532474517822265625</LongitudeDegrees>
            </Position>
            <AltitudeMeters>237.1999969482421875</AltitudeMeters>
            <DistanceMeters>110206.8660636</DistanceMeters>
          </Trackpoint>
          <Trackpoint>
            <Time>2022-04-23T15:06:46.000Z</Time>
            <Position>
              <LatitudeDegrees>41.7282535135746002197265625</LatitudeDegrees>
              <LongitudeDegrees>-0.1456618867814540863037109375</LongitudeDegrees>
            </Position>
            <AltitudeMeters>237</AltitudeMeters>
            <DistanceMeters>110238.0963298</DistanceMeters>
          </Trackpoint>
          <Trackpoint>
            <Time>2022-04-23T15:06:52.000Z</Time>
            <Position>
              <LatitudeDegrees>41.7286633886396884918212890625</LatitudeDegrees>
              <LongitudeDegrees>-0.14558368362486362457275390625</LongitudeDegrees>
            </Position>
            <AltitudeMeters>237</AltitudeMeters>
            <DistanceMeters>110284.17644835</DistanceMeters>
          </Trackpoint>
          <Trackpoint>
            <Time>2022-04-23T15:06:54.000Z</Time>
            <Position>
              <LatitudeDegrees>41.72880127094686031341552734375</LatitudeDegrees>
              <LongitudeDegrees>-0.14555719681084156036376953125</LongitudeDegrees>
            </Position>
            <AltitudeMeters>237</AltitudeMeters>
            <DistanceMeters>110299.68007936</DistanceMeters>
          </Trackpoint>
          <Trackpoint>
            <Time>2022-04-23T15:07:01.000Z</Time>
            <Position>
              <LatitudeDegrees>41.72928004525601863861083984375</LatitudeDegrees>
              <LongitudeDegrees>-0.145472623407840728759765625</LongitudeDegrees>
            </Position>
            <AltitudeMeters>237.1999969482421875</AltitudeMeters>
            <DistanceMeters>110353.42967887</DistanceMeters>
          </Trackpoint>
          <Trackpoint>
            <Time>2022-04-23T15:07:09.000Z</Time>
            <Position>
              <LatitudeDegrees>41.7298070155084133148193359375</LatitudeDegrees>
              <LongitudeDegrees>-0.145370028913021087646484375</LongitudeDegrees>
            </Position>
            <AltitudeMeters>237.600006103515625</AltitudeMeters>
            <DistanceMeters>110412.69832132</DistanceMeters>
          </Trackpoint>
          <Trackpoint>
            <Time>2022-04-23T15:07:15.000Z</Time>
            <Position>
              <LatitudeDegrees>41.7302088439464569091796875</LatitudeDegrees>
              <LongitudeDegrees>-0.145309008657932281494140625</LongitudeDegrees>
            </Position>
            <AltitudeMeters>238.1999969482421875</AltitudeMeters>
            <DistanceMeters>110457.70889597</DistanceMeters>
          </Trackpoint>
          <Trackpoint>
            <Time>2022-04-23T15:07:17.000Z</Time>
            <Position>
              <LatitudeDegrees>41.73033557832241058349609375</LatitudeDegrees>
              <LongitudeDegrees>-0.14529786072671413421630859375</LongitudeDegrees>
            </Position>
            <AltitudeMeters>238.1999969482421875</AltitudeMeters>
            <DistanceMeters>110471.84521769</DistanceMeters>
          </Trackpoint>
          <Trackpoint>
            <Time>2022-04-23T15:07:24.000Z</Time>
            <Position>
              <LatitudeDegrees>41.7307669110596179962158203125</LatitudeDegrees>
              <LongitudeDegrees>-0.14521278440952301025390625</LongitudeDegrees>
            </Position>
            <AltitudeMeters>239.1999969482421875</AltitudeMeters>
            <DistanceMeters>110520.37066311</DistanceMeters>
          </Trackpoint>
          <Trackpoint>
            <Time>2022-04-23T15:07:25.000Z</Time>
            <Position>
              <LatitudeDegrees>41.73083245754241943359375</LatitudeDegrees>
              <LongitudeDegrees>-0.1452032290399074554443359375</LongitudeDegrees>
            </Position>
            <AltitudeMeters>239.399993896484375</AltitudeMeters>
            <DistanceMeters>110527.70928532</DistanceMeters>
          </Trackpoint>
          <Trackpoint>
            <Time>2022-04-23T15:07:29.000Z</Time>
            <Position>
              <LatitudeDegrees>41.73108718357980251312255859375</LatitudeDegrees>
              <LongitudeDegrees>-0.1451529376208782196044921875</LongitudeDegrees>
            </Position>
            <AltitudeMeters>240</AltitudeMeters>
            <DistanceMeters>110556.36704853</DistanceMeters>
          </Trackpoint>
          <Trackpoint>
            <Time>2022-04-23T15:07:31.000Z</Time>
            <Position>
              <LatitudeDegrees>41.73122431151568889617919921875</LatitudeDegrees>
              <LongitudeDegrees>-0.1451244391500949859619140625</LongitudeDegrees>
            </Position>
            <AltitudeMeters>240</AltitudeMeters>
            <DistanceMeters>110571.81174016</DistanceMeters>
          </Trackpoint>
          <Trackpoint>
            <Time>2022-04-23T15:07:33.000Z</Time>
            <Position>
              <LatitudeDegrees>41.73134216107428073883056640625</LatitudeDegrees>
              <LongitudeDegrees>-0.14509468339383602142333984375</LongitudeDegrees>
            </Position>
            <AltitudeMeters>239.8000030517578125</AltitudeMeters>
            <DistanceMeters>110585.15918853</DistanceMeters>
          </Trackpoint>
          <Trackpoint>
            <Time>2022-04-23T15:07:38.000Z</Time>
            <Position>
              <LatitudeDegrees>41.73166637308895587921142578125</LatitudeDegrees>
              <LongitudeDegrees>-0.1450412906706333160400390625</LongitudeDegrees>
            </Position>
            <AltitudeMeters>240.1999969482421875</AltitudeMeters>
            <DistanceMeters>110621.5160667</DistanceMeters>
          </Trackpoint>
          <Trackpoint>
            <Time>2022-04-23T15:07:41.000Z</Time>
            <Position>
              <LatitudeDegrees>41.73184432089328765869140625</LatitudeDegrees>
              <LongitudeDegrees>-0.1450080983340740203857421875</LongitudeDegrees>
            </Position>
            <AltitudeMeters>240.1999969482421875</AltitudeMeters>
            <DistanceMeters>110641.51326413</DistanceMeters>
          </Trackpoint>
          <Trackpoint>
            <Time>2022-04-23T15:07:50.000Z</Time>
            <Position>
              <LatitudeDegrees>41.73240381292998790740966796875</LatitudeDegrees>
              <LongitudeDegrees>-0.14490307308733463287353515625</LongitudeDegrees>
            </Position>
            <AltitudeMeters>240.1999969482421875</AltitudeMeters>
            <DistanceMeters>110704.39395682</DistanceMeters>
          </Trackpoint>
          <Trackpoint>
            <Time>2022-04-23T15:07:57.000Z</Time>
            <Position>
              <LatitudeDegrees>41.73285576514899730682373046875</LatitudeDegrees>
              <LongitudeDegrees>-0.144816152751445770263671875</LongitudeDegrees>
            </Position>
            <AltitudeMeters>239.8000030517578125</AltitudeMeters>
            <DistanceMeters>110755.21255206</DistanceMeters>
          </Trackpoint>
          <Trackpoint>
            <Time>2022-04-23T15:07:58.000Z</Time>
            <Position>
              <LatitudeDegrees>41.73292114399373531341552734375</LatitudeDegrees>
              <LongitudeDegrees>-0.1448045857250690460205078125</LongitudeDegrees>
            </Position>
            <AltitudeMeters>239.600006103515625</AltitudeMeters>
            <DistanceMeters>110762.55240465</DistanceMeters>
          </Trackpoint>
          <Trackpoint>
            <Time>2022-04-23T15:08:00.000Z</Time>
            <Position>
              <LatitudeDegrees>41.73305005766451358795166015625</LatitudeDegrees>
              <LongitudeDegrees>-0.1447856426239013671875</LongitudeDegrees>
            </Position>
            <AltitudeMeters>240.1999969482421875</AltitudeMeters>
            <DistanceMeters>110776.98677176</DistanceMeters>
          </Trackpoint>
          <Trackpoint>
            <Time>2022-04-23T15:08:09.000Z</Time>
            <Position>
              <LatitudeDegrees>41.73363662324845790863037109375</LatitudeDegrees>
              <LongitudeDegrees>-0.1446734927594661712646484375</LongitudeDegrees>
            </Position>
            <AltitudeMeters>240.1999969482421875</AltitudeMeters>
            <DistanceMeters>110842.93387379</DistanceMeters>
          </Trackpoint>
          <Trackpoint>
            <Time>2022-04-23T15:08:10.000Z</Time>
            <Position>
              <LatitudeDegrees>41.733704768121242523193359375</LatitudeDegrees>
              <LongitudeDegrees>-0.144661925733089447021484375</LongitudeDegrees>
            </Position>
            <AltitudeMeters>240</AltitudeMeters>
            <DistanceMeters>110850.57865337</DistanceMeters>
          </Trackpoint>
          <Trackpoint>
            <Time>2022-04-23T15:08:18.000Z</Time>
            <Position>
              <LatitudeDegrees>41.7342397011816501617431640625</LatitudeDegrees>
              <LongitudeDegrees>-0.14455840922892093658447265625</LongitudeDegrees>
            </Position>
            <AltitudeMeters>239.8000030517578125</AltitudeMeters>
            <DistanceMeters>110910.73536725</DistanceMeters>
          </Trackpoint>
          <Trackpoint>
            <Time>2022-04-23T15:08:21.000Z</Time>
            <Position>
              <LatitudeDegrees>41.7344385199248790740966796875</LatitudeDegrees>
              <LongitudeDegrees>-0.14451767317950725555419921875</LongitudeDegrees>
            </Position>
            <AltitudeMeters>239.8000030517578125</AltitudeMeters>
            <DistanceMeters>110933.12137007</DistanceMeters>
          </Trackpoint>
          <Trackpoint>
            <Time>2022-04-23T15:08:24.000Z</Time>
            <Position>
              <LatitudeDegrees>41.73463490791618824005126953125</LatitudeDegrees>
              <LongitudeDegrees>-0.144480206072330474853515625</LongitudeDegrees>
            </Position>
            <AltitudeMeters>240.1999969482421875</AltitudeMeters>
            <DistanceMeters>110955.20031132</DistanceMeters>
          </Trackpoint>
          <Trackpoint>
            <Time>2022-04-23T15:08:31.000Z</Time>
            <Position>
              <LatitudeDegrees>41.73510261811316013336181640625</LatitudeDegrees>
              <LongitudeDegrees>-0.14439261518418788909912109375</LongitudeDegrees>
            </Position>
            <AltitudeMeters>240.600006103515625</AltitudeMeters>
            <DistanceMeters>111007.76322837</DistanceMeters>
          </Trackpoint>
          <Trackpoint>
            <Time>2022-04-23T15:08:37.000Z</Time>
            <Position>
              <LatitudeDegrees>41.735494472086429595947265625</LatitudeDegrees>
              <LongitudeDegrees>-0.14432153664529323577880859375</LongitudeDegrees>
            </Position>
            <AltitudeMeters>241</AltitudeMeters>
            <DistanceMeters>111051.77506426</DistanceMeters>
          </Trackpoint>
          <Trackpoint>
            <Time>2022-04-23T15:08:38.000Z</Time>
            <Position>
              <LatitudeDegrees>41.7355598509311676025390625</LatitudeDegrees>
              <LongitudeDegrees>-0.14430996961891651153564453125</LongitudeDegrees>
            </Position>
            <AltitudeMeters>241</AltitudeMeters>
            <DistanceMeters>111059.11491685</DistanceMeters>
          </Trackpoint>
          <Trackpoint>
            <Time>2022-04-23T15:08:46.000Z</Time>
            <Position>
              <LatitudeDegrees>41.73607743345201015472412109375</LatitudeDegrees>
              <LongitudeDegrees>-0.14426336623728275299072265625</LongitudeDegrees>
            </Position>
            <AltitudeMeters>241.600006103515625</AltitudeMeters>
            <DistanceMeters>111116.85269808</DistanceMeters>
          </Trackpoint>
          <Trackpoint>
            <Time>2022-04-23T15:08:52.000Z</Time>
            <Position>
              <LatitudeDegrees>41.7364823631942272186279296875</LatitudeDegrees>
              <LongitudeDegrees>-0.1442510448396205902099609375</LongitudeDegrees>
            </Position>
            <AltitudeMeters>241.8000030517578125</AltitudeMeters>
            <DistanceMeters>111161.93383609</DistanceMeters>
          </Trackpoint>
          <Trackpoint>
            <Time>2022-04-23T15:08:55.000Z</Time>
            <Position>
              <LatitudeDegrees>41.73668528907001018524169921875</LatitudeDegrees>
              <LongitudeDegrees>-0.14423570595681667327880859375</LongitudeDegrees>
            </Position>
            <AltitudeMeters>241.600006103515625</AltitudeMeters>
            <DistanceMeters>111184.55578323</DistanceMeters>
          </Trackpoint>
          <Trackpoint>
            <Time>2022-04-23T15:08:56.000Z</Time>
            <Position>
              <LatitudeDegrees>41.73675184138119220733642578125</LatitudeDegrees>
              <LongitudeDegrees>-0.144233442842960357666015625</LongitudeDegrees>
            </Position>
            <AltitudeMeters>241.600006103515625</AltitudeMeters>
            <DistanceMeters>111191.96542996</DistanceMeters>
          </Trackpoint>
          <Trackpoint>
            <Time>2022-04-23T15:09:00.000Z</Time>
            <Position>
              <LatitudeDegrees>41.73703213222324848175048828125</LatitudeDegrees>
              <LongitudeDegrees>-0.1442371308803558349609375</LongitudeDegrees>
            </Position>
            <AltitudeMeters>241.600006103515625</AltitudeMeters>
            <DistanceMeters>111223.16372927</DistanceMeters>
          </Trackpoint>
          <Trackpoint>
            <Time>2022-04-23T15:09:07.000Z</Time>
            <Position>
              <LatitudeDegrees>41.7375197075307369232177734375</LatitudeDegrees>
              <LongitudeDegrees>-0.1442134939134120941162109375</LongitudeDegrees>
            </Position>
            <AltitudeMeters>241.8000030517578125</AltitudeMeters>
            <DistanceMeters>111277.46731869</DistanceMeters>
          </Trackpoint>
          <Trackpoint>
            <Time>2022-04-23T15:09:08.000Z</Time>
            <Position>
              <LatitudeDegrees>41.737589947879314422607421875</LatitudeDegrees>
              <LongitudeDegrees>-0.14421005733311176300048828125</LongitudeDegrees>
            </Position>
            <AltitudeMeters>241.8000030517578125</AltitudeMeters>
            <DistanceMeters>111285.29073598</DistanceMeters>
          </Trackpoint>
          <Trackpoint>
            <Time>2022-04-23T15:09:11.000Z</Time>
            <Position>
              <LatitudeDegrees>41.73779941163957118988037109375</LatitudeDegrees>
              <LongitudeDegrees>-0.14419916085898876190185546875</LongitudeDegrees>
            </Position>
            <AltitudeMeters>242</AltitudeMeters>
            <DistanceMeters>111308.62206831</DistanceMeters>
          </Trackpoint>
          <Trackpoint>
            <Time>2022-04-23T15:09:16.000Z</Time>
            <Position>
              <LatitudeDegrees>41.73813946545124053955078125</LatitudeDegrees>
              <LongitudeDegrees>-0.1441927067935466766357421875</LongitudeDegrees>
            </Position>
            <AltitudeMeters>242.1999969482421875</AltitudeMeters>
            <DistanceMeters>111346.47444247</DistanceMeters>
          </Trackpoint>
          <Trackpoint>
            <Time>2022-04-23T15:09:23.000Z</Time>
            <Position>
              <LatitudeDegrees>41.738618910312652587890625</LatitudeDegrees>
              <LongitudeDegrees>-0.14417032711207866668701171875</LongitudeDegrees>
            </Position>
            <AltitudeMeters>242.1999969482421875</AltitudeMeters>
            <DistanceMeters>111399.86998625</DistanceMeters>
          </Trackpoint>
          <Trackpoint>
            <Time>2022-04-23T15:09:24.000Z</Time>
            <Position>
              <LatitudeDegrees>41.738687641918659210205078125</LatitudeDegrees>
              <LongitudeDegrees>-0.14417208731174468994140625</LongitudeDegrees>
            </Position>
            <AltitudeMeters>242.1999969482421875</AltitudeMeters>
            <DistanceMeters>111407.52125971</DistanceMeters>
          </Trackpoint>
          <Trackpoint>
            <Time>2022-04-23T15:09:30.000Z</Time>
            <Position>
              <LatitudeDegrees>41.73910439014434814453125</LatitudeDegrees>
              <LongitudeDegrees>-0.1441551558673381805419921875</LongitudeDegrees>
            </Position>
            <AltitudeMeters>242.600006103515625</AltitudeMeters>
            <DistanceMeters>111453.92758267</DistanceMeters>
          </Trackpoint>
          <Trackpoint>
            <Time>2022-04-23T15:09:39.000Z</Time>
            <Position>
              <LatitudeDegrees>41.7396976612508296966552734375</LatitudeDegrees>
              <LongitudeDegrees>-0.14412841759622097015380859375</LongitudeDegrees>
            </Position>
            <AltitudeMeters>242.600006103515625</AltitudeMeters>
            <DistanceMeters>111519.99719092</DistanceMeters>
          </Trackpoint>
          <Trackpoint>
            <Time>2022-04-23T15:09:41.000Z</Time>
            <Position>
              <LatitudeDegrees>41.73982950858771800994873046875</LatitudeDegrees>
              <LongitudeDegrees>-0.14412087388336658477783203125</LongitudeDegrees>
            </Position>
            <AltitudeMeters>242.600006103515625</AltitudeMeters>
            <DistanceMeters>111534.68550554</DistanceMeters>
          </Trackpoint>
          <Trackpoint>
            <Time>2022-04-23T15:09:50.000Z</Time>
            <Position>
              <LatitudeDegrees>41.74042982049286365509033203125</LatitudeDegrees>
              <LongitudeDegrees>-0.144098661839962005615234375</LongitudeDegrees>
            </Position>
            <AltitudeMeters>242.8000030517578125</AltitudeMeters>
            <DistanceMeters>111601.52692086</DistanceMeters>
          </Trackpoint>
          <Trackpoint>
            <Time>2022-04-23T15:09:51.000Z</Time>
            <Position>
              <LatitudeDegrees>41.74049352295696735382080078125</LatitudeDegrees>
              <LongitudeDegrees>-0.144093297421932220458984375</LongitudeDegrees>
            </Position>
            <AltitudeMeters>243</AltitudeMeters>
            <DistanceMeters>111608.63108142</DistanceMeters>
          </Trackpoint>
          <Trackpoint>
            <Time>2022-04-23T15:09:55.000Z</Time>
            <Position>
              <LatitudeDegrees>41.74076668918132781982421875</LatitudeDegrees>
              <LongitudeDegrees>-0.1440797187387943267822265625</LongitudeDegrees>
            </Position>
            <AltitudeMeters>243.1999969482421875</AltitudeMeters>
            <DistanceMeters>111639.05580995</DistanceMeters>
          </Trackpoint>
          <Trackpoint>
            <Time>2022-04-23T15:09:56.000Z</Time>
            <Position>
              <LatitudeDegrees>41.7408201657235622406005859375</LatitudeDegrees>
              <LongitudeDegrees>-0.1440767012536525726318359375</LongitudeDegrees>
            </Position>
            <AltitudeMeters>243.1999969482421875</AltitudeMeters>
            <DistanceMeters>111645.01300731</DistanceMeters>
          </Trackpoint>
          <Trackpoint>
            <Time>2022-04-23T15:09:59.000Z</Time>
            <Position>
              <LatitudeDegrees>41.7410317249596118927001953125</LatitudeDegrees>
              <LongitudeDegrees>-0.1440669782459735870361328125</LongitudeDegrees>
            </Position>
            <AltitudeMeters>243.1999969482421875</AltitudeMeters>
            <DistanceMeters>111668.57388419</DistanceMeters>
          </Trackpoint>
          <Trackpoint>
            <Time>2022-04-23T15:10:08.000Z</Time>
            <Position>
              <LatitudeDegrees>41.74159171991050243377685546875</LatitudeDegrees>
              <LongitudeDegrees>-0.1440384797751903533935546875</LongitudeDegrees>
            </Position>
            <AltitudeMeters>242.8000030517578125</AltitudeMeters>
            <DistanceMeters>111730.94732321</DistanceMeters>
          </Trackpoint>
          <Trackpoint>
            <Time>2022-04-23T15:10:10.000Z</Time>
            <Position>
              <LatitudeDegrees>41.741720549762248992919921875</LatitudeDegrees>
              <LongitudeDegrees>-0.1440347917377948760986328125</LongitudeDegrees>
            </Position>
            <AltitudeMeters>243</AltitudeMeters>
            <DistanceMeters>111745.28974774</DistanceMeters>
          </Trackpoint>
          <Trackpoint>
            <Time>2022-04-23T15:10:19.000Z</Time>
            <Position>
              <LatitudeDegrees>41.7422869987785816192626953125</LatitudeDegrees>
              <LongitudeDegrees>-0.14400285668671131134033203125</LongitudeDegrees>
            </Position>
            <AltitudeMeters>243.399993896484375</AltitudeMeters>
            <DistanceMeters>111808.39235172</DistanceMeters>
          </Trackpoint>
          <Trackpoint>
            <Time>2022-04-23T15:10:28.000Z</Time>
            <Position>
              <LatitudeDegrees>41.7428509332239627838134765625</LatitudeDegrees>
              <LongitudeDegrees>-0.14397821389138698577880859375</LongitudeDegrees>
            </Position>
            <AltitudeMeters>244.1999969482421875</AltitudeMeters>
            <DistanceMeters>111871.19271706</DistanceMeters>
          </Trackpoint>
          <Trackpoint>
            <Time>2022-04-23T15:10:31.000Z</Time>
            <Position>
              <LatitudeDegrees>41.7430217564105987548828125</LatitudeDegrees>
              <LongitudeDegrees>-0.1439731009304523468017578125</LongitudeDegrees>
            </Position>
            <AltitudeMeters>244.1999969482421875</AltitudeMeters>
            <DistanceMeters>111890.21040939</DistanceMeters>
          </Trackpoint>
          <Trackpoint>
            <Time>2022-04-23T15:10:37.000Z</Time>
            <Position>
              <LatitudeDegrees>41.74336750991642475128173828125</LatitudeDegrees>
              <LongitudeDegrees>-0.1439576782286167144775390625</LongitudeDegrees>
            </Position>
            <AltitudeMeters>244.1999969482421875</AltitudeMeters>
            <DistanceMeters>111928.71464306</DistanceMeters>
          </Trackpoint>
          <Trackpoint>
            <Time>2022-04-23T15:10:40.000Z</Time>
            <Position>
              <LatitudeDegrees>41.74354604445397853851318359375</LatitudeDegrees>
              <LongitudeDegrees>-0.143937729299068450927734375</LongitudeDegrees>
            </Position>
            <AltitudeMeters>244.600006103515625</AltitudeMeters>
            <DistanceMeters>111948.65486187</DistanceMeters>
          </Trackpoint>
          <Trackpoint>
            <Time>2022-04-23T15:10:46.000Z</Time>
            <Position>
              <LatitudeDegrees>41.74390898086130619049072265625</LatitudeDegrees>
              <LongitudeDegrees>-0.1439273357391357421875</LongitudeDegrees>
            </Position>
            <AltitudeMeters>245.1999969482421875</AltitudeMeters>
            <DistanceMeters>111989.05965763</DistanceMeters>
          </Trackpoint>
          <Trackpoint>
            <Time>2022-04-23T15:10:47.000Z</Time>
            <Position>
              <LatitudeDegrees>41.74397201277315616607666015625</LatitudeDegrees>
              <LongitudeDegrees>-0.1439288444817066192626953125</LongitudeDegrees>
            </Position>
            <AltitudeMeters>245.600006103515625</AltitudeMeters>
            <DistanceMeters>111996.07620783</DistanceMeters>
          </Trackpoint>
          <Trackpoint>
            <Time>2022-04-23T15:10:51.000Z</Time>
            <Position>
              <LatitudeDegrees>41.7442207038402557373046875</LatitudeDegrees>
              <LongitudeDegrees>-0.14392004348337650299072265625</LongitudeDegrees>
            </Position>
            <AltitudeMeters>246.399993896484375</AltitudeMeters>
            <DistanceMeters>112023.76553141</DistanceMeters>
          </Trackpoint>
          <Trackpoint>
            <Time>2022-04-23T15:10:54.000Z</Time>
            <Position>
              <LatitudeDegrees>41.7444035969674587249755859375</LatitudeDegrees>
              <LongitudeDegrees>-0.14391333796083927154541015625</LongitudeDegrees>
            </Position>
            <AltitudeMeters>246.600006103515625</AltitudeMeters>
            <DistanceMeters>112044.12964766</DistanceMeters>
          </Trackpoint>
          <Trackpoint>
            <Time>2022-04-23T15:11:01.000Z</Time>
            <Position>
              <LatitudeDegrees>41.74483752809464931488037109375</LatitudeDegrees>
              <LongitudeDegrees>-0.14388299547135829925537109375</LongitudeDegrees>
            </Position>
            <AltitudeMeters>246.600006103515625</AltitudeMeters>
            <DistanceMeters>112092.49273752</DistanceMeters>
          </Trackpoint>
          <Trackpoint>
            <Time>2022-04-23T15:11:08.000Z</Time>
            <Position>
              <LatitudeDegrees>41.7452897317707538604736328125</LatitudeDegrees>
              <LongitudeDegrees>-0.14387025497853755950927734375</LongitudeDegrees>
            </Position>
            <AltitudeMeters>246.399993896484375</AltitudeMeters>
            <DistanceMeters>112142.83501731</DistanceMeters>
          </Trackpoint>
          <Trackpoint>
            <Time>2022-04-23T15:11:10.000Z</Time>
            <Position>
              <LatitudeDegrees>41.745404563844203948974609375</LatitudeDegrees>
              <LongitudeDegrees>-0.143855251371860504150390625</LongitudeDegrees>
            </Position>
            <AltitudeMeters>246.8000030517578125</AltitudeMeters>
            <DistanceMeters>112155.67663933</DistanceMeters>
          </Trackpoint>
          <Trackpoint>
            <Time>2022-04-23T15:11:14.000Z</Time>
            <Position>
              <LatitudeDegrees>41.74566515721380710601806640625</LatitudeDegrees>
              <LongitudeDegrees>-0.1438567601144313812255859375</LongitudeDegrees>
            </Position>
            <AltitudeMeters>246.8000030517578125</AltitudeMeters>
            <DistanceMeters>112184.68143276</DistanceMeters>
          </Trackpoint>
          <Trackpoint>
            <Time>2022-04-23T15:11:19.000Z</Time>
            <Position>
              <LatitudeDegrees>41.7459431849420070648193359375</LatitudeDegrees>
              <LongitudeDegrees>-0.143842510879039764404296875</LongitudeDegrees>
            </Position>
            <AltitudeMeters>247</AltitudeMeters>
            <DistanceMeters>112215.64906293</DistanceMeters>
          </Trackpoint>
          <Trackpoint>
            <Time>2022-04-23T15:11:25.000Z</Time>
            <Position>
              <LatitudeDegrees>41.746306121349334716796875</LatitudeDegrees>
              <LongitudeDegrees>-0.1438232325017452239990234375</LongitudeDegrees>
            </Position>
            <AltitudeMeters>246.600006103515625</AltitudeMeters>
            <DistanceMeters>112256.07620153</DistanceMeters>
          </Trackpoint>
          <Trackpoint>
            <Time>2022-04-23T15:11:27.000Z</Time>
            <Position>
              <LatitudeDegrees>41.74641072750091552734375</LatitudeDegrees>
              <LongitudeDegrees>-0.1438200473785400390625</LongitudeDegrees>
            </Position>
            <AltitudeMeters>246.399993896484375</AltitudeMeters>
            <DistanceMeters>112267.72191826</DistanceMeters>
          </Trackpoint>
          <Trackpoint>
            <Time>2022-04-23T15:11:34.000Z</Time>
            <Position>
              <LatitudeDegrees>41.746837198734283447265625</LatitudeDegrees>
              <LongitudeDegrees>-0.143792890012264251708984375</LongitudeDegrees>
            </Position>
            <AltitudeMeters>246.8000030517578125</AltitudeMeters>
            <DistanceMeters>112315.24249693</DistanceMeters>
          </Trackpoint>
          <Trackpoint>
            <Time>2022-04-23T15:11:42.000Z</Time>
            <Position>
              <LatitudeDegrees>41.74732209183275699615478515625</LatitudeDegrees>
              <LongitudeDegrees>-0.14377319253981113433837890625</LongitudeDegrees>
            </Position>
            <AltitudeMeters>247.1999969482421875</AltitudeMeters>
            <DistanceMeters>112369.23690682</DistanceMeters>
          </Trackpoint>
          <Trackpoint>
            <Time>2022-04-23T15:11:51.000Z</Time>
            <Position>
              <LatitudeDegrees>41.74786909483373165130615234375</LatitudeDegrees>
              <LongitudeDegrees>-0.14375776983797550201416015625</LongitudeDegrees>
            </Position>
            <AltitudeMeters>246.8000030517578125</AltitudeMeters>
            <DistanceMeters>112430.13279546</DistanceMeters>
          </Trackpoint>
          <Trackpoint>
            <Time>2022-04-23T15:11:52.000Z</Time>
            <Position>
              <LatitudeDegrees>41.7479283548891544342041015625</LatitudeDegrees>
              <LongitudeDegrees>-0.14375726692378520965576171875</LongitudeDegrees>
            </Position>
            <AltitudeMeters>246.8000030517578125</AltitudeMeters>
            <DistanceMeters>112436.72808758</DistanceMeters>
          </Trackpoint>
          <Trackpoint>
            <Time>2022-04-23T15:11:58.000Z</Time>
            <Position>
              <LatitudeDegrees>41.74829020164906978607177734375</LatitudeDegrees>
              <LongitudeDegrees>-0.14374427497386932373046875</LongitudeDegrees>
            </Position>
            <AltitudeMeters>247.399993896484375</AltitudeMeters>
            <DistanceMeters>112477.01683702</DistanceMeters>
          </Trackpoint>
          <Trackpoint>
            <Time>2022-04-23T15:12:07.000Z</Time>
            <Position>
              <LatitudeDegrees>41.7488466762006282806396484375</LatitudeDegrees>
              <LongitudeDegrees>-0.14372055418789386749267578125</LongitudeDegrees>
            </Position>
            <AltitudeMeters>247</AltitudeMeters>
            <DistanceMeters>112538.98489337</DistanceMeters>
          </Trackpoint>
          <Trackpoint>
            <Time>2022-04-23T15:12:09.000Z</Time>
            <Position>
              <LatitudeDegrees>41.74896880052983760833740234375</LatitudeDegrees>
              <LongitudeDegrees>-0.14371401630342006683349609375</LongitudeDegrees>
            </Position>
            <AltitudeMeters>247</AltitudeMeters>
            <DistanceMeters>112552.58832516</DistanceMeters>
          </Trackpoint>
          <Trackpoint>
            <Time>2022-04-23T15:12:18.000Z</Time>
            <Position>
              <LatitudeDegrees>41.74953340552747249603271484375</LatitudeDegrees>
              <LongitudeDegrees>-0.143679566681385040283203125</LongitudeDegrees>
            </Position>
            <AltitudeMeters>247.600006103515625</AltitudeMeters>
            <DistanceMeters>112615.49500525</DistanceMeters>
          </Trackpoint>
          <Trackpoint>
            <Time>2022-04-23T15:12:19.000Z</Time>
            <Position>
              <LatitudeDegrees>41.749595515429973602294921875</LatitudeDegrees>
              <LongitudeDegrees>-0.1436787284910678863525390625</LongitudeDegrees>
            </Position>
            <AltitudeMeters>247.8000030517578125</AltitudeMeters>
            <DistanceMeters>112622.4091375</DistanceMeters>
          </Trackpoint>
          <Trackpoint>
            <Time>2022-04-23T15:12:20.000Z</Time>
            <Position>
              <LatitudeDegrees>41.74965729005634784698486328125</LatitudeDegrees>
              <LongitudeDegrees>-0.14367830939590930938720703125</LongitudeDegrees>
            </Position>
            <AltitudeMeters>247.8000030517578125</AltitudeMeters>
            <DistanceMeters>112629.28529051</DistanceMeters>
          </Trackpoint>
          <Trackpoint>
            <Time>2022-04-23T15:12:29.000Z</Time>
            <Position>
              <LatitudeDegrees>41.75020010210573673248291015625</LatitudeDegrees>
              <LongitudeDegrees>-0.1436549238860607147216796875</LongitudeDegrees>
            </Position>
            <AltitudeMeters>247.8000030517578125</AltitudeMeters>
            <DistanceMeters>112689.73258947</DistanceMeters>
          </Trackpoint>
          <Trackpoint>
            <Time>2022-04-23T15:12:32.000Z</Time>
            <Position>
              <LatitudeDegrees>41.7503845877945423126220703125</LatitudeDegrees>
              <LongitudeDegrees>-0.1436462067067623138427734375</LongitudeDegrees>
            </Position>
            <AltitudeMeters>247.8000030517578125</AltitudeMeters>
            <DistanceMeters>112710.27902648</DistanceMeters>
          </Trackpoint>
          <Trackpoint>
            <Time>2022-04-23T15:12:34.000Z</Time>
            <Position>
              <LatitudeDegrees>41.750508807599544525146484375</LatitudeDegrees>
              <LongitudeDegrees>-0.14363220892846584320068359375</LongitudeDegrees>
            </Position>
            <AltitudeMeters>248.1999969482421875</AltitudeMeters>
            <DistanceMeters>112724.15357763</DistanceMeters>
          </Trackpoint>
          <Trackpoint>
            <Time>2022-04-23T15:12:35.000Z</Time>
            <Position>
              <LatitudeDegrees>41.7505713365972042083740234375</LatitudeDegrees>
              <LongitudeDegrees>-0.14362500049173831939697265625</LongitudeDegrees>
            </Position>
            <AltitudeMeters>248.399993896484375</AltitudeMeters>
            <DistanceMeters>112731.13981862</DistanceMeters>
          </Trackpoint>
          <Trackpoint>
            <Time>2022-04-23T15:12:40.000Z</Time>
            <Position>
              <LatitudeDegrees>41.75091373734176158905029296875</LatitudeDegrees>
              <LongitudeDegrees>-0.14360488392412662506103515625</LongitudeDegrees>
            </Position>
            <AltitudeMeters>248.399993896484375</AltitudeMeters>
            <DistanceMeters>112769.28638726</DistanceMeters>
          </Trackpoint>
          <Trackpoint>
            <Time>2022-04-23T15:12:46.000Z</Time>
            <Position>
              <LatitudeDegrees>41.75133082084357738494873046875</LatitudeDegrees>
              <LongitudeDegrees>-0.14360211789608001708984375</LongitudeDegrees>
            </Position>
            <AltitudeMeters>248.399993896484375</AltitudeMeters>
            <DistanceMeters>112815.70905267</DistanceMeters>
          </Trackpoint>
          <Trackpoint>
            <Time>2022-04-23T15:12:53.000Z</Time>
            <Position>
              <LatitudeDegrees>41.75178495235741138458251953125</LatitudeDegrees>
              <LongitudeDegrees>-0.1435690931975841522216796875</LongitudeDegrees>
            </Position>
            <AltitudeMeters>248.8000030517578125</AltitudeMeters>
            <DistanceMeters>112866.32913319</DistanceMeters>
          </Trackpoint>
          <Trackpoint>
            <Time>2022-04-23T15:12:59.000Z</Time>
            <Position>
              <LatitudeDegrees>41.75213162787258625030517578125</LatitudeDegrees>
              <LongitudeDegrees>-0.1435375772416591644287109375</LongitudeDegrees>
            </Position>
            <AltitudeMeters>248.8000030517578125</AltitudeMeters>
            <DistanceMeters>112905.00348828</DistanceMeters>
          </Trackpoint>
          <Trackpoint>
            <Time>2022-04-23T15:13:06.000Z</Time>
            <Position>
              <LatitudeDegrees>41.75255927257239818572998046875</LatitudeDegrees>
              <LongitudeDegrees>-0.14345459640026092529296875</LongitudeDegrees>
            </Position>
            <AltitudeMeters>249</AltitudeMeters>
            <DistanceMeters>112953.09723976</DistanceMeters>
          </Trackpoint>
          <Trackpoint>
            <Time>2022-04-23T15:13:13.000Z</Time>
            <Position>
              <LatitudeDegrees>41.75298909656703472137451171875</LatitudeDegrees>
              <LongitudeDegrees>-0.1433833502233028411865234375</LongitudeDegrees>
            </Position>
            <AltitudeMeters>249.399993896484375</AltitudeMeters>
            <DistanceMeters>113001.30192325</DistanceMeters>
          </Trackpoint>
          <Trackpoint>
            <Time>2022-04-23T15:13:15.000Z</Time>
            <Position>
              <LatitudeDegrees>41.75311096943914890289306640625</LatitudeDegrees>
              <LongitudeDegrees>-0.143363066017627716064453125</LongitudeDegrees>
            </Position>
            <AltitudeMeters>249.600006103515625</AltitudeMeters>
            <DistanceMeters>113014.97058382</DistanceMeters>
          </Trackpoint>
          <Trackpoint>
            <Time>2022-04-23T15:13:22.000Z</Time>
            <Position>
              <LatitudeDegrees>41.7535422183573246002197265625</LatitudeDegrees>
              <LongitudeDegrees>-0.14329207129776477813720703125</LongitudeDegrees>
            </Position>
            <AltitudeMeters>250</AltitudeMeters>
            <DistanceMeters>113063.33012598</DistanceMeters>
          </Trackpoint>
          <Trackpoint>
            <Time>2022-04-23T15:13:30.000Z</Time>
            <Position>
              <LatitudeDegrees>41.75405074842274188995361328125</LatitudeDegrees>
              <LongitudeDegrees>-0.14321126975119113922119140625</LongitudeDegrees>
            </Position>
            <AltitudeMeters>250</AltitudeMeters>
            <DistanceMeters>113120.32682923</DistanceMeters>
          </Trackpoint>
          <Trackpoint>
            <Time>2022-04-23T15:13:36.000Z</Time>
            <Position>
              <LatitudeDegrees>41.75444000400602817535400390625</LatitudeDegrees>
              <LongitudeDegrees>-0.143147818744182586669921875</LongitudeDegrees>
            </Position>
            <AltitudeMeters>250</AltitudeMeters>
            <DistanceMeters>113163.97089326</DistanceMeters>
          </Trackpoint>
          <Trackpoint>
            <Time>2022-04-23T15:13:38.000Z</Time>
            <Position>
              <LatitudeDegrees>41.754571013152599334716796875</LatitudeDegrees>
              <LongitudeDegrees>-0.1431409455835819244384765625</LongitudeDegrees>
            </Position>
            <AltitudeMeters>249.600006103515625</AltitudeMeters>
            <DistanceMeters>113178.56360591</DistanceMeters>
          </Trackpoint>
          <Trackpoint>
            <Time>2022-04-23T15:13:44.000Z</Time>
            <Position>
              <LatitudeDegrees>41.75496186129748821258544921875</LatitudeDegrees>
              <LongitudeDegrees>-0.14309677295386791229248046875</LongitudeDegrees>
            </Position>
            <AltitudeMeters>250.1999969482421875</AltitudeMeters>
            <DistanceMeters>113222.22008234</DistanceMeters>
          </Trackpoint>
          <Trackpoint>
            <Time>2022-04-23T15:13:45.000Z</Time>
            <Position>
              <LatitudeDegrees>41.75502556376159191131591796875</LatitudeDegrees>
              <LongitudeDegrees>-0.14308436773717403411865234375</LongitudeDegrees>
            </Position>
            <AltitudeMeters>250.1999969482421875</AltitudeMeters>
            <DistanceMeters>113229.38436559</DistanceMeters>
          </Trackpoint>
          <Trackpoint>
            <Time>2022-04-23T15:13:51.000Z</Time>
            <Position>
              <LatitudeDegrees>41.75540928728878498077392578125</LatitudeDegrees>
              <LongitudeDegrees>-0.14299769885838031768798828125</LongitudeDegrees>
            </Position>
            <AltitudeMeters>250.399993896484375</AltitudeMeters>
            <DistanceMeters>113272.6955989</DistanceMeters>
          </Trackpoint>
          <Trackpoint>
            <Time>2022-04-23T15:13:53.000Z</Time>
            <Position>
              <LatitudeDegrees>41.75553685985505580902099609375</LatitudeDegrees>
              <LongitudeDegrees>-0.14297221787273883819580078125</LongitudeDegrees>
            </Position>
            <AltitudeMeters>250.399993896484375</AltitudeMeters>
            <DistanceMeters>113287.05186808</DistanceMeters>
          </Trackpoint>
          <Trackpoint>
            <Time>2022-04-23T15:13:59.000Z</Time>
            <Position>
              <LatitudeDegrees>41.75591404549777507781982421875</LatitudeDegrees>
              <LongitudeDegrees>-0.14292888343334197998046875</LongitudeDegrees>
            </Position>
            <AltitudeMeters>250.600006103515625</AltitudeMeters>
            <DistanceMeters>113329.18729616</DistanceMeters>
          </Trackpoint>
          <Trackpoint>
            <Time>2022-04-23T15:14:05.000Z</Time>
            <Position>
              <LatitudeDegrees>41.75626994110643863677978515625</LatitudeDegrees>
              <LongitudeDegrees>-0.14287934638559818267822265625</LongitudeDegrees>
            </Position>
            <AltitudeMeters>250</AltitudeMeters>
            <DistanceMeters>113369.01222009</DistanceMeters>
          </Trackpoint>
          <Trackpoint>
            <Time>2022-04-23T15:14:11.000Z</Time>
            <Position>
              <LatitudeDegrees>41.75663530826568603515625</LatitudeDegrees>
              <LongitudeDegrees>-0.1428110338747501373291015625</LongitudeDegrees>
            </Position>
            <AltitudeMeters>249.8000030517578125</AltitudeMeters>
            <DistanceMeters>113410.07211868</DistanceMeters>
          </Trackpoint>
          <Trackpoint>
            <Time>2022-04-23T15:14:14.000Z</Time>
            <Position>
              <LatitudeDegrees>41.75681359134614467620849609375</LatitudeDegrees>
              <LongitudeDegrees>-0.14279619790613651275634765625</LongitudeDegrees>
            </Position>
            <AltitudeMeters>250.399993896484375</AltitudeMeters>
            <DistanceMeters>113429.95383305</DistanceMeters>
          </Trackpoint>
          <Trackpoint>
            <Time>2022-04-23T15:14:18.000Z</Time>
            <Position>
              <LatitudeDegrees>41.7570425011217594146728515625</LatitudeDegrees>
              <LongitudeDegrees>-0.1427456550300121307373046875</LongitudeDegrees>
            </Position>
            <AltitudeMeters>250.600006103515625</AltitudeMeters>
            <DistanceMeters>113455.77523356</DistanceMeters>
          </Trackpoint>
          <Trackpoint>
            <Time>2022-04-23T15:14:26.000Z</Time>
            <Position>
              <LatitudeDegrees>41.7575440742075443267822265625</LatitudeDegrees>
              <LongitudeDegrees>-0.14265303499996662139892578125</LongitudeDegrees>
            </Position>
            <AltitudeMeters>251</AltitudeMeters>
            <DistanceMeters>113512.12855896</DistanceMeters>
          </Trackpoint>
          <Trackpoint>
            <Time>2022-04-23T15:14:34.000Z</Time>
            <Position>
              <LatitudeDegrees>41.75807137973606586456298828125</LatitudeDegrees>
              <LongitudeDegrees>-0.14256276190280914306640625</LongitudeDegrees>
            </Position>
            <AltitudeMeters>251.1999969482421875</AltitudeMeters>
            <DistanceMeters>113571.29541476</DistanceMeters>
          </Trackpoint>
          <Trackpoint>
            <Time>2022-04-23T15:14:39.000Z</Time>
            <Position>
              <LatitudeDegrees>41.75839743576943874359130859375</LatitudeDegrees>
              <LongitudeDegrees>-0.14253669418394565582275390625</LongitudeDegrees>
            </Position>
            <AltitudeMeters>251.1999969482421875</AltitudeMeters>
            <DistanceMeters>113607.65055427</DistanceMeters>
          </Trackpoint>
          <Trackpoint>
            <Time>2022-04-23T15:14:41.000Z</Time>
            <Position>
              <LatitudeDegrees>41.75849516876041889190673828125</LatitudeDegrees>
              <LongitudeDegrees>-0.1425592415034770965576171875</LongitudeDegrees>
            </Position>
            <AltitudeMeters>251</AltitudeMeters>
            <DistanceMeters>113618.68838881</DistanceMeters>
          </Trackpoint>
          <Trackpoint>
            <Time>2022-04-23T15:14:43.000Z</Time>
            <Position>
              <LatitudeDegrees>41.75859021954238414764404296875</LatitudeDegrees>
              <LongitudeDegrees>-0.14261045493185520172119140625</LongitudeDegrees>
            </Position>
            <AltitudeMeters>251</AltitudeMeters>
            <DistanceMeters>113630.09001065</DistanceMeters>
          </Trackpoint>
          <Trackpoint>
            <Time>2022-04-23T15:14:47.000Z</Time>
            <Position>
              <LatitudeDegrees>41.758737154304981231689453125</LatitudeDegrees>
              <LongitudeDegrees>-0.14276518486440181732177734375</LongitudeDegrees>
            </Position>
            <AltitudeMeters>250.8000030517578125</AltitudeMeters>
            <DistanceMeters>113650.88675418</DistanceMeters>
          </Trackpoint>
          <Trackpoint>
            <Time>2022-04-23T15:14:48.000Z</Time>
            <Position>
              <LatitudeDegrees>41.758780740201473236083984375</LatitudeDegrees>
              <LongitudeDegrees>-0.14279385097324848175048828125</LongitudeDegrees>
            </Position>
            <AltitudeMeters>250.8000030517578125</AltitudeMeters>
            <DistanceMeters>113656.29075892</DistanceMeters>
          </Trackpoint>
          <Trackpoint>
            <Time>2022-04-23T15:14:50.000Z</Time>
            <Position>
              <LatitudeDegrees>41.758879311382770538330078125</LatitudeDegrees>
              <LongitudeDegrees>-0.1428499259054660797119140625</LongitudeDegrees>
            </Position>
            <AltitudeMeters>251</AltitudeMeters>
            <DistanceMeters>113668.20970025</DistanceMeters>
          </Trackpoint>
          <Trackpoint>
            <Time>2022-04-23T15:14:53.000Z</Time>
            <Position>
              <LatitudeDegrees>41.7590367235243320465087890625</LatitudeDegrees>
              <LongitudeDegrees>-0.14295696280896663665771484375</LongitudeDegrees>
            </Position>
            <AltitudeMeters>251.1999969482421875</AltitudeMeters>
            <DistanceMeters>113687.85496526</DistanceMeters>
          </Trackpoint>
          <Trackpoint>
            <Time>2022-04-23T15:14:54.000Z</Time>
            <Position>
              <LatitudeDegrees>41.75909313373267650604248046875</LatitudeDegrees>
              <LongitudeDegrees>-0.14298596419394016265869140625</LongitudeDegrees>
            </Position>
            <AltitudeMeters>251.399993896484375</AltitudeMeters>
            <DistanceMeters>113694.57974205</DistanceMeters>
          </Trackpoint>
          <Trackpoint>
            <Time>2022-04-23T15:14:56.000Z</Time>
            <Position>
              <LatitudeDegrees>41.75920813344419002532958984375</LatitudeDegrees>
              <LongitudeDegrees>-0.1430360041558742523193359375</LongitudeDegrees>
            </Position>
            <AltitudeMeters>251.600006103515625</AltitudeMeters>
            <DistanceMeters>113708.03667903</DistanceMeters>
          </Trackpoint>
          <Trackpoint>
            <Time>2022-04-23T15:14:57.000Z</Time>
            <Position>
              <LatitudeDegrees>41.7592637054622173309326171875</LatitudeDegrees>
              <LongitudeDegrees>-0.14304748736321926116943359375</LongitudeDegrees>
            </Position>
            <AltitudeMeters>251.600006103515625</AltitudeMeters>
            <DistanceMeters>113714.29547058</DistanceMeters>
          </Trackpoint>
          <Trackpoint>
            <Time>2022-04-23T15:14:59.000Z</Time>
            <Position>
              <LatitudeDegrees>41.75937225110828876495361328125</LatitudeDegrees>
              <LongitudeDegrees>-0.14304379932582378387451171875</LongitudeDegrees>
            </Position>
            <AltitudeMeters>251.8000030517578125</AltitudeMeters>
            <DistanceMeters>113726.38068702</DistanceMeters>
          </Trackpoint>
          <Trackpoint>
            <Time>2022-04-23T15:15:00.000Z</Time>
            <Position>
              <LatitudeDegrees>41.75942354835569858551025390625</LatitudeDegrees>
              <LongitudeDegrees>-0.14304463751614093780517578125</LongitudeDegrees>
            </Position>
            <AltitudeMeters>251.600006103515625</AltitudeMeters>
            <DistanceMeters>113732.09178465</DistanceMeters>
          </Trackpoint>
          <Trackpoint>
            <Time>2022-04-23T15:15:02.000Z</Time>
            <Position>
              <LatitudeDegrees>41.7595097981393337249755859375</LatitudeDegrees>
              <LongitudeDegrees>-0.1430956833064556121826171875</LongitudeDegrees>
            </Position>
            <AltitudeMeters>251.1999969482421875</AltitudeMeters>
            <DistanceMeters>113742.58567726</DistanceMeters>
          </Trackpoint>
          <Trackpoint>
            <Time>2022-04-23T15:15:04.000Z</Time>
            <Position>
              <LatitudeDegrees>41.7596053518354892730712890625</LatitudeDegrees>
              <LongitudeDegrees>-0.14321210794150829315185546875</LongitudeDegrees>
            </Position>
            <AltitudeMeters>251</AltitudeMeters>
            <DistanceMeters>113756.95734865</DistanceMeters>
          </Trackpoint>
          <Trackpoint>
            <Time>2022-04-23T15:15:06.000Z</Time>
            <Position>
              <LatitudeDegrees>41.7596616782248020172119140625</LatitudeDegrees>
              <LongitudeDegrees>-0.14333616010844707489013671875</LongitudeDegrees>
            </Position>
            <AltitudeMeters>251</AltitudeMeters>
            <DistanceMeters>113769.01488699</DistanceMeters>
          </Trackpoint>
          <Trackpoint>
            <Time>2022-04-23T15:15:10.000Z</Time>
            <Position>
              <LatitudeDegrees>41.7597910948097705841064453125</LatitudeDegrees>
              <LongitudeDegrees>-0.143597759306430816650390625</LongitudeDegrees>
            </Position>
            <AltitudeMeters>250.8000030517578125</AltitudeMeters>
            <DistanceMeters>113795.07647231</DistanceMeters>
          </Trackpoint>
          <Trackpoint>
            <Time>2022-04-23T15:15:11.000Z</Time>
            <Position>
              <LatitudeDegrees>41.75984649918973445892333984375</LatitudeDegrees>
              <LongitudeDegrees>-0.14365375041961669921875</LongitudeDegrees>
            </Position>
            <AltitudeMeters>250.8000030517578125</AltitudeMeters>
            <DistanceMeters>113802.79881813</DistanceMeters>
          </Trackpoint>
          <Trackpoint>
            <Time>2022-04-23T15:15:12.000Z</Time>
            <Position>
              <LatitudeDegrees>41.759898550808429718017578125</LatitudeDegrees>
              <LongitudeDegrees>-0.1436827518045902252197265625</LongitudeDegrees>
            </Position>
            <AltitudeMeters>250.8000030517578125</AltitudeMeters>
            <DistanceMeters>113809.0727406</DistanceMeters>
          </Trackpoint>
          <Trackpoint>
            <Time>2022-04-23T15:15:14.000Z</Time>
            <Position>
              <LatitudeDegrees>41.76001061685383319854736328125</LatitudeDegrees>
              <LongitudeDegrees>-0.14371116645634174346923828125</LongitudeDegrees>
            </Position>
            <AltitudeMeters>250.8000030517578125</AltitudeMeters>
            <DistanceMeters>113821.76690123</DistanceMeters>
          </Trackpoint>
          <Trackpoint>
            <Time>2022-04-23T15:15:15.000Z</Time>
            <Position>
              <LatitudeDegrees>41.76005722023546695709228515625</LatitudeDegrees>
              <LongitudeDegrees>-0.14371342957019805908203125</LongitudeDegrees>
            </Position>
            <AltitudeMeters>250.8000030517578125</AltitudeMeters>
            <DistanceMeters>113826.95783064</DistanceMeters>
          </Trackpoint>
          <Trackpoint>
            <Time>2022-04-23T15:15:20.000Z</Time>
            <Position>
              <LatitudeDegrees>41.76035352051258087158203125</LatitudeDegrees>
              <LongitudeDegrees>-0.1437545008957386016845703125</LongitudeDegrees>
            </Position>
            <AltitudeMeters>251</AltitudeMeters>
            <DistanceMeters>113860.11262269</DistanceMeters>
          </Trackpoint>
          <Trackpoint>
            <Time>2022-04-23T15:15:21.000Z</Time>
            <Position>
              <LatitudeDegrees>41.760409176349639892578125</LatitudeDegrees>
              <LongitudeDegrees>-0.14377637766301631927490234375</LongitudeDegrees>
            </Position>
            <AltitudeMeters>251</AltitudeMeters>
            <DistanceMeters>113866.56884704</DistanceMeters>
          </Trackpoint>
          <Trackpoint>
            <Time>2022-04-23T15:15:31.000Z</Time>
            <Position>
              <LatitudeDegrees>41.7609726078808307647705078125</LatitudeDegrees>
              <LongitudeDegrees>-0.14402322471141815185546875</LongitudeDegrees>
            </Position>
            <AltitudeMeters>251.8000030517578125</AltitudeMeters>
            <DistanceMeters>113932.54373982</DistanceMeters>
          </Trackpoint>
          <Trackpoint>
            <Time>2022-04-23T15:15:40.000Z</Time>
            <Position>
              <LatitudeDegrees>41.76144040189683437347412109375</LatitudeDegrees>
              <LongitudeDegrees>-0.14423537068068981170654296875</LongitudeDegrees>
            </Position>
            <AltitudeMeters>252</AltitudeMeters>
            <DistanceMeters>113987.50854188</DistanceMeters>
          </Trackpoint>
          <Trackpoint>
            <Time>2022-04-23T15:15:46.000Z</Time>
            <Position>
              <LatitudeDegrees>41.76177433691918849945068359375</LatitudeDegrees>
              <LongitudeDegrees>-0.14435045421123504638671875</LongitudeDegrees>
            </Position>
            <AltitudeMeters>252.600006103515625</AltitudeMeters>
            <DistanceMeters>114025.8845131</DistanceMeters>
          </Trackpoint>
          <Trackpoint>
            <Time>2022-04-23T15:15:47.000Z</Time>
            <Position>
              <LatitudeDegrees>41.76183083094656467437744140625</LatitudeDegrees>
              <LongitudeDegrees>-0.14438037760555744171142578125</LongitudeDegrees>
            </Position>
            <AltitudeMeters>252.600006103515625</AltitudeMeters>
            <DistanceMeters>114032.64544846</DistanceMeters>
          </Trackpoint>
          <Trackpoint>
            <Time>2022-04-23T15:15:48.000Z</Time>
            <Position>
              <LatitudeDegrees>41.761898137629032135009765625</LatitudeDegrees>
              <LongitudeDegrees>-0.14440803788602352142333984375</LongitudeDegrees>
            </Position>
            <AltitudeMeters>252.600006103515625</AltitudeMeters>
            <DistanceMeters>114040.48039962</DistanceMeters>
          </Trackpoint>
          <Trackpoint>
            <Time>2022-04-23T15:15:50.000Z</Time>
            <Position>
              <LatitudeDegrees>41.762000061571598052978515625</LatitudeDegrees>
              <LongitudeDegrees>-0.1443911902606487274169921875</LongitudeDegrees>
            </Position>
            <AltitudeMeters>252.8000030517578125</AltitudeMeters>
            <DistanceMeters>114051.91010285</DistanceMeters>
          </Trackpoint>
          <Trackpoint>
            <Time>2022-04-23T15:15:53.000Z</Time>
            <Position>
              <LatitudeDegrees>41.762181110680103302001953125</LatitudeDegrees>
              <LongitudeDegrees>-0.14429890550673007965087890625</LongitudeDegrees>
            </Position>
            <AltitudeMeters>252.8000030517578125</AltitudeMeters>
            <DistanceMeters>114073.46860476</DistanceMeters>
          </Trackpoint>
          <Trackpoint>
            <Time>2022-04-23T15:15:55.000Z</Time>
            <Position>
              <LatitudeDegrees>41.76230885088443756103515625</LatitudeDegrees>
              <LongitudeDegrees>-0.1442746818065643310546875</LongitudeDegrees>
            </Position>
            <AltitudeMeters>252.8000030517578125</AltitudeMeters>
            <DistanceMeters>114087.82770415</DistanceMeters>
          </Trackpoint>
          <Trackpoint>
            <Time>2022-04-23T15:15:56.000Z</Time>
            <Position>
              <LatitudeDegrees>41.762372218072414398193359375</LatitudeDegrees>
              <LongitudeDegrees>-0.1442805491387844085693359375</LongitudeDegrees>
            </Position>
            <AltitudeMeters>252.600006103515625</AltitudeMeters>
            <DistanceMeters>114094.89682312</DistanceMeters>
          </Trackpoint>
          <Trackpoint>
            <Time>2022-04-23T15:15:58.000Z</Time>
            <Position>
              <LatitudeDegrees>41.76249601878225803375244140625</LatitudeDegrees>
              <LongitudeDegrees>-0.14432254247367382049560546875</LongitudeDegrees>
            </Position>
            <AltitudeMeters>252.600006103515625</AltitudeMeters>
            <DistanceMeters>114109.10991006</DistanceMeters>
          </Trackpoint>
          <Trackpoint>
            <Time>2022-04-23T15:15:59.000Z</Time>
            <Position>
              <LatitudeDegrees>41.76254999823868274688720703125</LatitudeDegrees>
              <LongitudeDegrees>-0.1443586684763431549072265625</LongitudeDegrees>
            </Position>
            <AltitudeMeters>252.399993896484375</AltitudeMeters>
            <DistanceMeters>114115.82460824</DistanceMeters>
          </Trackpoint>
          <Trackpoint>
            <Time>2022-04-23T15:16:04.000Z</Time>
            <Position>
              <LatitudeDegrees>41.7627961747348308563232421875</LatitudeDegrees>
              <LongitudeDegrees>-0.14457835815846920013427734375</LongitudeDegrees>
            </Position>
            <AltitudeMeters>252</AltitudeMeters>
            <DistanceMeters>114148.73981007</DistanceMeters>
          </Trackpoint>
          <Trackpoint>
            <Time>2022-04-23T15:16:12.000Z</Time>
            <Position>
              <LatitudeDegrees>41.76318995654582977294921875</LatitudeDegrees>
              <LongitudeDegrees>-0.1448572240769863128662109375</LongitudeDegrees>
            </Position>
            <AltitudeMeters>252.1999969482421875</AltitudeMeters>
            <DistanceMeters>114198.30751507</DistanceMeters>
          </Trackpoint>
          <Trackpoint>
            <Time>2022-04-23T15:16:16.000Z</Time>
            <Position>
              <LatitudeDegrees>41.76340897567570209503173828125</LatitudeDegrees>
              <LongitudeDegrees>-0.1449725590646266937255859375</LongitudeDegrees>
            </Position>
            <AltitudeMeters>252</AltitudeMeters>
            <DistanceMeters>114224.49767748</DistanceMeters>
          </Trackpoint>
          <Trackpoint>
            <Time>2022-04-23T15:16:19.000Z</Time>
            <Position>
              <LatitudeDegrees>41.7635468579828739166259765625</LatitudeDegrees>
              <LongitudeDegrees>-0.14504808001220226287841796875</LongitudeDegrees>
            </Position>
            <AltitudeMeters>251.8000030517578125</AltitudeMeters>
            <DistanceMeters>114241.07541395</DistanceMeters>
          </Trackpoint>
          <Trackpoint>
            <Time>2022-04-23T15:16:23.000Z</Time>
            <Position>
              <LatitudeDegrees>41.76376470364630222320556640625</LatitudeDegrees>
              <LongitudeDegrees>-0.1451090164482593536376953125</LongitudeDegrees>
            </Position>
            <AltitudeMeters>251.8000030517578125</AltitudeMeters>
            <DistanceMeters>114265.84423232</DistanceMeters>
          </Trackpoint>
          <Trackpoint>
            <Time>2022-04-23T15:16:24.000Z</Time>
            <Position>
              <LatitudeDegrees>41.7638187669217586517333984375</LatitudeDegrees>
              <LongitudeDegrees>-0.14513776637613773345947265625</LongitudeDegrees>
            </Position>
            <AltitudeMeters>251.8000030517578125</AltitudeMeters>
            <DistanceMeters>114272.31791634</DistanceMeters>
          </Trackpoint>
          <Trackpoint>
            <Time>2022-04-23T15:16:25.000Z</Time>
            <Position>
              <LatitudeDegrees>41.7638814635574817657470703125</LatitudeDegrees>
              <LongitudeDegrees>-0.1451673544943332672119140625</LongitudeDegrees>
            </Position>
            <AltitudeMeters>251.600006103515625</AltitudeMeters>
            <DistanceMeters>114279.71536612</DistanceMeters>
          </Trackpoint>
          <Trackpoint>
            <Time>2022-04-23T15:16:29.000Z</Time>
            <Position>
              <LatitudeDegrees>41.76407508552074432373046875</LatitudeDegrees>
              <LongitudeDegrees>-0.14520314522087574005126953125</LongitudeDegrees>
            </Position>
            <AltitudeMeters>252</AltitudeMeters>
            <DistanceMeters>114301.46984327</DistanceMeters>
          </Trackpoint>
          <Trackpoint>
            <Time>2022-04-23T15:16:33.000Z</Time>
            <Position>
              <LatitudeDegrees>41.76430701278150081634521484375</LatitudeDegrees>
              <LongitudeDegrees>-0.14521957375109195709228515625</LongitudeDegrees>
            </Position>
            <AltitudeMeters>252.1999969482421875</AltitudeMeters>
            <DistanceMeters>114327.31990434</DistanceMeters>
          </Trackpoint>
          <Trackpoint>
            <Time>2022-04-23T15:16:35.000Z</Time>
            <Position>
              <LatitudeDegrees>41.76442444324493408203125</LatitudeDegrees>
              <LongitudeDegrees>-0.14523767866194248199462890625</LongitudeDegrees>
            </Position>
            <AltitudeMeters>252.1999969482421875</AltitudeMeters>
            <DistanceMeters>114340.47621481</DistanceMeters>
          </Trackpoint>
          <Trackpoint>
            <Time>2022-04-23T15:16:38.000Z</Time>
            <Position>
              <LatitudeDegrees>41.764609850943088531494140625</LatitudeDegrees>
              <LongitudeDegrees>-0.14528025873005390167236328125</LongitudeDegrees>
            </Position>
            <AltitudeMeters>252.399993896484375</AltitudeMeters>
            <DistanceMeters>114361.41316852</DistanceMeters>
          </Trackpoint>
          <Trackpoint>
            <Time>2022-04-23T15:16:41.000Z</Time>
            <Position>
              <LatitudeDegrees>41.76478981040418148040771484375</LatitudeDegrees>
              <LongitudeDegrees>-0.1453413628041744232177734375</LongitudeDegrees>
            </Position>
            <AltitudeMeters>252.399993896484375</AltitudeMeters>
            <DistanceMeters>114382.07574373</DistanceMeters>
          </Trackpoint>
          <Trackpoint>
            <Time>2022-04-23T15:16:44.000Z</Time>
            <Position>
              <LatitudeDegrees>41.764953844249248504638671875</LatitudeDegrees>
              <LongitudeDegrees>-0.1453936658799648284912109375</LongitudeDegrees>
            </Position>
            <AltitudeMeters>252.600006103515625</AltitudeMeters>
            <DistanceMeters>114400.84225677</DistanceMeters>
          </Trackpoint>
          <Trackpoint>
            <Time>2022-04-23T15:16:47.000Z</Time>
            <Position>
              <LatitudeDegrees>41.76511586643755435943603515625</LatitudeDegrees>
              <LongitudeDegrees>-0.1454664207994937896728515625</LongitudeDegrees>
            </Position>
            <AltitudeMeters>252.8000030517578125</AltitudeMeters>
            <DistanceMeters>114419.86042392</DistanceMeters>
          </Trackpoint>
          <Trackpoint>
            <Time>2022-04-23T15:16:54.000Z</Time>
            <Position>
              <LatitudeDegrees>41.76554485224187374114990234375</LatitudeDegrees>
              <LongitudeDegrees>-0.145650990307331085205078125</LongitudeDegrees>
            </Position>
            <AltitudeMeters>253.1999969482421875</AltitudeMeters>
            <DistanceMeters>114470.00572487</DistanceMeters>
          </Trackpoint>
          <Trackpoint>
            <Time>2022-04-23T15:16:58.000Z</Time>
            <Position>
              <LatitudeDegrees>41.76581625826656818389892578125</LatitudeDegrees>
              <LongitudeDegrees>-0.145756937563419342041015625</LongitudeDegrees>
            </Position>
            <AltitudeMeters>253.8000030517578125</AltitudeMeters>
            <DistanceMeters>114501.46803533</DistanceMeters>
          </Trackpoint>
          <Trackpoint>
            <Time>2022-04-23T15:17:00.000Z</Time>
            <Position>
              <LatitudeDegrees>41.7659326829016208648681640625</LatitudeDegrees>
              <LongitudeDegrees>-0.145801864564418792724609375</LongitudeDegrees>
            </Position>
            <AltitudeMeters>253.8000030517578125</AltitudeMeters>
            <DistanceMeters>114514.951787</DistanceMeters>
          </Trackpoint>
          <Trackpoint>
            <Time>2022-04-23T15:17:07.000Z</Time>
            <Position>
              <LatitudeDegrees>41.76640030927956104278564453125</LatitudeDegrees>
              <LongitudeDegrees>-0.14593991450965404510498046875</LongitudeDegrees>
            </Position>
            <AltitudeMeters>254.399993896484375</AltitudeMeters>
            <DistanceMeters>114568.2462725</DistanceMeters>
          </Trackpoint>
          <Trackpoint>
            <Time>2022-04-23T15:17:13.000Z</Time>
            <Position>
              <LatitudeDegrees>41.76676425151526927947998046875</LatitudeDegrees>
              <LongitudeDegrees>-0.1460139267146587371826171875</LongitudeDegrees>
            </Position>
            <AltitudeMeters>254.399993896484375</AltitudeMeters>
            <DistanceMeters>114609.21711506</DistanceMeters>
          </Trackpoint>
          <Trackpoint>
            <Time>2022-04-23T15:17:18.000Z</Time>
            <Position>
              <LatitudeDegrees>41.76704890094697475433349609375</LatitudeDegrees>
              <LongitudeDegrees>-0.14601199887692928314208984375</LongitudeDegrees>
            </Position>
            <AltitudeMeters>254.1999969482421875</AltitudeMeters>
            <DistanceMeters>114640.89951187</DistanceMeters>
          </Trackpoint>
          <Trackpoint>
            <Time>2022-04-23T15:17:23.000Z</Time>
            <Position>
              <LatitudeDegrees>41.76737948320806026458740234375</LatitudeDegrees>
              <LongitudeDegrees>-0.14595215208828449249267578125</LongitudeDegrees>
            </Position>
            <AltitudeMeters>254.399993896484375</AltitudeMeters>
            <DistanceMeters>114678.02784889</DistanceMeters>
          </Trackpoint>
          <Trackpoint>
            <Time>2022-04-23T15:17:24.000Z</Time>
            <Position>
              <LatitudeDegrees>41.76743178628385066986083984375</LatitudeDegrees>
              <LongitudeDegrees>-0.1459495536983013153076171875</LongitudeDegrees>
            </Position>
            <AltitudeMeters>254.399993896484375</AltitudeMeters>
            <DistanceMeters>114683.85245164</DistanceMeters>
          </Trackpoint>
          <Trackpoint>
            <Time>2022-04-23T15:17:30.000Z</Time>
            <Position>
              <LatitudeDegrees>41.76783688366413116455078125</LatitudeDegrees>
              <LongitudeDegrees>-0.14600546099245548248291015625</LongitudeDegrees>
            </Position>
            <AltitudeMeters>254.8000030517578125</AltitudeMeters>
            <DistanceMeters>114729.17870024</DistanceMeters>
          </Trackpoint>
          <Trackpoint>
            <Time>2022-04-23T15:17:33.000Z</Time>
            <Position>
              <LatitudeDegrees>41.7680338583886623382568359375</LatitudeDegrees>
              <LongitudeDegrees>-0.146075449883937835693359375</LongitudeDegrees>
            </Position>
            <AltitudeMeters>255</AltitudeMeters>
            <DistanceMeters>114751.85924994</DistanceMeters>
          </Trackpoint>
          <Trackpoint>
            <Time>2022-04-23T15:17:38.000Z</Time>
            <Position>
              <LatitudeDegrees>41.7683667875826358795166015625</LatitudeDegrees>
              <LongitudeDegrees>-0.146165974438190460205078125</LongitudeDegrees>
            </Position>
            <AltitudeMeters>255.399993896484375</AltitudeMeters>
            <DistanceMeters>114789.66937533</DistanceMeters>
          </Trackpoint>
          <Trackpoint>
            <Time>2022-04-23T15:17:42.000Z</Time>
            <Position>
              <LatitudeDegrees>41.76861497573554515838623046875</LatitudeDegrees>
              <LongitudeDegrees>-0.146265886723995208740234375</LongitudeDegrees>
            </Position>
            <AltitudeMeters>255.8000030517578125</AltitudeMeters>
            <DistanceMeters>114818.51150948</DistanceMeters>
          </Trackpoint>
          <Trackpoint>
            <Time>2022-04-23T15:17:45.000Z</Time>
            <Position>
              <LatitudeDegrees>41.768791414797306060791015625</LatitudeDegrees>
              <LongitudeDegrees>-0.14634727500379085540771484375</LongitudeDegrees>
            </Position>
            <AltitudeMeters>256.20001220703125</AltitudeMeters>
            <DistanceMeters>114839.27914081</DistanceMeters>
          </Trackpoint>
          <Trackpoint>
            <Time>2022-04-23T15:17:52.000Z</Time>
            <Position>
              <LatitudeDegrees>41.76920372061431407928466796875</LatitudeDegrees>
              <LongitudeDegrees>-0.14657593332231044769287109375</LongitudeDegrees>
            </Position>
            <AltitudeMeters>257</AltitudeMeters>
            <DistanceMeters>114888.94030539</DistanceMeters>
          </Trackpoint>
          <Trackpoint>
            <Time>2022-04-23T15:17:56.000Z</Time>
            <Position>
              <LatitudeDegrees>41.76942315883934497833251953125</LatitudeDegrees>
              <LongitudeDegrees>-0.1467262208461761474609375</LongitudeDegrees>
            </Position>
            <AltitudeMeters>257.20001220703125</AltitudeMeters>
            <DistanceMeters>114916.36600953</DistanceMeters>
          </Trackpoint>
          <Trackpoint>
            <Time>2022-04-23T15:18:00.000Z</Time>
            <Position>
              <LatitudeDegrees>41.7696525715291500091552734375</LatitudeDegrees>
              <LongitudeDegrees>-0.14686167240142822265625</LongitudeDegrees>
            </Position>
            <AltitudeMeters>257.600006103515625</AltitudeMeters>
            <DistanceMeters>114944.26634483</DistanceMeters>
          </Trackpoint>
          <Trackpoint>
            <Time>2022-04-23T15:18:08.000Z</Time>
            <Position>
              <LatitudeDegrees>41.7701169289648532867431640625</LatitudeDegrees>
              <LongitudeDegrees>-0.147128887474536895751953125</LongitudeDegrees>
            </Position>
            <AltitudeMeters>257.600006103515625</AltitudeMeters>
            <DistanceMeters>115000.50931682</DistanceMeters>
          </Trackpoint>
          <Trackpoint>
            <Time>2022-04-23T15:18:12.000Z</Time>
            <Position>
              <LatitudeDegrees>41.77035472355782985687255859375</LatitudeDegrees>
              <LongitudeDegrees>-0.1472358405590057373046875</LongitudeDegrees>
            </Position>
            <AltitudeMeters>257.399993896484375</AltitudeMeters>
            <DistanceMeters>115028.42566844</DistanceMeters>
          </Trackpoint>
          <Trackpoint>
            <Time>2022-04-23T15:18:14.000Z</Time>
            <Position>
              <LatitudeDegrees>41.77048263140022754669189453125</LatitudeDegrees>
              <LongitudeDegrees>-0.1472546160221099853515625</LongitudeDegrees>
            </Position>
            <AltitudeMeters>257.399993896484375</AltitudeMeters>
            <DistanceMeters>115042.7473009</DistanceMeters>
          </Trackpoint>
          <Trackpoint>
            <Time>2022-04-23T15:18:20.000Z</Time>
            <Position>
              <LatitudeDegrees>41.77084523253142833709716796875</LatitudeDegrees>
              <LongitudeDegrees>-0.14727515168488025665283203125</LongitudeDegrees>
            </Position>
            <AltitudeMeters>257.20001220703125</AltitudeMeters>
            <DistanceMeters>115083.14159125</DistanceMeters>
          </Trackpoint>
          <Trackpoint>
            <Time>2022-04-23T15:18:29.000Z</Time>
            <Position>
              <LatitudeDegrees>41.7714023776352405548095703125</LatitudeDegrees>
              <LongitudeDegrees>-0.14735863544046878814697265625</LongitudeDegrees>
            </Position>
            <AltitudeMeters>257.600006103515625</AltitudeMeters>
            <DistanceMeters>115145.53891347</DistanceMeters>
          </Trackpoint>
          <Trackpoint>
            <Time>2022-04-23T15:18:30.000Z</Time>
            <Position>
              <LatitudeDegrees>41.7714637331664562225341796875</LatitudeDegrees>
              <LongitudeDegrees>-0.1473808474838733673095703125</LongitudeDegrees>
            </Position>
            <AltitudeMeters>257.600006103515625</AltitudeMeters>
            <DistanceMeters>115152.61314018</DistanceMeters>
          </Trackpoint>
          <Trackpoint>
            <Time>2022-04-23T15:18:39.000Z</Time>
            <Position>
              <LatitudeDegrees>41.77201601676642894744873046875</LatitudeDegrees>
              <LongitudeDegrees>-0.14765133149921894073486328125</LongitudeDegrees>
            </Position>
            <AltitudeMeters>257.20001220703125</AltitudeMeters>
            <DistanceMeters>115218.05571406</DistanceMeters>
          </Trackpoint>
          <Trackpoint>
            <Time>2022-04-23T15:18:40.000Z</Time>
            <Position>
              <LatitudeDegrees>41.772075779736042022705078125</LatitudeDegrees>
              <LongitudeDegrees>-0.14767815358936786651611328125</LongitudeDegrees>
            </Position>
            <AltitudeMeters>257.20001220703125</AltitudeMeters>
            <DistanceMeters>115225.07033355</DistanceMeters>
          </Trackpoint>
          <Trackpoint>
            <Time>2022-04-23T15:18:49.000Z</Time>
            <Position>
              <LatitudeDegrees>41.7726291529834270477294921875</LatitudeDegrees>
              <LongitudeDegrees>-0.147883929312229156494140625</LongitudeDegrees>
            </Position>
            <AltitudeMeters>257.399993896484375</AltitudeMeters>
            <DistanceMeters>115288.98651948</DistanceMeters>
          </Trackpoint>
          <Trackpoint>
            <Time>2022-04-23T15:18:58.000Z</Time>
            <Position>
              <LatitudeDegrees>41.7732064984738826751708984375</LatitudeDegrees>
              <LongitudeDegrees>-0.1480235718190670013427734375</LongitudeDegrees>
            </Position>
            <AltitudeMeters>257.399993896484375</AltitudeMeters>
            <DistanceMeters>115354.28335718</DistanceMeters>
          </Trackpoint>
          <Trackpoint>
            <Time>2022-04-23T15:19:05.000Z</Time>
            <Position>
              <LatitudeDegrees>41.7736339755356311798095703125</LatitudeDegrees>
              <LongitudeDegrees>-0.14821828342974185943603515625</LongitudeDegrees>
            </Position>
            <AltitudeMeters>257.20001220703125</AltitudeMeters>
            <DistanceMeters>115404.53254568</DistanceMeters>
          </Trackpoint>
          <Trackpoint>
            <Time>2022-04-23T15:19:13.000Z</Time>
            <Position>
              <LatitudeDegrees>41.77415139041841030120849609375</LatitudeDegrees>
              <LongitudeDegrees>-0.14842129312455654144287109375</LongitudeDegrees>
            </Position>
            <AltitudeMeters>257</AltitudeMeters>
            <DistanceMeters>115464.5365548</DistanceMeters>
          </Trackpoint>
          <Trackpoint>
            <Time>2022-04-23T15:19:20.000Z</Time>
            <Position>
              <LatitudeDegrees>41.77463628351688385009765625</LatitudeDegrees>
              <LongitudeDegrees>-0.14859010465443134307861328125</LongitudeDegrees>
            </Position>
            <AltitudeMeters>256.79998779296875</AltitudeMeters>
            <DistanceMeters>115520.2954583</DistanceMeters>
          </Trackpoint>
          <Trackpoint>
            <Time>2022-04-23T15:19:23.000Z</Time>
            <Position>
              <LatitudeDegrees>41.77483116276562213897705078125</LatitudeDegrees>
              <LongitudeDegrees>-0.14867073856294155120849609375</LongitudeDegrees>
            </Position>
            <AltitudeMeters>256.79998779296875</AltitudeMeters>
            <DistanceMeters>115542.99511076</DistanceMeters>
          </Trackpoint>
          <Trackpoint>
            <Time>2022-04-23T15:19:26.000Z</Time>
            <Position>
              <LatitudeDegrees>41.7750458233058452606201171875</LatitudeDegrees>
              <LongitudeDegrees>-0.148728825151920318603515625</LongitudeDegrees>
            </Position>
            <AltitudeMeters>257</AltitudeMeters>
            <DistanceMeters>115567.36867573</DistanceMeters>
          </Trackpoint>
          <Trackpoint>
            <Time>2022-04-23T15:19:32.000Z</Time>
            <Position>
              <LatitudeDegrees>41.77546751685440540313720703125</LatitudeDegrees>
              <LongitudeDegrees>-0.14889386482536792755126953125</LongitudeDegrees>
            </Position>
            <AltitudeMeters>257.20001220703125</AltitudeMeters>
            <DistanceMeters>115616.26229819</DistanceMeters>
          </Trackpoint>
          <Trackpoint>
            <Time>2022-04-23T15:19:34.000Z</Time>
            <Position>
              <LatitudeDegrees>41.775630377233028411865234375</LatitudeDegrees>
              <LongitudeDegrees>-0.1489363610744476318359375</LongitudeDegrees>
            </Position>
            <AltitudeMeters>257.20001220703125</AltitudeMeters>
            <DistanceMeters>115634.72904769</DistanceMeters>
          </Trackpoint>
          <Trackpoint>
            <Time>2022-04-23T15:19:40.000Z</Time>
            <Position>
              <LatitudeDegrees>41.7760620452463626861572265625</LatitudeDegrees>
              <LongitudeDegrees>-0.14907608740031719207763671875</LongitudeDegrees>
            </Position>
            <AltitudeMeters>257.399993896484375</AltitudeMeters>
            <DistanceMeters>115684.15445067</DistanceMeters>
          </Trackpoint>
          <Trackpoint>
            <Time>2022-04-23T15:19:46.000Z</Time>
            <Position>
              <LatitudeDegrees>41.7764777876436710357666015625</LatitudeDegrees>
              <LongitudeDegrees>-0.14911808073520660400390625</LongitudeDegrees>
            </Position>
            <AltitudeMeters>257.79998779296875</AltitudeMeters>
            <DistanceMeters>115730.55834123</DistanceMeters>
          </Trackpoint>
          <Trackpoint>
            <Time>2022-04-23T15:19:47.000Z</Time>
            <Position>
              <LatitudeDegrees>41.77654475905001163482666015625</LatitudeDegrees>
              <LongitudeDegrees>-0.14914087951183319091796875</LongitudeDegrees>
            </Position>
            <AltitudeMeters>257.79998779296875</AltitudeMeters>
            <DistanceMeters>115738.24904995</DistanceMeters>
          </Trackpoint>
          <Trackpoint>
            <Time>2022-04-23T15:19:48.000Z</Time>
            <Position>
              <LatitudeDegrees>41.77660812623798847198486328125</LatitudeDegrees>
              <LongitudeDegrees>-0.1491735689342021942138671875</LongitudeDegrees>
            </Position>
            <AltitudeMeters>257.79998779296875</AltitudeMeters>
            <DistanceMeters>115745.80591461</DistanceMeters>
          </Trackpoint>
          <Trackpoint>
            <Time>2022-04-23T15:19:51.000Z</Time>
            <Position>
              <LatitudeDegrees>41.77679236046969890594482421875</LatitudeDegrees>
              <LongitudeDegrees>-0.1492868922650814056396484375</LongitudeDegrees>
            </Position>
            <AltitudeMeters>258.20001220703125</AltitudeMeters>
            <DistanceMeters>115768.36610518</DistanceMeters>
          </Trackpoint>
          <Trackpoint>
            <Time>2022-04-23T15:19:52.000Z</Time>
            <Position>
              <LatitudeDegrees>41.77686922252178192138671875</LatitudeDegrees>
              <LongitudeDegrees>-0.14932134188711643218994140625</LongitudeDegrees>
            </Position>
            <AltitudeMeters>258.399993896484375</AltitudeMeters>
            <DistanceMeters>115777.38613782</DistanceMeters>
          </Trackpoint>
          <Trackpoint>
            <Time>2022-04-23T15:19:53.000Z</Time>
            <Position>
              <LatitudeDegrees>41.776937954127788543701171875</LatitudeDegrees>
              <LongitudeDegrees>-0.14933441765606403350830078125</LongitudeDegrees>
            </Position>
            <AltitudeMeters>258.399993896484375</AltitudeMeters>
            <DistanceMeters>115785.11315959</DistanceMeters>
          </Trackpoint>
          <Trackpoint>
            <Time>2022-04-23T15:19:54.000Z</Time>
            <Position>
              <LatitudeDegrees>41.7769914306700229644775390625</LatitudeDegrees>
              <LongitudeDegrees>-0.1493338309228420257568359375</LongitudeDegrees>
            </Position>
            <AltitudeMeters>258.399993896484375</AltitudeMeters>
            <DistanceMeters>115791.0650492</DistanceMeters>
          </Trackpoint>
          <Trackpoint>
            <Time>2022-04-23T15:19:55.000Z</Time>
            <Position>
              <LatitudeDegrees>41.7770554684102535247802734375</LatitudeDegrees>
              <LongitudeDegrees>-0.1493284665048122406005859375</LongitudeDegrees>
            </Position>
            <AltitudeMeters>258.600006103515625</AltitudeMeters>
            <DistanceMeters>115798.20660867</DistanceMeters>
          </Trackpoint>
          <Trackpoint>
            <Time>2022-04-23T15:20:03.000Z</Time>
            <Position>
              <LatitudeDegrees>41.7775801755487918853759765625</LatitudeDegrees>
              <LongitudeDegrees>-0.14929418452084064483642578125</LongitudeDegrees>
            </Position>
            <AltitudeMeters>259.399993896484375</AltitudeMeters>
            <DistanceMeters>115856.67684795</DistanceMeters>
          </Trackpoint>
          <Trackpoint>
            <Time>2022-04-23T15:20:04.000Z</Time>
            <Position>
              <LatitudeDegrees>41.77764563821256160736083984375</LatitudeDegrees>
              <LongitudeDegrees>-0.1492882333695888519287109375</LongitudeDegrees>
            </Position>
            <AltitudeMeters>259.600006103515625</AltitudeMeters>
            <DistanceMeters>115863.97969887</DistanceMeters>
          </Trackpoint>
          <Trackpoint>
            <Time>2022-04-23T15:20:07.000Z</Time>
            <Position>
              <LatitudeDegrees>41.777838505804538726806640625</LatitudeDegrees>
              <LongitudeDegrees>-0.14921061694622039794921875</LongitudeDegrees>
            </Position>
            <AltitudeMeters>259.79998779296875</AltitudeMeters>
            <DistanceMeters>115886.39230899</DistanceMeters>
          </Trackpoint>
          <Trackpoint>
            <Time>2022-04-23T15:20:12.000Z</Time>
            <Position>
              <LatitudeDegrees>41.778170764446258544921875</LatitudeDegrees>
              <LongitudeDegrees>-0.1491148956120014190673828125</LongitudeDegrees>
            </Position>
            <AltitudeMeters>260.399993896484375</AltitudeMeters>
            <DistanceMeters>115924.21723875</DistanceMeters>
          </Trackpoint>
          <Trackpoint>
            <Time>2022-04-23T15:20:13.000Z</Time>
            <Position>
              <LatitudeDegrees>41.77823790349066257476806640625</LatitudeDegrees>
              <LongitudeDegrees>-0.1491045020520687103271484375</LongitudeDegrees>
            </Position>
            <AltitudeMeters>260.399993896484375</AltitudeMeters>
            <DistanceMeters>115931.73937003</DistanceMeters>
          </Trackpoint>
          <Trackpoint>
            <Time>2022-04-23T15:20:20.000Z</Time>
            <Position>
              <LatitudeDegrees>41.778720952570438385009765625</LatitudeDegrees>
              <LongitudeDegrees>-0.14903166331350803375244140625</LongitudeDegrees>
            </Position>
            <AltitudeMeters>260.79998779296875</AltitudeMeters>
            <DistanceMeters>115985.84254425</DistanceMeters>
          </Trackpoint>
          <Trackpoint>
            <Time>2022-04-23T15:20:24.000Z</Time>
            <Position>
              <LatitudeDegrees>41.77896939218044281005859375</LatitudeDegrees>
              <LongitudeDegrees>-0.1489794440567493438720703125</LongitudeDegrees>
            </Position>
            <AltitudeMeters>261</AltitudeMeters>
            <DistanceMeters>116013.83206571</DistanceMeters>
          </Trackpoint>
          <Trackpoint>
            <Time>2022-04-23T15:20:26.000Z</Time>
            <Position>
              <LatitudeDegrees>41.779097132384777069091796875</LatitudeDegrees>
              <LongitudeDegrees>-0.1489107124507427215576171875</LongitudeDegrees>
            </Position>
            <AltitudeMeters>260.79998779296875</AltitudeMeters>
            <DistanceMeters>116029.15171606</DistanceMeters>
          </Trackpoint>
          <Trackpoint>
            <Time>2022-04-23T15:20:29.000Z</Time>
            <Position>
              <LatitudeDegrees>41.779293604195117950439453125</LatitudeDegrees>
              <LongitudeDegrees>-0.14880753122270107269287109375</LongitudeDegrees>
            </Position>
            <AltitudeMeters>260.600006103515625</AltitudeMeters>
            <DistanceMeters>116052.63658372</DistanceMeters>
          </Trackpoint>
          <Trackpoint>
            <Time>2022-04-23T15:20:31.000Z</Time>
            <Position>
              <LatitudeDegrees>41.77943131886422634124755859375</LatitudeDegrees>
              <LongitudeDegrees>-0.14877475798130035400390625</LongitudeDegrees>
            </Position>
            <AltitudeMeters>260.600006103515625</AltitudeMeters>
            <DistanceMeters>116068.20415231</DistanceMeters>
          </Trackpoint>
          <Trackpoint>
            <Time>2022-04-23T15:20:37.000Z</Time>
            <Position>
              <LatitudeDegrees>41.77984471432864665985107421875</LatitudeDegrees>
              <LongitudeDegrees>-0.14871248044073581695556640625</LongitudeDegrees>
            </Position>
            <AltitudeMeters>260.20001220703125</AltitudeMeters>
            <DistanceMeters>116114.50527895</DistanceMeters>
          </Trackpoint>
          <Trackpoint>
            <Time>2022-04-23T15:20:44.000Z</Time>
            <Position>
              <LatitudeDegrees>41.7803445272147655487060546875</LatitudeDegrees>
              <LongitudeDegrees>-0.148624219000339508056640625</LongitudeDegrees>
            </Position>
            <AltitudeMeters>260.20001220703125</AltitudeMeters>
            <DistanceMeters>116170.61563693</DistanceMeters>
          </Trackpoint>
          <Trackpoint>
            <Time>2022-04-23T15:20:49.000Z</Time>
            <Position>
              <LatitudeDegrees>41.78066320717334747314453125</LatitudeDegrees>
              <LongitudeDegrees>-0.14855825342237949371337890625</LongitudeDegrees>
            </Position>
            <AltitudeMeters>260.399993896484375</AltitudeMeters>
            <DistanceMeters>116206.50555507</DistanceMeters>
          </Trackpoint>
          <Trackpoint>
            <Time>2022-04-23T15:20:51.000Z</Time>
            <Position>
              <LatitudeDegrees>41.78079706616699695587158203125</LatitudeDegrees>
              <LongitudeDegrees>-0.148546434938907623291015625</LongitudeDegrees>
            </Position>
            <AltitudeMeters>260.399993896484375</AltitudeMeters>
            <DistanceMeters>116221.43684963</DistanceMeters>
          </Trackpoint>
          <Trackpoint>
            <Time>2022-04-23T15:20:59.000Z</Time>
            <Position>
              <LatitudeDegrees>41.7813384532928466796875</LatitudeDegrees>
              <LongitudeDegrees>-0.14845834113657474517822265625</LongitudeDegrees>
            </Position>
            <AltitudeMeters>260.600006103515625</AltitudeMeters>
            <DistanceMeters>116282.13631174</DistanceMeters>
          </Trackpoint>
          <Trackpoint>
            <Time>2022-04-23T15:21:01.000Z</Time>
            <Position>
              <LatitudeDegrees>41.78148605860769748687744140625</LatitudeDegrees>
              <LongitudeDegrees>-0.14842397533357143402099609375</LongitudeDegrees>
            </Position>
            <AltitudeMeters>260.600006103515625</AltitudeMeters>
            <DistanceMeters>116298.81072489</DistanceMeters>
          </Trackpoint>
          <Trackpoint>
            <Time>2022-04-23T15:21:07.000Z</Time>
            <Position>
              <LatitudeDegrees>41.78187288343906402587890625</LatitudeDegrees>
              <LongitudeDegrees>-0.14839480631053447723388671875</LongitudeDegrees>
            </Position>
            <AltitudeMeters>260.79998779296875</AltitudeMeters>
            <DistanceMeters>116341.93306888</DistanceMeters>
          </Trackpoint>
          <Trackpoint>
            <Time>2022-04-23T15:21:15.000Z</Time>
            <Position>
              <LatitudeDegrees>41.7823806591331958770751953125</LatitudeDegrees>
              <LongitudeDegrees>-0.14838717877864837646484375</LongitudeDegrees>
            </Position>
            <AltitudeMeters>261</AltitudeMeters>
            <DistanceMeters>116398.4531181</DistanceMeters>
          </Trackpoint>
          <Trackpoint>
            <Time>2022-04-23T15:21:20.000Z</Time>
            <Position>
              <LatitudeDegrees>41.78270545788109302520751953125</LatitudeDegrees>
              <LongitudeDegrees>-0.1483544893562793731689453125</LongitudeDegrees>
            </Position>
            <AltitudeMeters>261.600006103515625</AltitudeMeters>
            <DistanceMeters>116434.70552941</DistanceMeters>
          </Trackpoint>
          <Trackpoint>
            <Time>2022-04-23T15:21:23.000Z</Time>
            <Position>
              <LatitudeDegrees>41.7829142510890960693359375</LatitudeDegrees>
              <LongitudeDegrees>-0.14833085238933563232421875</LongitudeDegrees>
            </Position>
            <AltitudeMeters>262</AltitudeMeters>
            <DistanceMeters>116458.02718381</DistanceMeters>
          </Trackpoint>
          <Trackpoint>
            <Time>2022-04-23T15:21:31.000Z</Time>
            <Position>
              <LatitudeDegrees>41.78343233652412891387939453125</LatitudeDegrees>
              <LongitudeDegrees>-0.148254074156284332275390625</LongitudeDegrees>
            </Position>
            <AltitudeMeters>262.20001220703125</AltitudeMeters>
            <DistanceMeters>116516.0422187</DistanceMeters>
          </Trackpoint>
          <Trackpoint>
            <Time>2022-04-23T15:21:34.000Z</Time>
            <Position>
              <LatitudeDegrees>41.78364456631243228912353515625</LatitudeDegrees>
              <LongitudeDegrees>-0.14816514216363430023193359375</LongitudeDegrees>
            </Position>
            <AltitudeMeters>262.20001220703125</AltitudeMeters>
            <DistanceMeters>116540.79006517</DistanceMeters>
          </Trackpoint>
          <Trackpoint>
            <Time>2022-04-23T15:21:36.000Z</Time>
            <Position>
              <LatitudeDegrees>41.78377046249806880950927734375</LatitudeDegrees>
              <LongitudeDegrees>-0.14813010580837726593017578125</LongitudeDegrees>
            </Position>
            <AltitudeMeters>262.399993896484375</AltitudeMeters>
            <DistanceMeters>116555.10097477</DistanceMeters>
          </Trackpoint>
          <Trackpoint>
            <Time>2022-04-23T15:21:42.000Z</Time>
            <Position>
              <LatitudeDegrees>41.7841995321214199066162109375</LatitudeDegrees>
              <LongitudeDegrees>-0.14797738753259181976318359375</LongitudeDegrees>
            </Position>
            <AltitudeMeters>262.399993896484375</AltitudeMeters>
            <DistanceMeters>116604.51066296</DistanceMeters>
          </Trackpoint>
          <Trackpoint>
            <Time>2022-04-23T15:21:48.000Z</Time>
            <Position>
              <LatitudeDegrees>41.78461410105228424072265625</LatitudeDegrees>
              <LongitudeDegrees>-0.14791334979236125946044921875</LongitudeDegrees>
            </Position>
            <AltitudeMeters>262</AltitudeMeters>
            <DistanceMeters>116650.95812288</DistanceMeters>
          </Trackpoint>
          <Trackpoint>
            <Time>2022-04-23T15:21:54.000Z</Time>
            <Position>
              <LatitudeDegrees>41.78501433692872524261474609375</LatitudeDegrees>
              <LongitudeDegrees>-0.14784361235797405242919921875</LongitudeDegrees>
            </Position>
            <AltitudeMeters>262.20001220703125</AltitudeMeters>
            <DistanceMeters>116695.8795334</DistanceMeters>
          </Trackpoint>
          <Trackpoint>
            <Time>2022-04-23T15:22:01.000Z</Time>
            <Position>
              <LatitudeDegrees>41.78553543984889984130859375</LatitudeDegrees>
              <LongitudeDegrees>-0.14759969897568225860595703125</LongitudeDegrees>
            </Position>
            <AltitudeMeters>262.399993896484375</AltitudeMeters>
            <DistanceMeters>116757.3104641</DistanceMeters>
          </Trackpoint>
          <Trackpoint>
            <Time>2022-04-23T15:22:05.000Z</Time>
            <Position>
              <LatitudeDegrees>41.7858715541660785675048828125</LatitudeDegrees>
              <LongitudeDegrees>-0.14750045724213123321533203125</LongitudeDegrees>
            </Position>
            <AltitudeMeters>262.399993896484375</AltitudeMeters>
            <DistanceMeters>116795.61660371</DistanceMeters>
          </Trackpoint>
          <Trackpoint>
            <Time>2022-04-23T15:22:06.000Z</Time>
            <Position>
              <LatitudeDegrees>41.78595160134136676788330078125</LatitudeDegrees>
              <LongitudeDegrees>-0.14745502732694149017333984375</LongitudeDegrees>
            </Position>
            <AltitudeMeters>262.399993896484375</AltitudeMeters>
            <DistanceMeters>116805.29067794</DistanceMeters>
          </Trackpoint>
          <Trackpoint>
            <Time>2022-04-23T15:22:08.000Z</Time>
            <Position>
              <LatitudeDegrees>41.78611077368259429931640625</LatitudeDegrees>
              <LongitudeDegrees>-0.14736701734364032745361328125</LongitudeDegrees>
            </Position>
            <AltitudeMeters>262.399993896484375</AltitudeMeters>
            <DistanceMeters>116824.45358713</DistanceMeters>
          </Trackpoint>
          <Trackpoint>
            <Time>2022-04-23T15:22:10.000Z</Time>
            <Position>
              <LatitudeDegrees>41.78628645837306976318359375</LatitudeDegrees>
              <LongitudeDegrees>-0.14732862822711467742919921875</LongitudeDegrees>
            </Position>
            <AltitudeMeters>262.399993896484375</AltitudeMeters>
            <DistanceMeters>116844.26523277</DistanceMeters>
          </Trackpoint>
          <Trackpoint>
            <Time>2022-04-23T15:22:14.000Z</Time>
            <Position>
              <LatitudeDegrees>41.78664721548557281494140625</LatitudeDegrees>
              <LongitudeDegrees>-0.14732770621776580810546875</LongitudeDegrees>
            </Position>
            <AltitudeMeters>262.20001220703125</AltitudeMeters>
            <DistanceMeters>116884.41826464</DistanceMeters>
          </Trackpoint>
          <Trackpoint>
            <Time>2022-04-23T15:22:16.000Z</Time>
            <Position>
              <LatitudeDegrees>41.78682700730860233306884765625</LatitudeDegrees>
              <LongitudeDegrees>-0.14736567623913288116455078125</LongitudeDegrees>
            </Position>
            <AltitudeMeters>262</AltitudeMeters>
            <DistanceMeters>116904.67612371</DistanceMeters>
          </Trackpoint>
          <Trackpoint>
            <Time>2022-04-23T15:22:21.000Z</Time>
            <Position>
              <LatitudeDegrees>41.7872585915029048919677734375</LatitudeDegrees>
              <LongitudeDegrees>-0.147563405334949493408203125</LongitudeDegrees>
            </Position>
            <AltitudeMeters>261.600006103515625</AltitudeMeters>
            <DistanceMeters>116955.4377366</DistanceMeters>
          </Trackpoint>
          <Trackpoint>
            <Time>2022-04-23T15:22:26.000Z</Time>
            <Position>
              <LatitudeDegrees>41.7876129783689975738525390625</LatitudeDegrees>
              <LongitudeDegrees>-0.1478877849876880645751953125</LongitudeDegrees>
            </Position>
            <AltitudeMeters>261</AltitudeMeters>
            <DistanceMeters>117003.19241894</DistanceMeters>
          </Trackpoint>
          <Trackpoint>
            <Time>2022-04-23T15:22:32.000Z</Time>
            <Position>
              <LatitudeDegrees>41.7879666946828365325927734375</LatitudeDegrees>
              <LongitudeDegrees>-0.1482626236975193023681640625</LongitudeDegrees>
            </Position>
            <AltitudeMeters>261.399993896484375</AltitudeMeters>
            <DistanceMeters>117053.36823386</DistanceMeters>
          </Trackpoint>
          <Trackpoint>
            <Time>2022-04-23T15:22:37.000Z</Time>
            <Position>
              <LatitudeDegrees>41.78821722976863384246826171875</LatitudeDegrees>
              <LongitudeDegrees>-0.14849388040602207183837890625</LongitudeDegrees>
            </Position>
            <AltitudeMeters>262.600006103515625</AltitudeMeters>
            <DistanceMeters>117087.21935852</DistanceMeters>
          </Trackpoint>
          <Trackpoint>
            <Time>2022-04-23T15:22:39.000Z</Time>
            <Position>
              <LatitudeDegrees>41.78829752840101718902587890625</LatitudeDegrees>
              <LongitudeDegrees>-0.14858163893222808837890625</LongitudeDegrees>
            </Position>
            <AltitudeMeters>263</AltitudeMeters>
            <DistanceMeters>117098.74857034</DistanceMeters>
          </Trackpoint>
          <Trackpoint>
            <Time>2022-04-23T15:22:42.000Z</Time>
            <Position>
              <LatitudeDegrees>41.78842510096728801727294921875</LatitudeDegrees>
              <LongitudeDegrees>-0.14870678074657917022705078125</LongitudeDegrees>
            </Position>
            <AltitudeMeters>264</AltitudeMeters>
            <DistanceMeters>117116.34032267</DistanceMeters>
          </Trackpoint>
          <Trackpoint>
            <Time>2022-04-23T15:22:43.000Z</Time>
            <Position>
              <LatitudeDegrees>41.7884739674627780914306640625</LatitudeDegrees>
              <LongitudeDegrees>-0.14874801971018314361572265625</LongitudeDegrees>
            </Position>
            <AltitudeMeters>264.20001220703125</AltitudeMeters>
            <DistanceMeters>117122.76570277</DistanceMeters>
          </Trackpoint>
          <Trackpoint>
            <Time>2022-04-23T15:22:47.000Z</Time>
            <Position>
              <LatitudeDegrees>41.78866951726377010345458984375</LatitudeDegrees>
              <LongitudeDegrees>-0.14891096390783786773681640625</LongitudeDegrees>
            </Position>
            <AltitudeMeters>264.399993896484375</AltitudeMeters>
            <DistanceMeters>117148.3891061</DistanceMeters>
          </Trackpoint>
          <Trackpoint>
            <Time>2022-04-23T15:22:49.000Z</Time>
            <Position>
              <LatitudeDegrees>41.78875149227678775787353515625</LatitudeDegrees>
              <LongitudeDegrees>-0.149024538695812225341796875</LongitudeDegrees>
            </Position>
            <AltitudeMeters>264.79998779296875</AltitudeMeters>
            <DistanceMeters>117161.50726782</DistanceMeters>
          </Trackpoint>
          <Trackpoint>
            <Time>2022-04-23T15:22:51.000Z</Time>
            <Position>
              <LatitudeDegrees>41.788789294660091400146484375</LatitudeDegrees>
              <LongitudeDegrees>-0.149165354669094085693359375</LongitudeDegrees>
            </Position>
            <AltitudeMeters>264.79998779296875</AltitudeMeters>
            <DistanceMeters>117173.9278083</DistanceMeters>
          </Trackpoint>
          <Trackpoint>
            <Time>2022-04-23T15:22:52.000Z</Time>
            <Position>
              <LatitudeDegrees>41.788800023496150970458984375</LatitudeDegrees>
              <LongitudeDegrees>-0.14923986978828907012939453125</LongitudeDegrees>
            </Position>
            <AltitudeMeters>264.79998779296875</AltitudeMeters>
            <DistanceMeters>117180.22686822</DistanceMeters>
          </Trackpoint>
          <Trackpoint>
            <Time>2022-04-23T15:22:55.000Z</Time>
            <Position>
              <LatitudeDegrees>41.78882759995758533477783203125</LatitudeDegrees>
              <LongitudeDegrees>-0.1494642533361911773681640625</LongitudeDegrees>
            </Position>
            <AltitudeMeters>265.20001220703125</AltitudeMeters>
            <DistanceMeters>117199.09942251</DistanceMeters>
          </Trackpoint>
          <Trackpoint>
            <Time>2022-04-23T15:22:58.000Z</Time>
            <Position>
              <LatitudeDegrees>41.78885224275290966033935546875</LatitudeDegrees>
              <LongitudeDegrees>-0.14968880452215671539306640625</LongitudeDegrees>
            </Position>
            <AltitudeMeters>265.79998779296875</AltitudeMeters>
            <DistanceMeters>117217.93509806</DistanceMeters>
          </Trackpoint>
          <Trackpoint>
            <Time>2022-04-23T15:23:02.000Z</Time>
            <Position>
              <LatitudeDegrees>41.78891158662736415863037109375</LatitudeDegrees>
              <LongitudeDegrees>-0.1499923132359981536865234375</LongitudeDegrees>
            </Position>
            <AltitudeMeters>266.20001220703125</AltitudeMeters>
            <DistanceMeters>117243.9741518</DistanceMeters>
          </Trackpoint>
          <Trackpoint>
            <Time>2022-04-23T15:23:03.000Z</Time>
            <Position>
              <LatitudeDegrees>41.78892868570983409881591796875</LatitudeDegrees>
              <LongitudeDegrees>-0.15007026493549346923828125</LongitudeDegrees>
            </Position>
            <AltitudeMeters>266.399993896484375</AltitudeMeters>
            <DistanceMeters>117250.71703211</DistanceMeters>
          </Trackpoint>
          <Trackpoint>
            <Time>2022-04-23T15:23:10.000Z</Time>
            <Position>
              <LatitudeDegrees>41.78904536180198192596435546875</LatitudeDegrees>
              <LongitudeDegrees>-0.15061332844197750091552734375</LongitudeDegrees>
            </Position>
            <AltitudeMeters>266.79998779296875</AltitudeMeters>
            <DistanceMeters>117297.61808286</DistanceMeters>
          </Trackpoint>
          <Trackpoint>
            <Time>2022-04-23T15:23:12.000Z</Time>
            <Position>
              <LatitudeDegrees>41.78909162990748882293701171875</LatitudeDegrees>
              <LongitudeDegrees>-0.15074475668370723724365234375</LongitudeDegrees>
            </Position>
            <AltitudeMeters>266.79998779296875</AltitudeMeters>
            <DistanceMeters>117309.67973953</DistanceMeters>
          </Trackpoint>
          <Trackpoint>
            <Time>2022-04-23T15:23:14.000Z</Time>
            <Position>
              <LatitudeDegrees>41.78916580975055694580078125</LatitudeDegrees>
              <LongitudeDegrees>-0.150840394198894500732421875</LongitudeDegrees>
            </Position>
            <AltitudeMeters>266.600006103515625</AltitudeMeters>
            <DistanceMeters>117321.13272562</DistanceMeters>
          </Trackpoint>
          <Trackpoint>
            <Time>2022-04-23T15:23:16.000Z</Time>
            <Position>
              <LatitudeDegrees>41.78928173147141933441162109375</LatitudeDegrees>
              <LongitudeDegrees>-0.1508633606135845184326171875</LongitudeDegrees>
            </Position>
            <AltitudeMeters>266.600006103515625</AltitudeMeters>
            <DistanceMeters>117334.17529363</DistanceMeters>
          </Trackpoint>
          <Trackpoint>
            <Time>2022-04-23T15:23:17.000Z</Time>
            <Position>
              <LatitudeDegrees>41.7893426679074764251708984375</LatitudeDegrees>
              <LongitudeDegrees>-0.1508514583110809326171875</LongitudeDegrees>
            </Position>
            <AltitudeMeters>266.600006103515625</AltitudeMeters>
            <DistanceMeters>117341.02908511</DistanceMeters>
          </Trackpoint>
          <Trackpoint>
            <Time>2022-04-23T15:23:24.000Z</Time>
            <Position>
              <LatitudeDegrees>41.7897406406700611114501953125</LatitudeDegrees>
              <LongitudeDegrees>-0.1507252268493175506591796875</LongitudeDegrees>
            </Position>
            <AltitudeMeters>265.79998779296875</AltitudeMeters>
            <DistanceMeters>117386.54598855</DistanceMeters>
          </Trackpoint>
          <Trackpoint>
            <Time>2022-04-23T15:23:27.000Z</Time>
            <Position>
              <LatitudeDegrees>41.78989671170711517333984375</LatitudeDegrees>
              <LongitudeDegrees>-0.15067384578287601470947265625</LongitudeDegrees>
            </Position>
            <AltitudeMeters>265.600006103515625</AltitudeMeters>
            <DistanceMeters>117404.43273248</DistanceMeters>
          </Trackpoint>
          <Trackpoint>
            <Time>2022-04-23T15:23:29.000Z</Time>
            <Position>
              <LatitudeDegrees>41.78998597897589206695556640625</LatitudeDegrees>
              <LongitudeDegrees>-0.15064970590174198150634765625</LongitudeDegrees>
            </Position>
            <AltitudeMeters>265.600006103515625</AltitudeMeters>
            <DistanceMeters>117414.56812342</DistanceMeters>
          </Trackpoint>
          <Trackpoint>
            <Time>2022-04-23T15:23:33.000Z</Time>
            <Position>
              <LatitudeDegrees>41.7901352606713771820068359375</LatitudeDegrees>
              <LongitudeDegrees>-0.15059539116919040679931640625</LongitudeDegrees>
            </Position>
            <AltitudeMeters>265.20001220703125</AltitudeMeters>
            <DistanceMeters>117431.78396406</DistanceMeters>
          </Trackpoint>
        </Track>
      </Lap>
    </Activity>
  </Activities>
</TrainingCenterDatabase>
